<?xml version="1.0" encoding="UTF-8" standalone="no" ?>
<gpx xmlns="http://www.topografix.com/GPX/1/1" xmlns:xsi="http://www.w3.org/2001/XMLSchema-instance" xsi:schemaLocation="http://www.topografix.com/GPX/1/1 http://www.topografix.com/GPX/1/1/gpx.xsd" version="1.1" creator="VisuGPX - https://www.visugpx.com">
  <metadata>
    <name>Oresmaux </name>
  </metadata>
  <trk>
    <name><![CDATA[Oresmaux _1]]></name>
    <trkseg>
      <trkpt lat="49.76887" lon="2.26996">
        <ele>133.3</ele>
        <time>2023-07-12T07:01:06Z</time>
      </trkpt>
      <trkpt lat="49.76887" lon="2.27002">
        <ele>133.2</ele>
        <time>2023-07-12T07:01:07Z</time>
      </trkpt>
      <trkpt lat="49.76886" lon="2.27008">
        <ele>133.1</ele>
        <time>2023-07-12T07:01:09Z</time>
      </trkpt>
      <trkpt lat="49.76886" lon="2.27014">
        <ele>133</ele>
        <time>2023-07-12T07:01:10Z</time>
      </trkpt>
      <trkpt lat="49.76886" lon="2.27018">
        <ele>132.9</ele>
        <time>2023-07-12T07:01:11Z</time>
      </trkpt>
      <trkpt lat="49.76886" lon="2.27024">
        <ele>132.9</ele>
        <time>2023-07-12T07:01:12Z</time>
      </trkpt>
      <trkpt lat="49.76885" lon="2.27027">
        <ele>132.8</ele>
        <time>2023-07-12T07:01:13Z</time>
      </trkpt>
      <trkpt lat="49.76885" lon="2.27029">
        <ele>132.8</ele>
        <time>2023-07-12T07:01:14Z</time>
      </trkpt>
      <trkpt lat="49.76885" lon="2.27033">
        <ele>132.7</ele>
        <time>2023-07-12T07:01:15Z</time>
      </trkpt>
      <trkpt lat="49.76885" lon="2.27036">
        <ele>132.7</ele>
        <time>2023-07-12T07:01:17Z</time>
      </trkpt>
      <trkpt lat="49.76884" lon="2.27041">
        <ele>132.6</ele>
        <time>2023-07-12T07:01:18Z</time>
      </trkpt>
      <trkpt lat="49.76884" lon="2.27043">
        <ele>132.6</ele>
        <time>2023-07-12T07:01:19Z</time>
      </trkpt>
      <trkpt lat="49.76884" lon="2.27046">
        <ele>132.5</ele>
        <time>2023-07-12T07:01:20Z</time>
      </trkpt>
      <trkpt lat="49.76883" lon="2.27048">
        <ele>132.5</ele>
        <time>2023-07-12T07:01:22Z</time>
      </trkpt>
      <trkpt lat="49.76883" lon="2.2705">
        <ele>132.5</ele>
        <time>2023-07-12T07:01:23Z</time>
      </trkpt>
      <trkpt lat="49.76882" lon="2.27051">
        <ele>132.4</ele>
        <time>2023-07-12T07:01:24Z</time>
      </trkpt>
      <trkpt lat="49.76882" lon="2.27053">
        <ele>132.4</ele>
        <time>2023-07-12T07:01:25Z</time>
      </trkpt>
      <trkpt lat="49.76882" lon="2.27054">
        <ele>132.4</ele>
        <time>2023-07-12T07:01:26Z</time>
      </trkpt>
      <trkpt lat="49.76881" lon="2.27056">
        <ele>132.4</ele>
        <time>2023-07-12T07:01:28Z</time>
      </trkpt>
      <trkpt lat="49.76881" lon="2.27058">
        <ele>132.3</ele>
        <time>2023-07-12T07:01:29Z</time>
      </trkpt>
      <trkpt lat="49.76881" lon="2.27059">
        <ele>132.3</ele>
        <time>2023-07-12T07:01:30Z</time>
      </trkpt>
      <trkpt lat="49.7688" lon="2.27061">
        <ele>132.3</ele>
        <time>2023-07-12T07:01:32Z</time>
      </trkpt>
      <trkpt lat="49.7688" lon="2.27062">
        <ele>132.3</ele>
        <time>2023-07-12T07:01:33Z</time>
      </trkpt>
      <trkpt lat="49.7688" lon="2.27063">
        <ele>132.3</ele>
        <time>2023-07-12T07:01:34Z</time>
      </trkpt>
      <trkpt lat="49.76881" lon="2.27064">
        <ele>132.2</ele>
        <time>2023-07-12T07:01:35Z</time>
      </trkpt>
      <trkpt lat="49.76881" lon="2.27065">
        <ele>132.2</ele>
        <time>2023-07-12T07:01:36Z</time>
      </trkpt>
      <trkpt lat="49.76881" lon="2.27066">
        <ele>132.2</ele>
        <time>2023-07-12T07:01:38Z</time>
      </trkpt>
      <trkpt lat="49.76882" lon="2.27067">
        <ele>132.2</ele>
        <time>2023-07-12T07:01:39Z</time>
      </trkpt>
      <trkpt lat="49.76882" lon="2.27069">
        <ele>132.2</ele>
        <time>2023-07-12T07:01:40Z</time>
      </trkpt>
      <trkpt lat="49.76882" lon="2.2707">
        <ele>132.2</ele>
        <time>2023-07-12T07:01:41Z</time>
      </trkpt>
      <trkpt lat="49.76882" lon="2.27071">
        <ele>132</ele>
        <time>2023-07-12T07:01:42Z</time>
      </trkpt>
      <trkpt lat="49.76883" lon="2.27072">
        <ele>132</ele>
        <time>2023-07-12T07:01:43Z</time>
      </trkpt>
      <trkpt lat="49.76884" lon="2.27072">
        <ele>132</ele>
        <time>2023-07-12T07:01:45Z</time>
      </trkpt>
      <trkpt lat="49.76884" lon="2.27073">
        <ele>132</ele>
        <time>2023-07-12T07:01:46Z</time>
      </trkpt>
      <trkpt lat="49.76885" lon="2.27074">
        <ele>132</ele>
        <time>2023-07-12T07:01:47Z</time>
      </trkpt>
      <trkpt lat="49.76886" lon="2.27074">
        <ele>132</ele>
        <time>2023-07-12T07:01:48Z</time>
      </trkpt>
      <trkpt lat="49.76887" lon="2.27074">
        <ele>132</ele>
        <time>2023-07-12T07:01:49Z</time>
      </trkpt>
      <trkpt lat="49.76887" lon="2.27074">
        <ele>132</ele>
        <time>2023-07-12T07:01:51Z</time>
      </trkpt>
      <trkpt lat="49.76888" lon="2.27074">
        <ele>132</ele>
        <time>2023-07-12T07:01:52Z</time>
      </trkpt>
      <trkpt lat="49.76889" lon="2.27074">
        <ele>132</ele>
        <time>2023-07-12T07:01:53Z</time>
      </trkpt>
      <trkpt lat="49.7689" lon="2.27074">
        <ele>132</ele>
        <time>2023-07-12T07:01:54Z</time>
      </trkpt>
      <trkpt lat="49.76891" lon="2.27075">
        <ele>132</ele>
        <time>2023-07-12T07:01:55Z</time>
      </trkpt>
      <trkpt lat="49.76891" lon="2.27076">
        <ele>132</ele>
        <time>2023-07-12T07:01:56Z</time>
      </trkpt>
      <trkpt lat="49.76893" lon="2.27076">
        <ele>132</ele>
        <time>2023-07-12T07:01:57Z</time>
      </trkpt>
      <trkpt lat="49.76894" lon="2.27076">
        <ele>131.9</ele>
        <time>2023-07-12T07:01:59Z</time>
      </trkpt>
      <trkpt lat="49.76894" lon="2.27075">
        <ele>131.9</ele>
        <time>2023-07-12T07:02:00Z</time>
      </trkpt>
      <trkpt lat="49.76895" lon="2.27075">
        <ele>131.9</ele>
        <time>2023-07-12T07:02:01Z</time>
      </trkpt>
      <trkpt lat="49.76897" lon="2.27075">
        <ele>131.9</ele>
        <time>2023-07-12T07:02:02Z</time>
      </trkpt>
      <trkpt lat="49.76897" lon="2.27075">
        <ele>131.9</ele>
        <time>2023-07-12T07:02:03Z</time>
      </trkpt>
      <trkpt lat="49.76898" lon="2.27075">
        <ele>131.9</ele>
        <time>2023-07-12T07:02:04Z</time>
      </trkpt>
      <trkpt lat="49.769" lon="2.27075">
        <ele>131.9</ele>
        <time>2023-07-12T07:02:06Z</time>
      </trkpt>
      <trkpt lat="49.769" lon="2.27075">
        <ele>131.9</ele>
        <time>2023-07-12T07:02:07Z</time>
      </trkpt>
      <trkpt lat="49.76901" lon="2.27075">
        <ele>131.9</ele>
        <time>2023-07-12T07:02:08Z</time>
      </trkpt>
      <trkpt lat="49.76902" lon="2.27075">
        <ele>131.9</ele>
        <time>2023-07-12T07:02:09Z</time>
      </trkpt>
      <trkpt lat="49.76903" lon="2.27075">
        <ele>131.9</ele>
        <time>2023-07-12T07:02:10Z</time>
      </trkpt>
      <trkpt lat="49.76904" lon="2.27075">
        <ele>131.9</ele>
        <time>2023-07-12T07:02:11Z</time>
      </trkpt>
      <trkpt lat="49.76905" lon="2.27075">
        <ele>131.9</ele>
        <time>2023-07-12T07:02:12Z</time>
      </trkpt>
      <trkpt lat="49.76905" lon="2.27078">
        <ele>131.9</ele>
        <time>2023-07-12T07:02:14Z</time>
      </trkpt>
      <trkpt lat="49.76905" lon="2.27079">
        <ele>131.9</ele>
        <time>2023-07-12T07:02:15Z</time>
      </trkpt>
      <trkpt lat="49.76906" lon="2.2708">
        <ele>131.9</ele>
        <time>2023-07-12T07:02:16Z</time>
      </trkpt>
      <trkpt lat="49.76907" lon="2.27079">
        <ele>131.9</ele>
        <time>2023-07-12T07:02:17Z</time>
      </trkpt>
      <trkpt lat="49.76908" lon="2.27079">
        <ele>131.9</ele>
        <time>2023-07-12T07:02:18Z</time>
      </trkpt>
      <trkpt lat="49.76909" lon="2.27079">
        <ele>131.9</ele>
        <time>2023-07-12T07:02:19Z</time>
      </trkpt>
      <trkpt lat="49.7691" lon="2.27078">
        <ele>131.9</ele>
        <time>2023-07-12T07:02:20Z</time>
      </trkpt>
      <trkpt lat="49.76912" lon="2.27079">
        <ele>131.8</ele>
        <time>2023-07-12T07:02:22Z</time>
      </trkpt>
      <trkpt lat="49.76914" lon="2.27079">
        <ele>131.8</ele>
        <time>2023-07-12T07:02:23Z</time>
      </trkpt>
      <trkpt lat="49.76917" lon="2.27079">
        <ele>131.8</ele>
        <time>2023-07-12T07:02:24Z</time>
      </trkpt>
      <trkpt lat="49.76918" lon="2.2708">
        <ele>131.8</ele>
        <time>2023-07-12T07:02:25Z</time>
      </trkpt>
      <trkpt lat="49.76919" lon="2.2708">
        <ele>131.8</ele>
        <time>2023-07-12T07:02:26Z</time>
      </trkpt>
      <trkpt lat="49.7692" lon="2.2708">
        <ele>131.8</ele>
        <time>2023-07-12T07:02:27Z</time>
      </trkpt>
      <trkpt lat="49.76922" lon="2.27081">
        <ele>131.8</ele>
        <time>2023-07-12T07:02:29Z</time>
      </trkpt>
      <trkpt lat="49.76923" lon="2.27081">
        <ele>131.8</ele>
        <time>2023-07-12T07:02:30Z</time>
      </trkpt>
      <trkpt lat="49.76924" lon="2.27081">
        <ele>131.8</ele>
        <time>2023-07-12T07:02:31Z</time>
      </trkpt>
      <trkpt lat="49.76926" lon="2.27082">
        <ele>131.8</ele>
        <time>2023-07-12T07:02:32Z</time>
      </trkpt>
      <trkpt lat="49.76927" lon="2.27083">
        <ele>131.8</ele>
        <time>2023-07-12T07:02:33Z</time>
      </trkpt>
      <trkpt lat="49.76929" lon="2.27083">
        <ele>131.8</ele>
        <time>2023-07-12T07:02:34Z</time>
      </trkpt>
      <trkpt lat="49.7693" lon="2.27084">
        <ele>131.8</ele>
        <time>2023-07-12T07:02:35Z</time>
      </trkpt>
      <trkpt lat="49.76932" lon="2.27084">
        <ele>131.7</ele>
        <time>2023-07-12T07:02:36Z</time>
      </trkpt>
      <trkpt lat="49.76933" lon="2.27085">
        <ele>131.7</ele>
        <time>2023-07-12T07:02:37Z</time>
      </trkpt>
      <trkpt lat="49.76935" lon="2.27085">
        <ele>131.7</ele>
        <time>2023-07-12T07:02:38Z</time>
      </trkpt>
      <trkpt lat="49.76936" lon="2.27086">
        <ele>131.7</ele>
        <time>2023-07-12T07:02:39Z</time>
      </trkpt>
      <trkpt lat="49.76937" lon="2.27087">
        <ele>131.7</ele>
        <time>2023-07-12T07:02:41Z</time>
      </trkpt>
      <trkpt lat="49.76938" lon="2.27089">
        <ele>131.7</ele>
        <time>2023-07-12T07:02:42Z</time>
      </trkpt>
      <trkpt lat="49.76939" lon="2.27089">
        <ele>131.7</ele>
        <time>2023-07-12T07:02:43Z</time>
      </trkpt>
      <trkpt lat="49.7694" lon="2.2709">
        <ele>131.7</ele>
        <time>2023-07-12T07:02:44Z</time>
      </trkpt>
      <trkpt lat="49.7694" lon="2.27091">
        <ele>131.7</ele>
        <time>2023-07-12T07:02:45Z</time>
      </trkpt>
      <trkpt lat="49.76942" lon="2.27092">
        <ele>131.7</ele>
        <time>2023-07-12T07:02:47Z</time>
      </trkpt>
      <trkpt lat="49.76943" lon="2.27093">
        <ele>131.7</ele>
        <time>2023-07-12T07:02:48Z</time>
      </trkpt>
      <trkpt lat="49.76944" lon="2.27094">
        <ele>131.7</ele>
        <time>2023-07-12T07:02:49Z</time>
      </trkpt>
      <trkpt lat="49.76946" lon="2.27095">
        <ele>131.7</ele>
        <time>2023-07-12T07:02:50Z</time>
      </trkpt>
      <trkpt lat="49.76948" lon="2.27097">
        <ele>131.7</ele>
        <time>2023-07-12T07:02:51Z</time>
      </trkpt>
      <trkpt lat="49.76949" lon="2.27097">
        <ele>131.7</ele>
        <time>2023-07-12T07:02:52Z</time>
      </trkpt>
      <trkpt lat="49.76952" lon="2.27099">
        <ele>131.6</ele>
        <time>2023-07-12T07:02:53Z</time>
      </trkpt>
      <trkpt lat="49.76953" lon="2.271">
        <ele>131.6</ele>
        <time>2023-07-12T07:02:54Z</time>
      </trkpt>
      <trkpt lat="49.76955" lon="2.27101">
        <ele>131.6</ele>
        <time>2023-07-12T07:02:55Z</time>
      </trkpt>
      <trkpt lat="49.76957" lon="2.27102">
        <ele>131.6</ele>
        <time>2023-07-12T07:02:57Z</time>
      </trkpt>
      <trkpt lat="49.76959" lon="2.27103">
        <ele>131.6</ele>
        <time>2023-07-12T07:02:58Z</time>
      </trkpt>
      <trkpt lat="49.7696" lon="2.27104">
        <ele>131.6</ele>
        <time>2023-07-12T07:02:59Z</time>
      </trkpt>
      <trkpt lat="49.76962" lon="2.27105">
        <ele>131.6</ele>
        <time>2023-07-12T07:03:00Z</time>
      </trkpt>
      <trkpt lat="49.76963" lon="2.27105">
        <ele>131.6</ele>
        <time>2023-07-12T07:03:01Z</time>
      </trkpt>
      <trkpt lat="49.76965" lon="2.27106">
        <ele>131.6</ele>
        <time>2023-07-12T07:03:02Z</time>
      </trkpt>
      <trkpt lat="49.76966" lon="2.27107">
        <ele>131.6</ele>
        <time>2023-07-12T07:03:03Z</time>
      </trkpt>
      <trkpt lat="49.76968" lon="2.27108">
        <ele>131.6</ele>
        <time>2023-07-12T07:03:05Z</time>
      </trkpt>
      <trkpt lat="49.76969" lon="2.27108">
        <ele>131.5</ele>
        <time>2023-07-12T07:03:06Z</time>
      </trkpt>
      <trkpt lat="49.7697" lon="2.27108">
        <ele>131.5</ele>
        <time>2023-07-12T07:03:07Z</time>
      </trkpt>
      <trkpt lat="49.76972" lon="2.27109">
        <ele>131.5</ele>
        <time>2023-07-12T07:03:08Z</time>
      </trkpt>
      <trkpt lat="49.76973" lon="2.27109">
        <ele>131.5</ele>
        <time>2023-07-12T07:03:09Z</time>
      </trkpt>
      <trkpt lat="49.76975" lon="2.27111">
        <ele>131.5</ele>
        <time>2023-07-12T07:03:11Z</time>
      </trkpt>
      <trkpt lat="49.76975" lon="2.27111">
        <ele>131.5</ele>
        <time>2023-07-12T07:03:12Z</time>
      </trkpt>
      <trkpt lat="49.76976" lon="2.27112">
        <ele>131.5</ele>
        <time>2023-07-12T07:03:13Z</time>
      </trkpt>
      <trkpt lat="49.76977" lon="2.27112">
        <ele>131.5</ele>
        <time>2023-07-12T07:03:14Z</time>
      </trkpt>
      <trkpt lat="49.76979" lon="2.27113">
        <ele>131.5</ele>
        <time>2023-07-12T07:03:15Z</time>
      </trkpt>
      <trkpt lat="49.76981" lon="2.27114">
        <ele>131.5</ele>
        <time>2023-07-12T07:03:16Z</time>
      </trkpt>
      <trkpt lat="49.76981" lon="2.27114">
        <ele>131.5</ele>
        <time>2023-07-12T07:03:18Z</time>
      </trkpt>
      <trkpt lat="49.76982" lon="2.27115">
        <ele>131.5</ele>
        <time>2023-07-12T07:03:19Z</time>
      </trkpt>
      <trkpt lat="49.76984" lon="2.27115">
        <ele>131.4</ele>
        <time>2023-07-12T07:03:20Z</time>
      </trkpt>
      <trkpt lat="49.76985" lon="2.27116">
        <ele>131.4</ele>
        <time>2023-07-12T07:03:21Z</time>
      </trkpt>
      <trkpt lat="49.76986" lon="2.27117">
        <ele>131.4</ele>
        <time>2023-07-12T07:03:22Z</time>
      </trkpt>
      <trkpt lat="49.76988" lon="2.27118">
        <ele>131.4</ele>
        <time>2023-07-12T07:03:23Z</time>
      </trkpt>
      <trkpt lat="49.76989" lon="2.27118">
        <ele>131.4</ele>
        <time>2023-07-12T07:03:24Z</time>
      </trkpt>
      <trkpt lat="49.76989" lon="2.27119">
        <ele>131.4</ele>
        <time>2023-07-12T07:03:25Z</time>
      </trkpt>
      <trkpt lat="49.76991" lon="2.2712">
        <ele>131.4</ele>
        <time>2023-07-12T07:03:26Z</time>
      </trkpt>
      <trkpt lat="49.76992" lon="2.27121">
        <ele>131.4</ele>
        <time>2023-07-12T07:03:27Z</time>
      </trkpt>
      <trkpt lat="49.76993" lon="2.27121">
        <ele>131.4</ele>
        <time>2023-07-12T07:03:28Z</time>
      </trkpt>
      <trkpt lat="49.76994" lon="2.27122">
        <ele>131.4</ele>
        <time>2023-07-12T07:03:30Z</time>
      </trkpt>
      <trkpt lat="49.76995" lon="2.27124">
        <ele>131.4</ele>
        <time>2023-07-12T07:03:31Z</time>
      </trkpt>
      <trkpt lat="49.76996" lon="2.27125">
        <ele>131.4</ele>
        <time>2023-07-12T07:03:32Z</time>
      </trkpt>
      <trkpt lat="49.76998" lon="2.27126">
        <ele>131.3</ele>
        <time>2023-07-12T07:03:33Z</time>
      </trkpt>
      <trkpt lat="49.76999" lon="2.27127">
        <ele>131.3</ele>
        <time>2023-07-12T07:03:34Z</time>
      </trkpt>
      <trkpt lat="49.77" lon="2.27128">
        <ele>131.3</ele>
        <time>2023-07-12T07:03:35Z</time>
      </trkpt>
      <trkpt lat="49.77001" lon="2.2713">
        <ele>131.3</ele>
        <time>2023-07-12T07:03:36Z</time>
      </trkpt>
      <trkpt lat="49.77002" lon="2.27131">
        <ele>131.3</ele>
        <time>2023-07-12T07:03:37Z</time>
      </trkpt>
      <trkpt lat="49.77004" lon="2.27132">
        <ele>131.3</ele>
        <time>2023-07-12T07:03:38Z</time>
      </trkpt>
      <trkpt lat="49.77005" lon="2.27133">
        <ele>131.3</ele>
        <time>2023-07-12T07:03:40Z</time>
      </trkpt>
      <trkpt lat="49.77006" lon="2.27135">
        <ele>131.3</ele>
        <time>2023-07-12T07:03:41Z</time>
      </trkpt>
      <trkpt lat="49.77007" lon="2.27136">
        <ele>131.3</ele>
        <time>2023-07-12T07:03:42Z</time>
      </trkpt>
      <trkpt lat="49.77008" lon="2.27138">
        <ele>131.3</ele>
        <time>2023-07-12T07:03:43Z</time>
      </trkpt>
      <trkpt lat="49.77009" lon="2.27139">
        <ele>131.3</ele>
        <time>2023-07-12T07:03:44Z</time>
      </trkpt>
      <trkpt lat="49.77012" lon="2.27142">
        <ele>131.3</ele>
        <time>2023-07-12T07:03:46Z</time>
      </trkpt>
      <trkpt lat="49.77013" lon="2.27143">
        <ele>131.3</ele>
        <time>2023-07-12T07:03:47Z</time>
      </trkpt>
      <trkpt lat="49.77015" lon="2.27144">
        <ele>131.3</ele>
        <time>2023-07-12T07:03:49Z</time>
      </trkpt>
      <trkpt lat="49.77015" lon="2.27145">
        <ele>131.3</ele>
        <time>2023-07-12T07:03:50Z</time>
      </trkpt>
      <trkpt lat="49.77016" lon="2.27146">
        <ele>131.3</ele>
        <time>2023-07-12T07:03:51Z</time>
      </trkpt>
      <trkpt lat="49.77018" lon="2.27147">
        <ele>131.3</ele>
        <time>2023-07-12T07:03:52Z</time>
      </trkpt>
      <trkpt lat="49.77019" lon="2.27148">
        <ele>131.2</ele>
        <time>2023-07-12T07:03:53Z</time>
      </trkpt>
      <trkpt lat="49.77021" lon="2.27149">
        <ele>131.2</ele>
        <time>2023-07-12T07:03:55Z</time>
      </trkpt>
      <trkpt lat="49.77022" lon="2.27149">
        <ele>131.2</ele>
        <time>2023-07-12T07:03:56Z</time>
      </trkpt>
      <trkpt lat="49.77023" lon="2.27149">
        <ele>131.2</ele>
        <time>2023-07-12T07:03:57Z</time>
      </trkpt>
      <trkpt lat="49.77025" lon="2.2715">
        <ele>131.2</ele>
        <time>2023-07-12T07:03:58Z</time>
      </trkpt>
      <trkpt lat="49.77026" lon="2.2715">
        <ele>131.2</ele>
        <time>2023-07-12T07:03:59Z</time>
      </trkpt>
      <trkpt lat="49.77026" lon="2.27151">
        <ele>131.2</ele>
        <time>2023-07-12T07:04:00Z</time>
      </trkpt>
      <trkpt lat="49.77028" lon="2.27152">
        <ele>131.2</ele>
        <time>2023-07-12T07:04:01Z</time>
      </trkpt>
      <trkpt lat="49.77029" lon="2.27152">
        <ele>131.2</ele>
        <time>2023-07-12T07:04:02Z</time>
      </trkpt>
      <trkpt lat="49.7703" lon="2.27153">
        <ele>131.2</ele>
        <time>2023-07-12T07:04:03Z</time>
      </trkpt>
      <trkpt lat="49.77032" lon="2.27153">
        <ele>131.2</ele>
        <time>2023-07-12T07:04:04Z</time>
      </trkpt>
      <trkpt lat="49.77033" lon="2.27154">
        <ele>131.2</ele>
        <time>2023-07-12T07:04:05Z</time>
      </trkpt>
      <trkpt lat="49.77034" lon="2.27154">
        <ele>131.2</ele>
        <time>2023-07-12T07:04:06Z</time>
      </trkpt>
      <trkpt lat="49.77035" lon="2.27155">
        <ele>131.2</ele>
        <time>2023-07-12T07:04:07Z</time>
      </trkpt>
      <trkpt lat="49.77036" lon="2.27155">
        <ele>131.2</ele>
        <time>2023-07-12T07:04:08Z</time>
      </trkpt>
      <trkpt lat="49.77037" lon="2.27156">
        <ele>131.2</ele>
        <time>2023-07-12T07:04:10Z</time>
      </trkpt>
      <trkpt lat="49.7704" lon="2.27156">
        <ele>131.2</ele>
        <time>2023-07-12T07:04:11Z</time>
      </trkpt>
      <trkpt lat="49.7704" lon="2.27156">
        <ele>131.2</ele>
        <time>2023-07-12T07:04:12Z</time>
      </trkpt>
      <trkpt lat="49.77041" lon="2.27157">
        <ele>131.2</ele>
        <time>2023-07-12T07:04:13Z</time>
      </trkpt>
      <trkpt lat="49.77043" lon="2.27157">
        <ele>131.2</ele>
        <time>2023-07-12T07:04:14Z</time>
      </trkpt>
      <trkpt lat="49.77044" lon="2.27157">
        <ele>131.2</ele>
        <time>2023-07-12T07:04:15Z</time>
      </trkpt>
      <trkpt lat="49.77045" lon="2.27157">
        <ele>131.1</ele>
        <time>2023-07-12T07:04:16Z</time>
      </trkpt>
      <trkpt lat="49.77046" lon="2.27157">
        <ele>131.1</ele>
        <time>2023-07-12T07:04:18Z</time>
      </trkpt>
      <trkpt lat="49.77048" lon="2.27158">
        <ele>131.1</ele>
        <time>2023-07-12T07:04:19Z</time>
      </trkpt>
      <trkpt lat="49.77049" lon="2.27158">
        <ele>131.1</ele>
        <time>2023-07-12T07:04:20Z</time>
      </trkpt>
      <trkpt lat="49.77051" lon="2.27159">
        <ele>131.1</ele>
        <time>2023-07-12T07:04:21Z</time>
      </trkpt>
      <trkpt lat="49.77051" lon="2.27159">
        <ele>131.1</ele>
        <time>2023-07-12T07:04:22Z</time>
      </trkpt>
      <trkpt lat="49.77052" lon="2.2716">
        <ele>131.1</ele>
        <time>2023-07-12T07:04:23Z</time>
      </trkpt>
      <trkpt lat="49.77053" lon="2.27161">
        <ele>131.1</ele>
        <time>2023-07-12T07:04:24Z</time>
      </trkpt>
      <trkpt lat="49.77054" lon="2.27161">
        <ele>131.1</ele>
        <time>2023-07-12T07:04:25Z</time>
      </trkpt>
      <trkpt lat="49.77055" lon="2.27162">
        <ele>131.1</ele>
        <time>2023-07-12T07:04:26Z</time>
      </trkpt>
      <trkpt lat="49.77056" lon="2.27163">
        <ele>131.1</ele>
        <time>2023-07-12T07:04:27Z</time>
      </trkpt>
      <trkpt lat="49.77057" lon="2.27164">
        <ele>131.1</ele>
        <time>2023-07-12T07:04:28Z</time>
      </trkpt>
      <trkpt lat="49.77058" lon="2.27165">
        <ele>131.1</ele>
        <time>2023-07-12T07:04:30Z</time>
      </trkpt>
      <trkpt lat="49.77058" lon="2.27166">
        <ele>131.1</ele>
        <time>2023-07-12T07:04:31Z</time>
      </trkpt>
      <trkpt lat="49.77059" lon="2.27167">
        <ele>131.1</ele>
        <time>2023-07-12T07:04:32Z</time>
      </trkpt>
      <trkpt lat="49.7706" lon="2.27168">
        <ele>131.1</ele>
        <time>2023-07-12T07:04:33Z</time>
      </trkpt>
      <trkpt lat="49.77062" lon="2.2717">
        <ele>131.1</ele>
        <time>2023-07-12T07:04:34Z</time>
      </trkpt>
      <trkpt lat="49.77063" lon="2.27171">
        <ele>131.1</ele>
        <time>2023-07-12T07:04:35Z</time>
      </trkpt>
      <trkpt lat="49.77064" lon="2.27172">
        <ele>131.1</ele>
        <time>2023-07-12T07:04:36Z</time>
      </trkpt>
      <trkpt lat="49.77066" lon="2.27173">
        <ele>131.1</ele>
        <time>2023-07-12T07:04:37Z</time>
      </trkpt>
      <trkpt lat="49.77066" lon="2.27174">
        <ele>131.1</ele>
        <time>2023-07-12T07:04:38Z</time>
      </trkpt>
      <trkpt lat="49.77067" lon="2.27175">
        <ele>131</ele>
        <time>2023-07-12T07:04:39Z</time>
      </trkpt>
      <trkpt lat="49.77068" lon="2.27177">
        <ele>131</ele>
        <time>2023-07-12T07:04:40Z</time>
      </trkpt>
      <trkpt lat="49.77069" lon="2.27178">
        <ele>131</ele>
        <time>2023-07-12T07:04:41Z</time>
      </trkpt>
      <trkpt lat="49.7707" lon="2.27178">
        <ele>131</ele>
        <time>2023-07-12T07:04:42Z</time>
      </trkpt>
      <trkpt lat="49.77072" lon="2.27182">
        <ele>131</ele>
        <time>2023-07-12T07:04:44Z</time>
      </trkpt>
      <trkpt lat="49.77073" lon="2.27183">
        <ele>131</ele>
        <time>2023-07-12T07:04:45Z</time>
      </trkpt>
      <trkpt lat="49.77074" lon="2.27184">
        <ele>131</ele>
        <time>2023-07-12T07:04:47Z</time>
      </trkpt>
      <trkpt lat="49.77075" lon="2.27186">
        <ele>131</ele>
        <time>2023-07-12T07:04:48Z</time>
      </trkpt>
      <trkpt lat="49.77076" lon="2.27187">
        <ele>131</ele>
        <time>2023-07-12T07:04:49Z</time>
      </trkpt>
      <trkpt lat="49.77077" lon="2.27188">
        <ele>131</ele>
        <time>2023-07-12T07:04:50Z</time>
      </trkpt>
      <trkpt lat="49.77079" lon="2.2719">
        <ele>131</ele>
        <time>2023-07-12T07:04:51Z</time>
      </trkpt>
      <trkpt lat="49.7708" lon="2.27191">
        <ele>131.1</ele>
        <time>2023-07-12T07:04:52Z</time>
      </trkpt>
      <trkpt lat="49.77081" lon="2.27193">
        <ele>131.1</ele>
        <time>2023-07-12T07:04:54Z</time>
      </trkpt>
      <trkpt lat="49.77082" lon="2.27194">
        <ele>131.1</ele>
        <time>2023-07-12T07:04:55Z</time>
      </trkpt>
      <trkpt lat="49.77083" lon="2.27194">
        <ele>131.1</ele>
        <time>2023-07-12T07:04:56Z</time>
      </trkpt>
      <trkpt lat="49.77085" lon="2.27196">
        <ele>131.1</ele>
        <time>2023-07-12T07:04:57Z</time>
      </trkpt>
      <trkpt lat="49.77085" lon="2.27197">
        <ele>131.1</ele>
        <time>2023-07-12T07:04:58Z</time>
      </trkpt>
      <trkpt lat="49.77086" lon="2.27197">
        <ele>131.1</ele>
        <time>2023-07-12T07:04:59Z</time>
      </trkpt>
      <trkpt lat="49.77088" lon="2.27199">
        <ele>131.1</ele>
        <time>2023-07-12T07:05:00Z</time>
      </trkpt>
      <trkpt lat="49.77089" lon="2.272">
        <ele>131.1</ele>
        <time>2023-07-12T07:05:01Z</time>
      </trkpt>
      <trkpt lat="49.77089" lon="2.272">
        <ele>131.1</ele>
        <time>2023-07-12T07:05:02Z</time>
      </trkpt>
      <trkpt lat="49.7709" lon="2.27202">
        <ele>131.1</ele>
        <time>2023-07-12T07:05:03Z</time>
      </trkpt>
      <trkpt lat="49.77092" lon="2.27203">
        <ele>131.1</ele>
        <time>2023-07-12T07:05:04Z</time>
      </trkpt>
      <trkpt lat="49.77092" lon="2.27204">
        <ele>131.1</ele>
        <time>2023-07-12T07:05:06Z</time>
      </trkpt>
      <trkpt lat="49.77093" lon="2.27205">
        <ele>131.1</ele>
        <time>2023-07-12T07:05:07Z</time>
      </trkpt>
      <trkpt lat="49.77094" lon="2.27206">
        <ele>131.1</ele>
        <time>2023-07-12T07:05:08Z</time>
      </trkpt>
      <trkpt lat="49.77096" lon="2.27208">
        <ele>131.1</ele>
        <time>2023-07-12T07:05:09Z</time>
      </trkpt>
      <trkpt lat="49.77097" lon="2.27208">
        <ele>131.1</ele>
        <time>2023-07-12T07:05:10Z</time>
      </trkpt>
      <trkpt lat="49.77098" lon="2.27209">
        <ele>131.1</ele>
        <time>2023-07-12T07:05:11Z</time>
      </trkpt>
      <trkpt lat="49.771" lon="2.2721">
        <ele>131.1</ele>
        <time>2023-07-12T07:05:12Z</time>
      </trkpt>
      <trkpt lat="49.771" lon="2.27211">
        <ele>131.1</ele>
        <time>2023-07-12T07:05:13Z</time>
      </trkpt>
      <trkpt lat="49.77101" lon="2.27211">
        <ele>131.1</ele>
        <time>2023-07-12T07:05:14Z</time>
      </trkpt>
      <trkpt lat="49.77102" lon="2.27212">
        <ele>131.1</ele>
        <time>2023-07-12T07:05:15Z</time>
      </trkpt>
      <trkpt lat="49.77103" lon="2.27212">
        <ele>131.1</ele>
        <time>2023-07-12T07:05:16Z</time>
      </trkpt>
      <trkpt lat="49.77105" lon="2.27212">
        <ele>131.1</ele>
        <time>2023-07-12T07:05:18Z</time>
      </trkpt>
      <trkpt lat="49.77106" lon="2.27213">
        <ele>131.1</ele>
        <time>2023-07-12T07:05:19Z</time>
      </trkpt>
      <trkpt lat="49.77107" lon="2.27213">
        <ele>131.1</ele>
        <time>2023-07-12T07:05:20Z</time>
      </trkpt>
      <trkpt lat="49.77108" lon="2.27214">
        <ele>131.1</ele>
        <time>2023-07-12T07:05:21Z</time>
      </trkpt>
      <trkpt lat="49.77109" lon="2.27214">
        <ele>131.1</ele>
        <time>2023-07-12T07:05:22Z</time>
      </trkpt>
      <trkpt lat="49.7711" lon="2.27215">
        <ele>131.1</ele>
        <time>2023-07-12T07:05:23Z</time>
      </trkpt>
      <trkpt lat="49.77111" lon="2.27215">
        <ele>131</ele>
        <time>2023-07-12T07:05:24Z</time>
      </trkpt>
      <trkpt lat="49.77112" lon="2.27215">
        <ele>131</ele>
        <time>2023-07-12T07:05:25Z</time>
      </trkpt>
      <trkpt lat="49.77114" lon="2.27215">
        <ele>131</ele>
        <time>2023-07-12T07:05:26Z</time>
      </trkpt>
      <trkpt lat="49.77115" lon="2.27215">
        <ele>131</ele>
        <time>2023-07-12T07:05:27Z</time>
      </trkpt>
      <trkpt lat="49.77116" lon="2.27214">
        <ele>131</ele>
        <time>2023-07-12T07:05:28Z</time>
      </trkpt>
      <trkpt lat="49.77117" lon="2.27214">
        <ele>131</ele>
        <time>2023-07-12T07:05:30Z</time>
      </trkpt>
      <trkpt lat="49.77118" lon="2.27214">
        <ele>131</ele>
        <time>2023-07-12T07:05:31Z</time>
      </trkpt>
      <trkpt lat="49.7712" lon="2.27213">
        <ele>131</ele>
        <time>2023-07-12T07:05:32Z</time>
      </trkpt>
      <trkpt lat="49.77121" lon="2.27213">
        <ele>131</ele>
        <time>2023-07-12T07:05:33Z</time>
      </trkpt>
      <trkpt lat="49.77122" lon="2.27213">
        <ele>131</ele>
        <time>2023-07-12T07:05:34Z</time>
      </trkpt>
      <trkpt lat="49.77125" lon="2.27212">
        <ele>131.1</ele>
        <time>2023-07-12T07:05:35Z</time>
      </trkpt>
      <trkpt lat="49.77126" lon="2.27212">
        <ele>131.1</ele>
        <time>2023-07-12T07:05:37Z</time>
      </trkpt>
      <trkpt lat="49.77127" lon="2.27211">
        <ele>131.1</ele>
        <time>2023-07-12T07:05:38Z</time>
      </trkpt>
      <trkpt lat="49.77128" lon="2.27211">
        <ele>131.1</ele>
        <time>2023-07-12T07:05:39Z</time>
      </trkpt>
      <trkpt lat="49.77129" lon="2.2721">
        <ele>131.1</ele>
        <time>2023-07-12T07:05:40Z</time>
      </trkpt>
      <trkpt lat="49.77131" lon="2.2721">
        <ele>131.1</ele>
        <time>2023-07-12T07:05:41Z</time>
      </trkpt>
      <trkpt lat="49.77132" lon="2.27209">
        <ele>131.1</ele>
        <time>2023-07-12T07:05:42Z</time>
      </trkpt>
      <trkpt lat="49.77133" lon="2.27209">
        <ele>131.1</ele>
        <time>2023-07-12T07:05:43Z</time>
      </trkpt>
      <trkpt lat="49.77135" lon="2.27209">
        <ele>131.1</ele>
        <time>2023-07-12T07:05:44Z</time>
      </trkpt>
      <trkpt lat="49.77136" lon="2.2721">
        <ele>131.1</ele>
        <time>2023-07-12T07:05:46Z</time>
      </trkpt>
      <trkpt lat="49.77137" lon="2.2721">
        <ele>131.1</ele>
        <time>2023-07-12T07:05:47Z</time>
      </trkpt>
      <trkpt lat="49.77139" lon="2.2721">
        <ele>131.1</ele>
        <time>2023-07-12T07:05:48Z</time>
      </trkpt>
      <trkpt lat="49.7714" lon="2.2721">
        <ele>131.1</ele>
        <time>2023-07-12T07:05:49Z</time>
      </trkpt>
      <trkpt lat="49.77141" lon="2.2721">
        <ele>131.1</ele>
        <time>2023-07-12T07:05:50Z</time>
      </trkpt>
      <trkpt lat="49.77142" lon="2.2721">
        <ele>131.1</ele>
        <time>2023-07-12T07:05:51Z</time>
      </trkpt>
      <trkpt lat="49.77144" lon="2.2721">
        <ele>131.1</ele>
        <time>2023-07-12T07:05:52Z</time>
      </trkpt>
      <trkpt lat="49.77145" lon="2.2721">
        <ele>131.1</ele>
        <time>2023-07-12T07:05:53Z</time>
      </trkpt>
      <trkpt lat="49.77146" lon="2.27211">
        <ele>131.1</ele>
        <time>2023-07-12T07:05:54Z</time>
      </trkpt>
      <trkpt lat="49.77147" lon="2.27212">
        <ele>131.1</ele>
        <time>2023-07-12T07:05:55Z</time>
      </trkpt>
      <trkpt lat="49.77148" lon="2.27214">
        <ele>131.1</ele>
        <time>2023-07-12T07:05:57Z</time>
      </trkpt>
      <trkpt lat="49.77149" lon="2.27214">
        <ele>131.1</ele>
        <time>2023-07-12T07:05:58Z</time>
      </trkpt>
      <trkpt lat="49.7715" lon="2.27215">
        <ele>131.1</ele>
        <time>2023-07-12T07:05:59Z</time>
      </trkpt>
      <trkpt lat="49.77151" lon="2.27216">
        <ele>131.1</ele>
        <time>2023-07-12T07:06:00Z</time>
      </trkpt>
      <trkpt lat="49.77152" lon="2.27217">
        <ele>131.1</ele>
        <time>2023-07-12T07:06:01Z</time>
      </trkpt>
      <trkpt lat="49.77153" lon="2.27217">
        <ele>131.1</ele>
        <time>2023-07-12T07:06:02Z</time>
      </trkpt>
      <trkpt lat="49.77154" lon="2.27218">
        <ele>131.1</ele>
        <time>2023-07-12T07:06:03Z</time>
      </trkpt>
      <trkpt lat="49.77155" lon="2.27219">
        <ele>131.1</ele>
        <time>2023-07-12T07:06:04Z</time>
      </trkpt>
      <trkpt lat="49.77156" lon="2.2722">
        <ele>131.1</ele>
        <time>2023-07-12T07:06:05Z</time>
      </trkpt>
      <trkpt lat="49.77157" lon="2.27221">
        <ele>131.1</ele>
        <time>2023-07-12T07:06:07Z</time>
      </trkpt>
      <trkpt lat="49.77158" lon="2.27224">
        <ele>131.1</ele>
        <time>2023-07-12T07:06:08Z</time>
      </trkpt>
      <trkpt lat="49.7716" lon="2.27226">
        <ele>131.1</ele>
        <time>2023-07-12T07:06:10Z</time>
      </trkpt>
      <trkpt lat="49.7716" lon="2.27227">
        <ele>131.1</ele>
        <time>2023-07-12T07:06:11Z</time>
      </trkpt>
      <trkpt lat="49.77161" lon="2.27228">
        <ele>131.1</ele>
        <time>2023-07-12T07:06:12Z</time>
      </trkpt>
      <trkpt lat="49.77162" lon="2.2723">
        <ele>131.1</ele>
        <time>2023-07-12T07:06:13Z</time>
      </trkpt>
      <trkpt lat="49.77163" lon="2.27232">
        <ele>131.1</ele>
        <time>2023-07-12T07:06:14Z</time>
      </trkpt>
      <trkpt lat="49.77164" lon="2.27234">
        <ele>131.1</ele>
        <time>2023-07-12T07:06:15Z</time>
      </trkpt>
      <trkpt lat="49.77165" lon="2.27235">
        <ele>131.1</ele>
        <time>2023-07-12T07:06:16Z</time>
      </trkpt>
      <trkpt lat="49.77166" lon="2.27236">
        <ele>131.1</ele>
        <time>2023-07-12T07:06:17Z</time>
      </trkpt>
      <trkpt lat="49.77167" lon="2.27238">
        <ele>131.1</ele>
        <time>2023-07-12T07:06:19Z</time>
      </trkpt>
      <trkpt lat="49.77168" lon="2.27239">
        <ele>131.1</ele>
        <time>2023-07-12T07:06:20Z</time>
      </trkpt>
      <trkpt lat="49.77169" lon="2.2724">
        <ele>131.1</ele>
        <time>2023-07-12T07:06:21Z</time>
      </trkpt>
      <trkpt lat="49.7717" lon="2.27241">
        <ele>131.1</ele>
        <time>2023-07-12T07:06:22Z</time>
      </trkpt>
      <trkpt lat="49.77172" lon="2.27242">
        <ele>131.1</ele>
        <time>2023-07-12T07:06:23Z</time>
      </trkpt>
      <trkpt lat="49.77173" lon="2.27243">
        <ele>131.1</ele>
        <time>2023-07-12T07:06:24Z</time>
      </trkpt>
      <trkpt lat="49.77174" lon="2.27244">
        <ele>131.1</ele>
        <time>2023-07-12T07:06:25Z</time>
      </trkpt>
      <trkpt lat="49.77176" lon="2.27245">
        <ele>131.1</ele>
        <time>2023-07-12T07:06:26Z</time>
      </trkpt>
      <trkpt lat="49.77177" lon="2.27246">
        <ele>131</ele>
        <time>2023-07-12T07:06:27Z</time>
      </trkpt>
      <trkpt lat="49.77178" lon="2.27247">
        <ele>131</ele>
        <time>2023-07-12T07:06:28Z</time>
      </trkpt>
      <trkpt lat="49.7718" lon="2.27249">
        <ele>131</ele>
        <time>2023-07-12T07:06:30Z</time>
      </trkpt>
      <trkpt lat="49.77181" lon="2.27249">
        <ele>131</ele>
        <time>2023-07-12T07:06:31Z</time>
      </trkpt>
      <trkpt lat="49.77182" lon="2.2725">
        <ele>131</ele>
        <time>2023-07-12T07:06:32Z</time>
      </trkpt>
      <trkpt lat="49.77184" lon="2.27251">
        <ele>131</ele>
        <time>2023-07-12T07:06:33Z</time>
      </trkpt>
      <trkpt lat="49.77184" lon="2.27252">
        <ele>131</ele>
        <time>2023-07-12T07:06:34Z</time>
      </trkpt>
      <trkpt lat="49.77185" lon="2.27253">
        <ele>131</ele>
        <time>2023-07-12T07:06:35Z</time>
      </trkpt>
      <trkpt lat="49.77186" lon="2.27255">
        <ele>131</ele>
        <time>2023-07-12T07:06:36Z</time>
      </trkpt>
      <trkpt lat="49.77187" lon="2.27255">
        <ele>131</ele>
        <time>2023-07-12T07:06:37Z</time>
      </trkpt>
      <trkpt lat="49.77188" lon="2.27256">
        <ele>131</ele>
        <time>2023-07-12T07:06:38Z</time>
      </trkpt>
      <trkpt lat="49.7719" lon="2.27258">
        <ele>131</ele>
        <time>2023-07-12T07:06:39Z</time>
      </trkpt>
      <trkpt lat="49.7719" lon="2.27258">
        <ele>131</ele>
        <time>2023-07-12T07:06:40Z</time>
      </trkpt>
      <trkpt lat="49.77191" lon="2.27259">
        <ele>131</ele>
        <time>2023-07-12T07:06:41Z</time>
      </trkpt>
      <trkpt lat="49.77192" lon="2.2726">
        <ele>131</ele>
        <time>2023-07-12T07:06:43Z</time>
      </trkpt>
      <trkpt lat="49.77193" lon="2.2726">
        <ele>131</ele>
        <time>2023-07-12T07:06:44Z</time>
      </trkpt>
      <trkpt lat="49.77194" lon="2.2726">
        <ele>131</ele>
        <time>2023-07-12T07:06:45Z</time>
      </trkpt>
      <trkpt lat="49.77195" lon="2.27261">
        <ele>130.9</ele>
        <time>2023-07-12T07:06:46Z</time>
      </trkpt>
      <trkpt lat="49.77196" lon="2.27261">
        <ele>130.9</ele>
        <time>2023-07-12T07:06:47Z</time>
      </trkpt>
      <trkpt lat="49.77197" lon="2.27262">
        <ele>130.9</ele>
        <time>2023-07-12T07:06:48Z</time>
      </trkpt>
      <trkpt lat="49.77199" lon="2.27262">
        <ele>130.9</ele>
        <time>2023-07-12T07:06:49Z</time>
      </trkpt>
      <trkpt lat="49.772" lon="2.27263">
        <ele>130.9</ele>
        <time>2023-07-12T07:06:50Z</time>
      </trkpt>
      <trkpt lat="49.77201" lon="2.27264">
        <ele>130.9</ele>
        <time>2023-07-12T07:06:52Z</time>
      </trkpt>
      <trkpt lat="49.77202" lon="2.27265">
        <ele>130.9</ele>
        <time>2023-07-12T07:06:53Z</time>
      </trkpt>
      <trkpt lat="49.77204" lon="2.27267">
        <ele>130.9</ele>
        <time>2023-07-12T07:06:54Z</time>
      </trkpt>
      <trkpt lat="49.77205" lon="2.27269">
        <ele>130.9</ele>
        <time>2023-07-12T07:06:55Z</time>
      </trkpt>
      <trkpt lat="49.77206" lon="2.27269">
        <ele>130.9</ele>
        <time>2023-07-12T07:06:56Z</time>
      </trkpt>
      <trkpt lat="49.77207" lon="2.2727">
        <ele>130.9</ele>
        <time>2023-07-12T07:06:57Z</time>
      </trkpt>
      <trkpt lat="49.77209" lon="2.27272">
        <ele>130.9</ele>
        <time>2023-07-12T07:06:58Z</time>
      </trkpt>
      <trkpt lat="49.7721" lon="2.27273">
        <ele>130.9</ele>
        <time>2023-07-12T07:07:00Z</time>
      </trkpt>
      <trkpt lat="49.77211" lon="2.27274">
        <ele>130.9</ele>
        <time>2023-07-12T07:07:01Z</time>
      </trkpt>
      <trkpt lat="49.77212" lon="2.27275">
        <ele>130.9</ele>
        <time>2023-07-12T07:07:03Z</time>
      </trkpt>
      <trkpt lat="49.77213" lon="2.27276">
        <ele>130.8</ele>
        <time>2023-07-12T07:07:04Z</time>
      </trkpt>
      <trkpt lat="49.77215" lon="2.27278">
        <ele>130.8</ele>
        <time>2023-07-12T07:07:05Z</time>
      </trkpt>
      <trkpt lat="49.77216" lon="2.27279">
        <ele>130.8</ele>
        <time>2023-07-12T07:07:06Z</time>
      </trkpt>
      <trkpt lat="49.77217" lon="2.27279">
        <ele>130.8</ele>
        <time>2023-07-12T07:07:07Z</time>
      </trkpt>
      <trkpt lat="49.77218" lon="2.2728">
        <ele>130.8</ele>
        <time>2023-07-12T07:07:09Z</time>
      </trkpt>
      <trkpt lat="49.77219" lon="2.27281">
        <ele>130.8</ele>
        <time>2023-07-12T07:07:10Z</time>
      </trkpt>
      <trkpt lat="49.77219" lon="2.27283">
        <ele>130.8</ele>
        <time>2023-07-12T07:07:11Z</time>
      </trkpt>
      <trkpt lat="49.77219" lon="2.27285">
        <ele>130.8</ele>
        <time>2023-07-12T07:07:12Z</time>
      </trkpt>
      <trkpt lat="49.77219" lon="2.27287">
        <ele>130.8</ele>
        <time>2023-07-12T07:07:13Z</time>
      </trkpt>
      <trkpt lat="49.77218" lon="2.27289">
        <ele>130.8</ele>
        <time>2023-07-12T07:07:15Z</time>
      </trkpt>
      <trkpt lat="49.77218" lon="2.27291">
        <ele>130.8</ele>
        <time>2023-07-12T07:07:17Z</time>
      </trkpt>
      <trkpt lat="49.77218" lon="2.27292">
        <ele>130.8</ele>
        <time>2023-07-12T07:07:18Z</time>
      </trkpt>
      <trkpt lat="49.77218" lon="2.27293">
        <ele>130.8</ele>
        <time>2023-07-12T07:07:20Z</time>
      </trkpt>
      <trkpt lat="49.77218" lon="2.27293">
        <ele>130.8</ele>
        <time>2023-07-12T07:07:21Z</time>
      </trkpt>
      <trkpt lat="49.77219" lon="2.27293">
        <ele>130.8</ele>
        <time>2023-07-12T07:07:22Z</time>
      </trkpt>
      <trkpt lat="49.7722" lon="2.27293">
        <ele>130.8</ele>
        <time>2023-07-12T07:07:23Z</time>
      </trkpt>
      <trkpt lat="49.7722" lon="2.27294">
        <ele>130.8</ele>
        <time>2023-07-12T07:07:24Z</time>
      </trkpt>
      <trkpt lat="49.77221" lon="2.27294">
        <ele>130.8</ele>
        <time>2023-07-12T07:07:25Z</time>
      </trkpt>
      <trkpt lat="49.77221" lon="2.27294">
        <ele>130.8</ele>
        <time>2023-07-12T07:07:26Z</time>
      </trkpt>
      <trkpt lat="49.77222" lon="2.27295">
        <ele>130.8</ele>
        <time>2023-07-12T07:07:27Z</time>
      </trkpt>
      <trkpt lat="49.77224" lon="2.27295">
        <ele>130.8</ele>
        <time>2023-07-12T07:07:29Z</time>
      </trkpt>
      <trkpt lat="49.77225" lon="2.27295">
        <ele>130.8</ele>
        <time>2023-07-12T07:07:30Z</time>
      </trkpt>
      <trkpt lat="49.77225" lon="2.27296">
        <ele>130.8</ele>
        <time>2023-07-12T07:07:31Z</time>
      </trkpt>
      <trkpt lat="49.77227" lon="2.27296">
        <ele>130.8</ele>
        <time>2023-07-12T07:07:32Z</time>
      </trkpt>
      <trkpt lat="49.77229" lon="2.27296">
        <ele>130.8</ele>
        <time>2023-07-12T07:07:33Z</time>
      </trkpt>
      <trkpt lat="49.7723" lon="2.27296">
        <ele>130.8</ele>
        <time>2023-07-12T07:07:34Z</time>
      </trkpt>
      <trkpt lat="49.77231" lon="2.27297">
        <ele>130.8</ele>
        <time>2023-07-12T07:07:35Z</time>
      </trkpt>
      <trkpt lat="49.77233" lon="2.27297">
        <ele>130.8</ele>
        <time>2023-07-12T07:07:36Z</time>
      </trkpt>
      <trkpt lat="49.77234" lon="2.27297">
        <ele>130.8</ele>
        <time>2023-07-12T07:07:37Z</time>
      </trkpt>
      <trkpt lat="49.77235" lon="2.27296">
        <ele>130.8</ele>
        <time>2023-07-12T07:07:39Z</time>
      </trkpt>
      <trkpt lat="49.77236" lon="2.27295">
        <ele>130.7</ele>
        <time>2023-07-12T07:07:40Z</time>
      </trkpt>
      <trkpt lat="49.77237" lon="2.27294">
        <ele>130.7</ele>
        <time>2023-07-12T07:07:41Z</time>
      </trkpt>
      <trkpt lat="49.77239" lon="2.27294">
        <ele>130.7</ele>
        <time>2023-07-12T07:07:42Z</time>
      </trkpt>
      <trkpt lat="49.7724" lon="2.27295">
        <ele>130.7</ele>
        <time>2023-07-12T07:07:43Z</time>
      </trkpt>
      <trkpt lat="49.77242" lon="2.27295">
        <ele>130.7</ele>
        <time>2023-07-12T07:07:44Z</time>
      </trkpt>
      <trkpt lat="49.77243" lon="2.27295">
        <ele>130.7</ele>
        <time>2023-07-12T07:07:45Z</time>
      </trkpt>
      <trkpt lat="49.77245" lon="2.27296">
        <ele>130.7</ele>
        <time>2023-07-12T07:07:46Z</time>
      </trkpt>
      <trkpt lat="49.77246" lon="2.27297">
        <ele>130.7</ele>
        <time>2023-07-12T07:07:48Z</time>
      </trkpt>
      <trkpt lat="49.77248" lon="2.27298">
        <ele>130.7</ele>
        <time>2023-07-12T07:07:49Z</time>
      </trkpt>
      <trkpt lat="49.77249" lon="2.27299">
        <ele>130.7</ele>
        <time>2023-07-12T07:07:50Z</time>
      </trkpt>
      <trkpt lat="49.77251" lon="2.273">
        <ele>130.7</ele>
        <time>2023-07-12T07:07:51Z</time>
      </trkpt>
      <trkpt lat="49.77252" lon="2.27301">
        <ele>130.7</ele>
        <time>2023-07-12T07:07:52Z</time>
      </trkpt>
      <trkpt lat="49.77253" lon="2.27302">
        <ele>130.7</ele>
        <time>2023-07-12T07:07:53Z</time>
      </trkpt>
      <trkpt lat="49.77255" lon="2.27303">
        <ele>130.7</ele>
        <time>2023-07-12T07:07:54Z</time>
      </trkpt>
      <trkpt lat="49.77256" lon="2.27304">
        <ele>130.7</ele>
        <time>2023-07-12T07:07:56Z</time>
      </trkpt>
      <trkpt lat="49.77257" lon="2.27305">
        <ele>130.7</ele>
        <time>2023-07-12T07:07:57Z</time>
      </trkpt>
      <trkpt lat="49.77258" lon="2.27305">
        <ele>130.7</ele>
        <time>2023-07-12T07:07:58Z</time>
      </trkpt>
      <trkpt lat="49.7726" lon="2.27305">
        <ele>130.7</ele>
        <time>2023-07-12T07:07:59Z</time>
      </trkpt>
      <trkpt lat="49.77261" lon="2.27305">
        <ele>130.7</ele>
        <time>2023-07-12T07:08:00Z</time>
      </trkpt>
      <trkpt lat="49.77262" lon="2.27303">
        <ele>130.7</ele>
        <time>2023-07-12T07:08:01Z</time>
      </trkpt>
      <trkpt lat="49.77263" lon="2.27303">
        <ele>130.7</ele>
        <time>2023-07-12T07:08:02Z</time>
      </trkpt>
      <trkpt lat="49.77264" lon="2.27302">
        <ele>130.7</ele>
        <time>2023-07-12T07:08:03Z</time>
      </trkpt>
      <trkpt lat="49.77266" lon="2.27301">
        <ele>130.7</ele>
        <time>2023-07-12T07:08:04Z</time>
      </trkpt>
      <trkpt lat="49.77267" lon="2.273">
        <ele>130.7</ele>
        <time>2023-07-12T07:08:05Z</time>
      </trkpt>
      <trkpt lat="49.77267" lon="2.27299">
        <ele>130.7</ele>
        <time>2023-07-12T07:08:06Z</time>
      </trkpt>
      <trkpt lat="49.77268" lon="2.27298">
        <ele>130.7</ele>
        <time>2023-07-12T07:08:07Z</time>
      </trkpt>
      <trkpt lat="49.77269" lon="2.27297">
        <ele>130.7</ele>
        <time>2023-07-12T07:08:08Z</time>
      </trkpt>
      <trkpt lat="49.7727" lon="2.27295">
        <ele>130.7</ele>
        <time>2023-07-12T07:08:09Z</time>
      </trkpt>
      <trkpt lat="49.77271" lon="2.27294">
        <ele>130.7</ele>
        <time>2023-07-12T07:08:11Z</time>
      </trkpt>
      <trkpt lat="49.77272" lon="2.27293">
        <ele>130.7</ele>
        <time>2023-07-12T07:08:12Z</time>
      </trkpt>
      <trkpt lat="49.77272" lon="2.27292">
        <ele>130.7</ele>
        <time>2023-07-12T07:08:13Z</time>
      </trkpt>
      <trkpt lat="49.77273" lon="2.27291">
        <ele>130.7</ele>
        <time>2023-07-12T07:08:14Z</time>
      </trkpt>
      <trkpt lat="49.77273" lon="2.2729">
        <ele>130.7</ele>
        <time>2023-07-12T07:08:15Z</time>
      </trkpt>
      <trkpt lat="49.77274" lon="2.27289">
        <ele>130.7</ele>
        <time>2023-07-12T07:08:16Z</time>
      </trkpt>
      <trkpt lat="49.77275" lon="2.27287">
        <ele>130.7</ele>
        <time>2023-07-12T07:08:18Z</time>
      </trkpt>
      <trkpt lat="49.77276" lon="2.27286">
        <ele>130.7</ele>
        <time>2023-07-12T07:08:19Z</time>
      </trkpt>
      <trkpt lat="49.77278" lon="2.27284">
        <ele>130.7</ele>
        <time>2023-07-12T07:08:20Z</time>
      </trkpt>
      <trkpt lat="49.77278" lon="2.27283">
        <ele>130.7</ele>
        <time>2023-07-12T07:08:21Z</time>
      </trkpt>
      <trkpt lat="49.77279" lon="2.27282">
        <ele>130.7</ele>
        <time>2023-07-12T07:08:22Z</time>
      </trkpt>
      <trkpt lat="49.7728" lon="2.27281">
        <ele>130.8</ele>
        <time>2023-07-12T07:08:23Z</time>
      </trkpt>
      <trkpt lat="49.7728" lon="2.27279">
        <ele>130.8</ele>
        <time>2023-07-12T07:08:24Z</time>
      </trkpt>
      <trkpt lat="49.77281" lon="2.27277">
        <ele>130.8</ele>
        <time>2023-07-12T07:08:26Z</time>
      </trkpt>
      <trkpt lat="49.77282" lon="2.27276">
        <ele>130.8</ele>
        <time>2023-07-12T07:08:27Z</time>
      </trkpt>
      <trkpt lat="49.77282" lon="2.27274">
        <ele>130.8</ele>
        <time>2023-07-12T07:08:28Z</time>
      </trkpt>
      <trkpt lat="49.77283" lon="2.27273">
        <ele>130.8</ele>
        <time>2023-07-12T07:08:29Z</time>
      </trkpt>
      <trkpt lat="49.77284" lon="2.27271">
        <ele>130.8</ele>
        <time>2023-07-12T07:08:30Z</time>
      </trkpt>
      <trkpt lat="49.77284" lon="2.2727">
        <ele>130.9</ele>
        <time>2023-07-12T07:08:31Z</time>
      </trkpt>
      <trkpt lat="49.77285" lon="2.27268">
        <ele>130.9</ele>
        <time>2023-07-12T07:08:32Z</time>
      </trkpt>
      <trkpt lat="49.77285" lon="2.27267">
        <ele>130.9</ele>
        <time>2023-07-12T07:08:33Z</time>
      </trkpt>
      <trkpt lat="49.77286" lon="2.27265">
        <ele>130.9</ele>
        <time>2023-07-12T07:08:34Z</time>
      </trkpt>
      <trkpt lat="49.77286" lon="2.27263">
        <ele>130.9</ele>
        <time>2023-07-12T07:08:35Z</time>
      </trkpt>
      <trkpt lat="49.77288" lon="2.27261">
        <ele>131</ele>
        <time>2023-07-12T07:08:36Z</time>
      </trkpt>
      <trkpt lat="49.77288" lon="2.27259">
        <ele>131</ele>
        <time>2023-07-12T07:08:37Z</time>
      </trkpt>
      <trkpt lat="49.77289" lon="2.27258">
        <ele>131</ele>
        <time>2023-07-12T07:08:39Z</time>
      </trkpt>
      <trkpt lat="49.7729" lon="2.27257">
        <ele>131</ele>
        <time>2023-07-12T07:08:40Z</time>
      </trkpt>
      <trkpt lat="49.7729" lon="2.27256">
        <ele>131</ele>
        <time>2023-07-12T07:08:41Z</time>
      </trkpt>
      <trkpt lat="49.77291" lon="2.27254">
        <ele>131.1</ele>
        <time>2023-07-12T07:08:42Z</time>
      </trkpt>
      <trkpt lat="49.77292" lon="2.27253">
        <ele>131.1</ele>
        <time>2023-07-12T07:08:43Z</time>
      </trkpt>
      <trkpt lat="49.77293" lon="2.2725">
        <ele>131.1</ele>
        <time>2023-07-12T07:08:44Z</time>
      </trkpt>
      <trkpt lat="49.77294" lon="2.27248">
        <ele>131.1</ele>
        <time>2023-07-12T07:08:46Z</time>
      </trkpt>
      <trkpt lat="49.77294" lon="2.27247">
        <ele>131.2</ele>
        <time>2023-07-12T07:08:47Z</time>
      </trkpt>
      <trkpt lat="49.77295" lon="2.27245">
        <ele>131.2</ele>
        <time>2023-07-12T07:08:48Z</time>
      </trkpt>
      <trkpt lat="49.77296" lon="2.27243">
        <ele>131.2</ele>
        <time>2023-07-12T07:08:49Z</time>
      </trkpt>
      <trkpt lat="49.77297" lon="2.27241">
        <ele>131.2</ele>
        <time>2023-07-12T07:08:50Z</time>
      </trkpt>
      <trkpt lat="49.77298" lon="2.27239">
        <ele>131.2</ele>
        <time>2023-07-12T07:08:51Z</time>
      </trkpt>
      <trkpt lat="49.77299" lon="2.27237">
        <ele>131.2</ele>
        <time>2023-07-12T07:08:52Z</time>
      </trkpt>
      <trkpt lat="49.773" lon="2.27236">
        <ele>131.3</ele>
        <time>2023-07-12T07:08:53Z</time>
      </trkpt>
      <trkpt lat="49.77301" lon="2.27234">
        <ele>131.3</ele>
        <time>2023-07-12T07:08:54Z</time>
      </trkpt>
      <trkpt lat="49.77302" lon="2.27232">
        <ele>131.3</ele>
        <time>2023-07-12T07:08:55Z</time>
      </trkpt>
      <trkpt lat="49.77303" lon="2.2723">
        <ele>131.3</ele>
        <time>2023-07-12T07:08:56Z</time>
      </trkpt>
      <trkpt lat="49.77304" lon="2.27228">
        <ele>131.3</ele>
        <time>2023-07-12T07:08:57Z</time>
      </trkpt>
      <trkpt lat="49.77304" lon="2.27226">
        <ele>131.3</ele>
        <time>2023-07-12T07:08:58Z</time>
      </trkpt>
      <trkpt lat="49.77305" lon="2.27224">
        <ele>131.3</ele>
        <time>2023-07-12T07:08:59Z</time>
      </trkpt>
      <trkpt lat="49.77306" lon="2.27222">
        <ele>131.3</ele>
        <time>2023-07-12T07:09:01Z</time>
      </trkpt>
      <trkpt lat="49.77307" lon="2.2722">
        <ele>131.3</ele>
        <time>2023-07-12T07:09:02Z</time>
      </trkpt>
      <trkpt lat="49.77308" lon="2.27218">
        <ele>131.3</ele>
        <time>2023-07-12T07:09:03Z</time>
      </trkpt>
      <trkpt lat="49.77309" lon="2.27216">
        <ele>131.3</ele>
        <time>2023-07-12T07:09:04Z</time>
      </trkpt>
      <trkpt lat="49.7731" lon="2.27214">
        <ele>131.3</ele>
        <time>2023-07-12T07:09:05Z</time>
      </trkpt>
      <trkpt lat="49.7731" lon="2.27212">
        <ele>131.4</ele>
        <time>2023-07-12T07:09:06Z</time>
      </trkpt>
      <trkpt lat="49.77311" lon="2.2721">
        <ele>131.4</ele>
        <time>2023-07-12T07:09:07Z</time>
      </trkpt>
      <trkpt lat="49.77312" lon="2.27208">
        <ele>131.4</ele>
        <time>2023-07-12T07:09:08Z</time>
      </trkpt>
      <trkpt lat="49.77313" lon="2.27206">
        <ele>131.4</ele>
        <time>2023-07-12T07:09:10Z</time>
      </trkpt>
      <trkpt lat="49.77314" lon="2.27204">
        <ele>131.4</ele>
        <time>2023-07-12T07:09:11Z</time>
      </trkpt>
      <trkpt lat="49.77314" lon="2.27203">
        <ele>131.4</ele>
        <time>2023-07-12T07:09:12Z</time>
      </trkpt>
      <trkpt lat="49.77315" lon="2.27201">
        <ele>131.4</ele>
        <time>2023-07-12T07:09:13Z</time>
      </trkpt>
      <trkpt lat="49.77315" lon="2.272">
        <ele>131.4</ele>
        <time>2023-07-12T07:09:14Z</time>
      </trkpt>
      <trkpt lat="49.77316" lon="2.27198">
        <ele>131.4</ele>
        <time>2023-07-12T07:09:15Z</time>
      </trkpt>
      <trkpt lat="49.77317" lon="2.27196">
        <ele>131.4</ele>
        <time>2023-07-12T07:09:16Z</time>
      </trkpt>
      <trkpt lat="49.77317" lon="2.27195">
        <ele>131.4</ele>
        <time>2023-07-12T07:09:17Z</time>
      </trkpt>
      <trkpt lat="49.77318" lon="2.27194">
        <ele>131.4</ele>
        <time>2023-07-12T07:09:18Z</time>
      </trkpt>
      <trkpt lat="49.77319" lon="2.27192">
        <ele>131.4</ele>
        <time>2023-07-12T07:09:19Z</time>
      </trkpt>
      <trkpt lat="49.7732" lon="2.27191">
        <ele>131.4</ele>
        <time>2023-07-12T07:09:20Z</time>
      </trkpt>
      <trkpt lat="49.77321" lon="2.27188">
        <ele>131.5</ele>
        <time>2023-07-12T07:09:22Z</time>
      </trkpt>
      <trkpt lat="49.77322" lon="2.27185">
        <ele>131.5</ele>
        <time>2023-07-12T07:09:23Z</time>
      </trkpt>
      <trkpt lat="49.77323" lon="2.27185">
        <ele>131.5</ele>
        <time>2023-07-12T07:09:24Z</time>
      </trkpt>
      <trkpt lat="49.77324" lon="2.27182">
        <ele>131.5</ele>
        <time>2023-07-12T07:09:26Z</time>
      </trkpt>
      <trkpt lat="49.77324" lon="2.27181">
        <ele>131.5</ele>
        <time>2023-07-12T07:09:27Z</time>
      </trkpt>
      <trkpt lat="49.77325" lon="2.2718">
        <ele>131.5</ele>
        <time>2023-07-12T07:09:28Z</time>
      </trkpt>
      <trkpt lat="49.77325" lon="2.27178">
        <ele>131.5</ele>
        <time>2023-07-12T07:09:29Z</time>
      </trkpt>
      <trkpt lat="49.77326" lon="2.27177">
        <ele>131.5</ele>
        <time>2023-07-12T07:09:30Z</time>
      </trkpt>
      <trkpt lat="49.77327" lon="2.27175">
        <ele>131.5</ele>
        <time>2023-07-12T07:09:31Z</time>
      </trkpt>
      <trkpt lat="49.77328" lon="2.27174">
        <ele>131.5</ele>
        <time>2023-07-12T07:09:33Z</time>
      </trkpt>
      <trkpt lat="49.77329" lon="2.27173">
        <ele>131.6</ele>
        <time>2023-07-12T07:09:34Z</time>
      </trkpt>
      <trkpt lat="49.7733" lon="2.27171">
        <ele>131.6</ele>
        <time>2023-07-12T07:09:35Z</time>
      </trkpt>
      <trkpt lat="49.7733" lon="2.2717">
        <ele>131.6</ele>
        <time>2023-07-12T07:09:36Z</time>
      </trkpt>
      <trkpt lat="49.77331" lon="2.27168">
        <ele>131.6</ele>
        <time>2023-07-12T07:09:37Z</time>
      </trkpt>
      <trkpt lat="49.77331" lon="2.27167">
        <ele>131.6</ele>
        <time>2023-07-12T07:09:38Z</time>
      </trkpt>
      <trkpt lat="49.77332" lon="2.27165">
        <ele>131.6</ele>
        <time>2023-07-12T07:09:39Z</time>
      </trkpt>
      <trkpt lat="49.77333" lon="2.27164">
        <ele>131.7</ele>
        <time>2023-07-12T07:09:40Z</time>
      </trkpt>
      <trkpt lat="49.77333" lon="2.27163">
        <ele>131.7</ele>
        <time>2023-07-12T07:09:41Z</time>
      </trkpt>
      <trkpt lat="49.77333" lon="2.27162">
        <ele>131.7</ele>
        <time>2023-07-12T07:09:42Z</time>
      </trkpt>
      <trkpt lat="49.77334" lon="2.27161">
        <ele>131.7</ele>
        <time>2023-07-12T07:09:43Z</time>
      </trkpt>
      <trkpt lat="49.77334" lon="2.2716">
        <ele>131.7</ele>
        <time>2023-07-12T07:09:44Z</time>
      </trkpt>
      <trkpt lat="49.77335" lon="2.27159">
        <ele>131.7</ele>
        <time>2023-07-12T07:09:45Z</time>
      </trkpt>
      <trkpt lat="49.77335" lon="2.27158">
        <ele>131.7</ele>
        <time>2023-07-12T07:09:46Z</time>
      </trkpt>
      <trkpt lat="49.77335" lon="2.27157">
        <ele>131.7</ele>
        <time>2023-07-12T07:09:47Z</time>
      </trkpt>
      <trkpt lat="49.77336" lon="2.27156">
        <ele>131.7</ele>
        <time>2023-07-12T07:09:49Z</time>
      </trkpt>
      <trkpt lat="49.77336" lon="2.27156">
        <ele>131.7</ele>
        <time>2023-07-12T07:09:50Z</time>
      </trkpt>
      <trkpt lat="49.77336" lon="2.27156">
        <ele>131.7</ele>
        <time>2023-07-12T07:09:51Z</time>
      </trkpt>
      <trkpt lat="49.77337" lon="2.27156">
        <ele>131.7</ele>
        <time>2023-07-12T07:09:52Z</time>
      </trkpt>
      <trkpt lat="49.77337" lon="2.27155">
        <ele>131.7</ele>
        <time>2023-07-12T07:09:53Z</time>
      </trkpt>
      <trkpt lat="49.77337" lon="2.27154">
        <ele>131.8</ele>
        <time>2023-07-12T07:09:54Z</time>
      </trkpt>
      <trkpt lat="49.77337" lon="2.27153">
        <ele>131.8</ele>
        <time>2023-07-12T07:09:55Z</time>
      </trkpt>
      <trkpt lat="49.77338" lon="2.27152">
        <ele>131.8</ele>
        <time>2023-07-12T07:09:56Z</time>
      </trkpt>
      <trkpt lat="49.77338" lon="2.27151">
        <ele>131.8</ele>
        <time>2023-07-12T07:09:57Z</time>
      </trkpt>
      <trkpt lat="49.77339" lon="2.27149">
        <ele>131.8</ele>
        <time>2023-07-12T07:09:58Z</time>
      </trkpt>
      <trkpt lat="49.7734" lon="2.27148">
        <ele>131.8</ele>
        <time>2023-07-12T07:09:59Z</time>
      </trkpt>
      <trkpt lat="49.7734" lon="2.27146">
        <ele>131.8</ele>
        <time>2023-07-12T07:10:00Z</time>
      </trkpt>
      <trkpt lat="49.77341" lon="2.27145">
        <ele>131.8</ele>
        <time>2023-07-12T07:10:01Z</time>
      </trkpt>
      <trkpt lat="49.77342" lon="2.27143">
        <ele>131.8</ele>
        <time>2023-07-12T07:10:03Z</time>
      </trkpt>
      <trkpt lat="49.77343" lon="2.2714">
        <ele>131.8</ele>
        <time>2023-07-12T07:10:04Z</time>
      </trkpt>
      <trkpt lat="49.77344" lon="2.27139">
        <ele>131.8</ele>
        <time>2023-07-12T07:10:05Z</time>
      </trkpt>
      <trkpt lat="49.77344" lon="2.27138">
        <ele>131.8</ele>
        <time>2023-07-12T07:10:06Z</time>
      </trkpt>
      <trkpt lat="49.77345" lon="2.27136">
        <ele>131.8</ele>
        <time>2023-07-12T07:10:07Z</time>
      </trkpt>
      <trkpt lat="49.77346" lon="2.27134">
        <ele>131.8</ele>
        <time>2023-07-12T07:10:08Z</time>
      </trkpt>
      <trkpt lat="49.77346" lon="2.27132">
        <ele>131.8</ele>
        <time>2023-07-12T07:10:09Z</time>
      </trkpt>
      <trkpt lat="49.77347" lon="2.27129">
        <ele>131.8</ele>
        <time>2023-07-12T07:10:10Z</time>
      </trkpt>
      <trkpt lat="49.77348" lon="2.27127">
        <ele>131.8</ele>
        <time>2023-07-12T07:10:12Z</time>
      </trkpt>
      <trkpt lat="49.77349" lon="2.27125">
        <ele>131.8</ele>
        <time>2023-07-12T07:10:13Z</time>
      </trkpt>
      <trkpt lat="49.7735" lon="2.27123">
        <ele>131.8</ele>
        <time>2023-07-12T07:10:14Z</time>
      </trkpt>
      <trkpt lat="49.77351" lon="2.27121">
        <ele>131.8</ele>
        <time>2023-07-12T07:10:15Z</time>
      </trkpt>
      <trkpt lat="49.77352" lon="2.27119">
        <ele>131.8</ele>
        <time>2023-07-12T07:10:16Z</time>
      </trkpt>
      <trkpt lat="49.77353" lon="2.27117">
        <ele>131.9</ele>
        <time>2023-07-12T07:10:17Z</time>
      </trkpt>
      <trkpt lat="49.77354" lon="2.27115">
        <ele>131.9</ele>
        <time>2023-07-12T07:10:18Z</time>
      </trkpt>
      <trkpt lat="49.77355" lon="2.27113">
        <ele>131.9</ele>
        <time>2023-07-12T07:10:19Z</time>
      </trkpt>
      <trkpt lat="49.77356" lon="2.27111">
        <ele>131.9</ele>
        <time>2023-07-12T07:10:20Z</time>
      </trkpt>
      <trkpt lat="49.77357" lon="2.27109">
        <ele>131.9</ele>
        <time>2023-07-12T07:10:21Z</time>
      </trkpt>
      <trkpt lat="49.77358" lon="2.27107">
        <ele>131.9</ele>
        <time>2023-07-12T07:10:22Z</time>
      </trkpt>
      <trkpt lat="49.77359" lon="2.27105">
        <ele>131.9</ele>
        <time>2023-07-12T07:10:23Z</time>
      </trkpt>
      <trkpt lat="49.7736" lon="2.27104">
        <ele>132</ele>
        <time>2023-07-12T07:10:24Z</time>
      </trkpt>
      <trkpt lat="49.77361" lon="2.27102">
        <ele>132</ele>
        <time>2023-07-12T07:10:25Z</time>
      </trkpt>
      <trkpt lat="49.77362" lon="2.27099">
        <ele>132</ele>
        <time>2023-07-12T07:10:27Z</time>
      </trkpt>
      <trkpt lat="49.77362" lon="2.27098">
        <ele>132</ele>
        <time>2023-07-12T07:10:28Z</time>
      </trkpt>
      <trkpt lat="49.77363" lon="2.27097">
        <ele>132</ele>
        <time>2023-07-12T07:10:29Z</time>
      </trkpt>
      <trkpt lat="49.77364" lon="2.27095">
        <ele>132</ele>
        <time>2023-07-12T07:10:30Z</time>
      </trkpt>
      <trkpt lat="49.77365" lon="2.27094">
        <ele>132</ele>
        <time>2023-07-12T07:10:31Z</time>
      </trkpt>
      <trkpt lat="49.77366" lon="2.2709">
        <ele>132.1</ele>
        <time>2023-07-12T07:10:32Z</time>
      </trkpt>
      <trkpt lat="49.77367" lon="2.27089">
        <ele>132.1</ele>
        <time>2023-07-12T07:10:34Z</time>
      </trkpt>
      <trkpt lat="49.77367" lon="2.27087">
        <ele>132.1</ele>
        <time>2023-07-12T07:10:35Z</time>
      </trkpt>
      <trkpt lat="49.77368" lon="2.27086">
        <ele>132.1</ele>
        <time>2023-07-12T07:10:36Z</time>
      </trkpt>
      <trkpt lat="49.77369" lon="2.27084">
        <ele>132.1</ele>
        <time>2023-07-12T07:10:37Z</time>
      </trkpt>
      <trkpt lat="49.7737" lon="2.27082">
        <ele>132.1</ele>
        <time>2023-07-12T07:10:38Z</time>
      </trkpt>
      <trkpt lat="49.7737" lon="2.2708">
        <ele>132.1</ele>
        <time>2023-07-12T07:10:39Z</time>
      </trkpt>
      <trkpt lat="49.77371" lon="2.27079">
        <ele>132.2</ele>
        <time>2023-07-12T07:10:40Z</time>
      </trkpt>
      <trkpt lat="49.77371" lon="2.27078">
        <ele>132.2</ele>
        <time>2023-07-12T07:10:41Z</time>
      </trkpt>
      <trkpt lat="49.77372" lon="2.27076">
        <ele>132.2</ele>
        <time>2023-07-12T07:10:42Z</time>
      </trkpt>
      <trkpt lat="49.77373" lon="2.27075">
        <ele>132.2</ele>
        <time>2023-07-12T07:10:43Z</time>
      </trkpt>
      <trkpt lat="49.77373" lon="2.27073">
        <ele>132.2</ele>
        <time>2023-07-12T07:10:44Z</time>
      </trkpt>
      <trkpt lat="49.77374" lon="2.27071">
        <ele>132.2</ele>
        <time>2023-07-12T07:10:45Z</time>
      </trkpt>
      <trkpt lat="49.77374" lon="2.2707">
        <ele>132.2</ele>
        <time>2023-07-12T07:10:47Z</time>
      </trkpt>
      <trkpt lat="49.77375" lon="2.27068">
        <ele>132.2</ele>
        <time>2023-07-12T07:10:48Z</time>
      </trkpt>
      <trkpt lat="49.77376" lon="2.27067">
        <ele>132.2</ele>
        <time>2023-07-12T07:10:49Z</time>
      </trkpt>
      <trkpt lat="49.77376" lon="2.27065">
        <ele>132.2</ele>
        <time>2023-07-12T07:10:50Z</time>
      </trkpt>
      <trkpt lat="49.77377" lon="2.27064">
        <ele>132.2</ele>
        <time>2023-07-12T07:10:51Z</time>
      </trkpt>
      <trkpt lat="49.77378" lon="2.27062">
        <ele>132.3</ele>
        <time>2023-07-12T07:10:52Z</time>
      </trkpt>
      <trkpt lat="49.77379" lon="2.2706">
        <ele>132.3</ele>
        <time>2023-07-12T07:10:53Z</time>
      </trkpt>
      <trkpt lat="49.77379" lon="2.27058">
        <ele>132.3</ele>
        <time>2023-07-12T07:10:54Z</time>
      </trkpt>
      <trkpt lat="49.7738" lon="2.27056">
        <ele>132.3</ele>
        <time>2023-07-12T07:10:55Z</time>
      </trkpt>
      <trkpt lat="49.77381" lon="2.27054">
        <ele>132.3</ele>
        <time>2023-07-12T07:10:56Z</time>
      </trkpt>
      <trkpt lat="49.77382" lon="2.27051">
        <ele>132.3</ele>
        <time>2023-07-12T07:10:57Z</time>
      </trkpt>
      <trkpt lat="49.77383" lon="2.2705">
        <ele>132.3</ele>
        <time>2023-07-12T07:10:58Z</time>
      </trkpt>
      <trkpt lat="49.77383" lon="2.27049">
        <ele>132.3</ele>
        <time>2023-07-12T07:10:59Z</time>
      </trkpt>
      <trkpt lat="49.77384" lon="2.27047">
        <ele>132.3</ele>
        <time>2023-07-12T07:11:00Z</time>
      </trkpt>
      <trkpt lat="49.77385" lon="2.27045">
        <ele>132.3</ele>
        <time>2023-07-12T07:11:01Z</time>
      </trkpt>
      <trkpt lat="49.77386" lon="2.27043">
        <ele>132.3</ele>
        <time>2023-07-12T07:11:02Z</time>
      </trkpt>
      <trkpt lat="49.77387" lon="2.27041">
        <ele>132.3</ele>
        <time>2023-07-12T07:11:04Z</time>
      </trkpt>
      <trkpt lat="49.77387" lon="2.27039">
        <ele>132.3</ele>
        <time>2023-07-12T07:11:05Z</time>
      </trkpt>
      <trkpt lat="49.77388" lon="2.27038">
        <ele>132.3</ele>
        <time>2023-07-12T07:11:06Z</time>
      </trkpt>
      <trkpt lat="49.77389" lon="2.27036">
        <ele>132.3</ele>
        <time>2023-07-12T07:11:07Z</time>
      </trkpt>
      <trkpt lat="49.7739" lon="2.27034">
        <ele>132.3</ele>
        <time>2023-07-12T07:11:08Z</time>
      </trkpt>
      <trkpt lat="49.77391" lon="2.27032">
        <ele>132.3</ele>
        <time>2023-07-12T07:11:09Z</time>
      </trkpt>
      <trkpt lat="49.77392" lon="2.2703">
        <ele>132.3</ele>
        <time>2023-07-12T07:11:10Z</time>
      </trkpt>
      <trkpt lat="49.77393" lon="2.27028">
        <ele>132.3</ele>
        <time>2023-07-12T07:11:11Z</time>
      </trkpt>
      <trkpt lat="49.77394" lon="2.27027">
        <ele>132.2</ele>
        <time>2023-07-12T07:11:13Z</time>
      </trkpt>
      <trkpt lat="49.77395" lon="2.27024">
        <ele>132.2</ele>
        <time>2023-07-12T07:11:14Z</time>
      </trkpt>
      <trkpt lat="49.77396" lon="2.27023">
        <ele>132.2</ele>
        <time>2023-07-12T07:11:15Z</time>
      </trkpt>
      <trkpt lat="49.77397" lon="2.27021">
        <ele>132.2</ele>
        <time>2023-07-12T07:11:16Z</time>
      </trkpt>
      <trkpt lat="49.77398" lon="2.27019">
        <ele>132.2</ele>
        <time>2023-07-12T07:11:18Z</time>
      </trkpt>
      <trkpt lat="49.77399" lon="2.27018">
        <ele>132.2</ele>
        <time>2023-07-12T07:11:19Z</time>
      </trkpt>
      <trkpt lat="49.774" lon="2.27016">
        <ele>132.2</ele>
        <time>2023-07-12T07:11:20Z</time>
      </trkpt>
      <trkpt lat="49.77401" lon="2.27014">
        <ele>132.2</ele>
        <time>2023-07-12T07:11:21Z</time>
      </trkpt>
      <trkpt lat="49.77402" lon="2.27013">
        <ele>132.1</ele>
        <time>2023-07-12T07:11:22Z</time>
      </trkpt>
      <trkpt lat="49.77403" lon="2.27011">
        <ele>132.1</ele>
        <time>2023-07-12T07:11:23Z</time>
      </trkpt>
      <trkpt lat="49.77404" lon="2.2701">
        <ele>132.1</ele>
        <time>2023-07-12T07:11:24Z</time>
      </trkpt>
      <trkpt lat="49.77405" lon="2.27008">
        <ele>132.1</ele>
        <time>2023-07-12T07:11:25Z</time>
      </trkpt>
      <trkpt lat="49.77406" lon="2.27006">
        <ele>132</ele>
        <time>2023-07-12T07:11:26Z</time>
      </trkpt>
      <trkpt lat="49.77407" lon="2.27005">
        <ele>132</ele>
        <time>2023-07-12T07:11:27Z</time>
      </trkpt>
      <trkpt lat="49.77408" lon="2.27003">
        <ele>132</ele>
        <time>2023-07-12T07:11:28Z</time>
      </trkpt>
      <trkpt lat="49.77409" lon="2.27002">
        <ele>132</ele>
        <time>2023-07-12T07:11:30Z</time>
      </trkpt>
      <trkpt lat="49.7741" lon="2.27001">
        <ele>131.9</ele>
        <time>2023-07-12T07:11:31Z</time>
      </trkpt>
      <trkpt lat="49.77413" lon="2.27001">
        <ele>131.9</ele>
        <time>2023-07-12T07:11:32Z</time>
      </trkpt>
      <trkpt lat="49.77413" lon="2.27002">
        <ele>131.9</ele>
        <time>2023-07-12T07:11:33Z</time>
      </trkpt>
      <trkpt lat="49.77414" lon="2.27002">
        <ele>131.9</ele>
        <time>2023-07-12T07:11:34Z</time>
      </trkpt>
      <trkpt lat="49.77416" lon="2.27003">
        <ele>131.9</ele>
        <time>2023-07-12T07:11:35Z</time>
      </trkpt>
      <trkpt lat="49.77417" lon="2.27004">
        <ele>131.9</ele>
        <time>2023-07-12T07:11:36Z</time>
      </trkpt>
      <trkpt lat="49.77418" lon="2.27005">
        <ele>131.9</ele>
        <time>2023-07-12T07:11:38Z</time>
      </trkpt>
      <trkpt lat="49.77419" lon="2.27006">
        <ele>131.8</ele>
        <time>2023-07-12T07:11:39Z</time>
      </trkpt>
      <trkpt lat="49.7742" lon="2.27008">
        <ele>131.8</ele>
        <time>2023-07-12T07:11:40Z</time>
      </trkpt>
      <trkpt lat="49.77421" lon="2.27009">
        <ele>131.8</ele>
        <time>2023-07-12T07:11:41Z</time>
      </trkpt>
      <trkpt lat="49.77422" lon="2.2701">
        <ele>131.8</ele>
        <time>2023-07-12T07:11:42Z</time>
      </trkpt>
      <trkpt lat="49.77423" lon="2.27011">
        <ele>131.8</ele>
        <time>2023-07-12T07:11:43Z</time>
      </trkpt>
      <trkpt lat="49.77424" lon="2.27012">
        <ele>131.8</ele>
        <time>2023-07-12T07:11:44Z</time>
      </trkpt>
      <trkpt lat="49.77425" lon="2.27013">
        <ele>131.7</ele>
        <time>2023-07-12T07:11:45Z</time>
      </trkpt>
      <trkpt lat="49.77426" lon="2.27014">
        <ele>131.7</ele>
        <time>2023-07-12T07:11:46Z</time>
      </trkpt>
      <trkpt lat="49.77427" lon="2.27015">
        <ele>131.7</ele>
        <time>2023-07-12T07:11:47Z</time>
      </trkpt>
      <trkpt lat="49.77429" lon="2.27016">
        <ele>131.7</ele>
        <time>2023-07-12T07:11:48Z</time>
      </trkpt>
      <trkpt lat="49.7743" lon="2.27017">
        <ele>131.6</ele>
        <time>2023-07-12T07:11:50Z</time>
      </trkpt>
      <trkpt lat="49.7743" lon="2.27018">
        <ele>131.6</ele>
        <time>2023-07-12T07:11:51Z</time>
      </trkpt>
      <trkpt lat="49.77432" lon="2.27019">
        <ele>131.6</ele>
        <time>2023-07-12T07:11:52Z</time>
      </trkpt>
      <trkpt lat="49.77433" lon="2.2702">
        <ele>131.6</ele>
        <time>2023-07-12T07:11:53Z</time>
      </trkpt>
      <trkpt lat="49.77434" lon="2.27021">
        <ele>131.5</ele>
        <time>2023-07-12T07:11:54Z</time>
      </trkpt>
      <trkpt lat="49.77437" lon="2.27022">
        <ele>131.5</ele>
        <time>2023-07-12T07:11:55Z</time>
      </trkpt>
      <trkpt lat="49.77438" lon="2.27023">
        <ele>131.5</ele>
        <time>2023-07-12T07:11:57Z</time>
      </trkpt>
      <trkpt lat="49.77439" lon="2.27023">
        <ele>131.4</ele>
        <time>2023-07-12T07:11:58Z</time>
      </trkpt>
      <trkpt lat="49.77439" lon="2.27024">
        <ele>131.4</ele>
        <time>2023-07-12T07:11:59Z</time>
      </trkpt>
      <trkpt lat="49.7744" lon="2.27025">
        <ele>131.4</ele>
        <time>2023-07-12T07:12:00Z</time>
      </trkpt>
      <trkpt lat="49.77442" lon="2.27026">
        <ele>131.4</ele>
        <time>2023-07-12T07:12:01Z</time>
      </trkpt>
      <trkpt lat="49.77443" lon="2.27027">
        <ele>131.3</ele>
        <time>2023-07-12T07:12:02Z</time>
      </trkpt>
      <trkpt lat="49.77444" lon="2.27027">
        <ele>131.3</ele>
        <time>2023-07-12T07:12:03Z</time>
      </trkpt>
      <trkpt lat="49.77446" lon="2.27029">
        <ele>131.3</ele>
        <time>2023-07-12T07:12:04Z</time>
      </trkpt>
      <trkpt lat="49.77446" lon="2.2703">
        <ele>131.3</ele>
        <time>2023-07-12T07:12:05Z</time>
      </trkpt>
      <trkpt lat="49.77447" lon="2.2703">
        <ele>131.3</ele>
        <time>2023-07-12T07:12:06Z</time>
      </trkpt>
      <trkpt lat="49.77448" lon="2.27031">
        <ele>131.2</ele>
        <time>2023-07-12T07:12:07Z</time>
      </trkpt>
      <trkpt lat="49.7745" lon="2.27032">
        <ele>131.2</ele>
        <time>2023-07-12T07:12:08Z</time>
      </trkpt>
      <trkpt lat="49.77451" lon="2.27033">
        <ele>131.2</ele>
        <time>2023-07-12T07:12:09Z</time>
      </trkpt>
      <trkpt lat="49.77452" lon="2.27033">
        <ele>131.2</ele>
        <time>2023-07-12T07:12:11Z</time>
      </trkpt>
      <trkpt lat="49.77453" lon="2.27034">
        <ele>131.2</ele>
        <time>2023-07-12T07:12:12Z</time>
      </trkpt>
      <trkpt lat="49.77454" lon="2.27036">
        <ele>131.1</ele>
        <time>2023-07-12T07:12:13Z</time>
      </trkpt>
      <trkpt lat="49.77455" lon="2.27037">
        <ele>131.1</ele>
        <time>2023-07-12T07:12:14Z</time>
      </trkpt>
      <trkpt lat="49.77456" lon="2.27037">
        <ele>131.1</ele>
        <time>2023-07-12T07:12:15Z</time>
      </trkpt>
      <trkpt lat="49.77457" lon="2.27038">
        <ele>131.1</ele>
        <time>2023-07-12T07:12:16Z</time>
      </trkpt>
      <trkpt lat="49.77458" lon="2.27039">
        <ele>131</ele>
        <time>2023-07-12T07:12:17Z</time>
      </trkpt>
      <trkpt lat="49.7746" lon="2.2704">
        <ele>131</ele>
        <time>2023-07-12T07:12:18Z</time>
      </trkpt>
      <trkpt lat="49.77461" lon="2.27042">
        <ele>131</ele>
        <time>2023-07-12T07:12:19Z</time>
      </trkpt>
      <trkpt lat="49.77462" lon="2.27043">
        <ele>131</ele>
        <time>2023-07-12T07:12:20Z</time>
      </trkpt>
      <trkpt lat="49.77464" lon="2.27044">
        <ele>130.9</ele>
        <time>2023-07-12T07:12:21Z</time>
      </trkpt>
      <trkpt lat="49.77466" lon="2.27045">
        <ele>130.9</ele>
        <time>2023-07-12T07:12:23Z</time>
      </trkpt>
      <trkpt lat="49.77466" lon="2.27045">
        <ele>130.9</ele>
        <time>2023-07-12T07:12:24Z</time>
      </trkpt>
      <trkpt lat="49.77467" lon="2.27046">
        <ele>130.9</ele>
        <time>2023-07-12T07:12:25Z</time>
      </trkpt>
      <trkpt lat="49.77469" lon="2.27047">
        <ele>130.8</ele>
        <time>2023-07-12T07:12:26Z</time>
      </trkpt>
      <trkpt lat="49.7747" lon="2.27047">
        <ele>130.8</ele>
        <time>2023-07-12T07:12:27Z</time>
      </trkpt>
      <trkpt lat="49.77471" lon="2.27047">
        <ele>130.8</ele>
        <time>2023-07-12T07:12:28Z</time>
      </trkpt>
      <trkpt lat="49.77472" lon="2.27048">
        <ele>130.8</ele>
        <time>2023-07-12T07:12:29Z</time>
      </trkpt>
      <trkpt lat="49.77473" lon="2.27049">
        <ele>130.8</ele>
        <time>2023-07-12T07:12:30Z</time>
      </trkpt>
      <trkpt lat="49.77478" lon="2.2705">
        <ele>130.7</ele>
        <time>2023-07-12T07:12:32Z</time>
      </trkpt>
      <trkpt lat="49.77479" lon="2.27051">
        <ele>130.7</ele>
        <time>2023-07-12T07:12:33Z</time>
      </trkpt>
      <trkpt lat="49.7748" lon="2.27051">
        <ele>130.7</ele>
        <time>2023-07-12T07:12:35Z</time>
      </trkpt>
      <trkpt lat="49.77482" lon="2.27052">
        <ele>130.7</ele>
        <time>2023-07-12T07:12:37Z</time>
      </trkpt>
      <trkpt lat="49.77483" lon="2.27052">
        <ele>130.6</ele>
        <time>2023-07-12T07:12:38Z</time>
      </trkpt>
      <trkpt lat="49.77485" lon="2.27053">
        <ele>130.6</ele>
        <time>2023-07-12T07:12:39Z</time>
      </trkpt>
      <trkpt lat="49.77486" lon="2.27054">
        <ele>130.6</ele>
        <time>2023-07-12T07:12:40Z</time>
      </trkpt>
      <trkpt lat="49.77488" lon="2.27054">
        <ele>130.6</ele>
        <time>2023-07-12T07:12:41Z</time>
      </trkpt>
      <trkpt lat="49.77489" lon="2.27055">
        <ele>130.6</ele>
        <time>2023-07-12T07:12:42Z</time>
      </trkpt>
      <trkpt lat="49.77491" lon="2.27055">
        <ele>130.6</ele>
        <time>2023-07-12T07:12:44Z</time>
      </trkpt>
      <trkpt lat="49.77492" lon="2.27056">
        <ele>130.5</ele>
        <time>2023-07-12T07:12:45Z</time>
      </trkpt>
      <trkpt lat="49.77494" lon="2.27057">
        <ele>130.5</ele>
        <time>2023-07-12T07:12:46Z</time>
      </trkpt>
      <trkpt lat="49.77495" lon="2.27057">
        <ele>130.5</ele>
        <time>2023-07-12T07:12:47Z</time>
      </trkpt>
      <trkpt lat="49.77496" lon="2.27058">
        <ele>130.5</ele>
        <time>2023-07-12T07:12:48Z</time>
      </trkpt>
      <trkpt lat="49.77498" lon="2.27059">
        <ele>130.5</ele>
        <time>2023-07-12T07:12:49Z</time>
      </trkpt>
      <trkpt lat="49.77499" lon="2.2706">
        <ele>130.5</ele>
        <time>2023-07-12T07:12:50Z</time>
      </trkpt>
      <trkpt lat="49.77501" lon="2.27061">
        <ele>130.4</ele>
        <time>2023-07-12T07:12:52Z</time>
      </trkpt>
      <trkpt lat="49.77502" lon="2.27062">
        <ele>130.4</ele>
        <time>2023-07-12T07:12:53Z</time>
      </trkpt>
      <trkpt lat="49.77504" lon="2.27062">
        <ele>130.4</ele>
        <time>2023-07-12T07:12:54Z</time>
      </trkpt>
      <trkpt lat="49.77506" lon="2.27064">
        <ele>130.4</ele>
        <time>2023-07-12T07:12:56Z</time>
      </trkpt>
      <trkpt lat="49.77507" lon="2.27064">
        <ele>130.4</ele>
        <time>2023-07-12T07:12:57Z</time>
      </trkpt>
      <trkpt lat="49.77507" lon="2.27065">
        <ele>130.4</ele>
        <time>2023-07-12T07:12:58Z</time>
      </trkpt>
      <trkpt lat="49.77509" lon="2.27066">
        <ele>130.3</ele>
        <time>2023-07-12T07:12:59Z</time>
      </trkpt>
      <trkpt lat="49.7751" lon="2.27067">
        <ele>130.3</ele>
        <time>2023-07-12T07:13:00Z</time>
      </trkpt>
      <trkpt lat="49.77511" lon="2.27067">
        <ele>130.3</ele>
        <time>2023-07-12T07:13:01Z</time>
      </trkpt>
      <trkpt lat="49.77512" lon="2.27068">
        <ele>130.3</ele>
        <time>2023-07-12T07:13:02Z</time>
      </trkpt>
      <trkpt lat="49.77515" lon="2.27069">
        <ele>130.3</ele>
        <time>2023-07-12T07:13:04Z</time>
      </trkpt>
      <trkpt lat="49.77516" lon="2.2707">
        <ele>130.3</ele>
        <time>2023-07-12T07:13:05Z</time>
      </trkpt>
      <trkpt lat="49.77517" lon="2.2707">
        <ele>130.3</ele>
        <time>2023-07-12T07:13:06Z</time>
      </trkpt>
      <trkpt lat="49.77518" lon="2.27071">
        <ele>130.3</ele>
        <time>2023-07-12T07:13:07Z</time>
      </trkpt>
      <trkpt lat="49.77519" lon="2.27072">
        <ele>130.3</ele>
        <time>2023-07-12T07:13:09Z</time>
      </trkpt>
      <trkpt lat="49.7752" lon="2.27072">
        <ele>130.3</ele>
        <time>2023-07-12T07:13:10Z</time>
      </trkpt>
      <trkpt lat="49.77521" lon="2.27073">
        <ele>130.3</ele>
        <time>2023-07-12T07:13:11Z</time>
      </trkpt>
      <trkpt lat="49.77523" lon="2.27074">
        <ele>130.3</ele>
        <time>2023-07-12T07:13:12Z</time>
      </trkpt>
      <trkpt lat="49.77524" lon="2.27075">
        <ele>130.3</ele>
        <time>2023-07-12T07:13:13Z</time>
      </trkpt>
      <trkpt lat="49.77525" lon="2.27076">
        <ele>130.2</ele>
        <time>2023-07-12T07:13:14Z</time>
      </trkpt>
      <trkpt lat="49.77526" lon="2.27077">
        <ele>130.2</ele>
        <time>2023-07-12T07:13:15Z</time>
      </trkpt>
      <trkpt lat="49.77527" lon="2.27078">
        <ele>130.2</ele>
        <time>2023-07-12T07:13:17Z</time>
      </trkpt>
      <trkpt lat="49.77528" lon="2.27079">
        <ele>130.2</ele>
        <time>2023-07-12T07:13:18Z</time>
      </trkpt>
      <trkpt lat="49.77528" lon="2.27079">
        <ele>130.2</ele>
        <time>2023-07-12T07:13:19Z</time>
      </trkpt>
      <trkpt lat="49.77529" lon="2.2708">
        <ele>130.2</ele>
        <time>2023-07-12T07:13:20Z</time>
      </trkpt>
      <trkpt lat="49.7753" lon="2.27081">
        <ele>130.2</ele>
        <time>2023-07-12T07:13:21Z</time>
      </trkpt>
      <trkpt lat="49.77531" lon="2.27082">
        <ele>130.2</ele>
        <time>2023-07-12T07:13:22Z</time>
      </trkpt>
      <trkpt lat="49.77532" lon="2.27083">
        <ele>130.2</ele>
        <time>2023-07-12T07:13:23Z</time>
      </trkpt>
      <trkpt lat="49.77533" lon="2.27084">
        <ele>130.2</ele>
        <time>2023-07-12T07:13:24Z</time>
      </trkpt>
      <trkpt lat="49.77534" lon="2.27085">
        <ele>130.1</ele>
        <time>2023-07-12T07:13:25Z</time>
      </trkpt>
      <trkpt lat="49.77535" lon="2.27086">
        <ele>130.1</ele>
        <time>2023-07-12T07:13:26Z</time>
      </trkpt>
      <trkpt lat="49.77536" lon="2.27087">
        <ele>130.1</ele>
        <time>2023-07-12T07:13:27Z</time>
      </trkpt>
      <trkpt lat="49.77538" lon="2.27087">
        <ele>130.1</ele>
        <time>2023-07-12T07:13:28Z</time>
      </trkpt>
      <trkpt lat="49.7754" lon="2.27088">
        <ele>130.1</ele>
        <time>2023-07-12T07:13:30Z</time>
      </trkpt>
      <trkpt lat="49.77541" lon="2.27088">
        <ele>130</ele>
        <time>2023-07-12T07:13:31Z</time>
      </trkpt>
      <trkpt lat="49.77542" lon="2.27088">
        <ele>130</ele>
        <time>2023-07-12T07:13:32Z</time>
      </trkpt>
      <trkpt lat="49.77543" lon="2.27089">
        <ele>130</ele>
        <time>2023-07-12T07:13:33Z</time>
      </trkpt>
      <trkpt lat="49.77544" lon="2.2709">
        <ele>130</ele>
        <time>2023-07-12T07:13:34Z</time>
      </trkpt>
      <trkpt lat="49.77545" lon="2.27091">
        <ele>130</ele>
        <time>2023-07-12T07:13:36Z</time>
      </trkpt>
      <trkpt lat="49.77546" lon="2.27092">
        <ele>129.9</ele>
        <time>2023-07-12T07:13:37Z</time>
      </trkpt>
      <trkpt lat="49.77547" lon="2.27093">
        <ele>129.9</ele>
        <time>2023-07-12T07:13:38Z</time>
      </trkpt>
      <trkpt lat="49.77548" lon="2.27095">
        <ele>129.9</ele>
        <time>2023-07-12T07:13:39Z</time>
      </trkpt>
      <trkpt lat="49.7755" lon="2.27096">
        <ele>129.8</ele>
        <time>2023-07-12T07:13:40Z</time>
      </trkpt>
      <trkpt lat="49.77551" lon="2.27097">
        <ele>129.8</ele>
        <time>2023-07-12T07:13:41Z</time>
      </trkpt>
      <trkpt lat="49.77552" lon="2.27097">
        <ele>129.8</ele>
        <time>2023-07-12T07:13:42Z</time>
      </trkpt>
      <trkpt lat="49.77554" lon="2.27098">
        <ele>129.8</ele>
        <time>2023-07-12T07:13:43Z</time>
      </trkpt>
      <trkpt lat="49.77555" lon="2.27099">
        <ele>129.7</ele>
        <time>2023-07-12T07:13:44Z</time>
      </trkpt>
      <trkpt lat="49.77556" lon="2.271">
        <ele>129.7</ele>
        <time>2023-07-12T07:13:45Z</time>
      </trkpt>
      <trkpt lat="49.77558" lon="2.27101">
        <ele>129.7</ele>
        <time>2023-07-12T07:13:46Z</time>
      </trkpt>
      <trkpt lat="49.77559" lon="2.27102">
        <ele>129.7</ele>
        <time>2023-07-12T07:13:48Z</time>
      </trkpt>
      <trkpt lat="49.77559" lon="2.27102">
        <ele>129.6</ele>
        <time>2023-07-12T07:13:49Z</time>
      </trkpt>
      <trkpt lat="49.7756" lon="2.27103">
        <ele>129.6</ele>
        <time>2023-07-12T07:13:50Z</time>
      </trkpt>
      <trkpt lat="49.77561" lon="2.27105">
        <ele>129.6</ele>
        <time>2023-07-12T07:13:51Z</time>
      </trkpt>
      <trkpt lat="49.77563" lon="2.27106">
        <ele>129.6</ele>
        <time>2023-07-12T07:13:52Z</time>
      </trkpt>
      <trkpt lat="49.77564" lon="2.27107">
        <ele>129.5</ele>
        <time>2023-07-12T07:13:53Z</time>
      </trkpt>
      <trkpt lat="49.77566" lon="2.27108">
        <ele>129.5</ele>
        <time>2023-07-12T07:13:55Z</time>
      </trkpt>
      <trkpt lat="49.77567" lon="2.27109">
        <ele>129.5</ele>
        <time>2023-07-12T07:13:56Z</time>
      </trkpt>
      <trkpt lat="49.77567" lon="2.2711">
        <ele>129.5</ele>
        <time>2023-07-12T07:13:57Z</time>
      </trkpt>
      <trkpt lat="49.77569" lon="2.27111">
        <ele>129.5</ele>
        <time>2023-07-12T07:13:58Z</time>
      </trkpt>
      <trkpt lat="49.7757" lon="2.27112">
        <ele>129.5</ele>
        <time>2023-07-12T07:13:59Z</time>
      </trkpt>
      <trkpt lat="49.77571" lon="2.27113">
        <ele>129.4</ele>
        <time>2023-07-12T07:14:00Z</time>
      </trkpt>
      <trkpt lat="49.77572" lon="2.27114">
        <ele>129.4</ele>
        <time>2023-07-12T07:14:01Z</time>
      </trkpt>
      <trkpt lat="49.77573" lon="2.27114">
        <ele>129.4</ele>
        <time>2023-07-12T07:14:02Z</time>
      </trkpt>
      <trkpt lat="49.77575" lon="2.27116">
        <ele>129.4</ele>
        <time>2023-07-12T07:14:03Z</time>
      </trkpt>
      <trkpt lat="49.77576" lon="2.27116">
        <ele>129.4</ele>
        <time>2023-07-12T07:14:05Z</time>
      </trkpt>
      <trkpt lat="49.77577" lon="2.27116">
        <ele>129.4</ele>
        <time>2023-07-12T07:14:06Z</time>
      </trkpt>
      <trkpt lat="49.77579" lon="2.27115">
        <ele>129.4</ele>
        <time>2023-07-12T07:14:07Z</time>
      </trkpt>
      <trkpt lat="49.7758" lon="2.27115">
        <ele>129.4</ele>
        <time>2023-07-12T07:14:08Z</time>
      </trkpt>
      <trkpt lat="49.7758" lon="2.27115">
        <ele>129.4</ele>
        <time>2023-07-12T07:14:09Z</time>
      </trkpt>
      <trkpt lat="49.77581" lon="2.27115">
        <ele>129.4</ele>
        <time>2023-07-12T07:14:11Z</time>
      </trkpt>
      <trkpt lat="49.77582" lon="2.27116">
        <ele>129.4</ele>
        <time>2023-07-12T07:14:12Z</time>
      </trkpt>
      <trkpt lat="49.77583" lon="2.27117">
        <ele>129.4</ele>
        <time>2023-07-12T07:14:13Z</time>
      </trkpt>
      <trkpt lat="49.77584" lon="2.27118">
        <ele>129.4</ele>
        <time>2023-07-12T07:14:14Z</time>
      </trkpt>
      <trkpt lat="49.77585" lon="2.27119">
        <ele>129.4</ele>
        <time>2023-07-12T07:14:15Z</time>
      </trkpt>
      <trkpt lat="49.77585" lon="2.27121">
        <ele>129.3</ele>
        <time>2023-07-12T07:14:16Z</time>
      </trkpt>
      <trkpt lat="49.77587" lon="2.27122">
        <ele>129.3</ele>
        <time>2023-07-12T07:14:17Z</time>
      </trkpt>
      <trkpt lat="49.77588" lon="2.27122">
        <ele>129.3</ele>
        <time>2023-07-12T07:14:18Z</time>
      </trkpt>
      <trkpt lat="49.77589" lon="2.27123">
        <ele>129.3</ele>
        <time>2023-07-12T07:14:20Z</time>
      </trkpt>
      <trkpt lat="49.77591" lon="2.27124">
        <ele>129.3</ele>
        <time>2023-07-12T07:14:21Z</time>
      </trkpt>
      <trkpt lat="49.77592" lon="2.27124">
        <ele>129.3</ele>
        <time>2023-07-12T07:14:22Z</time>
      </trkpt>
      <trkpt lat="49.77593" lon="2.27124">
        <ele>129.3</ele>
        <time>2023-07-12T07:14:23Z</time>
      </trkpt>
      <trkpt lat="49.77595" lon="2.27125">
        <ele>129.2</ele>
        <time>2023-07-12T07:14:24Z</time>
      </trkpt>
      <trkpt lat="49.77596" lon="2.27126">
        <ele>129.2</ele>
        <time>2023-07-12T07:14:25Z</time>
      </trkpt>
      <trkpt lat="49.77597" lon="2.27127">
        <ele>129.2</ele>
        <time>2023-07-12T07:14:26Z</time>
      </trkpt>
      <trkpt lat="49.77599" lon="2.27129">
        <ele>129.2</ele>
        <time>2023-07-12T07:14:28Z</time>
      </trkpt>
      <trkpt lat="49.776" lon="2.27129">
        <ele>129.2</ele>
        <time>2023-07-12T07:14:29Z</time>
      </trkpt>
      <trkpt lat="49.776" lon="2.2713">
        <ele>129.2</ele>
        <time>2023-07-12T07:14:30Z</time>
      </trkpt>
      <trkpt lat="49.77602" lon="2.27131">
        <ele>129.2</ele>
        <time>2023-07-12T07:14:31Z</time>
      </trkpt>
      <trkpt lat="49.77603" lon="2.27131">
        <ele>129.2</ele>
        <time>2023-07-12T07:14:32Z</time>
      </trkpt>
      <trkpt lat="49.77604" lon="2.27132">
        <ele>129.1</ele>
        <time>2023-07-12T07:14:33Z</time>
      </trkpt>
      <trkpt lat="49.77606" lon="2.27132">
        <ele>129.1</ele>
        <time>2023-07-12T07:14:34Z</time>
      </trkpt>
      <trkpt lat="49.77607" lon="2.27133">
        <ele>129.1</ele>
        <time>2023-07-12T07:14:35Z</time>
      </trkpt>
      <trkpt lat="49.77608" lon="2.27133">
        <ele>129.1</ele>
        <time>2023-07-12T07:14:36Z</time>
      </trkpt>
      <trkpt lat="49.7761" lon="2.27134">
        <ele>129.1</ele>
        <time>2023-07-12T07:14:37Z</time>
      </trkpt>
      <trkpt lat="49.77611" lon="2.27134">
        <ele>129</ele>
        <time>2023-07-12T07:14:38Z</time>
      </trkpt>
      <trkpt lat="49.77612" lon="2.27135">
        <ele>129</ele>
        <time>2023-07-12T07:14:39Z</time>
      </trkpt>
      <trkpt lat="49.77614" lon="2.27136">
        <ele>129</ele>
        <time>2023-07-12T07:14:40Z</time>
      </trkpt>
      <trkpt lat="49.77614" lon="2.27136">
        <ele>129</ele>
        <time>2023-07-12T07:14:42Z</time>
      </trkpt>
      <trkpt lat="49.77615" lon="2.27136">
        <ele>129</ele>
        <time>2023-07-12T07:14:43Z</time>
      </trkpt>
      <trkpt lat="49.77616" lon="2.27137">
        <ele>129</ele>
        <time>2023-07-12T07:14:44Z</time>
      </trkpt>
      <trkpt lat="49.77617" lon="2.27138">
        <ele>128.9</ele>
        <time>2023-07-12T07:14:45Z</time>
      </trkpt>
      <trkpt lat="49.77618" lon="2.27139">
        <ele>128.9</ele>
        <time>2023-07-12T07:14:46Z</time>
      </trkpt>
      <trkpt lat="49.77619" lon="2.27139">
        <ele>128.9</ele>
        <time>2023-07-12T07:14:47Z</time>
      </trkpt>
      <trkpt lat="49.7762" lon="2.2714">
        <ele>128.9</ele>
        <time>2023-07-12T07:14:48Z</time>
      </trkpt>
      <trkpt lat="49.77621" lon="2.2714">
        <ele>128.9</ele>
        <time>2023-07-12T07:14:49Z</time>
      </trkpt>
      <trkpt lat="49.77622" lon="2.27141">
        <ele>128.9</ele>
        <time>2023-07-12T07:14:50Z</time>
      </trkpt>
      <trkpt lat="49.77623" lon="2.27142">
        <ele>128.8</ele>
        <time>2023-07-12T07:14:52Z</time>
      </trkpt>
      <trkpt lat="49.77624" lon="2.27143">
        <ele>128.8</ele>
        <time>2023-07-12T07:14:53Z</time>
      </trkpt>
      <trkpt lat="49.77625" lon="2.27144">
        <ele>128.8</ele>
        <time>2023-07-12T07:14:54Z</time>
      </trkpt>
      <trkpt lat="49.77626" lon="2.27145">
        <ele>128.8</ele>
        <time>2023-07-12T07:14:55Z</time>
      </trkpt>
      <trkpt lat="49.77627" lon="2.27146">
        <ele>128.8</ele>
        <time>2023-07-12T07:14:56Z</time>
      </trkpt>
      <trkpt lat="49.77629" lon="2.27147">
        <ele>128.7</ele>
        <time>2023-07-12T07:14:57Z</time>
      </trkpt>
      <trkpt lat="49.7763" lon="2.27148">
        <ele>128.7</ele>
        <time>2023-07-12T07:14:58Z</time>
      </trkpt>
      <trkpt lat="49.7763" lon="2.27149">
        <ele>128.7</ele>
        <time>2023-07-12T07:14:59Z</time>
      </trkpt>
      <trkpt lat="49.77632" lon="2.2715">
        <ele>128.7</ele>
        <time>2023-07-12T07:15:00Z</time>
      </trkpt>
      <trkpt lat="49.77633" lon="2.27151">
        <ele>128.7</ele>
        <time>2023-07-12T07:15:01Z</time>
      </trkpt>
      <trkpt lat="49.77634" lon="2.27153">
        <ele>128.7</ele>
        <time>2023-07-12T07:15:03Z</time>
      </trkpt>
      <trkpt lat="49.77635" lon="2.27155">
        <ele>128.7</ele>
        <time>2023-07-12T07:15:04Z</time>
      </trkpt>
      <trkpt lat="49.77636" lon="2.27156">
        <ele>128.7</ele>
        <time>2023-07-12T07:15:05Z</time>
      </trkpt>
      <trkpt lat="49.77636" lon="2.27156">
        <ele>128.7</ele>
        <time>2023-07-12T07:15:06Z</time>
      </trkpt>
      <trkpt lat="49.77639" lon="2.27159">
        <ele>128.7</ele>
        <time>2023-07-12T07:15:07Z</time>
      </trkpt>
      <trkpt lat="49.7764" lon="2.2716">
        <ele>128.7</ele>
        <time>2023-07-12T07:15:09Z</time>
      </trkpt>
      <trkpt lat="49.77641" lon="2.27161">
        <ele>128.7</ele>
        <time>2023-07-12T07:15:10Z</time>
      </trkpt>
      <trkpt lat="49.77642" lon="2.27162">
        <ele>128.7</ele>
        <time>2023-07-12T07:15:11Z</time>
      </trkpt>
      <trkpt lat="49.77643" lon="2.27162">
        <ele>128.7</ele>
        <time>2023-07-12T07:15:12Z</time>
      </trkpt>
      <trkpt lat="49.77644" lon="2.27164">
        <ele>128.6</ele>
        <time>2023-07-12T07:15:13Z</time>
      </trkpt>
      <trkpt lat="49.77645" lon="2.27165">
        <ele>128.6</ele>
        <time>2023-07-12T07:15:14Z</time>
      </trkpt>
      <trkpt lat="49.77647" lon="2.27166">
        <ele>128.6</ele>
        <time>2023-07-12T07:15:15Z</time>
      </trkpt>
      <trkpt lat="49.77648" lon="2.27167">
        <ele>128.6</ele>
        <time>2023-07-12T07:15:16Z</time>
      </trkpt>
      <trkpt lat="49.77648" lon="2.27168">
        <ele>128.6</ele>
        <time>2023-07-12T07:15:17Z</time>
      </trkpt>
      <trkpt lat="49.7765" lon="2.27169">
        <ele>128.6</ele>
        <time>2023-07-12T07:15:19Z</time>
      </trkpt>
      <trkpt lat="49.77651" lon="2.2717">
        <ele>128.6</ele>
        <time>2023-07-12T07:15:20Z</time>
      </trkpt>
      <trkpt lat="49.77652" lon="2.2717">
        <ele>128.6</ele>
        <time>2023-07-12T07:15:21Z</time>
      </trkpt>
      <trkpt lat="49.77653" lon="2.27172">
        <ele>128.6</ele>
        <time>2023-07-12T07:15:22Z</time>
      </trkpt>
      <trkpt lat="49.77654" lon="2.27173">
        <ele>128.6</ele>
        <time>2023-07-12T07:15:23Z</time>
      </trkpt>
      <trkpt lat="49.77655" lon="2.27174">
        <ele>128.6</ele>
        <time>2023-07-12T07:15:24Z</time>
      </trkpt>
      <trkpt lat="49.77656" lon="2.27175">
        <ele>128.6</ele>
        <time>2023-07-12T07:15:25Z</time>
      </trkpt>
      <trkpt lat="49.77656" lon="2.27176">
        <ele>128.6</ele>
        <time>2023-07-12T07:15:26Z</time>
      </trkpt>
      <trkpt lat="49.77657" lon="2.27177">
        <ele>128.6</ele>
        <time>2023-07-12T07:15:27Z</time>
      </trkpt>
      <trkpt lat="49.77658" lon="2.27178">
        <ele>128.6</ele>
        <time>2023-07-12T07:15:28Z</time>
      </trkpt>
      <trkpt lat="49.77659" lon="2.2718">
        <ele>128.6</ele>
        <time>2023-07-12T07:15:30Z</time>
      </trkpt>
      <trkpt lat="49.7766" lon="2.27181">
        <ele>128.6</ele>
        <time>2023-07-12T07:15:31Z</time>
      </trkpt>
      <trkpt lat="49.77661" lon="2.27182">
        <ele>128.6</ele>
        <time>2023-07-12T07:15:32Z</time>
      </trkpt>
      <trkpt lat="49.77661" lon="2.27183">
        <ele>128.6</ele>
        <time>2023-07-12T07:15:33Z</time>
      </trkpt>
      <trkpt lat="49.77662" lon="2.27184">
        <ele>128.6</ele>
        <time>2023-07-12T07:15:34Z</time>
      </trkpt>
      <trkpt lat="49.77663" lon="2.27184">
        <ele>128.5</ele>
        <time>2023-07-12T07:15:35Z</time>
      </trkpt>
      <trkpt lat="49.77664" lon="2.27185">
        <ele>128.5</ele>
        <time>2023-07-12T07:15:36Z</time>
      </trkpt>
      <trkpt lat="49.77665" lon="2.27186">
        <ele>128.5</ele>
        <time>2023-07-12T07:15:37Z</time>
      </trkpt>
      <trkpt lat="49.77667" lon="2.27187">
        <ele>128.5</ele>
        <time>2023-07-12T07:15:38Z</time>
      </trkpt>
      <trkpt lat="49.77667" lon="2.27188">
        <ele>128.5</ele>
        <time>2023-07-12T07:15:40Z</time>
      </trkpt>
      <trkpt lat="49.77668" lon="2.27189">
        <ele>128.5</ele>
        <time>2023-07-12T07:15:41Z</time>
      </trkpt>
      <trkpt lat="49.7767" lon="2.27191">
        <ele>128.5</ele>
        <time>2023-07-12T07:15:42Z</time>
      </trkpt>
      <trkpt lat="49.77671" lon="2.27192">
        <ele>128.5</ele>
        <time>2023-07-12T07:15:43Z</time>
      </trkpt>
      <trkpt lat="49.77671" lon="2.27192">
        <ele>128.5</ele>
        <time>2023-07-12T07:15:44Z</time>
      </trkpt>
      <trkpt lat="49.77673" lon="2.27193">
        <ele>128.5</ele>
        <time>2023-07-12T07:15:45Z</time>
      </trkpt>
      <trkpt lat="49.77674" lon="2.27194">
        <ele>128.5</ele>
        <time>2023-07-12T07:15:47Z</time>
      </trkpt>
      <trkpt lat="49.77675" lon="2.27194">
        <ele>128.5</ele>
        <time>2023-07-12T07:15:48Z</time>
      </trkpt>
      <trkpt lat="49.77676" lon="2.27194">
        <ele>128.5</ele>
        <time>2023-07-12T07:15:49Z</time>
      </trkpt>
      <trkpt lat="49.77678" lon="2.27195">
        <ele>128.5</ele>
        <time>2023-07-12T07:15:50Z</time>
      </trkpt>
      <trkpt lat="49.7768" lon="2.27196">
        <ele>128.4</ele>
        <time>2023-07-12T07:15:51Z</time>
      </trkpt>
      <trkpt lat="49.77681" lon="2.27196">
        <ele>128.4</ele>
        <time>2023-07-12T07:15:52Z</time>
      </trkpt>
      <trkpt lat="49.77681" lon="2.27197">
        <ele>128.4</ele>
        <time>2023-07-12T07:15:53Z</time>
      </trkpt>
      <trkpt lat="49.77683" lon="2.27197">
        <ele>128.4</ele>
        <time>2023-07-12T07:15:54Z</time>
      </trkpt>
      <trkpt lat="49.77684" lon="2.27198">
        <ele>128.4</ele>
        <time>2023-07-12T07:15:55Z</time>
      </trkpt>
      <trkpt lat="49.77685" lon="2.27199">
        <ele>128.4</ele>
        <time>2023-07-12T07:15:57Z</time>
      </trkpt>
      <trkpt lat="49.77686" lon="2.272">
        <ele>128.4</ele>
        <time>2023-07-12T07:15:58Z</time>
      </trkpt>
      <trkpt lat="49.77688" lon="2.272">
        <ele>128.4</ele>
        <time>2023-07-12T07:15:59Z</time>
      </trkpt>
      <trkpt lat="49.77689" lon="2.27201">
        <ele>128.4</ele>
        <time>2023-07-12T07:16:00Z</time>
      </trkpt>
      <trkpt lat="49.7769" lon="2.27201">
        <ele>128.4</ele>
        <time>2023-07-12T07:16:01Z</time>
      </trkpt>
      <trkpt lat="49.77691" lon="2.27202">
        <ele>128.4</ele>
        <time>2023-07-12T07:16:02Z</time>
      </trkpt>
      <trkpt lat="49.77692" lon="2.27203">
        <ele>128.4</ele>
        <time>2023-07-12T07:16:03Z</time>
      </trkpt>
      <trkpt lat="49.77694" lon="2.27203">
        <ele>128.4</ele>
        <time>2023-07-12T07:16:04Z</time>
      </trkpt>
      <trkpt lat="49.77695" lon="2.27204">
        <ele>128.4</ele>
        <time>2023-07-12T07:16:06Z</time>
      </trkpt>
      <trkpt lat="49.77696" lon="2.27205">
        <ele>128.4</ele>
        <time>2023-07-12T07:16:07Z</time>
      </trkpt>
      <trkpt lat="49.77698" lon="2.27206">
        <ele>128.4</ele>
        <time>2023-07-12T07:16:08Z</time>
      </trkpt>
      <trkpt lat="49.77698" lon="2.27206">
        <ele>128.4</ele>
        <time>2023-07-12T07:16:09Z</time>
      </trkpt>
      <trkpt lat="49.77699" lon="2.27207">
        <ele>128.4</ele>
        <time>2023-07-12T07:16:10Z</time>
      </trkpt>
      <trkpt lat="49.777" lon="2.27208">
        <ele>128.4</ele>
        <time>2023-07-12T07:16:12Z</time>
      </trkpt>
      <trkpt lat="49.77701" lon="2.27208">
        <ele>128.4</ele>
        <time>2023-07-12T07:16:13Z</time>
      </trkpt>
      <trkpt lat="49.77702" lon="2.27209">
        <ele>128.4</ele>
        <time>2023-07-12T07:16:14Z</time>
      </trkpt>
      <trkpt lat="49.77704" lon="2.27211">
        <ele>128.3</ele>
        <time>2023-07-12T07:16:15Z</time>
      </trkpt>
      <trkpt lat="49.77705" lon="2.27211">
        <ele>128.3</ele>
        <time>2023-07-12T07:16:16Z</time>
      </trkpt>
      <trkpt lat="49.77705" lon="2.27212">
        <ele>128.3</ele>
        <time>2023-07-12T07:16:17Z</time>
      </trkpt>
      <trkpt lat="49.77706" lon="2.27213">
        <ele>128.3</ele>
        <time>2023-07-12T07:16:18Z</time>
      </trkpt>
      <trkpt lat="49.77707" lon="2.27214">
        <ele>128.3</ele>
        <time>2023-07-12T07:16:20Z</time>
      </trkpt>
      <trkpt lat="49.77708" lon="2.27215">
        <ele>128.3</ele>
        <time>2023-07-12T07:16:21Z</time>
      </trkpt>
      <trkpt lat="49.7771" lon="2.27217">
        <ele>128.3</ele>
        <time>2023-07-12T07:16:22Z</time>
      </trkpt>
      <trkpt lat="49.77711" lon="2.27217">
        <ele>128.3</ele>
        <time>2023-07-12T07:16:23Z</time>
      </trkpt>
      <trkpt lat="49.77712" lon="2.27218">
        <ele>128.3</ele>
        <time>2023-07-12T07:16:24Z</time>
      </trkpt>
      <trkpt lat="49.77713" lon="2.27219">
        <ele>128.3</ele>
        <time>2023-07-12T07:16:25Z</time>
      </trkpt>
      <trkpt lat="49.77714" lon="2.2722">
        <ele>128.3</ele>
        <time>2023-07-12T07:16:26Z</time>
      </trkpt>
      <trkpt lat="49.77715" lon="2.27221">
        <ele>128.3</ele>
        <time>2023-07-12T07:16:28Z</time>
      </trkpt>
      <trkpt lat="49.77717" lon="2.27222">
        <ele>128.3</ele>
        <time>2023-07-12T07:16:29Z</time>
      </trkpt>
      <trkpt lat="49.77718" lon="2.27223">
        <ele>128.3</ele>
        <time>2023-07-12T07:16:30Z</time>
      </trkpt>
      <trkpt lat="49.77718" lon="2.27223">
        <ele>128.3</ele>
        <time>2023-07-12T07:16:31Z</time>
      </trkpt>
      <trkpt lat="49.77719" lon="2.27224">
        <ele>128.3</ele>
        <time>2023-07-12T07:16:32Z</time>
      </trkpt>
      <trkpt lat="49.7772" lon="2.27225">
        <ele>128.3</ele>
        <time>2023-07-12T07:16:33Z</time>
      </trkpt>
      <trkpt lat="49.77721" lon="2.27226">
        <ele>128.3</ele>
        <time>2023-07-12T07:16:34Z</time>
      </trkpt>
      <trkpt lat="49.77722" lon="2.27226">
        <ele>128.3</ele>
        <time>2023-07-12T07:16:36Z</time>
      </trkpt>
      <trkpt lat="49.77723" lon="2.27227">
        <ele>128.3</ele>
        <time>2023-07-12T07:16:37Z</time>
      </trkpt>
      <trkpt lat="49.77724" lon="2.27228">
        <ele>128.3</ele>
        <time>2023-07-12T07:16:38Z</time>
      </trkpt>
      <trkpt lat="49.77726" lon="2.2723">
        <ele>128.3</ele>
        <time>2023-07-12T07:16:39Z</time>
      </trkpt>
      <trkpt lat="49.77726" lon="2.27231">
        <ele>128.3</ele>
        <time>2023-07-12T07:16:40Z</time>
      </trkpt>
      <trkpt lat="49.77727" lon="2.27231">
        <ele>128.3</ele>
        <time>2023-07-12T07:16:41Z</time>
      </trkpt>
      <trkpt lat="49.77728" lon="2.27233">
        <ele>128.3</ele>
        <time>2023-07-12T07:16:42Z</time>
      </trkpt>
      <trkpt lat="49.77729" lon="2.27234">
        <ele>128.3</ele>
        <time>2023-07-12T07:16:43Z</time>
      </trkpt>
      <trkpt lat="49.7773" lon="2.27235">
        <ele>128.3</ele>
        <time>2023-07-12T07:16:44Z</time>
      </trkpt>
      <trkpt lat="49.77731" lon="2.27236">
        <ele>128.3</ele>
        <time>2023-07-12T07:16:46Z</time>
      </trkpt>
      <trkpt lat="49.77732" lon="2.27237">
        <ele>128.3</ele>
        <time>2023-07-12T07:16:47Z</time>
      </trkpt>
      <trkpt lat="49.77733" lon="2.27238">
        <ele>128.3</ele>
        <time>2023-07-12T07:16:48Z</time>
      </trkpt>
      <trkpt lat="49.77735" lon="2.2724">
        <ele>128.4</ele>
        <time>2023-07-12T07:16:49Z</time>
      </trkpt>
      <trkpt lat="49.77736" lon="2.2724">
        <ele>128.4</ele>
        <time>2023-07-12T07:16:50Z</time>
      </trkpt>
      <trkpt lat="49.77736" lon="2.27241">
        <ele>128.4</ele>
        <time>2023-07-12T07:16:51Z</time>
      </trkpt>
      <trkpt lat="49.77738" lon="2.27242">
        <ele>128.4</ele>
        <time>2023-07-12T07:16:52Z</time>
      </trkpt>
      <trkpt lat="49.77739" lon="2.27243">
        <ele>128.4</ele>
        <time>2023-07-12T07:16:53Z</time>
      </trkpt>
      <trkpt lat="49.7774" lon="2.27243">
        <ele>128.4</ele>
        <time>2023-07-12T07:16:54Z</time>
      </trkpt>
      <trkpt lat="49.77742" lon="2.27244">
        <ele>128.4</ele>
        <time>2023-07-12T07:16:55Z</time>
      </trkpt>
      <trkpt lat="49.77743" lon="2.27245">
        <ele>128.4</ele>
        <time>2023-07-12T07:16:57Z</time>
      </trkpt>
      <trkpt lat="49.77743" lon="2.27245">
        <ele>128.4</ele>
        <time>2023-07-12T07:16:58Z</time>
      </trkpt>
      <trkpt lat="49.77745" lon="2.27246">
        <ele>128.4</ele>
        <time>2023-07-12T07:16:59Z</time>
      </trkpt>
      <trkpt lat="49.77746" lon="2.27247">
        <ele>128.4</ele>
        <time>2023-07-12T07:17:00Z</time>
      </trkpt>
      <trkpt lat="49.77747" lon="2.27248">
        <ele>128.4</ele>
        <time>2023-07-12T07:17:01Z</time>
      </trkpt>
      <trkpt lat="49.77749" lon="2.27249">
        <ele>128.4</ele>
        <time>2023-07-12T07:17:02Z</time>
      </trkpt>
      <trkpt lat="49.7775" lon="2.27249">
        <ele>128.4</ele>
        <time>2023-07-12T07:17:03Z</time>
      </trkpt>
      <trkpt lat="49.77751" lon="2.2725">
        <ele>128.4</ele>
        <time>2023-07-12T07:17:04Z</time>
      </trkpt>
      <trkpt lat="49.77752" lon="2.27251">
        <ele>128.4</ele>
        <time>2023-07-12T07:17:05Z</time>
      </trkpt>
      <trkpt lat="49.77753" lon="2.27252">
        <ele>128.4</ele>
        <time>2023-07-12T07:17:06Z</time>
      </trkpt>
      <trkpt lat="49.77754" lon="2.27253">
        <ele>128.4</ele>
        <time>2023-07-12T07:17:08Z</time>
      </trkpt>
      <trkpt lat="49.77755" lon="2.27253">
        <ele>128.4</ele>
        <time>2023-07-12T07:17:09Z</time>
      </trkpt>
      <trkpt lat="49.77756" lon="2.27254">
        <ele>128.4</ele>
        <time>2023-07-12T07:17:10Z</time>
      </trkpt>
      <trkpt lat="49.77757" lon="2.27255">
        <ele>128.4</ele>
        <time>2023-07-12T07:17:11Z</time>
      </trkpt>
      <trkpt lat="49.77759" lon="2.27256">
        <ele>128.4</ele>
        <time>2023-07-12T07:17:12Z</time>
      </trkpt>
      <trkpt lat="49.7776" lon="2.27256">
        <ele>128.4</ele>
        <time>2023-07-12T07:17:13Z</time>
      </trkpt>
      <trkpt lat="49.77761" lon="2.27257">
        <ele>128.4</ele>
        <time>2023-07-12T07:17:14Z</time>
      </trkpt>
      <trkpt lat="49.77763" lon="2.27258">
        <ele>128.3</ele>
        <time>2023-07-12T07:17:15Z</time>
      </trkpt>
      <trkpt lat="49.77764" lon="2.27258">
        <ele>128.3</ele>
        <time>2023-07-12T07:17:17Z</time>
      </trkpt>
      <trkpt lat="49.77764" lon="2.27258">
        <ele>128.3</ele>
        <time>2023-07-12T07:17:18Z</time>
      </trkpt>
      <trkpt lat="49.77766" lon="2.27259">
        <ele>128.3</ele>
        <time>2023-07-12T07:17:19Z</time>
      </trkpt>
      <trkpt lat="49.77767" lon="2.2726">
        <ele>128.3</ele>
        <time>2023-07-12T07:17:20Z</time>
      </trkpt>
      <trkpt lat="49.77768" lon="2.2726">
        <ele>128.3</ele>
        <time>2023-07-12T07:17:21Z</time>
      </trkpt>
      <trkpt lat="49.7777" lon="2.27262">
        <ele>128.3</ele>
        <time>2023-07-12T07:17:22Z</time>
      </trkpt>
      <trkpt lat="49.77771" lon="2.27262">
        <ele>128.3</ele>
        <time>2023-07-12T07:17:23Z</time>
      </trkpt>
      <trkpt lat="49.77771" lon="2.27263">
        <ele>128.3</ele>
        <time>2023-07-12T07:17:24Z</time>
      </trkpt>
      <trkpt lat="49.77774" lon="2.27264">
        <ele>128.3</ele>
        <time>2023-07-12T07:17:25Z</time>
      </trkpt>
      <trkpt lat="49.77775" lon="2.27264">
        <ele>128.3</ele>
        <time>2023-07-12T07:17:27Z</time>
      </trkpt>
      <trkpt lat="49.77776" lon="2.27265">
        <ele>128.3</ele>
        <time>2023-07-12T07:17:28Z</time>
      </trkpt>
      <trkpt lat="49.77777" lon="2.27266">
        <ele>128.3</ele>
        <time>2023-07-12T07:17:29Z</time>
      </trkpt>
      <trkpt lat="49.77778" lon="2.27266">
        <ele>128.3</ele>
        <time>2023-07-12T07:17:30Z</time>
      </trkpt>
      <trkpt lat="49.7778" lon="2.27267">
        <ele>128.4</ele>
        <time>2023-07-12T07:17:31Z</time>
      </trkpt>
      <trkpt lat="49.77781" lon="2.27268">
        <ele>128.4</ele>
        <time>2023-07-12T07:17:32Z</time>
      </trkpt>
      <trkpt lat="49.77782" lon="2.27268">
        <ele>128.4</ele>
        <time>2023-07-12T07:17:33Z</time>
      </trkpt>
      <trkpt lat="49.77783" lon="2.27269">
        <ele>128.4</ele>
        <time>2023-07-12T07:17:34Z</time>
      </trkpt>
      <trkpt lat="49.77784" lon="2.27269">
        <ele>128.4</ele>
        <time>2023-07-12T07:17:35Z</time>
      </trkpt>
      <trkpt lat="49.77787" lon="2.27271">
        <ele>128.4</ele>
        <time>2023-07-12T07:17:36Z</time>
      </trkpt>
      <trkpt lat="49.77788" lon="2.27271">
        <ele>128.4</ele>
        <time>2023-07-12T07:17:38Z</time>
      </trkpt>
      <trkpt lat="49.77789" lon="2.27272">
        <ele>128.4</ele>
        <time>2023-07-12T07:17:39Z</time>
      </trkpt>
      <trkpt lat="49.7779" lon="2.27272">
        <ele>128.4</ele>
        <time>2023-07-12T07:17:40Z</time>
      </trkpt>
      <trkpt lat="49.77791" lon="2.27273">
        <ele>128.4</ele>
        <time>2023-07-12T07:17:41Z</time>
      </trkpt>
      <trkpt lat="49.77792" lon="2.27274">
        <ele>128.4</ele>
        <time>2023-07-12T07:17:42Z</time>
      </trkpt>
      <trkpt lat="49.77794" lon="2.27274">
        <ele>128.4</ele>
        <time>2023-07-12T07:17:43Z</time>
      </trkpt>
      <trkpt lat="49.77796" lon="2.27276">
        <ele>128.4</ele>
        <time>2023-07-12T07:17:44Z</time>
      </trkpt>
      <trkpt lat="49.77796" lon="2.27276">
        <ele>128.4</ele>
        <time>2023-07-12T07:17:45Z</time>
      </trkpt>
      <trkpt lat="49.77797" lon="2.27277">
        <ele>128.4</ele>
        <time>2023-07-12T07:17:46Z</time>
      </trkpt>
      <trkpt lat="49.77799" lon="2.27278">
        <ele>128.5</ele>
        <time>2023-07-12T07:17:47Z</time>
      </trkpt>
      <trkpt lat="49.778" lon="2.27279">
        <ele>128.5</ele>
        <time>2023-07-12T07:17:49Z</time>
      </trkpt>
      <trkpt lat="49.778" lon="2.27279">
        <ele>128.5</ele>
        <time>2023-07-12T07:17:50Z</time>
      </trkpt>
      <trkpt lat="49.77802" lon="2.2728">
        <ele>128.5</ele>
        <time>2023-07-12T07:17:51Z</time>
      </trkpt>
      <trkpt lat="49.77803" lon="2.27281">
        <ele>128.5</ele>
        <time>2023-07-12T07:17:52Z</time>
      </trkpt>
      <trkpt lat="49.77804" lon="2.27281">
        <ele>128.5</ele>
        <time>2023-07-12T07:17:53Z</time>
      </trkpt>
      <trkpt lat="49.77805" lon="2.27282">
        <ele>128.5</ele>
        <time>2023-07-12T07:17:54Z</time>
      </trkpt>
      <trkpt lat="49.77806" lon="2.27282">
        <ele>128.5</ele>
        <time>2023-07-12T07:17:55Z</time>
      </trkpt>
      <trkpt lat="49.77807" lon="2.27283">
        <ele>128.5</ele>
        <time>2023-07-12T07:17:56Z</time>
      </trkpt>
      <trkpt lat="49.77807" lon="2.27284">
        <ele>128.5</ele>
        <time>2023-07-12T07:17:57Z</time>
      </trkpt>
      <trkpt lat="49.77808" lon="2.27284">
        <ele>128.5</ele>
        <time>2023-07-12T07:17:59Z</time>
      </trkpt>
      <trkpt lat="49.77809" lon="2.27285">
        <ele>128.5</ele>
        <time>2023-07-12T07:18:00Z</time>
      </trkpt>
      <trkpt lat="49.7781" lon="2.27286">
        <ele>128.5</ele>
        <time>2023-07-12T07:18:01Z</time>
      </trkpt>
      <trkpt lat="49.77811" lon="2.27287">
        <ele>128.5</ele>
        <time>2023-07-12T07:18:02Z</time>
      </trkpt>
      <trkpt lat="49.77812" lon="2.27288">
        <ele>128.5</ele>
        <time>2023-07-12T07:18:03Z</time>
      </trkpt>
      <trkpt lat="49.77813" lon="2.27288">
        <ele>128.5</ele>
        <time>2023-07-12T07:18:04Z</time>
      </trkpt>
      <trkpt lat="49.77814" lon="2.27289">
        <ele>128.5</ele>
        <time>2023-07-12T07:18:05Z</time>
      </trkpt>
      <trkpt lat="49.77815" lon="2.2729">
        <ele>128.5</ele>
        <time>2023-07-12T07:18:06Z</time>
      </trkpt>
      <trkpt lat="49.77816" lon="2.27291">
        <ele>128.6</ele>
        <time>2023-07-12T07:18:08Z</time>
      </trkpt>
      <trkpt lat="49.77817" lon="2.27291">
        <ele>128.6</ele>
        <time>2023-07-12T07:18:09Z</time>
      </trkpt>
      <trkpt lat="49.77818" lon="2.27292">
        <ele>128.6</ele>
        <time>2023-07-12T07:18:11Z</time>
      </trkpt>
      <trkpt lat="49.77819" lon="2.27292">
        <ele>128.6</ele>
        <time>2023-07-12T07:18:12Z</time>
      </trkpt>
      <trkpt lat="49.77819" lon="2.27293">
        <ele>128.6</ele>
        <time>2023-07-12T07:18:14Z</time>
      </trkpt>
      <trkpt lat="49.7782" lon="2.27293">
        <ele>128.6</ele>
        <time>2023-07-12T07:18:15Z</time>
      </trkpt>
      <trkpt lat="49.7782" lon="2.27293">
        <ele>128.6</ele>
        <time>2023-07-12T07:18:16Z</time>
      </trkpt>
      <trkpt lat="49.77821" lon="2.27293">
        <ele>128.6</ele>
        <time>2023-07-12T07:18:17Z</time>
      </trkpt>
      <trkpt lat="49.77822" lon="2.27294">
        <ele>128.6</ele>
        <time>2023-07-12T07:18:18Z</time>
      </trkpt>
      <trkpt lat="49.77822" lon="2.27294">
        <ele>128.6</ele>
        <time>2023-07-12T07:18:19Z</time>
      </trkpt>
      <trkpt lat="49.77822" lon="2.27295">
        <ele>128.6</ele>
        <time>2023-07-12T07:18:20Z</time>
      </trkpt>
      <trkpt lat="49.77823" lon="2.27295">
        <ele>128.6</ele>
        <time>2023-07-12T07:18:21Z</time>
      </trkpt>
      <trkpt lat="49.77823" lon="2.27296">
        <ele>128.6</ele>
        <time>2023-07-12T07:18:23Z</time>
      </trkpt>
      <trkpt lat="49.77823" lon="2.27296">
        <ele>128.6</ele>
        <time>2023-07-12T07:18:24Z</time>
      </trkpt>
      <trkpt lat="49.77823" lon="2.27297">
        <ele>128.6</ele>
        <time>2023-07-12T07:18:25Z</time>
      </trkpt>
      <trkpt lat="49.77824" lon="2.27298">
        <ele>128.6</ele>
        <time>2023-07-12T07:18:26Z</time>
      </trkpt>
      <trkpt lat="49.77825" lon="2.27299">
        <ele>128.6</ele>
        <time>2023-07-12T07:18:27Z</time>
      </trkpt>
      <trkpt lat="49.77825" lon="2.27299">
        <ele>128.6</ele>
        <time>2023-07-12T07:18:28Z</time>
      </trkpt>
      <trkpt lat="49.77826" lon="2.273">
        <ele>128.6</ele>
        <time>2023-07-12T07:18:29Z</time>
      </trkpt>
      <trkpt lat="49.77827" lon="2.273">
        <ele>128.7</ele>
        <time>2023-07-12T07:18:31Z</time>
      </trkpt>
      <trkpt lat="49.77827" lon="2.27301">
        <ele>128.7</ele>
        <time>2023-07-12T07:18:32Z</time>
      </trkpt>
      <trkpt lat="49.77829" lon="2.27302">
        <ele>128.7</ele>
        <time>2023-07-12T07:18:33Z</time>
      </trkpt>
      <trkpt lat="49.77831" lon="2.27303">
        <ele>128.7</ele>
        <time>2023-07-12T07:18:34Z</time>
      </trkpt>
      <trkpt lat="49.77831" lon="2.27303">
        <ele>128.7</ele>
        <time>2023-07-12T07:18:35Z</time>
      </trkpt>
      <trkpt lat="49.77832" lon="2.27304">
        <ele>128.7</ele>
        <time>2023-07-12T07:18:36Z</time>
      </trkpt>
      <trkpt lat="49.77833" lon="2.27305">
        <ele>128.7</ele>
        <time>2023-07-12T07:18:37Z</time>
      </trkpt>
      <trkpt lat="49.77835" lon="2.27306">
        <ele>128.7</ele>
        <time>2023-07-12T07:18:38Z</time>
      </trkpt>
      <trkpt lat="49.77838" lon="2.27307">
        <ele>128.8</ele>
        <time>2023-07-12T07:18:39Z</time>
      </trkpt>
      <trkpt lat="49.77839" lon="2.27307">
        <ele>128.8</ele>
        <time>2023-07-12T07:18:40Z</time>
      </trkpt>
      <trkpt lat="49.77841" lon="2.27309">
        <ele>128.8</ele>
        <time>2023-07-12T07:18:41Z</time>
      </trkpt>
      <trkpt lat="49.77842" lon="2.27309">
        <ele>128.8</ele>
        <time>2023-07-12T07:18:42Z</time>
      </trkpt>
      <trkpt lat="49.77844" lon="2.2731">
        <ele>128.8</ele>
        <time>2023-07-12T07:18:44Z</time>
      </trkpt>
      <trkpt lat="49.77845" lon="2.27311">
        <ele>128.8</ele>
        <time>2023-07-12T07:18:45Z</time>
      </trkpt>
      <trkpt lat="49.77847" lon="2.27312">
        <ele>128.8</ele>
        <time>2023-07-12T07:18:46Z</time>
      </trkpt>
      <trkpt lat="49.77849" lon="2.27313">
        <ele>128.8</ele>
        <time>2023-07-12T07:18:47Z</time>
      </trkpt>
      <trkpt lat="49.7785" lon="2.27313">
        <ele>128.8</ele>
        <time>2023-07-12T07:18:48Z</time>
      </trkpt>
      <trkpt lat="49.77852" lon="2.27314">
        <ele>128.8</ele>
        <time>2023-07-12T07:18:49Z</time>
      </trkpt>
      <trkpt lat="49.77854" lon="2.27315">
        <ele>128.8</ele>
        <time>2023-07-12T07:18:50Z</time>
      </trkpt>
      <trkpt lat="49.77855" lon="2.27316">
        <ele>128.8</ele>
        <time>2023-07-12T07:18:52Z</time>
      </trkpt>
      <trkpt lat="49.77857" lon="2.27317">
        <ele>128.8</ele>
        <time>2023-07-12T07:18:53Z</time>
      </trkpt>
      <trkpt lat="49.77858" lon="2.27318">
        <ele>128.8</ele>
        <time>2023-07-12T07:18:54Z</time>
      </trkpt>
      <trkpt lat="49.7786" lon="2.27319">
        <ele>128.8</ele>
        <time>2023-07-12T07:18:55Z</time>
      </trkpt>
      <trkpt lat="49.77862" lon="2.2732">
        <ele>128.8</ele>
        <time>2023-07-12T07:18:56Z</time>
      </trkpt>
      <trkpt lat="49.77863" lon="2.27321">
        <ele>128.8</ele>
        <time>2023-07-12T07:18:57Z</time>
      </trkpt>
      <trkpt lat="49.77864" lon="2.27322">
        <ele>128.8</ele>
        <time>2023-07-12T07:18:58Z</time>
      </trkpt>
      <trkpt lat="49.77865" lon="2.27323">
        <ele>128.8</ele>
        <time>2023-07-12T07:18:59Z</time>
      </trkpt>
      <trkpt lat="49.77866" lon="2.27324">
        <ele>128.7</ele>
        <time>2023-07-12T07:19:00Z</time>
      </trkpt>
      <trkpt lat="49.77867" lon="2.27325">
        <ele>128.7</ele>
        <time>2023-07-12T07:19:01Z</time>
      </trkpt>
      <trkpt lat="49.77868" lon="2.27326">
        <ele>128.7</ele>
        <time>2023-07-12T07:19:02Z</time>
      </trkpt>
      <trkpt lat="49.77869" lon="2.27327">
        <ele>128.7</ele>
        <time>2023-07-12T07:19:03Z</time>
      </trkpt>
      <trkpt lat="49.7787" lon="2.27329">
        <ele>128.7</ele>
        <time>2023-07-12T07:19:05Z</time>
      </trkpt>
      <trkpt lat="49.77872" lon="2.2733">
        <ele>128.7</ele>
        <time>2023-07-12T07:19:06Z</time>
      </trkpt>
      <trkpt lat="49.77873" lon="2.27331">
        <ele>128.7</ele>
        <time>2023-07-12T07:19:07Z</time>
      </trkpt>
      <trkpt lat="49.77874" lon="2.27332">
        <ele>128.7</ele>
        <time>2023-07-12T07:19:08Z</time>
      </trkpt>
      <trkpt lat="49.77875" lon="2.27333">
        <ele>128.6</ele>
        <time>2023-07-12T07:19:09Z</time>
      </trkpt>
      <trkpt lat="49.77876" lon="2.27334">
        <ele>128.6</ele>
        <time>2023-07-12T07:19:10Z</time>
      </trkpt>
      <trkpt lat="49.77877" lon="2.27335">
        <ele>128.6</ele>
        <time>2023-07-12T07:19:11Z</time>
      </trkpt>
      <trkpt lat="49.77879" lon="2.27336">
        <ele>128.6</ele>
        <time>2023-07-12T07:19:12Z</time>
      </trkpt>
      <trkpt lat="49.77879" lon="2.27337">
        <ele>128.6</ele>
        <time>2023-07-12T07:19:13Z</time>
      </trkpt>
      <trkpt lat="49.7788" lon="2.27337">
        <ele>128.6</ele>
        <time>2023-07-12T07:19:14Z</time>
      </trkpt>
      <trkpt lat="49.77882" lon="2.27338">
        <ele>128.6</ele>
        <time>2023-07-12T07:19:15Z</time>
      </trkpt>
      <trkpt lat="49.77883" lon="2.27339">
        <ele>128.6</ele>
        <time>2023-07-12T07:19:17Z</time>
      </trkpt>
      <trkpt lat="49.77884" lon="2.27339">
        <ele>128.6</ele>
        <time>2023-07-12T07:19:18Z</time>
      </trkpt>
      <trkpt lat="49.77886" lon="2.27339">
        <ele>128.6</ele>
        <time>2023-07-12T07:19:19Z</time>
      </trkpt>
      <trkpt lat="49.77887" lon="2.2734">
        <ele>128.6</ele>
        <time>2023-07-12T07:19:20Z</time>
      </trkpt>
      <trkpt lat="49.77889" lon="2.2734">
        <ele>128.5</ele>
        <time>2023-07-12T07:19:21Z</time>
      </trkpt>
      <trkpt lat="49.7789" lon="2.27341">
        <ele>128.5</ele>
        <time>2023-07-12T07:19:22Z</time>
      </trkpt>
      <trkpt lat="49.77891" lon="2.27341">
        <ele>128.5</ele>
        <time>2023-07-12T07:19:23Z</time>
      </trkpt>
      <trkpt lat="49.77892" lon="2.27342">
        <ele>128.5</ele>
        <time>2023-07-12T07:19:24Z</time>
      </trkpt>
      <trkpt lat="49.77895" lon="2.27344">
        <ele>128.5</ele>
        <time>2023-07-12T07:19:26Z</time>
      </trkpt>
      <trkpt lat="49.77896" lon="2.27345">
        <ele>128.5</ele>
        <time>2023-07-12T07:19:27Z</time>
      </trkpt>
      <trkpt lat="49.77897" lon="2.27347">
        <ele>128.5</ele>
        <time>2023-07-12T07:19:28Z</time>
      </trkpt>
      <trkpt lat="49.77898" lon="2.27347">
        <ele>128.5</ele>
        <time>2023-07-12T07:19:30Z</time>
      </trkpt>
      <trkpt lat="49.77899" lon="2.27348">
        <ele>128.5</ele>
        <time>2023-07-12T07:19:31Z</time>
      </trkpt>
      <trkpt lat="49.779" lon="2.27349">
        <ele>128.5</ele>
        <time>2023-07-12T07:19:32Z</time>
      </trkpt>
      <trkpt lat="49.77901" lon="2.2735">
        <ele>128.5</ele>
        <time>2023-07-12T07:19:33Z</time>
      </trkpt>
      <trkpt lat="49.77903" lon="2.27352">
        <ele>128.5</ele>
        <time>2023-07-12T07:19:34Z</time>
      </trkpt>
      <trkpt lat="49.77904" lon="2.27353">
        <ele>128.5</ele>
        <time>2023-07-12T07:19:35Z</time>
      </trkpt>
      <trkpt lat="49.77905" lon="2.27354">
        <ele>128.5</ele>
        <time>2023-07-12T07:19:37Z</time>
      </trkpt>
      <trkpt lat="49.77906" lon="2.27355">
        <ele>128.5</ele>
        <time>2023-07-12T07:19:38Z</time>
      </trkpt>
      <trkpt lat="49.77907" lon="2.27355">
        <ele>128.5</ele>
        <time>2023-07-12T07:19:39Z</time>
      </trkpt>
      <trkpt lat="49.77908" lon="2.27357">
        <ele>128.5</ele>
        <time>2023-07-12T07:19:40Z</time>
      </trkpt>
      <trkpt lat="49.77909" lon="2.27358">
        <ele>128.5</ele>
        <time>2023-07-12T07:19:41Z</time>
      </trkpt>
      <trkpt lat="49.77911" lon="2.2736">
        <ele>128.4</ele>
        <time>2023-07-12T07:19:42Z</time>
      </trkpt>
      <trkpt lat="49.77911" lon="2.27361">
        <ele>128.4</ele>
        <time>2023-07-12T07:19:44Z</time>
      </trkpt>
      <trkpt lat="49.77912" lon="2.27361">
        <ele>128.4</ele>
        <time>2023-07-12T07:19:45Z</time>
      </trkpt>
      <trkpt lat="49.77913" lon="2.27362">
        <ele>128.4</ele>
        <time>2023-07-12T07:19:46Z</time>
      </trkpt>
      <trkpt lat="49.77915" lon="2.27364">
        <ele>128.4</ele>
        <time>2023-07-12T07:19:47Z</time>
      </trkpt>
      <trkpt lat="49.77916" lon="2.27364">
        <ele>128.4</ele>
        <time>2023-07-12T07:19:48Z</time>
      </trkpt>
      <trkpt lat="49.77917" lon="2.27365">
        <ele>128.4</ele>
        <time>2023-07-12T07:19:49Z</time>
      </trkpt>
      <trkpt lat="49.77918" lon="2.27366">
        <ele>128.4</ele>
        <time>2023-07-12T07:19:50Z</time>
      </trkpt>
      <trkpt lat="49.77919" lon="2.27367">
        <ele>128.4</ele>
        <time>2023-07-12T07:19:51Z</time>
      </trkpt>
      <trkpt lat="49.7792" lon="2.27368">
        <ele>128.4</ele>
        <time>2023-07-12T07:19:52Z</time>
      </trkpt>
      <trkpt lat="49.77922" lon="2.27369">
        <ele>128.4</ele>
        <time>2023-07-12T07:19:54Z</time>
      </trkpt>
      <trkpt lat="49.77923" lon="2.27369">
        <ele>128.4</ele>
        <time>2023-07-12T07:19:55Z</time>
      </trkpt>
      <trkpt lat="49.77924" lon="2.2737">
        <ele>128.4</ele>
        <time>2023-07-12T07:19:56Z</time>
      </trkpt>
      <trkpt lat="49.77925" lon="2.27371">
        <ele>128.4</ele>
        <time>2023-07-12T07:19:57Z</time>
      </trkpt>
      <trkpt lat="49.77926" lon="2.27372">
        <ele>128.4</ele>
        <time>2023-07-12T07:19:58Z</time>
      </trkpt>
      <trkpt lat="49.77927" lon="2.27373">
        <ele>128.4</ele>
        <time>2023-07-12T07:19:59Z</time>
      </trkpt>
      <trkpt lat="49.77928" lon="2.27375">
        <ele>128.3</ele>
        <time>2023-07-12T07:20:00Z</time>
      </trkpt>
      <trkpt lat="49.7793" lon="2.27376">
        <ele>128.3</ele>
        <time>2023-07-12T07:20:01Z</time>
      </trkpt>
      <trkpt lat="49.77931" lon="2.27377">
        <ele>128.3</ele>
        <time>2023-07-12T07:20:02Z</time>
      </trkpt>
      <trkpt lat="49.77932" lon="2.27378">
        <ele>128.3</ele>
        <time>2023-07-12T07:20:03Z</time>
      </trkpt>
      <trkpt lat="49.77933" lon="2.27379">
        <ele>128.3</ele>
        <time>2023-07-12T07:20:04Z</time>
      </trkpt>
      <trkpt lat="49.77934" lon="2.2738">
        <ele>128.3</ele>
        <time>2023-07-12T07:20:05Z</time>
      </trkpt>
      <trkpt lat="49.77935" lon="2.27381">
        <ele>128.3</ele>
        <time>2023-07-12T07:20:07Z</time>
      </trkpt>
      <trkpt lat="49.77936" lon="2.27381">
        <ele>128.3</ele>
        <time>2023-07-12T07:20:08Z</time>
      </trkpt>
      <trkpt lat="49.77937" lon="2.27382">
        <ele>128.3</ele>
        <time>2023-07-12T07:20:09Z</time>
      </trkpt>
      <trkpt lat="49.77938" lon="2.27383">
        <ele>128.3</ele>
        <time>2023-07-12T07:20:10Z</time>
      </trkpt>
      <trkpt lat="49.77941" lon="2.27385">
        <ele>128.2</ele>
        <time>2023-07-12T07:20:11Z</time>
      </trkpt>
      <trkpt lat="49.77942" lon="2.27386">
        <ele>128.2</ele>
        <time>2023-07-12T07:20:13Z</time>
      </trkpt>
      <trkpt lat="49.77943" lon="2.27387">
        <ele>128.2</ele>
        <time>2023-07-12T07:20:14Z</time>
      </trkpt>
      <trkpt lat="49.77944" lon="2.27387">
        <ele>128.2</ele>
        <time>2023-07-12T07:20:15Z</time>
      </trkpt>
      <trkpt lat="49.77945" lon="2.27388">
        <ele>128.2</ele>
        <time>2023-07-12T07:20:17Z</time>
      </trkpt>
      <trkpt lat="49.77946" lon="2.27389">
        <ele>128.2</ele>
        <time>2023-07-12T07:20:18Z</time>
      </trkpt>
      <trkpt lat="49.77947" lon="2.2739">
        <ele>128.2</ele>
        <time>2023-07-12T07:20:19Z</time>
      </trkpt>
      <trkpt lat="49.77949" lon="2.27392">
        <ele>128.1</ele>
        <time>2023-07-12T07:20:20Z</time>
      </trkpt>
      <trkpt lat="49.7795" lon="2.27393">
        <ele>128.1</ele>
        <time>2023-07-12T07:20:21Z</time>
      </trkpt>
      <trkpt lat="49.7795" lon="2.27393">
        <ele>128.1</ele>
        <time>2023-07-12T07:20:22Z</time>
      </trkpt>
      <trkpt lat="49.77952" lon="2.27394">
        <ele>128.1</ele>
        <time>2023-07-12T07:20:24Z</time>
      </trkpt>
      <trkpt lat="49.77952" lon="2.27395">
        <ele>128.1</ele>
        <time>2023-07-12T07:20:25Z</time>
      </trkpt>
      <trkpt lat="49.77954" lon="2.27395">
        <ele>128.1</ele>
        <time>2023-07-12T07:20:26Z</time>
      </trkpt>
      <trkpt lat="49.77955" lon="2.27396">
        <ele>128.1</ele>
        <time>2023-07-12T07:20:28Z</time>
      </trkpt>
      <trkpt lat="49.77956" lon="2.27396">
        <ele>128.1</ele>
        <time>2023-07-12T07:20:29Z</time>
      </trkpt>
      <trkpt lat="49.77957" lon="2.27396">
        <ele>128.1</ele>
        <time>2023-07-12T07:20:30Z</time>
      </trkpt>
      <trkpt lat="49.77958" lon="2.27395">
        <ele>128</ele>
        <time>2023-07-12T07:20:32Z</time>
      </trkpt>
      <trkpt lat="49.77958" lon="2.27395">
        <ele>128</ele>
        <time>2023-07-12T07:20:34Z</time>
      </trkpt>
      <trkpt lat="49.77958" lon="2.27395">
        <ele>128</ele>
        <time>2023-07-12T07:20:35Z</time>
      </trkpt>
      <trkpt lat="49.77958" lon="2.27395">
        <ele>128</ele>
        <time>2023-07-12T07:20:37Z</time>
      </trkpt>
      <trkpt lat="49.77958" lon="2.27395">
        <ele>128</ele>
        <time>2023-07-12T07:20:38Z</time>
      </trkpt>
      <trkpt lat="49.77958" lon="2.27396">
        <ele>128</ele>
        <time>2023-07-12T07:20:40Z</time>
      </trkpt>
      <trkpt lat="49.77958" lon="2.27396">
        <ele>128</ele>
        <time>2023-07-12T07:20:41Z</time>
      </trkpt>
      <trkpt lat="49.77958" lon="2.27396">
        <ele>128</ele>
        <time>2023-07-12T07:20:42Z</time>
      </trkpt>
      <trkpt lat="49.77958" lon="2.27396">
        <ele>128</ele>
        <time>2023-07-12T07:20:44Z</time>
      </trkpt>
      <trkpt lat="49.77958" lon="2.27396">
        <ele>128</ele>
        <time>2023-07-12T07:20:45Z</time>
      </trkpt>
      <trkpt lat="49.77958" lon="2.27396">
        <ele>128</ele>
        <time>2023-07-12T07:20:47Z</time>
      </trkpt>
      <trkpt lat="49.77958" lon="2.27396">
        <ele>128</ele>
        <time>2023-07-12T07:20:48Z</time>
      </trkpt>
      <trkpt lat="49.77958" lon="2.27396">
        <ele>128</ele>
        <time>2023-07-12T07:20:50Z</time>
      </trkpt>
      <trkpt lat="49.77958" lon="2.27396">
        <ele>128</ele>
        <time>2023-07-12T07:20:51Z</time>
      </trkpt>
      <trkpt lat="49.77958" lon="2.27396">
        <ele>128</ele>
        <time>2023-07-12T07:20:52Z</time>
      </trkpt>
      <trkpt lat="49.77958" lon="2.27396">
        <ele>128</ele>
        <time>2023-07-12T07:20:53Z</time>
      </trkpt>
      <trkpt lat="49.77958" lon="2.27396">
        <ele>128</ele>
        <time>2023-07-12T07:20:54Z</time>
      </trkpt>
      <trkpt lat="49.77958" lon="2.27396">
        <ele>128</ele>
        <time>2023-07-12T07:20:55Z</time>
      </trkpt>
      <trkpt lat="49.77958" lon="2.27396">
        <ele>128</ele>
        <time>2023-07-12T07:20:56Z</time>
      </trkpt>
      <trkpt lat="49.77958" lon="2.27396">
        <ele>128</ele>
        <time>2023-07-12T07:20:57Z</time>
      </trkpt>
      <trkpt lat="49.77958" lon="2.27396">
        <ele>128</ele>
        <time>2023-07-12T07:20:58Z</time>
      </trkpt>
      <trkpt lat="49.77958" lon="2.27396">
        <ele>128</ele>
        <time>2023-07-12T07:20:59Z</time>
      </trkpt>
      <trkpt lat="49.77958" lon="2.27396">
        <ele>128</ele>
        <time>2023-07-12T07:21:00Z</time>
      </trkpt>
      <trkpt lat="49.77958" lon="2.27396">
        <ele>128</ele>
        <time>2023-07-12T07:21:01Z</time>
      </trkpt>
      <trkpt lat="49.77958" lon="2.27396">
        <ele>128</ele>
        <time>2023-07-12T07:21:02Z</time>
      </trkpt>
      <trkpt lat="49.77958" lon="2.27396">
        <ele>128</ele>
        <time>2023-07-12T07:21:03Z</time>
      </trkpt>
      <trkpt lat="49.77958" lon="2.27396">
        <ele>128</ele>
        <time>2023-07-12T07:21:04Z</time>
      </trkpt>
      <trkpt lat="49.77958" lon="2.27396">
        <ele>128</ele>
        <time>2023-07-12T07:21:05Z</time>
      </trkpt>
      <trkpt lat="49.77958" lon="2.27397">
        <ele>128</ele>
        <time>2023-07-12T07:21:06Z</time>
      </trkpt>
      <trkpt lat="49.77958" lon="2.27397">
        <ele>128</ele>
        <time>2023-07-12T07:21:07Z</time>
      </trkpt>
      <trkpt lat="49.77958" lon="2.27397">
        <ele>128</ele>
        <time>2023-07-12T07:21:08Z</time>
      </trkpt>
      <trkpt lat="49.77957" lon="2.27395">
        <ele>128</ele>
        <time>2023-07-12T07:21:09Z</time>
      </trkpt>
      <trkpt lat="49.77957" lon="2.27395">
        <ele>128</ele>
        <time>2023-07-12T07:21:10Z</time>
      </trkpt>
      <trkpt lat="49.77957" lon="2.27396">
        <ele>128</ele>
        <time>2023-07-12T07:21:11Z</time>
      </trkpt>
      <trkpt lat="49.77958" lon="2.27397">
        <ele>128</ele>
        <time>2023-07-12T07:21:12Z</time>
      </trkpt>
      <trkpt lat="49.77959" lon="2.27398">
        <ele>128</ele>
        <time>2023-07-12T07:21:13Z</time>
      </trkpt>
      <trkpt lat="49.7796" lon="2.27399">
        <ele>128</ele>
        <time>2023-07-12T07:21:14Z</time>
      </trkpt>
      <trkpt lat="49.7796" lon="2.274">
        <ele>128</ele>
        <time>2023-07-12T07:21:15Z</time>
      </trkpt>
      <trkpt lat="49.77962" lon="2.27402">
        <ele>127.9</ele>
        <time>2023-07-12T07:21:16Z</time>
      </trkpt>
      <trkpt lat="49.77963" lon="2.27403">
        <ele>127.9</ele>
        <time>2023-07-12T07:21:17Z</time>
      </trkpt>
      <trkpt lat="49.77964" lon="2.27404">
        <ele>127.9</ele>
        <time>2023-07-12T07:21:18Z</time>
      </trkpt>
      <trkpt lat="49.77965" lon="2.27406">
        <ele>127.9</ele>
        <time>2023-07-12T07:21:19Z</time>
      </trkpt>
      <trkpt lat="49.77967" lon="2.27407">
        <ele>127.9</ele>
        <time>2023-07-12T07:21:20Z</time>
      </trkpt>
      <trkpt lat="49.77968" lon="2.27409">
        <ele>127.9</ele>
        <time>2023-07-12T07:21:22Z</time>
      </trkpt>
      <trkpt lat="49.77969" lon="2.2741">
        <ele>127.9</ele>
        <time>2023-07-12T07:21:23Z</time>
      </trkpt>
      <trkpt lat="49.7797" lon="2.27411">
        <ele>127.9</ele>
        <time>2023-07-12T07:21:24Z</time>
      </trkpt>
      <trkpt lat="49.77971" lon="2.27413">
        <ele>127.9</ele>
        <time>2023-07-12T07:21:25Z</time>
      </trkpt>
      <trkpt lat="49.77972" lon="2.27414">
        <ele>127.9</ele>
        <time>2023-07-12T07:21:26Z</time>
      </trkpt>
      <trkpt lat="49.77973" lon="2.27414">
        <ele>127.9</ele>
        <time>2023-07-12T07:21:27Z</time>
      </trkpt>
      <trkpt lat="49.77974" lon="2.27415">
        <ele>127.9</ele>
        <time>2023-07-12T07:21:28Z</time>
      </trkpt>
      <trkpt lat="49.77975" lon="2.27417">
        <ele>127.9</ele>
        <time>2023-07-12T07:21:29Z</time>
      </trkpt>
      <trkpt lat="49.77976" lon="2.27418">
        <ele>127.9</ele>
        <time>2023-07-12T07:21:30Z</time>
      </trkpt>
      <trkpt lat="49.77977" lon="2.27419">
        <ele>127.9</ele>
        <time>2023-07-12T07:21:32Z</time>
      </trkpt>
      <trkpt lat="49.77979" lon="2.27421">
        <ele>127.8</ele>
        <time>2023-07-12T07:21:33Z</time>
      </trkpt>
      <trkpt lat="49.77979" lon="2.27422">
        <ele>127.8</ele>
        <time>2023-07-12T07:21:34Z</time>
      </trkpt>
      <trkpt lat="49.7798" lon="2.27422">
        <ele>127.8</ele>
        <time>2023-07-12T07:21:35Z</time>
      </trkpt>
      <trkpt lat="49.77981" lon="2.27424">
        <ele>127.8</ele>
        <time>2023-07-12T07:21:36Z</time>
      </trkpt>
      <trkpt lat="49.77982" lon="2.27425">
        <ele>127.8</ele>
        <time>2023-07-12T07:21:37Z</time>
      </trkpt>
      <trkpt lat="49.77983" lon="2.27426">
        <ele>127.8</ele>
        <time>2023-07-12T07:21:38Z</time>
      </trkpt>
      <trkpt lat="49.77984" lon="2.27427">
        <ele>127.8</ele>
        <time>2023-07-12T07:21:39Z</time>
      </trkpt>
      <trkpt lat="49.77985" lon="2.27428">
        <ele>127.8</ele>
        <time>2023-07-12T07:21:40Z</time>
      </trkpt>
      <trkpt lat="49.77987" lon="2.2743">
        <ele>127.8</ele>
        <time>2023-07-12T07:21:42Z</time>
      </trkpt>
      <trkpt lat="49.77987" lon="2.27431">
        <ele>127.8</ele>
        <time>2023-07-12T07:21:43Z</time>
      </trkpt>
      <trkpt lat="49.77988" lon="2.27431">
        <ele>127.8</ele>
        <time>2023-07-12T07:21:44Z</time>
      </trkpt>
      <trkpt lat="49.77989" lon="2.27434">
        <ele>127.7</ele>
        <time>2023-07-12T07:21:45Z</time>
      </trkpt>
      <trkpt lat="49.7799" lon="2.27435">
        <ele>127.7</ele>
        <time>2023-07-12T07:21:46Z</time>
      </trkpt>
      <trkpt lat="49.77991" lon="2.27436">
        <ele>127.7</ele>
        <time>2023-07-12T07:21:47Z</time>
      </trkpt>
      <trkpt lat="49.77991" lon="2.27437">
        <ele>127.7</ele>
        <time>2023-07-12T07:21:48Z</time>
      </trkpt>
      <trkpt lat="49.77992" lon="2.27439">
        <ele>127.7</ele>
        <time>2023-07-12T07:21:49Z</time>
      </trkpt>
      <trkpt lat="49.77993" lon="2.2744">
        <ele>127.7</ele>
        <time>2023-07-12T07:21:50Z</time>
      </trkpt>
      <trkpt lat="49.77994" lon="2.27442">
        <ele>127.6</ele>
        <time>2023-07-12T07:21:51Z</time>
      </trkpt>
      <trkpt lat="49.77995" lon="2.27443">
        <ele>127.6</ele>
        <time>2023-07-12T07:21:53Z</time>
      </trkpt>
      <trkpt lat="49.77995" lon="2.27444">
        <ele>127.6</ele>
        <time>2023-07-12T07:21:54Z</time>
      </trkpt>
      <trkpt lat="49.77996" lon="2.27445">
        <ele>127.6</ele>
        <time>2023-07-12T07:21:55Z</time>
      </trkpt>
      <trkpt lat="49.77997" lon="2.27447">
        <ele>127.6</ele>
        <time>2023-07-12T07:21:56Z</time>
      </trkpt>
      <trkpt lat="49.77998" lon="2.27448">
        <ele>127.6</ele>
        <time>2023-07-12T07:21:57Z</time>
      </trkpt>
      <trkpt lat="49.77999" lon="2.2745">
        <ele>127.5</ele>
        <time>2023-07-12T07:21:59Z</time>
      </trkpt>
      <trkpt lat="49.77999" lon="2.27451">
        <ele>127.5</ele>
        <time>2023-07-12T07:22:00Z</time>
      </trkpt>
      <trkpt lat="49.78001" lon="2.27454">
        <ele>127.5</ele>
        <time>2023-07-12T07:22:01Z</time>
      </trkpt>
      <trkpt lat="49.78001" lon="2.27455">
        <ele>127.5</ele>
        <time>2023-07-12T07:22:02Z</time>
      </trkpt>
      <trkpt lat="49.78002" lon="2.27456">
        <ele>127.5</ele>
        <time>2023-07-12T07:22:03Z</time>
      </trkpt>
      <trkpt lat="49.78002" lon="2.27457">
        <ele>127.4</ele>
        <time>2023-07-12T07:22:05Z</time>
      </trkpt>
      <trkpt lat="49.78003" lon="2.27459">
        <ele>127.4</ele>
        <time>2023-07-12T07:22:06Z</time>
      </trkpt>
      <trkpt lat="49.78004" lon="2.2746">
        <ele>127.4</ele>
        <time>2023-07-12T07:22:07Z</time>
      </trkpt>
      <trkpt lat="49.78005" lon="2.27461">
        <ele>127.4</ele>
        <time>2023-07-12T07:22:08Z</time>
      </trkpt>
      <trkpt lat="49.78006" lon="2.27463">
        <ele>127.4</ele>
        <time>2023-07-12T07:22:09Z</time>
      </trkpt>
      <trkpt lat="49.78007" lon="2.27464">
        <ele>127.3</ele>
        <time>2023-07-12T07:22:10Z</time>
      </trkpt>
      <trkpt lat="49.78008" lon="2.27465">
        <ele>127.3</ele>
        <time>2023-07-12T07:22:11Z</time>
      </trkpt>
      <trkpt lat="49.78009" lon="2.27466">
        <ele>127.3</ele>
        <time>2023-07-12T07:22:12Z</time>
      </trkpt>
      <trkpt lat="49.78011" lon="2.27467">
        <ele>127.3</ele>
        <time>2023-07-12T07:22:13Z</time>
      </trkpt>
      <trkpt lat="49.78012" lon="2.27468">
        <ele>127.2</ele>
        <time>2023-07-12T07:22:14Z</time>
      </trkpt>
      <trkpt lat="49.78013" lon="2.27469">
        <ele>127.2</ele>
        <time>2023-07-12T07:22:15Z</time>
      </trkpt>
      <trkpt lat="49.78014" lon="2.2747">
        <ele>127.2</ele>
        <time>2023-07-12T07:22:16Z</time>
      </trkpt>
      <trkpt lat="49.78015" lon="2.27471">
        <ele>127.2</ele>
        <time>2023-07-12T07:22:18Z</time>
      </trkpt>
      <trkpt lat="49.78017" lon="2.27472">
        <ele>127.2</ele>
        <time>2023-07-12T07:22:19Z</time>
      </trkpt>
      <trkpt lat="49.78018" lon="2.27472">
        <ele>127.1</ele>
        <time>2023-07-12T07:22:20Z</time>
      </trkpt>
      <trkpt lat="49.78019" lon="2.27473">
        <ele>127.1</ele>
        <time>2023-07-12T07:22:21Z</time>
      </trkpt>
      <trkpt lat="49.78021" lon="2.27474">
        <ele>127.1</ele>
        <time>2023-07-12T07:22:22Z</time>
      </trkpt>
      <trkpt lat="49.78022" lon="2.27475">
        <ele>127.1</ele>
        <time>2023-07-12T07:22:23Z</time>
      </trkpt>
      <trkpt lat="49.78023" lon="2.27476">
        <ele>127.1</ele>
        <time>2023-07-12T07:22:24Z</time>
      </trkpt>
      <trkpt lat="49.78025" lon="2.27477">
        <ele>127.1</ele>
        <time>2023-07-12T07:22:25Z</time>
      </trkpt>
      <trkpt lat="49.78025" lon="2.27477">
        <ele>127</ele>
        <time>2023-07-12T07:22:26Z</time>
      </trkpt>
      <trkpt lat="49.78026" lon="2.27479">
        <ele>127</ele>
        <time>2023-07-12T07:22:27Z</time>
      </trkpt>
      <trkpt lat="49.78027" lon="2.2748">
        <ele>127</ele>
        <time>2023-07-12T07:22:29Z</time>
      </trkpt>
      <trkpt lat="49.78028" lon="2.27481">
        <ele>127</ele>
        <time>2023-07-12T07:22:30Z</time>
      </trkpt>
      <trkpt lat="49.78028" lon="2.27483">
        <ele>127</ele>
        <time>2023-07-12T07:22:31Z</time>
      </trkpt>
      <trkpt lat="49.78029" lon="2.27486">
        <ele>127</ele>
        <time>2023-07-12T07:22:32Z</time>
      </trkpt>
      <trkpt lat="49.7803" lon="2.27487">
        <ele>127</ele>
        <time>2023-07-12T07:22:33Z</time>
      </trkpt>
      <trkpt lat="49.7803" lon="2.27488">
        <ele>127</ele>
        <time>2023-07-12T07:22:34Z</time>
      </trkpt>
      <trkpt lat="49.78031" lon="2.27489">
        <ele>126.9</ele>
        <time>2023-07-12T07:22:35Z</time>
      </trkpt>
      <trkpt lat="49.78031" lon="2.27491">
        <ele>126.9</ele>
        <time>2023-07-12T07:22:36Z</time>
      </trkpt>
      <trkpt lat="49.78032" lon="2.27492">
        <ele>126.9</ele>
        <time>2023-07-12T07:22:37Z</time>
      </trkpt>
      <trkpt lat="49.78033" lon="2.27494">
        <ele>126.9</ele>
        <time>2023-07-12T07:22:38Z</time>
      </trkpt>
      <trkpt lat="49.78034" lon="2.27495">
        <ele>126.9</ele>
        <time>2023-07-12T07:22:40Z</time>
      </trkpt>
      <trkpt lat="49.78035" lon="2.27497">
        <ele>126.9</ele>
        <time>2023-07-12T07:22:41Z</time>
      </trkpt>
      <trkpt lat="49.78036" lon="2.27498">
        <ele>126.8</ele>
        <time>2023-07-12T07:22:42Z</time>
      </trkpt>
      <trkpt lat="49.78037" lon="2.275">
        <ele>126.8</ele>
        <time>2023-07-12T07:22:43Z</time>
      </trkpt>
      <trkpt lat="49.78038" lon="2.27501">
        <ele>126.8</ele>
        <time>2023-07-12T07:22:44Z</time>
      </trkpt>
      <trkpt lat="49.7804" lon="2.27503">
        <ele>126.8</ele>
        <time>2023-07-12T07:22:45Z</time>
      </trkpt>
      <trkpt lat="49.78041" lon="2.27504">
        <ele>126.7</ele>
        <time>2023-07-12T07:22:46Z</time>
      </trkpt>
      <trkpt lat="49.78041" lon="2.27504">
        <ele>126.7</ele>
        <time>2023-07-12T07:22:47Z</time>
      </trkpt>
      <trkpt lat="49.78042" lon="2.27506">
        <ele>126.7</ele>
        <time>2023-07-12T07:22:48Z</time>
      </trkpt>
      <trkpt lat="49.78043" lon="2.27507">
        <ele>126.7</ele>
        <time>2023-07-12T07:22:49Z</time>
      </trkpt>
      <trkpt lat="49.78044" lon="2.27509">
        <ele>126.7</ele>
        <time>2023-07-12T07:22:51Z</time>
      </trkpt>
      <trkpt lat="49.78045" lon="2.27511">
        <ele>126.6</ele>
        <time>2023-07-12T07:22:52Z</time>
      </trkpt>
      <trkpt lat="49.78046" lon="2.27512">
        <ele>126.6</ele>
        <time>2023-07-12T07:22:53Z</time>
      </trkpt>
      <trkpt lat="49.78046" lon="2.27513">
        <ele>126.6</ele>
        <time>2023-07-12T07:22:54Z</time>
      </trkpt>
      <trkpt lat="49.78048" lon="2.27515">
        <ele>126.6</ele>
        <time>2023-07-12T07:22:55Z</time>
      </trkpt>
      <trkpt lat="49.78049" lon="2.27516">
        <ele>126.6</ele>
        <time>2023-07-12T07:22:56Z</time>
      </trkpt>
      <trkpt lat="49.78049" lon="2.27516">
        <ele>126.6</ele>
        <time>2023-07-12T07:22:57Z</time>
      </trkpt>
      <trkpt lat="49.78051" lon="2.27519">
        <ele>126.5</ele>
        <time>2023-07-12T07:22:59Z</time>
      </trkpt>
      <trkpt lat="49.78052" lon="2.27519">
        <ele>126.5</ele>
        <time>2023-07-12T07:23:00Z</time>
      </trkpt>
      <trkpt lat="49.78053" lon="2.2752">
        <ele>126.5</ele>
        <time>2023-07-12T07:23:01Z</time>
      </trkpt>
      <trkpt lat="49.78054" lon="2.27521">
        <ele>126.5</ele>
        <time>2023-07-12T07:23:02Z</time>
      </trkpt>
      <trkpt lat="49.78055" lon="2.27523">
        <ele>126.5</ele>
        <time>2023-07-12T07:23:03Z</time>
      </trkpt>
      <trkpt lat="49.78057" lon="2.27525">
        <ele>126.4</ele>
        <time>2023-07-12T07:23:04Z</time>
      </trkpt>
      <trkpt lat="49.78057" lon="2.27526">
        <ele>126.4</ele>
        <time>2023-07-12T07:23:05Z</time>
      </trkpt>
      <trkpt lat="49.78058" lon="2.27526">
        <ele>126.4</ele>
        <time>2023-07-12T07:23:06Z</time>
      </trkpt>
      <trkpt lat="49.7806" lon="2.27528">
        <ele>126.4</ele>
        <time>2023-07-12T07:23:08Z</time>
      </trkpt>
      <trkpt lat="49.78061" lon="2.27529">
        <ele>126.4</ele>
        <time>2023-07-12T07:23:09Z</time>
      </trkpt>
      <trkpt lat="49.78061" lon="2.27529">
        <ele>126.4</ele>
        <time>2023-07-12T07:23:10Z</time>
      </trkpt>
      <trkpt lat="49.78062" lon="2.2753">
        <ele>126.3</ele>
        <time>2023-07-12T07:23:11Z</time>
      </trkpt>
      <trkpt lat="49.78063" lon="2.27531">
        <ele>126.3</ele>
        <time>2023-07-12T07:23:12Z</time>
      </trkpt>
      <trkpt lat="49.78065" lon="2.27532">
        <ele>126.3</ele>
        <time>2023-07-12T07:23:14Z</time>
      </trkpt>
      <trkpt lat="49.78066" lon="2.27533">
        <ele>126.3</ele>
        <time>2023-07-12T07:23:15Z</time>
      </trkpt>
      <trkpt lat="49.78067" lon="2.27534">
        <ele>126.3</ele>
        <time>2023-07-12T07:23:16Z</time>
      </trkpt>
      <trkpt lat="49.78068" lon="2.27534">
        <ele>126.3</ele>
        <time>2023-07-12T07:23:17Z</time>
      </trkpt>
      <trkpt lat="49.78069" lon="2.27535">
        <ele>126.2</ele>
        <time>2023-07-12T07:23:18Z</time>
      </trkpt>
      <trkpt lat="49.7807" lon="2.27536">
        <ele>126.2</ele>
        <time>2023-07-12T07:23:19Z</time>
      </trkpt>
      <trkpt lat="49.78071" lon="2.27537">
        <ele>126.2</ele>
        <time>2023-07-12T07:23:20Z</time>
      </trkpt>
      <trkpt lat="49.78072" lon="2.27539">
        <ele>126.2</ele>
        <time>2023-07-12T07:23:21Z</time>
      </trkpt>
      <trkpt lat="49.78073" lon="2.2754">
        <ele>126.2</ele>
        <time>2023-07-12T07:23:22Z</time>
      </trkpt>
      <trkpt lat="49.78074" lon="2.27541">
        <ele>126.2</ele>
        <time>2023-07-12T07:23:24Z</time>
      </trkpt>
      <trkpt lat="49.78075" lon="2.27542">
        <ele>126.2</ele>
        <time>2023-07-12T07:23:25Z</time>
      </trkpt>
      <trkpt lat="49.78076" lon="2.27543">
        <ele>126.2</ele>
        <time>2023-07-12T07:23:26Z</time>
      </trkpt>
      <trkpt lat="49.78076" lon="2.27544">
        <ele>126.2</ele>
        <time>2023-07-12T07:23:27Z</time>
      </trkpt>
      <trkpt lat="49.78077" lon="2.27545">
        <ele>126.1</ele>
        <time>2023-07-12T07:23:28Z</time>
      </trkpt>
      <trkpt lat="49.78077" lon="2.27547">
        <ele>126.1</ele>
        <time>2023-07-12T07:23:30Z</time>
      </trkpt>
      <trkpt lat="49.78077" lon="2.27548">
        <ele>126.1</ele>
        <time>2023-07-12T07:23:31Z</time>
      </trkpt>
      <trkpt lat="49.78077" lon="2.2755">
        <ele>126.1</ele>
        <time>2023-07-12T07:23:32Z</time>
      </trkpt>
      <trkpt lat="49.78077" lon="2.27551">
        <ele>126.1</ele>
        <time>2023-07-12T07:23:33Z</time>
      </trkpt>
      <trkpt lat="49.78077" lon="2.27553">
        <ele>126.1</ele>
        <time>2023-07-12T07:23:34Z</time>
      </trkpt>
      <trkpt lat="49.78077" lon="2.27554">
        <ele>126.1</ele>
        <time>2023-07-12T07:23:36Z</time>
      </trkpt>
      <trkpt lat="49.78078" lon="2.27556">
        <ele>126.1</ele>
        <time>2023-07-12T07:23:37Z</time>
      </trkpt>
      <trkpt lat="49.78078" lon="2.27558">
        <ele>126.1</ele>
        <time>2023-07-12T07:23:38Z</time>
      </trkpt>
      <trkpt lat="49.78078" lon="2.27559">
        <ele>126.1</ele>
        <time>2023-07-12T07:23:39Z</time>
      </trkpt>
      <trkpt lat="49.78078" lon="2.27561">
        <ele>126.1</ele>
        <time>2023-07-12T07:23:40Z</time>
      </trkpt>
      <trkpt lat="49.78078" lon="2.27562">
        <ele>126.1</ele>
        <time>2023-07-12T07:23:41Z</time>
      </trkpt>
      <trkpt lat="49.78078" lon="2.27563">
        <ele>126.2</ele>
        <time>2023-07-12T07:23:42Z</time>
      </trkpt>
      <trkpt lat="49.78077" lon="2.27564">
        <ele>126.2</ele>
        <time>2023-07-12T07:23:44Z</time>
      </trkpt>
      <trkpt lat="49.78077" lon="2.27565">
        <ele>126.2</ele>
        <time>2023-07-12T07:23:45Z</time>
      </trkpt>
      <trkpt lat="49.78076" lon="2.27566">
        <ele>126.2</ele>
        <time>2023-07-12T07:23:46Z</time>
      </trkpt>
      <trkpt lat="49.78075" lon="2.27567">
        <ele>126.2</ele>
        <time>2023-07-12T07:23:47Z</time>
      </trkpt>
      <trkpt lat="49.78074" lon="2.27567">
        <ele>126.2</ele>
        <time>2023-07-12T07:23:48Z</time>
      </trkpt>
      <trkpt lat="49.78074" lon="2.27568">
        <ele>126.2</ele>
        <time>2023-07-12T07:23:49Z</time>
      </trkpt>
      <trkpt lat="49.78073" lon="2.27569">
        <ele>126.2</ele>
        <time>2023-07-12T07:23:51Z</time>
      </trkpt>
      <trkpt lat="49.78072" lon="2.27569">
        <ele>126.2</ele>
        <time>2023-07-12T07:23:52Z</time>
      </trkpt>
      <trkpt lat="49.78071" lon="2.2757">
        <ele>126.2</ele>
        <time>2023-07-12T07:23:53Z</time>
      </trkpt>
      <trkpt lat="49.78071" lon="2.27571">
        <ele>126.2</ele>
        <time>2023-07-12T07:23:54Z</time>
      </trkpt>
      <trkpt lat="49.7807" lon="2.27571">
        <ele>126.2</ele>
        <time>2023-07-12T07:23:55Z</time>
      </trkpt>
      <trkpt lat="49.78069" lon="2.27572">
        <ele>126.3</ele>
        <time>2023-07-12T07:23:56Z</time>
      </trkpt>
      <trkpt lat="49.78068" lon="2.27572">
        <ele>126.3</ele>
        <time>2023-07-12T07:23:57Z</time>
      </trkpt>
      <trkpt lat="49.78067" lon="2.27573">
        <ele>126.3</ele>
        <time>2023-07-12T07:23:58Z</time>
      </trkpt>
      <trkpt lat="49.78066" lon="2.27574">
        <ele>126.3</ele>
        <time>2023-07-12T07:24:00Z</time>
      </trkpt>
      <trkpt lat="49.78065" lon="2.27575">
        <ele>126.3</ele>
        <time>2023-07-12T07:24:01Z</time>
      </trkpt>
      <trkpt lat="49.78065" lon="2.27575">
        <ele>126.3</ele>
        <time>2023-07-12T07:24:02Z</time>
      </trkpt>
      <trkpt lat="49.78063" lon="2.27577">
        <ele>126.4</ele>
        <time>2023-07-12T07:24:03Z</time>
      </trkpt>
      <trkpt lat="49.78062" lon="2.27578">
        <ele>126.4</ele>
        <time>2023-07-12T07:24:04Z</time>
      </trkpt>
      <trkpt lat="49.78061" lon="2.27578">
        <ele>126.4</ele>
        <time>2023-07-12T07:24:05Z</time>
      </trkpt>
      <trkpt lat="49.7806" lon="2.27579">
        <ele>126.4</ele>
        <time>2023-07-12T07:24:06Z</time>
      </trkpt>
      <trkpt lat="49.78059" lon="2.2758">
        <ele>126.4</ele>
        <time>2023-07-12T07:24:07Z</time>
      </trkpt>
      <trkpt lat="49.78058" lon="2.27581">
        <ele>126.4</ele>
        <time>2023-07-12T07:24:09Z</time>
      </trkpt>
      <trkpt lat="49.78057" lon="2.27582">
        <ele>126.4</ele>
        <time>2023-07-12T07:24:10Z</time>
      </trkpt>
      <trkpt lat="49.78055" lon="2.27583">
        <ele>126.5</ele>
        <time>2023-07-12T07:24:11Z</time>
      </trkpt>
      <trkpt lat="49.78053" lon="2.27584">
        <ele>126.5</ele>
        <time>2023-07-12T07:24:12Z</time>
      </trkpt>
      <trkpt lat="49.78053" lon="2.27585">
        <ele>126.5</ele>
        <time>2023-07-12T07:24:13Z</time>
      </trkpt>
      <trkpt lat="49.78052" lon="2.27585">
        <ele>126.5</ele>
        <time>2023-07-12T07:24:14Z</time>
      </trkpt>
      <trkpt lat="49.7805" lon="2.27587">
        <ele>126.5</ele>
        <time>2023-07-12T07:24:15Z</time>
      </trkpt>
      <trkpt lat="49.78049" lon="2.27588">
        <ele>126.5</ele>
        <time>2023-07-12T07:24:17Z</time>
      </trkpt>
      <trkpt lat="49.78049" lon="2.27589">
        <ele>126.5</ele>
        <time>2023-07-12T07:24:18Z</time>
      </trkpt>
      <trkpt lat="49.78047" lon="2.2759">
        <ele>126.6</ele>
        <time>2023-07-12T07:24:19Z</time>
      </trkpt>
      <trkpt lat="49.78046" lon="2.27591">
        <ele>126.6</ele>
        <time>2023-07-12T07:24:20Z</time>
      </trkpt>
      <trkpt lat="49.78045" lon="2.27591">
        <ele>126.6</ele>
        <time>2023-07-12T07:24:21Z</time>
      </trkpt>
      <trkpt lat="49.78043" lon="2.27592">
        <ele>126.6</ele>
        <time>2023-07-12T07:24:22Z</time>
      </trkpt>
      <trkpt lat="49.78042" lon="2.27593">
        <ele>126.6</ele>
        <time>2023-07-12T07:24:23Z</time>
      </trkpt>
      <trkpt lat="49.78041" lon="2.27594">
        <ele>126.6</ele>
        <time>2023-07-12T07:24:25Z</time>
      </trkpt>
      <trkpt lat="49.7804" lon="2.27594">
        <ele>126.6</ele>
        <time>2023-07-12T07:24:26Z</time>
      </trkpt>
      <trkpt lat="49.78039" lon="2.27595">
        <ele>126.6</ele>
        <time>2023-07-12T07:24:27Z</time>
      </trkpt>
      <trkpt lat="49.78038" lon="2.27596">
        <ele>126.6</ele>
        <time>2023-07-12T07:24:28Z</time>
      </trkpt>
      <trkpt lat="49.78037" lon="2.27597">
        <ele>126.7</ele>
        <time>2023-07-12T07:24:29Z</time>
      </trkpt>
      <trkpt lat="49.78036" lon="2.27598">
        <ele>126.7</ele>
        <time>2023-07-12T07:24:30Z</time>
      </trkpt>
      <trkpt lat="49.78035" lon="2.27599">
        <ele>126.7</ele>
        <time>2023-07-12T07:24:31Z</time>
      </trkpt>
      <trkpt lat="49.78034" lon="2.276">
        <ele>126.7</ele>
        <time>2023-07-12T07:24:32Z</time>
      </trkpt>
      <trkpt lat="49.78033" lon="2.27601">
        <ele>126.7</ele>
        <time>2023-07-12T07:24:34Z</time>
      </trkpt>
      <trkpt lat="49.78032" lon="2.27602">
        <ele>126.7</ele>
        <time>2023-07-12T07:24:35Z</time>
      </trkpt>
      <trkpt lat="49.7803" lon="2.27603">
        <ele>126.7</ele>
        <time>2023-07-12T07:24:36Z</time>
      </trkpt>
      <trkpt lat="49.78029" lon="2.27604">
        <ele>126.7</ele>
        <time>2023-07-12T07:24:37Z</time>
      </trkpt>
      <trkpt lat="49.78028" lon="2.27605">
        <ele>126.7</ele>
        <time>2023-07-12T07:24:38Z</time>
      </trkpt>
      <trkpt lat="49.78026" lon="2.27607">
        <ele>126.7</ele>
        <time>2023-07-12T07:24:39Z</time>
      </trkpt>
      <trkpt lat="49.78026" lon="2.27607">
        <ele>126.7</ele>
        <time>2023-07-12T07:24:40Z</time>
      </trkpt>
      <trkpt lat="49.78025" lon="2.27608">
        <ele>126.7</ele>
        <time>2023-07-12T07:24:41Z</time>
      </trkpt>
      <trkpt lat="49.78023" lon="2.27609">
        <ele>126.7</ele>
        <time>2023-07-12T07:24:42Z</time>
      </trkpt>
      <trkpt lat="49.78022" lon="2.2761">
        <ele>126.7</ele>
        <time>2023-07-12T07:24:44Z</time>
      </trkpt>
      <trkpt lat="49.78021" lon="2.27611">
        <ele>126.7</ele>
        <time>2023-07-12T07:24:45Z</time>
      </trkpt>
      <trkpt lat="49.7802" lon="2.27612">
        <ele>126.7</ele>
        <time>2023-07-12T07:24:46Z</time>
      </trkpt>
      <trkpt lat="49.78019" lon="2.27612">
        <ele>126.8</ele>
        <time>2023-07-12T07:24:47Z</time>
      </trkpt>
      <trkpt lat="49.78017" lon="2.27613">
        <ele>126.8</ele>
        <time>2023-07-12T07:24:49Z</time>
      </trkpt>
      <trkpt lat="49.78017" lon="2.27614">
        <ele>126.8</ele>
        <time>2023-07-12T07:24:50Z</time>
      </trkpt>
      <trkpt lat="49.78016" lon="2.27615">
        <ele>126.8</ele>
        <time>2023-07-12T07:24:51Z</time>
      </trkpt>
      <trkpt lat="49.78015" lon="2.27616">
        <ele>126.8</ele>
        <time>2023-07-12T07:24:52Z</time>
      </trkpt>
      <trkpt lat="49.78014" lon="2.27617">
        <ele>126.8</ele>
        <time>2023-07-12T07:24:53Z</time>
      </trkpt>
      <trkpt lat="49.78013" lon="2.27618">
        <ele>126.8</ele>
        <time>2023-07-12T07:24:54Z</time>
      </trkpt>
      <trkpt lat="49.78012" lon="2.27619">
        <ele>126.8</ele>
        <time>2023-07-12T07:24:55Z</time>
      </trkpt>
      <trkpt lat="49.78012" lon="2.2762">
        <ele>126.8</ele>
        <time>2023-07-12T07:24:56Z</time>
      </trkpt>
      <trkpt lat="49.7801" lon="2.27621">
        <ele>126.8</ele>
        <time>2023-07-12T07:24:57Z</time>
      </trkpt>
      <trkpt lat="49.78009" lon="2.27622">
        <ele>126.8</ele>
        <time>2023-07-12T07:24:59Z</time>
      </trkpt>
      <trkpt lat="49.78009" lon="2.27623">
        <ele>126.8</ele>
        <time>2023-07-12T07:25:00Z</time>
      </trkpt>
      <trkpt lat="49.78008" lon="2.27624">
        <ele>126.9</ele>
        <time>2023-07-12T07:25:01Z</time>
      </trkpt>
      <trkpt lat="49.78007" lon="2.27625">
        <ele>126.9</ele>
        <time>2023-07-12T07:25:02Z</time>
      </trkpt>
      <trkpt lat="49.78006" lon="2.27626">
        <ele>126.9</ele>
        <time>2023-07-12T07:25:03Z</time>
      </trkpt>
      <trkpt lat="49.78005" lon="2.27627">
        <ele>126.9</ele>
        <time>2023-07-12T07:25:04Z</time>
      </trkpt>
      <trkpt lat="49.78003" lon="2.27629">
        <ele>126.9</ele>
        <time>2023-07-12T07:25:05Z</time>
      </trkpt>
      <trkpt lat="49.78003" lon="2.27629">
        <ele>126.9</ele>
        <time>2023-07-12T07:25:06Z</time>
      </trkpt>
      <trkpt lat="49.78002" lon="2.2763">
        <ele>126.9</ele>
        <time>2023-07-12T07:25:07Z</time>
      </trkpt>
      <trkpt lat="49.78001" lon="2.27631">
        <ele>126.9</ele>
        <time>2023-07-12T07:25:09Z</time>
      </trkpt>
      <trkpt lat="49.78" lon="2.27632">
        <ele>126.9</ele>
        <time>2023-07-12T07:25:10Z</time>
      </trkpt>
      <trkpt lat="49.77999" lon="2.27633">
        <ele>126.9</ele>
        <time>2023-07-12T07:25:11Z</time>
      </trkpt>
      <trkpt lat="49.77997" lon="2.27635">
        <ele>126.9</ele>
        <time>2023-07-12T07:25:12Z</time>
      </trkpt>
      <trkpt lat="49.77997" lon="2.27635">
        <ele>126.9</ele>
        <time>2023-07-12T07:25:13Z</time>
      </trkpt>
      <trkpt lat="49.77996" lon="2.27636">
        <ele>126.9</ele>
        <time>2023-07-12T07:25:14Z</time>
      </trkpt>
      <trkpt lat="49.77995" lon="2.27637">
        <ele>126.9</ele>
        <time>2023-07-12T07:25:15Z</time>
      </trkpt>
      <trkpt lat="49.77994" lon="2.27639">
        <ele>127</ele>
        <time>2023-07-12T07:25:17Z</time>
      </trkpt>
      <trkpt lat="49.77993" lon="2.27639">
        <ele>127</ele>
        <time>2023-07-12T07:25:18Z</time>
      </trkpt>
      <trkpt lat="49.77991" lon="2.27641">
        <ele>127</ele>
        <time>2023-07-12T07:25:19Z</time>
      </trkpt>
      <trkpt lat="49.77991" lon="2.27642">
        <ele>127</ele>
        <time>2023-07-12T07:25:20Z</time>
      </trkpt>
      <trkpt lat="49.7799" lon="2.27643">
        <ele>127</ele>
        <time>2023-07-12T07:25:21Z</time>
      </trkpt>
      <trkpt lat="49.77988" lon="2.27645">
        <ele>127</ele>
        <time>2023-07-12T07:25:22Z</time>
      </trkpt>
      <trkpt lat="49.77988" lon="2.27646">
        <ele>127</ele>
        <time>2023-07-12T07:25:23Z</time>
      </trkpt>
      <trkpt lat="49.77987" lon="2.27647">
        <ele>127</ele>
        <time>2023-07-12T07:25:24Z</time>
      </trkpt>
      <trkpt lat="49.77986" lon="2.27648">
        <ele>127</ele>
        <time>2023-07-12T07:25:26Z</time>
      </trkpt>
      <trkpt lat="49.77985" lon="2.27649">
        <ele>127.1</ele>
        <time>2023-07-12T07:25:27Z</time>
      </trkpt>
      <trkpt lat="49.77984" lon="2.2765">
        <ele>127.1</ele>
        <time>2023-07-12T07:25:28Z</time>
      </trkpt>
      <trkpt lat="49.77983" lon="2.27651">
        <ele>127.1</ele>
        <time>2023-07-12T07:25:29Z</time>
      </trkpt>
      <trkpt lat="49.77982" lon="2.27653">
        <ele>127.1</ele>
        <time>2023-07-12T07:25:30Z</time>
      </trkpt>
      <trkpt lat="49.77981" lon="2.27654">
        <ele>127.1</ele>
        <time>2023-07-12T07:25:31Z</time>
      </trkpt>
      <trkpt lat="49.7798" lon="2.27656">
        <ele>127.1</ele>
        <time>2023-07-12T07:25:32Z</time>
      </trkpt>
      <trkpt lat="49.77979" lon="2.27657">
        <ele>127.1</ele>
        <time>2023-07-12T07:25:33Z</time>
      </trkpt>
      <trkpt lat="49.77978" lon="2.27659">
        <ele>127.1</ele>
        <time>2023-07-12T07:25:35Z</time>
      </trkpt>
      <trkpt lat="49.77977" lon="2.2766">
        <ele>127.1</ele>
        <time>2023-07-12T07:25:36Z</time>
      </trkpt>
      <trkpt lat="49.77976" lon="2.27661">
        <ele>127.2</ele>
        <time>2023-07-12T07:25:37Z</time>
      </trkpt>
      <trkpt lat="49.77976" lon="2.27663">
        <ele>127.2</ele>
        <time>2023-07-12T07:25:38Z</time>
      </trkpt>
      <trkpt lat="49.77974" lon="2.27665">
        <ele>127.2</ele>
        <time>2023-07-12T07:25:39Z</time>
      </trkpt>
      <trkpt lat="49.77974" lon="2.27666">
        <ele>127.2</ele>
        <time>2023-07-12T07:25:40Z</time>
      </trkpt>
      <trkpt lat="49.77973" lon="2.27667">
        <ele>127.2</ele>
        <time>2023-07-12T07:25:41Z</time>
      </trkpt>
      <trkpt lat="49.77972" lon="2.27668">
        <ele>127.2</ele>
        <time>2023-07-12T07:25:42Z</time>
      </trkpt>
      <trkpt lat="49.77971" lon="2.27669">
        <ele>127.2</ele>
        <time>2023-07-12T07:25:43Z</time>
      </trkpt>
      <trkpt lat="49.7797" lon="2.2767">
        <ele>127.2</ele>
        <time>2023-07-12T07:25:45Z</time>
      </trkpt>
      <trkpt lat="49.77969" lon="2.27671">
        <ele>127.2</ele>
        <time>2023-07-12T07:25:46Z</time>
      </trkpt>
      <trkpt lat="49.77968" lon="2.27672">
        <ele>127.2</ele>
        <time>2023-07-12T07:25:47Z</time>
      </trkpt>
      <trkpt lat="49.77967" lon="2.27673">
        <ele>127.2</ele>
        <time>2023-07-12T07:25:48Z</time>
      </trkpt>
      <trkpt lat="49.77966" lon="2.27675">
        <ele>127.2</ele>
        <time>2023-07-12T07:25:49Z</time>
      </trkpt>
      <trkpt lat="49.77965" lon="2.27675">
        <ele>127.2</ele>
        <time>2023-07-12T07:25:50Z</time>
      </trkpt>
      <trkpt lat="49.77964" lon="2.27676">
        <ele>127.2</ele>
        <time>2023-07-12T07:25:51Z</time>
      </trkpt>
      <trkpt lat="49.77963" lon="2.27677">
        <ele>127.2</ele>
        <time>2023-07-12T07:25:52Z</time>
      </trkpt>
      <trkpt lat="49.77962" lon="2.27678">
        <ele>127.2</ele>
        <time>2023-07-12T07:25:53Z</time>
      </trkpt>
      <trkpt lat="49.77962" lon="2.2768">
        <ele>127.2</ele>
        <time>2023-07-12T07:25:55Z</time>
      </trkpt>
      <trkpt lat="49.77961" lon="2.27681">
        <ele>127.2</ele>
        <time>2023-07-12T07:25:56Z</time>
      </trkpt>
      <trkpt lat="49.7796" lon="2.27682">
        <ele>127.2</ele>
        <time>2023-07-12T07:25:57Z</time>
      </trkpt>
      <trkpt lat="49.77959" lon="2.27683">
        <ele>127.2</ele>
        <time>2023-07-12T07:25:58Z</time>
      </trkpt>
      <trkpt lat="49.77957" lon="2.27685">
        <ele>127.2</ele>
        <time>2023-07-12T07:25:59Z</time>
      </trkpt>
      <trkpt lat="49.77956" lon="2.27685">
        <ele>127.2</ele>
        <time>2023-07-12T07:26:00Z</time>
      </trkpt>
      <trkpt lat="49.77956" lon="2.27686">
        <ele>127.2</ele>
        <time>2023-07-12T07:26:01Z</time>
      </trkpt>
      <trkpt lat="49.77955" lon="2.27687">
        <ele>127.2</ele>
        <time>2023-07-12T07:26:02Z</time>
      </trkpt>
      <trkpt lat="49.77954" lon="2.27689">
        <ele>127.2</ele>
        <time>2023-07-12T07:26:03Z</time>
      </trkpt>
      <trkpt lat="49.77953" lon="2.2769">
        <ele>127.2</ele>
        <time>2023-07-12T07:26:04Z</time>
      </trkpt>
      <trkpt lat="49.77952" lon="2.27691">
        <ele>127.1</ele>
        <time>2023-07-12T07:26:06Z</time>
      </trkpt>
      <trkpt lat="49.77951" lon="2.27692">
        <ele>127.1</ele>
        <time>2023-07-12T07:26:07Z</time>
      </trkpt>
      <trkpt lat="49.77949" lon="2.27694">
        <ele>127.1</ele>
        <time>2023-07-12T07:26:08Z</time>
      </trkpt>
      <trkpt lat="49.77949" lon="2.27695">
        <ele>127.1</ele>
        <time>2023-07-12T07:26:09Z</time>
      </trkpt>
      <trkpt lat="49.77948" lon="2.27696">
        <ele>127.1</ele>
        <time>2023-07-12T07:26:10Z</time>
      </trkpt>
      <trkpt lat="49.77947" lon="2.27697">
        <ele>127.1</ele>
        <time>2023-07-12T07:26:11Z</time>
      </trkpt>
      <trkpt lat="49.77946" lon="2.27699">
        <ele>127</ele>
        <time>2023-07-12T07:26:12Z</time>
      </trkpt>
      <trkpt lat="49.77944" lon="2.27701">
        <ele>127</ele>
        <time>2023-07-12T07:26:13Z</time>
      </trkpt>
      <trkpt lat="49.77943" lon="2.27702">
        <ele>127</ele>
        <time>2023-07-12T07:26:14Z</time>
      </trkpt>
      <trkpt lat="49.77943" lon="2.27703">
        <ele>127</ele>
        <time>2023-07-12T07:26:15Z</time>
      </trkpt>
      <trkpt lat="49.77941" lon="2.27706">
        <ele>126.9</ele>
        <time>2023-07-12T07:26:16Z</time>
      </trkpt>
      <trkpt lat="49.7794" lon="2.27707">
        <ele>126.9</ele>
        <time>2023-07-12T07:26:18Z</time>
      </trkpt>
      <trkpt lat="49.7794" lon="2.27708">
        <ele>126.9</ele>
        <time>2023-07-12T07:26:19Z</time>
      </trkpt>
      <trkpt lat="49.77939" lon="2.27709">
        <ele>126.9</ele>
        <time>2023-07-12T07:26:20Z</time>
      </trkpt>
      <trkpt lat="49.77938" lon="2.2771">
        <ele>126.9</ele>
        <time>2023-07-12T07:26:21Z</time>
      </trkpt>
      <trkpt lat="49.77937" lon="2.27712">
        <ele>126.9</ele>
        <time>2023-07-12T07:26:22Z</time>
      </trkpt>
      <trkpt lat="49.77936" lon="2.27713">
        <ele>126.8</ele>
        <time>2023-07-12T07:26:23Z</time>
      </trkpt>
      <trkpt lat="49.77935" lon="2.27716">
        <ele>126.8</ele>
        <time>2023-07-12T07:26:25Z</time>
      </trkpt>
      <trkpt lat="49.77934" lon="2.27717">
        <ele>126.8</ele>
        <time>2023-07-12T07:26:26Z</time>
      </trkpt>
      <trkpt lat="49.77934" lon="2.27718">
        <ele>126.8</ele>
        <time>2023-07-12T07:26:27Z</time>
      </trkpt>
      <trkpt lat="49.77933" lon="2.27719">
        <ele>126.8</ele>
        <time>2023-07-12T07:26:28Z</time>
      </trkpt>
      <trkpt lat="49.77932" lon="2.27721">
        <ele>126.8</ele>
        <time>2023-07-12T07:26:29Z</time>
      </trkpt>
      <trkpt lat="49.77931" lon="2.27722">
        <ele>126.7</ele>
        <time>2023-07-12T07:26:30Z</time>
      </trkpt>
      <trkpt lat="49.7793" lon="2.27723">
        <ele>126.7</ele>
        <time>2023-07-12T07:26:31Z</time>
      </trkpt>
      <trkpt lat="49.7793" lon="2.27724">
        <ele>126.7</ele>
        <time>2023-07-12T07:26:32Z</time>
      </trkpt>
      <trkpt lat="49.77929" lon="2.27726">
        <ele>126.7</ele>
        <time>2023-07-12T07:26:33Z</time>
      </trkpt>
      <trkpt lat="49.77927" lon="2.27728">
        <ele>126.7</ele>
        <time>2023-07-12T07:26:34Z</time>
      </trkpt>
      <trkpt lat="49.77927" lon="2.27729">
        <ele>126.6</ele>
        <time>2023-07-12T07:26:36Z</time>
      </trkpt>
      <trkpt lat="49.77926" lon="2.27729">
        <ele>126.6</ele>
        <time>2023-07-12T07:26:37Z</time>
      </trkpt>
      <trkpt lat="49.77924" lon="2.27732">
        <ele>126.6</ele>
        <time>2023-07-12T07:26:38Z</time>
      </trkpt>
      <trkpt lat="49.77923" lon="2.27733">
        <ele>126.6</ele>
        <time>2023-07-12T07:26:39Z</time>
      </trkpt>
      <trkpt lat="49.77923" lon="2.27733">
        <ele>126.6</ele>
        <time>2023-07-12T07:26:40Z</time>
      </trkpt>
      <trkpt lat="49.77921" lon="2.27736">
        <ele>126.6</ele>
        <time>2023-07-12T07:26:41Z</time>
      </trkpt>
      <trkpt lat="49.77921" lon="2.27737">
        <ele>126.5</ele>
        <time>2023-07-12T07:26:42Z</time>
      </trkpt>
      <trkpt lat="49.7792" lon="2.27738">
        <ele>126.5</ele>
        <time>2023-07-12T07:26:43Z</time>
      </trkpt>
      <trkpt lat="49.77919" lon="2.27739">
        <ele>126.5</ele>
        <time>2023-07-12T07:26:44Z</time>
      </trkpt>
      <trkpt lat="49.77918" lon="2.27741">
        <ele>126.5</ele>
        <time>2023-07-12T07:26:46Z</time>
      </trkpt>
      <trkpt lat="49.77917" lon="2.27742">
        <ele>126.5</ele>
        <time>2023-07-12T07:26:47Z</time>
      </trkpt>
      <trkpt lat="49.77916" lon="2.27744">
        <ele>126.5</ele>
        <time>2023-07-12T07:26:48Z</time>
      </trkpt>
      <trkpt lat="49.77915" lon="2.27746">
        <ele>126.4</ele>
        <time>2023-07-12T07:26:49Z</time>
      </trkpt>
      <trkpt lat="49.77914" lon="2.27748">
        <ele>126.4</ele>
        <time>2023-07-12T07:26:51Z</time>
      </trkpt>
      <trkpt lat="49.77913" lon="2.27749">
        <ele>126.4</ele>
        <time>2023-07-12T07:26:52Z</time>
      </trkpt>
      <trkpt lat="49.77912" lon="2.27751">
        <ele>126.4</ele>
        <time>2023-07-12T07:26:53Z</time>
      </trkpt>
      <trkpt lat="49.77911" lon="2.27752">
        <ele>126.4</ele>
        <time>2023-07-12T07:26:54Z</time>
      </trkpt>
      <trkpt lat="49.7791" lon="2.27754">
        <ele>126.3</ele>
        <time>2023-07-12T07:26:55Z</time>
      </trkpt>
      <trkpt lat="49.77909" lon="2.27755">
        <ele>126.3</ele>
        <time>2023-07-12T07:26:56Z</time>
      </trkpt>
      <trkpt lat="49.77909" lon="2.27756">
        <ele>126.3</ele>
        <time>2023-07-12T07:26:57Z</time>
      </trkpt>
      <trkpt lat="49.77908" lon="2.27758">
        <ele>126.3</ele>
        <time>2023-07-12T07:26:58Z</time>
      </trkpt>
      <trkpt lat="49.77907" lon="2.27759">
        <ele>126.3</ele>
        <time>2023-07-12T07:27:00Z</time>
      </trkpt>
      <trkpt lat="49.77905" lon="2.27762">
        <ele>126.2</ele>
        <time>2023-07-12T07:27:01Z</time>
      </trkpt>
      <trkpt lat="49.77904" lon="2.27763">
        <ele>126.2</ele>
        <time>2023-07-12T07:27:02Z</time>
      </trkpt>
      <trkpt lat="49.77903" lon="2.27764">
        <ele>126.2</ele>
        <time>2023-07-12T07:27:03Z</time>
      </trkpt>
      <trkpt lat="49.77902" lon="2.27765">
        <ele>126.2</ele>
        <time>2023-07-12T07:27:04Z</time>
      </trkpt>
      <trkpt lat="49.77901" lon="2.27766">
        <ele>126.2</ele>
        <time>2023-07-12T07:27:06Z</time>
      </trkpt>
      <trkpt lat="49.77901" lon="2.27767">
        <ele>126.1</ele>
        <time>2023-07-12T07:27:07Z</time>
      </trkpt>
      <trkpt lat="49.77899" lon="2.27769">
        <ele>126.1</ele>
        <time>2023-07-12T07:27:08Z</time>
      </trkpt>
      <trkpt lat="49.77898" lon="2.2777">
        <ele>126.1</ele>
        <time>2023-07-12T07:27:09Z</time>
      </trkpt>
      <trkpt lat="49.77898" lon="2.27771">
        <ele>126.1</ele>
        <time>2023-07-12T07:27:10Z</time>
      </trkpt>
      <trkpt lat="49.77896" lon="2.27773">
        <ele>126.1</ele>
        <time>2023-07-12T07:27:11Z</time>
      </trkpt>
      <trkpt lat="49.77895" lon="2.27773">
        <ele>126</ele>
        <time>2023-07-12T07:27:12Z</time>
      </trkpt>
      <trkpt lat="49.77895" lon="2.27774">
        <ele>126</ele>
        <time>2023-07-12T07:27:13Z</time>
      </trkpt>
      <trkpt lat="49.77894" lon="2.27775">
        <ele>126</ele>
        <time>2023-07-12T07:27:14Z</time>
      </trkpt>
      <trkpt lat="49.77893" lon="2.27777">
        <ele>126</ele>
        <time>2023-07-12T07:27:16Z</time>
      </trkpt>
      <trkpt lat="49.77892" lon="2.27778">
        <ele>126</ele>
        <time>2023-07-12T07:27:17Z</time>
      </trkpt>
      <trkpt lat="49.77891" lon="2.2778">
        <ele>125.9</ele>
        <time>2023-07-12T07:27:18Z</time>
      </trkpt>
      <trkpt lat="49.7789" lon="2.2778">
        <ele>125.9</ele>
        <time>2023-07-12T07:27:19Z</time>
      </trkpt>
      <trkpt lat="49.7789" lon="2.27781">
        <ele>125.9</ele>
        <time>2023-07-12T07:27:20Z</time>
      </trkpt>
      <trkpt lat="49.77888" lon="2.27783">
        <ele>125.9</ele>
        <time>2023-07-12T07:27:22Z</time>
      </trkpt>
      <trkpt lat="49.77888" lon="2.27785">
        <ele>125.9</ele>
        <time>2023-07-12T07:27:23Z</time>
      </trkpt>
      <trkpt lat="49.77887" lon="2.27786">
        <ele>125.8</ele>
        <time>2023-07-12T07:27:24Z</time>
      </trkpt>
      <trkpt lat="49.77886" lon="2.27788">
        <ele>125.8</ele>
        <time>2023-07-12T07:27:25Z</time>
      </trkpt>
      <trkpt lat="49.77885" lon="2.2779">
        <ele>125.8</ele>
        <time>2023-07-12T07:27:26Z</time>
      </trkpt>
      <trkpt lat="49.77884" lon="2.27791">
        <ele>125.8</ele>
        <time>2023-07-12T07:27:27Z</time>
      </trkpt>
      <trkpt lat="49.77883" lon="2.27792">
        <ele>125.8</ele>
        <time>2023-07-12T07:27:28Z</time>
      </trkpt>
      <trkpt lat="49.77883" lon="2.27793">
        <ele>125.7</ele>
        <time>2023-07-12T07:27:29Z</time>
      </trkpt>
      <trkpt lat="49.77882" lon="2.27795">
        <ele>125.7</ele>
        <time>2023-07-12T07:27:30Z</time>
      </trkpt>
      <trkpt lat="49.77881" lon="2.27796">
        <ele>125.7</ele>
        <time>2023-07-12T07:27:31Z</time>
      </trkpt>
      <trkpt lat="49.7788" lon="2.27798">
        <ele>125.7</ele>
        <time>2023-07-12T07:27:33Z</time>
      </trkpt>
      <trkpt lat="49.77879" lon="2.27799">
        <ele>125.7</ele>
        <time>2023-07-12T07:27:34Z</time>
      </trkpt>
      <trkpt lat="49.77878" lon="2.278">
        <ele>125.6</ele>
        <time>2023-07-12T07:27:35Z</time>
      </trkpt>
      <trkpt lat="49.77877" lon="2.27801">
        <ele>125.6</ele>
        <time>2023-07-12T07:27:36Z</time>
      </trkpt>
      <trkpt lat="49.77876" lon="2.27802">
        <ele>125.6</ele>
        <time>2023-07-12T07:27:37Z</time>
      </trkpt>
      <trkpt lat="49.77875" lon="2.27805">
        <ele>125.5</ele>
        <time>2023-07-12T07:27:39Z</time>
      </trkpt>
      <trkpt lat="49.77874" lon="2.27806">
        <ele>125.5</ele>
        <time>2023-07-12T07:27:40Z</time>
      </trkpt>
      <trkpt lat="49.77873" lon="2.27808">
        <ele>125.5</ele>
        <time>2023-07-12T07:27:41Z</time>
      </trkpt>
      <trkpt lat="49.77872" lon="2.27809">
        <ele>125.5</ele>
        <time>2023-07-12T07:27:42Z</time>
      </trkpt>
      <trkpt lat="49.77871" lon="2.27811">
        <ele>125.5</ele>
        <time>2023-07-12T07:27:43Z</time>
      </trkpt>
      <trkpt lat="49.77871" lon="2.27812">
        <ele>125.4</ele>
        <time>2023-07-12T07:27:45Z</time>
      </trkpt>
      <trkpt lat="49.77869" lon="2.27815">
        <ele>125.4</ele>
        <time>2023-07-12T07:27:46Z</time>
      </trkpt>
      <trkpt lat="49.77869" lon="2.27816">
        <ele>125.4</ele>
        <time>2023-07-12T07:27:47Z</time>
      </trkpt>
      <trkpt lat="49.77868" lon="2.27817">
        <ele>125.3</ele>
        <time>2023-07-12T07:27:48Z</time>
      </trkpt>
      <trkpt lat="49.77868" lon="2.27818">
        <ele>125.3</ele>
        <time>2023-07-12T07:27:49Z</time>
      </trkpt>
      <trkpt lat="49.77867" lon="2.2782">
        <ele>125.3</ele>
        <time>2023-07-12T07:27:50Z</time>
      </trkpt>
      <trkpt lat="49.77866" lon="2.27821">
        <ele>125.3</ele>
        <time>2023-07-12T07:27:51Z</time>
      </trkpt>
      <trkpt lat="49.77865" lon="2.27824">
        <ele>125.2</ele>
        <time>2023-07-12T07:27:52Z</time>
      </trkpt>
      <trkpt lat="49.77864" lon="2.27825">
        <ele>125.2</ele>
        <time>2023-07-12T07:27:53Z</time>
      </trkpt>
      <trkpt lat="49.77864" lon="2.27826">
        <ele>125.2</ele>
        <time>2023-07-12T07:27:54Z</time>
      </trkpt>
      <trkpt lat="49.77862" lon="2.27828">
        <ele>125.1</ele>
        <time>2023-07-12T07:27:56Z</time>
      </trkpt>
      <trkpt lat="49.77862" lon="2.27829">
        <ele>125.1</ele>
        <time>2023-07-12T07:27:57Z</time>
      </trkpt>
      <trkpt lat="49.77861" lon="2.2783">
        <ele>125.1</ele>
        <time>2023-07-12T07:27:58Z</time>
      </trkpt>
      <trkpt lat="49.7786" lon="2.27831">
        <ele>125</ele>
        <time>2023-07-12T07:27:59Z</time>
      </trkpt>
      <trkpt lat="49.77859" lon="2.27832">
        <ele>125</ele>
        <time>2023-07-12T07:28:00Z</time>
      </trkpt>
      <trkpt lat="49.77858" lon="2.27834">
        <ele>125</ele>
        <time>2023-07-12T07:28:02Z</time>
      </trkpt>
      <trkpt lat="49.77856" lon="2.27835">
        <ele>124.9</ele>
        <time>2023-07-12T07:28:03Z</time>
      </trkpt>
      <trkpt lat="49.77856" lon="2.27836">
        <ele>124.9</ele>
        <time>2023-07-12T07:28:04Z</time>
      </trkpt>
      <trkpt lat="49.77855" lon="2.27837">
        <ele>124.9</ele>
        <time>2023-07-12T07:28:05Z</time>
      </trkpt>
      <trkpt lat="49.77854" lon="2.27839">
        <ele>124.8</ele>
        <time>2023-07-12T07:28:06Z</time>
      </trkpt>
      <trkpt lat="49.77853" lon="2.2784">
        <ele>124.8</ele>
        <time>2023-07-12T07:28:07Z</time>
      </trkpt>
      <trkpt lat="49.77852" lon="2.27843">
        <ele>124.7</ele>
        <time>2023-07-12T07:28:08Z</time>
      </trkpt>
      <trkpt lat="49.77851" lon="2.27844">
        <ele>124.7</ele>
        <time>2023-07-12T07:28:09Z</time>
      </trkpt>
      <trkpt lat="49.7785" lon="2.27845">
        <ele>124.7</ele>
        <time>2023-07-12T07:28:10Z</time>
      </trkpt>
      <trkpt lat="49.77849" lon="2.27847">
        <ele>124.6</ele>
        <time>2023-07-12T07:28:11Z</time>
      </trkpt>
      <trkpt lat="49.77848" lon="2.27848">
        <ele>124.6</ele>
        <time>2023-07-12T07:28:12Z</time>
      </trkpt>
      <trkpt lat="49.77847" lon="2.2785">
        <ele>124.5</ele>
        <time>2023-07-12T07:28:14Z</time>
      </trkpt>
      <trkpt lat="49.77846" lon="2.27851">
        <ele>124.5</ele>
        <time>2023-07-12T07:28:15Z</time>
      </trkpt>
      <trkpt lat="49.77846" lon="2.27852">
        <ele>124.5</ele>
        <time>2023-07-12T07:28:16Z</time>
      </trkpt>
      <trkpt lat="49.77845" lon="2.27854">
        <ele>124.5</ele>
        <time>2023-07-12T07:28:17Z</time>
      </trkpt>
      <trkpt lat="49.77844" lon="2.27855">
        <ele>124.4</ele>
        <time>2023-07-12T07:28:18Z</time>
      </trkpt>
      <trkpt lat="49.77843" lon="2.27857">
        <ele>124.4</ele>
        <time>2023-07-12T07:28:20Z</time>
      </trkpt>
      <trkpt lat="49.77842" lon="2.27859">
        <ele>124.4</ele>
        <time>2023-07-12T07:28:21Z</time>
      </trkpt>
      <trkpt lat="49.77841" lon="2.27862">
        <ele>124.3</ele>
        <time>2023-07-12T07:28:22Z</time>
      </trkpt>
      <trkpt lat="49.7784" lon="2.27863">
        <ele>124.3</ele>
        <time>2023-07-12T07:28:23Z</time>
      </trkpt>
      <trkpt lat="49.77839" lon="2.27864">
        <ele>124.3</ele>
        <time>2023-07-12T07:28:24Z</time>
      </trkpt>
      <trkpt lat="49.77837" lon="2.27866">
        <ele>124.2</ele>
        <time>2023-07-12T07:28:25Z</time>
      </trkpt>
      <trkpt lat="49.77837" lon="2.27867">
        <ele>124.2</ele>
        <time>2023-07-12T07:28:27Z</time>
      </trkpt>
      <trkpt lat="49.77836" lon="2.27868">
        <ele>124.2</ele>
        <time>2023-07-12T07:28:28Z</time>
      </trkpt>
      <trkpt lat="49.77835" lon="2.27869">
        <ele>124.2</ele>
        <time>2023-07-12T07:28:29Z</time>
      </trkpt>
      <trkpt lat="49.77834" lon="2.27871">
        <ele>124.1</ele>
        <time>2023-07-12T07:28:30Z</time>
      </trkpt>
      <trkpt lat="49.77834" lon="2.27873">
        <ele>124.1</ele>
        <time>2023-07-12T07:28:31Z</time>
      </trkpt>
      <trkpt lat="49.77833" lon="2.27875">
        <ele>124.1</ele>
        <time>2023-07-12T07:28:32Z</time>
      </trkpt>
      <trkpt lat="49.77832" lon="2.27876">
        <ele>124</ele>
        <time>2023-07-12T07:28:33Z</time>
      </trkpt>
      <trkpt lat="49.77831" lon="2.27878">
        <ele>124</ele>
        <time>2023-07-12T07:28:34Z</time>
      </trkpt>
      <trkpt lat="49.77831" lon="2.27879">
        <ele>124</ele>
        <time>2023-07-12T07:28:36Z</time>
      </trkpt>
      <trkpt lat="49.7783" lon="2.27881">
        <ele>124</ele>
        <time>2023-07-12T07:28:37Z</time>
      </trkpt>
      <trkpt lat="49.7783" lon="2.27882">
        <ele>123.9</ele>
        <time>2023-07-12T07:28:38Z</time>
      </trkpt>
      <trkpt lat="49.77829" lon="2.27884">
        <ele>123.9</ele>
        <time>2023-07-12T07:28:39Z</time>
      </trkpt>
      <trkpt lat="49.77828" lon="2.27886">
        <ele>123.9</ele>
        <time>2023-07-12T07:28:40Z</time>
      </trkpt>
      <trkpt lat="49.77828" lon="2.27887">
        <ele>123.8</ele>
        <time>2023-07-12T07:28:41Z</time>
      </trkpt>
      <trkpt lat="49.77827" lon="2.27889">
        <ele>123.8</ele>
        <time>2023-07-12T07:28:42Z</time>
      </trkpt>
      <trkpt lat="49.77826" lon="2.2789">
        <ele>123.8</ele>
        <time>2023-07-12T07:28:44Z</time>
      </trkpt>
      <trkpt lat="49.77826" lon="2.27892">
        <ele>123.8</ele>
        <time>2023-07-12T07:28:45Z</time>
      </trkpt>
      <trkpt lat="49.77825" lon="2.27894">
        <ele>123.7</ele>
        <time>2023-07-12T07:28:46Z</time>
      </trkpt>
      <trkpt lat="49.77824" lon="2.27895">
        <ele>123.7</ele>
        <time>2023-07-12T07:28:47Z</time>
      </trkpt>
      <trkpt lat="49.77824" lon="2.27897">
        <ele>123.7</ele>
        <time>2023-07-12T07:28:48Z</time>
      </trkpt>
      <trkpt lat="49.77823" lon="2.27898">
        <ele>123.6</ele>
        <time>2023-07-12T07:28:50Z</time>
      </trkpt>
      <trkpt lat="49.77823" lon="2.27899">
        <ele>123.6</ele>
        <time>2023-07-12T07:28:51Z</time>
      </trkpt>
      <trkpt lat="49.77822" lon="2.27901">
        <ele>123.6</ele>
        <time>2023-07-12T07:28:52Z</time>
      </trkpt>
      <trkpt lat="49.77822" lon="2.27902">
        <ele>123.6</ele>
        <time>2023-07-12T07:28:53Z</time>
      </trkpt>
      <trkpt lat="49.77821" lon="2.27904">
        <ele>123.6</ele>
        <time>2023-07-12T07:28:55Z</time>
      </trkpt>
      <trkpt lat="49.7782" lon="2.27904">
        <ele>123.5</ele>
        <time>2023-07-12T07:28:57Z</time>
      </trkpt>
      <trkpt lat="49.7782" lon="2.27904">
        <ele>123.5</ele>
        <time>2023-07-12T07:28:58Z</time>
      </trkpt>
      <trkpt lat="49.7782" lon="2.27904">
        <ele>123.5</ele>
        <time>2023-07-12T07:29:00Z</time>
      </trkpt>
      <trkpt lat="49.7782" lon="2.27904">
        <ele>123.5</ele>
        <time>2023-07-12T07:29:01Z</time>
      </trkpt>
      <trkpt lat="49.77821" lon="2.27904">
        <ele>123.5</ele>
        <time>2023-07-12T07:29:03Z</time>
      </trkpt>
      <trkpt lat="49.77821" lon="2.27904">
        <ele>123.5</ele>
        <time>2023-07-12T07:29:04Z</time>
      </trkpt>
      <trkpt lat="49.77821" lon="2.27904">
        <ele>123.5</ele>
        <time>2023-07-12T07:29:06Z</time>
      </trkpt>
      <trkpt lat="49.77821" lon="2.27904">
        <ele>123.5</ele>
        <time>2023-07-12T07:29:07Z</time>
      </trkpt>
      <trkpt lat="49.77821" lon="2.27904">
        <ele>123.5</ele>
        <time>2023-07-12T07:29:08Z</time>
      </trkpt>
      <trkpt lat="49.77821" lon="2.27904">
        <ele>123.5</ele>
        <time>2023-07-12T07:29:10Z</time>
      </trkpt>
      <trkpt lat="49.77821" lon="2.27904">
        <ele>123.5</ele>
        <time>2023-07-12T07:29:11Z</time>
      </trkpt>
      <trkpt lat="49.77821" lon="2.27903">
        <ele>123.5</ele>
        <time>2023-07-12T07:29:13Z</time>
      </trkpt>
      <trkpt lat="49.77821" lon="2.27903">
        <ele>123.5</ele>
        <time>2023-07-12T07:29:14Z</time>
      </trkpt>
      <trkpt lat="49.77821" lon="2.27902">
        <ele>123.5</ele>
        <time>2023-07-12T07:29:15Z</time>
      </trkpt>
      <trkpt lat="49.77821" lon="2.27902">
        <ele>123.5</ele>
        <time>2023-07-12T07:29:16Z</time>
      </trkpt>
      <trkpt lat="49.77821" lon="2.27902">
        <ele>123.5</ele>
        <time>2023-07-12T07:29:17Z</time>
      </trkpt>
      <trkpt lat="49.77821" lon="2.27902">
        <ele>123.5</ele>
        <time>2023-07-12T07:29:18Z</time>
      </trkpt>
      <trkpt lat="49.77821" lon="2.27902">
        <ele>123.5</ele>
        <time>2023-07-12T07:29:19Z</time>
      </trkpt>
      <trkpt lat="49.77821" lon="2.27902">
        <ele>123.5</ele>
        <time>2023-07-12T07:29:20Z</time>
      </trkpt>
      <trkpt lat="49.77821" lon="2.27902">
        <ele>123.5</ele>
        <time>2023-07-12T07:29:21Z</time>
      </trkpt>
      <trkpt lat="49.77821" lon="2.27902">
        <ele>123.5</ele>
        <time>2023-07-12T07:29:22Z</time>
      </trkpt>
      <trkpt lat="49.77821" lon="2.27902">
        <ele>123.5</ele>
        <time>2023-07-12T07:29:23Z</time>
      </trkpt>
      <trkpt lat="49.77821" lon="2.27902">
        <ele>123.5</ele>
        <time>2023-07-12T07:29:24Z</time>
      </trkpt>
      <trkpt lat="49.77821" lon="2.27902">
        <ele>123.5</ele>
        <time>2023-07-12T07:29:25Z</time>
      </trkpt>
      <trkpt lat="49.77821" lon="2.27902">
        <ele>123.5</ele>
        <time>2023-07-12T07:29:26Z</time>
      </trkpt>
      <trkpt lat="49.77821" lon="2.27902">
        <ele>123.5</ele>
        <time>2023-07-12T07:29:27Z</time>
      </trkpt>
      <trkpt lat="49.77821" lon="2.27902">
        <ele>123.5</ele>
        <time>2023-07-12T07:29:28Z</time>
      </trkpt>
      <trkpt lat="49.77821" lon="2.27902">
        <ele>123.5</ele>
        <time>2023-07-12T07:29:29Z</time>
      </trkpt>
      <trkpt lat="49.77822" lon="2.27902">
        <ele>123.5</ele>
        <time>2023-07-12T07:29:30Z</time>
      </trkpt>
      <trkpt lat="49.77822" lon="2.27901">
        <ele>123.5</ele>
        <time>2023-07-12T07:29:31Z</time>
      </trkpt>
      <trkpt lat="49.77821" lon="2.27901">
        <ele>123.5</ele>
        <time>2023-07-12T07:29:32Z</time>
      </trkpt>
      <trkpt lat="49.77821" lon="2.27902">
        <ele>123.5</ele>
        <time>2023-07-12T07:29:33Z</time>
      </trkpt>
      <trkpt lat="49.77821" lon="2.27902">
        <ele>123.5</ele>
        <time>2023-07-12T07:29:34Z</time>
      </trkpt>
      <trkpt lat="49.7782" lon="2.27903">
        <ele>123.5</ele>
        <time>2023-07-12T07:29:35Z</time>
      </trkpt>
      <trkpt lat="49.7782" lon="2.27903">
        <ele>123.4</ele>
        <time>2023-07-12T07:29:36Z</time>
      </trkpt>
      <trkpt lat="49.77819" lon="2.27904">
        <ele>123.4</ele>
        <time>2023-07-12T07:29:37Z</time>
      </trkpt>
      <trkpt lat="49.77818" lon="2.27904">
        <ele>123.4</ele>
        <time>2023-07-12T07:29:38Z</time>
      </trkpt>
      <trkpt lat="49.77817" lon="2.27905">
        <ele>123.4</ele>
        <time>2023-07-12T07:29:39Z</time>
      </trkpt>
      <trkpt lat="49.77815" lon="2.27906">
        <ele>123.4</ele>
        <time>2023-07-12T07:29:40Z</time>
      </trkpt>
      <trkpt lat="49.77814" lon="2.27907">
        <ele>123.3</ele>
        <time>2023-07-12T07:29:41Z</time>
      </trkpt>
      <trkpt lat="49.77813" lon="2.27909">
        <ele>123.3</ele>
        <time>2023-07-12T07:29:43Z</time>
      </trkpt>
      <trkpt lat="49.77812" lon="2.2791">
        <ele>123.3</ele>
        <time>2023-07-12T07:29:44Z</time>
      </trkpt>
      <trkpt lat="49.7781" lon="2.27912">
        <ele>123.3</ele>
        <time>2023-07-12T07:29:45Z</time>
      </trkpt>
      <trkpt lat="49.77809" lon="2.27913">
        <ele>123.3</ele>
        <time>2023-07-12T07:29:46Z</time>
      </trkpt>
      <trkpt lat="49.77808" lon="2.27914">
        <ele>123.3</ele>
        <time>2023-07-12T07:29:47Z</time>
      </trkpt>
      <trkpt lat="49.77807" lon="2.27915">
        <ele>123.3</ele>
        <time>2023-07-12T07:29:49Z</time>
      </trkpt>
      <trkpt lat="49.77806" lon="2.27916">
        <ele>123.2</ele>
        <time>2023-07-12T07:29:50Z</time>
      </trkpt>
      <trkpt lat="49.77804" lon="2.27917">
        <ele>123.2</ele>
        <time>2023-07-12T07:29:51Z</time>
      </trkpt>
      <trkpt lat="49.77803" lon="2.27919">
        <ele>123.2</ele>
        <time>2023-07-12T07:29:52Z</time>
      </trkpt>
      <trkpt lat="49.77802" lon="2.2792">
        <ele>123.2</ele>
        <time>2023-07-12T07:29:53Z</time>
      </trkpt>
      <trkpt lat="49.77801" lon="2.27921">
        <ele>123.2</ele>
        <time>2023-07-12T07:29:54Z</time>
      </trkpt>
      <trkpt lat="49.77801" lon="2.27922">
        <ele>123.2</ele>
        <time>2023-07-12T07:29:55Z</time>
      </trkpt>
      <trkpt lat="49.778" lon="2.27922">
        <ele>123.2</ele>
        <time>2023-07-12T07:29:56Z</time>
      </trkpt>
      <trkpt lat="49.77799" lon="2.27923">
        <ele>123.2</ele>
        <time>2023-07-12T07:29:58Z</time>
      </trkpt>
      <trkpt lat="49.77798" lon="2.27924">
        <ele>123.2</ele>
        <time>2023-07-12T07:29:59Z</time>
      </trkpt>
      <trkpt lat="49.77797" lon="2.27925">
        <ele>123.2</ele>
        <time>2023-07-12T07:30:00Z</time>
      </trkpt>
      <trkpt lat="49.77796" lon="2.27926">
        <ele>123.2</ele>
        <time>2023-07-12T07:30:01Z</time>
      </trkpt>
      <trkpt lat="49.77795" lon="2.27927">
        <ele>123.2</ele>
        <time>2023-07-12T07:30:03Z</time>
      </trkpt>
      <trkpt lat="49.77795" lon="2.27928">
        <ele>123.2</ele>
        <time>2023-07-12T07:30:04Z</time>
      </trkpt>
      <trkpt lat="49.77794" lon="2.27929">
        <ele>123.2</ele>
        <time>2023-07-12T07:30:05Z</time>
      </trkpt>
      <trkpt lat="49.77793" lon="2.27931">
        <ele>123.2</ele>
        <time>2023-07-12T07:30:06Z</time>
      </trkpt>
      <trkpt lat="49.77792" lon="2.27933">
        <ele>123.2</ele>
        <time>2023-07-12T07:30:07Z</time>
      </trkpt>
      <trkpt lat="49.77791" lon="2.27934">
        <ele>123.2</ele>
        <time>2023-07-12T07:30:08Z</time>
      </trkpt>
      <trkpt lat="49.7779" lon="2.27935">
        <ele>123.2</ele>
        <time>2023-07-12T07:30:09Z</time>
      </trkpt>
      <trkpt lat="49.77789" lon="2.27937">
        <ele>123.2</ele>
        <time>2023-07-12T07:30:10Z</time>
      </trkpt>
      <trkpt lat="49.77788" lon="2.27939">
        <ele>123.2</ele>
        <time>2023-07-12T07:30:12Z</time>
      </trkpt>
      <trkpt lat="49.77787" lon="2.2794">
        <ele>123.2</ele>
        <time>2023-07-12T07:30:13Z</time>
      </trkpt>
      <trkpt lat="49.77786" lon="2.27942">
        <ele>123.2</ele>
        <time>2023-07-12T07:30:14Z</time>
      </trkpt>
      <trkpt lat="49.77785" lon="2.27944">
        <ele>123.2</ele>
        <time>2023-07-12T07:30:15Z</time>
      </trkpt>
      <trkpt lat="49.77784" lon="2.27945">
        <ele>123.2</ele>
        <time>2023-07-12T07:30:16Z</time>
      </trkpt>
      <trkpt lat="49.77783" lon="2.27947">
        <ele>123.2</ele>
        <time>2023-07-12T07:30:17Z</time>
      </trkpt>
      <trkpt lat="49.77782" lon="2.27948">
        <ele>123.2</ele>
        <time>2023-07-12T07:30:18Z</time>
      </trkpt>
      <trkpt lat="49.77781" lon="2.27949">
        <ele>123.2</ele>
        <time>2023-07-12T07:30:20Z</time>
      </trkpt>
      <trkpt lat="49.7778" lon="2.2795">
        <ele>123.2</ele>
        <time>2023-07-12T07:30:21Z</time>
      </trkpt>
      <trkpt lat="49.77779" lon="2.27951">
        <ele>123.2</ele>
        <time>2023-07-12T07:30:22Z</time>
      </trkpt>
      <trkpt lat="49.77779" lon="2.27953">
        <ele>123.2</ele>
        <time>2023-07-12T07:30:24Z</time>
      </trkpt>
      <trkpt lat="49.77778" lon="2.27954">
        <ele>123.2</ele>
        <time>2023-07-12T07:30:25Z</time>
      </trkpt>
      <trkpt lat="49.77778" lon="2.27955">
        <ele>123.2</ele>
        <time>2023-07-12T07:30:26Z</time>
      </trkpt>
      <trkpt lat="49.77778" lon="2.27956">
        <ele>123.2</ele>
        <time>2023-07-12T07:30:28Z</time>
      </trkpt>
      <trkpt lat="49.77778" lon="2.27956">
        <ele>123.2</ele>
        <time>2023-07-12T07:30:29Z</time>
      </trkpt>
      <trkpt lat="49.77778" lon="2.27957">
        <ele>123.2</ele>
        <time>2023-07-12T07:30:30Z</time>
      </trkpt>
      <trkpt lat="49.77778" lon="2.27956">
        <ele>123.2</ele>
        <time>2023-07-12T07:30:31Z</time>
      </trkpt>
      <trkpt lat="49.77778" lon="2.27956">
        <ele>123.2</ele>
        <time>2023-07-12T07:30:33Z</time>
      </trkpt>
      <trkpt lat="49.77778" lon="2.27956">
        <ele>123.2</ele>
        <time>2023-07-12T07:30:34Z</time>
      </trkpt>
      <trkpt lat="49.77778" lon="2.27956">
        <ele>123.2</ele>
        <time>2023-07-12T07:30:35Z</time>
      </trkpt>
      <trkpt lat="49.77777" lon="2.27957">
        <ele>123.2</ele>
        <time>2023-07-12T07:30:36Z</time>
      </trkpt>
      <trkpt lat="49.77777" lon="2.27957">
        <ele>123.2</ele>
        <time>2023-07-12T07:30:37Z</time>
      </trkpt>
      <trkpt lat="49.77775" lon="2.27959">
        <ele>123.2</ele>
        <time>2023-07-12T07:30:39Z</time>
      </trkpt>
      <trkpt lat="49.77774" lon="2.2796">
        <ele>123.2</ele>
        <time>2023-07-12T07:30:41Z</time>
      </trkpt>
      <trkpt lat="49.77773" lon="2.27962">
        <ele>123.2</ele>
        <time>2023-07-12T07:30:42Z</time>
      </trkpt>
      <trkpt lat="49.77772" lon="2.27963">
        <ele>123.2</ele>
        <time>2023-07-12T07:30:43Z</time>
      </trkpt>
      <trkpt lat="49.7777" lon="2.27966">
        <ele>123.2</ele>
        <time>2023-07-12T07:30:44Z</time>
      </trkpt>
      <trkpt lat="49.7777" lon="2.27966">
        <ele>123.2</ele>
        <time>2023-07-12T07:30:45Z</time>
      </trkpt>
      <trkpt lat="49.77769" lon="2.27967">
        <ele>123.2</ele>
        <time>2023-07-12T07:30:46Z</time>
      </trkpt>
      <trkpt lat="49.77768" lon="2.27969">
        <ele>123.2</ele>
        <time>2023-07-12T07:30:48Z</time>
      </trkpt>
      <trkpt lat="49.77768" lon="2.2797">
        <ele>123.2</ele>
        <time>2023-07-12T07:30:49Z</time>
      </trkpt>
      <trkpt lat="49.77767" lon="2.27971">
        <ele>123.2</ele>
        <time>2023-07-12T07:30:50Z</time>
      </trkpt>
      <trkpt lat="49.77765" lon="2.27973">
        <ele>123.3</ele>
        <time>2023-07-12T07:30:51Z</time>
      </trkpt>
      <trkpt lat="49.77765" lon="2.27974">
        <ele>123.3</ele>
        <time>2023-07-12T07:30:52Z</time>
      </trkpt>
      <trkpt lat="49.77764" lon="2.27975">
        <ele>123.3</ele>
        <time>2023-07-12T07:30:53Z</time>
      </trkpt>
      <trkpt lat="49.77763" lon="2.27977">
        <ele>123.3</ele>
        <time>2023-07-12T07:30:54Z</time>
      </trkpt>
      <trkpt lat="49.77762" lon="2.27978">
        <ele>123.3</ele>
        <time>2023-07-12T07:30:56Z</time>
      </trkpt>
      <trkpt lat="49.77762" lon="2.27979">
        <ele>123.3</ele>
        <time>2023-07-12T07:30:57Z</time>
      </trkpt>
      <trkpt lat="49.77761" lon="2.2798">
        <ele>123.4</ele>
        <time>2023-07-12T07:30:58Z</time>
      </trkpt>
      <trkpt lat="49.7776" lon="2.27981">
        <ele>123.4</ele>
        <time>2023-07-12T07:30:59Z</time>
      </trkpt>
      <trkpt lat="49.77759" lon="2.27982">
        <ele>123.4</ele>
        <time>2023-07-12T07:31:01Z</time>
      </trkpt>
      <trkpt lat="49.77759" lon="2.27983">
        <ele>123.4</ele>
        <time>2023-07-12T07:31:02Z</time>
      </trkpt>
      <trkpt lat="49.77758" lon="2.27985">
        <ele>123.5</ele>
        <time>2023-07-12T07:31:03Z</time>
      </trkpt>
      <trkpt lat="49.77757" lon="2.27986">
        <ele>123.5</ele>
        <time>2023-07-12T07:31:04Z</time>
      </trkpt>
      <trkpt lat="49.77756" lon="2.27989">
        <ele>123.5</ele>
        <time>2023-07-12T07:31:05Z</time>
      </trkpt>
      <trkpt lat="49.77755" lon="2.27989">
        <ele>123.5</ele>
        <time>2023-07-12T07:31:06Z</time>
      </trkpt>
      <trkpt lat="49.77755" lon="2.2799">
        <ele>123.6</ele>
        <time>2023-07-12T07:31:07Z</time>
      </trkpt>
      <trkpt lat="49.77753" lon="2.27992">
        <ele>123.6</ele>
        <time>2023-07-12T07:31:08Z</time>
      </trkpt>
      <trkpt lat="49.77752" lon="2.27993">
        <ele>123.6</ele>
        <time>2023-07-12T07:31:10Z</time>
      </trkpt>
      <trkpt lat="49.77752" lon="2.27994">
        <ele>123.6</ele>
        <time>2023-07-12T07:31:11Z</time>
      </trkpt>
      <trkpt lat="49.7775" lon="2.27996">
        <ele>123.7</ele>
        <time>2023-07-12T07:31:12Z</time>
      </trkpt>
      <trkpt lat="49.77749" lon="2.27996">
        <ele>123.7</ele>
        <time>2023-07-12T07:31:13Z</time>
      </trkpt>
      <trkpt lat="49.77749" lon="2.27997">
        <ele>123.7</ele>
        <time>2023-07-12T07:31:14Z</time>
      </trkpt>
      <trkpt lat="49.77747" lon="2.27999">
        <ele>123.7</ele>
        <time>2023-07-12T07:31:15Z</time>
      </trkpt>
      <trkpt lat="49.77746" lon="2.28">
        <ele>123.7</ele>
        <time>2023-07-12T07:31:16Z</time>
      </trkpt>
      <trkpt lat="49.77746" lon="2.28">
        <ele>123.8</ele>
        <time>2023-07-12T07:31:17Z</time>
      </trkpt>
      <trkpt lat="49.77745" lon="2.28002">
        <ele>123.8</ele>
        <time>2023-07-12T07:31:19Z</time>
      </trkpt>
      <trkpt lat="49.77744" lon="2.28002">
        <ele>123.8</ele>
        <time>2023-07-12T07:31:20Z</time>
      </trkpt>
      <trkpt lat="49.77743" lon="2.28003">
        <ele>123.8</ele>
        <time>2023-07-12T07:31:21Z</time>
      </trkpt>
      <trkpt lat="49.77742" lon="2.28004">
        <ele>123.8</ele>
        <time>2023-07-12T07:31:22Z</time>
      </trkpt>
      <trkpt lat="49.77741" lon="2.28005">
        <ele>123.8</ele>
        <time>2023-07-12T07:31:23Z</time>
      </trkpt>
      <trkpt lat="49.7774" lon="2.28007">
        <ele>123.8</ele>
        <time>2023-07-12T07:31:24Z</time>
      </trkpt>
      <trkpt lat="49.77738" lon="2.28009">
        <ele>123.9</ele>
        <time>2023-07-12T07:31:25Z</time>
      </trkpt>
      <trkpt lat="49.77738" lon="2.2801">
        <ele>123.9</ele>
        <time>2023-07-12T07:31:26Z</time>
      </trkpt>
      <trkpt lat="49.77737" lon="2.2801">
        <ele>123.9</ele>
        <time>2023-07-12T07:31:27Z</time>
      </trkpt>
      <trkpt lat="49.77736" lon="2.28012">
        <ele>123.9</ele>
        <time>2023-07-12T07:31:29Z</time>
      </trkpt>
      <trkpt lat="49.77736" lon="2.28013">
        <ele>123.9</ele>
        <time>2023-07-12T07:31:30Z</time>
      </trkpt>
      <trkpt lat="49.77735" lon="2.28014">
        <ele>123.9</ele>
        <time>2023-07-12T07:31:31Z</time>
      </trkpt>
      <trkpt lat="49.77734" lon="2.28015">
        <ele>123.9</ele>
        <time>2023-07-12T07:31:32Z</time>
      </trkpt>
      <trkpt lat="49.77733" lon="2.28016">
        <ele>123.9</ele>
        <time>2023-07-12T07:31:33Z</time>
      </trkpt>
      <trkpt lat="49.77732" lon="2.28018">
        <ele>123.9</ele>
        <time>2023-07-12T07:31:35Z</time>
      </trkpt>
      <trkpt lat="49.7773" lon="2.2802">
        <ele>124</ele>
        <time>2023-07-12T07:31:36Z</time>
      </trkpt>
      <trkpt lat="49.77729" lon="2.28021">
        <ele>124</ele>
        <time>2023-07-12T07:31:37Z</time>
      </trkpt>
      <trkpt lat="49.77729" lon="2.28022">
        <ele>124</ele>
        <time>2023-07-12T07:31:38Z</time>
      </trkpt>
      <trkpt lat="49.77727" lon="2.28024">
        <ele>124</ele>
        <time>2023-07-12T07:31:39Z</time>
      </trkpt>
      <trkpt lat="49.77726" lon="2.28025">
        <ele>124</ele>
        <time>2023-07-12T07:31:40Z</time>
      </trkpt>
      <trkpt lat="49.77726" lon="2.28026">
        <ele>124</ele>
        <time>2023-07-12T07:31:41Z</time>
      </trkpt>
      <trkpt lat="49.77724" lon="2.28027">
        <ele>124</ele>
        <time>2023-07-12T07:31:42Z</time>
      </trkpt>
      <trkpt lat="49.77723" lon="2.28028">
        <ele>124</ele>
        <time>2023-07-12T07:31:43Z</time>
      </trkpt>
      <trkpt lat="49.77723" lon="2.28029">
        <ele>124</ele>
        <time>2023-07-12T07:31:44Z</time>
      </trkpt>
      <trkpt lat="49.77722" lon="2.2803">
        <ele>124</ele>
        <time>2023-07-12T07:31:45Z</time>
      </trkpt>
      <trkpt lat="49.77721" lon="2.28031">
        <ele>124</ele>
        <time>2023-07-12T07:31:46Z</time>
      </trkpt>
      <trkpt lat="49.7772" lon="2.28032">
        <ele>124</ele>
        <time>2023-07-12T07:31:48Z</time>
      </trkpt>
      <trkpt lat="49.77718" lon="2.28034">
        <ele>124.1</ele>
        <time>2023-07-12T07:31:49Z</time>
      </trkpt>
      <trkpt lat="49.77717" lon="2.28035">
        <ele>124.1</ele>
        <time>2023-07-12T07:31:50Z</time>
      </trkpt>
      <trkpt lat="49.77716" lon="2.28036">
        <ele>124.1</ele>
        <time>2023-07-12T07:31:51Z</time>
      </trkpt>
      <trkpt lat="49.77715" lon="2.28037">
        <ele>124.1</ele>
        <time>2023-07-12T07:31:52Z</time>
      </trkpt>
      <trkpt lat="49.77714" lon="2.28038">
        <ele>124.1</ele>
        <time>2023-07-12T07:31:53Z</time>
      </trkpt>
      <trkpt lat="49.77714" lon="2.2804">
        <ele>124.1</ele>
        <time>2023-07-12T07:31:54Z</time>
      </trkpt>
      <trkpt lat="49.77713" lon="2.28041">
        <ele>124.1</ele>
        <time>2023-07-12T07:31:55Z</time>
      </trkpt>
      <trkpt lat="49.77712" lon="2.28042">
        <ele>124.1</ele>
        <time>2023-07-12T07:31:56Z</time>
      </trkpt>
      <trkpt lat="49.77711" lon="2.28044">
        <ele>124.1</ele>
        <time>2023-07-12T07:31:58Z</time>
      </trkpt>
      <trkpt lat="49.77711" lon="2.28045">
        <ele>124.1</ele>
        <time>2023-07-12T07:31:59Z</time>
      </trkpt>
      <trkpt lat="49.7771" lon="2.28047">
        <ele>124.2</ele>
        <time>2023-07-12T07:32:00Z</time>
      </trkpt>
      <trkpt lat="49.77709" lon="2.28048">
        <ele>124.2</ele>
        <time>2023-07-12T07:32:01Z</time>
      </trkpt>
      <trkpt lat="49.77708" lon="2.2805">
        <ele>124.2</ele>
        <time>2023-07-12T07:32:02Z</time>
      </trkpt>
      <trkpt lat="49.77707" lon="2.28052">
        <ele>124.2</ele>
        <time>2023-07-12T07:32:03Z</time>
      </trkpt>
      <trkpt lat="49.77706" lon="2.28053">
        <ele>124.2</ele>
        <time>2023-07-12T07:32:05Z</time>
      </trkpt>
      <trkpt lat="49.77706" lon="2.28054">
        <ele>124.2</ele>
        <time>2023-07-12T07:32:06Z</time>
      </trkpt>
      <trkpt lat="49.77705" lon="2.28056">
        <ele>124.2</ele>
        <time>2023-07-12T07:32:07Z</time>
      </trkpt>
      <trkpt lat="49.77704" lon="2.28058">
        <ele>124.2</ele>
        <time>2023-07-12T07:32:08Z</time>
      </trkpt>
      <trkpt lat="49.77703" lon="2.28059">
        <ele>124.3</ele>
        <time>2023-07-12T07:32:09Z</time>
      </trkpt>
      <trkpt lat="49.77702" lon="2.28061">
        <ele>124.3</ele>
        <time>2023-07-12T07:32:10Z</time>
      </trkpt>
      <trkpt lat="49.77701" lon="2.28063">
        <ele>124.3</ele>
        <time>2023-07-12T07:32:11Z</time>
      </trkpt>
      <trkpt lat="49.777" lon="2.28064">
        <ele>124.3</ele>
        <time>2023-07-12T07:32:12Z</time>
      </trkpt>
      <trkpt lat="49.77699" lon="2.28065">
        <ele>124.3</ele>
        <time>2023-07-12T07:32:14Z</time>
      </trkpt>
      <trkpt lat="49.77698" lon="2.28067">
        <ele>124.3</ele>
        <time>2023-07-12T07:32:15Z</time>
      </trkpt>
      <trkpt lat="49.77698" lon="2.28068">
        <ele>124.3</ele>
        <time>2023-07-12T07:32:16Z</time>
      </trkpt>
      <trkpt lat="49.77697" lon="2.28069">
        <ele>124.3</ele>
        <time>2023-07-12T07:32:17Z</time>
      </trkpt>
      <trkpt lat="49.77696" lon="2.2807">
        <ele>124.3</ele>
        <time>2023-07-12T07:32:18Z</time>
      </trkpt>
      <trkpt lat="49.77695" lon="2.28071">
        <ele>124.3</ele>
        <time>2023-07-12T07:32:19Z</time>
      </trkpt>
      <trkpt lat="49.77694" lon="2.28072">
        <ele>124.4</ele>
        <time>2023-07-12T07:32:20Z</time>
      </trkpt>
      <trkpt lat="49.77693" lon="2.28073">
        <ele>124.4</ele>
        <time>2023-07-12T07:32:21Z</time>
      </trkpt>
      <trkpt lat="49.77692" lon="2.28074">
        <ele>124.4</ele>
        <time>2023-07-12T07:32:22Z</time>
      </trkpt>
      <trkpt lat="49.77691" lon="2.28075">
        <ele>124.4</ele>
        <time>2023-07-12T07:32:24Z</time>
      </trkpt>
      <trkpt lat="49.7769" lon="2.28076">
        <ele>124.4</ele>
        <time>2023-07-12T07:32:25Z</time>
      </trkpt>
      <trkpt lat="49.77689" lon="2.28078">
        <ele>124.4</ele>
        <time>2023-07-12T07:32:26Z</time>
      </trkpt>
      <trkpt lat="49.77688" lon="2.28079">
        <ele>124.4</ele>
        <time>2023-07-12T07:32:27Z</time>
      </trkpt>
      <trkpt lat="49.77687" lon="2.28081">
        <ele>124.4</ele>
        <time>2023-07-12T07:32:28Z</time>
      </trkpt>
      <trkpt lat="49.77686" lon="2.28082">
        <ele>124.4</ele>
        <time>2023-07-12T07:32:29Z</time>
      </trkpt>
      <trkpt lat="49.77685" lon="2.28082">
        <ele>124.4</ele>
        <time>2023-07-12T07:32:30Z</time>
      </trkpt>
      <trkpt lat="49.77685" lon="2.28084">
        <ele>124.4</ele>
        <time>2023-07-12T07:32:31Z</time>
      </trkpt>
      <trkpt lat="49.77684" lon="2.28085">
        <ele>124.4</ele>
        <time>2023-07-12T07:32:32Z</time>
      </trkpt>
      <trkpt lat="49.77683" lon="2.28086">
        <ele>124.4</ele>
        <time>2023-07-12T07:32:33Z</time>
      </trkpt>
      <trkpt lat="49.77682" lon="2.28087">
        <ele>124.4</ele>
        <time>2023-07-12T07:32:34Z</time>
      </trkpt>
      <trkpt lat="49.77681" lon="2.28088">
        <ele>124.4</ele>
        <time>2023-07-12T07:32:36Z</time>
      </trkpt>
      <trkpt lat="49.7768" lon="2.28089">
        <ele>124.4</ele>
        <time>2023-07-12T07:32:37Z</time>
      </trkpt>
      <trkpt lat="49.77678" lon="2.28091">
        <ele>124.4</ele>
        <time>2023-07-12T07:32:38Z</time>
      </trkpt>
      <trkpt lat="49.77678" lon="2.28092">
        <ele>124.4</ele>
        <time>2023-07-12T07:32:39Z</time>
      </trkpt>
      <trkpt lat="49.77677" lon="2.28093">
        <ele>124.4</ele>
        <time>2023-07-12T07:32:40Z</time>
      </trkpt>
      <trkpt lat="49.77676" lon="2.28095">
        <ele>124.4</ele>
        <time>2023-07-12T07:32:41Z</time>
      </trkpt>
      <trkpt lat="49.77675" lon="2.28096">
        <ele>124.4</ele>
        <time>2023-07-12T07:32:42Z</time>
      </trkpt>
      <trkpt lat="49.77675" lon="2.28097">
        <ele>124.4</ele>
        <time>2023-07-12T07:32:43Z</time>
      </trkpt>
      <trkpt lat="49.77674" lon="2.28098">
        <ele>124.3</ele>
        <time>2023-07-12T07:32:44Z</time>
      </trkpt>
      <trkpt lat="49.77673" lon="2.281">
        <ele>124.3</ele>
        <time>2023-07-12T07:32:45Z</time>
      </trkpt>
      <trkpt lat="49.77672" lon="2.28101">
        <ele>124.3</ele>
        <time>2023-07-12T07:32:47Z</time>
      </trkpt>
      <trkpt lat="49.77671" lon="2.28103">
        <ele>124.3</ele>
        <time>2023-07-12T07:32:48Z</time>
      </trkpt>
      <trkpt lat="49.7767" lon="2.28104">
        <ele>124.3</ele>
        <time>2023-07-12T07:32:49Z</time>
      </trkpt>
      <trkpt lat="49.77669" lon="2.28106">
        <ele>124.3</ele>
        <time>2023-07-12T07:32:50Z</time>
      </trkpt>
      <trkpt lat="49.77668" lon="2.28108">
        <ele>124.2</ele>
        <time>2023-07-12T07:32:51Z</time>
      </trkpt>
      <trkpt lat="49.77667" lon="2.28109">
        <ele>124.2</ele>
        <time>2023-07-12T07:32:53Z</time>
      </trkpt>
      <trkpt lat="49.77666" lon="2.28111">
        <ele>124.2</ele>
        <time>2023-07-12T07:32:54Z</time>
      </trkpt>
      <trkpt lat="49.77665" lon="2.28113">
        <ele>124.2</ele>
        <time>2023-07-12T07:32:55Z</time>
      </trkpt>
      <trkpt lat="49.77664" lon="2.28115">
        <ele>124.1</ele>
        <time>2023-07-12T07:32:56Z</time>
      </trkpt>
      <trkpt lat="49.77663" lon="2.28116">
        <ele>124.1</ele>
        <time>2023-07-12T07:32:57Z</time>
      </trkpt>
      <trkpt lat="49.77662" lon="2.28118">
        <ele>124.1</ele>
        <time>2023-07-12T07:32:58Z</time>
      </trkpt>
      <trkpt lat="49.7766" lon="2.2812">
        <ele>124.1</ele>
        <time>2023-07-12T07:33:00Z</time>
      </trkpt>
      <trkpt lat="49.7766" lon="2.28121">
        <ele>124.1</ele>
        <time>2023-07-12T07:33:01Z</time>
      </trkpt>
      <trkpt lat="49.77659" lon="2.28122">
        <ele>124</ele>
        <time>2023-07-12T07:33:02Z</time>
      </trkpt>
      <trkpt lat="49.77658" lon="2.28123">
        <ele>124</ele>
        <time>2023-07-12T07:33:03Z</time>
      </trkpt>
      <trkpt lat="49.77657" lon="2.28125">
        <ele>124</ele>
        <time>2023-07-12T07:33:04Z</time>
      </trkpt>
      <trkpt lat="49.77656" lon="2.28128">
        <ele>123.9</ele>
        <time>2023-07-12T07:33:05Z</time>
      </trkpt>
      <trkpt lat="49.77655" lon="2.28129">
        <ele>123.9</ele>
        <time>2023-07-12T07:33:06Z</time>
      </trkpt>
      <trkpt lat="49.77655" lon="2.2813">
        <ele>123.9</ele>
        <time>2023-07-12T07:33:07Z</time>
      </trkpt>
      <trkpt lat="49.77654" lon="2.28131">
        <ele>123.9</ele>
        <time>2023-07-12T07:33:08Z</time>
      </trkpt>
      <trkpt lat="49.77653" lon="2.28133">
        <ele>123.9</ele>
        <time>2023-07-12T07:33:09Z</time>
      </trkpt>
      <trkpt lat="49.77652" lon="2.28134">
        <ele>123.9</ele>
        <time>2023-07-12T07:33:11Z</time>
      </trkpt>
      <trkpt lat="49.7765" lon="2.28136">
        <ele>123.8</ele>
        <time>2023-07-12T07:33:12Z</time>
      </trkpt>
      <trkpt lat="49.7765" lon="2.28136">
        <ele>123.8</ele>
        <time>2023-07-12T07:33:13Z</time>
      </trkpt>
      <trkpt lat="49.77649" lon="2.28137">
        <ele>123.8</ele>
        <time>2023-07-12T07:33:14Z</time>
      </trkpt>
      <trkpt lat="49.77648" lon="2.28138">
        <ele>123.8</ele>
        <time>2023-07-12T07:33:15Z</time>
      </trkpt>
      <trkpt lat="49.77647" lon="2.2814">
        <ele>123.7</ele>
        <time>2023-07-12T07:33:16Z</time>
      </trkpt>
      <trkpt lat="49.77646" lon="2.28141">
        <ele>123.7</ele>
        <time>2023-07-12T07:33:18Z</time>
      </trkpt>
      <trkpt lat="49.77644" lon="2.28142">
        <ele>123.7</ele>
        <time>2023-07-12T07:33:19Z</time>
      </trkpt>
      <trkpt lat="49.77643" lon="2.28143">
        <ele>123.7</ele>
        <time>2023-07-12T07:33:20Z</time>
      </trkpt>
      <trkpt lat="49.77643" lon="2.28144">
        <ele>123.7</ele>
        <time>2023-07-12T07:33:21Z</time>
      </trkpt>
      <trkpt lat="49.77642" lon="2.28145">
        <ele>123.7</ele>
        <time>2023-07-12T07:33:22Z</time>
      </trkpt>
      <trkpt lat="49.77641" lon="2.28146">
        <ele>123.6</ele>
        <time>2023-07-12T07:33:23Z</time>
      </trkpt>
      <trkpt lat="49.7764" lon="2.28147">
        <ele>123.6</ele>
        <time>2023-07-12T07:33:24Z</time>
      </trkpt>
      <trkpt lat="49.77639" lon="2.28148">
        <ele>123.6</ele>
        <time>2023-07-12T07:33:25Z</time>
      </trkpt>
      <trkpt lat="49.77638" lon="2.28149">
        <ele>123.6</ele>
        <time>2023-07-12T07:33:26Z</time>
      </trkpt>
      <trkpt lat="49.77638" lon="2.2815">
        <ele>123.6</ele>
        <time>2023-07-12T07:33:27Z</time>
      </trkpt>
      <trkpt lat="49.77636" lon="2.28152">
        <ele>123.5</ele>
        <time>2023-07-12T07:33:28Z</time>
      </trkpt>
      <trkpt lat="49.77636" lon="2.28153">
        <ele>123.5</ele>
        <time>2023-07-12T07:33:30Z</time>
      </trkpt>
      <trkpt lat="49.77635" lon="2.28154">
        <ele>123.5</ele>
        <time>2023-07-12T07:33:31Z</time>
      </trkpt>
      <trkpt lat="49.77633" lon="2.28156">
        <ele>123.5</ele>
        <time>2023-07-12T07:33:32Z</time>
      </trkpt>
      <trkpt lat="49.77633" lon="2.28157">
        <ele>123.5</ele>
        <time>2023-07-12T07:33:33Z</time>
      </trkpt>
      <trkpt lat="49.77632" lon="2.28158">
        <ele>123.5</ele>
        <time>2023-07-12T07:33:34Z</time>
      </trkpt>
      <trkpt lat="49.77631" lon="2.28159">
        <ele>123.4</ele>
        <time>2023-07-12T07:33:35Z</time>
      </trkpt>
      <trkpt lat="49.7763" lon="2.28161">
        <ele>123.4</ele>
        <time>2023-07-12T07:33:36Z</time>
      </trkpt>
      <trkpt lat="49.77629" lon="2.28163">
        <ele>123.4</ele>
        <time>2023-07-12T07:33:38Z</time>
      </trkpt>
      <trkpt lat="49.77627" lon="2.28166">
        <ele>123.3</ele>
        <time>2023-07-12T07:33:39Z</time>
      </trkpt>
      <trkpt lat="49.77626" lon="2.28166">
        <ele>123.3</ele>
        <time>2023-07-12T07:33:40Z</time>
      </trkpt>
      <trkpt lat="49.77625" lon="2.28168">
        <ele>123.3</ele>
        <time>2023-07-12T07:33:42Z</time>
      </trkpt>
      <trkpt lat="49.77624" lon="2.28169">
        <ele>123.3</ele>
        <time>2023-07-12T07:33:43Z</time>
      </trkpt>
      <trkpt lat="49.77623" lon="2.28171">
        <ele>123.2</ele>
        <time>2023-07-12T07:33:44Z</time>
      </trkpt>
      <trkpt lat="49.77622" lon="2.28173">
        <ele>123.2</ele>
        <time>2023-07-12T07:33:45Z</time>
      </trkpt>
      <trkpt lat="49.7762" lon="2.28175">
        <ele>123.2</ele>
        <time>2023-07-12T07:33:46Z</time>
      </trkpt>
      <trkpt lat="49.77619" lon="2.28176">
        <ele>123.2</ele>
        <time>2023-07-12T07:33:47Z</time>
      </trkpt>
      <trkpt lat="49.77618" lon="2.28178">
        <ele>123.1</ele>
        <time>2023-07-12T07:33:48Z</time>
      </trkpt>
      <trkpt lat="49.77617" lon="2.28179">
        <ele>123.1</ele>
        <time>2023-07-12T07:33:49Z</time>
      </trkpt>
      <trkpt lat="49.77616" lon="2.28182">
        <ele>123</ele>
        <time>2023-07-12T07:33:51Z</time>
      </trkpt>
      <trkpt lat="49.77615" lon="2.28183">
        <ele>123</ele>
        <time>2023-07-12T07:33:52Z</time>
      </trkpt>
      <trkpt lat="49.77614" lon="2.28183">
        <ele>123</ele>
        <time>2023-07-12T07:33:53Z</time>
      </trkpt>
      <trkpt lat="49.77613" lon="2.28186">
        <ele>123</ele>
        <time>2023-07-12T07:33:54Z</time>
      </trkpt>
      <trkpt lat="49.77612" lon="2.28187">
        <ele>122.9</ele>
        <time>2023-07-12T07:33:55Z</time>
      </trkpt>
      <trkpt lat="49.77612" lon="2.28188">
        <ele>122.9</ele>
        <time>2023-07-12T07:33:56Z</time>
      </trkpt>
      <trkpt lat="49.77611" lon="2.28189">
        <ele>122.9</ele>
        <time>2023-07-12T07:33:57Z</time>
      </trkpt>
      <trkpt lat="49.7761" lon="2.28191">
        <ele>122.9</ele>
        <time>2023-07-12T07:33:58Z</time>
      </trkpt>
      <trkpt lat="49.77608" lon="2.28195">
        <ele>122.8</ele>
        <time>2023-07-12T07:34:00Z</time>
      </trkpt>
      <trkpt lat="49.77607" lon="2.28195">
        <ele>122.7</ele>
        <time>2023-07-12T07:34:01Z</time>
      </trkpt>
      <trkpt lat="49.77606" lon="2.28197">
        <ele>122.7</ele>
        <time>2023-07-12T07:34:02Z</time>
      </trkpt>
      <trkpt lat="49.77606" lon="2.28198">
        <ele>122.7</ele>
        <time>2023-07-12T07:34:04Z</time>
      </trkpt>
      <trkpt lat="49.77605" lon="2.28199">
        <ele>122.7</ele>
        <time>2023-07-12T07:34:05Z</time>
      </trkpt>
      <trkpt lat="49.77603" lon="2.28202">
        <ele>122.6</ele>
        <time>2023-07-12T07:34:06Z</time>
      </trkpt>
      <trkpt lat="49.77603" lon="2.28203">
        <ele>122.6</ele>
        <time>2023-07-12T07:34:07Z</time>
      </trkpt>
      <trkpt lat="49.77602" lon="2.28204">
        <ele>122.5</ele>
        <time>2023-07-12T07:34:08Z</time>
      </trkpt>
      <trkpt lat="49.776" lon="2.28206">
        <ele>122.5</ele>
        <time>2023-07-12T07:34:09Z</time>
      </trkpt>
      <trkpt lat="49.776" lon="2.28207">
        <ele>122.5</ele>
        <time>2023-07-12T07:34:10Z</time>
      </trkpt>
      <trkpt lat="49.77599" lon="2.28207">
        <ele>122.4</ele>
        <time>2023-07-12T07:34:11Z</time>
      </trkpt>
      <trkpt lat="49.77598" lon="2.2821">
        <ele>122.4</ele>
        <time>2023-07-12T07:34:12Z</time>
      </trkpt>
      <trkpt lat="49.77597" lon="2.28211">
        <ele>122.4</ele>
        <time>2023-07-12T07:34:13Z</time>
      </trkpt>
      <trkpt lat="49.77596" lon="2.28212">
        <ele>122.4</ele>
        <time>2023-07-12T07:34:14Z</time>
      </trkpt>
      <trkpt lat="49.77595" lon="2.28214">
        <ele>122.3</ele>
        <time>2023-07-12T07:34:16Z</time>
      </trkpt>
      <trkpt lat="49.77594" lon="2.28215">
        <ele>122.3</ele>
        <time>2023-07-12T07:34:17Z</time>
      </trkpt>
      <trkpt lat="49.77593" lon="2.28216">
        <ele>122.3</ele>
        <time>2023-07-12T07:34:18Z</time>
      </trkpt>
      <trkpt lat="49.77592" lon="2.28217">
        <ele>122.2</ele>
        <time>2023-07-12T07:34:19Z</time>
      </trkpt>
      <trkpt lat="49.77591" lon="2.28218">
        <ele>122.2</ele>
        <time>2023-07-12T07:34:20Z</time>
      </trkpt>
      <trkpt lat="49.7759" lon="2.28219">
        <ele>122.2</ele>
        <time>2023-07-12T07:34:21Z</time>
      </trkpt>
      <trkpt lat="49.77589" lon="2.28221">
        <ele>122.1</ele>
        <time>2023-07-12T07:34:22Z</time>
      </trkpt>
      <trkpt lat="49.77588" lon="2.28222">
        <ele>122.1</ele>
        <time>2023-07-12T07:34:23Z</time>
      </trkpt>
      <trkpt lat="49.77587" lon="2.28224">
        <ele>122.1</ele>
        <time>2023-07-12T07:34:24Z</time>
      </trkpt>
      <trkpt lat="49.77586" lon="2.28225">
        <ele>122</ele>
        <time>2023-07-12T07:34:25Z</time>
      </trkpt>
      <trkpt lat="49.77585" lon="2.28227">
        <ele>122</ele>
        <time>2023-07-12T07:34:27Z</time>
      </trkpt>
      <trkpt lat="49.77585" lon="2.28228">
        <ele>122</ele>
        <time>2023-07-12T07:34:28Z</time>
      </trkpt>
      <trkpt lat="49.77584" lon="2.2823">
        <ele>121.9</ele>
        <time>2023-07-12T07:34:29Z</time>
      </trkpt>
      <trkpt lat="49.77583" lon="2.28232">
        <ele>121.9</ele>
        <time>2023-07-12T07:34:30Z</time>
      </trkpt>
      <trkpt lat="49.77582" lon="2.28233">
        <ele>121.9</ele>
        <time>2023-07-12T07:34:31Z</time>
      </trkpt>
      <trkpt lat="49.77581" lon="2.28235">
        <ele>121.8</ele>
        <time>2023-07-12T07:34:32Z</time>
      </trkpt>
      <trkpt lat="49.7758" lon="2.28237">
        <ele>121.8</ele>
        <time>2023-07-12T07:34:34Z</time>
      </trkpt>
      <trkpt lat="49.77579" lon="2.28238">
        <ele>121.7</ele>
        <time>2023-07-12T07:34:35Z</time>
      </trkpt>
      <trkpt lat="49.77579" lon="2.28239">
        <ele>121.7</ele>
        <time>2023-07-12T07:34:36Z</time>
      </trkpt>
      <trkpt lat="49.77578" lon="2.28241">
        <ele>121.7</ele>
        <time>2023-07-12T07:34:37Z</time>
      </trkpt>
      <trkpt lat="49.77576" lon="2.28243">
        <ele>121.6</ele>
        <time>2023-07-12T07:34:38Z</time>
      </trkpt>
      <trkpt lat="49.77576" lon="2.28244">
        <ele>121.6</ele>
        <time>2023-07-12T07:34:39Z</time>
      </trkpt>
      <trkpt lat="49.77575" lon="2.28245">
        <ele>121.5</ele>
        <time>2023-07-12T07:34:40Z</time>
      </trkpt>
      <trkpt lat="49.77574" lon="2.28246">
        <ele>121.5</ele>
        <time>2023-07-12T07:34:41Z</time>
      </trkpt>
      <trkpt lat="49.77573" lon="2.28248">
        <ele>121.5</ele>
        <time>2023-07-12T07:34:43Z</time>
      </trkpt>
      <trkpt lat="49.77572" lon="2.28249">
        <ele>121.4</ele>
        <time>2023-07-12T07:34:44Z</time>
      </trkpt>
      <trkpt lat="49.77571" lon="2.2825">
        <ele>121.4</ele>
        <time>2023-07-12T07:34:45Z</time>
      </trkpt>
      <trkpt lat="49.7757" lon="2.28251">
        <ele>121.3</ele>
        <time>2023-07-12T07:34:46Z</time>
      </trkpt>
      <trkpt lat="49.77569" lon="2.28252">
        <ele>121.3</ele>
        <time>2023-07-12T07:34:47Z</time>
      </trkpt>
      <trkpt lat="49.77568" lon="2.28254">
        <ele>121.2</ele>
        <time>2023-07-12T07:34:48Z</time>
      </trkpt>
      <trkpt lat="49.77567" lon="2.28255">
        <ele>121.2</ele>
        <time>2023-07-12T07:34:49Z</time>
      </trkpt>
      <trkpt lat="49.77566" lon="2.28257">
        <ele>121.1</ele>
        <time>2023-07-12T07:34:51Z</time>
      </trkpt>
      <trkpt lat="49.77565" lon="2.28258">
        <ele>121.1</ele>
        <time>2023-07-12T07:34:52Z</time>
      </trkpt>
      <trkpt lat="49.77565" lon="2.28259">
        <ele>121</ele>
        <time>2023-07-12T07:34:53Z</time>
      </trkpt>
      <trkpt lat="49.77563" lon="2.28261">
        <ele>120.9</ele>
        <time>2023-07-12T07:34:54Z</time>
      </trkpt>
      <trkpt lat="49.77562" lon="2.28262">
        <ele>120.9</ele>
        <time>2023-07-12T07:34:55Z</time>
      </trkpt>
      <trkpt lat="49.77562" lon="2.28263">
        <ele>120.8</ele>
        <time>2023-07-12T07:34:56Z</time>
      </trkpt>
      <trkpt lat="49.7756" lon="2.28265">
        <ele>120.7</ele>
        <time>2023-07-12T07:34:57Z</time>
      </trkpt>
      <trkpt lat="49.7756" lon="2.28266">
        <ele>120.7</ele>
        <time>2023-07-12T07:34:59Z</time>
      </trkpt>
      <trkpt lat="49.77559" lon="2.28267">
        <ele>120.6</ele>
        <time>2023-07-12T07:35:00Z</time>
      </trkpt>
      <trkpt lat="49.77558" lon="2.2827">
        <ele>120.5</ele>
        <time>2023-07-12T07:35:01Z</time>
      </trkpt>
      <trkpt lat="49.77557" lon="2.28271">
        <ele>120.5</ele>
        <time>2023-07-12T07:35:02Z</time>
      </trkpt>
      <trkpt lat="49.77557" lon="2.28272">
        <ele>120.4</ele>
        <time>2023-07-12T07:35:03Z</time>
      </trkpt>
      <trkpt lat="49.77556" lon="2.28275">
        <ele>120.3</ele>
        <time>2023-07-12T07:35:05Z</time>
      </trkpt>
      <trkpt lat="49.77555" lon="2.28277">
        <ele>120.2</ele>
        <time>2023-07-12T07:35:06Z</time>
      </trkpt>
      <trkpt lat="49.77554" lon="2.28278">
        <ele>120.2</ele>
        <time>2023-07-12T07:35:07Z</time>
      </trkpt>
      <trkpt lat="49.77554" lon="2.2828">
        <ele>120.1</ele>
        <time>2023-07-12T07:35:08Z</time>
      </trkpt>
      <trkpt lat="49.77552" lon="2.28281">
        <ele>120</ele>
        <time>2023-07-12T07:35:09Z</time>
      </trkpt>
      <trkpt lat="49.77551" lon="2.28283">
        <ele>120</ele>
        <time>2023-07-12T07:35:10Z</time>
      </trkpt>
      <trkpt lat="49.7755" lon="2.28285">
        <ele>119.9</ele>
        <time>2023-07-12T07:35:11Z</time>
      </trkpt>
      <trkpt lat="49.77549" lon="2.28286">
        <ele>119.8</ele>
        <time>2023-07-12T07:35:12Z</time>
      </trkpt>
      <trkpt lat="49.77548" lon="2.28287">
        <ele>119.7</ele>
        <time>2023-07-12T07:35:13Z</time>
      </trkpt>
      <trkpt lat="49.77547" lon="2.2829">
        <ele>119.7</ele>
        <time>2023-07-12T07:35:15Z</time>
      </trkpt>
      <trkpt lat="49.77546" lon="2.28291">
        <ele>119.6</ele>
        <time>2023-07-12T07:35:16Z</time>
      </trkpt>
      <trkpt lat="49.77545" lon="2.28292">
        <ele>119.6</ele>
        <time>2023-07-12T07:35:17Z</time>
      </trkpt>
      <trkpt lat="49.77544" lon="2.28294">
        <ele>119.5</ele>
        <time>2023-07-12T07:35:18Z</time>
      </trkpt>
      <trkpt lat="49.77543" lon="2.28295">
        <ele>119.4</ele>
        <time>2023-07-12T07:35:19Z</time>
      </trkpt>
      <trkpt lat="49.77542" lon="2.28298">
        <ele>119.4</ele>
        <time>2023-07-12T07:35:21Z</time>
      </trkpt>
      <trkpt lat="49.77541" lon="2.28299">
        <ele>119.3</ele>
        <time>2023-07-12T07:35:22Z</time>
      </trkpt>
      <trkpt lat="49.77539" lon="2.28302">
        <ele>119.2</ele>
        <time>2023-07-12T07:35:23Z</time>
      </trkpt>
      <trkpt lat="49.77539" lon="2.28303">
        <ele>119.2</ele>
        <time>2023-07-12T07:35:24Z</time>
      </trkpt>
      <trkpt lat="49.77538" lon="2.28304">
        <ele>119.2</ele>
        <time>2023-07-12T07:35:25Z</time>
      </trkpt>
      <trkpt lat="49.77537" lon="2.28307">
        <ele>119.1</ele>
        <time>2023-07-12T07:35:26Z</time>
      </trkpt>
      <trkpt lat="49.77537" lon="2.28308">
        <ele>119.1</ele>
        <time>2023-07-12T07:35:27Z</time>
      </trkpt>
      <trkpt lat="49.77536" lon="2.28309">
        <ele>119</ele>
        <time>2023-07-12T07:35:28Z</time>
      </trkpt>
      <trkpt lat="49.77535" lon="2.28311">
        <ele>119</ele>
        <time>2023-07-12T07:35:29Z</time>
      </trkpt>
      <trkpt lat="49.77535" lon="2.28312">
        <ele>119</ele>
        <time>2023-07-12T07:35:30Z</time>
      </trkpt>
      <trkpt lat="49.77534" lon="2.28313">
        <ele>118.9</ele>
        <time>2023-07-12T07:35:31Z</time>
      </trkpt>
      <trkpt lat="49.77533" lon="2.28315">
        <ele>118.9</ele>
        <time>2023-07-12T07:35:32Z</time>
      </trkpt>
      <trkpt lat="49.77533" lon="2.28317">
        <ele>118.9</ele>
        <time>2023-07-12T07:35:34Z</time>
      </trkpt>
      <trkpt lat="49.77532" lon="2.28318">
        <ele>118.8</ele>
        <time>2023-07-12T07:35:35Z</time>
      </trkpt>
      <trkpt lat="49.77531" lon="2.2832">
        <ele>118.8</ele>
        <time>2023-07-12T07:35:36Z</time>
      </trkpt>
      <trkpt lat="49.7753" lon="2.28322">
        <ele>118.8</ele>
        <time>2023-07-12T07:35:37Z</time>
      </trkpt>
      <trkpt lat="49.7753" lon="2.28323">
        <ele>118.8</ele>
        <time>2023-07-12T07:35:38Z</time>
      </trkpt>
      <trkpt lat="49.77529" lon="2.28325">
        <ele>118.7</ele>
        <time>2023-07-12T07:35:39Z</time>
      </trkpt>
      <trkpt lat="49.77528" lon="2.28326">
        <ele>118.7</ele>
        <time>2023-07-12T07:35:40Z</time>
      </trkpt>
      <trkpt lat="49.77528" lon="2.28327">
        <ele>118.7</ele>
        <time>2023-07-12T07:35:41Z</time>
      </trkpt>
      <trkpt lat="49.77527" lon="2.28329">
        <ele>118.7</ele>
        <time>2023-07-12T07:35:42Z</time>
      </trkpt>
      <trkpt lat="49.77526" lon="2.2833">
        <ele>118.7</ele>
        <time>2023-07-12T07:35:44Z</time>
      </trkpt>
      <trkpt lat="49.77525" lon="2.28332">
        <ele>118.6</ele>
        <time>2023-07-12T07:35:45Z</time>
      </trkpt>
      <trkpt lat="49.77524" lon="2.28333">
        <ele>118.6</ele>
        <time>2023-07-12T07:35:46Z</time>
      </trkpt>
      <trkpt lat="49.77523" lon="2.28335">
        <ele>118.6</ele>
        <time>2023-07-12T07:35:47Z</time>
      </trkpt>
      <trkpt lat="49.77522" lon="2.28336">
        <ele>118.6</ele>
        <time>2023-07-12T07:35:48Z</time>
      </trkpt>
      <trkpt lat="49.77521" lon="2.28337">
        <ele>118.5</ele>
        <time>2023-07-12T07:35:49Z</time>
      </trkpt>
      <trkpt lat="49.7752" lon="2.28339">
        <ele>118.5</ele>
        <time>2023-07-12T07:35:51Z</time>
      </trkpt>
      <trkpt lat="49.77519" lon="2.28341">
        <ele>118.5</ele>
        <time>2023-07-12T07:35:52Z</time>
      </trkpt>
      <trkpt lat="49.77518" lon="2.28342">
        <ele>118.5</ele>
        <time>2023-07-12T07:35:53Z</time>
      </trkpt>
      <trkpt lat="49.77518" lon="2.28343">
        <ele>118.5</ele>
        <time>2023-07-12T07:35:54Z</time>
      </trkpt>
      <trkpt lat="49.77517" lon="2.28344">
        <ele>118.5</ele>
        <time>2023-07-12T07:35:56Z</time>
      </trkpt>
      <trkpt lat="49.77516" lon="2.28345">
        <ele>118.5</ele>
        <time>2023-07-12T07:35:57Z</time>
      </trkpt>
      <trkpt lat="49.77515" lon="2.28346">
        <ele>118.4</ele>
        <time>2023-07-12T07:35:58Z</time>
      </trkpt>
      <trkpt lat="49.77515" lon="2.28347">
        <ele>118.4</ele>
        <time>2023-07-12T07:35:59Z</time>
      </trkpt>
      <trkpt lat="49.77514" lon="2.28348">
        <ele>118.4</ele>
        <time>2023-07-12T07:36:00Z</time>
      </trkpt>
      <trkpt lat="49.77513" lon="2.2835">
        <ele>118.4</ele>
        <time>2023-07-12T07:36:01Z</time>
      </trkpt>
      <trkpt lat="49.77512" lon="2.28351">
        <ele>118.4</ele>
        <time>2023-07-12T07:36:02Z</time>
      </trkpt>
      <trkpt lat="49.77512" lon="2.28353">
        <ele>118.4</ele>
        <time>2023-07-12T07:36:03Z</time>
      </trkpt>
      <trkpt lat="49.77511" lon="2.28354">
        <ele>118.4</ele>
        <time>2023-07-12T07:36:04Z</time>
      </trkpt>
      <trkpt lat="49.7751" lon="2.28356">
        <ele>118.3</ele>
        <time>2023-07-12T07:36:05Z</time>
      </trkpt>
      <trkpt lat="49.7751" lon="2.28357">
        <ele>118.3</ele>
        <time>2023-07-12T07:36:06Z</time>
      </trkpt>
      <trkpt lat="49.77509" lon="2.28359">
        <ele>118.3</ele>
        <time>2023-07-12T07:36:08Z</time>
      </trkpt>
      <trkpt lat="49.77508" lon="2.28362">
        <ele>118.3</ele>
        <time>2023-07-12T07:36:09Z</time>
      </trkpt>
      <trkpt lat="49.77507" lon="2.28363">
        <ele>118.3</ele>
        <time>2023-07-12T07:36:10Z</time>
      </trkpt>
      <trkpt lat="49.77507" lon="2.28364">
        <ele>118.3</ele>
        <time>2023-07-12T07:36:11Z</time>
      </trkpt>
      <trkpt lat="49.77505" lon="2.28367">
        <ele>118.3</ele>
        <time>2023-07-12T07:36:12Z</time>
      </trkpt>
      <trkpt lat="49.77505" lon="2.28368">
        <ele>118.3</ele>
        <time>2023-07-12T07:36:13Z</time>
      </trkpt>
      <trkpt lat="49.77504" lon="2.28369">
        <ele>118.3</ele>
        <time>2023-07-12T07:36:14Z</time>
      </trkpt>
      <trkpt lat="49.77503" lon="2.2837">
        <ele>118.3</ele>
        <time>2023-07-12T07:36:15Z</time>
      </trkpt>
      <trkpt lat="49.77503" lon="2.28372">
        <ele>118.3</ele>
        <time>2023-07-12T07:36:16Z</time>
      </trkpt>
      <trkpt lat="49.77502" lon="2.28373">
        <ele>118.3</ele>
        <time>2023-07-12T07:36:18Z</time>
      </trkpt>
      <trkpt lat="49.77501" lon="2.28375">
        <ele>118.3</ele>
        <time>2023-07-12T07:36:19Z</time>
      </trkpt>
      <trkpt lat="49.775" lon="2.28377">
        <ele>118.3</ele>
        <time>2023-07-12T07:36:20Z</time>
      </trkpt>
      <trkpt lat="49.77499" lon="2.28378">
        <ele>118.3</ele>
        <time>2023-07-12T07:36:21Z</time>
      </trkpt>
      <trkpt lat="49.77499" lon="2.2838">
        <ele>118.3</ele>
        <time>2023-07-12T07:36:22Z</time>
      </trkpt>
      <trkpt lat="49.77498" lon="2.28382">
        <ele>118.3</ele>
        <time>2023-07-12T07:36:23Z</time>
      </trkpt>
      <trkpt lat="49.77497" lon="2.28384">
        <ele>118.3</ele>
        <time>2023-07-12T07:36:24Z</time>
      </trkpt>
      <trkpt lat="49.77496" lon="2.28386">
        <ele>118.4</ele>
        <time>2023-07-12T07:36:25Z</time>
      </trkpt>
      <trkpt lat="49.77495" lon="2.28387">
        <ele>118.4</ele>
        <time>2023-07-12T07:36:27Z</time>
      </trkpt>
      <trkpt lat="49.77495" lon="2.28388">
        <ele>118.4</ele>
        <time>2023-07-12T07:36:28Z</time>
      </trkpt>
      <trkpt lat="49.77494" lon="2.28391">
        <ele>118.4</ele>
        <time>2023-07-12T07:36:29Z</time>
      </trkpt>
      <trkpt lat="49.77494" lon="2.28392">
        <ele>118.4</ele>
        <time>2023-07-12T07:36:30Z</time>
      </trkpt>
      <trkpt lat="49.77494" lon="2.28394">
        <ele>118.4</ele>
        <time>2023-07-12T07:36:31Z</time>
      </trkpt>
      <trkpt lat="49.77493" lon="2.28396">
        <ele>118.5</ele>
        <time>2023-07-12T07:36:32Z</time>
      </trkpt>
      <trkpt lat="49.77493" lon="2.28397">
        <ele>118.5</ele>
        <time>2023-07-12T07:36:34Z</time>
      </trkpt>
      <trkpt lat="49.77492" lon="2.28399">
        <ele>118.5</ele>
        <time>2023-07-12T07:36:35Z</time>
      </trkpt>
      <trkpt lat="49.77491" lon="2.28401">
        <ele>118.5</ele>
        <time>2023-07-12T07:36:36Z</time>
      </trkpt>
      <trkpt lat="49.7749" lon="2.28402">
        <ele>118.5</ele>
        <time>2023-07-12T07:36:37Z</time>
      </trkpt>
      <trkpt lat="49.7749" lon="2.28403">
        <ele>118.6</ele>
        <time>2023-07-12T07:36:38Z</time>
      </trkpt>
      <trkpt lat="49.77489" lon="2.28405">
        <ele>118.6</ele>
        <time>2023-07-12T07:36:39Z</time>
      </trkpt>
      <trkpt lat="49.77488" lon="2.28407">
        <ele>118.6</ele>
        <time>2023-07-12T07:36:40Z</time>
      </trkpt>
      <trkpt lat="49.77486" lon="2.2841">
        <ele>118.7</ele>
        <time>2023-07-12T07:36:42Z</time>
      </trkpt>
      <trkpt lat="49.77485" lon="2.28412">
        <ele>118.7</ele>
        <time>2023-07-12T07:36:43Z</time>
      </trkpt>
      <trkpt lat="49.77485" lon="2.28413">
        <ele>118.7</ele>
        <time>2023-07-12T07:36:45Z</time>
      </trkpt>
      <trkpt lat="49.77484" lon="2.28415">
        <ele>118.7</ele>
        <time>2023-07-12T07:36:46Z</time>
      </trkpt>
      <trkpt lat="49.77483" lon="2.28417">
        <ele>118.8</ele>
        <time>2023-07-12T07:36:47Z</time>
      </trkpt>
      <trkpt lat="49.77482" lon="2.28419">
        <ele>118.8</ele>
        <time>2023-07-12T07:36:48Z</time>
      </trkpt>
      <trkpt lat="49.77481" lon="2.28421">
        <ele>118.9</ele>
        <time>2023-07-12T07:36:49Z</time>
      </trkpt>
      <trkpt lat="49.7748" lon="2.28423">
        <ele>118.9</ele>
        <time>2023-07-12T07:36:50Z</time>
      </trkpt>
      <trkpt lat="49.77479" lon="2.28425">
        <ele>118.9</ele>
        <time>2023-07-12T07:36:51Z</time>
      </trkpt>
      <trkpt lat="49.77478" lon="2.28426">
        <ele>119</ele>
        <time>2023-07-12T07:36:52Z</time>
      </trkpt>
      <trkpt lat="49.77478" lon="2.28428">
        <ele>119</ele>
        <time>2023-07-12T07:36:53Z</time>
      </trkpt>
      <trkpt lat="49.77477" lon="2.2843">
        <ele>119</ele>
        <time>2023-07-12T07:36:54Z</time>
      </trkpt>
      <trkpt lat="49.77476" lon="2.28431">
        <ele>119.1</ele>
        <time>2023-07-12T07:36:56Z</time>
      </trkpt>
      <trkpt lat="49.77475" lon="2.28433">
        <ele>119.1</ele>
        <time>2023-07-12T07:36:57Z</time>
      </trkpt>
      <trkpt lat="49.77475" lon="2.28434">
        <ele>119.1</ele>
        <time>2023-07-12T07:36:58Z</time>
      </trkpt>
      <trkpt lat="49.77474" lon="2.28436">
        <ele>119.2</ele>
        <time>2023-07-12T07:36:59Z</time>
      </trkpt>
      <trkpt lat="49.77473" lon="2.28437">
        <ele>119.2</ele>
        <time>2023-07-12T07:37:00Z</time>
      </trkpt>
      <trkpt lat="49.77472" lon="2.28438">
        <ele>119.2</ele>
        <time>2023-07-12T07:37:01Z</time>
      </trkpt>
      <trkpt lat="49.77472" lon="2.2844">
        <ele>119.3</ele>
        <time>2023-07-12T07:37:02Z</time>
      </trkpt>
      <trkpt lat="49.77471" lon="2.28441">
        <ele>119.3</ele>
        <time>2023-07-12T07:37:03Z</time>
      </trkpt>
      <trkpt lat="49.77471" lon="2.28442">
        <ele>119.3</ele>
        <time>2023-07-12T07:37:04Z</time>
      </trkpt>
      <trkpt lat="49.7747" lon="2.28444">
        <ele>119.4</ele>
        <time>2023-07-12T07:37:06Z</time>
      </trkpt>
      <trkpt lat="49.77469" lon="2.28445">
        <ele>119.4</ele>
        <time>2023-07-12T07:37:07Z</time>
      </trkpt>
      <trkpt lat="49.77468" lon="2.28445">
        <ele>119.4</ele>
        <time>2023-07-12T07:37:08Z</time>
      </trkpt>
      <trkpt lat="49.77468" lon="2.28446">
        <ele>119.5</ele>
        <time>2023-07-12T07:37:09Z</time>
      </trkpt>
      <trkpt lat="49.77467" lon="2.28447">
        <ele>119.5</ele>
        <time>2023-07-12T07:37:10Z</time>
      </trkpt>
      <trkpt lat="49.77466" lon="2.28449">
        <ele>119.5</ele>
        <time>2023-07-12T07:37:11Z</time>
      </trkpt>
      <trkpt lat="49.77465" lon="2.2845">
        <ele>119.6</ele>
        <time>2023-07-12T07:37:12Z</time>
      </trkpt>
      <trkpt lat="49.77464" lon="2.28451">
        <ele>119.6</ele>
        <time>2023-07-12T07:37:13Z</time>
      </trkpt>
      <trkpt lat="49.77464" lon="2.28453">
        <ele>119.7</ele>
        <time>2023-07-12T07:37:14Z</time>
      </trkpt>
      <trkpt lat="49.77463" lon="2.28454">
        <ele>119.7</ele>
        <time>2023-07-12T07:37:16Z</time>
      </trkpt>
      <trkpt lat="49.77462" lon="2.28455">
        <ele>119.7</ele>
        <time>2023-07-12T07:37:17Z</time>
      </trkpt>
      <trkpt lat="49.77462" lon="2.28456">
        <ele>119.8</ele>
        <time>2023-07-12T07:37:18Z</time>
      </trkpt>
      <trkpt lat="49.77461" lon="2.28458">
        <ele>119.8</ele>
        <time>2023-07-12T07:37:19Z</time>
      </trkpt>
      <trkpt lat="49.7746" lon="2.28461">
        <ele>119.9</ele>
        <time>2023-07-12T07:37:20Z</time>
      </trkpt>
      <trkpt lat="49.77459" lon="2.28462">
        <ele>119.9</ele>
        <time>2023-07-12T07:37:21Z</time>
      </trkpt>
      <trkpt lat="49.77459" lon="2.28463">
        <ele>119.9</ele>
        <time>2023-07-12T07:37:22Z</time>
      </trkpt>
      <trkpt lat="49.77458" lon="2.28466">
        <ele>120</ele>
        <time>2023-07-12T07:37:23Z</time>
      </trkpt>
      <trkpt lat="49.77458" lon="2.28468">
        <ele>120</ele>
        <time>2023-07-12T07:37:25Z</time>
      </trkpt>
      <trkpt lat="49.77458" lon="2.28469">
        <ele>120</ele>
        <time>2023-07-12T07:37:26Z</time>
      </trkpt>
      <trkpt lat="49.77457" lon="2.28472">
        <ele>120.1</ele>
        <time>2023-07-12T07:37:27Z</time>
      </trkpt>
      <trkpt lat="49.77457" lon="2.28473">
        <ele>120.1</ele>
        <time>2023-07-12T07:37:28Z</time>
      </trkpt>
      <trkpt lat="49.77457" lon="2.28475">
        <ele>120.2</ele>
        <time>2023-07-12T07:37:29Z</time>
      </trkpt>
      <trkpt lat="49.77456" lon="2.28477">
        <ele>120.2</ele>
        <time>2023-07-12T07:37:30Z</time>
      </trkpt>
      <trkpt lat="49.77456" lon="2.28479">
        <ele>120.2</ele>
        <time>2023-07-12T07:37:31Z</time>
      </trkpt>
      <trkpt lat="49.77455" lon="2.28481">
        <ele>120.3</ele>
        <time>2023-07-12T07:37:32Z</time>
      </trkpt>
      <trkpt lat="49.77455" lon="2.28483">
        <ele>120.3</ele>
        <time>2023-07-12T07:37:34Z</time>
      </trkpt>
      <trkpt lat="49.77454" lon="2.28484">
        <ele>120.4</ele>
        <time>2023-07-12T07:37:35Z</time>
      </trkpt>
      <trkpt lat="49.77454" lon="2.28486">
        <ele>120.4</ele>
        <time>2023-07-12T07:37:36Z</time>
      </trkpt>
      <trkpt lat="49.77454" lon="2.28487">
        <ele>120.4</ele>
        <time>2023-07-12T07:37:37Z</time>
      </trkpt>
      <trkpt lat="49.77453" lon="2.28491">
        <ele>120.5</ele>
        <time>2023-07-12T07:37:38Z</time>
      </trkpt>
      <trkpt lat="49.77453" lon="2.28492">
        <ele>120.5</ele>
        <time>2023-07-12T07:37:39Z</time>
      </trkpt>
      <trkpt lat="49.77452" lon="2.28493">
        <ele>120.5</ele>
        <time>2023-07-12T07:37:40Z</time>
      </trkpt>
      <trkpt lat="49.77452" lon="2.28495">
        <ele>120.6</ele>
        <time>2023-07-12T07:37:41Z</time>
      </trkpt>
      <trkpt lat="49.77451" lon="2.28497">
        <ele>120.6</ele>
        <time>2023-07-12T07:37:42Z</time>
      </trkpt>
      <trkpt lat="49.7745" lon="2.285">
        <ele>120.7</ele>
        <time>2023-07-12T07:37:44Z</time>
      </trkpt>
      <trkpt lat="49.7745" lon="2.28501">
        <ele>120.7</ele>
        <time>2023-07-12T07:37:45Z</time>
      </trkpt>
      <trkpt lat="49.77449" lon="2.28502">
        <ele>120.8</ele>
        <time>2023-07-12T07:37:46Z</time>
      </trkpt>
      <trkpt lat="49.77448" lon="2.28504">
        <ele>120.8</ele>
        <time>2023-07-12T07:37:47Z</time>
      </trkpt>
      <trkpt lat="49.77447" lon="2.28506">
        <ele>120.9</ele>
        <time>2023-07-12T07:37:48Z</time>
      </trkpt>
      <trkpt lat="49.77447" lon="2.28507">
        <ele>120.9</ele>
        <time>2023-07-12T07:37:49Z</time>
      </trkpt>
      <trkpt lat="49.77446" lon="2.28509">
        <ele>121</ele>
        <time>2023-07-12T07:37:50Z</time>
      </trkpt>
      <trkpt lat="49.77445" lon="2.28511">
        <ele>121</ele>
        <time>2023-07-12T07:37:51Z</time>
      </trkpt>
      <trkpt lat="49.77444" lon="2.28513">
        <ele>121.1</ele>
        <time>2023-07-12T07:37:52Z</time>
      </trkpt>
      <trkpt lat="49.77443" lon="2.28514">
        <ele>121.1</ele>
        <time>2023-07-12T07:37:54Z</time>
      </trkpt>
      <trkpt lat="49.77443" lon="2.28515">
        <ele>121.1</ele>
        <time>2023-07-12T07:37:55Z</time>
      </trkpt>
      <trkpt lat="49.77442" lon="2.28516">
        <ele>121.2</ele>
        <time>2023-07-12T07:37:56Z</time>
      </trkpt>
      <trkpt lat="49.77442" lon="2.28518">
        <ele>121.2</ele>
        <time>2023-07-12T07:37:57Z</time>
      </trkpt>
      <trkpt lat="49.77441" lon="2.28519">
        <ele>121.2</ele>
        <time>2023-07-12T07:37:58Z</time>
      </trkpt>
      <trkpt lat="49.7744" lon="2.2852">
        <ele>121.3</ele>
        <time>2023-07-12T07:37:59Z</time>
      </trkpt>
      <trkpt lat="49.7744" lon="2.28522">
        <ele>121.3</ele>
        <time>2023-07-12T07:38:00Z</time>
      </trkpt>
      <trkpt lat="49.77439" lon="2.28523">
        <ele>121.4</ele>
        <time>2023-07-12T07:38:02Z</time>
      </trkpt>
      <trkpt lat="49.77439" lon="2.28524">
        <ele>121.4</ele>
        <time>2023-07-12T07:38:03Z</time>
      </trkpt>
      <trkpt lat="49.77438" lon="2.28527">
        <ele>121.4</ele>
        <time>2023-07-12T07:38:04Z</time>
      </trkpt>
      <trkpt lat="49.77437" lon="2.28528">
        <ele>121.5</ele>
        <time>2023-07-12T07:38:05Z</time>
      </trkpt>
      <trkpt lat="49.77437" lon="2.28529">
        <ele>121.5</ele>
        <time>2023-07-12T07:38:06Z</time>
      </trkpt>
      <trkpt lat="49.77437" lon="2.28531">
        <ele>121.5</ele>
        <time>2023-07-12T07:38:07Z</time>
      </trkpt>
      <trkpt lat="49.77436" lon="2.28533">
        <ele>121.6</ele>
        <time>2023-07-12T07:38:08Z</time>
      </trkpt>
      <trkpt lat="49.77435" lon="2.28535">
        <ele>121.6</ele>
        <time>2023-07-12T07:38:10Z</time>
      </trkpt>
      <trkpt lat="49.77435" lon="2.28536">
        <ele>121.6</ele>
        <time>2023-07-12T07:38:11Z</time>
      </trkpt>
      <trkpt lat="49.77435" lon="2.28537">
        <ele>121.7</ele>
        <time>2023-07-12T07:38:12Z</time>
      </trkpt>
      <trkpt lat="49.77434" lon="2.28539">
        <ele>121.7</ele>
        <time>2023-07-12T07:38:13Z</time>
      </trkpt>
      <trkpt lat="49.77434" lon="2.28541">
        <ele>121.7</ele>
        <time>2023-07-12T07:38:14Z</time>
      </trkpt>
      <trkpt lat="49.77433" lon="2.28542">
        <ele>121.8</ele>
        <time>2023-07-12T07:38:15Z</time>
      </trkpt>
      <trkpt lat="49.77433" lon="2.28544">
        <ele>121.8</ele>
        <time>2023-07-12T07:38:16Z</time>
      </trkpt>
      <trkpt lat="49.77432" lon="2.28545">
        <ele>121.8</ele>
        <time>2023-07-12T07:38:18Z</time>
      </trkpt>
      <trkpt lat="49.77431" lon="2.28547">
        <ele>121.8</ele>
        <time>2023-07-12T07:38:19Z</time>
      </trkpt>
      <trkpt lat="49.77431" lon="2.28548">
        <ele>121.9</ele>
        <time>2023-07-12T07:38:20Z</time>
      </trkpt>
      <trkpt lat="49.7743" lon="2.28551">
        <ele>121.9</ele>
        <time>2023-07-12T07:38:21Z</time>
      </trkpt>
      <trkpt lat="49.7743" lon="2.28552">
        <ele>122</ele>
        <time>2023-07-12T07:38:22Z</time>
      </trkpt>
      <trkpt lat="49.77429" lon="2.28553">
        <ele>122</ele>
        <time>2023-07-12T07:38:23Z</time>
      </trkpt>
      <trkpt lat="49.77428" lon="2.28556">
        <ele>122.1</ele>
        <time>2023-07-12T07:38:25Z</time>
      </trkpt>
      <trkpt lat="49.77428" lon="2.28557">
        <ele>122.1</ele>
        <time>2023-07-12T07:38:26Z</time>
      </trkpt>
      <trkpt lat="49.77427" lon="2.28558">
        <ele>122.1</ele>
        <time>2023-07-12T07:38:27Z</time>
      </trkpt>
      <trkpt lat="49.77426" lon="2.28561">
        <ele>122.2</ele>
        <time>2023-07-12T07:38:28Z</time>
      </trkpt>
      <trkpt lat="49.77425" lon="2.28562">
        <ele>122.2</ele>
        <time>2023-07-12T07:38:29Z</time>
      </trkpt>
      <trkpt lat="49.77425" lon="2.28563">
        <ele>122.2</ele>
        <time>2023-07-12T07:38:30Z</time>
      </trkpt>
      <trkpt lat="49.77424" lon="2.28564">
        <ele>122.2</ele>
        <time>2023-07-12T07:38:32Z</time>
      </trkpt>
      <trkpt lat="49.77423" lon="2.28565">
        <ele>122.3</ele>
        <time>2023-07-12T07:38:33Z</time>
      </trkpt>
      <trkpt lat="49.77422" lon="2.28566">
        <ele>122.3</ele>
        <time>2023-07-12T07:38:34Z</time>
      </trkpt>
      <trkpt lat="49.77422" lon="2.28567">
        <ele>122.3</ele>
        <time>2023-07-12T07:38:35Z</time>
      </trkpt>
      <trkpt lat="49.77421" lon="2.28569">
        <ele>122.4</ele>
        <time>2023-07-12T07:38:36Z</time>
      </trkpt>
      <trkpt lat="49.7742" lon="2.2857">
        <ele>122.4</ele>
        <time>2023-07-12T07:38:37Z</time>
      </trkpt>
      <trkpt lat="49.7742" lon="2.28571">
        <ele>122.4</ele>
        <time>2023-07-12T07:38:39Z</time>
      </trkpt>
      <trkpt lat="49.77419" lon="2.28572">
        <ele>122.4</ele>
        <time>2023-07-12T07:38:40Z</time>
      </trkpt>
      <trkpt lat="49.77418" lon="2.28574">
        <ele>122.5</ele>
        <time>2023-07-12T07:38:41Z</time>
      </trkpt>
      <trkpt lat="49.77418" lon="2.28575">
        <ele>122.5</ele>
        <time>2023-07-12T07:38:42Z</time>
      </trkpt>
      <trkpt lat="49.77417" lon="2.28576">
        <ele>122.5</ele>
        <time>2023-07-12T07:38:43Z</time>
      </trkpt>
      <trkpt lat="49.77416" lon="2.28577">
        <ele>122.6</ele>
        <time>2023-07-12T07:38:44Z</time>
      </trkpt>
      <trkpt lat="49.77415" lon="2.28579">
        <ele>122.6</ele>
        <time>2023-07-12T07:38:46Z</time>
      </trkpt>
      <trkpt lat="49.77415" lon="2.2858">
        <ele>122.6</ele>
        <time>2023-07-12T07:38:47Z</time>
      </trkpt>
      <trkpt lat="49.77414" lon="2.28582">
        <ele>122.6</ele>
        <time>2023-07-12T07:38:48Z</time>
      </trkpt>
      <trkpt lat="49.77414" lon="2.28585">
        <ele>122.7</ele>
        <time>2023-07-12T07:38:49Z</time>
      </trkpt>
      <trkpt lat="49.77413" lon="2.28586">
        <ele>122.7</ele>
        <time>2023-07-12T07:38:50Z</time>
      </trkpt>
      <trkpt lat="49.77413" lon="2.28587">
        <ele>122.7</ele>
        <time>2023-07-12T07:38:51Z</time>
      </trkpt>
      <trkpt lat="49.77412" lon="2.28589">
        <ele>122.8</ele>
        <time>2023-07-12T07:38:53Z</time>
      </trkpt>
      <trkpt lat="49.77412" lon="2.28591">
        <ele>122.8</ele>
        <time>2023-07-12T07:38:54Z</time>
      </trkpt>
      <trkpt lat="49.77411" lon="2.28592">
        <ele>122.8</ele>
        <time>2023-07-12T07:38:55Z</time>
      </trkpt>
      <trkpt lat="49.7741" lon="2.28595">
        <ele>122.8</ele>
        <time>2023-07-12T07:38:56Z</time>
      </trkpt>
      <trkpt lat="49.7741" lon="2.28596">
        <ele>122.9</ele>
        <time>2023-07-12T07:38:57Z</time>
      </trkpt>
      <trkpt lat="49.77409" lon="2.28597">
        <ele>122.9</ele>
        <time>2023-07-12T07:38:58Z</time>
      </trkpt>
      <trkpt lat="49.77408" lon="2.286">
        <ele>122.9</ele>
        <time>2023-07-12T07:38:59Z</time>
      </trkpt>
      <trkpt lat="49.77408" lon="2.28601">
        <ele>123</ele>
        <time>2023-07-12T07:39:01Z</time>
      </trkpt>
      <trkpt lat="49.77408" lon="2.28602">
        <ele>123</ele>
        <time>2023-07-12T07:39:02Z</time>
      </trkpt>
      <trkpt lat="49.77407" lon="2.28605">
        <ele>123</ele>
        <time>2023-07-12T07:39:03Z</time>
      </trkpt>
      <trkpt lat="49.77406" lon="2.28606">
        <ele>123</ele>
        <time>2023-07-12T07:39:04Z</time>
      </trkpt>
      <trkpt lat="49.77406" lon="2.28607">
        <ele>123.1</ele>
        <time>2023-07-12T07:39:05Z</time>
      </trkpt>
      <trkpt lat="49.77405" lon="2.2861">
        <ele>123.1</ele>
        <time>2023-07-12T07:39:06Z</time>
      </trkpt>
      <trkpt lat="49.77404" lon="2.28612">
        <ele>123.1</ele>
        <time>2023-07-12T07:39:07Z</time>
      </trkpt>
      <trkpt lat="49.77404" lon="2.28613">
        <ele>123.1</ele>
        <time>2023-07-12T07:39:09Z</time>
      </trkpt>
      <trkpt lat="49.77403" lon="2.28614">
        <ele>123.2</ele>
        <time>2023-07-12T07:39:10Z</time>
      </trkpt>
      <trkpt lat="49.77403" lon="2.28616">
        <ele>123.2</ele>
        <time>2023-07-12T07:39:11Z</time>
      </trkpt>
      <trkpt lat="49.77402" lon="2.28617">
        <ele>123.2</ele>
        <time>2023-07-12T07:39:12Z</time>
      </trkpt>
      <trkpt lat="49.77402" lon="2.28619">
        <ele>123.2</ele>
        <time>2023-07-12T07:39:13Z</time>
      </trkpt>
      <trkpt lat="49.77401" lon="2.2862">
        <ele>123.2</ele>
        <time>2023-07-12T07:39:14Z</time>
      </trkpt>
      <trkpt lat="49.77401" lon="2.28622">
        <ele>123.3</ele>
        <time>2023-07-12T07:39:16Z</time>
      </trkpt>
      <trkpt lat="49.774" lon="2.28625">
        <ele>123.3</ele>
        <time>2023-07-12T07:39:17Z</time>
      </trkpt>
      <trkpt lat="49.77399" lon="2.28626">
        <ele>123.3</ele>
        <time>2023-07-12T07:39:18Z</time>
      </trkpt>
      <trkpt lat="49.77399" lon="2.28627">
        <ele>123.3</ele>
        <time>2023-07-12T07:39:19Z</time>
      </trkpt>
      <trkpt lat="49.77398" lon="2.2863">
        <ele>123.4</ele>
        <time>2023-07-12T07:39:20Z</time>
      </trkpt>
      <trkpt lat="49.77398" lon="2.28631">
        <ele>123.4</ele>
        <time>2023-07-12T07:39:21Z</time>
      </trkpt>
      <trkpt lat="49.77397" lon="2.28633">
        <ele>123.4</ele>
        <time>2023-07-12T07:39:22Z</time>
      </trkpt>
      <trkpt lat="49.77397" lon="2.28634">
        <ele>123.4</ele>
        <time>2023-07-12T07:39:23Z</time>
      </trkpt>
      <trkpt lat="49.77396" lon="2.28636">
        <ele>123.4</ele>
        <time>2023-07-12T07:39:24Z</time>
      </trkpt>
      <trkpt lat="49.77396" lon="2.28638">
        <ele>123.5</ele>
        <time>2023-07-12T07:39:26Z</time>
      </trkpt>
      <trkpt lat="49.77396" lon="2.28639">
        <ele>123.5</ele>
        <time>2023-07-12T07:39:27Z</time>
      </trkpt>
      <trkpt lat="49.77395" lon="2.28641">
        <ele>123.5</ele>
        <time>2023-07-12T07:39:28Z</time>
      </trkpt>
      <trkpt lat="49.77395" lon="2.28643">
        <ele>123.5</ele>
        <time>2023-07-12T07:39:29Z</time>
      </trkpt>
      <trkpt lat="49.77394" lon="2.28646">
        <ele>123.5</ele>
        <time>2023-07-12T07:39:30Z</time>
      </trkpt>
      <trkpt lat="49.77393" lon="2.28647">
        <ele>123.6</ele>
        <time>2023-07-12T07:39:31Z</time>
      </trkpt>
      <trkpt lat="49.77393" lon="2.28648">
        <ele>123.6</ele>
        <time>2023-07-12T07:39:32Z</time>
      </trkpt>
      <trkpt lat="49.77393" lon="2.28649">
        <ele>123.6</ele>
        <time>2023-07-12T07:39:33Z</time>
      </trkpt>
      <trkpt lat="49.77392" lon="2.28651">
        <ele>123.6</ele>
        <time>2023-07-12T07:39:35Z</time>
      </trkpt>
      <trkpt lat="49.77391" lon="2.28652">
        <ele>123.6</ele>
        <time>2023-07-12T07:39:36Z</time>
      </trkpt>
      <trkpt lat="49.7739" lon="2.28655">
        <ele>123.7</ele>
        <time>2023-07-12T07:39:37Z</time>
      </trkpt>
      <trkpt lat="49.77389" lon="2.28656">
        <ele>123.7</ele>
        <time>2023-07-12T07:39:38Z</time>
      </trkpt>
      <trkpt lat="49.77389" lon="2.28657">
        <ele>123.7</ele>
        <time>2023-07-12T07:39:39Z</time>
      </trkpt>
      <trkpt lat="49.77388" lon="2.28658">
        <ele>123.7</ele>
        <time>2023-07-12T07:39:40Z</time>
      </trkpt>
      <trkpt lat="49.77387" lon="2.2866">
        <ele>123.7</ele>
        <time>2023-07-12T07:39:41Z</time>
      </trkpt>
      <trkpt lat="49.77386" lon="2.28662">
        <ele>123.7</ele>
        <time>2023-07-12T07:39:42Z</time>
      </trkpt>
      <trkpt lat="49.77385" lon="2.28663">
        <ele>123.8</ele>
        <time>2023-07-12T07:39:43Z</time>
      </trkpt>
      <trkpt lat="49.77384" lon="2.28665">
        <ele>123.8</ele>
        <time>2023-07-12T07:39:45Z</time>
      </trkpt>
      <trkpt lat="49.77384" lon="2.28666">
        <ele>123.8</ele>
        <time>2023-07-12T07:39:46Z</time>
      </trkpt>
      <trkpt lat="49.77383" lon="2.28667">
        <ele>123.8</ele>
        <time>2023-07-12T07:39:47Z</time>
      </trkpt>
      <trkpt lat="49.77382" lon="2.28669">
        <ele>123.8</ele>
        <time>2023-07-12T07:39:48Z</time>
      </trkpt>
      <trkpt lat="49.77381" lon="2.28671">
        <ele>123.8</ele>
        <time>2023-07-12T07:39:49Z</time>
      </trkpt>
      <trkpt lat="49.7738" lon="2.28672">
        <ele>123.8</ele>
        <time>2023-07-12T07:39:50Z</time>
      </trkpt>
      <trkpt lat="49.77379" lon="2.28674">
        <ele>123.9</ele>
        <time>2023-07-12T07:39:51Z</time>
      </trkpt>
      <trkpt lat="49.77379" lon="2.28676">
        <ele>123.9</ele>
        <time>2023-07-12T07:39:52Z</time>
      </trkpt>
      <trkpt lat="49.77378" lon="2.28677">
        <ele>123.9</ele>
        <time>2023-07-12T07:39:53Z</time>
      </trkpt>
      <trkpt lat="49.77377" lon="2.28679">
        <ele>123.9</ele>
        <time>2023-07-12T07:39:55Z</time>
      </trkpt>
      <trkpt lat="49.77377" lon="2.28681">
        <ele>123.9</ele>
        <time>2023-07-12T07:39:56Z</time>
      </trkpt>
      <trkpt lat="49.77376" lon="2.28682">
        <ele>123.9</ele>
        <time>2023-07-12T07:39:57Z</time>
      </trkpt>
      <trkpt lat="49.77375" lon="2.28683">
        <ele>123.9</ele>
        <time>2023-07-12T07:39:58Z</time>
      </trkpt>
      <trkpt lat="49.77374" lon="2.28686">
        <ele>123.9</ele>
        <time>2023-07-12T07:39:59Z</time>
      </trkpt>
      <trkpt lat="49.77374" lon="2.28688">
        <ele>123.9</ele>
        <time>2023-07-12T07:40:00Z</time>
      </trkpt>
      <trkpt lat="49.77374" lon="2.28689">
        <ele>123.9</ele>
        <time>2023-07-12T07:40:01Z</time>
      </trkpt>
      <trkpt lat="49.77373" lon="2.28693">
        <ele>123.9</ele>
        <time>2023-07-12T07:40:02Z</time>
      </trkpt>
      <trkpt lat="49.77372" lon="2.28694">
        <ele>123.9</ele>
        <time>2023-07-12T07:40:04Z</time>
      </trkpt>
      <trkpt lat="49.77372" lon="2.28695">
        <ele>123.9</ele>
        <time>2023-07-12T07:40:05Z</time>
      </trkpt>
      <trkpt lat="49.77371" lon="2.28697">
        <ele>123.9</ele>
        <time>2023-07-12T07:40:06Z</time>
      </trkpt>
      <trkpt lat="49.77371" lon="2.28698">
        <ele>123.9</ele>
        <time>2023-07-12T07:40:07Z</time>
      </trkpt>
      <trkpt lat="49.7737" lon="2.287">
        <ele>124</ele>
        <time>2023-07-12T07:40:08Z</time>
      </trkpt>
      <trkpt lat="49.7737" lon="2.28702">
        <ele>124</ele>
        <time>2023-07-12T07:40:09Z</time>
      </trkpt>
      <trkpt lat="49.77369" lon="2.28704">
        <ele>124</ele>
        <time>2023-07-12T07:40:10Z</time>
      </trkpt>
      <trkpt lat="49.77368" lon="2.28706">
        <ele>124</ele>
        <time>2023-07-12T07:40:12Z</time>
      </trkpt>
      <trkpt lat="49.77368" lon="2.28707">
        <ele>124</ele>
        <time>2023-07-12T07:40:13Z</time>
      </trkpt>
      <trkpt lat="49.77367" lon="2.28709">
        <ele>124</ele>
        <time>2023-07-12T07:40:14Z</time>
      </trkpt>
      <trkpt lat="49.77366" lon="2.28711">
        <ele>124</ele>
        <time>2023-07-12T07:40:15Z</time>
      </trkpt>
      <trkpt lat="49.77365" lon="2.28713">
        <ele>124</ele>
        <time>2023-07-12T07:40:16Z</time>
      </trkpt>
      <trkpt lat="49.77365" lon="2.28714">
        <ele>124</ele>
        <time>2023-07-12T07:40:17Z</time>
      </trkpt>
      <trkpt lat="49.77364" lon="2.28715">
        <ele>124</ele>
        <time>2023-07-12T07:40:18Z</time>
      </trkpt>
      <trkpt lat="49.77363" lon="2.28718">
        <ele>124</ele>
        <time>2023-07-12T07:40:19Z</time>
      </trkpt>
      <trkpt lat="49.77362" lon="2.28719">
        <ele>124</ele>
        <time>2023-07-12T07:40:21Z</time>
      </trkpt>
      <trkpt lat="49.77362" lon="2.2872">
        <ele>124</ele>
        <time>2023-07-12T07:40:22Z</time>
      </trkpt>
      <trkpt lat="49.77361" lon="2.28723">
        <ele>124</ele>
        <time>2023-07-12T07:40:23Z</time>
      </trkpt>
      <trkpt lat="49.7736" lon="2.28724">
        <ele>124</ele>
        <time>2023-07-12T07:40:24Z</time>
      </trkpt>
      <trkpt lat="49.7736" lon="2.28726">
        <ele>124</ele>
        <time>2023-07-12T07:40:25Z</time>
      </trkpt>
      <trkpt lat="49.77359" lon="2.28729">
        <ele>124</ele>
        <time>2023-07-12T07:40:26Z</time>
      </trkpt>
      <trkpt lat="49.77359" lon="2.2873">
        <ele>124</ele>
        <time>2023-07-12T07:40:27Z</time>
      </trkpt>
      <trkpt lat="49.77358" lon="2.28731">
        <ele>124</ele>
        <time>2023-07-12T07:40:28Z</time>
      </trkpt>
      <trkpt lat="49.77358" lon="2.28733">
        <ele>124</ele>
        <time>2023-07-12T07:40:29Z</time>
      </trkpt>
      <trkpt lat="49.77357" lon="2.28734">
        <ele>124</ele>
        <time>2023-07-12T07:40:30Z</time>
      </trkpt>
      <trkpt lat="49.77357" lon="2.28736">
        <ele>124</ele>
        <time>2023-07-12T07:40:32Z</time>
      </trkpt>
      <trkpt lat="49.77356" lon="2.28737">
        <ele>123.9</ele>
        <time>2023-07-12T07:40:33Z</time>
      </trkpt>
      <trkpt lat="49.77356" lon="2.28738">
        <ele>123.9</ele>
        <time>2023-07-12T07:40:34Z</time>
      </trkpt>
      <trkpt lat="49.77355" lon="2.2874">
        <ele>123.9</ele>
        <time>2023-07-12T07:40:35Z</time>
      </trkpt>
      <trkpt lat="49.77355" lon="2.28741">
        <ele>123.9</ele>
        <time>2023-07-12T07:40:36Z</time>
      </trkpt>
      <trkpt lat="49.77354" lon="2.28743">
        <ele>123.9</ele>
        <time>2023-07-12T07:40:37Z</time>
      </trkpt>
      <trkpt lat="49.77353" lon="2.28744">
        <ele>123.9</ele>
        <time>2023-07-12T07:40:38Z</time>
      </trkpt>
      <trkpt lat="49.77353" lon="2.28746">
        <ele>123.9</ele>
        <time>2023-07-12T07:40:39Z</time>
      </trkpt>
      <trkpt lat="49.77352" lon="2.28748">
        <ele>123.9</ele>
        <time>2023-07-12T07:40:41Z</time>
      </trkpt>
      <trkpt lat="49.77352" lon="2.28749">
        <ele>123.9</ele>
        <time>2023-07-12T07:40:42Z</time>
      </trkpt>
      <trkpt lat="49.77351" lon="2.28752">
        <ele>123.9</ele>
        <time>2023-07-12T07:40:43Z</time>
      </trkpt>
      <trkpt lat="49.7735" lon="2.28753">
        <ele>123.9</ele>
        <time>2023-07-12T07:40:44Z</time>
      </trkpt>
      <trkpt lat="49.7735" lon="2.28754">
        <ele>123.8</ele>
        <time>2023-07-12T07:40:45Z</time>
      </trkpt>
      <trkpt lat="49.77349" lon="2.28757">
        <ele>123.8</ele>
        <time>2023-07-12T07:40:46Z</time>
      </trkpt>
      <trkpt lat="49.77348" lon="2.28758">
        <ele>123.8</ele>
        <time>2023-07-12T07:40:47Z</time>
      </trkpt>
      <trkpt lat="49.77348" lon="2.28759">
        <ele>123.8</ele>
        <time>2023-07-12T07:40:48Z</time>
      </trkpt>
      <trkpt lat="49.77347" lon="2.28761">
        <ele>123.8</ele>
        <time>2023-07-12T07:40:49Z</time>
      </trkpt>
      <trkpt lat="49.77347" lon="2.28763">
        <ele>123.8</ele>
        <time>2023-07-12T07:40:50Z</time>
      </trkpt>
      <trkpt lat="49.77346" lon="2.28764">
        <ele>123.7</ele>
        <time>2023-07-12T07:40:52Z</time>
      </trkpt>
      <trkpt lat="49.77346" lon="2.28766">
        <ele>123.7</ele>
        <time>2023-07-12T07:40:53Z</time>
      </trkpt>
      <trkpt lat="49.77345" lon="2.28767">
        <ele>123.7</ele>
        <time>2023-07-12T07:40:54Z</time>
      </trkpt>
      <trkpt lat="49.77344" lon="2.28769">
        <ele>123.7</ele>
        <time>2023-07-12T07:40:55Z</time>
      </trkpt>
      <trkpt lat="49.77343" lon="2.28771">
        <ele>123.6</ele>
        <time>2023-07-12T07:40:56Z</time>
      </trkpt>
      <trkpt lat="49.77342" lon="2.28772">
        <ele>123.6</ele>
        <time>2023-07-12T07:40:57Z</time>
      </trkpt>
      <trkpt lat="49.77342" lon="2.28773">
        <ele>123.6</ele>
        <time>2023-07-12T07:40:58Z</time>
      </trkpt>
      <trkpt lat="49.77341" lon="2.28776">
        <ele>123.5</ele>
        <time>2023-07-12T07:40:59Z</time>
      </trkpt>
      <trkpt lat="49.7734" lon="2.28777">
        <ele>123.5</ele>
        <time>2023-07-12T07:41:00Z</time>
      </trkpt>
      <trkpt lat="49.7734" lon="2.28778">
        <ele>123.5</ele>
        <time>2023-07-12T07:41:01Z</time>
      </trkpt>
      <trkpt lat="49.77338" lon="2.28781">
        <ele>123.5</ele>
        <time>2023-07-12T07:41:03Z</time>
      </trkpt>
      <trkpt lat="49.77338" lon="2.28781">
        <ele>123.5</ele>
        <time>2023-07-12T07:41:04Z</time>
      </trkpt>
      <trkpt lat="49.77337" lon="2.28782">
        <ele>123.4</ele>
        <time>2023-07-12T07:41:05Z</time>
      </trkpt>
      <trkpt lat="49.77336" lon="2.28784">
        <ele>123.4</ele>
        <time>2023-07-12T07:41:06Z</time>
      </trkpt>
      <trkpt lat="49.77335" lon="2.28786">
        <ele>123.4</ele>
        <time>2023-07-12T07:41:07Z</time>
      </trkpt>
      <trkpt lat="49.77335" lon="2.28788">
        <ele>123.4</ele>
        <time>2023-07-12T07:41:08Z</time>
      </trkpt>
      <trkpt lat="49.77334" lon="2.2879">
        <ele>123.3</ele>
        <time>2023-07-12T07:41:09Z</time>
      </trkpt>
      <trkpt lat="49.77332" lon="2.28795">
        <ele>123.3</ele>
        <time>2023-07-12T07:41:11Z</time>
      </trkpt>
      <trkpt lat="49.77332" lon="2.28796">
        <ele>123.3</ele>
        <time>2023-07-12T07:41:13Z</time>
      </trkpt>
      <trkpt lat="49.77331" lon="2.28797">
        <ele>123.2</ele>
        <time>2023-07-12T07:41:14Z</time>
      </trkpt>
      <trkpt lat="49.77331" lon="2.28799">
        <ele>123.2</ele>
        <time>2023-07-12T07:41:15Z</time>
      </trkpt>
      <trkpt lat="49.7733" lon="2.28801">
        <ele>123.2</ele>
        <time>2023-07-12T07:41:16Z</time>
      </trkpt>
      <trkpt lat="49.77329" lon="2.28802">
        <ele>123.2</ele>
        <time>2023-07-12T07:41:17Z</time>
      </trkpt>
      <trkpt lat="49.77329" lon="2.28804">
        <ele>123.2</ele>
        <time>2023-07-12T07:41:18Z</time>
      </trkpt>
      <trkpt lat="49.77328" lon="2.28807">
        <ele>123.2</ele>
        <time>2023-07-12T07:41:19Z</time>
      </trkpt>
      <trkpt lat="49.77328" lon="2.28808">
        <ele>123.2</ele>
        <time>2023-07-12T07:41:20Z</time>
      </trkpt>
      <trkpt lat="49.77327" lon="2.2881">
        <ele>123.1</ele>
        <time>2023-07-12T07:41:21Z</time>
      </trkpt>
      <trkpt lat="49.77327" lon="2.28812">
        <ele>123.1</ele>
        <time>2023-07-12T07:41:22Z</time>
      </trkpt>
      <trkpt lat="49.77326" lon="2.28814">
        <ele>123.1</ele>
        <time>2023-07-12T07:41:23Z</time>
      </trkpt>
      <trkpt lat="49.77326" lon="2.28816">
        <ele>123.1</ele>
        <time>2023-07-12T07:41:25Z</time>
      </trkpt>
      <trkpt lat="49.77325" lon="2.28817">
        <ele>123.1</ele>
        <time>2023-07-12T07:41:26Z</time>
      </trkpt>
      <trkpt lat="49.77325" lon="2.28819">
        <ele>123.1</ele>
        <time>2023-07-12T07:41:27Z</time>
      </trkpt>
      <trkpt lat="49.77324" lon="2.28821">
        <ele>123.1</ele>
        <time>2023-07-12T07:41:28Z</time>
      </trkpt>
      <trkpt lat="49.77323" lon="2.28824">
        <ele>123</ele>
        <time>2023-07-12T07:41:29Z</time>
      </trkpt>
      <trkpt lat="49.77323" lon="2.28825">
        <ele>123</ele>
        <time>2023-07-12T07:41:30Z</time>
      </trkpt>
      <trkpt lat="49.77323" lon="2.28826">
        <ele>123</ele>
        <time>2023-07-12T07:41:31Z</time>
      </trkpt>
      <trkpt lat="49.77322" lon="2.28828">
        <ele>123</ele>
        <time>2023-07-12T07:41:32Z</time>
      </trkpt>
      <trkpt lat="49.77322" lon="2.2883">
        <ele>123</ele>
        <time>2023-07-12T07:41:33Z</time>
      </trkpt>
      <trkpt lat="49.77321" lon="2.28832">
        <ele>123</ele>
        <time>2023-07-12T07:41:35Z</time>
      </trkpt>
      <trkpt lat="49.7732" lon="2.28834">
        <ele>123</ele>
        <time>2023-07-12T07:41:36Z</time>
      </trkpt>
      <trkpt lat="49.7732" lon="2.28835">
        <ele>123</ele>
        <time>2023-07-12T07:41:37Z</time>
      </trkpt>
      <trkpt lat="49.77319" lon="2.28837">
        <ele>123</ele>
        <time>2023-07-12T07:41:38Z</time>
      </trkpt>
      <trkpt lat="49.77318" lon="2.28839">
        <ele>123</ele>
        <time>2023-07-12T07:41:39Z</time>
      </trkpt>
      <trkpt lat="49.77318" lon="2.2884">
        <ele>123</ele>
        <time>2023-07-12T07:41:40Z</time>
      </trkpt>
      <trkpt lat="49.77317" lon="2.28842">
        <ele>123</ele>
        <time>2023-07-12T07:41:41Z</time>
      </trkpt>
      <trkpt lat="49.77317" lon="2.28843">
        <ele>123</ele>
        <time>2023-07-12T07:41:42Z</time>
      </trkpt>
      <trkpt lat="49.77316" lon="2.28845">
        <ele>122.9</ele>
        <time>2023-07-12T07:41:43Z</time>
      </trkpt>
      <trkpt lat="49.77316" lon="2.28846">
        <ele>122.9</ele>
        <time>2023-07-12T07:41:45Z</time>
      </trkpt>
      <trkpt lat="49.77315" lon="2.28847">
        <ele>122.9</ele>
        <time>2023-07-12T07:41:46Z</time>
      </trkpt>
      <trkpt lat="49.77315" lon="2.28848">
        <ele>122.9</ele>
        <time>2023-07-12T07:41:47Z</time>
      </trkpt>
      <trkpt lat="49.77314" lon="2.2885">
        <ele>122.9</ele>
        <time>2023-07-12T07:41:48Z</time>
      </trkpt>
      <trkpt lat="49.77314" lon="2.28852">
        <ele>122.9</ele>
        <time>2023-07-12T07:41:49Z</time>
      </trkpt>
      <trkpt lat="49.77313" lon="2.28853">
        <ele>122.9</ele>
        <time>2023-07-12T07:41:50Z</time>
      </trkpt>
      <trkpt lat="49.77313" lon="2.28855">
        <ele>122.9</ele>
        <time>2023-07-12T07:41:51Z</time>
      </trkpt>
      <trkpt lat="49.77312" lon="2.28857">
        <ele>122.9</ele>
        <time>2023-07-12T07:41:52Z</time>
      </trkpt>
      <trkpt lat="49.77312" lon="2.28859">
        <ele>122.9</ele>
        <time>2023-07-12T07:41:54Z</time>
      </trkpt>
      <trkpt lat="49.77311" lon="2.2886">
        <ele>122.9</ele>
        <time>2023-07-12T07:41:55Z</time>
      </trkpt>
      <trkpt lat="49.77311" lon="2.28862">
        <ele>122.9</ele>
        <time>2023-07-12T07:41:56Z</time>
      </trkpt>
      <trkpt lat="49.77311" lon="2.28863">
        <ele>122.9</ele>
        <time>2023-07-12T07:41:57Z</time>
      </trkpt>
      <trkpt lat="49.77311" lon="2.28865">
        <ele>122.9</ele>
        <time>2023-07-12T07:41:58Z</time>
      </trkpt>
      <trkpt lat="49.7731" lon="2.28868">
        <ele>122.9</ele>
        <time>2023-07-12T07:41:59Z</time>
      </trkpt>
      <trkpt lat="49.77309" lon="2.2887">
        <ele>122.9</ele>
        <time>2023-07-12T07:42:00Z</time>
      </trkpt>
      <trkpt lat="49.77309" lon="2.28871">
        <ele>122.9</ele>
        <time>2023-07-12T07:42:01Z</time>
      </trkpt>
      <trkpt lat="49.77308" lon="2.28874">
        <ele>122.9</ele>
        <time>2023-07-12T07:42:02Z</time>
      </trkpt>
      <trkpt lat="49.77308" lon="2.28875">
        <ele>122.9</ele>
        <time>2023-07-12T07:42:03Z</time>
      </trkpt>
      <trkpt lat="49.77307" lon="2.28876">
        <ele>122.9</ele>
        <time>2023-07-12T07:42:04Z</time>
      </trkpt>
      <trkpt lat="49.77307" lon="2.28878">
        <ele>122.9</ele>
        <time>2023-07-12T07:42:06Z</time>
      </trkpt>
      <trkpt lat="49.77306" lon="2.28879">
        <ele>122.9</ele>
        <time>2023-07-12T07:42:07Z</time>
      </trkpt>
      <trkpt lat="49.77306" lon="2.28881">
        <ele>122.9</ele>
        <time>2023-07-12T07:42:08Z</time>
      </trkpt>
      <trkpt lat="49.77305" lon="2.28884">
        <ele>122.9</ele>
        <time>2023-07-12T07:42:09Z</time>
      </trkpt>
      <trkpt lat="49.77305" lon="2.28885">
        <ele>122.9</ele>
        <time>2023-07-12T07:42:10Z</time>
      </trkpt>
      <trkpt lat="49.77305" lon="2.28887">
        <ele>122.9</ele>
        <time>2023-07-12T07:42:11Z</time>
      </trkpt>
      <trkpt lat="49.77305" lon="2.2889">
        <ele>122.9</ele>
        <time>2023-07-12T07:42:12Z</time>
      </trkpt>
      <trkpt lat="49.77304" lon="2.28891">
        <ele>122.9</ele>
        <time>2023-07-12T07:42:13Z</time>
      </trkpt>
      <trkpt lat="49.77304" lon="2.28892">
        <ele>122.9</ele>
        <time>2023-07-12T07:42:14Z</time>
      </trkpt>
      <trkpt lat="49.77304" lon="2.28894">
        <ele>122.9</ele>
        <time>2023-07-12T07:42:16Z</time>
      </trkpt>
      <trkpt lat="49.77304" lon="2.28896">
        <ele>122.9</ele>
        <time>2023-07-12T07:42:17Z</time>
      </trkpt>
      <trkpt lat="49.77304" lon="2.28898">
        <ele>122.9</ele>
        <time>2023-07-12T07:42:18Z</time>
      </trkpt>
      <trkpt lat="49.77303" lon="2.28901">
        <ele>122.9</ele>
        <time>2023-07-12T07:42:19Z</time>
      </trkpt>
      <trkpt lat="49.77303" lon="2.28902">
        <ele>122.9</ele>
        <time>2023-07-12T07:42:20Z</time>
      </trkpt>
      <trkpt lat="49.77302" lon="2.28904">
        <ele>122.9</ele>
        <time>2023-07-12T07:42:21Z</time>
      </trkpt>
      <trkpt lat="49.77302" lon="2.28907">
        <ele>122.9</ele>
        <time>2023-07-12T07:42:22Z</time>
      </trkpt>
      <trkpt lat="49.77301" lon="2.28908">
        <ele>122.8</ele>
        <time>2023-07-12T07:42:23Z</time>
      </trkpt>
      <trkpt lat="49.77301" lon="2.28909">
        <ele>122.8</ele>
        <time>2023-07-12T07:42:24Z</time>
      </trkpt>
      <trkpt lat="49.77301" lon="2.28911">
        <ele>122.8</ele>
        <time>2023-07-12T07:42:26Z</time>
      </trkpt>
      <trkpt lat="49.773" lon="2.28912">
        <ele>122.8</ele>
        <time>2023-07-12T07:42:27Z</time>
      </trkpt>
      <trkpt lat="49.773" lon="2.28914">
        <ele>122.8</ele>
        <time>2023-07-12T07:42:28Z</time>
      </trkpt>
      <trkpt lat="49.77299" lon="2.28917">
        <ele>122.8</ele>
        <time>2023-07-12T07:42:29Z</time>
      </trkpt>
      <trkpt lat="49.77298" lon="2.28918">
        <ele>122.8</ele>
        <time>2023-07-12T07:42:30Z</time>
      </trkpt>
      <trkpt lat="49.77298" lon="2.28919">
        <ele>122.8</ele>
        <time>2023-07-12T07:42:31Z</time>
      </trkpt>
      <trkpt lat="49.77298" lon="2.28921">
        <ele>122.8</ele>
        <time>2023-07-12T07:42:32Z</time>
      </trkpt>
      <trkpt lat="49.77297" lon="2.28923">
        <ele>122.8</ele>
        <time>2023-07-12T07:42:34Z</time>
      </trkpt>
      <trkpt lat="49.77297" lon="2.28924">
        <ele>122.8</ele>
        <time>2023-07-12T07:42:35Z</time>
      </trkpt>
      <trkpt lat="49.77296" lon="2.28926">
        <ele>122.7</ele>
        <time>2023-07-12T07:42:36Z</time>
      </trkpt>
      <trkpt lat="49.77296" lon="2.28927">
        <ele>122.7</ele>
        <time>2023-07-12T07:42:37Z</time>
      </trkpt>
      <trkpt lat="49.77295" lon="2.28929">
        <ele>122.7</ele>
        <time>2023-07-12T07:42:38Z</time>
      </trkpt>
      <trkpt lat="49.77294" lon="2.28932">
        <ele>122.7</ele>
        <time>2023-07-12T07:42:39Z</time>
      </trkpt>
      <trkpt lat="49.77294" lon="2.28933">
        <ele>122.7</ele>
        <time>2023-07-12T07:42:40Z</time>
      </trkpt>
      <trkpt lat="49.77293" lon="2.28934">
        <ele>122.7</ele>
        <time>2023-07-12T07:42:41Z</time>
      </trkpt>
      <trkpt lat="49.77292" lon="2.28936">
        <ele>122.7</ele>
        <time>2023-07-12T07:42:42Z</time>
      </trkpt>
      <trkpt lat="49.77292" lon="2.28938">
        <ele>122.6</ele>
        <time>2023-07-12T07:42:43Z</time>
      </trkpt>
      <trkpt lat="49.7729" lon="2.2894">
        <ele>122.6</ele>
        <time>2023-07-12T07:42:45Z</time>
      </trkpt>
      <trkpt lat="49.7729" lon="2.28941">
        <ele>122.6</ele>
        <time>2023-07-12T07:42:46Z</time>
      </trkpt>
      <trkpt lat="49.77289" lon="2.28942">
        <ele>122.6</ele>
        <time>2023-07-12T07:42:47Z</time>
      </trkpt>
      <trkpt lat="49.77288" lon="2.28944">
        <ele>122.6</ele>
        <time>2023-07-12T07:42:48Z</time>
      </trkpt>
      <trkpt lat="49.77287" lon="2.28945">
        <ele>122.6</ele>
        <time>2023-07-12T07:42:49Z</time>
      </trkpt>
      <trkpt lat="49.77286" lon="2.28947">
        <ele>122.6</ele>
        <time>2023-07-12T07:42:50Z</time>
      </trkpt>
      <trkpt lat="49.77286" lon="2.28949">
        <ele>122.5</ele>
        <time>2023-07-12T07:42:51Z</time>
      </trkpt>
      <trkpt lat="49.77285" lon="2.28951">
        <ele>122.5</ele>
        <time>2023-07-12T07:42:52Z</time>
      </trkpt>
      <trkpt lat="49.77284" lon="2.28952">
        <ele>122.5</ele>
        <time>2023-07-12T07:42:53Z</time>
      </trkpt>
      <trkpt lat="49.77283" lon="2.28954">
        <ele>122.5</ele>
        <time>2023-07-12T07:42:55Z</time>
      </trkpt>
      <trkpt lat="49.77282" lon="2.28955">
        <ele>122.5</ele>
        <time>2023-07-12T07:42:56Z</time>
      </trkpt>
      <trkpt lat="49.77282" lon="2.28956">
        <ele>122.5</ele>
        <time>2023-07-12T07:42:57Z</time>
      </trkpt>
      <trkpt lat="49.77281" lon="2.28959">
        <ele>122.4</ele>
        <time>2023-07-12T07:42:58Z</time>
      </trkpt>
      <trkpt lat="49.7728" lon="2.2896">
        <ele>122.4</ele>
        <time>2023-07-12T07:42:59Z</time>
      </trkpt>
      <trkpt lat="49.7728" lon="2.28961">
        <ele>122.4</ele>
        <time>2023-07-12T07:43:00Z</time>
      </trkpt>
      <trkpt lat="49.77279" lon="2.28963">
        <ele>122.4</ele>
        <time>2023-07-12T07:43:01Z</time>
      </trkpt>
      <trkpt lat="49.77278" lon="2.28964">
        <ele>122.4</ele>
        <time>2023-07-12T07:43:02Z</time>
      </trkpt>
      <trkpt lat="49.77277" lon="2.28965">
        <ele>122.3</ele>
        <time>2023-07-12T07:43:04Z</time>
      </trkpt>
      <trkpt lat="49.77276" lon="2.28968">
        <ele>122.3</ele>
        <time>2023-07-12T07:43:05Z</time>
      </trkpt>
      <trkpt lat="49.77276" lon="2.28969">
        <ele>122.3</ele>
        <time>2023-07-12T07:43:06Z</time>
      </trkpt>
      <trkpt lat="49.77276" lon="2.28971">
        <ele>122.3</ele>
        <time>2023-07-12T07:43:07Z</time>
      </trkpt>
      <trkpt lat="49.77275" lon="2.28974">
        <ele>122.2</ele>
        <time>2023-07-12T07:43:08Z</time>
      </trkpt>
      <trkpt lat="49.77275" lon="2.28975">
        <ele>122.2</ele>
        <time>2023-07-12T07:43:09Z</time>
      </trkpt>
      <trkpt lat="49.77274" lon="2.28976">
        <ele>122.2</ele>
        <time>2023-07-12T07:43:10Z</time>
      </trkpt>
      <trkpt lat="49.77273" lon="2.28979">
        <ele>122.2</ele>
        <time>2023-07-12T07:43:12Z</time>
      </trkpt>
      <trkpt lat="49.77273" lon="2.2898">
        <ele>122.2</ele>
        <time>2023-07-12T07:43:13Z</time>
      </trkpt>
      <trkpt lat="49.77273" lon="2.28982">
        <ele>122.1</ele>
        <time>2023-07-12T07:43:14Z</time>
      </trkpt>
      <trkpt lat="49.77272" lon="2.28983">
        <ele>122.1</ele>
        <time>2023-07-12T07:43:15Z</time>
      </trkpt>
      <trkpt lat="49.77271" lon="2.28985">
        <ele>122.1</ele>
        <time>2023-07-12T07:43:16Z</time>
      </trkpt>
      <trkpt lat="49.77271" lon="2.28987">
        <ele>122.1</ele>
        <time>2023-07-12T07:43:18Z</time>
      </trkpt>
      <trkpt lat="49.7727" lon="2.2899">
        <ele>122</ele>
        <time>2023-07-12T07:43:19Z</time>
      </trkpt>
      <trkpt lat="49.77269" lon="2.28993">
        <ele>122</ele>
        <time>2023-07-12T07:43:20Z</time>
      </trkpt>
      <trkpt lat="49.77269" lon="2.28994">
        <ele>122</ele>
        <time>2023-07-12T07:43:21Z</time>
      </trkpt>
      <trkpt lat="49.77268" lon="2.28996">
        <ele>122</ele>
        <time>2023-07-12T07:43:22Z</time>
      </trkpt>
      <trkpt lat="49.77268" lon="2.28998">
        <ele>122</ele>
        <time>2023-07-12T07:43:24Z</time>
      </trkpt>
      <trkpt lat="49.77267" lon="2.29">
        <ele>122</ele>
        <time>2023-07-12T07:43:25Z</time>
      </trkpt>
      <trkpt lat="49.77267" lon="2.29001">
        <ele>122</ele>
        <time>2023-07-12T07:43:26Z</time>
      </trkpt>
      <trkpt lat="49.77266" lon="2.29004">
        <ele>121.9</ele>
        <time>2023-07-12T07:43:27Z</time>
      </trkpt>
      <trkpt lat="49.77266" lon="2.29007">
        <ele>121.9</ele>
        <time>2023-07-12T07:43:29Z</time>
      </trkpt>
      <trkpt lat="49.77266" lon="2.29009">
        <ele>121.9</ele>
        <time>2023-07-12T07:43:30Z</time>
      </trkpt>
      <trkpt lat="49.77265" lon="2.2901">
        <ele>121.9</ele>
        <time>2023-07-12T07:43:31Z</time>
      </trkpt>
      <trkpt lat="49.77265" lon="2.29013">
        <ele>121.8</ele>
        <time>2023-07-12T07:43:32Z</time>
      </trkpt>
      <trkpt lat="49.77264" lon="2.29014">
        <ele>121.8</ele>
        <time>2023-07-12T07:43:33Z</time>
      </trkpt>
      <trkpt lat="49.77264" lon="2.29016">
        <ele>121.8</ele>
        <time>2023-07-12T07:43:34Z</time>
      </trkpt>
      <trkpt lat="49.77264" lon="2.29017">
        <ele>121.8</ele>
        <time>2023-07-12T07:43:35Z</time>
      </trkpt>
      <trkpt lat="49.77264" lon="2.29019">
        <ele>121.8</ele>
        <time>2023-07-12T07:43:36Z</time>
      </trkpt>
      <trkpt lat="49.77263" lon="2.29021">
        <ele>121.8</ele>
        <time>2023-07-12T07:43:38Z</time>
      </trkpt>
      <trkpt lat="49.77263" lon="2.29022">
        <ele>121.8</ele>
        <time>2023-07-12T07:43:39Z</time>
      </trkpt>
      <trkpt lat="49.77263" lon="2.29024">
        <ele>121.8</ele>
        <time>2023-07-12T07:43:40Z</time>
      </trkpt>
      <trkpt lat="49.77262" lon="2.29026">
        <ele>121.7</ele>
        <time>2023-07-12T07:43:41Z</time>
      </trkpt>
      <trkpt lat="49.77262" lon="2.29027">
        <ele>121.7</ele>
        <time>2023-07-12T07:43:42Z</time>
      </trkpt>
      <trkpt lat="49.77261" lon="2.29029">
        <ele>121.7</ele>
        <time>2023-07-12T07:43:43Z</time>
      </trkpt>
      <trkpt lat="49.77261" lon="2.2903">
        <ele>121.7</ele>
        <time>2023-07-12T07:43:44Z</time>
      </trkpt>
      <trkpt lat="49.7726" lon="2.29031">
        <ele>121.7</ele>
        <time>2023-07-12T07:43:45Z</time>
      </trkpt>
      <trkpt lat="49.7726" lon="2.29033">
        <ele>121.7</ele>
        <time>2023-07-12T07:43:47Z</time>
      </trkpt>
      <trkpt lat="49.77259" lon="2.29035">
        <ele>121.7</ele>
        <time>2023-07-12T07:43:48Z</time>
      </trkpt>
      <trkpt lat="49.77258" lon="2.29037">
        <ele>121.6</ele>
        <time>2023-07-12T07:43:49Z</time>
      </trkpt>
      <trkpt lat="49.77258" lon="2.29039">
        <ele>121.6</ele>
        <time>2023-07-12T07:43:50Z</time>
      </trkpt>
      <trkpt lat="49.77257" lon="2.2904">
        <ele>121.6</ele>
        <time>2023-07-12T07:43:51Z</time>
      </trkpt>
      <trkpt lat="49.77257" lon="2.29041">
        <ele>121.6</ele>
        <time>2023-07-12T07:43:52Z</time>
      </trkpt>
      <trkpt lat="49.77256" lon="2.29042">
        <ele>121.6</ele>
        <time>2023-07-12T07:43:54Z</time>
      </trkpt>
      <trkpt lat="49.77256" lon="2.29043">
        <ele>121.6</ele>
        <time>2023-07-12T07:43:55Z</time>
      </trkpt>
      <trkpt lat="49.77255" lon="2.29045">
        <ele>121.6</ele>
        <time>2023-07-12T07:43:56Z</time>
      </trkpt>
      <trkpt lat="49.77254" lon="2.29046">
        <ele>121.5</ele>
        <time>2023-07-12T07:43:57Z</time>
      </trkpt>
      <trkpt lat="49.77254" lon="2.29047">
        <ele>121.5</ele>
        <time>2023-07-12T07:43:58Z</time>
      </trkpt>
      <trkpt lat="49.77253" lon="2.29048">
        <ele>121.5</ele>
        <time>2023-07-12T07:44:00Z</time>
      </trkpt>
      <trkpt lat="49.77253" lon="2.29049">
        <ele>121.5</ele>
        <time>2023-07-12T07:44:01Z</time>
      </trkpt>
      <trkpt lat="49.77252" lon="2.2905">
        <ele>121.5</ele>
        <time>2023-07-12T07:44:02Z</time>
      </trkpt>
      <trkpt lat="49.77251" lon="2.29051">
        <ele>121.5</ele>
        <time>2023-07-12T07:44:03Z</time>
      </trkpt>
      <trkpt lat="49.7725" lon="2.29052">
        <ele>121.5</ele>
        <time>2023-07-12T07:44:04Z</time>
      </trkpt>
      <trkpt lat="49.7725" lon="2.29053">
        <ele>121.4</ele>
        <time>2023-07-12T07:44:05Z</time>
      </trkpt>
      <trkpt lat="49.77249" lon="2.29054">
        <ele>121.4</ele>
        <time>2023-07-12T07:44:07Z</time>
      </trkpt>
      <trkpt lat="49.77249" lon="2.29055">
        <ele>121.4</ele>
        <time>2023-07-12T07:44:08Z</time>
      </trkpt>
      <trkpt lat="49.77248" lon="2.29056">
        <ele>121.4</ele>
        <time>2023-07-12T07:44:09Z</time>
      </trkpt>
      <trkpt lat="49.77248" lon="2.29057">
        <ele>121.4</ele>
        <time>2023-07-12T07:44:10Z</time>
      </trkpt>
      <trkpt lat="49.77247" lon="2.29058">
        <ele>121.4</ele>
        <time>2023-07-12T07:44:12Z</time>
      </trkpt>
      <trkpt lat="49.77246" lon="2.29058">
        <ele>121.4</ele>
        <time>2023-07-12T07:44:13Z</time>
      </trkpt>
      <trkpt lat="49.77245" lon="2.29058">
        <ele>121.4</ele>
        <time>2023-07-12T07:44:14Z</time>
      </trkpt>
      <trkpt lat="49.77245" lon="2.29057">
        <ele>121.3</ele>
        <time>2023-07-12T07:44:15Z</time>
      </trkpt>
      <trkpt lat="49.77244" lon="2.29057">
        <ele>121.3</ele>
        <time>2023-07-12T07:44:17Z</time>
      </trkpt>
      <trkpt lat="49.77244" lon="2.29056">
        <ele>121.3</ele>
        <time>2023-07-12T07:44:18Z</time>
      </trkpt>
      <trkpt lat="49.77243" lon="2.29056">
        <ele>121.3</ele>
        <time>2023-07-12T07:44:20Z</time>
      </trkpt>
      <trkpt lat="49.77243" lon="2.29056">
        <ele>121.3</ele>
        <time>2023-07-12T07:44:21Z</time>
      </trkpt>
      <trkpt lat="49.77243" lon="2.29056">
        <ele>121.3</ele>
        <time>2023-07-12T07:44:22Z</time>
      </trkpt>
      <trkpt lat="49.77243" lon="2.29055">
        <ele>121.3</ele>
        <time>2023-07-12T07:44:24Z</time>
      </trkpt>
      <trkpt lat="49.77243" lon="2.29055">
        <ele>121.3</ele>
        <time>2023-07-12T07:44:25Z</time>
      </trkpt>
      <trkpt lat="49.77243" lon="2.29055">
        <ele>121.3</ele>
        <time>2023-07-12T07:44:27Z</time>
      </trkpt>
      <trkpt lat="49.77243" lon="2.29055">
        <ele>121.3</ele>
        <time>2023-07-12T07:44:28Z</time>
      </trkpt>
      <trkpt lat="49.77243" lon="2.29055">
        <ele>121.3</ele>
        <time>2023-07-12T07:44:30Z</time>
      </trkpt>
      <trkpt lat="49.77243" lon="2.29055">
        <ele>121.3</ele>
        <time>2023-07-12T07:44:31Z</time>
      </trkpt>
      <trkpt lat="49.77243" lon="2.29055">
        <ele>121.3</ele>
        <time>2023-07-12T07:44:32Z</time>
      </trkpt>
      <trkpt lat="49.77243" lon="2.29055">
        <ele>121.3</ele>
        <time>2023-07-12T07:44:33Z</time>
      </trkpt>
      <trkpt lat="49.77243" lon="2.29055">
        <ele>121.3</ele>
        <time>2023-07-12T07:44:34Z</time>
      </trkpt>
      <trkpt lat="49.77243" lon="2.29055">
        <ele>121.3</ele>
        <time>2023-07-12T07:44:35Z</time>
      </trkpt>
      <trkpt lat="49.77243" lon="2.29055">
        <ele>121.3</ele>
        <time>2023-07-12T07:44:36Z</time>
      </trkpt>
      <trkpt lat="49.77243" lon="2.29055">
        <ele>121.3</ele>
        <time>2023-07-12T07:44:37Z</time>
      </trkpt>
      <trkpt lat="49.77243" lon="2.29055">
        <ele>121.3</ele>
        <time>2023-07-12T07:44:38Z</time>
      </trkpt>
      <trkpt lat="49.77243" lon="2.29055">
        <ele>121.3</ele>
        <time>2023-07-12T07:44:39Z</time>
      </trkpt>
      <trkpt lat="49.77243" lon="2.29055">
        <ele>121.3</ele>
        <time>2023-07-12T07:44:40Z</time>
      </trkpt>
      <trkpt lat="49.77243" lon="2.29055">
        <ele>121.3</ele>
        <time>2023-07-12T07:44:41Z</time>
      </trkpt>
      <trkpt lat="49.77243" lon="2.29055">
        <ele>121.3</ele>
        <time>2023-07-12T07:44:42Z</time>
      </trkpt>
      <trkpt lat="49.77243" lon="2.29055">
        <ele>121.3</ele>
        <time>2023-07-12T07:44:43Z</time>
      </trkpt>
      <trkpt lat="49.77243" lon="2.29055">
        <ele>121.3</ele>
        <time>2023-07-12T07:44:44Z</time>
      </trkpt>
      <trkpt lat="49.77243" lon="2.29055">
        <ele>121.3</ele>
        <time>2023-07-12T07:44:45Z</time>
      </trkpt>
      <trkpt lat="49.77243" lon="2.29055">
        <ele>121.3</ele>
        <time>2023-07-12T07:44:46Z</time>
      </trkpt>
      <trkpt lat="49.77243" lon="2.29055">
        <ele>121.3</ele>
        <time>2023-07-12T07:44:47Z</time>
      </trkpt>
      <trkpt lat="49.77243" lon="2.29055">
        <ele>121.3</ele>
        <time>2023-07-12T07:44:48Z</time>
      </trkpt>
      <trkpt lat="49.77243" lon="2.29055">
        <ele>121.3</ele>
        <time>2023-07-12T07:44:49Z</time>
      </trkpt>
      <trkpt lat="49.77243" lon="2.29055">
        <ele>121.3</ele>
        <time>2023-07-12T07:44:50Z</time>
      </trkpt>
      <trkpt lat="49.77243" lon="2.29055">
        <ele>121.3</ele>
        <time>2023-07-12T07:44:51Z</time>
      </trkpt>
      <trkpt lat="49.77243" lon="2.29055">
        <ele>121.3</ele>
        <time>2023-07-12T07:44:52Z</time>
      </trkpt>
      <trkpt lat="49.77243" lon="2.29055">
        <ele>121.3</ele>
        <time>2023-07-12T07:44:53Z</time>
      </trkpt>
      <trkpt lat="49.77243" lon="2.29055">
        <ele>121.3</ele>
        <time>2023-07-12T07:44:54Z</time>
      </trkpt>
      <trkpt lat="49.77243" lon="2.29055">
        <ele>121.3</ele>
        <time>2023-07-12T07:44:55Z</time>
      </trkpt>
      <trkpt lat="49.77243" lon="2.29055">
        <ele>121.3</ele>
        <time>2023-07-12T07:44:56Z</time>
      </trkpt>
      <trkpt lat="49.77243" lon="2.29055">
        <ele>121.3</ele>
        <time>2023-07-12T07:44:57Z</time>
      </trkpt>
      <trkpt lat="49.77243" lon="2.29055">
        <ele>121.3</ele>
        <time>2023-07-12T07:44:58Z</time>
      </trkpt>
      <trkpt lat="49.77243" lon="2.29055">
        <ele>121.3</ele>
        <time>2023-07-12T07:44:59Z</time>
      </trkpt>
      <trkpt lat="49.77243" lon="2.29055">
        <ele>121.3</ele>
        <time>2023-07-12T07:45:00Z</time>
      </trkpt>
      <trkpt lat="49.77243" lon="2.29055">
        <ele>121.3</ele>
        <time>2023-07-12T07:45:01Z</time>
      </trkpt>
      <trkpt lat="49.77243" lon="2.29055">
        <ele>121.3</ele>
        <time>2023-07-12T07:45:02Z</time>
      </trkpt>
      <trkpt lat="49.77243" lon="2.29055">
        <ele>121.3</ele>
        <time>2023-07-12T07:45:03Z</time>
      </trkpt>
      <trkpt lat="49.77243" lon="2.29055">
        <ele>121.3</ele>
        <time>2023-07-12T07:45:04Z</time>
      </trkpt>
      <trkpt lat="49.77243" lon="2.29055">
        <ele>121.3</ele>
        <time>2023-07-12T07:45:05Z</time>
      </trkpt>
      <trkpt lat="49.77243" lon="2.29055">
        <ele>121.3</ele>
        <time>2023-07-12T07:45:06Z</time>
      </trkpt>
      <trkpt lat="49.77243" lon="2.29055">
        <ele>121.3</ele>
        <time>2023-07-12T07:45:07Z</time>
      </trkpt>
      <trkpt lat="49.77245" lon="2.29055">
        <ele>121.3</ele>
        <time>2023-07-12T07:45:08Z</time>
      </trkpt>
      <trkpt lat="49.77246" lon="2.29055">
        <ele>121.3</ele>
        <time>2023-07-12T07:45:09Z</time>
      </trkpt>
      <trkpt lat="49.77247" lon="2.29055">
        <ele>121.2</ele>
        <time>2023-07-12T07:45:10Z</time>
      </trkpt>
      <trkpt lat="49.77247" lon="2.29056">
        <ele>121.2</ele>
        <time>2023-07-12T07:45:11Z</time>
      </trkpt>
      <trkpt lat="49.77247" lon="2.29057">
        <ele>121.2</ele>
        <time>2023-07-12T07:45:13Z</time>
      </trkpt>
      <trkpt lat="49.77246" lon="2.29059">
        <ele>121.2</ele>
        <time>2023-07-12T07:45:14Z</time>
      </trkpt>
      <trkpt lat="49.77246" lon="2.29062">
        <ele>121.2</ele>
        <time>2023-07-12T07:45:16Z</time>
      </trkpt>
      <trkpt lat="49.77246" lon="2.29064">
        <ele>121.2</ele>
        <time>2023-07-12T07:45:17Z</time>
      </trkpt>
      <trkpt lat="49.77245" lon="2.29067">
        <ele>121.2</ele>
        <time>2023-07-12T07:45:18Z</time>
      </trkpt>
      <trkpt lat="49.77245" lon="2.29069">
        <ele>121.2</ele>
        <time>2023-07-12T07:45:20Z</time>
      </trkpt>
      <trkpt lat="49.77245" lon="2.2907">
        <ele>121.2</ele>
        <time>2023-07-12T07:45:21Z</time>
      </trkpt>
      <trkpt lat="49.77245" lon="2.29071">
        <ele>121.1</ele>
        <time>2023-07-12T07:45:22Z</time>
      </trkpt>
      <trkpt lat="49.77245" lon="2.29072">
        <ele>121.1</ele>
        <time>2023-07-12T07:45:23Z</time>
      </trkpt>
      <trkpt lat="49.77245" lon="2.29073">
        <ele>121.1</ele>
        <time>2023-07-12T07:45:24Z</time>
      </trkpt>
      <trkpt lat="49.77245" lon="2.29074">
        <ele>121.1</ele>
        <time>2023-07-12T07:45:25Z</time>
      </trkpt>
      <trkpt lat="49.77246" lon="2.29076">
        <ele>121</ele>
        <time>2023-07-12T07:45:27Z</time>
      </trkpt>
      <trkpt lat="49.77246" lon="2.29076">
        <ele>121</ele>
        <time>2023-07-12T07:45:28Z</time>
      </trkpt>
      <trkpt lat="49.77247" lon="2.29078">
        <ele>121</ele>
        <time>2023-07-12T07:45:29Z</time>
      </trkpt>
      <trkpt lat="49.77248" lon="2.2908">
        <ele>120.9</ele>
        <time>2023-07-12T07:45:30Z</time>
      </trkpt>
      <trkpt lat="49.77248" lon="2.29081">
        <ele>120.9</ele>
        <time>2023-07-12T07:45:31Z</time>
      </trkpt>
      <trkpt lat="49.77249" lon="2.29083">
        <ele>120.9</ele>
        <time>2023-07-12T07:45:33Z</time>
      </trkpt>
      <trkpt lat="49.77249" lon="2.29084">
        <ele>120.9</ele>
        <time>2023-07-12T07:45:34Z</time>
      </trkpt>
      <trkpt lat="49.7725" lon="2.29085">
        <ele>120.8</ele>
        <time>2023-07-12T07:45:35Z</time>
      </trkpt>
      <trkpt lat="49.77251" lon="2.29086">
        <ele>120.8</ele>
        <time>2023-07-12T07:45:36Z</time>
      </trkpt>
      <trkpt lat="49.77252" lon="2.29087">
        <ele>120.7</ele>
        <time>2023-07-12T07:45:37Z</time>
      </trkpt>
      <trkpt lat="49.77253" lon="2.29088">
        <ele>120.7</ele>
        <time>2023-07-12T07:45:38Z</time>
      </trkpt>
      <trkpt lat="49.77254" lon="2.29089">
        <ele>120.7</ele>
        <time>2023-07-12T07:45:40Z</time>
      </trkpt>
      <trkpt lat="49.77255" lon="2.2909">
        <ele>120.6</ele>
        <time>2023-07-12T07:45:41Z</time>
      </trkpt>
      <trkpt lat="49.77257" lon="2.29092">
        <ele>120.6</ele>
        <time>2023-07-12T07:45:42Z</time>
      </trkpt>
      <trkpt lat="49.77258" lon="2.29093">
        <ele>120.5</ele>
        <time>2023-07-12T07:45:43Z</time>
      </trkpt>
      <trkpt lat="49.77259" lon="2.29094">
        <ele>120.5</ele>
        <time>2023-07-12T07:45:44Z</time>
      </trkpt>
      <trkpt lat="49.7726" lon="2.29096">
        <ele>120.4</ele>
        <time>2023-07-12T07:45:45Z</time>
      </trkpt>
      <trkpt lat="49.77261" lon="2.29097">
        <ele>120.4</ele>
        <time>2023-07-12T07:45:46Z</time>
      </trkpt>
      <trkpt lat="49.77262" lon="2.29099">
        <ele>120.3</ele>
        <time>2023-07-12T07:45:47Z</time>
      </trkpt>
      <trkpt lat="49.77263" lon="2.291">
        <ele>120.3</ele>
        <time>2023-07-12T07:45:48Z</time>
      </trkpt>
      <trkpt lat="49.77264" lon="2.29102">
        <ele>120.3</ele>
        <time>2023-07-12T07:45:50Z</time>
      </trkpt>
      <trkpt lat="49.77265" lon="2.29103">
        <ele>120.2</ele>
        <time>2023-07-12T07:45:51Z</time>
      </trkpt>
      <trkpt lat="49.77266" lon="2.29104">
        <ele>120.2</ele>
        <time>2023-07-12T07:45:52Z</time>
      </trkpt>
      <trkpt lat="49.77267" lon="2.29106">
        <ele>120.2</ele>
        <time>2023-07-12T07:45:53Z</time>
      </trkpt>
      <trkpt lat="49.77269" lon="2.29108">
        <ele>120.1</ele>
        <time>2023-07-12T07:45:55Z</time>
      </trkpt>
      <trkpt lat="49.7727" lon="2.2911">
        <ele>120.1</ele>
        <time>2023-07-12T07:45:57Z</time>
      </trkpt>
      <trkpt lat="49.7727" lon="2.29111">
        <ele>120</ele>
        <time>2023-07-12T07:45:58Z</time>
      </trkpt>
      <trkpt lat="49.77271" lon="2.29113">
        <ele>120</ele>
        <time>2023-07-12T07:45:59Z</time>
      </trkpt>
      <trkpt lat="49.77272" lon="2.29114">
        <ele>120</ele>
        <time>2023-07-12T07:46:00Z</time>
      </trkpt>
      <trkpt lat="49.77273" lon="2.29115">
        <ele>120</ele>
        <time>2023-07-12T07:46:01Z</time>
      </trkpt>
      <trkpt lat="49.77274" lon="2.29116">
        <ele>119.9</ele>
        <time>2023-07-12T07:46:02Z</time>
      </trkpt>
      <trkpt lat="49.77275" lon="2.29117">
        <ele>119.9</ele>
        <time>2023-07-12T07:46:03Z</time>
      </trkpt>
      <trkpt lat="49.77275" lon="2.29119">
        <ele>119.9</ele>
        <time>2023-07-12T07:46:05Z</time>
      </trkpt>
      <trkpt lat="49.77276" lon="2.2912">
        <ele>119.8</ele>
        <time>2023-07-12T07:46:06Z</time>
      </trkpt>
      <trkpt lat="49.77277" lon="2.29121">
        <ele>119.8</ele>
        <time>2023-07-12T07:46:07Z</time>
      </trkpt>
      <trkpt lat="49.77278" lon="2.29122">
        <ele>119.8</ele>
        <time>2023-07-12T07:46:08Z</time>
      </trkpt>
      <trkpt lat="49.77279" lon="2.29123">
        <ele>119.8</ele>
        <time>2023-07-12T07:46:09Z</time>
      </trkpt>
      <trkpt lat="49.7728" lon="2.29124">
        <ele>119.7</ele>
        <time>2023-07-12T07:46:10Z</time>
      </trkpt>
      <trkpt lat="49.7728" lon="2.29124">
        <ele>119.7</ele>
        <time>2023-07-12T07:46:11Z</time>
      </trkpt>
      <trkpt lat="49.77281" lon="2.29125">
        <ele>119.7</ele>
        <time>2023-07-12T07:46:12Z</time>
      </trkpt>
      <trkpt lat="49.77283" lon="2.29127">
        <ele>119.6</ele>
        <time>2023-07-12T07:46:13Z</time>
      </trkpt>
      <trkpt lat="49.77283" lon="2.29127">
        <ele>119.6</ele>
        <time>2023-07-12T07:46:14Z</time>
      </trkpt>
      <trkpt lat="49.77284" lon="2.29128">
        <ele>119.6</ele>
        <time>2023-07-12T07:46:15Z</time>
      </trkpt>
      <trkpt lat="49.77285" lon="2.29129">
        <ele>119.6</ele>
        <time>2023-07-12T07:46:17Z</time>
      </trkpt>
      <trkpt lat="49.77286" lon="2.2913">
        <ele>119.5</ele>
        <time>2023-07-12T07:46:18Z</time>
      </trkpt>
      <trkpt lat="49.77287" lon="2.29131">
        <ele>119.5</ele>
        <time>2023-07-12T07:46:19Z</time>
      </trkpt>
      <trkpt lat="49.77288" lon="2.29132">
        <ele>119.5</ele>
        <time>2023-07-12T07:46:20Z</time>
      </trkpt>
      <trkpt lat="49.77289" lon="2.29133">
        <ele>119.5</ele>
        <time>2023-07-12T07:46:21Z</time>
      </trkpt>
      <trkpt lat="49.7729" lon="2.29134">
        <ele>119.4</ele>
        <time>2023-07-12T07:46:22Z</time>
      </trkpt>
      <trkpt lat="49.77291" lon="2.29135">
        <ele>119.4</ele>
        <time>2023-07-12T07:46:23Z</time>
      </trkpt>
      <trkpt lat="49.77292" lon="2.29136">
        <ele>119.4</ele>
        <time>2023-07-12T07:46:24Z</time>
      </trkpt>
      <trkpt lat="49.77293" lon="2.29137">
        <ele>119.4</ele>
        <time>2023-07-12T07:46:25Z</time>
      </trkpt>
      <trkpt lat="49.77294" lon="2.29139">
        <ele>119.4</ele>
        <time>2023-07-12T07:46:27Z</time>
      </trkpt>
      <trkpt lat="49.77295" lon="2.2914">
        <ele>119.3</ele>
        <time>2023-07-12T07:46:28Z</time>
      </trkpt>
      <trkpt lat="49.77295" lon="2.29141">
        <ele>119.3</ele>
        <time>2023-07-12T07:46:29Z</time>
      </trkpt>
      <trkpt lat="49.77296" lon="2.29142">
        <ele>119.3</ele>
        <time>2023-07-12T07:46:30Z</time>
      </trkpt>
      <trkpt lat="49.77297" lon="2.29143">
        <ele>119.3</ele>
        <time>2023-07-12T07:46:31Z</time>
      </trkpt>
      <trkpt lat="49.77297" lon="2.29144">
        <ele>119.3</ele>
        <time>2023-07-12T07:46:32Z</time>
      </trkpt>
      <trkpt lat="49.77298" lon="2.29145">
        <ele>119.3</ele>
        <time>2023-07-12T07:46:33Z</time>
      </trkpt>
      <trkpt lat="49.773" lon="2.29146">
        <ele>119.3</ele>
        <time>2023-07-12T07:46:35Z</time>
      </trkpt>
      <trkpt lat="49.77301" lon="2.29147">
        <ele>119.3</ele>
        <time>2023-07-12T07:46:36Z</time>
      </trkpt>
      <trkpt lat="49.77302" lon="2.29148">
        <ele>119.3</ele>
        <time>2023-07-12T07:46:37Z</time>
      </trkpt>
      <trkpt lat="49.77303" lon="2.29149">
        <ele>119.3</ele>
        <time>2023-07-12T07:46:38Z</time>
      </trkpt>
      <trkpt lat="49.77304" lon="2.2915">
        <ele>119.3</ele>
        <time>2023-07-12T07:46:39Z</time>
      </trkpt>
      <trkpt lat="49.77305" lon="2.2915">
        <ele>119.3</ele>
        <time>2023-07-12T07:46:40Z</time>
      </trkpt>
      <trkpt lat="49.77306" lon="2.29151">
        <ele>119.3</ele>
        <time>2023-07-12T07:46:41Z</time>
      </trkpt>
      <trkpt lat="49.77307" lon="2.29152">
        <ele>119.3</ele>
        <time>2023-07-12T07:46:42Z</time>
      </trkpt>
      <trkpt lat="49.77307" lon="2.29153">
        <ele>119.3</ele>
        <time>2023-07-12T07:46:43Z</time>
      </trkpt>
      <trkpt lat="49.77308" lon="2.29154">
        <ele>119.3</ele>
        <time>2023-07-12T07:46:44Z</time>
      </trkpt>
      <trkpt lat="49.77309" lon="2.29155">
        <ele>119.3</ele>
        <time>2023-07-12T07:46:46Z</time>
      </trkpt>
      <trkpt lat="49.7731" lon="2.29156">
        <ele>119.3</ele>
        <time>2023-07-12T07:46:47Z</time>
      </trkpt>
      <trkpt lat="49.77311" lon="2.29158">
        <ele>119.3</ele>
        <time>2023-07-12T07:46:48Z</time>
      </trkpt>
      <trkpt lat="49.77312" lon="2.29159">
        <ele>119.4</ele>
        <time>2023-07-12T07:46:49Z</time>
      </trkpt>
      <trkpt lat="49.77313" lon="2.2916">
        <ele>119.4</ele>
        <time>2023-07-12T07:46:51Z</time>
      </trkpt>
      <trkpt lat="49.77313" lon="2.29161">
        <ele>119.4</ele>
        <time>2023-07-12T07:46:52Z</time>
      </trkpt>
      <trkpt lat="49.77315" lon="2.29163">
        <ele>119.4</ele>
        <time>2023-07-12T07:46:53Z</time>
      </trkpt>
      <trkpt lat="49.77316" lon="2.29164">
        <ele>119.4</ele>
        <time>2023-07-12T07:46:55Z</time>
      </trkpt>
      <trkpt lat="49.77317" lon="2.29166">
        <ele>119.4</ele>
        <time>2023-07-12T07:46:56Z</time>
      </trkpt>
      <trkpt lat="49.77318" lon="2.29167">
        <ele>119.5</ele>
        <time>2023-07-12T07:46:57Z</time>
      </trkpt>
      <trkpt lat="49.77319" lon="2.29169">
        <ele>119.5</ele>
        <time>2023-07-12T07:46:59Z</time>
      </trkpt>
      <trkpt lat="49.7732" lon="2.2917">
        <ele>119.5</ele>
        <time>2023-07-12T07:47:00Z</time>
      </trkpt>
      <trkpt lat="49.77321" lon="2.29171">
        <ele>119.5</ele>
        <time>2023-07-12T07:47:01Z</time>
      </trkpt>
      <trkpt lat="49.77322" lon="2.29173">
        <ele>119.5</ele>
        <time>2023-07-12T07:47:02Z</time>
      </trkpt>
      <trkpt lat="49.77323" lon="2.29175">
        <ele>119.6</ele>
        <time>2023-07-12T07:47:03Z</time>
      </trkpt>
      <trkpt lat="49.77324" lon="2.29176">
        <ele>119.6</ele>
        <time>2023-07-12T07:47:04Z</time>
      </trkpt>
      <trkpt lat="49.77325" lon="2.29177">
        <ele>119.6</ele>
        <time>2023-07-12T07:47:05Z</time>
      </trkpt>
      <trkpt lat="49.77325" lon="2.29178">
        <ele>119.6</ele>
        <time>2023-07-12T07:47:06Z</time>
      </trkpt>
      <trkpt lat="49.77326" lon="2.2918">
        <ele>119.7</ele>
        <time>2023-07-12T07:47:08Z</time>
      </trkpt>
      <trkpt lat="49.77327" lon="2.29181">
        <ele>119.7</ele>
        <time>2023-07-12T07:47:09Z</time>
      </trkpt>
      <trkpt lat="49.77328" lon="2.29183">
        <ele>119.7</ele>
        <time>2023-07-12T07:47:10Z</time>
      </trkpt>
      <trkpt lat="49.77329" lon="2.29184">
        <ele>119.8</ele>
        <time>2023-07-12T07:47:11Z</time>
      </trkpt>
      <trkpt lat="49.7733" lon="2.29185">
        <ele>119.8</ele>
        <time>2023-07-12T07:47:12Z</time>
      </trkpt>
      <trkpt lat="49.7733" lon="2.29186">
        <ele>119.8</ele>
        <time>2023-07-12T07:47:13Z</time>
      </trkpt>
      <trkpt lat="49.77331" lon="2.29187">
        <ele>119.9</ele>
        <time>2023-07-12T07:47:14Z</time>
      </trkpt>
      <trkpt lat="49.77332" lon="2.29188">
        <ele>119.9</ele>
        <time>2023-07-12T07:47:16Z</time>
      </trkpt>
      <trkpt lat="49.77334" lon="2.29191">
        <ele>120</ele>
        <time>2023-07-12T07:47:17Z</time>
      </trkpt>
      <trkpt lat="49.77335" lon="2.29191">
        <ele>120</ele>
        <time>2023-07-12T07:47:18Z</time>
      </trkpt>
      <trkpt lat="49.77335" lon="2.29192">
        <ele>120</ele>
        <time>2023-07-12T07:47:19Z</time>
      </trkpt>
      <trkpt lat="49.77336" lon="2.29194">
        <ele>120.1</ele>
        <time>2023-07-12T07:47:20Z</time>
      </trkpt>
      <trkpt lat="49.77337" lon="2.29195">
        <ele>120.1</ele>
        <time>2023-07-12T07:47:21Z</time>
      </trkpt>
      <trkpt lat="49.77338" lon="2.29197">
        <ele>120.2</ele>
        <time>2023-07-12T07:47:23Z</time>
      </trkpt>
      <trkpt lat="49.77338" lon="2.29197">
        <ele>120.2</ele>
        <time>2023-07-12T07:47:24Z</time>
      </trkpt>
      <trkpt lat="49.77339" lon="2.29199">
        <ele>120.2</ele>
        <time>2023-07-12T07:47:25Z</time>
      </trkpt>
      <trkpt lat="49.7734" lon="2.292">
        <ele>120.3</ele>
        <time>2023-07-12T07:47:26Z</time>
      </trkpt>
      <trkpt lat="49.77341" lon="2.29201">
        <ele>120.3</ele>
        <time>2023-07-12T07:47:27Z</time>
      </trkpt>
      <trkpt lat="49.77342" lon="2.29202">
        <ele>120.4</ele>
        <time>2023-07-12T07:47:28Z</time>
      </trkpt>
      <trkpt lat="49.77343" lon="2.29203">
        <ele>120.4</ele>
        <time>2023-07-12T07:47:29Z</time>
      </trkpt>
      <trkpt lat="49.77344" lon="2.29204">
        <ele>120.4</ele>
        <time>2023-07-12T07:47:30Z</time>
      </trkpt>
      <trkpt lat="49.77345" lon="2.29205">
        <ele>120.5</ele>
        <time>2023-07-12T07:47:32Z</time>
      </trkpt>
      <trkpt lat="49.77346" lon="2.29206">
        <ele>120.5</ele>
        <time>2023-07-12T07:47:33Z</time>
      </trkpt>
      <trkpt lat="49.77347" lon="2.29208">
        <ele>120.5</ele>
        <time>2023-07-12T07:47:34Z</time>
      </trkpt>
      <trkpt lat="49.77348" lon="2.29208">
        <ele>120.6</ele>
        <time>2023-07-12T07:47:35Z</time>
      </trkpt>
      <trkpt lat="49.77349" lon="2.29209">
        <ele>120.6</ele>
        <time>2023-07-12T07:47:36Z</time>
      </trkpt>
      <trkpt lat="49.7735" lon="2.2921">
        <ele>120.6</ele>
        <time>2023-07-12T07:47:37Z</time>
      </trkpt>
      <trkpt lat="49.77351" lon="2.29211">
        <ele>120.7</ele>
        <time>2023-07-12T07:47:38Z</time>
      </trkpt>
      <trkpt lat="49.77352" lon="2.29212">
        <ele>120.7</ele>
        <time>2023-07-12T07:47:40Z</time>
      </trkpt>
      <trkpt lat="49.77353" lon="2.29213">
        <ele>120.7</ele>
        <time>2023-07-12T07:47:41Z</time>
      </trkpt>
      <trkpt lat="49.77354" lon="2.29214">
        <ele>120.7</ele>
        <time>2023-07-12T07:47:42Z</time>
      </trkpt>
      <trkpt lat="49.77355" lon="2.29215">
        <ele>120.8</ele>
        <time>2023-07-12T07:47:43Z</time>
      </trkpt>
      <trkpt lat="49.77356" lon="2.29217">
        <ele>120.8</ele>
        <time>2023-07-12T07:47:44Z</time>
      </trkpt>
      <trkpt lat="49.77357" lon="2.29218">
        <ele>120.8</ele>
        <time>2023-07-12T07:47:45Z</time>
      </trkpt>
      <trkpt lat="49.77358" lon="2.29219">
        <ele>120.8</ele>
        <time>2023-07-12T07:47:46Z</time>
      </trkpt>
      <trkpt lat="49.77359" lon="2.2922">
        <ele>120.8</ele>
        <time>2023-07-12T07:47:47Z</time>
      </trkpt>
      <trkpt lat="49.7736" lon="2.29222">
        <ele>120.9</ele>
        <time>2023-07-12T07:47:48Z</time>
      </trkpt>
      <trkpt lat="49.77361" lon="2.29223">
        <ele>120.9</ele>
        <time>2023-07-12T07:47:50Z</time>
      </trkpt>
      <trkpt lat="49.77361" lon="2.29224">
        <ele>120.9</ele>
        <time>2023-07-12T07:47:51Z</time>
      </trkpt>
      <trkpt lat="49.77362" lon="2.29225">
        <ele>120.9</ele>
        <time>2023-07-12T07:47:52Z</time>
      </trkpt>
      <trkpt lat="49.77363" lon="2.29226">
        <ele>120.9</ele>
        <time>2023-07-12T07:47:53Z</time>
      </trkpt>
      <trkpt lat="49.77365" lon="2.29228">
        <ele>121</ele>
        <time>2023-07-12T07:47:54Z</time>
      </trkpt>
      <trkpt lat="49.77366" lon="2.29229">
        <ele>121</ele>
        <time>2023-07-12T07:47:55Z</time>
      </trkpt>
      <trkpt lat="49.77367" lon="2.29229">
        <ele>121</ele>
        <time>2023-07-12T07:47:56Z</time>
      </trkpt>
      <trkpt lat="49.77368" lon="2.29231">
        <ele>121</ele>
        <time>2023-07-12T07:47:57Z</time>
      </trkpt>
      <trkpt lat="49.77369" lon="2.29232">
        <ele>121</ele>
        <time>2023-07-12T07:47:58Z</time>
      </trkpt>
      <trkpt lat="49.7737" lon="2.29233">
        <ele>121</ele>
        <time>2023-07-12T07:48:00Z</time>
      </trkpt>
      <trkpt lat="49.77371" lon="2.29235">
        <ele>121.1</ele>
        <time>2023-07-12T07:48:01Z</time>
      </trkpt>
      <trkpt lat="49.77372" lon="2.29236">
        <ele>121.1</ele>
        <time>2023-07-12T07:48:02Z</time>
      </trkpt>
      <trkpt lat="49.77373" lon="2.29237">
        <ele>121.1</ele>
        <time>2023-07-12T07:48:03Z</time>
      </trkpt>
      <trkpt lat="49.77374" lon="2.29239">
        <ele>121.1</ele>
        <time>2023-07-12T07:48:04Z</time>
      </trkpt>
      <trkpt lat="49.77375" lon="2.2924">
        <ele>121.1</ele>
        <time>2023-07-12T07:48:05Z</time>
      </trkpt>
      <trkpt lat="49.77376" lon="2.29241">
        <ele>121.2</ele>
        <time>2023-07-12T07:48:06Z</time>
      </trkpt>
      <trkpt lat="49.77377" lon="2.29242">
        <ele>121.2</ele>
        <time>2023-07-12T07:48:07Z</time>
      </trkpt>
      <trkpt lat="49.77379" lon="2.29244">
        <ele>121.2</ele>
        <time>2023-07-12T07:48:09Z</time>
      </trkpt>
      <trkpt lat="49.77379" lon="2.29245">
        <ele>121.2</ele>
        <time>2023-07-12T07:48:10Z</time>
      </trkpt>
      <trkpt lat="49.7738" lon="2.29246">
        <ele>121.3</ele>
        <time>2023-07-12T07:48:11Z</time>
      </trkpt>
      <trkpt lat="49.77382" lon="2.29248">
        <ele>121.3</ele>
        <time>2023-07-12T07:48:12Z</time>
      </trkpt>
      <trkpt lat="49.77382" lon="2.29249">
        <ele>121.3</ele>
        <time>2023-07-12T07:48:13Z</time>
      </trkpt>
      <trkpt lat="49.77383" lon="2.29249">
        <ele>121.3</ele>
        <time>2023-07-12T07:48:14Z</time>
      </trkpt>
      <trkpt lat="49.77384" lon="2.2925">
        <ele>121.4</ele>
        <time>2023-07-12T07:48:15Z</time>
      </trkpt>
      <trkpt lat="49.77385" lon="2.29252">
        <ele>121.4</ele>
        <time>2023-07-12T07:48:16Z</time>
      </trkpt>
      <trkpt lat="49.77386" lon="2.29253">
        <ele>121.4</ele>
        <time>2023-07-12T07:48:18Z</time>
      </trkpt>
      <trkpt lat="49.77388" lon="2.29254">
        <ele>121.4</ele>
        <time>2023-07-12T07:48:19Z</time>
      </trkpt>
      <trkpt lat="49.77389" lon="2.29255">
        <ele>121.5</ele>
        <time>2023-07-12T07:48:20Z</time>
      </trkpt>
      <trkpt lat="49.77389" lon="2.29256">
        <ele>121.5</ele>
        <time>2023-07-12T07:48:21Z</time>
      </trkpt>
      <trkpt lat="49.77391" lon="2.29258">
        <ele>121.5</ele>
        <time>2023-07-12T07:48:22Z</time>
      </trkpt>
      <trkpt lat="49.77392" lon="2.29259">
        <ele>121.5</ele>
        <time>2023-07-12T07:48:23Z</time>
      </trkpt>
      <trkpt lat="49.77392" lon="2.29259">
        <ele>121.6</ele>
        <time>2023-07-12T07:48:24Z</time>
      </trkpt>
      <trkpt lat="49.77394" lon="2.2926">
        <ele>121.6</ele>
        <time>2023-07-12T07:48:25Z</time>
      </trkpt>
      <trkpt lat="49.77395" lon="2.29261">
        <ele>121.6</ele>
        <time>2023-07-12T07:48:27Z</time>
      </trkpt>
      <trkpt lat="49.77395" lon="2.29262">
        <ele>121.6</ele>
        <time>2023-07-12T07:48:28Z</time>
      </trkpt>
      <trkpt lat="49.77396" lon="2.29264">
        <ele>121.6</ele>
        <time>2023-07-12T07:48:29Z</time>
      </trkpt>
      <trkpt lat="49.77397" lon="2.29265">
        <ele>121.6</ele>
        <time>2023-07-12T07:48:30Z</time>
      </trkpt>
      <trkpt lat="49.77398" lon="2.29266">
        <ele>121.7</ele>
        <time>2023-07-12T07:48:31Z</time>
      </trkpt>
      <trkpt lat="49.77399" lon="2.29268">
        <ele>121.7</ele>
        <time>2023-07-12T07:48:32Z</time>
      </trkpt>
      <trkpt lat="49.774" lon="2.29269">
        <ele>121.7</ele>
        <time>2023-07-12T07:48:33Z</time>
      </trkpt>
      <trkpt lat="49.774" lon="2.2927">
        <ele>121.7</ele>
        <time>2023-07-12T07:48:34Z</time>
      </trkpt>
      <trkpt lat="49.77401" lon="2.29271">
        <ele>121.7</ele>
        <time>2023-07-12T07:48:36Z</time>
      </trkpt>
      <trkpt lat="49.77402" lon="2.29272">
        <ele>121.7</ele>
        <time>2023-07-12T07:48:37Z</time>
      </trkpt>
      <trkpt lat="49.77403" lon="2.29273">
        <ele>121.7</ele>
        <time>2023-07-12T07:48:38Z</time>
      </trkpt>
      <trkpt lat="49.77404" lon="2.29275">
        <ele>121.7</ele>
        <time>2023-07-12T07:48:39Z</time>
      </trkpt>
      <trkpt lat="49.77405" lon="2.29276">
        <ele>121.7</ele>
        <time>2023-07-12T07:48:40Z</time>
      </trkpt>
      <trkpt lat="49.77406" lon="2.29277">
        <ele>121.8</ele>
        <time>2023-07-12T07:48:42Z</time>
      </trkpt>
      <trkpt lat="49.77408" lon="2.29279">
        <ele>121.8</ele>
        <time>2023-07-12T07:48:43Z</time>
      </trkpt>
      <trkpt lat="49.77409" lon="2.2928">
        <ele>121.8</ele>
        <time>2023-07-12T07:48:44Z</time>
      </trkpt>
      <trkpt lat="49.77409" lon="2.29281">
        <ele>121.8</ele>
        <time>2023-07-12T07:48:45Z</time>
      </trkpt>
      <trkpt lat="49.77411" lon="2.29282">
        <ele>121.8</ele>
        <time>2023-07-12T07:48:46Z</time>
      </trkpt>
      <trkpt lat="49.77412" lon="2.29283">
        <ele>121.8</ele>
        <time>2023-07-12T07:48:48Z</time>
      </trkpt>
      <trkpt lat="49.77413" lon="2.29284">
        <ele>121.8</ele>
        <time>2023-07-12T07:48:49Z</time>
      </trkpt>
      <trkpt lat="49.77414" lon="2.29285">
        <ele>121.8</ele>
        <time>2023-07-12T07:48:50Z</time>
      </trkpt>
      <trkpt lat="49.77415" lon="2.29286">
        <ele>121.8</ele>
        <time>2023-07-12T07:48:51Z</time>
      </trkpt>
      <trkpt lat="49.77417" lon="2.29288">
        <ele>121.8</ele>
        <time>2023-07-12T07:48:53Z</time>
      </trkpt>
      <trkpt lat="49.77417" lon="2.29289">
        <ele>121.8</ele>
        <time>2023-07-12T07:48:54Z</time>
      </trkpt>
      <trkpt lat="49.77418" lon="2.2929">
        <ele>121.8</ele>
        <time>2023-07-12T07:48:55Z</time>
      </trkpt>
      <trkpt lat="49.7742" lon="2.29292">
        <ele>121.8</ele>
        <time>2023-07-12T07:48:56Z</time>
      </trkpt>
      <trkpt lat="49.77421" lon="2.29292">
        <ele>121.8</ele>
        <time>2023-07-12T07:48:57Z</time>
      </trkpt>
      <trkpt lat="49.77421" lon="2.29293">
        <ele>121.9</ele>
        <time>2023-07-12T07:48:58Z</time>
      </trkpt>
      <trkpt lat="49.77422" lon="2.29294">
        <ele>121.9</ele>
        <time>2023-07-12T07:48:59Z</time>
      </trkpt>
      <trkpt lat="49.77423" lon="2.29295">
        <ele>121.9</ele>
        <time>2023-07-12T07:49:00Z</time>
      </trkpt>
      <trkpt lat="49.77424" lon="2.29296">
        <ele>121.9</ele>
        <time>2023-07-12T07:49:01Z</time>
      </trkpt>
      <trkpt lat="49.77426" lon="2.29298">
        <ele>121.9</ele>
        <time>2023-07-12T07:49:02Z</time>
      </trkpt>
      <trkpt lat="49.77427" lon="2.29299">
        <ele>121.9</ele>
        <time>2023-07-12T07:49:04Z</time>
      </trkpt>
      <trkpt lat="49.77427" lon="2.29299">
        <ele>121.9</ele>
        <time>2023-07-12T07:49:05Z</time>
      </trkpt>
      <trkpt lat="49.77429" lon="2.29301">
        <ele>122</ele>
        <time>2023-07-12T07:49:06Z</time>
      </trkpt>
      <trkpt lat="49.7743" lon="2.29302">
        <ele>122</ele>
        <time>2023-07-12T07:49:07Z</time>
      </trkpt>
      <trkpt lat="49.77431" lon="2.29303">
        <ele>122</ele>
        <time>2023-07-12T07:49:08Z</time>
      </trkpt>
      <trkpt lat="49.77432" lon="2.29304">
        <ele>122</ele>
        <time>2023-07-12T07:49:09Z</time>
      </trkpt>
      <trkpt lat="49.77434" lon="2.29306">
        <ele>122</ele>
        <time>2023-07-12T07:49:10Z</time>
      </trkpt>
      <trkpt lat="49.77434" lon="2.29307">
        <ele>122.1</ele>
        <time>2023-07-12T07:49:11Z</time>
      </trkpt>
      <trkpt lat="49.77435" lon="2.29307">
        <ele>122.1</ele>
        <time>2023-07-12T07:49:12Z</time>
      </trkpt>
      <trkpt lat="49.77437" lon="2.29309">
        <ele>122.1</ele>
        <time>2023-07-12T07:49:13Z</time>
      </trkpt>
      <trkpt lat="49.77438" lon="2.2931">
        <ele>122.1</ele>
        <time>2023-07-12T07:49:15Z</time>
      </trkpt>
      <trkpt lat="49.77438" lon="2.2931">
        <ele>122.1</ele>
        <time>2023-07-12T07:49:16Z</time>
      </trkpt>
      <trkpt lat="49.7744" lon="2.29313">
        <ele>122.2</ele>
        <time>2023-07-12T07:49:17Z</time>
      </trkpt>
      <trkpt lat="49.77441" lon="2.29313">
        <ele>122.2</ele>
        <time>2023-07-12T07:49:18Z</time>
      </trkpt>
      <trkpt lat="49.77441" lon="2.29314">
        <ele>122.2</ele>
        <time>2023-07-12T07:49:19Z</time>
      </trkpt>
      <trkpt lat="49.77443" lon="2.29316">
        <ele>122.2</ele>
        <time>2023-07-12T07:49:20Z</time>
      </trkpt>
      <trkpt lat="49.77444" lon="2.29317">
        <ele>122.2</ele>
        <time>2023-07-12T07:49:21Z</time>
      </trkpt>
      <trkpt lat="49.77444" lon="2.29318">
        <ele>122.3</ele>
        <time>2023-07-12T07:49:22Z</time>
      </trkpt>
      <trkpt lat="49.77446" lon="2.2932">
        <ele>122.3</ele>
        <time>2023-07-12T07:49:24Z</time>
      </trkpt>
      <trkpt lat="49.77447" lon="2.29321">
        <ele>122.3</ele>
        <time>2023-07-12T07:49:25Z</time>
      </trkpt>
      <trkpt lat="49.77447" lon="2.29321">
        <ele>122.3</ele>
        <time>2023-07-12T07:49:26Z</time>
      </trkpt>
      <trkpt lat="49.77449" lon="2.29323">
        <ele>122.4</ele>
        <time>2023-07-12T07:49:27Z</time>
      </trkpt>
      <trkpt lat="49.7745" lon="2.29324">
        <ele>122.4</ele>
        <time>2023-07-12T07:49:28Z</time>
      </trkpt>
      <trkpt lat="49.77451" lon="2.29324">
        <ele>122.4</ele>
        <time>2023-07-12T07:49:29Z</time>
      </trkpt>
      <trkpt lat="49.77451" lon="2.29325">
        <ele>122.4</ele>
        <time>2023-07-12T07:49:30Z</time>
      </trkpt>
      <trkpt lat="49.77452" lon="2.29326">
        <ele>122.4</ele>
        <time>2023-07-12T07:49:31Z</time>
      </trkpt>
      <trkpt lat="49.77454" lon="2.29327">
        <ele>122.4</ele>
        <time>2023-07-12T07:49:32Z</time>
      </trkpt>
      <trkpt lat="49.77455" lon="2.29329">
        <ele>122.5</ele>
        <time>2023-07-12T07:49:34Z</time>
      </trkpt>
      <trkpt lat="49.77456" lon="2.2933">
        <ele>122.5</ele>
        <time>2023-07-12T07:49:35Z</time>
      </trkpt>
      <trkpt lat="49.77457" lon="2.29332">
        <ele>122.5</ele>
        <time>2023-07-12T07:49:37Z</time>
      </trkpt>
      <trkpt lat="49.77458" lon="2.29333">
        <ele>122.5</ele>
        <time>2023-07-12T07:49:38Z</time>
      </trkpt>
      <trkpt lat="49.77459" lon="2.29335">
        <ele>122.5</ele>
        <time>2023-07-12T07:49:39Z</time>
      </trkpt>
      <trkpt lat="49.7746" lon="2.29336">
        <ele>122.5</ele>
        <time>2023-07-12T07:49:40Z</time>
      </trkpt>
      <trkpt lat="49.77461" lon="2.29337">
        <ele>122.5</ele>
        <time>2023-07-12T07:49:41Z</time>
      </trkpt>
      <trkpt lat="49.77463" lon="2.29338">
        <ele>122.5</ele>
        <time>2023-07-12T07:49:42Z</time>
      </trkpt>
      <trkpt lat="49.77464" lon="2.2934">
        <ele>122.5</ele>
        <time>2023-07-12T07:49:43Z</time>
      </trkpt>
      <trkpt lat="49.77465" lon="2.29341">
        <ele>122.5</ele>
        <time>2023-07-12T07:49:45Z</time>
      </trkpt>
      <trkpt lat="49.77466" lon="2.29342">
        <ele>122.4</ele>
        <time>2023-07-12T07:49:46Z</time>
      </trkpt>
      <trkpt lat="49.77467" lon="2.29343">
        <ele>122.4</ele>
        <time>2023-07-12T07:49:47Z</time>
      </trkpt>
      <trkpt lat="49.77468" lon="2.29344">
        <ele>122.4</ele>
        <time>2023-07-12T07:49:48Z</time>
      </trkpt>
      <trkpt lat="49.7747" lon="2.29347">
        <ele>122.4</ele>
        <time>2023-07-12T07:49:49Z</time>
      </trkpt>
      <trkpt lat="49.77471" lon="2.29348">
        <ele>122.4</ele>
        <time>2023-07-12T07:49:50Z</time>
      </trkpt>
      <trkpt lat="49.77471" lon="2.29349">
        <ele>122.4</ele>
        <time>2023-07-12T07:49:51Z</time>
      </trkpt>
      <trkpt lat="49.77473" lon="2.29351">
        <ele>122.4</ele>
        <time>2023-07-12T07:49:52Z</time>
      </trkpt>
      <trkpt lat="49.77474" lon="2.29352">
        <ele>122.4</ele>
        <time>2023-07-12T07:49:54Z</time>
      </trkpt>
      <trkpt lat="49.77474" lon="2.29354">
        <ele>122.4</ele>
        <time>2023-07-12T07:49:55Z</time>
      </trkpt>
      <trkpt lat="49.77475" lon="2.29355">
        <ele>122.4</ele>
        <time>2023-07-12T07:49:56Z</time>
      </trkpt>
      <trkpt lat="49.77475" lon="2.29356">
        <ele>122.4</ele>
        <time>2023-07-12T07:49:57Z</time>
      </trkpt>
      <trkpt lat="49.77476" lon="2.29357">
        <ele>122.4</ele>
        <time>2023-07-12T07:49:58Z</time>
      </trkpt>
      <trkpt lat="49.77478" lon="2.29359">
        <ele>122.4</ele>
        <time>2023-07-12T07:49:59Z</time>
      </trkpt>
      <trkpt lat="49.77479" lon="2.2936">
        <ele>122.4</ele>
        <time>2023-07-12T07:50:01Z</time>
      </trkpt>
      <trkpt lat="49.7748" lon="2.29361">
        <ele>122.4</ele>
        <time>2023-07-12T07:50:02Z</time>
      </trkpt>
      <trkpt lat="49.77482" lon="2.29362">
        <ele>122.4</ele>
        <time>2023-07-12T07:50:04Z</time>
      </trkpt>
      <trkpt lat="49.77483" lon="2.29363">
        <ele>122.4</ele>
        <time>2023-07-12T07:50:05Z</time>
      </trkpt>
      <trkpt lat="49.77484" lon="2.29363">
        <ele>122.4</ele>
        <time>2023-07-12T07:50:07Z</time>
      </trkpt>
      <trkpt lat="49.77484" lon="2.29364">
        <ele>122.4</ele>
        <time>2023-07-12T07:50:08Z</time>
      </trkpt>
      <trkpt lat="49.77484" lon="2.29363">
        <ele>122.4</ele>
        <time>2023-07-12T07:50:09Z</time>
      </trkpt>
      <trkpt lat="49.77484" lon="2.29363">
        <ele>122.4</ele>
        <time>2023-07-12T07:50:11Z</time>
      </trkpt>
      <trkpt lat="49.77484" lon="2.29363">
        <ele>122.4</ele>
        <time>2023-07-12T07:50:13Z</time>
      </trkpt>
      <trkpt lat="49.77484" lon="2.29363">
        <ele>122.4</ele>
        <time>2023-07-12T07:50:15Z</time>
      </trkpt>
      <trkpt lat="49.77484" lon="2.29363">
        <ele>122.4</ele>
        <time>2023-07-12T07:50:16Z</time>
      </trkpt>
      <trkpt lat="49.77484" lon="2.29363">
        <ele>122.4</ele>
        <time>2023-07-12T07:50:17Z</time>
      </trkpt>
      <trkpt lat="49.77484" lon="2.29364">
        <ele>122.4</ele>
        <time>2023-07-12T07:50:18Z</time>
      </trkpt>
      <trkpt lat="49.77485" lon="2.29364">
        <ele>122.4</ele>
        <time>2023-07-12T07:50:19Z</time>
      </trkpt>
      <trkpt lat="49.77485" lon="2.29365">
        <ele>122.4</ele>
        <time>2023-07-12T07:50:20Z</time>
      </trkpt>
      <trkpt lat="49.77486" lon="2.29365">
        <ele>122.4</ele>
        <time>2023-07-12T07:50:21Z</time>
      </trkpt>
      <trkpt lat="49.77486" lon="2.29366">
        <ele>122.4</ele>
        <time>2023-07-12T07:50:22Z</time>
      </trkpt>
      <trkpt lat="49.77487" lon="2.29367">
        <ele>122.4</ele>
        <time>2023-07-12T07:50:24Z</time>
      </trkpt>
      <trkpt lat="49.77488" lon="2.29368">
        <ele>122.4</ele>
        <time>2023-07-12T07:50:25Z</time>
      </trkpt>
      <trkpt lat="49.77489" lon="2.29369">
        <ele>122.4</ele>
        <time>2023-07-12T07:50:26Z</time>
      </trkpt>
      <trkpt lat="49.7749" lon="2.2937">
        <ele>122.4</ele>
        <time>2023-07-12T07:50:27Z</time>
      </trkpt>
      <trkpt lat="49.77491" lon="2.29372">
        <ele>122.4</ele>
        <time>2023-07-12T07:50:28Z</time>
      </trkpt>
      <trkpt lat="49.77491" lon="2.29372">
        <ele>122.4</ele>
        <time>2023-07-12T07:50:30Z</time>
      </trkpt>
      <trkpt lat="49.77491" lon="2.29373">
        <ele>122.4</ele>
        <time>2023-07-12T07:50:31Z</time>
      </trkpt>
      <trkpt lat="49.77492" lon="2.29373">
        <ele>122.4</ele>
        <time>2023-07-12T07:50:32Z</time>
      </trkpt>
      <trkpt lat="49.77492" lon="2.29374">
        <ele>122.4</ele>
        <time>2023-07-12T07:50:33Z</time>
      </trkpt>
      <trkpt lat="49.77493" lon="2.29375">
        <ele>122.4</ele>
        <time>2023-07-12T07:50:34Z</time>
      </trkpt>
      <trkpt lat="49.77494" lon="2.29377">
        <ele>122.4</ele>
        <time>2023-07-12T07:50:35Z</time>
      </trkpt>
      <trkpt lat="49.77497" lon="2.29379">
        <ele>122.4</ele>
        <time>2023-07-12T07:50:36Z</time>
      </trkpt>
      <trkpt lat="49.77498" lon="2.2938">
        <ele>122.4</ele>
        <time>2023-07-12T07:50:37Z</time>
      </trkpt>
      <trkpt lat="49.775" lon="2.29383">
        <ele>122.3</ele>
        <time>2023-07-12T07:50:39Z</time>
      </trkpt>
      <trkpt lat="49.77501" lon="2.29383">
        <ele>122.3</ele>
        <time>2023-07-12T07:50:40Z</time>
      </trkpt>
      <trkpt lat="49.77503" lon="2.29386">
        <ele>122.3</ele>
        <time>2023-07-12T07:50:42Z</time>
      </trkpt>
      <trkpt lat="49.77504" lon="2.29387">
        <ele>122.3</ele>
        <time>2023-07-12T07:50:43Z</time>
      </trkpt>
      <trkpt lat="49.77505" lon="2.29388">
        <ele>122.3</ele>
        <time>2023-07-12T07:50:45Z</time>
      </trkpt>
      <trkpt lat="49.77505" lon="2.29388">
        <ele>122.3</ele>
        <time>2023-07-12T07:50:46Z</time>
      </trkpt>
      <trkpt lat="49.77506" lon="2.29388">
        <ele>122.3</ele>
        <time>2023-07-12T07:50:48Z</time>
      </trkpt>
      <trkpt lat="49.77506" lon="2.29388">
        <ele>122.3</ele>
        <time>2023-07-12T07:50:49Z</time>
      </trkpt>
      <trkpt lat="49.77506" lon="2.29387">
        <ele>122.3</ele>
        <time>2023-07-12T07:50:51Z</time>
      </trkpt>
      <trkpt lat="49.77506" lon="2.29387">
        <ele>122.3</ele>
        <time>2023-07-12T07:50:52Z</time>
      </trkpt>
      <trkpt lat="49.77506" lon="2.29387">
        <ele>122.3</ele>
        <time>2023-07-12T07:50:53Z</time>
      </trkpt>
      <trkpt lat="49.77506" lon="2.29387">
        <ele>122.3</ele>
        <time>2023-07-12T07:50:55Z</time>
      </trkpt>
      <trkpt lat="49.77506" lon="2.29387">
        <ele>122.3</ele>
        <time>2023-07-12T07:50:56Z</time>
      </trkpt>
      <trkpt lat="49.77506" lon="2.29386">
        <ele>122.3</ele>
        <time>2023-07-12T07:50:58Z</time>
      </trkpt>
      <trkpt lat="49.77506" lon="2.29386">
        <ele>122.3</ele>
        <time>2023-07-12T07:50:59Z</time>
      </trkpt>
      <trkpt lat="49.77504" lon="2.29385">
        <ele>122.3</ele>
        <time>2023-07-12T07:51:00Z</time>
      </trkpt>
      <trkpt lat="49.77504" lon="2.29384">
        <ele>122.3</ele>
        <time>2023-07-12T07:51:01Z</time>
      </trkpt>
      <trkpt lat="49.77504" lon="2.29384">
        <ele>122.3</ele>
        <time>2023-07-12T07:51:02Z</time>
      </trkpt>
      <trkpt lat="49.77503" lon="2.29384">
        <ele>122.3</ele>
        <time>2023-07-12T07:51:03Z</time>
      </trkpt>
      <trkpt lat="49.77503" lon="2.29383">
        <ele>122.3</ele>
        <time>2023-07-12T07:51:04Z</time>
      </trkpt>
      <trkpt lat="49.77502" lon="2.29383">
        <ele>122.3</ele>
        <time>2023-07-12T07:51:05Z</time>
      </trkpt>
      <trkpt lat="49.77503" lon="2.29383">
        <ele>122.3</ele>
        <time>2023-07-12T07:51:06Z</time>
      </trkpt>
      <trkpt lat="49.77504" lon="2.29384">
        <ele>122.2</ele>
        <time>2023-07-12T07:51:07Z</time>
      </trkpt>
      <trkpt lat="49.77505" lon="2.29384">
        <ele>122.2</ele>
        <time>2023-07-12T07:51:08Z</time>
      </trkpt>
      <trkpt lat="49.77505" lon="2.29384">
        <ele>122.2</ele>
        <time>2023-07-12T07:51:09Z</time>
      </trkpt>
      <trkpt lat="49.77507" lon="2.29386">
        <ele>122.2</ele>
        <time>2023-07-12T07:51:10Z</time>
      </trkpt>
      <trkpt lat="49.77507" lon="2.29387">
        <ele>122.2</ele>
        <time>2023-07-12T07:51:11Z</time>
      </trkpt>
      <trkpt lat="49.77508" lon="2.29388">
        <ele>122.2</ele>
        <time>2023-07-12T07:51:12Z</time>
      </trkpt>
      <trkpt lat="49.77509" lon="2.29392">
        <ele>122.2</ele>
        <time>2023-07-12T07:51:14Z</time>
      </trkpt>
      <trkpt lat="49.77508" lon="2.29393">
        <ele>122.2</ele>
        <time>2023-07-12T07:51:15Z</time>
      </trkpt>
      <trkpt lat="49.77509" lon="2.29394">
        <ele>122.2</ele>
        <time>2023-07-12T07:51:16Z</time>
      </trkpt>
      <trkpt lat="49.77509" lon="2.29395">
        <ele>122.2</ele>
        <time>2023-07-12T07:51:17Z</time>
      </trkpt>
      <trkpt lat="49.7751" lon="2.29396">
        <ele>122.2</ele>
        <time>2023-07-12T07:51:18Z</time>
      </trkpt>
      <trkpt lat="49.77511" lon="2.29397">
        <ele>122.2</ele>
        <time>2023-07-12T07:51:19Z</time>
      </trkpt>
      <trkpt lat="49.77513" lon="2.29399">
        <ele>122.2</ele>
        <time>2023-07-12T07:51:20Z</time>
      </trkpt>
      <trkpt lat="49.77513" lon="2.294">
        <ele>122.2</ele>
        <time>2023-07-12T07:51:21Z</time>
      </trkpt>
      <trkpt lat="49.77514" lon="2.29401">
        <ele>122.2</ele>
        <time>2023-07-12T07:51:23Z</time>
      </trkpt>
      <trkpt lat="49.77515" lon="2.29402">
        <ele>122.2</ele>
        <time>2023-07-12T07:51:24Z</time>
      </trkpt>
      <trkpt lat="49.77516" lon="2.29404">
        <ele>122.2</ele>
        <time>2023-07-12T07:51:25Z</time>
      </trkpt>
      <trkpt lat="49.77517" lon="2.29405">
        <ele>122.2</ele>
        <time>2023-07-12T07:51:26Z</time>
      </trkpt>
      <trkpt lat="49.7752" lon="2.29407">
        <ele>122.2</ele>
        <time>2023-07-12T07:51:27Z</time>
      </trkpt>
      <trkpt lat="49.7752" lon="2.29408">
        <ele>122.2</ele>
        <time>2023-07-12T07:51:28Z</time>
      </trkpt>
      <trkpt lat="49.77522" lon="2.2941">
        <ele>122.2</ele>
        <time>2023-07-12T07:51:29Z</time>
      </trkpt>
      <trkpt lat="49.77523" lon="2.29411">
        <ele>122.2</ele>
        <time>2023-07-12T07:51:30Z</time>
      </trkpt>
      <trkpt lat="49.77525" lon="2.29413">
        <ele>122.1</ele>
        <time>2023-07-12T07:51:31Z</time>
      </trkpt>
      <trkpt lat="49.77527" lon="2.29415">
        <ele>122.1</ele>
        <time>2023-07-12T07:51:33Z</time>
      </trkpt>
      <trkpt lat="49.77528" lon="2.29416">
        <ele>122.1</ele>
        <time>2023-07-12T07:51:34Z</time>
      </trkpt>
      <trkpt lat="49.77529" lon="2.29417">
        <ele>122.1</ele>
        <time>2023-07-12T07:51:35Z</time>
      </trkpt>
      <trkpt lat="49.7753" lon="2.29418">
        <ele>122.1</ele>
        <time>2023-07-12T07:51:36Z</time>
      </trkpt>
      <trkpt lat="49.77531" lon="2.29419">
        <ele>122.1</ele>
        <time>2023-07-12T07:51:37Z</time>
      </trkpt>
      <trkpt lat="49.77533" lon="2.2942">
        <ele>122.1</ele>
        <time>2023-07-12T07:51:38Z</time>
      </trkpt>
      <trkpt lat="49.77534" lon="2.29421">
        <ele>122.1</ele>
        <time>2023-07-12T07:51:39Z</time>
      </trkpt>
      <trkpt lat="49.77536" lon="2.29423">
        <ele>122.1</ele>
        <time>2023-07-12T07:51:40Z</time>
      </trkpt>
      <trkpt lat="49.77536" lon="2.29424">
        <ele>122.1</ele>
        <time>2023-07-12T07:51:41Z</time>
      </trkpt>
      <trkpt lat="49.77537" lon="2.29424">
        <ele>122.1</ele>
        <time>2023-07-12T07:51:42Z</time>
      </trkpt>
      <trkpt lat="49.77538" lon="2.29425">
        <ele>122.1</ele>
        <time>2023-07-12T07:51:43Z</time>
      </trkpt>
      <trkpt lat="49.77539" lon="2.29426">
        <ele>122.1</ele>
        <time>2023-07-12T07:51:44Z</time>
      </trkpt>
      <trkpt lat="49.7754" lon="2.29427">
        <ele>122</ele>
        <time>2023-07-12T07:51:45Z</time>
      </trkpt>
      <trkpt lat="49.77542" lon="2.29429">
        <ele>122</ele>
        <time>2023-07-12T07:51:46Z</time>
      </trkpt>
      <trkpt lat="49.77543" lon="2.29429">
        <ele>122</ele>
        <time>2023-07-12T07:51:47Z</time>
      </trkpt>
      <trkpt lat="49.77544" lon="2.2943">
        <ele>122</ele>
        <time>2023-07-12T07:51:48Z</time>
      </trkpt>
      <trkpt lat="49.77545" lon="2.29432">
        <ele>122</ele>
        <time>2023-07-12T07:51:49Z</time>
      </trkpt>
      <trkpt lat="49.77546" lon="2.29433">
        <ele>122</ele>
        <time>2023-07-12T07:51:51Z</time>
      </trkpt>
      <trkpt lat="49.77547" lon="2.29435">
        <ele>122</ele>
        <time>2023-07-12T07:51:52Z</time>
      </trkpt>
      <trkpt lat="49.77548" lon="2.29436">
        <ele>122</ele>
        <time>2023-07-12T07:51:53Z</time>
      </trkpt>
      <trkpt lat="49.77549" lon="2.29438">
        <ele>122</ele>
        <time>2023-07-12T07:51:54Z</time>
      </trkpt>
      <trkpt lat="49.7755" lon="2.29439">
        <ele>122</ele>
        <time>2023-07-12T07:51:55Z</time>
      </trkpt>
      <trkpt lat="49.77551" lon="2.2944">
        <ele>122</ele>
        <time>2023-07-12T07:51:56Z</time>
      </trkpt>
      <trkpt lat="49.77552" lon="2.29443">
        <ele>122</ele>
        <time>2023-07-12T07:51:57Z</time>
      </trkpt>
      <trkpt lat="49.77553" lon="2.29444">
        <ele>122</ele>
        <time>2023-07-12T07:51:58Z</time>
      </trkpt>
      <trkpt lat="49.77553" lon="2.29444">
        <ele>122</ele>
        <time>2023-07-12T07:51:59Z</time>
      </trkpt>
      <trkpt lat="49.77555" lon="2.29446">
        <ele>122</ele>
        <time>2023-07-12T07:52:00Z</time>
      </trkpt>
      <trkpt lat="49.77555" lon="2.29447">
        <ele>122</ele>
        <time>2023-07-12T07:52:01Z</time>
      </trkpt>
      <trkpt lat="49.77556" lon="2.29448">
        <ele>122</ele>
        <time>2023-07-12T07:52:02Z</time>
      </trkpt>
      <trkpt lat="49.77558" lon="2.29451">
        <ele>122.1</ele>
        <time>2023-07-12T07:52:03Z</time>
      </trkpt>
      <trkpt lat="49.77559" lon="2.29452">
        <ele>122.1</ele>
        <time>2023-07-12T07:52:05Z</time>
      </trkpt>
      <trkpt lat="49.7756" lon="2.29453">
        <ele>122.1</ele>
        <time>2023-07-12T07:52:06Z</time>
      </trkpt>
      <trkpt lat="49.7756" lon="2.29454">
        <ele>122.1</ele>
        <time>2023-07-12T07:52:07Z</time>
      </trkpt>
      <trkpt lat="49.77561" lon="2.29455">
        <ele>122.1</ele>
        <time>2023-07-12T07:52:08Z</time>
      </trkpt>
      <trkpt lat="49.77563" lon="2.29457">
        <ele>122.1</ele>
        <time>2023-07-12T07:52:09Z</time>
      </trkpt>
      <trkpt lat="49.77564" lon="2.29458">
        <ele>122.1</ele>
        <time>2023-07-12T07:52:10Z</time>
      </trkpt>
      <trkpt lat="49.77564" lon="2.29458">
        <ele>122.1</ele>
        <time>2023-07-12T07:52:11Z</time>
      </trkpt>
      <trkpt lat="49.77565" lon="2.29459">
        <ele>122.1</ele>
        <time>2023-07-12T07:52:12Z</time>
      </trkpt>
      <trkpt lat="49.77566" lon="2.2946">
        <ele>122.1</ele>
        <time>2023-07-12T07:52:13Z</time>
      </trkpt>
      <trkpt lat="49.77567" lon="2.29461">
        <ele>122.1</ele>
        <time>2023-07-12T07:52:14Z</time>
      </trkpt>
      <trkpt lat="49.77569" lon="2.29464">
        <ele>122.1</ele>
        <time>2023-07-12T07:52:15Z</time>
      </trkpt>
      <trkpt lat="49.77569" lon="2.29464">
        <ele>122.1</ele>
        <time>2023-07-12T07:52:16Z</time>
      </trkpt>
      <trkpt lat="49.7757" lon="2.29465">
        <ele>122.1</ele>
        <time>2023-07-12T07:52:17Z</time>
      </trkpt>
      <trkpt lat="49.77572" lon="2.29467">
        <ele>122.1</ele>
        <time>2023-07-12T07:52:19Z</time>
      </trkpt>
      <trkpt lat="49.77573" lon="2.29467">
        <ele>122.1</ele>
        <time>2023-07-12T07:52:20Z</time>
      </trkpt>
      <trkpt lat="49.77573" lon="2.29468">
        <ele>122.1</ele>
        <time>2023-07-12T07:52:21Z</time>
      </trkpt>
      <trkpt lat="49.77575" lon="2.29469">
        <ele>122.1</ele>
        <time>2023-07-12T07:52:22Z</time>
      </trkpt>
      <trkpt lat="49.77576" lon="2.2947">
        <ele>122.1</ele>
        <time>2023-07-12T07:52:23Z</time>
      </trkpt>
      <trkpt lat="49.77577" lon="2.29471">
        <ele>122.1</ele>
        <time>2023-07-12T07:52:24Z</time>
      </trkpt>
      <trkpt lat="49.77579" lon="2.29472">
        <ele>122.1</ele>
        <time>2023-07-12T07:52:25Z</time>
      </trkpt>
      <trkpt lat="49.77579" lon="2.29473">
        <ele>122.1</ele>
        <time>2023-07-12T07:52:26Z</time>
      </trkpt>
      <trkpt lat="49.7758" lon="2.29473">
        <ele>122.1</ele>
        <time>2023-07-12T07:52:27Z</time>
      </trkpt>
      <trkpt lat="49.77581" lon="2.29475">
        <ele>122.1</ele>
        <time>2023-07-12T07:52:28Z</time>
      </trkpt>
      <trkpt lat="49.77582" lon="2.29476">
        <ele>122.1</ele>
        <time>2023-07-12T07:52:30Z</time>
      </trkpt>
      <trkpt lat="49.77583" lon="2.29477">
        <ele>122.1</ele>
        <time>2023-07-12T07:52:31Z</time>
      </trkpt>
      <trkpt lat="49.77584" lon="2.29478">
        <ele>122.1</ele>
        <time>2023-07-12T07:52:32Z</time>
      </trkpt>
      <trkpt lat="49.77585" lon="2.29478">
        <ele>122.1</ele>
        <time>2023-07-12T07:52:33Z</time>
      </trkpt>
      <trkpt lat="49.77585" lon="2.29479">
        <ele>122.1</ele>
        <time>2023-07-12T07:52:34Z</time>
      </trkpt>
      <trkpt lat="49.77587" lon="2.29479">
        <ele>122.1</ele>
        <time>2023-07-12T07:52:36Z</time>
      </trkpt>
      <trkpt lat="49.77588" lon="2.2948">
        <ele>122.1</ele>
        <time>2023-07-12T07:52:37Z</time>
      </trkpt>
      <trkpt lat="49.77589" lon="2.29479">
        <ele>122</ele>
        <time>2023-07-12T07:52:39Z</time>
      </trkpt>
      <trkpt lat="49.77589" lon="2.29478">
        <ele>122</ele>
        <time>2023-07-12T07:52:40Z</time>
      </trkpt>
      <trkpt lat="49.77589" lon="2.29477">
        <ele>122</ele>
        <time>2023-07-12T07:52:42Z</time>
      </trkpt>
      <trkpt lat="49.77589" lon="2.29477">
        <ele>122</ele>
        <time>2023-07-12T07:52:43Z</time>
      </trkpt>
      <trkpt lat="49.77589" lon="2.29476">
        <ele>122</ele>
        <time>2023-07-12T07:52:45Z</time>
      </trkpt>
      <trkpt lat="49.77588" lon="2.29476">
        <ele>122</ele>
        <time>2023-07-12T07:52:46Z</time>
      </trkpt>
      <trkpt lat="49.77588" lon="2.29476">
        <ele>122</ele>
        <time>2023-07-12T07:52:47Z</time>
      </trkpt>
      <trkpt lat="49.77588" lon="2.29476">
        <ele>121.9</ele>
        <time>2023-07-12T07:52:49Z</time>
      </trkpt>
      <trkpt lat="49.77588" lon="2.29475">
        <ele>121.9</ele>
        <time>2023-07-12T07:52:50Z</time>
      </trkpt>
      <trkpt lat="49.77588" lon="2.29475">
        <ele>121.9</ele>
        <time>2023-07-12T07:52:52Z</time>
      </trkpt>
      <trkpt lat="49.77588" lon="2.29475">
        <ele>121.9</ele>
        <time>2023-07-12T07:52:53Z</time>
      </trkpt>
      <trkpt lat="49.77588" lon="2.29475">
        <ele>121.9</ele>
        <time>2023-07-12T07:52:54Z</time>
      </trkpt>
      <trkpt lat="49.77587" lon="2.29475">
        <ele>121.9</ele>
        <time>2023-07-12T07:52:56Z</time>
      </trkpt>
      <trkpt lat="49.77587" lon="2.29475">
        <ele>121.9</ele>
        <time>2023-07-12T07:52:57Z</time>
      </trkpt>
      <trkpt lat="49.77587" lon="2.29475">
        <ele>121.9</ele>
        <time>2023-07-12T07:52:58Z</time>
      </trkpt>
      <trkpt lat="49.77587" lon="2.29475">
        <ele>121.9</ele>
        <time>2023-07-12T07:52:59Z</time>
      </trkpt>
      <trkpt lat="49.77587" lon="2.29475">
        <ele>121.9</ele>
        <time>2023-07-12T07:53:00Z</time>
      </trkpt>
      <trkpt lat="49.77587" lon="2.29475">
        <ele>121.9</ele>
        <time>2023-07-12T07:53:01Z</time>
      </trkpt>
      <trkpt lat="49.77587" lon="2.29475">
        <ele>121.9</ele>
        <time>2023-07-12T07:53:02Z</time>
      </trkpt>
      <trkpt lat="49.77587" lon="2.29475">
        <ele>121.9</ele>
        <time>2023-07-12T07:53:03Z</time>
      </trkpt>
      <trkpt lat="49.77587" lon="2.29475">
        <ele>121.9</ele>
        <time>2023-07-12T07:53:04Z</time>
      </trkpt>
      <trkpt lat="49.77587" lon="2.29475">
        <ele>121.9</ele>
        <time>2023-07-12T07:53:05Z</time>
      </trkpt>
      <trkpt lat="49.77587" lon="2.29475">
        <ele>121.9</ele>
        <time>2023-07-12T07:53:06Z</time>
      </trkpt>
      <trkpt lat="49.77587" lon="2.29475">
        <ele>121.9</ele>
        <time>2023-07-12T07:53:07Z</time>
      </trkpt>
      <trkpt lat="49.77587" lon="2.29475">
        <ele>121.9</ele>
        <time>2023-07-12T07:53:08Z</time>
      </trkpt>
      <trkpt lat="49.77587" lon="2.29475">
        <ele>121.9</ele>
        <time>2023-07-12T07:53:09Z</time>
      </trkpt>
      <trkpt lat="49.77587" lon="2.29475">
        <ele>121.9</ele>
        <time>2023-07-12T07:53:10Z</time>
      </trkpt>
      <trkpt lat="49.77587" lon="2.29475">
        <ele>121.9</ele>
        <time>2023-07-12T07:53:11Z</time>
      </trkpt>
      <trkpt lat="49.77587" lon="2.29475">
        <ele>121.9</ele>
        <time>2023-07-12T07:53:12Z</time>
      </trkpt>
      <trkpt lat="49.77587" lon="2.29475">
        <ele>121.9</ele>
        <time>2023-07-12T07:53:13Z</time>
      </trkpt>
      <trkpt lat="49.77587" lon="2.29475">
        <ele>121.9</ele>
        <time>2023-07-12T07:53:14Z</time>
      </trkpt>
      <trkpt lat="49.77587" lon="2.29475">
        <ele>121.9</ele>
        <time>2023-07-12T07:53:15Z</time>
      </trkpt>
      <trkpt lat="49.77587" lon="2.29475">
        <ele>121.9</ele>
        <time>2023-07-12T07:53:16Z</time>
      </trkpt>
      <trkpt lat="49.77587" lon="2.29475">
        <ele>121.9</ele>
        <time>2023-07-12T07:53:17Z</time>
      </trkpt>
      <trkpt lat="49.77587" lon="2.29475">
        <ele>121.9</ele>
        <time>2023-07-12T07:53:18Z</time>
      </trkpt>
      <trkpt lat="49.77587" lon="2.29475">
        <ele>121.9</ele>
        <time>2023-07-12T07:53:19Z</time>
      </trkpt>
      <trkpt lat="49.77587" lon="2.29475">
        <ele>121.9</ele>
        <time>2023-07-12T07:53:20Z</time>
      </trkpt>
      <trkpt lat="49.77587" lon="2.29475">
        <ele>121.9</ele>
        <time>2023-07-12T07:53:21Z</time>
      </trkpt>
      <trkpt lat="49.77587" lon="2.29475">
        <ele>121.9</ele>
        <time>2023-07-12T07:53:22Z</time>
      </trkpt>
      <trkpt lat="49.77587" lon="2.29475">
        <ele>121.9</ele>
        <time>2023-07-12T07:53:23Z</time>
      </trkpt>
      <trkpt lat="49.77587" lon="2.29475">
        <ele>121.9</ele>
        <time>2023-07-12T07:53:24Z</time>
      </trkpt>
      <trkpt lat="49.77587" lon="2.29475">
        <ele>121.9</ele>
        <time>2023-07-12T07:53:25Z</time>
      </trkpt>
      <trkpt lat="49.77587" lon="2.29475">
        <ele>121.9</ele>
        <time>2023-07-12T07:53:26Z</time>
      </trkpt>
      <trkpt lat="49.77587" lon="2.29475">
        <ele>121.9</ele>
        <time>2023-07-12T07:53:27Z</time>
      </trkpt>
      <trkpt lat="49.77587" lon="2.29475">
        <ele>121.9</ele>
        <time>2023-07-12T07:53:28Z</time>
      </trkpt>
      <trkpt lat="49.77587" lon="2.29475">
        <ele>121.9</ele>
        <time>2023-07-12T07:53:29Z</time>
      </trkpt>
      <trkpt lat="49.77587" lon="2.29475">
        <ele>121.9</ele>
        <time>2023-07-12T07:53:30Z</time>
      </trkpt>
      <trkpt lat="49.77587" lon="2.29475">
        <ele>121.9</ele>
        <time>2023-07-12T07:53:31Z</time>
      </trkpt>
      <trkpt lat="49.77587" lon="2.29475">
        <ele>121.9</ele>
        <time>2023-07-12T07:53:32Z</time>
      </trkpt>
      <trkpt lat="49.77587" lon="2.29475">
        <ele>121.9</ele>
        <time>2023-07-12T07:53:33Z</time>
      </trkpt>
      <trkpt lat="49.77587" lon="2.29475">
        <ele>121.9</ele>
        <time>2023-07-12T07:53:34Z</time>
      </trkpt>
      <trkpt lat="49.77587" lon="2.29475">
        <ele>121.9</ele>
        <time>2023-07-12T07:53:35Z</time>
      </trkpt>
      <trkpt lat="49.77587" lon="2.29475">
        <ele>121.9</ele>
        <time>2023-07-12T07:53:36Z</time>
      </trkpt>
      <trkpt lat="49.77587" lon="2.29475">
        <ele>121.9</ele>
        <time>2023-07-12T07:53:37Z</time>
      </trkpt>
      <trkpt lat="49.77587" lon="2.29475">
        <ele>121.9</ele>
        <time>2023-07-12T07:53:38Z</time>
      </trkpt>
      <trkpt lat="49.77587" lon="2.29475">
        <ele>121.9</ele>
        <time>2023-07-12T07:53:39Z</time>
      </trkpt>
      <trkpt lat="49.77587" lon="2.29475">
        <ele>121.9</ele>
        <time>2023-07-12T07:53:40Z</time>
      </trkpt>
      <trkpt lat="49.77587" lon="2.29475">
        <ele>121.9</ele>
        <time>2023-07-12T07:53:41Z</time>
      </trkpt>
      <trkpt lat="49.77587" lon="2.29475">
        <ele>121.9</ele>
        <time>2023-07-12T07:53:42Z</time>
      </trkpt>
      <trkpt lat="49.77587" lon="2.29475">
        <ele>121.9</ele>
        <time>2023-07-12T07:53:43Z</time>
      </trkpt>
      <trkpt lat="49.77587" lon="2.29475">
        <ele>121.9</ele>
        <time>2023-07-12T07:53:44Z</time>
      </trkpt>
      <trkpt lat="49.77587" lon="2.29475">
        <ele>121.9</ele>
        <time>2023-07-12T07:53:45Z</time>
      </trkpt>
      <trkpt lat="49.77587" lon="2.29475">
        <ele>121.9</ele>
        <time>2023-07-12T07:53:46Z</time>
      </trkpt>
      <trkpt lat="49.77587" lon="2.29475">
        <ele>121.9</ele>
        <time>2023-07-12T07:53:47Z</time>
      </trkpt>
      <trkpt lat="49.77587" lon="2.29475">
        <ele>121.9</ele>
        <time>2023-07-12T07:53:48Z</time>
      </trkpt>
      <trkpt lat="49.77587" lon="2.29475">
        <ele>121.9</ele>
        <time>2023-07-12T07:53:49Z</time>
      </trkpt>
      <trkpt lat="49.77587" lon="2.29475">
        <ele>121.9</ele>
        <time>2023-07-12T07:53:50Z</time>
      </trkpt>
      <trkpt lat="49.77587" lon="2.29475">
        <ele>121.9</ele>
        <time>2023-07-12T07:53:51Z</time>
      </trkpt>
      <trkpt lat="49.77587" lon="2.29475">
        <ele>121.9</ele>
        <time>2023-07-12T07:53:52Z</time>
      </trkpt>
      <trkpt lat="49.77587" lon="2.29475">
        <ele>121.9</ele>
        <time>2023-07-12T07:53:53Z</time>
      </trkpt>
      <trkpt lat="49.77587" lon="2.29475">
        <ele>121.9</ele>
        <time>2023-07-12T07:53:54Z</time>
      </trkpt>
      <trkpt lat="49.77587" lon="2.29475">
        <ele>121.9</ele>
        <time>2023-07-12T07:53:55Z</time>
      </trkpt>
      <trkpt lat="49.77587" lon="2.29475">
        <ele>121.9</ele>
        <time>2023-07-12T07:53:56Z</time>
      </trkpt>
      <trkpt lat="49.77587" lon="2.29475">
        <ele>121.9</ele>
        <time>2023-07-12T07:53:57Z</time>
      </trkpt>
      <trkpt lat="49.77587" lon="2.29476">
        <ele>121.9</ele>
        <time>2023-07-12T07:53:58Z</time>
      </trkpt>
      <trkpt lat="49.77586" lon="2.29475">
        <ele>121.9</ele>
        <time>2023-07-12T07:53:59Z</time>
      </trkpt>
      <trkpt lat="49.77586" lon="2.29475">
        <ele>121.9</ele>
        <time>2023-07-12T07:54:01Z</time>
      </trkpt>
      <trkpt lat="49.77586" lon="2.29475">
        <ele>121.9</ele>
        <time>2023-07-12T07:54:02Z</time>
      </trkpt>
      <trkpt lat="49.77586" lon="2.29475">
        <ele>121.9</ele>
        <time>2023-07-12T07:54:03Z</time>
      </trkpt>
      <trkpt lat="49.77587" lon="2.29475">
        <ele>121.9</ele>
        <time>2023-07-12T07:54:04Z</time>
      </trkpt>
      <trkpt lat="49.77587" lon="2.29475">
        <ele>121.9</ele>
        <time>2023-07-12T07:54:06Z</time>
      </trkpt>
      <trkpt lat="49.77588" lon="2.29477">
        <ele>121.9</ele>
        <time>2023-07-12T07:54:07Z</time>
      </trkpt>
      <trkpt lat="49.77588" lon="2.29478">
        <ele>121.8</ele>
        <time>2023-07-12T07:54:09Z</time>
      </trkpt>
      <trkpt lat="49.77588" lon="2.2948">
        <ele>121.8</ele>
        <time>2023-07-12T07:54:10Z</time>
      </trkpt>
      <trkpt lat="49.77588" lon="2.29482">
        <ele>121.8</ele>
        <time>2023-07-12T07:54:11Z</time>
      </trkpt>
      <trkpt lat="49.77589" lon="2.29485">
        <ele>121.8</ele>
        <time>2023-07-12T07:54:12Z</time>
      </trkpt>
      <trkpt lat="49.77588" lon="2.29487">
        <ele>121.7</ele>
        <time>2023-07-12T07:54:13Z</time>
      </trkpt>
      <trkpt lat="49.77588" lon="2.29489">
        <ele>121.7</ele>
        <time>2023-07-12T07:54:15Z</time>
      </trkpt>
      <trkpt lat="49.77588" lon="2.29491">
        <ele>121.7</ele>
        <time>2023-07-12T07:54:16Z</time>
      </trkpt>
      <trkpt lat="49.77587" lon="2.29494">
        <ele>121.6</ele>
        <time>2023-07-12T07:54:17Z</time>
      </trkpt>
      <trkpt lat="49.77587" lon="2.29496">
        <ele>121.6</ele>
        <time>2023-07-12T07:54:18Z</time>
      </trkpt>
      <trkpt lat="49.77586" lon="2.29498">
        <ele>121.6</ele>
        <time>2023-07-12T07:54:19Z</time>
      </trkpt>
      <trkpt lat="49.77586" lon="2.29501">
        <ele>121.5</ele>
        <time>2023-07-12T07:54:21Z</time>
      </trkpt>
      <trkpt lat="49.77585" lon="2.29503">
        <ele>121.5</ele>
        <time>2023-07-12T07:54:22Z</time>
      </trkpt>
      <trkpt lat="49.77585" lon="2.29504">
        <ele>121.5</ele>
        <time>2023-07-12T07:54:23Z</time>
      </trkpt>
      <trkpt lat="49.77584" lon="2.29507">
        <ele>121.4</ele>
        <time>2023-07-12T07:54:24Z</time>
      </trkpt>
      <trkpt lat="49.77583" lon="2.29508">
        <ele>121.4</ele>
        <time>2023-07-12T07:54:25Z</time>
      </trkpt>
      <trkpt lat="49.77583" lon="2.29509">
        <ele>121.4</ele>
        <time>2023-07-12T07:54:26Z</time>
      </trkpt>
      <trkpt lat="49.77582" lon="2.29511">
        <ele>121.4</ele>
        <time>2023-07-12T07:54:27Z</time>
      </trkpt>
      <trkpt lat="49.77582" lon="2.29513">
        <ele>121.3</ele>
        <time>2023-07-12T07:54:28Z</time>
      </trkpt>
      <trkpt lat="49.77581" lon="2.29516">
        <ele>121.3</ele>
        <time>2023-07-12T07:54:30Z</time>
      </trkpt>
      <trkpt lat="49.7758" lon="2.29518">
        <ele>121.2</ele>
        <time>2023-07-12T07:54:31Z</time>
      </trkpt>
      <trkpt lat="49.7758" lon="2.29519">
        <ele>121.2</ele>
        <time>2023-07-12T07:54:32Z</time>
      </trkpt>
      <trkpt lat="49.77579" lon="2.29523">
        <ele>121.1</ele>
        <time>2023-07-12T07:54:33Z</time>
      </trkpt>
      <trkpt lat="49.77578" lon="2.29524">
        <ele>121.1</ele>
        <time>2023-07-12T07:54:34Z</time>
      </trkpt>
      <trkpt lat="49.77578" lon="2.29526">
        <ele>121.1</ele>
        <time>2023-07-12T07:54:35Z</time>
      </trkpt>
      <trkpt lat="49.77577" lon="2.29528">
        <ele>121</ele>
        <time>2023-07-12T07:54:36Z</time>
      </trkpt>
      <trkpt lat="49.77576" lon="2.2953">
        <ele>121</ele>
        <time>2023-07-12T07:54:37Z</time>
      </trkpt>
      <trkpt lat="49.77576" lon="2.29532">
        <ele>121</ele>
        <time>2023-07-12T07:54:38Z</time>
      </trkpt>
      <trkpt lat="49.77575" lon="2.29534">
        <ele>120.9</ele>
        <time>2023-07-12T07:54:40Z</time>
      </trkpt>
      <trkpt lat="49.77574" lon="2.29536">
        <ele>120.9</ele>
        <time>2023-07-12T07:54:41Z</time>
      </trkpt>
      <trkpt lat="49.77574" lon="2.29538">
        <ele>120.9</ele>
        <time>2023-07-12T07:54:42Z</time>
      </trkpt>
      <trkpt lat="49.77573" lon="2.2954">
        <ele>120.9</ele>
        <time>2023-07-12T07:54:43Z</time>
      </trkpt>
      <trkpt lat="49.77572" lon="2.29541">
        <ele>120.8</ele>
        <time>2023-07-12T07:54:44Z</time>
      </trkpt>
      <trkpt lat="49.77572" lon="2.29543">
        <ele>120.8</ele>
        <time>2023-07-12T07:54:45Z</time>
      </trkpt>
      <trkpt lat="49.77571" lon="2.29544">
        <ele>120.8</ele>
        <time>2023-07-12T07:54:46Z</time>
      </trkpt>
      <trkpt lat="49.7757" lon="2.29546">
        <ele>120.7</ele>
        <time>2023-07-12T07:54:47Z</time>
      </trkpt>
      <trkpt lat="49.77569" lon="2.29547">
        <ele>120.7</ele>
        <time>2023-07-12T07:54:48Z</time>
      </trkpt>
      <trkpt lat="49.77569" lon="2.29549">
        <ele>120.7</ele>
        <time>2023-07-12T07:54:50Z</time>
      </trkpt>
      <trkpt lat="49.77567" lon="2.29552">
        <ele>120.6</ele>
        <time>2023-07-12T07:54:51Z</time>
      </trkpt>
      <trkpt lat="49.77567" lon="2.29553">
        <ele>120.6</ele>
        <time>2023-07-12T07:54:52Z</time>
      </trkpt>
      <trkpt lat="49.77566" lon="2.29554">
        <ele>120.6</ele>
        <time>2023-07-12T07:54:53Z</time>
      </trkpt>
      <trkpt lat="49.77565" lon="2.29557">
        <ele>120.5</ele>
        <time>2023-07-12T07:54:54Z</time>
      </trkpt>
      <trkpt lat="49.77565" lon="2.29558">
        <ele>120.5</ele>
        <time>2023-07-12T07:54:55Z</time>
      </trkpt>
      <trkpt lat="49.77564" lon="2.29559">
        <ele>120.5</ele>
        <time>2023-07-12T07:54:56Z</time>
      </trkpt>
      <trkpt lat="49.77563" lon="2.29561">
        <ele>120.4</ele>
        <time>2023-07-12T07:54:57Z</time>
      </trkpt>
      <trkpt lat="49.77562" lon="2.29563">
        <ele>120.4</ele>
        <time>2023-07-12T07:54:59Z</time>
      </trkpt>
      <trkpt lat="49.77562" lon="2.29564">
        <ele>120.4</ele>
        <time>2023-07-12T07:55:00Z</time>
      </trkpt>
      <trkpt lat="49.77561" lon="2.29567">
        <ele>120.3</ele>
        <time>2023-07-12T07:55:01Z</time>
      </trkpt>
      <trkpt lat="49.7756" lon="2.29568">
        <ele>120.3</ele>
        <time>2023-07-12T07:55:02Z</time>
      </trkpt>
      <trkpt lat="49.7756" lon="2.29569">
        <ele>120.3</ele>
        <time>2023-07-12T07:55:03Z</time>
      </trkpt>
      <trkpt lat="49.77559" lon="2.29572">
        <ele>120.2</ele>
        <time>2023-07-12T07:55:04Z</time>
      </trkpt>
      <trkpt lat="49.77559" lon="2.29573">
        <ele>120.2</ele>
        <time>2023-07-12T07:55:05Z</time>
      </trkpt>
      <trkpt lat="49.77558" lon="2.29575">
        <ele>120.2</ele>
        <time>2023-07-12T07:55:06Z</time>
      </trkpt>
      <trkpt lat="49.77558" lon="2.29577">
        <ele>120.1</ele>
        <time>2023-07-12T07:55:08Z</time>
      </trkpt>
      <trkpt lat="49.77557" lon="2.29579">
        <ele>120.1</ele>
        <time>2023-07-12T07:55:09Z</time>
      </trkpt>
      <trkpt lat="49.77557" lon="2.29581">
        <ele>120</ele>
        <time>2023-07-12T07:55:10Z</time>
      </trkpt>
      <trkpt lat="49.77556" lon="2.29583">
        <ele>120</ele>
        <time>2023-07-12T07:55:11Z</time>
      </trkpt>
      <trkpt lat="49.77556" lon="2.29585">
        <ele>120</ele>
        <time>2023-07-12T07:55:12Z</time>
      </trkpt>
      <trkpt lat="49.77555" lon="2.29587">
        <ele>119.9</ele>
        <time>2023-07-12T07:55:13Z</time>
      </trkpt>
      <trkpt lat="49.77555" lon="2.29588">
        <ele>119.9</ele>
        <time>2023-07-12T07:55:14Z</time>
      </trkpt>
      <trkpt lat="49.77554" lon="2.2959">
        <ele>119.9</ele>
        <time>2023-07-12T07:55:15Z</time>
      </trkpt>
      <trkpt lat="49.77554" lon="2.29592">
        <ele>119.8</ele>
        <time>2023-07-12T07:55:16Z</time>
      </trkpt>
      <trkpt lat="49.77553" lon="2.29595">
        <ele>119.7</ele>
        <time>2023-07-12T07:55:18Z</time>
      </trkpt>
      <trkpt lat="49.77553" lon="2.29596">
        <ele>119.7</ele>
        <time>2023-07-12T07:55:19Z</time>
      </trkpt>
      <trkpt lat="49.77553" lon="2.29597">
        <ele>119.7</ele>
        <time>2023-07-12T07:55:20Z</time>
      </trkpt>
      <trkpt lat="49.77552" lon="2.29599">
        <ele>119.6</ele>
        <time>2023-07-12T07:55:21Z</time>
      </trkpt>
      <trkpt lat="49.77552" lon="2.29601">
        <ele>119.6</ele>
        <time>2023-07-12T07:55:22Z</time>
      </trkpt>
      <trkpt lat="49.77551" lon="2.29602">
        <ele>119.5</ele>
        <time>2023-07-12T07:55:23Z</time>
      </trkpt>
      <trkpt lat="49.77551" lon="2.29604">
        <ele>119.5</ele>
        <time>2023-07-12T07:55:24Z</time>
      </trkpt>
      <trkpt lat="49.7755" lon="2.29606">
        <ele>119.4</ele>
        <time>2023-07-12T07:55:25Z</time>
      </trkpt>
      <trkpt lat="49.7755" lon="2.29607">
        <ele>119.3</ele>
        <time>2023-07-12T07:55:26Z</time>
      </trkpt>
      <trkpt lat="49.77549" lon="2.29611">
        <ele>119.2</ele>
        <time>2023-07-12T07:55:27Z</time>
      </trkpt>
      <trkpt lat="49.77548" lon="2.29612">
        <ele>119.2</ele>
        <time>2023-07-12T07:55:29Z</time>
      </trkpt>
      <trkpt lat="49.77547" lon="2.29613">
        <ele>119.1</ele>
        <time>2023-07-12T07:55:30Z</time>
      </trkpt>
      <trkpt lat="49.77547" lon="2.29615">
        <ele>119.1</ele>
        <time>2023-07-12T07:55:31Z</time>
      </trkpt>
      <trkpt lat="49.77546" lon="2.29616">
        <ele>119</ele>
        <time>2023-07-12T07:55:32Z</time>
      </trkpt>
      <trkpt lat="49.77545" lon="2.29618">
        <ele>118.9</ele>
        <time>2023-07-12T07:55:34Z</time>
      </trkpt>
      <trkpt lat="49.77545" lon="2.29619">
        <ele>118.9</ele>
        <time>2023-07-12T07:55:35Z</time>
      </trkpt>
      <trkpt lat="49.77544" lon="2.2962">
        <ele>118.8</ele>
        <time>2023-07-12T07:55:36Z</time>
      </trkpt>
      <trkpt lat="49.77543" lon="2.29623">
        <ele>118.7</ele>
        <time>2023-07-12T07:55:37Z</time>
      </trkpt>
      <trkpt lat="49.77542" lon="2.29624">
        <ele>118.6</ele>
        <time>2023-07-12T07:55:38Z</time>
      </trkpt>
      <trkpt lat="49.77542" lon="2.29625">
        <ele>118.6</ele>
        <time>2023-07-12T07:55:39Z</time>
      </trkpt>
      <trkpt lat="49.77541" lon="2.29627">
        <ele>118.5</ele>
        <time>2023-07-12T07:55:41Z</time>
      </trkpt>
      <trkpt lat="49.7754" lon="2.29628">
        <ele>118.5</ele>
        <time>2023-07-12T07:55:42Z</time>
      </trkpt>
      <trkpt lat="49.7754" lon="2.2963">
        <ele>118.4</ele>
        <time>2023-07-12T07:55:43Z</time>
      </trkpt>
      <trkpt lat="49.77538" lon="2.29633">
        <ele>118.3</ele>
        <time>2023-07-12T07:55:44Z</time>
      </trkpt>
      <trkpt lat="49.77538" lon="2.29634">
        <ele>118.2</ele>
        <time>2023-07-12T07:55:45Z</time>
      </trkpt>
      <trkpt lat="49.77537" lon="2.29635">
        <ele>118.2</ele>
        <time>2023-07-12T07:55:46Z</time>
      </trkpt>
      <trkpt lat="49.77537" lon="2.29636">
        <ele>118.1</ele>
        <time>2023-07-12T07:55:47Z</time>
      </trkpt>
      <trkpt lat="49.77536" lon="2.29638">
        <ele>118.1</ele>
        <time>2023-07-12T07:55:48Z</time>
      </trkpt>
      <trkpt lat="49.77536" lon="2.29639">
        <ele>118</ele>
        <time>2023-07-12T07:55:49Z</time>
      </trkpt>
      <trkpt lat="49.77534" lon="2.29642">
        <ele>117.9</ele>
        <time>2023-07-12T07:55:50Z</time>
      </trkpt>
      <trkpt lat="49.77534" lon="2.29643">
        <ele>117.9</ele>
        <time>2023-07-12T07:55:52Z</time>
      </trkpt>
      <trkpt lat="49.77534" lon="2.29644">
        <ele>117.8</ele>
        <time>2023-07-12T07:55:53Z</time>
      </trkpt>
      <trkpt lat="49.77533" lon="2.29647">
        <ele>117.7</ele>
        <time>2023-07-12T07:55:54Z</time>
      </trkpt>
      <trkpt lat="49.77532" lon="2.29648">
        <ele>117.7</ele>
        <time>2023-07-12T07:55:55Z</time>
      </trkpt>
      <trkpt lat="49.77532" lon="2.29649">
        <ele>117.6</ele>
        <time>2023-07-12T07:55:56Z</time>
      </trkpt>
      <trkpt lat="49.77531" lon="2.29652">
        <ele>117.5</ele>
        <time>2023-07-12T07:55:57Z</time>
      </trkpt>
      <trkpt lat="49.7753" lon="2.29653">
        <ele>117.5</ele>
        <time>2023-07-12T07:55:58Z</time>
      </trkpt>
      <trkpt lat="49.7753" lon="2.29654">
        <ele>117.5</ele>
        <time>2023-07-12T07:55:59Z</time>
      </trkpt>
      <trkpt lat="49.77529" lon="2.29656">
        <ele>117.4</ele>
        <time>2023-07-12T07:56:00Z</time>
      </trkpt>
      <trkpt lat="49.77528" lon="2.29658">
        <ele>117.3</ele>
        <time>2023-07-12T07:56:01Z</time>
      </trkpt>
      <trkpt lat="49.77528" lon="2.29659">
        <ele>117.3</ele>
        <time>2023-07-12T07:56:02Z</time>
      </trkpt>
      <trkpt lat="49.77526" lon="2.29661">
        <ele>117.2</ele>
        <time>2023-07-12T07:56:03Z</time>
      </trkpt>
      <trkpt lat="49.77526" lon="2.29663">
        <ele>117.2</ele>
        <time>2023-07-12T07:56:05Z</time>
      </trkpt>
      <trkpt lat="49.77525" lon="2.29664">
        <ele>117.1</ele>
        <time>2023-07-12T07:56:06Z</time>
      </trkpt>
      <trkpt lat="49.77525" lon="2.29666">
        <ele>117</ele>
        <time>2023-07-12T07:56:07Z</time>
      </trkpt>
      <trkpt lat="49.77524" lon="2.29668">
        <ele>117</ele>
        <time>2023-07-12T07:56:08Z</time>
      </trkpt>
      <trkpt lat="49.77523" lon="2.29669">
        <ele>116.9</ele>
        <time>2023-07-12T07:56:09Z</time>
      </trkpt>
      <trkpt lat="49.77522" lon="2.29671">
        <ele>116.8</ele>
        <time>2023-07-12T07:56:10Z</time>
      </trkpt>
      <trkpt lat="49.77521" lon="2.29674">
        <ele>116.8</ele>
        <time>2023-07-12T07:56:11Z</time>
      </trkpt>
      <trkpt lat="49.77521" lon="2.29675">
        <ele>116.7</ele>
        <time>2023-07-12T07:56:12Z</time>
      </trkpt>
      <trkpt lat="49.77521" lon="2.29676">
        <ele>116.7</ele>
        <time>2023-07-12T07:56:13Z</time>
      </trkpt>
      <trkpt lat="49.7752" lon="2.29678">
        <ele>116.6</ele>
        <time>2023-07-12T07:56:14Z</time>
      </trkpt>
      <trkpt lat="49.7752" lon="2.2968">
        <ele>116.6</ele>
        <time>2023-07-12T07:56:15Z</time>
      </trkpt>
      <trkpt lat="49.77519" lon="2.29681">
        <ele>116.5</ele>
        <time>2023-07-12T07:56:17Z</time>
      </trkpt>
      <trkpt lat="49.77519" lon="2.29683">
        <ele>116.5</ele>
        <time>2023-07-12T07:56:18Z</time>
      </trkpt>
      <trkpt lat="49.77518" lon="2.29685">
        <ele>116.4</ele>
        <time>2023-07-12T07:56:19Z</time>
      </trkpt>
      <trkpt lat="49.77518" lon="2.29686">
        <ele>116.4</ele>
        <time>2023-07-12T07:56:20Z</time>
      </trkpt>
      <trkpt lat="49.77517" lon="2.29688">
        <ele>116.3</ele>
        <time>2023-07-12T07:56:21Z</time>
      </trkpt>
      <trkpt lat="49.77517" lon="2.29689">
        <ele>116.3</ele>
        <time>2023-07-12T07:56:22Z</time>
      </trkpt>
      <trkpt lat="49.77516" lon="2.2969">
        <ele>116.2</ele>
        <time>2023-07-12T07:56:23Z</time>
      </trkpt>
      <trkpt lat="49.77516" lon="2.29692">
        <ele>116.2</ele>
        <time>2023-07-12T07:56:24Z</time>
      </trkpt>
      <trkpt lat="49.77516" lon="2.29693">
        <ele>116.1</ele>
        <time>2023-07-12T07:56:25Z</time>
      </trkpt>
      <trkpt lat="49.77515" lon="2.29695">
        <ele>116.1</ele>
        <time>2023-07-12T07:56:27Z</time>
      </trkpt>
      <trkpt lat="49.77515" lon="2.29696">
        <ele>116</ele>
        <time>2023-07-12T07:56:28Z</time>
      </trkpt>
      <trkpt lat="49.77514" lon="2.29697">
        <ele>116</ele>
        <time>2023-07-12T07:56:29Z</time>
      </trkpt>
      <trkpt lat="49.77514" lon="2.29699">
        <ele>115.9</ele>
        <time>2023-07-12T07:56:30Z</time>
      </trkpt>
      <trkpt lat="49.77513" lon="2.297">
        <ele>115.8</ele>
        <time>2023-07-12T07:56:31Z</time>
      </trkpt>
      <trkpt lat="49.77513" lon="2.29702">
        <ele>115.8</ele>
        <time>2023-07-12T07:56:32Z</time>
      </trkpt>
      <trkpt lat="49.77512" lon="2.29703">
        <ele>115.7</ele>
        <time>2023-07-12T07:56:33Z</time>
      </trkpt>
      <trkpt lat="49.77512" lon="2.29705">
        <ele>115.6</ele>
        <time>2023-07-12T07:56:34Z</time>
      </trkpt>
      <trkpt lat="49.77511" lon="2.29707">
        <ele>115.6</ele>
        <time>2023-07-12T07:56:35Z</time>
      </trkpt>
      <trkpt lat="49.77511" lon="2.29708">
        <ele>115.5</ele>
        <time>2023-07-12T07:56:36Z</time>
      </trkpt>
      <trkpt lat="49.7751" lon="2.29711">
        <ele>115.4</ele>
        <time>2023-07-12T07:56:38Z</time>
      </trkpt>
      <trkpt lat="49.77509" lon="2.29712">
        <ele>115.3</ele>
        <time>2023-07-12T07:56:39Z</time>
      </trkpt>
      <trkpt lat="49.77509" lon="2.29713">
        <ele>115.3</ele>
        <time>2023-07-12T07:56:40Z</time>
      </trkpt>
      <trkpt lat="49.77508" lon="2.29715">
        <ele>115.2</ele>
        <time>2023-07-12T07:56:41Z</time>
      </trkpt>
      <trkpt lat="49.77507" lon="2.29717">
        <ele>115.1</ele>
        <time>2023-07-12T07:56:42Z</time>
      </trkpt>
      <trkpt lat="49.77506" lon="2.29719">
        <ele>115</ele>
        <time>2023-07-12T07:56:43Z</time>
      </trkpt>
      <trkpt lat="49.77505" lon="2.29721">
        <ele>114.9</ele>
        <time>2023-07-12T07:56:44Z</time>
      </trkpt>
      <trkpt lat="49.77504" lon="2.29724">
        <ele>114.7</ele>
        <time>2023-07-12T07:56:45Z</time>
      </trkpt>
      <trkpt lat="49.77504" lon="2.29725">
        <ele>114.6</ele>
        <time>2023-07-12T07:56:46Z</time>
      </trkpt>
      <trkpt lat="49.77503" lon="2.29726">
        <ele>114.6</ele>
        <time>2023-07-12T07:56:47Z</time>
      </trkpt>
      <trkpt lat="49.77503" lon="2.29728">
        <ele>114.5</ele>
        <time>2023-07-12T07:56:49Z</time>
      </trkpt>
      <trkpt lat="49.77502" lon="2.29731">
        <ele>114.3</ele>
        <time>2023-07-12T07:56:50Z</time>
      </trkpt>
      <trkpt lat="49.77501" lon="2.29732">
        <ele>114.2</ele>
        <time>2023-07-12T07:56:51Z</time>
      </trkpt>
      <trkpt lat="49.775" lon="2.29734">
        <ele>114.1</ele>
        <time>2023-07-12T07:56:52Z</time>
      </trkpt>
      <trkpt lat="49.77499" lon="2.29737">
        <ele>114</ele>
        <time>2023-07-12T07:56:53Z</time>
      </trkpt>
      <trkpt lat="49.77499" lon="2.29738">
        <ele>113.9</ele>
        <time>2023-07-12T07:56:55Z</time>
      </trkpt>
      <trkpt lat="49.77498" lon="2.29739">
        <ele>113.9</ele>
        <time>2023-07-12T07:56:56Z</time>
      </trkpt>
      <trkpt lat="49.77498" lon="2.29741">
        <ele>113.8</ele>
        <time>2023-07-12T07:56:57Z</time>
      </trkpt>
      <trkpt lat="49.77497" lon="2.29742">
        <ele>113.7</ele>
        <time>2023-07-12T07:56:58Z</time>
      </trkpt>
      <trkpt lat="49.77497" lon="2.29744">
        <ele>113.6</ele>
        <time>2023-07-12T07:56:59Z</time>
      </trkpt>
      <trkpt lat="49.77496" lon="2.29745">
        <ele>113.6</ele>
        <time>2023-07-12T07:57:00Z</time>
      </trkpt>
      <trkpt lat="49.77495" lon="2.29747">
        <ele>113.5</ele>
        <time>2023-07-12T07:57:01Z</time>
      </trkpt>
      <trkpt lat="49.77495" lon="2.29748">
        <ele>113.4</ele>
        <time>2023-07-12T07:57:02Z</time>
      </trkpt>
      <trkpt lat="49.77494" lon="2.29749">
        <ele>113.4</ele>
        <time>2023-07-12T07:57:04Z</time>
      </trkpt>
      <trkpt lat="49.77494" lon="2.29751">
        <ele>113.3</ele>
        <time>2023-07-12T07:57:05Z</time>
      </trkpt>
      <trkpt lat="49.77493" lon="2.29752">
        <ele>113.3</ele>
        <time>2023-07-12T07:57:06Z</time>
      </trkpt>
      <trkpt lat="49.77493" lon="2.29753">
        <ele>113.2</ele>
        <time>2023-07-12T07:57:07Z</time>
      </trkpt>
      <trkpt lat="49.77492" lon="2.29755">
        <ele>113.1</ele>
        <time>2023-07-12T07:57:08Z</time>
      </trkpt>
      <trkpt lat="49.77492" lon="2.29756">
        <ele>113.1</ele>
        <time>2023-07-12T07:57:09Z</time>
      </trkpt>
      <trkpt lat="49.77491" lon="2.29758">
        <ele>113</ele>
        <time>2023-07-12T07:57:10Z</time>
      </trkpt>
      <trkpt lat="49.77491" lon="2.29759">
        <ele>112.9</ele>
        <time>2023-07-12T07:57:12Z</time>
      </trkpt>
      <trkpt lat="49.7749" lon="2.29761">
        <ele>112.9</ele>
        <time>2023-07-12T07:57:13Z</time>
      </trkpt>
      <trkpt lat="49.7749" lon="2.29762">
        <ele>112.8</ele>
        <time>2023-07-12T07:57:14Z</time>
      </trkpt>
      <trkpt lat="49.77489" lon="2.29764">
        <ele>112.7</ele>
        <time>2023-07-12T07:57:15Z</time>
      </trkpt>
      <trkpt lat="49.77488" lon="2.29765">
        <ele>112.6</ele>
        <time>2023-07-12T07:57:16Z</time>
      </trkpt>
      <trkpt lat="49.77487" lon="2.29768">
        <ele>112.5</ele>
        <time>2023-07-12T07:57:17Z</time>
      </trkpt>
      <trkpt lat="49.77487" lon="2.29769">
        <ele>112.4</ele>
        <time>2023-07-12T07:57:18Z</time>
      </trkpt>
      <trkpt lat="49.77486" lon="2.2977">
        <ele>112.4</ele>
        <time>2023-07-12T07:57:19Z</time>
      </trkpt>
      <trkpt lat="49.77485" lon="2.29771">
        <ele>112.3</ele>
        <time>2023-07-12T07:57:20Z</time>
      </trkpt>
      <trkpt lat="49.77485" lon="2.29773">
        <ele>112.2</ele>
        <time>2023-07-12T07:57:22Z</time>
      </trkpt>
      <trkpt lat="49.77484" lon="2.29774">
        <ele>112.1</ele>
        <time>2023-07-12T07:57:23Z</time>
      </trkpt>
      <trkpt lat="49.77484" lon="2.29776">
        <ele>112</ele>
        <time>2023-07-12T07:57:24Z</time>
      </trkpt>
      <trkpt lat="49.77483" lon="2.29777">
        <ele>112</ele>
        <time>2023-07-12T07:57:25Z</time>
      </trkpt>
      <trkpt lat="49.77483" lon="2.29778">
        <ele>111.9</ele>
        <time>2023-07-12T07:57:26Z</time>
      </trkpt>
      <trkpt lat="49.77482" lon="2.2978">
        <ele>111.8</ele>
        <time>2023-07-12T07:57:27Z</time>
      </trkpt>
      <trkpt lat="49.77482" lon="2.29781">
        <ele>111.7</ele>
        <time>2023-07-12T07:57:28Z</time>
      </trkpt>
      <trkpt lat="49.77482" lon="2.29782">
        <ele>111.7</ele>
        <time>2023-07-12T07:57:29Z</time>
      </trkpt>
      <trkpt lat="49.77481" lon="2.29784">
        <ele>111.6</ele>
        <time>2023-07-12T07:57:30Z</time>
      </trkpt>
      <trkpt lat="49.77481" lon="2.29785">
        <ele>111.5</ele>
        <time>2023-07-12T07:57:32Z</time>
      </trkpt>
      <trkpt lat="49.7748" lon="2.29786">
        <ele>111.4</ele>
        <time>2023-07-12T07:57:33Z</time>
      </trkpt>
      <trkpt lat="49.77479" lon="2.29788">
        <ele>111.3</ele>
        <time>2023-07-12T07:57:34Z</time>
      </trkpt>
      <trkpt lat="49.77479" lon="2.29789">
        <ele>111.2</ele>
        <time>2023-07-12T07:57:35Z</time>
      </trkpt>
      <trkpt lat="49.77478" lon="2.29791">
        <ele>111.1</ele>
        <time>2023-07-12T07:57:36Z</time>
      </trkpt>
      <trkpt lat="49.77478" lon="2.29792">
        <ele>111.1</ele>
        <time>2023-07-12T07:57:37Z</time>
      </trkpt>
      <trkpt lat="49.77477" lon="2.29793">
        <ele>111</ele>
        <time>2023-07-12T07:57:38Z</time>
      </trkpt>
      <trkpt lat="49.77477" lon="2.29795">
        <ele>110.9</ele>
        <time>2023-07-12T07:57:39Z</time>
      </trkpt>
      <trkpt lat="49.77476" lon="2.29796">
        <ele>110.8</ele>
        <time>2023-07-12T07:57:41Z</time>
      </trkpt>
      <trkpt lat="49.77475" lon="2.29797">
        <ele>110.7</ele>
        <time>2023-07-12T07:57:42Z</time>
      </trkpt>
      <trkpt lat="49.77475" lon="2.29798">
        <ele>110.6</ele>
        <time>2023-07-12T07:57:43Z</time>
      </trkpt>
      <trkpt lat="49.77473" lon="2.29801">
        <ele>110.4</ele>
        <time>2023-07-12T07:57:44Z</time>
      </trkpt>
      <trkpt lat="49.77473" lon="2.29802">
        <ele>110.4</ele>
        <time>2023-07-12T07:57:45Z</time>
      </trkpt>
      <trkpt lat="49.77472" lon="2.29803">
        <ele>110.3</ele>
        <time>2023-07-12T07:57:46Z</time>
      </trkpt>
      <trkpt lat="49.77471" lon="2.29805">
        <ele>110.1</ele>
        <time>2023-07-12T07:57:47Z</time>
      </trkpt>
      <trkpt lat="49.7747" lon="2.29806">
        <ele>110</ele>
        <time>2023-07-12T07:57:49Z</time>
      </trkpt>
      <trkpt lat="49.7747" lon="2.29807">
        <ele>110</ele>
        <time>2023-07-12T07:57:50Z</time>
      </trkpt>
      <trkpt lat="49.77469" lon="2.2981">
        <ele>109.8</ele>
        <time>2023-07-12T07:57:51Z</time>
      </trkpt>
      <trkpt lat="49.77468" lon="2.29811">
        <ele>109.7</ele>
        <time>2023-07-12T07:57:52Z</time>
      </trkpt>
      <trkpt lat="49.77468" lon="2.29812">
        <ele>109.6</ele>
        <time>2023-07-12T07:57:53Z</time>
      </trkpt>
      <trkpt lat="49.77467" lon="2.29814">
        <ele>109.4</ele>
        <time>2023-07-12T07:57:54Z</time>
      </trkpt>
      <trkpt lat="49.77466" lon="2.29816">
        <ele>109.3</ele>
        <time>2023-07-12T07:57:56Z</time>
      </trkpt>
      <trkpt lat="49.77466" lon="2.29818">
        <ele>109.2</ele>
        <time>2023-07-12T07:57:57Z</time>
      </trkpt>
      <trkpt lat="49.77465" lon="2.2982">
        <ele>109</ele>
        <time>2023-07-12T07:57:58Z</time>
      </trkpt>
      <trkpt lat="49.77464" lon="2.29822">
        <ele>108.9</ele>
        <time>2023-07-12T07:57:59Z</time>
      </trkpt>
      <trkpt lat="49.77464" lon="2.29824">
        <ele>108.7</ele>
        <time>2023-07-12T07:58:00Z</time>
      </trkpt>
      <trkpt lat="49.77463" lon="2.29827">
        <ele>108.5</ele>
        <time>2023-07-12T07:58:01Z</time>
      </trkpt>
      <trkpt lat="49.77462" lon="2.29828">
        <ele>108.4</ele>
        <time>2023-07-12T07:58:02Z</time>
      </trkpt>
      <trkpt lat="49.77462" lon="2.29829">
        <ele>108.3</ele>
        <time>2023-07-12T07:58:03Z</time>
      </trkpt>
      <trkpt lat="49.77461" lon="2.29831">
        <ele>108.2</ele>
        <time>2023-07-12T07:58:04Z</time>
      </trkpt>
      <trkpt lat="49.77461" lon="2.29833">
        <ele>108.1</ele>
        <time>2023-07-12T07:58:05Z</time>
      </trkpt>
      <trkpt lat="49.7746" lon="2.29836">
        <ele>107.8</ele>
        <time>2023-07-12T07:58:07Z</time>
      </trkpt>
      <trkpt lat="49.77459" lon="2.29838">
        <ele>107.7</ele>
        <time>2023-07-12T07:58:08Z</time>
      </trkpt>
      <trkpt lat="49.77459" lon="2.29839">
        <ele>107.6</ele>
        <time>2023-07-12T07:58:09Z</time>
      </trkpt>
      <trkpt lat="49.77458" lon="2.29842">
        <ele>107.4</ele>
        <time>2023-07-12T07:58:10Z</time>
      </trkpt>
      <trkpt lat="49.77458" lon="2.29843">
        <ele>107.3</ele>
        <time>2023-07-12T07:58:11Z</time>
      </trkpt>
      <trkpt lat="49.77457" lon="2.29844">
        <ele>107.2</ele>
        <time>2023-07-12T07:58:12Z</time>
      </trkpt>
      <trkpt lat="49.77457" lon="2.29846">
        <ele>107.1</ele>
        <time>2023-07-12T07:58:13Z</time>
      </trkpt>
      <trkpt lat="49.77456" lon="2.29847">
        <ele>107</ele>
        <time>2023-07-12T07:58:14Z</time>
      </trkpt>
      <trkpt lat="49.77456" lon="2.29849">
        <ele>106.8</ele>
        <time>2023-07-12T07:58:15Z</time>
      </trkpt>
      <trkpt lat="49.77455" lon="2.2985">
        <ele>106.7</ele>
        <time>2023-07-12T07:58:16Z</time>
      </trkpt>
      <trkpt lat="49.77455" lon="2.29852">
        <ele>106.5</ele>
        <time>2023-07-12T07:58:17Z</time>
      </trkpt>
      <trkpt lat="49.77454" lon="2.29854">
        <ele>106.4</ele>
        <time>2023-07-12T07:58:19Z</time>
      </trkpt>
      <trkpt lat="49.77454" lon="2.29856">
        <ele>106.2</ele>
        <time>2023-07-12T07:58:20Z</time>
      </trkpt>
      <trkpt lat="49.77453" lon="2.29859">
        <ele>106</ele>
        <time>2023-07-12T07:58:21Z</time>
      </trkpt>
      <trkpt lat="49.77452" lon="2.2986">
        <ele>105.9</ele>
        <time>2023-07-12T07:58:22Z</time>
      </trkpt>
      <trkpt lat="49.77452" lon="2.29862">
        <ele>105.7</ele>
        <time>2023-07-12T07:58:23Z</time>
      </trkpt>
      <trkpt lat="49.77451" lon="2.29864">
        <ele>105.6</ele>
        <time>2023-07-12T07:58:25Z</time>
      </trkpt>
      <trkpt lat="49.77451" lon="2.29865">
        <ele>105.5</ele>
        <time>2023-07-12T07:58:26Z</time>
      </trkpt>
      <trkpt lat="49.77451" lon="2.29866">
        <ele>105.4</ele>
        <time>2023-07-12T07:58:27Z</time>
      </trkpt>
      <trkpt lat="49.7745" lon="2.29868">
        <ele>105.2</ele>
        <time>2023-07-12T07:58:28Z</time>
      </trkpt>
      <trkpt lat="49.77449" lon="2.29871">
        <ele>105</ele>
        <time>2023-07-12T07:58:29Z</time>
      </trkpt>
      <trkpt lat="49.77449" lon="2.29872">
        <ele>104.9</ele>
        <time>2023-07-12T07:58:30Z</time>
      </trkpt>
      <trkpt lat="49.77448" lon="2.29874">
        <ele>104.8</ele>
        <time>2023-07-12T07:58:31Z</time>
      </trkpt>
      <trkpt lat="49.77447" lon="2.29876">
        <ele>104.6</ele>
        <time>2023-07-12T07:58:32Z</time>
      </trkpt>
      <trkpt lat="49.77447" lon="2.29878">
        <ele>104.5</ele>
        <time>2023-07-12T07:58:33Z</time>
      </trkpt>
      <trkpt lat="49.77446" lon="2.29879">
        <ele>104.4</ele>
        <time>2023-07-12T07:58:34Z</time>
      </trkpt>
      <trkpt lat="49.77445" lon="2.2988">
        <ele>104.3</ele>
        <time>2023-07-12T07:58:35Z</time>
      </trkpt>
      <trkpt lat="49.77445" lon="2.29881">
        <ele>104.2</ele>
        <time>2023-07-12T07:58:36Z</time>
      </trkpt>
      <trkpt lat="49.77444" lon="2.29882">
        <ele>104.1</ele>
        <time>2023-07-12T07:58:38Z</time>
      </trkpt>
      <trkpt lat="49.77443" lon="2.29883">
        <ele>104</ele>
        <time>2023-07-12T07:58:39Z</time>
      </trkpt>
      <trkpt lat="49.77443" lon="2.29884">
        <ele>103.9</ele>
        <time>2023-07-12T07:58:40Z</time>
      </trkpt>
      <trkpt lat="49.77442" lon="2.29886">
        <ele>103.7</ele>
        <time>2023-07-12T07:58:41Z</time>
      </trkpt>
      <trkpt lat="49.7744" lon="2.29888">
        <ele>103.6</ele>
        <time>2023-07-12T07:58:42Z</time>
      </trkpt>
      <trkpt lat="49.7744" lon="2.29889">
        <ele>103.4</ele>
        <time>2023-07-12T07:58:44Z</time>
      </trkpt>
      <trkpt lat="49.77438" lon="2.29892">
        <ele>103.2</ele>
        <time>2023-07-12T07:58:45Z</time>
      </trkpt>
      <trkpt lat="49.77437" lon="2.29893">
        <ele>103.1</ele>
        <time>2023-07-12T07:58:46Z</time>
      </trkpt>
      <trkpt lat="49.77436" lon="2.29896">
        <ele>102.9</ele>
        <time>2023-07-12T07:58:48Z</time>
      </trkpt>
      <trkpt lat="49.77435" lon="2.29897">
        <ele>102.8</ele>
        <time>2023-07-12T07:58:49Z</time>
      </trkpt>
      <trkpt lat="49.77435" lon="2.29898">
        <ele>102.7</ele>
        <time>2023-07-12T07:58:50Z</time>
      </trkpt>
      <trkpt lat="49.77434" lon="2.299">
        <ele>102.5</ele>
        <time>2023-07-12T07:58:51Z</time>
      </trkpt>
      <trkpt lat="49.77433" lon="2.29902">
        <ele>102.4</ele>
        <time>2023-07-12T07:58:52Z</time>
      </trkpt>
      <trkpt lat="49.77433" lon="2.29903">
        <ele>102.3</ele>
        <time>2023-07-12T07:58:53Z</time>
      </trkpt>
      <trkpt lat="49.77431" lon="2.29905">
        <ele>102.1</ele>
        <time>2023-07-12T07:58:55Z</time>
      </trkpt>
      <trkpt lat="49.77431" lon="2.29906">
        <ele>102.1</ele>
        <time>2023-07-12T07:58:56Z</time>
      </trkpt>
      <trkpt lat="49.7743" lon="2.29907">
        <ele>102</ele>
        <time>2023-07-12T07:58:57Z</time>
      </trkpt>
      <trkpt lat="49.7743" lon="2.29909">
        <ele>101.9</ele>
        <time>2023-07-12T07:58:58Z</time>
      </trkpt>
      <trkpt lat="49.77429" lon="2.2991">
        <ele>101.8</ele>
        <time>2023-07-12T07:58:59Z</time>
      </trkpt>
      <trkpt lat="49.77429" lon="2.29912">
        <ele>101.7</ele>
        <time>2023-07-12T07:59:00Z</time>
      </trkpt>
      <trkpt lat="49.77429" lon="2.29913">
        <ele>101.6</ele>
        <time>2023-07-12T07:59:01Z</time>
      </trkpt>
      <trkpt lat="49.77428" lon="2.29914">
        <ele>101.5</ele>
        <time>2023-07-12T07:59:02Z</time>
      </trkpt>
      <trkpt lat="49.77428" lon="2.29916">
        <ele>101.4</ele>
        <time>2023-07-12T07:59:04Z</time>
      </trkpt>
      <trkpt lat="49.77428" lon="2.29918">
        <ele>101.3</ele>
        <time>2023-07-12T07:59:05Z</time>
      </trkpt>
      <trkpt lat="49.77427" lon="2.2992">
        <ele>101.1</ele>
        <time>2023-07-12T07:59:06Z</time>
      </trkpt>
      <trkpt lat="49.77426" lon="2.29924">
        <ele>100.9</ele>
        <time>2023-07-12T07:59:07Z</time>
      </trkpt>
      <trkpt lat="49.77426" lon="2.29925">
        <ele>100.9</ele>
        <time>2023-07-12T07:59:08Z</time>
      </trkpt>
      <trkpt lat="49.77426" lon="2.29926">
        <ele>100.8</ele>
        <time>2023-07-12T07:59:09Z</time>
      </trkpt>
      <trkpt lat="49.77425" lon="2.29928">
        <ele>100.7</ele>
        <time>2023-07-12T07:59:11Z</time>
      </trkpt>
      <trkpt lat="49.77425" lon="2.29929">
        <ele>100.6</ele>
        <time>2023-07-12T07:59:12Z</time>
      </trkpt>
      <trkpt lat="49.77424" lon="2.29931">
        <ele>100.5</ele>
        <time>2023-07-12T07:59:13Z</time>
      </trkpt>
      <trkpt lat="49.77424" lon="2.29934">
        <ele>100.3</ele>
        <time>2023-07-12T07:59:14Z</time>
      </trkpt>
      <trkpt lat="49.77423" lon="2.29935">
        <ele>100.2</ele>
        <time>2023-07-12T07:59:15Z</time>
      </trkpt>
      <trkpt lat="49.77423" lon="2.29936">
        <ele>100.2</ele>
        <time>2023-07-12T07:59:16Z</time>
      </trkpt>
      <trkpt lat="49.77422" lon="2.29938">
        <ele>100</ele>
        <time>2023-07-12T07:59:17Z</time>
      </trkpt>
      <trkpt lat="49.77422" lon="2.2994">
        <ele>99.9</ele>
        <time>2023-07-12T07:59:18Z</time>
      </trkpt>
      <trkpt lat="49.77421" lon="2.29942">
        <ele>99.8</ele>
        <time>2023-07-12T07:59:20Z</time>
      </trkpt>
      <trkpt lat="49.77421" lon="2.29943">
        <ele>99.7</ele>
        <time>2023-07-12T07:59:21Z</time>
      </trkpt>
      <trkpt lat="49.7742" lon="2.29945">
        <ele>99.6</ele>
        <time>2023-07-12T07:59:22Z</time>
      </trkpt>
      <trkpt lat="49.7742" lon="2.29947">
        <ele>99.5</ele>
        <time>2023-07-12T07:59:23Z</time>
      </trkpt>
      <trkpt lat="49.77419" lon="2.29949">
        <ele>99.4</ele>
        <time>2023-07-12T07:59:24Z</time>
      </trkpt>
      <trkpt lat="49.77418" lon="2.2995">
        <ele>99.3</ele>
        <time>2023-07-12T07:59:25Z</time>
      </trkpt>
      <trkpt lat="49.77417" lon="2.29952">
        <ele>99.2</ele>
        <time>2023-07-12T07:59:26Z</time>
      </trkpt>
      <trkpt lat="49.77416" lon="2.29954">
        <ele>99</ele>
        <time>2023-07-12T07:59:28Z</time>
      </trkpt>
      <trkpt lat="49.77415" lon="2.29955">
        <ele>98.9</ele>
        <time>2023-07-12T07:59:29Z</time>
      </trkpt>
      <trkpt lat="49.77414" lon="2.29957">
        <ele>98.8</ele>
        <time>2023-07-12T07:59:30Z</time>
      </trkpt>
      <trkpt lat="49.77413" lon="2.29958">
        <ele>98.7</ele>
        <time>2023-07-12T07:59:31Z</time>
      </trkpt>
      <trkpt lat="49.77411" lon="2.2996">
        <ele>98.5</ele>
        <time>2023-07-12T07:59:32Z</time>
      </trkpt>
      <trkpt lat="49.77411" lon="2.29961">
        <ele>98.5</ele>
        <time>2023-07-12T07:59:33Z</time>
      </trkpt>
      <trkpt lat="49.7741" lon="2.29962">
        <ele>98.4</ele>
        <time>2023-07-12T07:59:34Z</time>
      </trkpt>
      <trkpt lat="49.77409" lon="2.29963">
        <ele>98.3</ele>
        <time>2023-07-12T07:59:35Z</time>
      </trkpt>
      <trkpt lat="49.77408" lon="2.29964">
        <ele>98.2</ele>
        <time>2023-07-12T07:59:36Z</time>
      </trkpt>
      <trkpt lat="49.77408" lon="2.29965">
        <ele>98.2</ele>
        <time>2023-07-12T07:59:37Z</time>
      </trkpt>
      <trkpt lat="49.77407" lon="2.29966">
        <ele>98.1</ele>
        <time>2023-07-12T07:59:38Z</time>
      </trkpt>
      <trkpt lat="49.77406" lon="2.29967">
        <ele>98</ele>
        <time>2023-07-12T07:59:39Z</time>
      </trkpt>
      <trkpt lat="49.77405" lon="2.29969">
        <ele>97.9</ele>
        <time>2023-07-12T07:59:41Z</time>
      </trkpt>
      <trkpt lat="49.77405" lon="2.2997">
        <ele>97.8</ele>
        <time>2023-07-12T07:59:42Z</time>
      </trkpt>
      <trkpt lat="49.77404" lon="2.29972">
        <ele>97.8</ele>
        <time>2023-07-12T07:59:43Z</time>
      </trkpt>
      <trkpt lat="49.77404" lon="2.29973">
        <ele>97.7</ele>
        <time>2023-07-12T07:59:44Z</time>
      </trkpt>
      <trkpt lat="49.77403" lon="2.29975">
        <ele>97.6</ele>
        <time>2023-07-12T07:59:45Z</time>
      </trkpt>
      <trkpt lat="49.77403" lon="2.29976">
        <ele>97.5</ele>
        <time>2023-07-12T07:59:46Z</time>
      </trkpt>
      <trkpt lat="49.77402" lon="2.29978">
        <ele>97.4</ele>
        <time>2023-07-12T07:59:48Z</time>
      </trkpt>
      <trkpt lat="49.77401" lon="2.29979">
        <ele>97.3</ele>
        <time>2023-07-12T07:59:49Z</time>
      </trkpt>
      <trkpt lat="49.77401" lon="2.29981">
        <ele>97.2</ele>
        <time>2023-07-12T07:59:50Z</time>
      </trkpt>
      <trkpt lat="49.774" lon="2.29983">
        <ele>97.1</ele>
        <time>2023-07-12T07:59:51Z</time>
      </trkpt>
      <trkpt lat="49.77399" lon="2.29986">
        <ele>97</ele>
        <time>2023-07-12T07:59:52Z</time>
      </trkpt>
      <trkpt lat="49.77399" lon="2.29987">
        <ele>96.9</ele>
        <time>2023-07-12T07:59:53Z</time>
      </trkpt>
      <trkpt lat="49.77398" lon="2.29988">
        <ele>96.9</ele>
        <time>2023-07-12T07:59:54Z</time>
      </trkpt>
      <trkpt lat="49.77398" lon="2.2999">
        <ele>96.8</ele>
        <time>2023-07-12T07:59:55Z</time>
      </trkpt>
      <trkpt lat="49.77397" lon="2.29991">
        <ele>96.7</ele>
        <time>2023-07-12T07:59:56Z</time>
      </trkpt>
      <trkpt lat="49.77396" lon="2.29993">
        <ele>96.6</ele>
        <time>2023-07-12T07:59:58Z</time>
      </trkpt>
      <trkpt lat="49.77396" lon="2.29995">
        <ele>96.5</ele>
        <time>2023-07-12T07:59:59Z</time>
      </trkpt>
      <trkpt lat="49.77395" lon="2.29996">
        <ele>96.4</ele>
        <time>2023-07-12T08:00:00Z</time>
      </trkpt>
      <trkpt lat="49.77395" lon="2.29998">
        <ele>96.4</ele>
        <time>2023-07-12T08:00:01Z</time>
      </trkpt>
      <trkpt lat="49.77394" lon="2.30001">
        <ele>96.2</ele>
        <time>2023-07-12T08:00:02Z</time>
      </trkpt>
      <trkpt lat="49.77394" lon="2.30002">
        <ele>96.2</ele>
        <time>2023-07-12T08:00:03Z</time>
      </trkpt>
      <trkpt lat="49.77394" lon="2.30003">
        <ele>96.1</ele>
        <time>2023-07-12T08:00:04Z</time>
      </trkpt>
      <trkpt lat="49.77393" lon="2.30005">
        <ele>96</ele>
        <time>2023-07-12T08:00:05Z</time>
      </trkpt>
      <trkpt lat="49.77393" lon="2.30007">
        <ele>95.9</ele>
        <time>2023-07-12T08:00:06Z</time>
      </trkpt>
      <trkpt lat="49.77392" lon="2.30009">
        <ele>95.8</ele>
        <time>2023-07-12T08:00:07Z</time>
      </trkpt>
      <trkpt lat="49.77391" lon="2.30011">
        <ele>95.7</ele>
        <time>2023-07-12T08:00:08Z</time>
      </trkpt>
      <trkpt lat="49.77391" lon="2.30013">
        <ele>95.6</ele>
        <time>2023-07-12T08:00:10Z</time>
      </trkpt>
      <trkpt lat="49.7739" lon="2.30014">
        <ele>95.5</ele>
        <time>2023-07-12T08:00:11Z</time>
      </trkpt>
      <trkpt lat="49.7739" lon="2.30016">
        <ele>95.4</ele>
        <time>2023-07-12T08:00:12Z</time>
      </trkpt>
      <trkpt lat="49.77389" lon="2.30019">
        <ele>95.2</ele>
        <time>2023-07-12T08:00:13Z</time>
      </trkpt>
      <trkpt lat="49.77389" lon="2.3002">
        <ele>95.2</ele>
        <time>2023-07-12T08:00:14Z</time>
      </trkpt>
      <trkpt lat="49.77388" lon="2.30022">
        <ele>95.1</ele>
        <time>2023-07-12T08:00:15Z</time>
      </trkpt>
      <trkpt lat="49.77388" lon="2.30025">
        <ele>94.9</ele>
        <time>2023-07-12T08:00:16Z</time>
      </trkpt>
      <trkpt lat="49.77387" lon="2.30026">
        <ele>94.9</ele>
        <time>2023-07-12T08:00:17Z</time>
      </trkpt>
      <trkpt lat="49.77387" lon="2.30027">
        <ele>94.8</ele>
        <time>2023-07-12T08:00:18Z</time>
      </trkpt>
      <trkpt lat="49.77386" lon="2.30029">
        <ele>94.7</ele>
        <time>2023-07-12T08:00:19Z</time>
      </trkpt>
      <trkpt lat="49.77386" lon="2.3003">
        <ele>94.6</ele>
        <time>2023-07-12T08:00:21Z</time>
      </trkpt>
      <trkpt lat="49.77386" lon="2.30032">
        <ele>94.6</ele>
        <time>2023-07-12T08:00:22Z</time>
      </trkpt>
      <trkpt lat="49.77386" lon="2.30036">
        <ele>94.4</ele>
        <time>2023-07-12T08:00:23Z</time>
      </trkpt>
      <trkpt lat="49.77385" lon="2.30037">
        <ele>94.4</ele>
        <time>2023-07-12T08:00:24Z</time>
      </trkpt>
      <trkpt lat="49.77385" lon="2.30038">
        <ele>94.3</ele>
        <time>2023-07-12T08:00:25Z</time>
      </trkpt>
      <trkpt lat="49.77384" lon="2.30042">
        <ele>94.2</ele>
        <time>2023-07-12T08:00:26Z</time>
      </trkpt>
      <trkpt lat="49.77384" lon="2.30043">
        <ele>94.1</ele>
        <time>2023-07-12T08:00:27Z</time>
      </trkpt>
      <trkpt lat="49.77384" lon="2.30044">
        <ele>94.1</ele>
        <time>2023-07-12T08:00:28Z</time>
      </trkpt>
      <trkpt lat="49.77383" lon="2.30046">
        <ele>94</ele>
        <time>2023-07-12T08:00:30Z</time>
      </trkpt>
      <trkpt lat="49.77383" lon="2.30048">
        <ele>93.9</ele>
        <time>2023-07-12T08:00:31Z</time>
      </trkpt>
      <trkpt lat="49.77382" lon="2.30051">
        <ele>93.8</ele>
        <time>2023-07-12T08:00:32Z</time>
      </trkpt>
      <trkpt lat="49.77381" lon="2.30052">
        <ele>93.7</ele>
        <time>2023-07-12T08:00:33Z</time>
      </trkpt>
      <trkpt lat="49.77381" lon="2.30053">
        <ele>93.6</ele>
        <time>2023-07-12T08:00:34Z</time>
      </trkpt>
      <trkpt lat="49.7738" lon="2.30055">
        <ele>93.6</ele>
        <time>2023-07-12T08:00:35Z</time>
      </trkpt>
      <trkpt lat="49.77379" lon="2.30057">
        <ele>93.5</ele>
        <time>2023-07-12T08:00:36Z</time>
      </trkpt>
      <trkpt lat="49.77378" lon="2.30058">
        <ele>93.4</ele>
        <time>2023-07-12T08:00:37Z</time>
      </trkpt>
      <trkpt lat="49.77377" lon="2.3006">
        <ele>93.3</ele>
        <time>2023-07-12T08:00:38Z</time>
      </trkpt>
      <trkpt lat="49.77376" lon="2.30061">
        <ele>93.2</ele>
        <time>2023-07-12T08:00:40Z</time>
      </trkpt>
      <trkpt lat="49.77375" lon="2.30064">
        <ele>93.1</ele>
        <time>2023-07-12T08:00:41Z</time>
      </trkpt>
      <trkpt lat="49.77374" lon="2.30065">
        <ele>93</ele>
        <time>2023-07-12T08:00:42Z</time>
      </trkpt>
      <trkpt lat="49.77374" lon="2.30066">
        <ele>93</ele>
        <time>2023-07-12T08:00:43Z</time>
      </trkpt>
      <trkpt lat="49.77372" lon="2.30068">
        <ele>92.8</ele>
        <time>2023-07-12T08:00:44Z</time>
      </trkpt>
      <trkpt lat="49.77372" lon="2.30069">
        <ele>92.8</ele>
        <time>2023-07-12T08:00:45Z</time>
      </trkpt>
      <trkpt lat="49.77371" lon="2.3007">
        <ele>92.7</ele>
        <time>2023-07-12T08:00:46Z</time>
      </trkpt>
      <trkpt lat="49.7737" lon="2.30071">
        <ele>92.6</ele>
        <time>2023-07-12T08:00:48Z</time>
      </trkpt>
      <trkpt lat="49.7737" lon="2.30072">
        <ele>92.5</ele>
        <time>2023-07-12T08:00:49Z</time>
      </trkpt>
      <trkpt lat="49.77369" lon="2.30073">
        <ele>92.5</ele>
        <time>2023-07-12T08:00:50Z</time>
      </trkpt>
      <trkpt lat="49.77367" lon="2.30075">
        <ele>92.3</ele>
        <time>2023-07-12T08:00:51Z</time>
      </trkpt>
      <trkpt lat="49.77367" lon="2.30076">
        <ele>92.2</ele>
        <time>2023-07-12T08:00:52Z</time>
      </trkpt>
      <trkpt lat="49.77366" lon="2.30076">
        <ele>92.2</ele>
        <time>2023-07-12T08:00:53Z</time>
      </trkpt>
      <trkpt lat="49.77364" lon="2.30079">
        <ele>92</ele>
        <time>2023-07-12T08:00:54Z</time>
      </trkpt>
      <trkpt lat="49.77364" lon="2.3008">
        <ele>91.9</ele>
        <time>2023-07-12T08:00:56Z</time>
      </trkpt>
      <trkpt lat="49.77363" lon="2.30081">
        <ele>91.9</ele>
        <time>2023-07-12T08:00:57Z</time>
      </trkpt>
      <trkpt lat="49.77362" lon="2.30084">
        <ele>91.7</ele>
        <time>2023-07-12T08:00:59Z</time>
      </trkpt>
      <trkpt lat="49.77361" lon="2.30085">
        <ele>91.6</ele>
        <time>2023-07-12T08:01:00Z</time>
      </trkpt>
      <trkpt lat="49.77361" lon="2.30086">
        <ele>91.6</ele>
        <time>2023-07-12T08:01:01Z</time>
      </trkpt>
      <trkpt lat="49.7736" lon="2.30088">
        <ele>91.5</ele>
        <time>2023-07-12T08:01:02Z</time>
      </trkpt>
      <trkpt lat="49.77359" lon="2.30089">
        <ele>91.4</ele>
        <time>2023-07-12T08:01:04Z</time>
      </trkpt>
      <trkpt lat="49.77359" lon="2.30091">
        <ele>91.3</ele>
        <time>2023-07-12T08:01:05Z</time>
      </trkpt>
      <trkpt lat="49.77358" lon="2.30092">
        <ele>91.2</ele>
        <time>2023-07-12T08:01:06Z</time>
      </trkpt>
      <trkpt lat="49.77357" lon="2.30092">
        <ele>91.1</ele>
        <time>2023-07-12T08:01:07Z</time>
      </trkpt>
      <trkpt lat="49.77356" lon="2.30092">
        <ele>91</ele>
        <time>2023-07-12T08:01:09Z</time>
      </trkpt>
      <trkpt lat="49.77355" lon="2.30091">
        <ele>91</ele>
        <time>2023-07-12T08:01:10Z</time>
      </trkpt>
      <trkpt lat="49.77355" lon="2.3009">
        <ele>90.9</ele>
        <time>2023-07-12T08:01:11Z</time>
      </trkpt>
      <trkpt lat="49.77355" lon="2.30089">
        <ele>90.9</ele>
        <time>2023-07-12T08:01:12Z</time>
      </trkpt>
      <trkpt lat="49.77354" lon="2.30089">
        <ele>90.8</ele>
        <time>2023-07-12T08:01:14Z</time>
      </trkpt>
      <trkpt lat="49.77355" lon="2.30088">
        <ele>90.8</ele>
        <time>2023-07-12T08:01:15Z</time>
      </trkpt>
      <trkpt lat="49.77355" lon="2.30086">
        <ele>90.7</ele>
        <time>2023-07-12T08:01:17Z</time>
      </trkpt>
      <trkpt lat="49.77355" lon="2.30087">
        <ele>90.7</ele>
        <time>2023-07-12T08:01:18Z</time>
      </trkpt>
      <trkpt lat="49.77355" lon="2.30087">
        <ele>90.7</ele>
        <time>2023-07-12T08:01:19Z</time>
      </trkpt>
      <trkpt lat="49.77355" lon="2.30087">
        <ele>90.7</ele>
        <time>2023-07-12T08:01:21Z</time>
      </trkpt>
      <trkpt lat="49.77356" lon="2.30087">
        <ele>90.6</ele>
        <time>2023-07-12T08:01:22Z</time>
      </trkpt>
      <trkpt lat="49.77356" lon="2.30088">
        <ele>90.6</ele>
        <time>2023-07-12T08:01:24Z</time>
      </trkpt>
      <trkpt lat="49.77356" lon="2.30088">
        <ele>90.6</ele>
        <time>2023-07-12T08:01:25Z</time>
      </trkpt>
      <trkpt lat="49.77357" lon="2.30088">
        <ele>90.6</ele>
        <time>2023-07-12T08:01:27Z</time>
      </trkpt>
      <trkpt lat="49.77357" lon="2.30088">
        <ele>90.5</ele>
        <time>2023-07-12T08:01:28Z</time>
      </trkpt>
      <trkpt lat="49.77357" lon="2.30089">
        <ele>90.5</ele>
        <time>2023-07-12T08:01:29Z</time>
      </trkpt>
      <trkpt lat="49.77357" lon="2.30089">
        <ele>90.5</ele>
        <time>2023-07-12T08:01:31Z</time>
      </trkpt>
      <trkpt lat="49.77358" lon="2.30089">
        <ele>90.5</ele>
        <time>2023-07-12T08:01:32Z</time>
      </trkpt>
      <trkpt lat="49.77358" lon="2.30089">
        <ele>90.4</ele>
        <time>2023-07-12T08:01:33Z</time>
      </trkpt>
      <trkpt lat="49.77358" lon="2.3009">
        <ele>90.4</ele>
        <time>2023-07-12T08:01:34Z</time>
      </trkpt>
      <trkpt lat="49.77358" lon="2.3009">
        <ele>90.4</ele>
        <time>2023-07-12T08:01:35Z</time>
      </trkpt>
      <trkpt lat="49.77359" lon="2.3009">
        <ele>90.4</ele>
        <time>2023-07-12T08:01:36Z</time>
      </trkpt>
      <trkpt lat="49.7736" lon="2.30091">
        <ele>90.3</ele>
        <time>2023-07-12T08:01:37Z</time>
      </trkpt>
      <trkpt lat="49.7736" lon="2.30091">
        <ele>90.3</ele>
        <time>2023-07-12T08:01:38Z</time>
      </trkpt>
      <trkpt lat="49.7736" lon="2.30091">
        <ele>90.2</ele>
        <time>2023-07-12T08:01:39Z</time>
      </trkpt>
      <trkpt lat="49.7736" lon="2.30091">
        <ele>90.2</ele>
        <time>2023-07-12T08:01:40Z</time>
      </trkpt>
      <trkpt lat="49.77361" lon="2.30091">
        <ele>90.2</ele>
        <time>2023-07-12T08:01:41Z</time>
      </trkpt>
      <trkpt lat="49.77361" lon="2.30092">
        <ele>90.2</ele>
        <time>2023-07-12T08:01:42Z</time>
      </trkpt>
      <trkpt lat="49.77358" lon="2.30091">
        <ele>90</ele>
        <time>2023-07-12T08:01:43Z</time>
      </trkpt>
      <trkpt lat="49.77358" lon="2.30092">
        <ele>89.9</ele>
        <time>2023-07-12T08:01:44Z</time>
      </trkpt>
      <trkpt lat="49.77358" lon="2.30094">
        <ele>89.8</ele>
        <time>2023-07-12T08:01:45Z</time>
      </trkpt>
      <trkpt lat="49.77358" lon="2.30096">
        <ele>89.7</ele>
        <time>2023-07-12T08:01:47Z</time>
      </trkpt>
      <trkpt lat="49.77358" lon="2.301">
        <ele>89.5</ele>
        <time>2023-07-12T08:01:48Z</time>
      </trkpt>
      <trkpt lat="49.77357" lon="2.30101">
        <ele>89.5</ele>
        <time>2023-07-12T08:01:49Z</time>
      </trkpt>
      <trkpt lat="49.77357" lon="2.30102">
        <ele>89.4</ele>
        <time>2023-07-12T08:01:50Z</time>
      </trkpt>
      <trkpt lat="49.77357" lon="2.30104">
        <ele>89.3</ele>
        <time>2023-07-12T08:01:51Z</time>
      </trkpt>
      <trkpt lat="49.77356" lon="2.30106">
        <ele>89.3</ele>
        <time>2023-07-12T08:01:52Z</time>
      </trkpt>
      <trkpt lat="49.77356" lon="2.30107">
        <ele>89.2</ele>
        <time>2023-07-12T08:01:54Z</time>
      </trkpt>
      <trkpt lat="49.77355" lon="2.30109">
        <ele>89.1</ele>
        <time>2023-07-12T08:01:55Z</time>
      </trkpt>
      <trkpt lat="49.77355" lon="2.3011">
        <ele>89</ele>
        <time>2023-07-12T08:01:56Z</time>
      </trkpt>
      <trkpt lat="49.77354" lon="2.30112">
        <ele>88.9</ele>
        <time>2023-07-12T08:01:57Z</time>
      </trkpt>
      <trkpt lat="49.77353" lon="2.30114">
        <ele>88.8</ele>
        <time>2023-07-12T08:01:58Z</time>
      </trkpt>
      <trkpt lat="49.77352" lon="2.30115">
        <ele>88.7</ele>
        <time>2023-07-12T08:01:59Z</time>
      </trkpt>
      <trkpt lat="49.77352" lon="2.30116">
        <ele>88.7</ele>
        <time>2023-07-12T08:02:00Z</time>
      </trkpt>
      <trkpt lat="49.77351" lon="2.30117">
        <ele>88.6</ele>
        <time>2023-07-12T08:02:02Z</time>
      </trkpt>
      <trkpt lat="49.77351" lon="2.30118">
        <ele>88.6</ele>
        <time>2023-07-12T08:02:03Z</time>
      </trkpt>
      <trkpt lat="49.77351" lon="2.30119">
        <ele>88.6</ele>
        <time>2023-07-12T08:02:04Z</time>
      </trkpt>
      <trkpt lat="49.7735" lon="2.30121">
        <ele>88.5</ele>
        <time>2023-07-12T08:02:05Z</time>
      </trkpt>
      <trkpt lat="49.7735" lon="2.30122">
        <ele>88.4</ele>
        <time>2023-07-12T08:02:06Z</time>
      </trkpt>
      <trkpt lat="49.77349" lon="2.30124">
        <ele>88.4</ele>
        <time>2023-07-12T08:02:07Z</time>
      </trkpt>
      <trkpt lat="49.77349" lon="2.30127">
        <ele>88.3</ele>
        <time>2023-07-12T08:02:08Z</time>
      </trkpt>
      <trkpt lat="49.77348" lon="2.30129">
        <ele>88.2</ele>
        <time>2023-07-12T08:02:09Z</time>
      </trkpt>
      <trkpt lat="49.77347" lon="2.30132">
        <ele>88.1</ele>
        <time>2023-07-12T08:02:11Z</time>
      </trkpt>
      <trkpt lat="49.77347" lon="2.30134">
        <ele>88.1</ele>
        <time>2023-07-12T08:02:12Z</time>
      </trkpt>
      <trkpt lat="49.77346" lon="2.30135">
        <ele>88.1</ele>
        <time>2023-07-12T08:02:13Z</time>
      </trkpt>
      <trkpt lat="49.77346" lon="2.30137">
        <ele>88</ele>
        <time>2023-07-12T08:02:14Z</time>
      </trkpt>
      <trkpt lat="49.77345" lon="2.30139">
        <ele>88</ele>
        <time>2023-07-12T08:02:15Z</time>
      </trkpt>
      <trkpt lat="49.77344" lon="2.30141">
        <ele>87.9</ele>
        <time>2023-07-12T08:02:16Z</time>
      </trkpt>
      <trkpt lat="49.77343" lon="2.30143">
        <ele>87.9</ele>
        <time>2023-07-12T08:02:17Z</time>
      </trkpt>
      <trkpt lat="49.77342" lon="2.30146">
        <ele>87.9</ele>
        <time>2023-07-12T08:02:19Z</time>
      </trkpt>
      <trkpt lat="49.77341" lon="2.30147">
        <ele>87.8</ele>
        <time>2023-07-12T08:02:20Z</time>
      </trkpt>
      <trkpt lat="49.77341" lon="2.30148">
        <ele>87.8</ele>
        <time>2023-07-12T08:02:21Z</time>
      </trkpt>
      <trkpt lat="49.77339" lon="2.3015">
        <ele>87.8</ele>
        <time>2023-07-12T08:02:22Z</time>
      </trkpt>
      <trkpt lat="49.77339" lon="2.30151">
        <ele>87.8</ele>
        <time>2023-07-12T08:02:23Z</time>
      </trkpt>
      <trkpt lat="49.77338" lon="2.30152">
        <ele>87.8</ele>
        <time>2023-07-12T08:02:24Z</time>
      </trkpt>
      <trkpt lat="49.77337" lon="2.30154">
        <ele>87.8</ele>
        <time>2023-07-12T08:02:26Z</time>
      </trkpt>
      <trkpt lat="49.77337" lon="2.30155">
        <ele>87.8</ele>
        <time>2023-07-12T08:02:27Z</time>
      </trkpt>
      <trkpt lat="49.77336" lon="2.30157">
        <ele>87.8</ele>
        <time>2023-07-12T08:02:28Z</time>
      </trkpt>
      <trkpt lat="49.77335" lon="2.30158">
        <ele>87.8</ele>
        <time>2023-07-12T08:02:30Z</time>
      </trkpt>
      <trkpt lat="49.77335" lon="2.30159">
        <ele>87.8</ele>
        <time>2023-07-12T08:02:31Z</time>
      </trkpt>
      <trkpt lat="49.77334" lon="2.3016">
        <ele>87.8</ele>
        <time>2023-07-12T08:02:32Z</time>
      </trkpt>
      <trkpt lat="49.77334" lon="2.30162">
        <ele>87.8</ele>
        <time>2023-07-12T08:02:33Z</time>
      </trkpt>
      <trkpt lat="49.77334" lon="2.30162">
        <ele>87.8</ele>
        <time>2023-07-12T08:02:34Z</time>
      </trkpt>
      <trkpt lat="49.77334" lon="2.30164">
        <ele>87.8</ele>
        <time>2023-07-12T08:02:35Z</time>
      </trkpt>
      <trkpt lat="49.77335" lon="2.30165">
        <ele>87.8</ele>
        <time>2023-07-12T08:02:37Z</time>
      </trkpt>
      <trkpt lat="49.77335" lon="2.30166">
        <ele>87.8</ele>
        <time>2023-07-12T08:02:38Z</time>
      </trkpt>
      <trkpt lat="49.77335" lon="2.30167">
        <ele>87.8</ele>
        <time>2023-07-12T08:02:39Z</time>
      </trkpt>
      <trkpt lat="49.77335" lon="2.30167">
        <ele>87.8</ele>
        <time>2023-07-12T08:02:40Z</time>
      </trkpt>
      <trkpt lat="49.77335" lon="2.30169">
        <ele>87.8</ele>
        <time>2023-07-12T08:02:41Z</time>
      </trkpt>
      <trkpt lat="49.77335" lon="2.3017">
        <ele>87.7</ele>
        <time>2023-07-12T08:02:43Z</time>
      </trkpt>
      <trkpt lat="49.77335" lon="2.30171">
        <ele>87.7</ele>
        <time>2023-07-12T08:02:44Z</time>
      </trkpt>
      <trkpt lat="49.77334" lon="2.30173">
        <ele>87.7</ele>
        <time>2023-07-12T08:02:46Z</time>
      </trkpt>
      <trkpt lat="49.77334" lon="2.30173">
        <ele>87.7</ele>
        <time>2023-07-12T08:02:47Z</time>
      </trkpt>
      <trkpt lat="49.77333" lon="2.30173">
        <ele>87.7</ele>
        <time>2023-07-12T08:02:48Z</time>
      </trkpt>
      <trkpt lat="49.77333" lon="2.30173">
        <ele>87.7</ele>
        <time>2023-07-12T08:02:50Z</time>
      </trkpt>
      <trkpt lat="49.77333" lon="2.30173">
        <ele>87.7</ele>
        <time>2023-07-12T08:02:51Z</time>
      </trkpt>
      <trkpt lat="49.77333" lon="2.30173">
        <ele>87.7</ele>
        <time>2023-07-12T08:02:53Z</time>
      </trkpt>
      <trkpt lat="49.77333" lon="2.30173">
        <ele>87.7</ele>
        <time>2023-07-12T08:02:54Z</time>
      </trkpt>
      <trkpt lat="49.77333" lon="2.30173">
        <ele>87.7</ele>
        <time>2023-07-12T08:02:55Z</time>
      </trkpt>
      <trkpt lat="49.77332" lon="2.30173">
        <ele>87.7</ele>
        <time>2023-07-12T08:02:57Z</time>
      </trkpt>
      <trkpt lat="49.77332" lon="2.30173">
        <ele>87.7</ele>
        <time>2023-07-12T08:02:58Z</time>
      </trkpt>
      <trkpt lat="49.77332" lon="2.30172">
        <ele>87.7</ele>
        <time>2023-07-12T08:03:00Z</time>
      </trkpt>
      <trkpt lat="49.77332" lon="2.30172">
        <ele>87.7</ele>
        <time>2023-07-12T08:03:01Z</time>
      </trkpt>
      <trkpt lat="49.77333" lon="2.30172">
        <ele>87.7</ele>
        <time>2023-07-12T08:03:03Z</time>
      </trkpt>
      <trkpt lat="49.77333" lon="2.30172">
        <ele>87.7</ele>
        <time>2023-07-12T08:03:04Z</time>
      </trkpt>
      <trkpt lat="49.77333" lon="2.30172">
        <ele>87.7</ele>
        <time>2023-07-12T08:03:05Z</time>
      </trkpt>
      <trkpt lat="49.77333" lon="2.30172">
        <ele>87.7</ele>
        <time>2023-07-12T08:03:06Z</time>
      </trkpt>
      <trkpt lat="49.77333" lon="2.30172">
        <ele>87.7</ele>
        <time>2023-07-12T08:03:07Z</time>
      </trkpt>
      <trkpt lat="49.77333" lon="2.30172">
        <ele>87.7</ele>
        <time>2023-07-12T08:03:08Z</time>
      </trkpt>
      <trkpt lat="49.77333" lon="2.30172">
        <ele>87.7</ele>
        <time>2023-07-12T08:03:09Z</time>
      </trkpt>
      <trkpt lat="49.77333" lon="2.30172">
        <ele>87.7</ele>
        <time>2023-07-12T08:03:10Z</time>
      </trkpt>
      <trkpt lat="49.77333" lon="2.30172">
        <ele>87.7</ele>
        <time>2023-07-12T08:03:11Z</time>
      </trkpt>
      <trkpt lat="49.77333" lon="2.30172">
        <ele>87.7</ele>
        <time>2023-07-12T08:03:12Z</time>
      </trkpt>
      <trkpt lat="49.77333" lon="2.30172">
        <ele>87.7</ele>
        <time>2023-07-12T08:03:13Z</time>
      </trkpt>
      <trkpt lat="49.77333" lon="2.30172">
        <ele>87.7</ele>
        <time>2023-07-12T08:03:14Z</time>
      </trkpt>
      <trkpt lat="49.77333" lon="2.30172">
        <ele>87.7</ele>
        <time>2023-07-12T08:03:15Z</time>
      </trkpt>
      <trkpt lat="49.77333" lon="2.30172">
        <ele>87.7</ele>
        <time>2023-07-12T08:03:16Z</time>
      </trkpt>
      <trkpt lat="49.77333" lon="2.30172">
        <ele>87.7</ele>
        <time>2023-07-12T08:03:17Z</time>
      </trkpt>
      <trkpt lat="49.77333" lon="2.30172">
        <ele>87.7</ele>
        <time>2023-07-12T08:03:18Z</time>
      </trkpt>
      <trkpt lat="49.77333" lon="2.30172">
        <ele>87.7</ele>
        <time>2023-07-12T08:03:19Z</time>
      </trkpt>
      <trkpt lat="49.77333" lon="2.30172">
        <ele>87.7</ele>
        <time>2023-07-12T08:03:20Z</time>
      </trkpt>
      <trkpt lat="49.77333" lon="2.30172">
        <ele>87.7</ele>
        <time>2023-07-12T08:03:21Z</time>
      </trkpt>
      <trkpt lat="49.77333" lon="2.30172">
        <ele>87.7</ele>
        <time>2023-07-12T08:03:22Z</time>
      </trkpt>
      <trkpt lat="49.77333" lon="2.30172">
        <ele>87.7</ele>
        <time>2023-07-12T08:03:23Z</time>
      </trkpt>
      <trkpt lat="49.77333" lon="2.30172">
        <ele>87.7</ele>
        <time>2023-07-12T08:03:24Z</time>
      </trkpt>
      <trkpt lat="49.77333" lon="2.30172">
        <ele>87.7</ele>
        <time>2023-07-12T08:03:25Z</time>
      </trkpt>
      <trkpt lat="49.77333" lon="2.30172">
        <ele>87.7</ele>
        <time>2023-07-12T08:03:26Z</time>
      </trkpt>
      <trkpt lat="49.77333" lon="2.30172">
        <ele>87.7</ele>
        <time>2023-07-12T08:03:27Z</time>
      </trkpt>
      <trkpt lat="49.77333" lon="2.30172">
        <ele>87.7</ele>
        <time>2023-07-12T08:03:28Z</time>
      </trkpt>
      <trkpt lat="49.77333" lon="2.30172">
        <ele>87.7</ele>
        <time>2023-07-12T08:03:29Z</time>
      </trkpt>
      <trkpt lat="49.77333" lon="2.30172">
        <ele>87.7</ele>
        <time>2023-07-12T08:03:30Z</time>
      </trkpt>
      <trkpt lat="49.77333" lon="2.30172">
        <ele>87.7</ele>
        <time>2023-07-12T08:03:31Z</time>
      </trkpt>
      <trkpt lat="49.77333" lon="2.30172">
        <ele>87.7</ele>
        <time>2023-07-12T08:03:32Z</time>
      </trkpt>
      <trkpt lat="49.77333" lon="2.30172">
        <ele>87.7</ele>
        <time>2023-07-12T08:03:33Z</time>
      </trkpt>
      <trkpt lat="49.77333" lon="2.30172">
        <ele>87.7</ele>
        <time>2023-07-12T08:03:34Z</time>
      </trkpt>
      <trkpt lat="49.77333" lon="2.30172">
        <ele>87.7</ele>
        <time>2023-07-12T08:03:35Z</time>
      </trkpt>
      <trkpt lat="49.77333" lon="2.30172">
        <ele>87.7</ele>
        <time>2023-07-12T08:03:36Z</time>
      </trkpt>
      <trkpt lat="49.77333" lon="2.30172">
        <ele>87.7</ele>
        <time>2023-07-12T08:03:37Z</time>
      </trkpt>
      <trkpt lat="49.77333" lon="2.30172">
        <ele>87.7</ele>
        <time>2023-07-12T08:03:38Z</time>
      </trkpt>
      <trkpt lat="49.77333" lon="2.30172">
        <ele>87.7</ele>
        <time>2023-07-12T08:03:39Z</time>
      </trkpt>
      <trkpt lat="49.77333" lon="2.30172">
        <ele>87.7</ele>
        <time>2023-07-12T08:03:40Z</time>
      </trkpt>
      <trkpt lat="49.77333" lon="2.30172">
        <ele>87.7</ele>
        <time>2023-07-12T08:03:41Z</time>
      </trkpt>
      <trkpt lat="49.77333" lon="2.30172">
        <ele>87.7</ele>
        <time>2023-07-12T08:03:42Z</time>
      </trkpt>
      <trkpt lat="49.77334" lon="2.30171">
        <ele>87.7</ele>
        <time>2023-07-12T08:03:43Z</time>
      </trkpt>
      <trkpt lat="49.77335" lon="2.30169">
        <ele>87.7</ele>
        <time>2023-07-12T08:03:44Z</time>
      </trkpt>
      <trkpt lat="49.77335" lon="2.30168">
        <ele>87.7</ele>
        <time>2023-07-12T08:03:45Z</time>
      </trkpt>
      <trkpt lat="49.77336" lon="2.30168">
        <ele>87.7</ele>
        <time>2023-07-12T08:03:46Z</time>
      </trkpt>
      <trkpt lat="49.77337" lon="2.30168">
        <ele>87.7</ele>
        <time>2023-07-12T08:03:47Z</time>
      </trkpt>
      <trkpt lat="49.77337" lon="2.30168">
        <ele>87.7</ele>
        <time>2023-07-12T08:03:48Z</time>
      </trkpt>
      <trkpt lat="49.77338" lon="2.30169">
        <ele>87.7</ele>
        <time>2023-07-12T08:03:49Z</time>
      </trkpt>
      <trkpt lat="49.77338" lon="2.30171">
        <ele>87.7</ele>
        <time>2023-07-12T08:03:51Z</time>
      </trkpt>
      <trkpt lat="49.77339" lon="2.30171">
        <ele>87.7</ele>
        <time>2023-07-12T08:03:52Z</time>
      </trkpt>
      <trkpt lat="49.7734" lon="2.30172">
        <ele>87.7</ele>
        <time>2023-07-12T08:03:53Z</time>
      </trkpt>
      <trkpt lat="49.77342" lon="2.30173">
        <ele>87.7</ele>
        <time>2023-07-12T08:03:54Z</time>
      </trkpt>
      <trkpt lat="49.77343" lon="2.30174">
        <ele>87.6</ele>
        <time>2023-07-12T08:03:55Z</time>
      </trkpt>
      <trkpt lat="49.77344" lon="2.30174">
        <ele>87.6</ele>
        <time>2023-07-12T08:03:57Z</time>
      </trkpt>
      <trkpt lat="49.77344" lon="2.30174">
        <ele>87.6</ele>
        <time>2023-07-12T08:03:59Z</time>
      </trkpt>
      <trkpt lat="49.77345" lon="2.30173">
        <ele>87.6</ele>
        <time>2023-07-12T08:04:00Z</time>
      </trkpt>
      <trkpt lat="49.77346" lon="2.30173">
        <ele>87.6</ele>
        <time>2023-07-12T08:04:02Z</time>
      </trkpt>
      <trkpt lat="49.77346" lon="2.30172">
        <ele>87.6</ele>
        <time>2023-07-12T08:04:03Z</time>
      </trkpt>
      <trkpt lat="49.77347" lon="2.30173">
        <ele>87.6</ele>
        <time>2023-07-12T08:04:04Z</time>
      </trkpt>
      <trkpt lat="49.77347" lon="2.30173">
        <ele>87.6</ele>
        <time>2023-07-12T08:04:05Z</time>
      </trkpt>
      <trkpt lat="49.77348" lon="2.30174">
        <ele>87.6</ele>
        <time>2023-07-12T08:04:06Z</time>
      </trkpt>
      <trkpt lat="49.77348" lon="2.30176">
        <ele>87.6</ele>
        <time>2023-07-12T08:04:08Z</time>
      </trkpt>
      <trkpt lat="49.77349" lon="2.30177">
        <ele>87.5</ele>
        <time>2023-07-12T08:04:09Z</time>
      </trkpt>
      <trkpt lat="49.7735" lon="2.30178">
        <ele>87.5</ele>
        <time>2023-07-12T08:04:10Z</time>
      </trkpt>
      <trkpt lat="49.77351" lon="2.30179">
        <ele>87.5</ele>
        <time>2023-07-12T08:04:11Z</time>
      </trkpt>
      <trkpt lat="49.77352" lon="2.3018">
        <ele>87.5</ele>
        <time>2023-07-12T08:04:12Z</time>
      </trkpt>
      <trkpt lat="49.77352" lon="2.3018">
        <ele>87.5</ele>
        <time>2023-07-12T08:04:14Z</time>
      </trkpt>
      <trkpt lat="49.77353" lon="2.30181">
        <ele>87.5</ele>
        <time>2023-07-12T08:04:15Z</time>
      </trkpt>
      <trkpt lat="49.77354" lon="2.30182">
        <ele>87.4</ele>
        <time>2023-07-12T08:04:16Z</time>
      </trkpt>
      <trkpt lat="49.77354" lon="2.30183">
        <ele>87.4</ele>
        <time>2023-07-12T08:04:17Z</time>
      </trkpt>
      <trkpt lat="49.77355" lon="2.30184">
        <ele>87.4</ele>
        <time>2023-07-12T08:04:18Z</time>
      </trkpt>
      <trkpt lat="49.77356" lon="2.30185">
        <ele>87.4</ele>
        <time>2023-07-12T08:04:19Z</time>
      </trkpt>
      <trkpt lat="49.77356" lon="2.30187">
        <ele>87.4</ele>
        <time>2023-07-12T08:04:21Z</time>
      </trkpt>
      <trkpt lat="49.77357" lon="2.30188">
        <ele>87.4</ele>
        <time>2023-07-12T08:04:22Z</time>
      </trkpt>
      <trkpt lat="49.77358" lon="2.30188">
        <ele>87.3</ele>
        <time>2023-07-12T08:04:23Z</time>
      </trkpt>
      <trkpt lat="49.77359" lon="2.30189">
        <ele>87.3</ele>
        <time>2023-07-12T08:04:24Z</time>
      </trkpt>
      <trkpt lat="49.7736" lon="2.3019">
        <ele>87.3</ele>
        <time>2023-07-12T08:04:25Z</time>
      </trkpt>
      <trkpt lat="49.77362" lon="2.30192">
        <ele>87.3</ele>
        <time>2023-07-12T08:04:26Z</time>
      </trkpt>
      <trkpt lat="49.77363" lon="2.30192">
        <ele>87.3</ele>
        <time>2023-07-12T08:04:28Z</time>
      </trkpt>
      <trkpt lat="49.77364" lon="2.30193">
        <ele>87.3</ele>
        <time>2023-07-12T08:04:29Z</time>
      </trkpt>
      <trkpt lat="49.77365" lon="2.30194">
        <ele>87.2</ele>
        <time>2023-07-12T08:04:30Z</time>
      </trkpt>
      <trkpt lat="49.77366" lon="2.30195">
        <ele>87.2</ele>
        <time>2023-07-12T08:04:31Z</time>
      </trkpt>
      <trkpt lat="49.77367" lon="2.30196">
        <ele>87.2</ele>
        <time>2023-07-12T08:04:32Z</time>
      </trkpt>
      <trkpt lat="49.77368" lon="2.30198">
        <ele>87.2</ele>
        <time>2023-07-12T08:04:34Z</time>
      </trkpt>
      <trkpt lat="49.77369" lon="2.30199">
        <ele>87.2</ele>
        <time>2023-07-12T08:04:35Z</time>
      </trkpt>
      <trkpt lat="49.7737" lon="2.30201">
        <ele>87.2</ele>
        <time>2023-07-12T08:04:36Z</time>
      </trkpt>
      <trkpt lat="49.77372" lon="2.30203">
        <ele>87.2</ele>
        <time>2023-07-12T08:04:37Z</time>
      </trkpt>
      <trkpt lat="49.77373" lon="2.30204">
        <ele>87.2</ele>
        <time>2023-07-12T08:04:38Z</time>
      </trkpt>
      <trkpt lat="49.77373" lon="2.30205">
        <ele>87.1</ele>
        <time>2023-07-12T08:04:39Z</time>
      </trkpt>
      <trkpt lat="49.77375" lon="2.30207">
        <ele>87.1</ele>
        <time>2023-07-12T08:04:40Z</time>
      </trkpt>
      <trkpt lat="49.77376" lon="2.30207">
        <ele>87.1</ele>
        <time>2023-07-12T08:04:42Z</time>
      </trkpt>
      <trkpt lat="49.77376" lon="2.30208">
        <ele>87.1</ele>
        <time>2023-07-12T08:04:43Z</time>
      </trkpt>
      <trkpt lat="49.77377" lon="2.30209">
        <ele>87.1</ele>
        <time>2023-07-12T08:04:44Z</time>
      </trkpt>
      <trkpt lat="49.77378" lon="2.3021">
        <ele>87.1</ele>
        <time>2023-07-12T08:04:45Z</time>
      </trkpt>
      <trkpt lat="49.77379" lon="2.30211">
        <ele>87.1</ele>
        <time>2023-07-12T08:04:46Z</time>
      </trkpt>
      <trkpt lat="49.7738" lon="2.30214">
        <ele>87.1</ele>
        <time>2023-07-12T08:04:47Z</time>
      </trkpt>
      <trkpt lat="49.7738" lon="2.30215">
        <ele>87</ele>
        <time>2023-07-12T08:04:49Z</time>
      </trkpt>
      <trkpt lat="49.77381" lon="2.30216">
        <ele>87</ele>
        <time>2023-07-12T08:04:50Z</time>
      </trkpt>
      <trkpt lat="49.77382" lon="2.30219">
        <ele>87</ele>
        <time>2023-07-12T08:04:51Z</time>
      </trkpt>
      <trkpt lat="49.77383" lon="2.3022">
        <ele>87</ele>
        <time>2023-07-12T08:04:52Z</time>
      </trkpt>
      <trkpt lat="49.77383" lon="2.30221">
        <ele>87</ele>
        <time>2023-07-12T08:04:53Z</time>
      </trkpt>
      <trkpt lat="49.77385" lon="2.30223">
        <ele>87</ele>
        <time>2023-07-12T08:04:54Z</time>
      </trkpt>
      <trkpt lat="49.77386" lon="2.30224">
        <ele>87</ele>
        <time>2023-07-12T08:04:55Z</time>
      </trkpt>
      <trkpt lat="49.77387" lon="2.30225">
        <ele>87</ele>
        <time>2023-07-12T08:04:57Z</time>
      </trkpt>
      <trkpt lat="49.77387" lon="2.30226">
        <ele>86.9</ele>
        <time>2023-07-12T08:04:58Z</time>
      </trkpt>
      <trkpt lat="49.77388" lon="2.30227">
        <ele>86.9</ele>
        <time>2023-07-12T08:04:59Z</time>
      </trkpt>
      <trkpt lat="49.77389" lon="2.30228">
        <ele>86.9</ele>
        <time>2023-07-12T08:05:00Z</time>
      </trkpt>
      <trkpt lat="49.7739" lon="2.30229">
        <ele>86.9</ele>
        <time>2023-07-12T08:05:01Z</time>
      </trkpt>
      <trkpt lat="49.77391" lon="2.30231">
        <ele>86.9</ele>
        <time>2023-07-12T08:05:03Z</time>
      </trkpt>
      <trkpt lat="49.77392" lon="2.30232">
        <ele>86.9</ele>
        <time>2023-07-12T08:05:04Z</time>
      </trkpt>
      <trkpt lat="49.77393" lon="2.30233">
        <ele>86.9</ele>
        <time>2023-07-12T08:05:05Z</time>
      </trkpt>
      <trkpt lat="49.77394" lon="2.30234">
        <ele>86.9</ele>
        <time>2023-07-12T08:05:06Z</time>
      </trkpt>
      <trkpt lat="49.77394" lon="2.30235">
        <ele>86.8</ele>
        <time>2023-07-12T08:05:07Z</time>
      </trkpt>
      <trkpt lat="49.77395" lon="2.30236">
        <ele>86.8</ele>
        <time>2023-07-12T08:05:08Z</time>
      </trkpt>
      <trkpt lat="49.77396" lon="2.30237">
        <ele>86.8</ele>
        <time>2023-07-12T08:05:09Z</time>
      </trkpt>
      <trkpt lat="49.77397" lon="2.30238">
        <ele>86.8</ele>
        <time>2023-07-12T08:05:11Z</time>
      </trkpt>
      <trkpt lat="49.77399" lon="2.30238">
        <ele>86.8</ele>
        <time>2023-07-12T08:05:12Z</time>
      </trkpt>
      <trkpt lat="49.774" lon="2.30239">
        <ele>86.8</ele>
        <time>2023-07-12T08:05:13Z</time>
      </trkpt>
      <trkpt lat="49.77401" lon="2.3024">
        <ele>86.7</ele>
        <time>2023-07-12T08:05:14Z</time>
      </trkpt>
      <trkpt lat="49.77402" lon="2.30241">
        <ele>86.7</ele>
        <time>2023-07-12T08:05:15Z</time>
      </trkpt>
      <trkpt lat="49.77404" lon="2.30241">
        <ele>86.7</ele>
        <time>2023-07-12T08:05:16Z</time>
      </trkpt>
      <trkpt lat="49.77405" lon="2.30242">
        <ele>86.7</ele>
        <time>2023-07-12T08:05:17Z</time>
      </trkpt>
      <trkpt lat="49.77406" lon="2.30243">
        <ele>86.7</ele>
        <time>2023-07-12T08:05:19Z</time>
      </trkpt>
      <trkpt lat="49.77408" lon="2.30244">
        <ele>86.7</ele>
        <time>2023-07-12T08:05:20Z</time>
      </trkpt>
      <trkpt lat="49.77409" lon="2.30244">
        <ele>86.6</ele>
        <time>2023-07-12T08:05:21Z</time>
      </trkpt>
      <trkpt lat="49.77411" lon="2.30245">
        <ele>86.6</ele>
        <time>2023-07-12T08:05:22Z</time>
      </trkpt>
      <trkpt lat="49.77413" lon="2.30246">
        <ele>86.6</ele>
        <time>2023-07-12T08:05:23Z</time>
      </trkpt>
      <trkpt lat="49.77413" lon="2.30247">
        <ele>86.6</ele>
        <time>2023-07-12T08:05:24Z</time>
      </trkpt>
      <trkpt lat="49.77414" lon="2.30247">
        <ele>86.6</ele>
        <time>2023-07-12T08:05:25Z</time>
      </trkpt>
      <trkpt lat="49.77416" lon="2.30249">
        <ele>86.6</ele>
        <time>2023-07-12T08:05:26Z</time>
      </trkpt>
      <trkpt lat="49.77417" lon="2.3025">
        <ele>86.6</ele>
        <time>2023-07-12T08:05:28Z</time>
      </trkpt>
      <trkpt lat="49.77417" lon="2.3025">
        <ele>86.6</ele>
        <time>2023-07-12T08:05:29Z</time>
      </trkpt>
      <trkpt lat="49.77419" lon="2.30252">
        <ele>86.5</ele>
        <time>2023-07-12T08:05:30Z</time>
      </trkpt>
      <trkpt lat="49.7742" lon="2.30253">
        <ele>86.5</ele>
        <time>2023-07-12T08:05:31Z</time>
      </trkpt>
      <trkpt lat="49.77421" lon="2.30253">
        <ele>86.5</ele>
        <time>2023-07-12T08:05:32Z</time>
      </trkpt>
      <trkpt lat="49.77422" lon="2.30255">
        <ele>86.5</ele>
        <time>2023-07-12T08:05:33Z</time>
      </trkpt>
      <trkpt lat="49.77423" lon="2.30256">
        <ele>86.5</ele>
        <time>2023-07-12T08:05:34Z</time>
      </trkpt>
      <trkpt lat="49.77424" lon="2.30257">
        <ele>86.5</ele>
        <time>2023-07-12T08:05:35Z</time>
      </trkpt>
      <trkpt lat="49.77426" lon="2.30258">
        <ele>86.5</ele>
        <time>2023-07-12T08:05:37Z</time>
      </trkpt>
      <trkpt lat="49.77427" lon="2.30259">
        <ele>86.5</ele>
        <time>2023-07-12T08:05:38Z</time>
      </trkpt>
      <trkpt lat="49.77428" lon="2.3026">
        <ele>86.5</ele>
        <time>2023-07-12T08:05:39Z</time>
      </trkpt>
      <trkpt lat="49.77429" lon="2.30261">
        <ele>86.5</ele>
        <time>2023-07-12T08:05:40Z</time>
      </trkpt>
      <trkpt lat="49.7743" lon="2.30262">
        <ele>86.5</ele>
        <time>2023-07-12T08:05:41Z</time>
      </trkpt>
      <trkpt lat="49.77431" lon="2.30263">
        <ele>86.4</ele>
        <time>2023-07-12T08:05:42Z</time>
      </trkpt>
      <trkpt lat="49.77432" lon="2.30265">
        <ele>86.4</ele>
        <time>2023-07-12T08:05:44Z</time>
      </trkpt>
      <trkpt lat="49.77433" lon="2.30266">
        <ele>86.4</ele>
        <time>2023-07-12T08:05:45Z</time>
      </trkpt>
      <trkpt lat="49.77434" lon="2.30266">
        <ele>86.4</ele>
        <time>2023-07-12T08:05:46Z</time>
      </trkpt>
      <trkpt lat="49.77435" lon="2.30268">
        <ele>86.4</ele>
        <time>2023-07-12T08:05:47Z</time>
      </trkpt>
      <trkpt lat="49.77436" lon="2.30269">
        <ele>86.4</ele>
        <time>2023-07-12T08:05:48Z</time>
      </trkpt>
      <trkpt lat="49.77436" lon="2.3027">
        <ele>86.4</ele>
        <time>2023-07-12T08:05:49Z</time>
      </trkpt>
      <trkpt lat="49.77437" lon="2.30271">
        <ele>86.4</ele>
        <time>2023-07-12T08:05:50Z</time>
      </trkpt>
      <trkpt lat="49.77438" lon="2.30272">
        <ele>86.4</ele>
        <time>2023-07-12T08:05:51Z</time>
      </trkpt>
      <trkpt lat="49.77439" lon="2.30274">
        <ele>86.4</ele>
        <time>2023-07-12T08:05:53Z</time>
      </trkpt>
      <trkpt lat="49.7744" lon="2.30275">
        <ele>86.4</ele>
        <time>2023-07-12T08:05:54Z</time>
      </trkpt>
      <trkpt lat="49.77441" lon="2.30276">
        <ele>86.4</ele>
        <time>2023-07-12T08:05:55Z</time>
      </trkpt>
      <trkpt lat="49.77442" lon="2.30277">
        <ele>86.4</ele>
        <time>2023-07-12T08:05:56Z</time>
      </trkpt>
      <trkpt lat="49.77443" lon="2.30278">
        <ele>86.4</ele>
        <time>2023-07-12T08:05:57Z</time>
      </trkpt>
      <trkpt lat="49.77443" lon="2.30279">
        <ele>86.4</ele>
        <time>2023-07-12T08:05:58Z</time>
      </trkpt>
      <trkpt lat="49.77444" lon="2.3028">
        <ele>86.4</ele>
        <time>2023-07-12T08:05:59Z</time>
      </trkpt>
      <trkpt lat="49.77445" lon="2.3028">
        <ele>86.4</ele>
        <time>2023-07-12T08:06:01Z</time>
      </trkpt>
      <trkpt lat="49.77446" lon="2.30281">
        <ele>86.4</ele>
        <time>2023-07-12T08:06:02Z</time>
      </trkpt>
      <trkpt lat="49.77447" lon="2.30282">
        <ele>86.4</ele>
        <time>2023-07-12T08:06:03Z</time>
      </trkpt>
      <trkpt lat="49.77448" lon="2.30283">
        <ele>86.4</ele>
        <time>2023-07-12T08:06:04Z</time>
      </trkpt>
      <trkpt lat="49.77448" lon="2.30283">
        <ele>86.4</ele>
        <time>2023-07-12T08:06:05Z</time>
      </trkpt>
      <trkpt lat="49.77449" lon="2.30284">
        <ele>86.4</ele>
        <time>2023-07-12T08:06:06Z</time>
      </trkpt>
      <trkpt lat="49.7745" lon="2.30284">
        <ele>86.4</ele>
        <time>2023-07-12T08:06:07Z</time>
      </trkpt>
      <trkpt lat="49.77451" lon="2.30285">
        <ele>86.4</ele>
        <time>2023-07-12T08:06:09Z</time>
      </trkpt>
      <trkpt lat="49.77452" lon="2.30285">
        <ele>86.3</ele>
        <time>2023-07-12T08:06:10Z</time>
      </trkpt>
      <trkpt lat="49.77453" lon="2.30286">
        <ele>86.3</ele>
        <time>2023-07-12T08:06:11Z</time>
      </trkpt>
      <trkpt lat="49.77455" lon="2.30286">
        <ele>86.3</ele>
        <time>2023-07-12T08:06:12Z</time>
      </trkpt>
      <trkpt lat="49.77456" lon="2.30287">
        <ele>86.3</ele>
        <time>2023-07-12T08:06:13Z</time>
      </trkpt>
      <trkpt lat="49.77457" lon="2.30287">
        <ele>86.3</ele>
        <time>2023-07-12T08:06:14Z</time>
      </trkpt>
      <trkpt lat="49.77458" lon="2.30287">
        <ele>86.3</ele>
        <time>2023-07-12T08:06:15Z</time>
      </trkpt>
      <trkpt lat="49.77459" lon="2.30288">
        <ele>86.3</ele>
        <time>2023-07-12T08:06:16Z</time>
      </trkpt>
      <trkpt lat="49.77461" lon="2.30288">
        <ele>86.3</ele>
        <time>2023-07-12T08:06:18Z</time>
      </trkpt>
      <trkpt lat="49.77462" lon="2.30288">
        <ele>86.3</ele>
        <time>2023-07-12T08:06:19Z</time>
      </trkpt>
      <trkpt lat="49.77464" lon="2.30289">
        <ele>86.3</ele>
        <time>2023-07-12T08:06:20Z</time>
      </trkpt>
      <trkpt lat="49.77465" lon="2.30289">
        <ele>86.3</ele>
        <time>2023-07-12T08:06:21Z</time>
      </trkpt>
      <trkpt lat="49.77467" lon="2.3029">
        <ele>86.3</ele>
        <time>2023-07-12T08:06:22Z</time>
      </trkpt>
      <trkpt lat="49.77468" lon="2.3029">
        <ele>86.3</ele>
        <time>2023-07-12T08:06:23Z</time>
      </trkpt>
      <trkpt lat="49.77469" lon="2.3029">
        <ele>86.2</ele>
        <time>2023-07-12T08:06:24Z</time>
      </trkpt>
      <trkpt lat="49.77471" lon="2.30291">
        <ele>86.2</ele>
        <time>2023-07-12T08:06:26Z</time>
      </trkpt>
      <trkpt lat="49.77472" lon="2.30291">
        <ele>86.2</ele>
        <time>2023-07-12T08:06:27Z</time>
      </trkpt>
      <trkpt lat="49.77474" lon="2.30292">
        <ele>86.2</ele>
        <time>2023-07-12T08:06:28Z</time>
      </trkpt>
      <trkpt lat="49.77475" lon="2.30292">
        <ele>86.2</ele>
        <time>2023-07-12T08:06:29Z</time>
      </trkpt>
      <trkpt lat="49.77477" lon="2.30293">
        <ele>86.2</ele>
        <time>2023-07-12T08:06:30Z</time>
      </trkpt>
      <trkpt lat="49.77478" lon="2.30293">
        <ele>86.2</ele>
        <time>2023-07-12T08:06:31Z</time>
      </trkpt>
      <trkpt lat="49.77479" lon="2.30294">
        <ele>86.2</ele>
        <time>2023-07-12T08:06:32Z</time>
      </trkpt>
      <trkpt lat="49.77481" lon="2.30294">
        <ele>86.2</ele>
        <time>2023-07-12T08:06:34Z</time>
      </trkpt>
      <trkpt lat="49.77482" lon="2.30295">
        <ele>86.2</ele>
        <time>2023-07-12T08:06:35Z</time>
      </trkpt>
      <trkpt lat="49.77484" lon="2.30295">
        <ele>86.2</ele>
        <time>2023-07-12T08:06:36Z</time>
      </trkpt>
      <trkpt lat="49.77485" lon="2.30296">
        <ele>86.2</ele>
        <time>2023-07-12T08:06:37Z</time>
      </trkpt>
      <trkpt lat="49.77486" lon="2.30297">
        <ele>86.1</ele>
        <time>2023-07-12T08:06:38Z</time>
      </trkpt>
      <trkpt lat="49.77488" lon="2.30297">
        <ele>86.1</ele>
        <time>2023-07-12T08:06:39Z</time>
      </trkpt>
      <trkpt lat="49.77489" lon="2.30298">
        <ele>86.1</ele>
        <time>2023-07-12T08:06:40Z</time>
      </trkpt>
      <trkpt lat="49.77491" lon="2.30298">
        <ele>86.1</ele>
        <time>2023-07-12T08:06:42Z</time>
      </trkpt>
      <trkpt lat="49.77492" lon="2.30299">
        <ele>86.1</ele>
        <time>2023-07-12T08:06:43Z</time>
      </trkpt>
      <trkpt lat="49.77493" lon="2.30299">
        <ele>86.1</ele>
        <time>2023-07-12T08:06:44Z</time>
      </trkpt>
      <trkpt lat="49.77495" lon="2.303">
        <ele>86.1</ele>
        <time>2023-07-12T08:06:45Z</time>
      </trkpt>
      <trkpt lat="49.77496" lon="2.30301">
        <ele>86</ele>
        <time>2023-07-12T08:06:46Z</time>
      </trkpt>
      <trkpt lat="49.77497" lon="2.30301">
        <ele>86</ele>
        <time>2023-07-12T08:06:47Z</time>
      </trkpt>
      <trkpt lat="49.77499" lon="2.30302">
        <ele>86</ele>
        <time>2023-07-12T08:06:48Z</time>
      </trkpt>
      <trkpt lat="49.775" lon="2.30303">
        <ele>86</ele>
        <time>2023-07-12T08:06:50Z</time>
      </trkpt>
      <trkpt lat="49.77501" lon="2.30303">
        <ele>86</ele>
        <time>2023-07-12T08:06:51Z</time>
      </trkpt>
      <trkpt lat="49.77502" lon="2.30304">
        <ele>86</ele>
        <time>2023-07-12T08:06:52Z</time>
      </trkpt>
      <trkpt lat="49.77503" lon="2.30304">
        <ele>86</ele>
        <time>2023-07-12T08:06:53Z</time>
      </trkpt>
      <trkpt lat="49.77504" lon="2.30305">
        <ele>85.9</ele>
        <time>2023-07-12T08:06:54Z</time>
      </trkpt>
      <trkpt lat="49.77506" lon="2.30305">
        <ele>85.9</ele>
        <time>2023-07-12T08:06:55Z</time>
      </trkpt>
      <trkpt lat="49.77507" lon="2.30306">
        <ele>85.9</ele>
        <time>2023-07-12T08:06:57Z</time>
      </trkpt>
      <trkpt lat="49.77508" lon="2.30306">
        <ele>85.9</ele>
        <time>2023-07-12T08:06:58Z</time>
      </trkpt>
      <trkpt lat="49.7751" lon="2.30307">
        <ele>85.9</ele>
        <time>2023-07-12T08:06:59Z</time>
      </trkpt>
      <trkpt lat="49.7751" lon="2.30307">
        <ele>85.9</ele>
        <time>2023-07-12T08:07:00Z</time>
      </trkpt>
      <trkpt lat="49.77511" lon="2.30308">
        <ele>85.9</ele>
        <time>2023-07-12T08:07:01Z</time>
      </trkpt>
      <trkpt lat="49.77512" lon="2.30308">
        <ele>85.9</ele>
        <time>2023-07-12T08:07:02Z</time>
      </trkpt>
      <trkpt lat="49.77513" lon="2.30309">
        <ele>85.9</ele>
        <time>2023-07-12T08:07:03Z</time>
      </trkpt>
      <trkpt lat="49.77515" lon="2.3031">
        <ele>85.9</ele>
        <time>2023-07-12T08:07:05Z</time>
      </trkpt>
      <trkpt lat="49.77517" lon="2.30311">
        <ele>85.9</ele>
        <time>2023-07-12T08:07:06Z</time>
      </trkpt>
      <trkpt lat="49.77517" lon="2.30312">
        <ele>85.9</ele>
        <time>2023-07-12T08:07:07Z</time>
      </trkpt>
      <trkpt lat="49.77518" lon="2.30313">
        <ele>85.9</ele>
        <time>2023-07-12T08:07:08Z</time>
      </trkpt>
      <trkpt lat="49.7752" lon="2.30314">
        <ele>85.9</ele>
        <time>2023-07-12T08:07:09Z</time>
      </trkpt>
      <trkpt lat="49.77521" lon="2.30315">
        <ele>85.9</ele>
        <time>2023-07-12T08:07:10Z</time>
      </trkpt>
      <trkpt lat="49.77522" lon="2.30315">
        <ele>85.9</ele>
        <time>2023-07-12T08:07:11Z</time>
      </trkpt>
      <trkpt lat="49.77523" lon="2.30316">
        <ele>85.9</ele>
        <time>2023-07-12T08:07:13Z</time>
      </trkpt>
      <trkpt lat="49.77524" lon="2.30317">
        <ele>85.8</ele>
        <time>2023-07-12T08:07:14Z</time>
      </trkpt>
      <trkpt lat="49.77525" lon="2.30318">
        <ele>85.8</ele>
        <time>2023-07-12T08:07:15Z</time>
      </trkpt>
      <trkpt lat="49.77525" lon="2.30319">
        <ele>85.8</ele>
        <time>2023-07-12T08:07:16Z</time>
      </trkpt>
      <trkpt lat="49.77526" lon="2.3032">
        <ele>85.8</ele>
        <time>2023-07-12T08:07:17Z</time>
      </trkpt>
      <trkpt lat="49.77527" lon="2.30321">
        <ele>85.8</ele>
        <time>2023-07-12T08:07:18Z</time>
      </trkpt>
      <trkpt lat="49.77528" lon="2.30322">
        <ele>85.8</ele>
        <time>2023-07-12T08:07:19Z</time>
      </trkpt>
      <trkpt lat="49.77529" lon="2.30323">
        <ele>85.8</ele>
        <time>2023-07-12T08:07:21Z</time>
      </trkpt>
      <trkpt lat="49.7753" lon="2.30324">
        <ele>85.8</ele>
        <time>2023-07-12T08:07:22Z</time>
      </trkpt>
      <trkpt lat="49.77531" lon="2.30325">
        <ele>85.8</ele>
        <time>2023-07-12T08:07:23Z</time>
      </trkpt>
      <trkpt lat="49.77532" lon="2.30326">
        <ele>85.8</ele>
        <time>2023-07-12T08:07:24Z</time>
      </trkpt>
      <trkpt lat="49.77533" lon="2.30327">
        <ele>85.8</ele>
        <time>2023-07-12T08:07:25Z</time>
      </trkpt>
      <trkpt lat="49.77533" lon="2.30328">
        <ele>85.8</ele>
        <time>2023-07-12T08:07:27Z</time>
      </trkpt>
      <trkpt lat="49.77534" lon="2.30329">
        <ele>85.8</ele>
        <time>2023-07-12T08:07:28Z</time>
      </trkpt>
      <trkpt lat="49.77535" lon="2.3033">
        <ele>85.8</ele>
        <time>2023-07-12T08:07:29Z</time>
      </trkpt>
      <trkpt lat="49.77535" lon="2.30331">
        <ele>85.8</ele>
        <time>2023-07-12T08:07:30Z</time>
      </trkpt>
      <trkpt lat="49.77536" lon="2.30332">
        <ele>85.8</ele>
        <time>2023-07-12T08:07:31Z</time>
      </trkpt>
      <trkpt lat="49.77536" lon="2.30332">
        <ele>85.8</ele>
        <time>2023-07-12T08:07:33Z</time>
      </trkpt>
      <trkpt lat="49.77537" lon="2.30333">
        <ele>85.8</ele>
        <time>2023-07-12T08:07:34Z</time>
      </trkpt>
      <trkpt lat="49.77537" lon="2.30334">
        <ele>85.8</ele>
        <time>2023-07-12T08:07:35Z</time>
      </trkpt>
      <trkpt lat="49.77538" lon="2.30335">
        <ele>85.8</ele>
        <time>2023-07-12T08:07:36Z</time>
      </trkpt>
      <trkpt lat="49.77538" lon="2.30336">
        <ele>85.8</ele>
        <time>2023-07-12T08:07:37Z</time>
      </trkpt>
      <trkpt lat="49.77539" lon="2.30337">
        <ele>85.8</ele>
        <time>2023-07-12T08:07:38Z</time>
      </trkpt>
      <trkpt lat="49.7754" lon="2.30338">
        <ele>85.8</ele>
        <time>2023-07-12T08:07:39Z</time>
      </trkpt>
      <trkpt lat="49.7754" lon="2.30339">
        <ele>85.8</ele>
        <time>2023-07-12T08:07:40Z</time>
      </trkpt>
      <trkpt lat="49.77541" lon="2.30341">
        <ele>85.8</ele>
        <time>2023-07-12T08:07:41Z</time>
      </trkpt>
      <trkpt lat="49.77542" lon="2.30342">
        <ele>85.8</ele>
        <time>2023-07-12T08:07:42Z</time>
      </trkpt>
      <trkpt lat="49.77542" lon="2.30343">
        <ele>85.8</ele>
        <time>2023-07-12T08:07:44Z</time>
      </trkpt>
      <trkpt lat="49.77543" lon="2.30345">
        <ele>85.8</ele>
        <time>2023-07-12T08:07:45Z</time>
      </trkpt>
      <trkpt lat="49.77544" lon="2.30346">
        <ele>85.8</ele>
        <time>2023-07-12T08:07:46Z</time>
      </trkpt>
      <trkpt lat="49.77545" lon="2.30347">
        <ele>85.8</ele>
        <time>2023-07-12T08:07:47Z</time>
      </trkpt>
      <trkpt lat="49.77546" lon="2.30348">
        <ele>85.8</ele>
        <time>2023-07-12T08:07:48Z</time>
      </trkpt>
      <trkpt lat="49.77547" lon="2.30349">
        <ele>85.8</ele>
        <time>2023-07-12T08:07:49Z</time>
      </trkpt>
      <trkpt lat="49.77547" lon="2.30351">
        <ele>85.8</ele>
        <time>2023-07-12T08:07:51Z</time>
      </trkpt>
      <trkpt lat="49.77548" lon="2.30352">
        <ele>85.8</ele>
        <time>2023-07-12T08:07:52Z</time>
      </trkpt>
      <trkpt lat="49.7755" lon="2.30354">
        <ele>85.8</ele>
        <time>2023-07-12T08:07:53Z</time>
      </trkpt>
      <trkpt lat="49.77551" lon="2.30355">
        <ele>85.8</ele>
        <time>2023-07-12T08:07:54Z</time>
      </trkpt>
      <trkpt lat="49.77551" lon="2.30356">
        <ele>85.8</ele>
        <time>2023-07-12T08:07:55Z</time>
      </trkpt>
      <trkpt lat="49.77552" lon="2.30357">
        <ele>85.8</ele>
        <time>2023-07-12T08:07:56Z</time>
      </trkpt>
      <trkpt lat="49.77553" lon="2.30358">
        <ele>85.8</ele>
        <time>2023-07-12T08:07:57Z</time>
      </trkpt>
      <trkpt lat="49.77554" lon="2.30359">
        <ele>85.7</ele>
        <time>2023-07-12T08:07:59Z</time>
      </trkpt>
      <trkpt lat="49.77555" lon="2.30361">
        <ele>85.7</ele>
        <time>2023-07-12T08:08:00Z</time>
      </trkpt>
      <trkpt lat="49.77556" lon="2.30362">
        <ele>85.7</ele>
        <time>2023-07-12T08:08:01Z</time>
      </trkpt>
      <trkpt lat="49.77558" lon="2.30364">
        <ele>85.7</ele>
        <time>2023-07-12T08:08:02Z</time>
      </trkpt>
      <trkpt lat="49.77559" lon="2.30364">
        <ele>85.7</ele>
        <time>2023-07-12T08:08:03Z</time>
      </trkpt>
      <trkpt lat="49.77559" lon="2.30365">
        <ele>85.7</ele>
        <time>2023-07-12T08:08:04Z</time>
      </trkpt>
      <trkpt lat="49.77561" lon="2.30366">
        <ele>85.7</ele>
        <time>2023-07-12T08:08:05Z</time>
      </trkpt>
      <trkpt lat="49.77562" lon="2.30367">
        <ele>85.8</ele>
        <time>2023-07-12T08:08:07Z</time>
      </trkpt>
      <trkpt lat="49.77564" lon="2.30367">
        <ele>85.8</ele>
        <time>2023-07-12T08:08:08Z</time>
      </trkpt>
      <trkpt lat="49.77565" lon="2.30368">
        <ele>85.8</ele>
        <time>2023-07-12T08:08:09Z</time>
      </trkpt>
      <trkpt lat="49.77566" lon="2.30369">
        <ele>85.8</ele>
        <time>2023-07-12T08:08:10Z</time>
      </trkpt>
      <trkpt lat="49.77568" lon="2.3037">
        <ele>85.8</ele>
        <time>2023-07-12T08:08:11Z</time>
      </trkpt>
      <trkpt lat="49.7757" lon="2.30372">
        <ele>85.8</ele>
        <time>2023-07-12T08:08:12Z</time>
      </trkpt>
      <trkpt lat="49.7757" lon="2.30373">
        <ele>85.8</ele>
        <time>2023-07-12T08:08:14Z</time>
      </trkpt>
      <trkpt lat="49.77571" lon="2.30374">
        <ele>85.8</ele>
        <time>2023-07-12T08:08:15Z</time>
      </trkpt>
      <trkpt lat="49.77572" lon="2.30375">
        <ele>85.8</ele>
        <time>2023-07-12T08:08:16Z</time>
      </trkpt>
      <trkpt lat="49.77573" lon="2.30376">
        <ele>85.8</ele>
        <time>2023-07-12T08:08:17Z</time>
      </trkpt>
      <trkpt lat="49.77575" lon="2.30379">
        <ele>85.8</ele>
        <time>2023-07-12T08:08:18Z</time>
      </trkpt>
      <trkpt lat="49.77575" lon="2.30379">
        <ele>85.8</ele>
        <time>2023-07-12T08:08:19Z</time>
      </trkpt>
      <trkpt lat="49.77576" lon="2.3038">
        <ele>85.8</ele>
        <time>2023-07-12T08:08:20Z</time>
      </trkpt>
      <trkpt lat="49.77577" lon="2.30383">
        <ele>85.8</ele>
        <time>2023-07-12T08:08:22Z</time>
      </trkpt>
      <trkpt lat="49.77578" lon="2.30384">
        <ele>85.8</ele>
        <time>2023-07-12T08:08:23Z</time>
      </trkpt>
      <trkpt lat="49.77578" lon="2.30385">
        <ele>85.8</ele>
        <time>2023-07-12T08:08:24Z</time>
      </trkpt>
      <trkpt lat="49.77579" lon="2.30387">
        <ele>85.8</ele>
        <time>2023-07-12T08:08:25Z</time>
      </trkpt>
      <trkpt lat="49.7758" lon="2.30388">
        <ele>85.8</ele>
        <time>2023-07-12T08:08:26Z</time>
      </trkpt>
      <trkpt lat="49.77581" lon="2.3039">
        <ele>85.8</ele>
        <time>2023-07-12T08:08:27Z</time>
      </trkpt>
      <trkpt lat="49.77582" lon="2.30392">
        <ele>85.8</ele>
        <time>2023-07-12T08:08:28Z</time>
      </trkpt>
      <trkpt lat="49.77582" lon="2.30394">
        <ele>85.8</ele>
        <time>2023-07-12T08:08:29Z</time>
      </trkpt>
      <trkpt lat="49.77583" lon="2.30395">
        <ele>85.8</ele>
        <time>2023-07-12T08:08:31Z</time>
      </trkpt>
      <trkpt lat="49.77583" lon="2.30396">
        <ele>85.7</ele>
        <time>2023-07-12T08:08:32Z</time>
      </trkpt>
      <trkpt lat="49.77584" lon="2.30398">
        <ele>85.7</ele>
        <time>2023-07-12T08:08:33Z</time>
      </trkpt>
      <trkpt lat="49.77584" lon="2.30399">
        <ele>85.7</ele>
        <time>2023-07-12T08:08:34Z</time>
      </trkpt>
      <trkpt lat="49.77585" lon="2.30401">
        <ele>85.7</ele>
        <time>2023-07-12T08:08:35Z</time>
      </trkpt>
      <trkpt lat="49.77586" lon="2.30402">
        <ele>85.7</ele>
        <time>2023-07-12T08:08:36Z</time>
      </trkpt>
      <trkpt lat="49.77586" lon="2.30404">
        <ele>85.7</ele>
        <time>2023-07-12T08:08:38Z</time>
      </trkpt>
      <trkpt lat="49.77588" lon="2.30407">
        <ele>85.7</ele>
        <time>2023-07-12T08:08:39Z</time>
      </trkpt>
      <trkpt lat="49.77588" lon="2.30408">
        <ele>85.7</ele>
        <time>2023-07-12T08:08:40Z</time>
      </trkpt>
      <trkpt lat="49.77588" lon="2.30409">
        <ele>85.7</ele>
        <time>2023-07-12T08:08:41Z</time>
      </trkpt>
      <trkpt lat="49.77589" lon="2.30411">
        <ele>85.7</ele>
        <time>2023-07-12T08:08:42Z</time>
      </trkpt>
      <trkpt lat="49.7759" lon="2.30412">
        <ele>85.6</ele>
        <time>2023-07-12T08:08:43Z</time>
      </trkpt>
      <trkpt lat="49.77591" lon="2.30413">
        <ele>85.6</ele>
        <time>2023-07-12T08:08:44Z</time>
      </trkpt>
      <trkpt lat="49.77592" lon="2.30416">
        <ele>85.6</ele>
        <time>2023-07-12T08:08:45Z</time>
      </trkpt>
      <trkpt lat="49.77592" lon="2.30417">
        <ele>85.6</ele>
        <time>2023-07-12T08:08:47Z</time>
      </trkpt>
      <trkpt lat="49.77593" lon="2.30418">
        <ele>85.6</ele>
        <time>2023-07-12T08:08:48Z</time>
      </trkpt>
      <trkpt lat="49.77594" lon="2.3042">
        <ele>85.6</ele>
        <time>2023-07-12T08:08:49Z</time>
      </trkpt>
      <trkpt lat="49.77595" lon="2.30421">
        <ele>85.6</ele>
        <time>2023-07-12T08:08:50Z</time>
      </trkpt>
      <trkpt lat="49.77595" lon="2.30422">
        <ele>85.6</ele>
        <time>2023-07-12T08:08:51Z</time>
      </trkpt>
      <trkpt lat="49.77597" lon="2.30425">
        <ele>85.5</ele>
        <time>2023-07-12T08:08:52Z</time>
      </trkpt>
      <trkpt lat="49.77597" lon="2.30426">
        <ele>85.5</ele>
        <time>2023-07-12T08:08:53Z</time>
      </trkpt>
      <trkpt lat="49.77598" lon="2.30427">
        <ele>85.5</ele>
        <time>2023-07-12T08:08:55Z</time>
      </trkpt>
      <trkpt lat="49.77599" lon="2.30428">
        <ele>85.5</ele>
        <time>2023-07-12T08:08:56Z</time>
      </trkpt>
      <trkpt lat="49.776" lon="2.30429">
        <ele>85.5</ele>
        <time>2023-07-12T08:08:57Z</time>
      </trkpt>
      <trkpt lat="49.776" lon="2.30431">
        <ele>85.5</ele>
        <time>2023-07-12T08:08:58Z</time>
      </trkpt>
      <trkpt lat="49.77602" lon="2.30433">
        <ele>85.5</ele>
        <time>2023-07-12T08:08:59Z</time>
      </trkpt>
      <trkpt lat="49.77602" lon="2.30434">
        <ele>85.4</ele>
        <time>2023-07-12T08:09:00Z</time>
      </trkpt>
      <trkpt lat="49.77603" lon="2.30434">
        <ele>85.4</ele>
        <time>2023-07-12T08:09:01Z</time>
      </trkpt>
      <trkpt lat="49.77605" lon="2.30436">
        <ele>85.4</ele>
        <time>2023-07-12T08:09:03Z</time>
      </trkpt>
      <trkpt lat="49.77606" lon="2.30437">
        <ele>85.4</ele>
        <time>2023-07-12T08:09:04Z</time>
      </trkpt>
      <trkpt lat="49.77606" lon="2.30438">
        <ele>85.4</ele>
        <time>2023-07-12T08:09:05Z</time>
      </trkpt>
      <trkpt lat="49.77607" lon="2.3044">
        <ele>85.4</ele>
        <time>2023-07-12T08:09:06Z</time>
      </trkpt>
      <trkpt lat="49.77608" lon="2.30441">
        <ele>85.4</ele>
        <time>2023-07-12T08:09:07Z</time>
      </trkpt>
      <trkpt lat="49.77609" lon="2.30442">
        <ele>85.3</ele>
        <time>2023-07-12T08:09:09Z</time>
      </trkpt>
      <trkpt lat="49.7761" lon="2.30443">
        <ele>85.3</ele>
        <time>2023-07-12T08:09:10Z</time>
      </trkpt>
      <trkpt lat="49.77611" lon="2.30445">
        <ele>85.3</ele>
        <time>2023-07-12T08:09:11Z</time>
      </trkpt>
      <trkpt lat="49.77612" lon="2.30446">
        <ele>85.3</ele>
        <time>2023-07-12T08:09:12Z</time>
      </trkpt>
      <trkpt lat="49.77612" lon="2.30447">
        <ele>85.3</ele>
        <time>2023-07-12T08:09:13Z</time>
      </trkpt>
      <trkpt lat="49.77613" lon="2.30449">
        <ele>85.3</ele>
        <time>2023-07-12T08:09:14Z</time>
      </trkpt>
      <trkpt lat="49.77614" lon="2.3045">
        <ele>85.3</ele>
        <time>2023-07-12T08:09:15Z</time>
      </trkpt>
      <trkpt lat="49.77615" lon="2.30451">
        <ele>85.3</ele>
        <time>2023-07-12T08:09:17Z</time>
      </trkpt>
      <trkpt lat="49.77616" lon="2.30452">
        <ele>85.3</ele>
        <time>2023-07-12T08:09:18Z</time>
      </trkpt>
      <trkpt lat="49.77618" lon="2.30454">
        <ele>85.3</ele>
        <time>2023-07-12T08:09:19Z</time>
      </trkpt>
      <trkpt lat="49.77618" lon="2.30455">
        <ele>85.3</ele>
        <time>2023-07-12T08:09:20Z</time>
      </trkpt>
      <trkpt lat="49.77619" lon="2.30456">
        <ele>85.3</ele>
        <time>2023-07-12T08:09:21Z</time>
      </trkpt>
      <trkpt lat="49.7762" lon="2.30457">
        <ele>85.3</ele>
        <time>2023-07-12T08:09:22Z</time>
      </trkpt>
      <trkpt lat="49.77621" lon="2.30458">
        <ele>85.3</ele>
        <time>2023-07-12T08:09:23Z</time>
      </trkpt>
      <trkpt lat="49.77622" lon="2.3046">
        <ele>85.3</ele>
        <time>2023-07-12T08:09:25Z</time>
      </trkpt>
      <trkpt lat="49.77623" lon="2.30461">
        <ele>85.3</ele>
        <time>2023-07-12T08:09:26Z</time>
      </trkpt>
      <trkpt lat="49.77623" lon="2.30462">
        <ele>85.3</ele>
        <time>2023-07-12T08:09:27Z</time>
      </trkpt>
      <trkpt lat="49.77624" lon="2.30464">
        <ele>85.3</ele>
        <time>2023-07-12T08:09:28Z</time>
      </trkpt>
      <trkpt lat="49.77625" lon="2.30466">
        <ele>85.3</ele>
        <time>2023-07-12T08:09:29Z</time>
      </trkpt>
      <trkpt lat="49.77626" lon="2.30467">
        <ele>85.3</ele>
        <time>2023-07-12T08:09:30Z</time>
      </trkpt>
      <trkpt lat="49.77626" lon="2.30468">
        <ele>85.3</ele>
        <time>2023-07-12T08:09:31Z</time>
      </trkpt>
      <trkpt lat="49.77627" lon="2.30471">
        <ele>85.3</ele>
        <time>2023-07-12T08:09:32Z</time>
      </trkpt>
      <trkpt lat="49.77628" lon="2.30472">
        <ele>85.3</ele>
        <time>2023-07-12T08:09:33Z</time>
      </trkpt>
      <trkpt lat="49.77628" lon="2.30473">
        <ele>85.3</ele>
        <time>2023-07-12T08:09:34Z</time>
      </trkpt>
      <trkpt lat="49.77629" lon="2.30474">
        <ele>85.3</ele>
        <time>2023-07-12T08:09:36Z</time>
      </trkpt>
      <trkpt lat="49.7763" lon="2.30476">
        <ele>85.3</ele>
        <time>2023-07-12T08:09:37Z</time>
      </trkpt>
      <trkpt lat="49.7763" lon="2.30477">
        <ele>85.3</ele>
        <time>2023-07-12T08:09:38Z</time>
      </trkpt>
      <trkpt lat="49.77632" lon="2.3048">
        <ele>85.3</ele>
        <time>2023-07-12T08:09:39Z</time>
      </trkpt>
      <trkpt lat="49.77632" lon="2.30481">
        <ele>85.3</ele>
        <time>2023-07-12T08:09:40Z</time>
      </trkpt>
      <trkpt lat="49.77633" lon="2.30482">
        <ele>85.3</ele>
        <time>2023-07-12T08:09:41Z</time>
      </trkpt>
      <trkpt lat="49.77634" lon="2.30484">
        <ele>85.3</ele>
        <time>2023-07-12T08:09:42Z</time>
      </trkpt>
      <trkpt lat="49.77635" lon="2.30485">
        <ele>85.3</ele>
        <time>2023-07-12T08:09:44Z</time>
      </trkpt>
      <trkpt lat="49.77635" lon="2.30486">
        <ele>85.3</ele>
        <time>2023-07-12T08:09:45Z</time>
      </trkpt>
      <trkpt lat="49.77637" lon="2.30488">
        <ele>85.3</ele>
        <time>2023-07-12T08:09:46Z</time>
      </trkpt>
      <trkpt lat="49.77637" lon="2.30489">
        <ele>85.3</ele>
        <time>2023-07-12T08:09:47Z</time>
      </trkpt>
      <trkpt lat="49.77638" lon="2.3049">
        <ele>85.3</ele>
        <time>2023-07-12T08:09:48Z</time>
      </trkpt>
      <trkpt lat="49.77639" lon="2.30492">
        <ele>85.3</ele>
        <time>2023-07-12T08:09:49Z</time>
      </trkpt>
      <trkpt lat="49.7764" lon="2.30494">
        <ele>85.3</ele>
        <time>2023-07-12T08:09:50Z</time>
      </trkpt>
      <trkpt lat="49.77641" lon="2.30496">
        <ele>85.3</ele>
        <time>2023-07-12T08:09:52Z</time>
      </trkpt>
      <trkpt lat="49.77642" lon="2.30497">
        <ele>85.3</ele>
        <time>2023-07-12T08:09:53Z</time>
      </trkpt>
      <trkpt lat="49.77642" lon="2.30498">
        <ele>85.3</ele>
        <time>2023-07-12T08:09:54Z</time>
      </trkpt>
      <trkpt lat="49.77643" lon="2.305">
        <ele>85.3</ele>
        <time>2023-07-12T08:09:55Z</time>
      </trkpt>
      <trkpt lat="49.77644" lon="2.30501">
        <ele>85.3</ele>
        <time>2023-07-12T08:09:56Z</time>
      </trkpt>
      <trkpt lat="49.77646" lon="2.30503">
        <ele>85.3</ele>
        <time>2023-07-12T08:09:57Z</time>
      </trkpt>
      <trkpt lat="49.77647" lon="2.30504">
        <ele>85.3</ele>
        <time>2023-07-12T08:09:58Z</time>
      </trkpt>
      <trkpt lat="49.77647" lon="2.30505">
        <ele>85.3</ele>
        <time>2023-07-12T08:09:59Z</time>
      </trkpt>
      <trkpt lat="49.77649" lon="2.30507">
        <ele>85.3</ele>
        <time>2023-07-12T08:10:01Z</time>
      </trkpt>
      <trkpt lat="49.77649" lon="2.30508">
        <ele>85.3</ele>
        <time>2023-07-12T08:10:02Z</time>
      </trkpt>
      <trkpt lat="49.7765" lon="2.30509">
        <ele>85.3</ele>
        <time>2023-07-12T08:10:03Z</time>
      </trkpt>
      <trkpt lat="49.77652" lon="2.30511">
        <ele>85.3</ele>
        <time>2023-07-12T08:10:04Z</time>
      </trkpt>
      <trkpt lat="49.77652" lon="2.30512">
        <ele>85.3</ele>
        <time>2023-07-12T08:10:05Z</time>
      </trkpt>
      <trkpt lat="49.77653" lon="2.30513">
        <ele>85.3</ele>
        <time>2023-07-12T08:10:06Z</time>
      </trkpt>
      <trkpt lat="49.77654" lon="2.30514">
        <ele>85.3</ele>
        <time>2023-07-12T08:10:07Z</time>
      </trkpt>
      <trkpt lat="49.77655" lon="2.30515">
        <ele>85.3</ele>
        <time>2023-07-12T08:10:08Z</time>
      </trkpt>
      <trkpt lat="49.77656" lon="2.30517">
        <ele>85.3</ele>
        <time>2023-07-12T08:10:10Z</time>
      </trkpt>
      <trkpt lat="49.77658" lon="2.30519">
        <ele>85.3</ele>
        <time>2023-07-12T08:10:11Z</time>
      </trkpt>
      <trkpt lat="49.77658" lon="2.3052">
        <ele>85.3</ele>
        <time>2023-07-12T08:10:12Z</time>
      </trkpt>
      <trkpt lat="49.77659" lon="2.30521">
        <ele>85.3</ele>
        <time>2023-07-12T08:10:13Z</time>
      </trkpt>
      <trkpt lat="49.7766" lon="2.30523">
        <ele>85.3</ele>
        <time>2023-07-12T08:10:14Z</time>
      </trkpt>
      <trkpt lat="49.77661" lon="2.30524">
        <ele>85.3</ele>
        <time>2023-07-12T08:10:15Z</time>
      </trkpt>
      <trkpt lat="49.77661" lon="2.30525">
        <ele>85.3</ele>
        <time>2023-07-12T08:10:16Z</time>
      </trkpt>
      <trkpt lat="49.77662" lon="2.30526">
        <ele>85.3</ele>
        <time>2023-07-12T08:10:17Z</time>
      </trkpt>
      <trkpt lat="49.77663" lon="2.30528">
        <ele>85.2</ele>
        <time>2023-07-12T08:10:19Z</time>
      </trkpt>
      <trkpt lat="49.77664" lon="2.30529">
        <ele>85.2</ele>
        <time>2023-07-12T08:10:20Z</time>
      </trkpt>
      <trkpt lat="49.77665" lon="2.30532">
        <ele>85.2</ele>
        <time>2023-07-12T08:10:21Z</time>
      </trkpt>
      <trkpt lat="49.77665" lon="2.30533">
        <ele>85.2</ele>
        <time>2023-07-12T08:10:22Z</time>
      </trkpt>
      <trkpt lat="49.77666" lon="2.30534">
        <ele>85.2</ele>
        <time>2023-07-12T08:10:23Z</time>
      </trkpt>
      <trkpt lat="49.77667" lon="2.30536">
        <ele>85.2</ele>
        <time>2023-07-12T08:10:24Z</time>
      </trkpt>
      <trkpt lat="49.77667" lon="2.30538">
        <ele>85.2</ele>
        <time>2023-07-12T08:10:26Z</time>
      </trkpt>
      <trkpt lat="49.77668" lon="2.30539">
        <ele>85.1</ele>
        <time>2023-07-12T08:10:27Z</time>
      </trkpt>
      <trkpt lat="49.7767" lon="2.30541">
        <ele>85.1</ele>
        <time>2023-07-12T08:10:28Z</time>
      </trkpt>
      <trkpt lat="49.77671" lon="2.30543">
        <ele>85.1</ele>
        <time>2023-07-12T08:10:29Z</time>
      </trkpt>
      <trkpt lat="49.77672" lon="2.30544">
        <ele>85.1</ele>
        <time>2023-07-12T08:10:30Z</time>
      </trkpt>
      <trkpt lat="49.77672" lon="2.30544">
        <ele>85</ele>
        <time>2023-07-12T08:10:31Z</time>
      </trkpt>
      <trkpt lat="49.77674" lon="2.30547">
        <ele>85</ele>
        <time>2023-07-12T08:10:32Z</time>
      </trkpt>
      <trkpt lat="49.77674" lon="2.30548">
        <ele>85</ele>
        <time>2023-07-12T08:10:34Z</time>
      </trkpt>
      <trkpt lat="49.77675" lon="2.30549">
        <ele>85</ele>
        <time>2023-07-12T08:10:35Z</time>
      </trkpt>
      <trkpt lat="49.77676" lon="2.30551">
        <ele>84.9</ele>
        <time>2023-07-12T08:10:36Z</time>
      </trkpt>
      <trkpt lat="49.77677" lon="2.30552">
        <ele>84.9</ele>
        <time>2023-07-12T08:10:37Z</time>
      </trkpt>
      <trkpt lat="49.77677" lon="2.30553">
        <ele>84.9</ele>
        <time>2023-07-12T08:10:38Z</time>
      </trkpt>
      <trkpt lat="49.77678" lon="2.30556">
        <ele>84.9</ele>
        <time>2023-07-12T08:10:39Z</time>
      </trkpt>
      <trkpt lat="49.77679" lon="2.30557">
        <ele>84.9</ele>
        <time>2023-07-12T08:10:40Z</time>
      </trkpt>
      <trkpt lat="49.7768" lon="2.30559">
        <ele>84.8</ele>
        <time>2023-07-12T08:10:42Z</time>
      </trkpt>
      <trkpt lat="49.7768" lon="2.3056">
        <ele>84.8</ele>
        <time>2023-07-12T08:10:43Z</time>
      </trkpt>
      <trkpt lat="49.77681" lon="2.30561">
        <ele>84.8</ele>
        <time>2023-07-12T08:10:44Z</time>
      </trkpt>
      <trkpt lat="49.77681" lon="2.30562">
        <ele>84.8</ele>
        <time>2023-07-12T08:10:45Z</time>
      </trkpt>
      <trkpt lat="49.77682" lon="2.30564">
        <ele>84.8</ele>
        <time>2023-07-12T08:10:46Z</time>
      </trkpt>
      <trkpt lat="49.77683" lon="2.30565">
        <ele>84.7</ele>
        <time>2023-07-12T08:10:47Z</time>
      </trkpt>
      <trkpt lat="49.77684" lon="2.30566">
        <ele>84.7</ele>
        <time>2023-07-12T08:10:48Z</time>
      </trkpt>
      <trkpt lat="49.77684" lon="2.30568">
        <ele>84.7</ele>
        <time>2023-07-12T08:10:49Z</time>
      </trkpt>
      <trkpt lat="49.77685" lon="2.30569">
        <ele>84.7</ele>
        <time>2023-07-12T08:10:50Z</time>
      </trkpt>
      <trkpt lat="49.77686" lon="2.30571">
        <ele>84.7</ele>
        <time>2023-07-12T08:10:52Z</time>
      </trkpt>
      <trkpt lat="49.77687" lon="2.30574">
        <ele>84.6</ele>
        <time>2023-07-12T08:10:53Z</time>
      </trkpt>
      <trkpt lat="49.77688" lon="2.30575">
        <ele>84.6</ele>
        <time>2023-07-12T08:10:54Z</time>
      </trkpt>
      <trkpt lat="49.77688" lon="2.30576">
        <ele>84.6</ele>
        <time>2023-07-12T08:10:55Z</time>
      </trkpt>
      <trkpt lat="49.77689" lon="2.30578">
        <ele>84.6</ele>
        <time>2023-07-12T08:10:56Z</time>
      </trkpt>
      <trkpt lat="49.7769" lon="2.30579">
        <ele>84.5</ele>
        <time>2023-07-12T08:10:57Z</time>
      </trkpt>
      <trkpt lat="49.77691" lon="2.30582">
        <ele>84.5</ele>
        <time>2023-07-12T08:10:59Z</time>
      </trkpt>
      <trkpt lat="49.77692" lon="2.30585">
        <ele>84.5</ele>
        <time>2023-07-12T08:11:00Z</time>
      </trkpt>
      <trkpt lat="49.77693" lon="2.30586">
        <ele>84.5</ele>
        <time>2023-07-12T08:11:01Z</time>
      </trkpt>
      <trkpt lat="49.77694" lon="2.30588">
        <ele>84.4</ele>
        <time>2023-07-12T08:11:03Z</time>
      </trkpt>
      <trkpt lat="49.77695" lon="2.30589">
        <ele>84.4</ele>
        <time>2023-07-12T08:11:04Z</time>
      </trkpt>
      <trkpt lat="49.77695" lon="2.3059">
        <ele>84.4</ele>
        <time>2023-07-12T08:11:05Z</time>
      </trkpt>
      <trkpt lat="49.77697" lon="2.30593">
        <ele>84.4</ele>
        <time>2023-07-12T08:11:06Z</time>
      </trkpt>
      <trkpt lat="49.77697" lon="2.30594">
        <ele>84.4</ele>
        <time>2023-07-12T08:11:07Z</time>
      </trkpt>
      <trkpt lat="49.77698" lon="2.30595">
        <ele>84.3</ele>
        <time>2023-07-12T08:11:08Z</time>
      </trkpt>
      <trkpt lat="49.77699" lon="2.30596">
        <ele>84.3</ele>
        <time>2023-07-12T08:11:09Z</time>
      </trkpt>
      <trkpt lat="49.777" lon="2.30598">
        <ele>84.3</ele>
        <time>2023-07-12T08:11:10Z</time>
      </trkpt>
      <trkpt lat="49.77701" lon="2.30599">
        <ele>84.3</ele>
        <time>2023-07-12T08:11:12Z</time>
      </trkpt>
      <trkpt lat="49.77702" lon="2.30601">
        <ele>84.2</ele>
        <time>2023-07-12T08:11:13Z</time>
      </trkpt>
      <trkpt lat="49.77703" lon="2.30602">
        <ele>84.2</ele>
        <time>2023-07-12T08:11:14Z</time>
      </trkpt>
      <trkpt lat="49.77704" lon="2.30603">
        <ele>84.2</ele>
        <time>2023-07-12T08:11:15Z</time>
      </trkpt>
      <trkpt lat="49.77705" lon="2.30604">
        <ele>84.2</ele>
        <time>2023-07-12T08:11:16Z</time>
      </trkpt>
      <trkpt lat="49.77706" lon="2.30605">
        <ele>84.2</ele>
        <time>2023-07-12T08:11:17Z</time>
      </trkpt>
      <trkpt lat="49.77707" lon="2.30606">
        <ele>84.1</ele>
        <time>2023-07-12T08:11:18Z</time>
      </trkpt>
      <trkpt lat="49.77708" lon="2.30607">
        <ele>84.1</ele>
        <time>2023-07-12T08:11:19Z</time>
      </trkpt>
      <trkpt lat="49.77709" lon="2.30608">
        <ele>84.1</ele>
        <time>2023-07-12T08:11:21Z</time>
      </trkpt>
      <trkpt lat="49.7771" lon="2.30609">
        <ele>84.1</ele>
        <time>2023-07-12T08:11:22Z</time>
      </trkpt>
      <trkpt lat="49.77711" lon="2.30611">
        <ele>84</ele>
        <time>2023-07-12T08:11:23Z</time>
      </trkpt>
      <trkpt lat="49.77712" lon="2.30612">
        <ele>84</ele>
        <time>2023-07-12T08:11:24Z</time>
      </trkpt>
      <trkpt lat="49.77712" lon="2.30613">
        <ele>84</ele>
        <time>2023-07-12T08:11:25Z</time>
      </trkpt>
      <trkpt lat="49.77713" lon="2.30615">
        <ele>84</ele>
        <time>2023-07-12T08:11:26Z</time>
      </trkpt>
      <trkpt lat="49.77714" lon="2.30616">
        <ele>83.9</ele>
        <time>2023-07-12T08:11:27Z</time>
      </trkpt>
      <trkpt lat="49.77715" lon="2.30618">
        <ele>83.9</ele>
        <time>2023-07-12T08:11:28Z</time>
      </trkpt>
      <trkpt lat="49.77716" lon="2.3062">
        <ele>83.9</ele>
        <time>2023-07-12T08:11:29Z</time>
      </trkpt>
      <trkpt lat="49.77717" lon="2.30621">
        <ele>83.9</ele>
        <time>2023-07-12T08:11:31Z</time>
      </trkpt>
      <trkpt lat="49.77717" lon="2.30622">
        <ele>83.8</ele>
        <time>2023-07-12T08:11:32Z</time>
      </trkpt>
      <trkpt lat="49.77719" lon="2.30624">
        <ele>83.8</ele>
        <time>2023-07-12T08:11:33Z</time>
      </trkpt>
      <trkpt lat="49.77719" lon="2.30625">
        <ele>83.8</ele>
        <time>2023-07-12T08:11:34Z</time>
      </trkpt>
      <trkpt lat="49.7772" lon="2.30626">
        <ele>83.8</ele>
        <time>2023-07-12T08:11:35Z</time>
      </trkpt>
      <trkpt lat="49.77721" lon="2.30627">
        <ele>83.8</ele>
        <time>2023-07-12T08:11:36Z</time>
      </trkpt>
      <trkpt lat="49.77721" lon="2.30628">
        <ele>83.8</ele>
        <time>2023-07-12T08:11:37Z</time>
      </trkpt>
      <trkpt lat="49.77722" lon="2.3063">
        <ele>83.7</ele>
        <time>2023-07-12T08:11:39Z</time>
      </trkpt>
      <trkpt lat="49.77723" lon="2.30631">
        <ele>83.7</ele>
        <time>2023-07-12T08:11:40Z</time>
      </trkpt>
      <trkpt lat="49.77724" lon="2.30632">
        <ele>83.7</ele>
        <time>2023-07-12T08:11:41Z</time>
      </trkpt>
      <trkpt lat="49.77724" lon="2.30634">
        <ele>83.7</ele>
        <time>2023-07-12T08:11:42Z</time>
      </trkpt>
      <trkpt lat="49.77725" lon="2.30635">
        <ele>83.7</ele>
        <time>2023-07-12T08:11:43Z</time>
      </trkpt>
      <trkpt lat="49.77726" lon="2.30637">
        <ele>83.6</ele>
        <time>2023-07-12T08:11:44Z</time>
      </trkpt>
      <trkpt lat="49.77726" lon="2.30638">
        <ele>83.6</ele>
        <time>2023-07-12T08:11:45Z</time>
      </trkpt>
      <trkpt lat="49.77727" lon="2.3064">
        <ele>83.6</ele>
        <time>2023-07-12T08:11:47Z</time>
      </trkpt>
      <trkpt lat="49.77727" lon="2.30641">
        <ele>83.6</ele>
        <time>2023-07-12T08:11:48Z</time>
      </trkpt>
      <trkpt lat="49.77728" lon="2.30642">
        <ele>83.6</ele>
        <time>2023-07-12T08:11:49Z</time>
      </trkpt>
      <trkpt lat="49.77728" lon="2.30644">
        <ele>83.6</ele>
        <time>2023-07-12T08:11:50Z</time>
      </trkpt>
      <trkpt lat="49.77729" lon="2.30645">
        <ele>83.6</ele>
        <time>2023-07-12T08:11:51Z</time>
      </trkpt>
      <trkpt lat="49.7773" lon="2.30646">
        <ele>83.5</ele>
        <time>2023-07-12T08:11:52Z</time>
      </trkpt>
      <trkpt lat="49.7773" lon="2.30648">
        <ele>83.5</ele>
        <time>2023-07-12T08:11:53Z</time>
      </trkpt>
      <trkpt lat="49.77731" lon="2.30649">
        <ele>83.5</ele>
        <time>2023-07-12T08:11:55Z</time>
      </trkpt>
      <trkpt lat="49.77732" lon="2.3065">
        <ele>83.5</ele>
        <time>2023-07-12T08:11:56Z</time>
      </trkpt>
      <trkpt lat="49.77732" lon="2.30652">
        <ele>83.5</ele>
        <time>2023-07-12T08:11:57Z</time>
      </trkpt>
      <trkpt lat="49.77733" lon="2.30653">
        <ele>83.4</ele>
        <time>2023-07-12T08:11:58Z</time>
      </trkpt>
      <trkpt lat="49.77734" lon="2.30655">
        <ele>83.4</ele>
        <time>2023-07-12T08:11:59Z</time>
      </trkpt>
      <trkpt lat="49.77735" lon="2.30656">
        <ele>83.4</ele>
        <time>2023-07-12T08:12:00Z</time>
      </trkpt>
      <trkpt lat="49.77736" lon="2.30657">
        <ele>83.4</ele>
        <time>2023-07-12T08:12:01Z</time>
      </trkpt>
      <trkpt lat="49.77737" lon="2.30659">
        <ele>83.4</ele>
        <time>2023-07-12T08:12:03Z</time>
      </trkpt>
      <trkpt lat="49.77738" lon="2.30661">
        <ele>83.4</ele>
        <time>2023-07-12T08:12:04Z</time>
      </trkpt>
      <trkpt lat="49.77739" lon="2.30662">
        <ele>83.3</ele>
        <time>2023-07-12T08:12:05Z</time>
      </trkpt>
      <trkpt lat="49.77739" lon="2.30663">
        <ele>83.3</ele>
        <time>2023-07-12T08:12:06Z</time>
      </trkpt>
      <trkpt lat="49.7774" lon="2.30664">
        <ele>83.3</ele>
        <time>2023-07-12T08:12:07Z</time>
      </trkpt>
      <trkpt lat="49.77741" lon="2.30665">
        <ele>83.3</ele>
        <time>2023-07-12T08:12:08Z</time>
      </trkpt>
      <trkpt lat="49.77742" lon="2.30667">
        <ele>83.3</ele>
        <time>2023-07-12T08:12:09Z</time>
      </trkpt>
      <trkpt lat="49.77742" lon="2.30668">
        <ele>83.3</ele>
        <time>2023-07-12T08:12:10Z</time>
      </trkpt>
      <trkpt lat="49.77743" lon="2.3067">
        <ele>83.3</ele>
        <time>2023-07-12T08:12:12Z</time>
      </trkpt>
      <trkpt lat="49.77744" lon="2.30671">
        <ele>83.3</ele>
        <time>2023-07-12T08:12:13Z</time>
      </trkpt>
      <trkpt lat="49.77745" lon="2.30673">
        <ele>83.2</ele>
        <time>2023-07-12T08:12:14Z</time>
      </trkpt>
      <trkpt lat="49.77746" lon="2.30674">
        <ele>83.2</ele>
        <time>2023-07-12T08:12:15Z</time>
      </trkpt>
      <trkpt lat="49.77747" lon="2.30676">
        <ele>83.2</ele>
        <time>2023-07-12T08:12:16Z</time>
      </trkpt>
      <trkpt lat="49.77748" lon="2.30678">
        <ele>83.2</ele>
        <time>2023-07-12T08:12:17Z</time>
      </trkpt>
      <trkpt lat="49.77749" lon="2.30679">
        <ele>83.2</ele>
        <time>2023-07-12T08:12:18Z</time>
      </trkpt>
      <trkpt lat="49.7775" lon="2.30681">
        <ele>83.2</ele>
        <time>2023-07-12T08:12:20Z</time>
      </trkpt>
      <trkpt lat="49.77751" lon="2.30682">
        <ele>83.2</ele>
        <time>2023-07-12T08:12:21Z</time>
      </trkpt>
      <trkpt lat="49.77752" lon="2.30683">
        <ele>83.2</ele>
        <time>2023-07-12T08:12:22Z</time>
      </trkpt>
      <trkpt lat="49.77754" lon="2.30686">
        <ele>83.1</ele>
        <time>2023-07-12T08:12:23Z</time>
      </trkpt>
      <trkpt lat="49.77754" lon="2.30687">
        <ele>83.1</ele>
        <time>2023-07-12T08:12:24Z</time>
      </trkpt>
      <trkpt lat="49.77755" lon="2.30687">
        <ele>83.1</ele>
        <time>2023-07-12T08:12:25Z</time>
      </trkpt>
      <trkpt lat="49.77756" lon="2.30689">
        <ele>83.1</ele>
        <time>2023-07-12T08:12:27Z</time>
      </trkpt>
      <trkpt lat="49.77757" lon="2.3069">
        <ele>83.1</ele>
        <time>2023-07-12T08:12:28Z</time>
      </trkpt>
      <trkpt lat="49.77759" lon="2.30692">
        <ele>83.1</ele>
        <time>2023-07-12T08:12:29Z</time>
      </trkpt>
      <trkpt lat="49.77759" lon="2.30693">
        <ele>83.1</ele>
        <time>2023-07-12T08:12:30Z</time>
      </trkpt>
      <trkpt lat="49.7776" lon="2.30694">
        <ele>83.1</ele>
        <time>2023-07-12T08:12:31Z</time>
      </trkpt>
      <trkpt lat="49.77761" lon="2.30695">
        <ele>83.1</ele>
        <time>2023-07-12T08:12:32Z</time>
      </trkpt>
      <trkpt lat="49.77762" lon="2.30696">
        <ele>83.1</ele>
        <time>2023-07-12T08:12:34Z</time>
      </trkpt>
      <trkpt lat="49.77763" lon="2.30697">
        <ele>83.1</ele>
        <time>2023-07-12T08:12:35Z</time>
      </trkpt>
      <trkpt lat="49.77764" lon="2.30699">
        <ele>83.1</ele>
        <time>2023-07-12T08:12:36Z</time>
      </trkpt>
      <trkpt lat="49.77765" lon="2.307">
        <ele>83.1</ele>
        <time>2023-07-12T08:12:37Z</time>
      </trkpt>
      <trkpt lat="49.77765" lon="2.30701">
        <ele>83.1</ele>
        <time>2023-07-12T08:12:38Z</time>
      </trkpt>
      <trkpt lat="49.77766" lon="2.30702">
        <ele>83.1</ele>
        <time>2023-07-12T08:12:39Z</time>
      </trkpt>
      <trkpt lat="49.77767" lon="2.30703">
        <ele>83.1</ele>
        <time>2023-07-12T08:12:41Z</time>
      </trkpt>
      <trkpt lat="49.77768" lon="2.30705">
        <ele>83.1</ele>
        <time>2023-07-12T08:12:42Z</time>
      </trkpt>
      <trkpt lat="49.77769" lon="2.30706">
        <ele>83.1</ele>
        <time>2023-07-12T08:12:43Z</time>
      </trkpt>
      <trkpt lat="49.77769" lon="2.30707">
        <ele>83.1</ele>
        <time>2023-07-12T08:12:44Z</time>
      </trkpt>
      <trkpt lat="49.7777" lon="2.30709">
        <ele>83</ele>
        <time>2023-07-12T08:12:45Z</time>
      </trkpt>
      <trkpt lat="49.77771" lon="2.3071">
        <ele>83</ele>
        <time>2023-07-12T08:12:46Z</time>
      </trkpt>
      <trkpt lat="49.77772" lon="2.30711">
        <ele>83</ele>
        <time>2023-07-12T08:12:48Z</time>
      </trkpt>
      <trkpt lat="49.77773" lon="2.30713">
        <ele>83</ele>
        <time>2023-07-12T08:12:49Z</time>
      </trkpt>
      <trkpt lat="49.77773" lon="2.30714">
        <ele>83</ele>
        <time>2023-07-12T08:12:50Z</time>
      </trkpt>
      <trkpt lat="49.77774" lon="2.30715">
        <ele>83</ele>
        <time>2023-07-12T08:12:51Z</time>
      </trkpt>
      <trkpt lat="49.77775" lon="2.30716">
        <ele>83</ele>
        <time>2023-07-12T08:12:52Z</time>
      </trkpt>
      <trkpt lat="49.77776" lon="2.30717">
        <ele>83</ele>
        <time>2023-07-12T08:12:53Z</time>
      </trkpt>
      <trkpt lat="49.77777" lon="2.30719">
        <ele>83</ele>
        <time>2023-07-12T08:12:55Z</time>
      </trkpt>
      <trkpt lat="49.77778" lon="2.3072">
        <ele>83</ele>
        <time>2023-07-12T08:12:56Z</time>
      </trkpt>
      <trkpt lat="49.77778" lon="2.30721">
        <ele>83</ele>
        <time>2023-07-12T08:12:57Z</time>
      </trkpt>
      <trkpt lat="49.77779" lon="2.30722">
        <ele>83</ele>
        <time>2023-07-12T08:12:58Z</time>
      </trkpt>
      <trkpt lat="49.7778" lon="2.30723">
        <ele>83</ele>
        <time>2023-07-12T08:12:59Z</time>
      </trkpt>
      <trkpt lat="49.77781" lon="2.30724">
        <ele>83</ele>
        <time>2023-07-12T08:13:00Z</time>
      </trkpt>
      <trkpt lat="49.77782" lon="2.30725">
        <ele>83</ele>
        <time>2023-07-12T08:13:02Z</time>
      </trkpt>
      <trkpt lat="49.77783" lon="2.30726">
        <ele>83</ele>
        <time>2023-07-12T08:13:03Z</time>
      </trkpt>
      <trkpt lat="49.77785" lon="2.30728">
        <ele>83</ele>
        <time>2023-07-12T08:13:04Z</time>
      </trkpt>
      <trkpt lat="49.77785" lon="2.30729">
        <ele>83</ele>
        <time>2023-07-12T08:13:05Z</time>
      </trkpt>
      <trkpt lat="49.77786" lon="2.3073">
        <ele>83</ele>
        <time>2023-07-12T08:13:06Z</time>
      </trkpt>
      <trkpt lat="49.77787" lon="2.30732">
        <ele>83</ele>
        <time>2023-07-12T08:13:08Z</time>
      </trkpt>
      <trkpt lat="49.77788" lon="2.30733">
        <ele>83</ele>
        <time>2023-07-12T08:13:09Z</time>
      </trkpt>
      <trkpt lat="49.77788" lon="2.30734">
        <ele>83</ele>
        <time>2023-07-12T08:13:10Z</time>
      </trkpt>
      <trkpt lat="49.77789" lon="2.30736">
        <ele>83</ele>
        <time>2023-07-12T08:13:11Z</time>
      </trkpt>
      <trkpt lat="49.7779" lon="2.30737">
        <ele>83</ele>
        <time>2023-07-12T08:13:12Z</time>
      </trkpt>
      <trkpt lat="49.7779" lon="2.30739">
        <ele>83</ele>
        <time>2023-07-12T08:13:13Z</time>
      </trkpt>
      <trkpt lat="49.77792" lon="2.30741">
        <ele>83</ele>
        <time>2023-07-12T08:13:15Z</time>
      </trkpt>
      <trkpt lat="49.77792" lon="2.30742">
        <ele>83</ele>
        <time>2023-07-12T08:13:16Z</time>
      </trkpt>
      <trkpt lat="49.77793" lon="2.30743">
        <ele>83</ele>
        <time>2023-07-12T08:13:17Z</time>
      </trkpt>
      <trkpt lat="49.77794" lon="2.30744">
        <ele>83</ele>
        <time>2023-07-12T08:13:18Z</time>
      </trkpt>
      <trkpt lat="49.77795" lon="2.30745">
        <ele>83</ele>
        <time>2023-07-12T08:13:19Z</time>
      </trkpt>
      <trkpt lat="49.77795" lon="2.30747">
        <ele>83</ele>
        <time>2023-07-12T08:13:20Z</time>
      </trkpt>
      <trkpt lat="49.77797" lon="2.30748">
        <ele>83</ele>
        <time>2023-07-12T08:13:22Z</time>
      </trkpt>
      <trkpt lat="49.77798" lon="2.30749">
        <ele>83</ele>
        <time>2023-07-12T08:13:23Z</time>
      </trkpt>
      <trkpt lat="49.77798" lon="2.3075">
        <ele>83</ele>
        <time>2023-07-12T08:13:24Z</time>
      </trkpt>
      <trkpt lat="49.77799" lon="2.30751">
        <ele>83</ele>
        <time>2023-07-12T08:13:25Z</time>
      </trkpt>
      <trkpt lat="49.778" lon="2.30753">
        <ele>83</ele>
        <time>2023-07-12T08:13:26Z</time>
      </trkpt>
      <trkpt lat="49.77801" lon="2.30754">
        <ele>82.9</ele>
        <time>2023-07-12T08:13:27Z</time>
      </trkpt>
      <trkpt lat="49.77802" lon="2.30755">
        <ele>82.9</ele>
        <time>2023-07-12T08:13:29Z</time>
      </trkpt>
      <trkpt lat="49.77802" lon="2.30756">
        <ele>82.9</ele>
        <time>2023-07-12T08:13:30Z</time>
      </trkpt>
      <trkpt lat="49.77803" lon="2.30757">
        <ele>82.9</ele>
        <time>2023-07-12T08:13:31Z</time>
      </trkpt>
      <trkpt lat="49.77804" lon="2.30758">
        <ele>82.9</ele>
        <time>2023-07-12T08:13:32Z</time>
      </trkpt>
      <trkpt lat="49.77805" lon="2.3076">
        <ele>82.9</ele>
        <time>2023-07-12T08:13:33Z</time>
      </trkpt>
      <trkpt lat="49.77806" lon="2.30761">
        <ele>82.9</ele>
        <time>2023-07-12T08:13:34Z</time>
      </trkpt>
      <trkpt lat="49.77807" lon="2.30763">
        <ele>82.9</ele>
        <time>2023-07-12T08:13:36Z</time>
      </trkpt>
      <trkpt lat="49.77808" lon="2.30764">
        <ele>82.9</ele>
        <time>2023-07-12T08:13:37Z</time>
      </trkpt>
      <trkpt lat="49.77808" lon="2.30765">
        <ele>82.9</ele>
        <time>2023-07-12T08:13:38Z</time>
      </trkpt>
      <trkpt lat="49.77809" lon="2.30766">
        <ele>82.9</ele>
        <time>2023-07-12T08:13:39Z</time>
      </trkpt>
      <trkpt lat="49.7781" lon="2.30768">
        <ele>82.9</ele>
        <time>2023-07-12T08:13:40Z</time>
      </trkpt>
      <trkpt lat="49.77811" lon="2.30769">
        <ele>82.9</ele>
        <time>2023-07-12T08:13:42Z</time>
      </trkpt>
      <trkpt lat="49.77813" lon="2.30771">
        <ele>82.9</ele>
        <time>2023-07-12T08:13:43Z</time>
      </trkpt>
      <trkpt lat="49.77813" lon="2.30772">
        <ele>82.9</ele>
        <time>2023-07-12T08:13:44Z</time>
      </trkpt>
      <trkpt lat="49.77814" lon="2.30773">
        <ele>82.9</ele>
        <time>2023-07-12T08:13:45Z</time>
      </trkpt>
      <trkpt lat="49.77815" lon="2.30774">
        <ele>82.9</ele>
        <time>2023-07-12T08:13:46Z</time>
      </trkpt>
      <trkpt lat="49.77816" lon="2.30775">
        <ele>82.9</ele>
        <time>2023-07-12T08:13:47Z</time>
      </trkpt>
      <trkpt lat="49.77817" lon="2.30777">
        <ele>82.9</ele>
        <time>2023-07-12T08:13:49Z</time>
      </trkpt>
      <trkpt lat="49.77818" lon="2.30779">
        <ele>82.8</ele>
        <time>2023-07-12T08:13:50Z</time>
      </trkpt>
      <trkpt lat="49.77819" lon="2.3078">
        <ele>82.8</ele>
        <time>2023-07-12T08:13:51Z</time>
      </trkpt>
      <trkpt lat="49.7782" lon="2.30781">
        <ele>82.8</ele>
        <time>2023-07-12T08:13:52Z</time>
      </trkpt>
      <trkpt lat="49.7782" lon="2.30782">
        <ele>82.8</ele>
        <time>2023-07-12T08:13:53Z</time>
      </trkpt>
      <trkpt lat="49.77821" lon="2.30783">
        <ele>82.8</ele>
        <time>2023-07-12T08:13:54Z</time>
      </trkpt>
      <trkpt lat="49.77822" lon="2.30784">
        <ele>82.8</ele>
        <time>2023-07-12T08:13:56Z</time>
      </trkpt>
      <trkpt lat="49.77823" lon="2.30785">
        <ele>82.8</ele>
        <time>2023-07-12T08:13:57Z</time>
      </trkpt>
      <trkpt lat="49.77824" lon="2.30786">
        <ele>82.8</ele>
        <time>2023-07-12T08:13:58Z</time>
      </trkpt>
      <trkpt lat="49.77825" lon="2.30787">
        <ele>82.8</ele>
        <time>2023-07-12T08:13:59Z</time>
      </trkpt>
      <trkpt lat="49.77825" lon="2.30788">
        <ele>82.8</ele>
        <time>2023-07-12T08:14:00Z</time>
      </trkpt>
      <trkpt lat="49.77826" lon="2.3079">
        <ele>82.8</ele>
        <time>2023-07-12T08:14:01Z</time>
      </trkpt>
      <trkpt lat="49.77827" lon="2.30791">
        <ele>82.8</ele>
        <time>2023-07-12T08:14:03Z</time>
      </trkpt>
      <trkpt lat="49.77828" lon="2.30792">
        <ele>82.8</ele>
        <time>2023-07-12T08:14:04Z</time>
      </trkpt>
      <trkpt lat="49.77829" lon="2.30793">
        <ele>82.8</ele>
        <time>2023-07-12T08:14:05Z</time>
      </trkpt>
      <trkpt lat="49.7783" lon="2.30795">
        <ele>82.8</ele>
        <time>2023-07-12T08:14:06Z</time>
      </trkpt>
      <trkpt lat="49.77831" lon="2.30796">
        <ele>82.8</ele>
        <time>2023-07-12T08:14:07Z</time>
      </trkpt>
      <trkpt lat="49.77831" lon="2.30797">
        <ele>82.8</ele>
        <time>2023-07-12T08:14:08Z</time>
      </trkpt>
      <trkpt lat="49.77832" lon="2.30798">
        <ele>82.7</ele>
        <time>2023-07-12T08:14:10Z</time>
      </trkpt>
      <trkpt lat="49.77833" lon="2.30799">
        <ele>82.7</ele>
        <time>2023-07-12T08:14:11Z</time>
      </trkpt>
      <trkpt lat="49.77834" lon="2.308">
        <ele>82.7</ele>
        <time>2023-07-12T08:14:12Z</time>
      </trkpt>
      <trkpt lat="49.77835" lon="2.30802">
        <ele>82.7</ele>
        <time>2023-07-12T08:14:13Z</time>
      </trkpt>
      <trkpt lat="49.77835" lon="2.30803">
        <ele>82.7</ele>
        <time>2023-07-12T08:14:14Z</time>
      </trkpt>
      <trkpt lat="49.77836" lon="2.30804">
        <ele>82.7</ele>
        <time>2023-07-12T08:14:15Z</time>
      </trkpt>
      <trkpt lat="49.77837" lon="2.30806">
        <ele>82.7</ele>
        <time>2023-07-12T08:14:17Z</time>
      </trkpt>
      <trkpt lat="49.77838" lon="2.30807">
        <ele>82.7</ele>
        <time>2023-07-12T08:14:18Z</time>
      </trkpt>
      <trkpt lat="49.77838" lon="2.30808">
        <ele>82.7</ele>
        <time>2023-07-12T08:14:19Z</time>
      </trkpt>
      <trkpt lat="49.77839" lon="2.30809">
        <ele>82.7</ele>
        <time>2023-07-12T08:14:20Z</time>
      </trkpt>
      <trkpt lat="49.7784" lon="2.3081">
        <ele>82.7</ele>
        <time>2023-07-12T08:14:21Z</time>
      </trkpt>
      <trkpt lat="49.77841" lon="2.30812">
        <ele>82.7</ele>
        <time>2023-07-12T08:14:22Z</time>
      </trkpt>
      <trkpt lat="49.77841" lon="2.30813">
        <ele>82.7</ele>
        <time>2023-07-12T08:14:23Z</time>
      </trkpt>
      <trkpt lat="49.77843" lon="2.30815">
        <ele>82.7</ele>
        <time>2023-07-12T08:14:25Z</time>
      </trkpt>
      <trkpt lat="49.77844" lon="2.30816">
        <ele>82.6</ele>
        <time>2023-07-12T08:14:26Z</time>
      </trkpt>
      <trkpt lat="49.77845" lon="2.30817">
        <ele>82.6</ele>
        <time>2023-07-12T08:14:27Z</time>
      </trkpt>
      <trkpt lat="49.77846" lon="2.30819">
        <ele>82.6</ele>
        <time>2023-07-12T08:14:28Z</time>
      </trkpt>
      <trkpt lat="49.77847" lon="2.3082">
        <ele>82.6</ele>
        <time>2023-07-12T08:14:29Z</time>
      </trkpt>
      <trkpt lat="49.77848" lon="2.30821">
        <ele>82.6</ele>
        <time>2023-07-12T08:14:30Z</time>
      </trkpt>
      <trkpt lat="49.77849" lon="2.30822">
        <ele>82.6</ele>
        <time>2023-07-12T08:14:32Z</time>
      </trkpt>
      <trkpt lat="49.7785" lon="2.30823">
        <ele>82.6</ele>
        <time>2023-07-12T08:14:33Z</time>
      </trkpt>
      <trkpt lat="49.77851" lon="2.30825">
        <ele>82.6</ele>
        <time>2023-07-12T08:14:34Z</time>
      </trkpt>
      <trkpt lat="49.77852" lon="2.30826">
        <ele>82.6</ele>
        <time>2023-07-12T08:14:35Z</time>
      </trkpt>
      <trkpt lat="49.77854" lon="2.30828">
        <ele>82.6</ele>
        <time>2023-07-12T08:14:36Z</time>
      </trkpt>
      <trkpt lat="49.77854" lon="2.30829">
        <ele>82.6</ele>
        <time>2023-07-12T08:14:37Z</time>
      </trkpt>
      <trkpt lat="49.77855" lon="2.3083">
        <ele>82.6</ele>
        <time>2023-07-12T08:14:39Z</time>
      </trkpt>
      <trkpt lat="49.77856" lon="2.30831">
        <ele>82.6</ele>
        <time>2023-07-12T08:14:40Z</time>
      </trkpt>
      <trkpt lat="49.77857" lon="2.30832">
        <ele>82.6</ele>
        <time>2023-07-12T08:14:41Z</time>
      </trkpt>
      <trkpt lat="49.77858" lon="2.30833">
        <ele>82.6</ele>
        <time>2023-07-12T08:14:42Z</time>
      </trkpt>
      <trkpt lat="49.77859" lon="2.30835">
        <ele>82.6</ele>
        <time>2023-07-12T08:14:43Z</time>
      </trkpt>
      <trkpt lat="49.7786" lon="2.30836">
        <ele>82.6</ele>
        <time>2023-07-12T08:14:45Z</time>
      </trkpt>
      <trkpt lat="49.77861" lon="2.30837">
        <ele>82.6</ele>
        <time>2023-07-12T08:14:46Z</time>
      </trkpt>
      <trkpt lat="49.77862" lon="2.30839">
        <ele>82.6</ele>
        <time>2023-07-12T08:14:47Z</time>
      </trkpt>
      <trkpt lat="49.77863" lon="2.3084">
        <ele>82.6</ele>
        <time>2023-07-12T08:14:48Z</time>
      </trkpt>
      <trkpt lat="49.77864" lon="2.30842">
        <ele>82.6</ele>
        <time>2023-07-12T08:14:49Z</time>
      </trkpt>
      <trkpt lat="49.77864" lon="2.30843">
        <ele>82.6</ele>
        <time>2023-07-12T08:14:50Z</time>
      </trkpt>
      <trkpt lat="49.77865" lon="2.30845">
        <ele>82.6</ele>
        <time>2023-07-12T08:14:52Z</time>
      </trkpt>
      <trkpt lat="49.77866" lon="2.30846">
        <ele>82.6</ele>
        <time>2023-07-12T08:14:53Z</time>
      </trkpt>
      <trkpt lat="49.77867" lon="2.30847">
        <ele>82.6</ele>
        <time>2023-07-12T08:14:54Z</time>
      </trkpt>
      <trkpt lat="49.77869" lon="2.3085">
        <ele>82.6</ele>
        <time>2023-07-12T08:14:55Z</time>
      </trkpt>
      <trkpt lat="49.77869" lon="2.3085">
        <ele>82.6</ele>
        <time>2023-07-12T08:14:56Z</time>
      </trkpt>
      <trkpt lat="49.7787" lon="2.30851">
        <ele>82.6</ele>
        <time>2023-07-12T08:14:57Z</time>
      </trkpt>
      <trkpt lat="49.77871" lon="2.30854">
        <ele>82.6</ele>
        <time>2023-07-12T08:14:59Z</time>
      </trkpt>
      <trkpt lat="49.77872" lon="2.30855">
        <ele>82.6</ele>
        <time>2023-07-12T08:15:00Z</time>
      </trkpt>
      <trkpt lat="49.77873" lon="2.30856">
        <ele>82.6</ele>
        <time>2023-07-12T08:15:01Z</time>
      </trkpt>
      <trkpt lat="49.77874" lon="2.30858">
        <ele>82.6</ele>
        <time>2023-07-12T08:15:02Z</time>
      </trkpt>
      <trkpt lat="49.77875" lon="2.30859">
        <ele>82.6</ele>
        <time>2023-07-12T08:15:03Z</time>
      </trkpt>
      <trkpt lat="49.77876" lon="2.3086">
        <ele>82.6</ele>
        <time>2023-07-12T08:15:04Z</time>
      </trkpt>
      <trkpt lat="49.77877" lon="2.30862">
        <ele>82.7</ele>
        <time>2023-07-12T08:15:06Z</time>
      </trkpt>
      <trkpt lat="49.77878" lon="2.30863">
        <ele>82.7</ele>
        <time>2023-07-12T08:15:07Z</time>
      </trkpt>
      <trkpt lat="49.77879" lon="2.30864">
        <ele>82.7</ele>
        <time>2023-07-12T08:15:08Z</time>
      </trkpt>
      <trkpt lat="49.7788" lon="2.30865">
        <ele>82.7</ele>
        <time>2023-07-12T08:15:09Z</time>
      </trkpt>
      <trkpt lat="49.77881" lon="2.30866">
        <ele>82.7</ele>
        <time>2023-07-12T08:15:10Z</time>
      </trkpt>
      <trkpt lat="49.77882" lon="2.30867">
        <ele>82.7</ele>
        <time>2023-07-12T08:15:12Z</time>
      </trkpt>
      <trkpt lat="49.77883" lon="2.30869">
        <ele>82.7</ele>
        <time>2023-07-12T08:15:13Z</time>
      </trkpt>
      <trkpt lat="49.77884" lon="2.3087">
        <ele>82.7</ele>
        <time>2023-07-12T08:15:14Z</time>
      </trkpt>
      <trkpt lat="49.77885" lon="2.3087">
        <ele>82.7</ele>
        <time>2023-07-12T08:15:15Z</time>
      </trkpt>
      <trkpt lat="49.77885" lon="2.30871">
        <ele>82.7</ele>
        <time>2023-07-12T08:15:17Z</time>
      </trkpt>
      <trkpt lat="49.77886" lon="2.30872">
        <ele>82.7</ele>
        <time>2023-07-12T08:15:18Z</time>
      </trkpt>
      <trkpt lat="49.77887" lon="2.30874">
        <ele>82.7</ele>
        <time>2023-07-12T08:15:19Z</time>
      </trkpt>
      <trkpt lat="49.77888" lon="2.30875">
        <ele>82.8</ele>
        <time>2023-07-12T08:15:20Z</time>
      </trkpt>
      <trkpt lat="49.77889" lon="2.30876">
        <ele>82.8</ele>
        <time>2023-07-12T08:15:21Z</time>
      </trkpt>
      <trkpt lat="49.7789" lon="2.30878">
        <ele>82.8</ele>
        <time>2023-07-12T08:15:23Z</time>
      </trkpt>
      <trkpt lat="49.77891" lon="2.30879">
        <ele>82.8</ele>
        <time>2023-07-12T08:15:25Z</time>
      </trkpt>
      <trkpt lat="49.77891" lon="2.3088">
        <ele>82.8</ele>
        <time>2023-07-12T08:15:26Z</time>
      </trkpt>
      <trkpt lat="49.77892" lon="2.30881">
        <ele>82.8</ele>
        <time>2023-07-12T08:15:27Z</time>
      </trkpt>
      <trkpt lat="49.77893" lon="2.30882">
        <ele>82.8</ele>
        <time>2023-07-12T08:15:28Z</time>
      </trkpt>
      <trkpt lat="49.77893" lon="2.30883">
        <ele>82.9</ele>
        <time>2023-07-12T08:15:29Z</time>
      </trkpt>
      <trkpt lat="49.77895" lon="2.30885">
        <ele>82.9</ele>
        <time>2023-07-12T08:15:31Z</time>
      </trkpt>
      <trkpt lat="49.77895" lon="2.30886">
        <ele>82.9</ele>
        <time>2023-07-12T08:15:32Z</time>
      </trkpt>
      <trkpt lat="49.77896" lon="2.30887">
        <ele>83</ele>
        <time>2023-07-12T08:15:34Z</time>
      </trkpt>
      <trkpt lat="49.77897" lon="2.30889">
        <ele>83</ele>
        <time>2023-07-12T08:15:35Z</time>
      </trkpt>
      <trkpt lat="49.77897" lon="2.30889">
        <ele>83</ele>
        <time>2023-07-12T08:15:36Z</time>
      </trkpt>
      <trkpt lat="49.77898" lon="2.30891">
        <ele>83</ele>
        <time>2023-07-12T08:15:37Z</time>
      </trkpt>
      <trkpt lat="49.77898" lon="2.30891">
        <ele>83</ele>
        <time>2023-07-12T08:15:38Z</time>
      </trkpt>
      <trkpt lat="49.77898" lon="2.30892">
        <ele>83.1</ele>
        <time>2023-07-12T08:15:40Z</time>
      </trkpt>
      <trkpt lat="49.77899" lon="2.30893">
        <ele>83.1</ele>
        <time>2023-07-12T08:15:41Z</time>
      </trkpt>
      <trkpt lat="49.77899" lon="2.30894">
        <ele>83.1</ele>
        <time>2023-07-12T08:15:42Z</time>
      </trkpt>
      <trkpt lat="49.77899" lon="2.30894">
        <ele>83.1</ele>
        <time>2023-07-12T08:15:43Z</time>
      </trkpt>
      <trkpt lat="49.77899" lon="2.30895">
        <ele>83.1</ele>
        <time>2023-07-12T08:15:44Z</time>
      </trkpt>
      <trkpt lat="49.77899" lon="2.30896">
        <ele>83.1</ele>
        <time>2023-07-12T08:15:46Z</time>
      </trkpt>
      <trkpt lat="49.77899" lon="2.30897">
        <ele>83.2</ele>
        <time>2023-07-12T08:15:48Z</time>
      </trkpt>
      <trkpt lat="49.77898" lon="2.30897">
        <ele>83.2</ele>
        <time>2023-07-12T08:15:49Z</time>
      </trkpt>
      <trkpt lat="49.77898" lon="2.30897">
        <ele>83.2</ele>
        <time>2023-07-12T08:15:50Z</time>
      </trkpt>
      <trkpt lat="49.77898" lon="2.30897">
        <ele>83.2</ele>
        <time>2023-07-12T08:15:52Z</time>
      </trkpt>
      <trkpt lat="49.77898" lon="2.30897">
        <ele>83.2</ele>
        <time>2023-07-12T08:15:53Z</time>
      </trkpt>
      <trkpt lat="49.77897" lon="2.30896">
        <ele>83.2</ele>
        <time>2023-07-12T08:15:54Z</time>
      </trkpt>
      <trkpt lat="49.77897" lon="2.30897">
        <ele>83.2</ele>
        <time>2023-07-12T08:15:56Z</time>
      </trkpt>
      <trkpt lat="49.77897" lon="2.30897">
        <ele>83.2</ele>
        <time>2023-07-12T08:15:57Z</time>
      </trkpt>
      <trkpt lat="49.77897" lon="2.30897">
        <ele>83.2</ele>
        <time>2023-07-12T08:15:59Z</time>
      </trkpt>
      <trkpt lat="49.77896" lon="2.30897">
        <ele>83.2</ele>
        <time>2023-07-12T08:16:00Z</time>
      </trkpt>
      <trkpt lat="49.77896" lon="2.30897">
        <ele>83.2</ele>
        <time>2023-07-12T08:16:01Z</time>
      </trkpt>
      <trkpt lat="49.77896" lon="2.30898">
        <ele>83.3</ele>
        <time>2023-07-12T08:16:03Z</time>
      </trkpt>
      <trkpt lat="49.77896" lon="2.30898">
        <ele>83.3</ele>
        <time>2023-07-12T08:16:04Z</time>
      </trkpt>
      <trkpt lat="49.77897" lon="2.30898">
        <ele>83.3</ele>
        <time>2023-07-12T08:16:05Z</time>
      </trkpt>
      <trkpt lat="49.77896" lon="2.30897">
        <ele>83.3</ele>
        <time>2023-07-12T08:16:06Z</time>
      </trkpt>
      <trkpt lat="49.77896" lon="2.30897">
        <ele>83.3</ele>
        <time>2023-07-12T08:16:07Z</time>
      </trkpt>
      <trkpt lat="49.77896" lon="2.30897">
        <ele>83.3</ele>
        <time>2023-07-12T08:16:08Z</time>
      </trkpt>
      <trkpt lat="49.77896" lon="2.30896">
        <ele>83.3</ele>
        <time>2023-07-12T08:16:09Z</time>
      </trkpt>
      <trkpt lat="49.77896" lon="2.30896">
        <ele>83.3</ele>
        <time>2023-07-12T08:16:10Z</time>
      </trkpt>
      <trkpt lat="49.77896" lon="2.30896">
        <ele>83.3</ele>
        <time>2023-07-12T08:16:11Z</time>
      </trkpt>
      <trkpt lat="49.77896" lon="2.30896">
        <ele>83.3</ele>
        <time>2023-07-12T08:16:12Z</time>
      </trkpt>
      <trkpt lat="49.77896" lon="2.30896">
        <ele>83.3</ele>
        <time>2023-07-12T08:16:13Z</time>
      </trkpt>
      <trkpt lat="49.77896" lon="2.30896">
        <ele>83.3</ele>
        <time>2023-07-12T08:16:14Z</time>
      </trkpt>
      <trkpt lat="49.77896" lon="2.30896">
        <ele>83.3</ele>
        <time>2023-07-12T08:16:15Z</time>
      </trkpt>
      <trkpt lat="49.77896" lon="2.30896">
        <ele>83.3</ele>
        <time>2023-07-12T08:16:16Z</time>
      </trkpt>
      <trkpt lat="49.77896" lon="2.30896">
        <ele>83.3</ele>
        <time>2023-07-12T08:16:17Z</time>
      </trkpt>
      <trkpt lat="49.77896" lon="2.30896">
        <ele>83.3</ele>
        <time>2023-07-12T08:16:18Z</time>
      </trkpt>
      <trkpt lat="49.77896" lon="2.30896">
        <ele>83.3</ele>
        <time>2023-07-12T08:16:19Z</time>
      </trkpt>
      <trkpt lat="49.77896" lon="2.30896">
        <ele>83.3</ele>
        <time>2023-07-12T08:16:20Z</time>
      </trkpt>
      <trkpt lat="49.77896" lon="2.30896">
        <ele>83.3</ele>
        <time>2023-07-12T08:16:21Z</time>
      </trkpt>
      <trkpt lat="49.77896" lon="2.30896">
        <ele>83.3</ele>
        <time>2023-07-12T08:16:22Z</time>
      </trkpt>
      <trkpt lat="49.77896" lon="2.30896">
        <ele>83.3</ele>
        <time>2023-07-12T08:16:23Z</time>
      </trkpt>
      <trkpt lat="49.77896" lon="2.30896">
        <ele>83.3</ele>
        <time>2023-07-12T08:16:24Z</time>
      </trkpt>
      <trkpt lat="49.77896" lon="2.30896">
        <ele>83.3</ele>
        <time>2023-07-12T08:16:25Z</time>
      </trkpt>
      <trkpt lat="49.77896" lon="2.30896">
        <ele>83.3</ele>
        <time>2023-07-12T08:16:26Z</time>
      </trkpt>
      <trkpt lat="49.77896" lon="2.30896">
        <ele>83.3</ele>
        <time>2023-07-12T08:16:27Z</time>
      </trkpt>
      <trkpt lat="49.77896" lon="2.30896">
        <ele>83.3</ele>
        <time>2023-07-12T08:16:28Z</time>
      </trkpt>
      <trkpt lat="49.77896" lon="2.30896">
        <ele>83.3</ele>
        <time>2023-07-12T08:16:29Z</time>
      </trkpt>
      <trkpt lat="49.77896" lon="2.30896">
        <ele>83.3</ele>
        <time>2023-07-12T08:16:30Z</time>
      </trkpt>
      <trkpt lat="49.77896" lon="2.30896">
        <ele>83.3</ele>
        <time>2023-07-12T08:16:31Z</time>
      </trkpt>
      <trkpt lat="49.77896" lon="2.30896">
        <ele>83.3</ele>
        <time>2023-07-12T08:16:32Z</time>
      </trkpt>
      <trkpt lat="49.77896" lon="2.30896">
        <ele>83.3</ele>
        <time>2023-07-12T08:16:33Z</time>
      </trkpt>
      <trkpt lat="49.77896" lon="2.30896">
        <ele>83.3</ele>
        <time>2023-07-12T08:16:34Z</time>
      </trkpt>
      <trkpt lat="49.77896" lon="2.30896">
        <ele>83.3</ele>
        <time>2023-07-12T08:16:35Z</time>
      </trkpt>
      <trkpt lat="49.77896" lon="2.30896">
        <ele>83.3</ele>
        <time>2023-07-12T08:16:36Z</time>
      </trkpt>
      <trkpt lat="49.77896" lon="2.30896">
        <ele>83.3</ele>
        <time>2023-07-12T08:16:37Z</time>
      </trkpt>
      <trkpt lat="49.77896" lon="2.30896">
        <ele>83.3</ele>
        <time>2023-07-12T08:16:38Z</time>
      </trkpt>
      <trkpt lat="49.77896" lon="2.30896">
        <ele>83.3</ele>
        <time>2023-07-12T08:16:39Z</time>
      </trkpt>
      <trkpt lat="49.77896" lon="2.30896">
        <ele>83.3</ele>
        <time>2023-07-12T08:16:40Z</time>
      </trkpt>
      <trkpt lat="49.77896" lon="2.30896">
        <ele>83.3</ele>
        <time>2023-07-12T08:16:41Z</time>
      </trkpt>
      <trkpt lat="49.77896" lon="2.30896">
        <ele>83.3</ele>
        <time>2023-07-12T08:16:42Z</time>
      </trkpt>
      <trkpt lat="49.77896" lon="2.30896">
        <ele>83.3</ele>
        <time>2023-07-12T08:16:43Z</time>
      </trkpt>
      <trkpt lat="49.77896" lon="2.30896">
        <ele>83.3</ele>
        <time>2023-07-12T08:16:44Z</time>
      </trkpt>
      <trkpt lat="49.77896" lon="2.30896">
        <ele>83.3</ele>
        <time>2023-07-12T08:16:45Z</time>
      </trkpt>
      <trkpt lat="49.77896" lon="2.30896">
        <ele>83.3</ele>
        <time>2023-07-12T08:16:46Z</time>
      </trkpt>
      <trkpt lat="49.77896" lon="2.30896">
        <ele>83.3</ele>
        <time>2023-07-12T08:16:47Z</time>
      </trkpt>
      <trkpt lat="49.77896" lon="2.30896">
        <ele>83.3</ele>
        <time>2023-07-12T08:16:48Z</time>
      </trkpt>
      <trkpt lat="49.77896" lon="2.30896">
        <ele>83.3</ele>
        <time>2023-07-12T08:16:49Z</time>
      </trkpt>
      <trkpt lat="49.77896" lon="2.30896">
        <ele>83.3</ele>
        <time>2023-07-12T08:16:50Z</time>
      </trkpt>
      <trkpt lat="49.77896" lon="2.30896">
        <ele>83.3</ele>
        <time>2023-07-12T08:16:51Z</time>
      </trkpt>
      <trkpt lat="49.77896" lon="2.30896">
        <ele>83.3</ele>
        <time>2023-07-12T08:16:52Z</time>
      </trkpt>
      <trkpt lat="49.77896" lon="2.30896">
        <ele>83.3</ele>
        <time>2023-07-12T08:16:53Z</time>
      </trkpt>
      <trkpt lat="49.77896" lon="2.30896">
        <ele>83.3</ele>
        <time>2023-07-12T08:16:54Z</time>
      </trkpt>
      <trkpt lat="49.77896" lon="2.30896">
        <ele>83.3</ele>
        <time>2023-07-12T08:16:55Z</time>
      </trkpt>
      <trkpt lat="49.77896" lon="2.30896">
        <ele>83.3</ele>
        <time>2023-07-12T08:16:56Z</time>
      </trkpt>
      <trkpt lat="49.77896" lon="2.30896">
        <ele>83.3</ele>
        <time>2023-07-12T08:16:57Z</time>
      </trkpt>
      <trkpt lat="49.77896" lon="2.30896">
        <ele>83.3</ele>
        <time>2023-07-12T08:16:58Z</time>
      </trkpt>
      <trkpt lat="49.77896" lon="2.30896">
        <ele>83.3</ele>
        <time>2023-07-12T08:16:59Z</time>
      </trkpt>
      <trkpt lat="49.77896" lon="2.30896">
        <ele>83.3</ele>
        <time>2023-07-12T08:17:00Z</time>
      </trkpt>
      <trkpt lat="49.77896" lon="2.30896">
        <ele>83.3</ele>
        <time>2023-07-12T08:17:01Z</time>
      </trkpt>
      <trkpt lat="49.77896" lon="2.30896">
        <ele>83.3</ele>
        <time>2023-07-12T08:17:02Z</time>
      </trkpt>
      <trkpt lat="49.77896" lon="2.30896">
        <ele>83.3</ele>
        <time>2023-07-12T08:17:03Z</time>
      </trkpt>
      <trkpt lat="49.77896" lon="2.30896">
        <ele>83.3</ele>
        <time>2023-07-12T08:17:04Z</time>
      </trkpt>
      <trkpt lat="49.77896" lon="2.30896">
        <ele>83.3</ele>
        <time>2023-07-12T08:17:05Z</time>
      </trkpt>
      <trkpt lat="49.77896" lon="2.30896">
        <ele>83.3</ele>
        <time>2023-07-12T08:17:06Z</time>
      </trkpt>
      <trkpt lat="49.77896" lon="2.30896">
        <ele>83.3</ele>
        <time>2023-07-12T08:17:07Z</time>
      </trkpt>
      <trkpt lat="49.77896" lon="2.30896">
        <ele>83.3</ele>
        <time>2023-07-12T08:17:08Z</time>
      </trkpt>
      <trkpt lat="49.77896" lon="2.30896">
        <ele>83.3</ele>
        <time>2023-07-12T08:17:09Z</time>
      </trkpt>
      <trkpt lat="49.77896" lon="2.30896">
        <ele>83.3</ele>
        <time>2023-07-12T08:17:10Z</time>
      </trkpt>
      <trkpt lat="49.77896" lon="2.30896">
        <ele>83.3</ele>
        <time>2023-07-12T08:17:11Z</time>
      </trkpt>
      <trkpt lat="49.77896" lon="2.30896">
        <ele>83.3</ele>
        <time>2023-07-12T08:17:12Z</time>
      </trkpt>
      <trkpt lat="49.77896" lon="2.30896">
        <ele>83.3</ele>
        <time>2023-07-12T08:17:13Z</time>
      </trkpt>
      <trkpt lat="49.77896" lon="2.30896">
        <ele>83.3</ele>
        <time>2023-07-12T08:17:14Z</time>
      </trkpt>
      <trkpt lat="49.77896" lon="2.30896">
        <ele>83.3</ele>
        <time>2023-07-12T08:17:15Z</time>
      </trkpt>
      <trkpt lat="49.77896" lon="2.30896">
        <ele>83.3</ele>
        <time>2023-07-12T08:17:16Z</time>
      </trkpt>
      <trkpt lat="49.77896" lon="2.30896">
        <ele>83.3</ele>
        <time>2023-07-12T08:17:17Z</time>
      </trkpt>
      <trkpt lat="49.77896" lon="2.30896">
        <ele>83.3</ele>
        <time>2023-07-12T08:17:18Z</time>
      </trkpt>
      <trkpt lat="49.77896" lon="2.30896">
        <ele>83.3</ele>
        <time>2023-07-12T08:17:19Z</time>
      </trkpt>
      <trkpt lat="49.77896" lon="2.30896">
        <ele>83.3</ele>
        <time>2023-07-12T08:17:20Z</time>
      </trkpt>
      <trkpt lat="49.77896" lon="2.30896">
        <ele>83.3</ele>
        <time>2023-07-12T08:17:21Z</time>
      </trkpt>
      <trkpt lat="49.77896" lon="2.30896">
        <ele>83.3</ele>
        <time>2023-07-12T08:17:22Z</time>
      </trkpt>
      <trkpt lat="49.77896" lon="2.30896">
        <ele>83.3</ele>
        <time>2023-07-12T08:17:23Z</time>
      </trkpt>
      <trkpt lat="49.77896" lon="2.30896">
        <ele>83.3</ele>
        <time>2023-07-12T08:17:24Z</time>
      </trkpt>
      <trkpt lat="49.77896" lon="2.30896">
        <ele>83.3</ele>
        <time>2023-07-12T08:17:25Z</time>
      </trkpt>
      <trkpt lat="49.77896" lon="2.30896">
        <ele>83.3</ele>
        <time>2023-07-12T08:17:26Z</time>
      </trkpt>
      <trkpt lat="49.77896" lon="2.30896">
        <ele>83.3</ele>
        <time>2023-07-12T08:17:27Z</time>
      </trkpt>
      <trkpt lat="49.77896" lon="2.30896">
        <ele>83.3</ele>
        <time>2023-07-12T08:17:28Z</time>
      </trkpt>
      <trkpt lat="49.77896" lon="2.30896">
        <ele>83.3</ele>
        <time>2023-07-12T08:17:29Z</time>
      </trkpt>
      <trkpt lat="49.77896" lon="2.30896">
        <ele>83.3</ele>
        <time>2023-07-12T08:17:30Z</time>
      </trkpt>
      <trkpt lat="49.77896" lon="2.30896">
        <ele>83.3</ele>
        <time>2023-07-12T08:17:31Z</time>
      </trkpt>
      <trkpt lat="49.77896" lon="2.30896">
        <ele>83.3</ele>
        <time>2023-07-12T08:17:32Z</time>
      </trkpt>
      <trkpt lat="49.77896" lon="2.30896">
        <ele>83.3</ele>
        <time>2023-07-12T08:17:33Z</time>
      </trkpt>
      <trkpt lat="49.77896" lon="2.30896">
        <ele>83.3</ele>
        <time>2023-07-12T08:17:34Z</time>
      </trkpt>
      <trkpt lat="49.77896" lon="2.30896">
        <ele>83.3</ele>
        <time>2023-07-12T08:17:35Z</time>
      </trkpt>
      <trkpt lat="49.77896" lon="2.30896">
        <ele>83.3</ele>
        <time>2023-07-12T08:17:36Z</time>
      </trkpt>
      <trkpt lat="49.77896" lon="2.30896">
        <ele>83.3</ele>
        <time>2023-07-12T08:17:37Z</time>
      </trkpt>
      <trkpt lat="49.77896" lon="2.30896">
        <ele>83.3</ele>
        <time>2023-07-12T08:17:38Z</time>
      </trkpt>
      <trkpt lat="49.77896" lon="2.30896">
        <ele>83.3</ele>
        <time>2023-07-12T08:17:39Z</time>
      </trkpt>
      <trkpt lat="49.77896" lon="2.30896">
        <ele>83.3</ele>
        <time>2023-07-12T08:17:40Z</time>
      </trkpt>
      <trkpt lat="49.77896" lon="2.30896">
        <ele>83.3</ele>
        <time>2023-07-12T08:17:41Z</time>
      </trkpt>
      <trkpt lat="49.77896" lon="2.30896">
        <ele>83.3</ele>
        <time>2023-07-12T08:17:42Z</time>
      </trkpt>
      <trkpt lat="49.77896" lon="2.30896">
        <ele>83.3</ele>
        <time>2023-07-12T08:17:43Z</time>
      </trkpt>
      <trkpt lat="49.77896" lon="2.30896">
        <ele>83.3</ele>
        <time>2023-07-12T08:17:44Z</time>
      </trkpt>
      <trkpt lat="49.77896" lon="2.30896">
        <ele>83.3</ele>
        <time>2023-07-12T08:17:45Z</time>
      </trkpt>
      <trkpt lat="49.77896" lon="2.30896">
        <ele>83.3</ele>
        <time>2023-07-12T08:17:46Z</time>
      </trkpt>
      <trkpt lat="49.77896" lon="2.30896">
        <ele>83.3</ele>
        <time>2023-07-12T08:17:47Z</time>
      </trkpt>
      <trkpt lat="49.77896" lon="2.30896">
        <ele>83.3</ele>
        <time>2023-07-12T08:17:48Z</time>
      </trkpt>
      <trkpt lat="49.77896" lon="2.30896">
        <ele>83.3</ele>
        <time>2023-07-12T08:17:49Z</time>
      </trkpt>
      <trkpt lat="49.77896" lon="2.30896">
        <ele>83.3</ele>
        <time>2023-07-12T08:17:50Z</time>
      </trkpt>
      <trkpt lat="49.77896" lon="2.30896">
        <ele>83.3</ele>
        <time>2023-07-12T08:17:51Z</time>
      </trkpt>
      <trkpt lat="49.77896" lon="2.30896">
        <ele>83.3</ele>
        <time>2023-07-12T08:17:52Z</time>
      </trkpt>
      <trkpt lat="49.77896" lon="2.30896">
        <ele>83.3</ele>
        <time>2023-07-12T08:17:53Z</time>
      </trkpt>
      <trkpt lat="49.77896" lon="2.30896">
        <ele>83.3</ele>
        <time>2023-07-12T08:17:54Z</time>
      </trkpt>
      <trkpt lat="49.77896" lon="2.30896">
        <ele>83.3</ele>
        <time>2023-07-12T08:17:55Z</time>
      </trkpt>
      <trkpt lat="49.77896" lon="2.30896">
        <ele>83.3</ele>
        <time>2023-07-12T08:17:56Z</time>
      </trkpt>
      <trkpt lat="49.77896" lon="2.30896">
        <ele>83.3</ele>
        <time>2023-07-12T08:17:57Z</time>
      </trkpt>
      <trkpt lat="49.77896" lon="2.30896">
        <ele>83.3</ele>
        <time>2023-07-12T08:17:58Z</time>
      </trkpt>
      <trkpt lat="49.77896" lon="2.30896">
        <ele>83.3</ele>
        <time>2023-07-12T08:17:59Z</time>
      </trkpt>
      <trkpt lat="49.77896" lon="2.30896">
        <ele>83.3</ele>
        <time>2023-07-12T08:18:00Z</time>
      </trkpt>
      <trkpt lat="49.77896" lon="2.30896">
        <ele>83.3</ele>
        <time>2023-07-12T08:18:01Z</time>
      </trkpt>
      <trkpt lat="49.77896" lon="2.30896">
        <ele>83.3</ele>
        <time>2023-07-12T08:18:02Z</time>
      </trkpt>
      <trkpt lat="49.77896" lon="2.30896">
        <ele>83.3</ele>
        <time>2023-07-12T08:18:03Z</time>
      </trkpt>
      <trkpt lat="49.77896" lon="2.30896">
        <ele>83.3</ele>
        <time>2023-07-12T08:18:04Z</time>
      </trkpt>
      <trkpt lat="49.77896" lon="2.30896">
        <ele>83.3</ele>
        <time>2023-07-12T08:18:05Z</time>
      </trkpt>
      <trkpt lat="49.77896" lon="2.30896">
        <ele>83.3</ele>
        <time>2023-07-12T08:18:06Z</time>
      </trkpt>
      <trkpt lat="49.77896" lon="2.30896">
        <ele>83.3</ele>
        <time>2023-07-12T08:18:07Z</time>
      </trkpt>
      <trkpt lat="49.77896" lon="2.30896">
        <ele>83.3</ele>
        <time>2023-07-12T08:18:08Z</time>
      </trkpt>
      <trkpt lat="49.77896" lon="2.30896">
        <ele>83.3</ele>
        <time>2023-07-12T08:18:09Z</time>
      </trkpt>
      <trkpt lat="49.77896" lon="2.30896">
        <ele>83.3</ele>
        <time>2023-07-12T08:18:10Z</time>
      </trkpt>
      <trkpt lat="49.77896" lon="2.30896">
        <ele>83.3</ele>
        <time>2023-07-12T08:18:11Z</time>
      </trkpt>
      <trkpt lat="49.77896" lon="2.30896">
        <ele>83.3</ele>
        <time>2023-07-12T08:18:12Z</time>
      </trkpt>
      <trkpt lat="49.77896" lon="2.30896">
        <ele>83.3</ele>
        <time>2023-07-12T08:18:13Z</time>
      </trkpt>
      <trkpt lat="49.77896" lon="2.30896">
        <ele>83.3</ele>
        <time>2023-07-12T08:18:14Z</time>
      </trkpt>
      <trkpt lat="49.77896" lon="2.30896">
        <ele>83.3</ele>
        <time>2023-07-12T08:18:15Z</time>
      </trkpt>
      <trkpt lat="49.77896" lon="2.30896">
        <ele>83.3</ele>
        <time>2023-07-12T08:18:16Z</time>
      </trkpt>
      <trkpt lat="49.77896" lon="2.30896">
        <ele>83.3</ele>
        <time>2023-07-12T08:18:17Z</time>
      </trkpt>
      <trkpt lat="49.77896" lon="2.30896">
        <ele>83.3</ele>
        <time>2023-07-12T08:18:18Z</time>
      </trkpt>
      <trkpt lat="49.77896" lon="2.30896">
        <ele>83.3</ele>
        <time>2023-07-12T08:18:19Z</time>
      </trkpt>
      <trkpt lat="49.77896" lon="2.30896">
        <ele>83.3</ele>
        <time>2023-07-12T08:18:20Z</time>
      </trkpt>
      <trkpt lat="49.77896" lon="2.30896">
        <ele>83.3</ele>
        <time>2023-07-12T08:18:21Z</time>
      </trkpt>
      <trkpt lat="49.77896" lon="2.30896">
        <ele>83.3</ele>
        <time>2023-07-12T08:18:22Z</time>
      </trkpt>
      <trkpt lat="49.77896" lon="2.30896">
        <ele>83.3</ele>
        <time>2023-07-12T08:18:23Z</time>
      </trkpt>
      <trkpt lat="49.77896" lon="2.30896">
        <ele>83.3</ele>
        <time>2023-07-12T08:18:24Z</time>
      </trkpt>
      <trkpt lat="49.77896" lon="2.30896">
        <ele>83.3</ele>
        <time>2023-07-12T08:18:25Z</time>
      </trkpt>
      <trkpt lat="49.77896" lon="2.30896">
        <ele>83.3</ele>
        <time>2023-07-12T08:18:26Z</time>
      </trkpt>
      <trkpt lat="49.77896" lon="2.30896">
        <ele>83.3</ele>
        <time>2023-07-12T08:18:27Z</time>
      </trkpt>
      <trkpt lat="49.77896" lon="2.30896">
        <ele>83.3</ele>
        <time>2023-07-12T08:18:28Z</time>
      </trkpt>
      <trkpt lat="49.77896" lon="2.30896">
        <ele>83.3</ele>
        <time>2023-07-12T08:18:29Z</time>
      </trkpt>
      <trkpt lat="49.77896" lon="2.30896">
        <ele>83.3</ele>
        <time>2023-07-12T08:18:30Z</time>
      </trkpt>
      <trkpt lat="49.77896" lon="2.30895">
        <ele>83.3</ele>
        <time>2023-07-12T08:18:31Z</time>
      </trkpt>
      <trkpt lat="49.77897" lon="2.30893">
        <ele>83.4</ele>
        <time>2023-07-12T08:18:32Z</time>
      </trkpt>
      <trkpt lat="49.77897" lon="2.30893">
        <ele>83.4</ele>
        <time>2023-07-12T08:18:33Z</time>
      </trkpt>
      <trkpt lat="49.77898" lon="2.30895">
        <ele>83.4</ele>
        <time>2023-07-12T08:18:34Z</time>
      </trkpt>
      <trkpt lat="49.77898" lon="2.30896">
        <ele>83.5</ele>
        <time>2023-07-12T08:18:35Z</time>
      </trkpt>
      <trkpt lat="49.77898" lon="2.30897">
        <ele>83.5</ele>
        <time>2023-07-12T08:18:36Z</time>
      </trkpt>
      <trkpt lat="49.77898" lon="2.30898">
        <ele>83.5</ele>
        <time>2023-07-12T08:18:37Z</time>
      </trkpt>
      <trkpt lat="49.77899" lon="2.30899">
        <ele>83.5</ele>
        <time>2023-07-12T08:18:38Z</time>
      </trkpt>
      <trkpt lat="49.77899" lon="2.309">
        <ele>83.6</ele>
        <time>2023-07-12T08:18:40Z</time>
      </trkpt>
      <trkpt lat="49.77899" lon="2.30901">
        <ele>83.6</ele>
        <time>2023-07-12T08:18:41Z</time>
      </trkpt>
      <trkpt lat="49.77899" lon="2.30902">
        <ele>84.3</ele>
        <time>2023-07-12T08:18:43Z</time>
      </trkpt>
      <trkpt lat="49.77899" lon="2.30903">
        <ele>84.3</ele>
        <time>2023-07-12T08:18:44Z</time>
      </trkpt>
      <trkpt lat="49.77899" lon="2.30905">
        <ele>84.4</ele>
        <time>2023-07-12T08:18:45Z</time>
      </trkpt>
      <trkpt lat="49.77898" lon="2.30907">
        <ele>84.5</ele>
        <time>2023-07-12T08:18:46Z</time>
      </trkpt>
      <trkpt lat="49.77898" lon="2.30908">
        <ele>84.6</ele>
        <time>2023-07-12T08:18:47Z</time>
      </trkpt>
      <trkpt lat="49.77897" lon="2.3091">
        <ele>84.6</ele>
        <time>2023-07-12T08:18:48Z</time>
      </trkpt>
      <trkpt lat="49.77897" lon="2.30911">
        <ele>84.7</ele>
        <time>2023-07-12T08:18:50Z</time>
      </trkpt>
      <trkpt lat="49.77897" lon="2.30913">
        <ele>84.8</ele>
        <time>2023-07-12T08:18:51Z</time>
      </trkpt>
      <trkpt lat="49.77897" lon="2.30914">
        <ele>84.8</ele>
        <time>2023-07-12T08:18:52Z</time>
      </trkpt>
      <trkpt lat="49.77896" lon="2.30916">
        <ele>84.9</ele>
        <time>2023-07-12T08:18:53Z</time>
      </trkpt>
      <trkpt lat="49.77896" lon="2.30917">
        <ele>85</ele>
        <time>2023-07-12T08:18:54Z</time>
      </trkpt>
      <trkpt lat="49.77896" lon="2.30919">
        <ele>85.1</ele>
        <time>2023-07-12T08:18:55Z</time>
      </trkpt>
      <trkpt lat="49.77895" lon="2.30922">
        <ele>85.2</ele>
        <time>2023-07-12T08:18:57Z</time>
      </trkpt>
      <trkpt lat="49.77894" lon="2.30923">
        <ele>85.3</ele>
        <time>2023-07-12T08:18:59Z</time>
      </trkpt>
      <trkpt lat="49.77894" lon="2.30925">
        <ele>85.4</ele>
        <time>2023-07-12T08:19:00Z</time>
      </trkpt>
      <trkpt lat="49.77893" lon="2.30926">
        <ele>85.5</ele>
        <time>2023-07-12T08:19:01Z</time>
      </trkpt>
      <trkpt lat="49.77892" lon="2.30928">
        <ele>85.6</ele>
        <time>2023-07-12T08:19:02Z</time>
      </trkpt>
      <trkpt lat="49.77892" lon="2.30929">
        <ele>85.6</ele>
        <time>2023-07-12T08:19:04Z</time>
      </trkpt>
      <trkpt lat="49.77891" lon="2.3093">
        <ele>85.7</ele>
        <time>2023-07-12T08:19:05Z</time>
      </trkpt>
      <trkpt lat="49.77891" lon="2.30931">
        <ele>85.8</ele>
        <time>2023-07-12T08:19:06Z</time>
      </trkpt>
      <trkpt lat="49.7789" lon="2.30933">
        <ele>85.8</ele>
        <time>2023-07-12T08:19:07Z</time>
      </trkpt>
      <trkpt lat="49.77889" lon="2.30934">
        <ele>85.9</ele>
        <time>2023-07-12T08:19:08Z</time>
      </trkpt>
      <trkpt lat="49.77889" lon="2.30936">
        <ele>86</ele>
        <time>2023-07-12T08:19:09Z</time>
      </trkpt>
      <trkpt lat="49.77888" lon="2.30937">
        <ele>86.1</ele>
        <time>2023-07-12T08:19:10Z</time>
      </trkpt>
      <trkpt lat="49.77887" lon="2.30939">
        <ele>86.3</ele>
        <time>2023-07-12T08:19:12Z</time>
      </trkpt>
      <trkpt lat="49.77886" lon="2.3094">
        <ele>86.3</ele>
        <time>2023-07-12T08:19:13Z</time>
      </trkpt>
      <trkpt lat="49.77886" lon="2.30941">
        <ele>86.4</ele>
        <time>2023-07-12T08:19:14Z</time>
      </trkpt>
      <trkpt lat="49.77885" lon="2.30943">
        <ele>86.5</ele>
        <time>2023-07-12T08:19:15Z</time>
      </trkpt>
      <trkpt lat="49.77883" lon="2.30945">
        <ele>86.7</ele>
        <time>2023-07-12T08:19:17Z</time>
      </trkpt>
      <trkpt lat="49.77882" lon="2.30946">
        <ele>86.8</ele>
        <time>2023-07-12T08:19:19Z</time>
      </trkpt>
      <trkpt lat="49.77881" lon="2.30947">
        <ele>86.8</ele>
        <time>2023-07-12T08:19:20Z</time>
      </trkpt>
      <trkpt lat="49.7788" lon="2.30948">
        <ele>86.9</ele>
        <time>2023-07-12T08:19:21Z</time>
      </trkpt>
      <trkpt lat="49.7788" lon="2.30949">
        <ele>87</ele>
        <time>2023-07-12T08:19:22Z</time>
      </trkpt>
      <trkpt lat="49.77879" lon="2.3095">
        <ele>87.1</ele>
        <time>2023-07-12T08:19:24Z</time>
      </trkpt>
      <trkpt lat="49.77878" lon="2.30951">
        <ele>87.2</ele>
        <time>2023-07-12T08:19:25Z</time>
      </trkpt>
      <trkpt lat="49.77877" lon="2.30952">
        <ele>87.3</ele>
        <time>2023-07-12T08:19:26Z</time>
      </trkpt>
      <trkpt lat="49.77876" lon="2.30952">
        <ele>87.4</ele>
        <time>2023-07-12T08:19:27Z</time>
      </trkpt>
      <trkpt lat="49.77875" lon="2.30953">
        <ele>87.5</ele>
        <time>2023-07-12T08:19:28Z</time>
      </trkpt>
      <trkpt lat="49.77874" lon="2.30954">
        <ele>87.6</ele>
        <time>2023-07-12T08:19:29Z</time>
      </trkpt>
      <trkpt lat="49.77873" lon="2.30955">
        <ele>87.6</ele>
        <time>2023-07-12T08:19:31Z</time>
      </trkpt>
      <trkpt lat="49.77873" lon="2.30956">
        <ele>87.8</ele>
        <time>2023-07-12T08:19:32Z</time>
      </trkpt>
      <trkpt lat="49.77871" lon="2.30957">
        <ele>87.9</ele>
        <time>2023-07-12T08:19:33Z</time>
      </trkpt>
      <trkpt lat="49.7787" lon="2.30958">
        <ele>88</ele>
        <time>2023-07-12T08:19:34Z</time>
      </trkpt>
      <trkpt lat="49.7787" lon="2.30959">
        <ele>88.1</ele>
        <time>2023-07-12T08:19:35Z</time>
      </trkpt>
      <trkpt lat="49.77869" lon="2.3096">
        <ele>88.2</ele>
        <time>2023-07-12T08:19:36Z</time>
      </trkpt>
      <trkpt lat="49.77868" lon="2.30962">
        <ele>88.3</ele>
        <time>2023-07-12T08:19:38Z</time>
      </trkpt>
      <trkpt lat="49.77867" lon="2.30962">
        <ele>88.4</ele>
        <time>2023-07-12T08:19:39Z</time>
      </trkpt>
      <trkpt lat="49.77866" lon="2.30964">
        <ele>88.5</ele>
        <time>2023-07-12T08:19:40Z</time>
      </trkpt>
      <trkpt lat="49.77865" lon="2.30965">
        <ele>88.7</ele>
        <time>2023-07-12T08:19:42Z</time>
      </trkpt>
      <trkpt lat="49.77865" lon="2.30965">
        <ele>88.7</ele>
        <time>2023-07-12T08:19:43Z</time>
      </trkpt>
      <trkpt lat="49.77864" lon="2.30966">
        <ele>88.8</ele>
        <time>2023-07-12T08:19:44Z</time>
      </trkpt>
      <trkpt lat="49.77863" lon="2.30967">
        <ele>88.9</ele>
        <time>2023-07-12T08:19:45Z</time>
      </trkpt>
      <trkpt lat="49.77862" lon="2.30968">
        <ele>89</ele>
        <time>2023-07-12T08:19:46Z</time>
      </trkpt>
      <trkpt lat="49.77861" lon="2.30969">
        <ele>89.2</ele>
        <time>2023-07-12T08:19:47Z</time>
      </trkpt>
      <trkpt lat="49.77859" lon="2.3097">
        <ele>89.4</ele>
        <time>2023-07-12T08:19:49Z</time>
      </trkpt>
      <trkpt lat="49.77859" lon="2.30971">
        <ele>89.5</ele>
        <time>2023-07-12T08:19:51Z</time>
      </trkpt>
      <trkpt lat="49.77858" lon="2.30972">
        <ele>89.6</ele>
        <time>2023-07-12T08:19:52Z</time>
      </trkpt>
      <trkpt lat="49.77857" lon="2.30973">
        <ele>89.7</ele>
        <time>2023-07-12T08:19:53Z</time>
      </trkpt>
      <trkpt lat="49.77857" lon="2.30973">
        <ele>89.8</ele>
        <time>2023-07-12T08:19:54Z</time>
      </trkpt>
      <trkpt lat="49.77856" lon="2.30974">
        <ele>89.9</ele>
        <time>2023-07-12T08:19:56Z</time>
      </trkpt>
      <trkpt lat="49.77855" lon="2.30975">
        <ele>90</ele>
        <time>2023-07-12T08:19:58Z</time>
      </trkpt>
      <trkpt lat="49.77855" lon="2.30975">
        <ele>90.1</ele>
        <time>2023-07-12T08:19:59Z</time>
      </trkpt>
      <trkpt lat="49.77854" lon="2.30975">
        <ele>90.2</ele>
        <time>2023-07-12T08:20:00Z</time>
      </trkpt>
      <trkpt lat="49.77853" lon="2.30976">
        <ele>90.3</ele>
        <time>2023-07-12T08:20:01Z</time>
      </trkpt>
      <trkpt lat="49.77852" lon="2.30976">
        <ele>90.4</ele>
        <time>2023-07-12T08:20:02Z</time>
      </trkpt>
      <trkpt lat="49.77852" lon="2.30977">
        <ele>90.5</ele>
        <time>2023-07-12T08:20:04Z</time>
      </trkpt>
      <trkpt lat="49.77851" lon="2.30977">
        <ele>90.6</ele>
        <time>2023-07-12T08:20:05Z</time>
      </trkpt>
      <trkpt lat="49.7785" lon="2.30978">
        <ele>90.7</ele>
        <time>2023-07-12T08:20:07Z</time>
      </trkpt>
      <trkpt lat="49.7785" lon="2.30979">
        <ele>90.8</ele>
        <time>2023-07-12T08:20:08Z</time>
      </trkpt>
      <trkpt lat="49.7785" lon="2.3098">
        <ele>90.9</ele>
        <time>2023-07-12T08:20:10Z</time>
      </trkpt>
      <trkpt lat="49.77851" lon="2.30981">
        <ele>91</ele>
        <time>2023-07-12T08:20:11Z</time>
      </trkpt>
      <trkpt lat="49.77851" lon="2.30981">
        <ele>91</ele>
        <time>2023-07-12T08:20:12Z</time>
      </trkpt>
      <trkpt lat="49.77851" lon="2.30982">
        <ele>91.1</ele>
        <time>2023-07-12T08:20:13Z</time>
      </trkpt>
      <trkpt lat="49.77851" lon="2.30982">
        <ele>91.2</ele>
        <time>2023-07-12T08:20:14Z</time>
      </trkpt>
      <trkpt lat="49.77851" lon="2.30983">
        <ele>91.2</ele>
        <time>2023-07-12T08:20:15Z</time>
      </trkpt>
      <trkpt lat="49.77851" lon="2.30984">
        <ele>91.3</ele>
        <time>2023-07-12T08:20:17Z</time>
      </trkpt>
      <trkpt lat="49.77851" lon="2.30984">
        <ele>91.4</ele>
        <time>2023-07-12T08:20:18Z</time>
      </trkpt>
      <trkpt lat="49.77851" lon="2.30985">
        <ele>91.5</ele>
        <time>2023-07-12T08:20:19Z</time>
      </trkpt>
      <trkpt lat="49.77852" lon="2.30986">
        <ele>91.6</ele>
        <time>2023-07-12T08:20:20Z</time>
      </trkpt>
      <trkpt lat="49.77852" lon="2.30986">
        <ele>91.7</ele>
        <time>2023-07-12T08:20:22Z</time>
      </trkpt>
      <trkpt lat="49.77853" lon="2.30985">
        <ele>91.8</ele>
        <time>2023-07-12T08:20:23Z</time>
      </trkpt>
      <trkpt lat="49.77854" lon="2.30985">
        <ele>91.9</ele>
        <time>2023-07-12T08:20:25Z</time>
      </trkpt>
      <trkpt lat="49.77854" lon="2.30984">
        <ele>91.9</ele>
        <time>2023-07-12T08:20:26Z</time>
      </trkpt>
      <trkpt lat="49.77854" lon="2.30983">
        <ele>92</ele>
        <time>2023-07-12T08:20:28Z</time>
      </trkpt>
      <trkpt lat="49.77854" lon="2.30983">
        <ele>92.1</ele>
        <time>2023-07-12T08:20:29Z</time>
      </trkpt>
      <trkpt lat="49.77854" lon="2.30983">
        <ele>92.1</ele>
        <time>2023-07-12T08:20:30Z</time>
      </trkpt>
      <trkpt lat="49.77855" lon="2.30982">
        <ele>92.2</ele>
        <time>2023-07-12T08:20:32Z</time>
      </trkpt>
      <trkpt lat="49.77855" lon="2.30982">
        <ele>92.2</ele>
        <time>2023-07-12T08:20:33Z</time>
      </trkpt>
      <trkpt lat="49.77855" lon="2.30982">
        <ele>92.3</ele>
        <time>2023-07-12T08:20:35Z</time>
      </trkpt>
      <trkpt lat="49.77855" lon="2.30982">
        <ele>92.3</ele>
        <time>2023-07-12T08:20:36Z</time>
      </trkpt>
      <trkpt lat="49.77855" lon="2.30982">
        <ele>92.3</ele>
        <time>2023-07-12T08:20:37Z</time>
      </trkpt>
      <trkpt lat="49.77855" lon="2.30982">
        <ele>92.3</ele>
        <time>2023-07-12T08:20:39Z</time>
      </trkpt>
      <trkpt lat="49.77855" lon="2.30982">
        <ele>92.4</ele>
        <time>2023-07-12T08:20:40Z</time>
      </trkpt>
      <trkpt lat="49.77856" lon="2.30981">
        <ele>92.4</ele>
        <time>2023-07-12T08:20:41Z</time>
      </trkpt>
      <trkpt lat="49.77856" lon="2.30981">
        <ele>92.5</ele>
        <time>2023-07-12T08:20:43Z</time>
      </trkpt>
      <trkpt lat="49.77856" lon="2.3098">
        <ele>92.5</ele>
        <time>2023-07-12T08:20:45Z</time>
      </trkpt>
      <trkpt lat="49.77856" lon="2.3098">
        <ele>92.6</ele>
        <time>2023-07-12T08:20:46Z</time>
      </trkpt>
      <trkpt lat="49.77856" lon="2.30979">
        <ele>92.6</ele>
        <time>2023-07-12T08:20:48Z</time>
      </trkpt>
      <trkpt lat="49.77856" lon="2.30979">
        <ele>92.6</ele>
        <time>2023-07-12T08:20:49Z</time>
      </trkpt>
      <trkpt lat="49.77856" lon="2.30979">
        <ele>92.7</ele>
        <time>2023-07-12T08:20:50Z</time>
      </trkpt>
      <trkpt lat="49.77856" lon="2.30978">
        <ele>92.7</ele>
        <time>2023-07-12T08:20:52Z</time>
      </trkpt>
      <trkpt lat="49.77856" lon="2.30978">
        <ele>92.8</ele>
        <time>2023-07-12T08:20:53Z</time>
      </trkpt>
      <trkpt lat="49.77856" lon="2.30978">
        <ele>92.8</ele>
        <time>2023-07-12T08:20:55Z</time>
      </trkpt>
      <trkpt lat="49.77856" lon="2.30977">
        <ele>92.8</ele>
        <time>2023-07-12T08:20:56Z</time>
      </trkpt>
      <trkpt lat="49.77856" lon="2.30977">
        <ele>92.8</ele>
        <time>2023-07-12T08:20:58Z</time>
      </trkpt>
      <trkpt lat="49.77856" lon="2.30977">
        <ele>92.9</ele>
        <time>2023-07-12T08:20:59Z</time>
      </trkpt>
      <trkpt lat="49.77856" lon="2.30977">
        <ele>92.9</ele>
        <time>2023-07-12T08:21:00Z</time>
      </trkpt>
      <trkpt lat="49.77855" lon="2.30977">
        <ele>93</ele>
        <time>2023-07-12T08:21:01Z</time>
      </trkpt>
      <trkpt lat="49.77855" lon="2.30976">
        <ele>93</ele>
        <time>2023-07-12T08:21:02Z</time>
      </trkpt>
      <trkpt lat="49.77855" lon="2.30976">
        <ele>93</ele>
        <time>2023-07-12T08:21:03Z</time>
      </trkpt>
      <trkpt lat="49.77855" lon="2.30976">
        <ele>93</ele>
        <time>2023-07-12T08:21:04Z</time>
      </trkpt>
      <trkpt lat="49.77855" lon="2.30976">
        <ele>93</ele>
        <time>2023-07-12T08:21:05Z</time>
      </trkpt>
      <trkpt lat="49.77855" lon="2.30976">
        <ele>93</ele>
        <time>2023-07-12T08:21:06Z</time>
      </trkpt>
      <trkpt lat="49.77855" lon="2.30976">
        <ele>93</ele>
        <time>2023-07-12T08:21:07Z</time>
      </trkpt>
      <trkpt lat="49.77855" lon="2.30976">
        <ele>93</ele>
        <time>2023-07-12T08:21:08Z</time>
      </trkpt>
      <trkpt lat="49.77855" lon="2.30976">
        <ele>93</ele>
        <time>2023-07-12T08:21:09Z</time>
      </trkpt>
      <trkpt lat="49.77855" lon="2.30976">
        <ele>93</ele>
        <time>2023-07-12T08:21:10Z</time>
      </trkpt>
      <trkpt lat="49.77855" lon="2.30976">
        <ele>93</ele>
        <time>2023-07-12T08:21:11Z</time>
      </trkpt>
      <trkpt lat="49.77855" lon="2.30976">
        <ele>93</ele>
        <time>2023-07-12T08:21:12Z</time>
      </trkpt>
      <trkpt lat="49.77855" lon="2.30976">
        <ele>93</ele>
        <time>2023-07-12T08:21:13Z</time>
      </trkpt>
      <trkpt lat="49.77855" lon="2.30976">
        <ele>93</ele>
        <time>2023-07-12T08:21:14Z</time>
      </trkpt>
      <trkpt lat="49.77855" lon="2.30976">
        <ele>93</ele>
        <time>2023-07-12T08:21:15Z</time>
      </trkpt>
      <trkpt lat="49.77855" lon="2.30976">
        <ele>93</ele>
        <time>2023-07-12T08:21:16Z</time>
      </trkpt>
      <trkpt lat="49.77855" lon="2.30976">
        <ele>93</ele>
        <time>2023-07-12T08:21:17Z</time>
      </trkpt>
      <trkpt lat="49.77855" lon="2.30976">
        <ele>93</ele>
        <time>2023-07-12T08:21:18Z</time>
      </trkpt>
      <trkpt lat="49.77855" lon="2.30976">
        <ele>93</ele>
        <time>2023-07-12T08:21:19Z</time>
      </trkpt>
      <trkpt lat="49.77855" lon="2.30976">
        <ele>93</ele>
        <time>2023-07-12T08:21:20Z</time>
      </trkpt>
      <trkpt lat="49.77855" lon="2.30976">
        <ele>93</ele>
        <time>2023-07-12T08:21:21Z</time>
      </trkpt>
      <trkpt lat="49.77855" lon="2.30976">
        <ele>93</ele>
        <time>2023-07-12T08:21:22Z</time>
      </trkpt>
      <trkpt lat="49.77855" lon="2.30976">
        <ele>93</ele>
        <time>2023-07-12T08:21:23Z</time>
      </trkpt>
      <trkpt lat="49.77855" lon="2.30976">
        <ele>93</ele>
        <time>2023-07-12T08:21:24Z</time>
      </trkpt>
      <trkpt lat="49.77855" lon="2.30976">
        <ele>93</ele>
        <time>2023-07-12T08:21:25Z</time>
      </trkpt>
      <trkpt lat="49.77855" lon="2.30976">
        <ele>93</ele>
        <time>2023-07-12T08:21:26Z</time>
      </trkpt>
      <trkpt lat="49.77855" lon="2.30976">
        <ele>93</ele>
        <time>2023-07-12T08:21:27Z</time>
      </trkpt>
      <trkpt lat="49.77855" lon="2.30976">
        <ele>93</ele>
        <time>2023-07-12T08:21:28Z</time>
      </trkpt>
      <trkpt lat="49.77855" lon="2.30976">
        <ele>93</ele>
        <time>2023-07-12T08:21:29Z</time>
      </trkpt>
      <trkpt lat="49.77855" lon="2.30976">
        <ele>93</ele>
        <time>2023-07-12T08:21:30Z</time>
      </trkpt>
      <trkpt lat="49.77855" lon="2.30976">
        <ele>93</ele>
        <time>2023-07-12T08:21:31Z</time>
      </trkpt>
      <trkpt lat="49.77855" lon="2.30976">
        <ele>93</ele>
        <time>2023-07-12T08:21:32Z</time>
      </trkpt>
      <trkpt lat="49.77855" lon="2.30976">
        <ele>93</ele>
        <time>2023-07-12T08:21:33Z</time>
      </trkpt>
      <trkpt lat="49.77855" lon="2.30976">
        <ele>93</ele>
        <time>2023-07-12T08:21:34Z</time>
      </trkpt>
      <trkpt lat="49.77855" lon="2.30976">
        <ele>93</ele>
        <time>2023-07-12T08:21:35Z</time>
      </trkpt>
      <trkpt lat="49.77855" lon="2.30976">
        <ele>93</ele>
        <time>2023-07-12T08:21:36Z</time>
      </trkpt>
      <trkpt lat="49.77855" lon="2.30976">
        <ele>93</ele>
        <time>2023-07-12T08:21:37Z</time>
      </trkpt>
      <trkpt lat="49.77855" lon="2.30976">
        <ele>93</ele>
        <time>2023-07-12T08:21:38Z</time>
      </trkpt>
      <trkpt lat="49.77855" lon="2.30976">
        <ele>93</ele>
        <time>2023-07-12T08:21:39Z</time>
      </trkpt>
      <trkpt lat="49.77855" lon="2.30976">
        <ele>93</ele>
        <time>2023-07-12T08:21:40Z</time>
      </trkpt>
      <trkpt lat="49.77855" lon="2.30976">
        <ele>93</ele>
        <time>2023-07-12T08:21:41Z</time>
      </trkpt>
      <trkpt lat="49.77855" lon="2.30976">
        <ele>93</ele>
        <time>2023-07-12T08:21:42Z</time>
      </trkpt>
      <trkpt lat="49.77855" lon="2.30976">
        <ele>93</ele>
        <time>2023-07-12T08:21:43Z</time>
      </trkpt>
      <trkpt lat="49.77855" lon="2.30976">
        <ele>93</ele>
        <time>2023-07-12T08:21:44Z</time>
      </trkpt>
      <trkpt lat="49.77855" lon="2.30976">
        <ele>93</ele>
        <time>2023-07-12T08:21:45Z</time>
      </trkpt>
      <trkpt lat="49.77855" lon="2.30976">
        <ele>93</ele>
        <time>2023-07-12T08:21:46Z</time>
      </trkpt>
      <trkpt lat="49.77855" lon="2.30976">
        <ele>93</ele>
        <time>2023-07-12T08:21:47Z</time>
      </trkpt>
      <trkpt lat="49.77855" lon="2.30976">
        <ele>93</ele>
        <time>2023-07-12T08:21:48Z</time>
      </trkpt>
      <trkpt lat="49.77855" lon="2.30976">
        <ele>93</ele>
        <time>2023-07-12T08:21:49Z</time>
      </trkpt>
      <trkpt lat="49.77855" lon="2.30976">
        <ele>93</ele>
        <time>2023-07-12T08:21:50Z</time>
      </trkpt>
      <trkpt lat="49.77855" lon="2.30976">
        <ele>93</ele>
        <time>2023-07-12T08:21:51Z</time>
      </trkpt>
      <trkpt lat="49.77855" lon="2.30976">
        <ele>93</ele>
        <time>2023-07-12T08:21:52Z</time>
      </trkpt>
      <trkpt lat="49.77855" lon="2.30976">
        <ele>93</ele>
        <time>2023-07-12T08:21:53Z</time>
      </trkpt>
      <trkpt lat="49.77855" lon="2.30976">
        <ele>93</ele>
        <time>2023-07-12T08:21:54Z</time>
      </trkpt>
      <trkpt lat="49.77855" lon="2.30976">
        <ele>93</ele>
        <time>2023-07-12T08:21:55Z</time>
      </trkpt>
      <trkpt lat="49.77855" lon="2.30976">
        <ele>93</ele>
        <time>2023-07-12T08:21:56Z</time>
      </trkpt>
      <trkpt lat="49.77855" lon="2.30976">
        <ele>93</ele>
        <time>2023-07-12T08:21:57Z</time>
      </trkpt>
      <trkpt lat="49.77855" lon="2.30976">
        <ele>93</ele>
        <time>2023-07-12T08:21:58Z</time>
      </trkpt>
      <trkpt lat="49.77855" lon="2.30976">
        <ele>93</ele>
        <time>2023-07-12T08:21:59Z</time>
      </trkpt>
      <trkpt lat="49.77855" lon="2.30976">
        <ele>93</ele>
        <time>2023-07-12T08:22:00Z</time>
      </trkpt>
      <trkpt lat="49.77855" lon="2.30976">
        <ele>93</ele>
        <time>2023-07-12T08:22:01Z</time>
      </trkpt>
      <trkpt lat="49.77855" lon="2.30976">
        <ele>93</ele>
        <time>2023-07-12T08:22:02Z</time>
      </trkpt>
      <trkpt lat="49.77855" lon="2.30976">
        <ele>93</ele>
        <time>2023-07-12T08:22:03Z</time>
      </trkpt>
      <trkpt lat="49.77855" lon="2.30976">
        <ele>93</ele>
        <time>2023-07-12T08:22:04Z</time>
      </trkpt>
      <trkpt lat="49.77855" lon="2.30976">
        <ele>93</ele>
        <time>2023-07-12T08:22:05Z</time>
      </trkpt>
      <trkpt lat="49.77855" lon="2.30976">
        <ele>93</ele>
        <time>2023-07-12T08:22:06Z</time>
      </trkpt>
      <trkpt lat="49.77855" lon="2.30976">
        <ele>93</ele>
        <time>2023-07-12T08:22:07Z</time>
      </trkpt>
      <trkpt lat="49.77855" lon="2.30976">
        <ele>93</ele>
        <time>2023-07-12T08:22:08Z</time>
      </trkpt>
      <trkpt lat="49.77855" lon="2.30976">
        <ele>93</ele>
        <time>2023-07-12T08:22:09Z</time>
      </trkpt>
      <trkpt lat="49.77855" lon="2.30976">
        <ele>93</ele>
        <time>2023-07-12T08:22:10Z</time>
      </trkpt>
      <trkpt lat="49.77855" lon="2.30976">
        <ele>93.1</ele>
        <time>2023-07-12T08:22:11Z</time>
      </trkpt>
      <trkpt lat="49.77855" lon="2.30976">
        <ele>93.1</ele>
        <time>2023-07-12T08:22:12Z</time>
      </trkpt>
      <trkpt lat="49.77855" lon="2.30976">
        <ele>93.1</ele>
        <time>2023-07-12T08:22:13Z</time>
      </trkpt>
      <trkpt lat="49.77856" lon="2.30976">
        <ele>93.2</ele>
        <time>2023-07-12T08:22:15Z</time>
      </trkpt>
      <trkpt lat="49.77856" lon="2.30975">
        <ele>93.2</ele>
        <time>2023-07-12T08:22:16Z</time>
      </trkpt>
      <trkpt lat="49.77856" lon="2.30975">
        <ele>93.2</ele>
        <time>2023-07-12T08:22:17Z</time>
      </trkpt>
      <trkpt lat="49.77856" lon="2.30975">
        <ele>93.3</ele>
        <time>2023-07-12T08:22:18Z</time>
      </trkpt>
      <trkpt lat="49.77857" lon="2.30974">
        <ele>93.4</ele>
        <time>2023-07-12T08:22:20Z</time>
      </trkpt>
      <trkpt lat="49.77857" lon="2.30973">
        <ele>93.5</ele>
        <time>2023-07-12T08:22:21Z</time>
      </trkpt>
      <trkpt lat="49.77857" lon="2.30973">
        <ele>93.5</ele>
        <time>2023-07-12T08:22:22Z</time>
      </trkpt>
      <trkpt lat="49.77856" lon="2.30973">
        <ele>93.5</ele>
        <time>2023-07-12T08:22:23Z</time>
      </trkpt>
      <trkpt lat="49.77856" lon="2.30974">
        <ele>93.6</ele>
        <time>2023-07-12T08:22:25Z</time>
      </trkpt>
      <trkpt lat="49.77856" lon="2.30974">
        <ele>93.6</ele>
        <time>2023-07-12T08:22:26Z</time>
      </trkpt>
      <trkpt lat="49.77856" lon="2.30974">
        <ele>93.7</ele>
        <time>2023-07-12T08:22:28Z</time>
      </trkpt>
      <trkpt lat="49.77856" lon="2.30974">
        <ele>93.7</ele>
        <time>2023-07-12T08:22:29Z</time>
      </trkpt>
      <trkpt lat="49.77856" lon="2.30975">
        <ele>93.7</ele>
        <time>2023-07-12T08:22:31Z</time>
      </trkpt>
      <trkpt lat="49.77856" lon="2.30975">
        <ele>93.7</ele>
        <time>2023-07-12T08:22:32Z</time>
      </trkpt>
      <trkpt lat="49.77856" lon="2.30975">
        <ele>93.7</ele>
        <time>2023-07-12T08:22:34Z</time>
      </trkpt>
      <trkpt lat="49.77856" lon="2.30975">
        <ele>93.8</ele>
        <time>2023-07-12T08:22:35Z</time>
      </trkpt>
      <trkpt lat="49.77856" lon="2.30975">
        <ele>93.8</ele>
        <time>2023-07-12T08:22:36Z</time>
      </trkpt>
      <trkpt lat="49.77856" lon="2.30975">
        <ele>93.8</ele>
        <time>2023-07-12T08:22:37Z</time>
      </trkpt>
      <trkpt lat="49.77856" lon="2.30975">
        <ele>93.8</ele>
        <time>2023-07-12T08:22:38Z</time>
      </trkpt>
      <trkpt lat="49.77856" lon="2.30976">
        <ele>93.8</ele>
        <time>2023-07-12T08:22:40Z</time>
      </trkpt>
      <trkpt lat="49.77856" lon="2.30976">
        <ele>93.9</ele>
        <time>2023-07-12T08:22:42Z</time>
      </trkpt>
      <trkpt lat="49.77856" lon="2.30976">
        <ele>93.9</ele>
        <time>2023-07-12T08:22:43Z</time>
      </trkpt>
      <trkpt lat="49.77856" lon="2.30976">
        <ele>93.9</ele>
        <time>2023-07-12T08:22:44Z</time>
      </trkpt>
      <trkpt lat="49.77856" lon="2.30976">
        <ele>94</ele>
        <time>2023-07-12T08:22:46Z</time>
      </trkpt>
      <trkpt lat="49.77856" lon="2.30976">
        <ele>94</ele>
        <time>2023-07-12T08:22:47Z</time>
      </trkpt>
      <trkpt lat="49.77856" lon="2.30975">
        <ele>94.1</ele>
        <time>2023-07-12T08:22:48Z</time>
      </trkpt>
      <trkpt lat="49.77855" lon="2.30975">
        <ele>94.2</ele>
        <time>2023-07-12T08:22:49Z</time>
      </trkpt>
      <trkpt lat="49.77855" lon="2.30974">
        <ele>94.3</ele>
        <time>2023-07-12T08:22:50Z</time>
      </trkpt>
      <trkpt lat="49.77854" lon="2.30974">
        <ele>94.4</ele>
        <time>2023-07-12T08:22:51Z</time>
      </trkpt>
      <trkpt lat="49.77853" lon="2.30974">
        <ele>94.5</ele>
        <time>2023-07-12T08:22:53Z</time>
      </trkpt>
      <trkpt lat="49.77853" lon="2.30974">
        <ele>94.6</ele>
        <time>2023-07-12T08:22:54Z</time>
      </trkpt>
      <trkpt lat="49.77852" lon="2.30974">
        <ele>94.8</ele>
        <time>2023-07-12T08:22:55Z</time>
      </trkpt>
      <trkpt lat="49.7785" lon="2.30974">
        <ele>95</ele>
        <time>2023-07-12T08:22:56Z</time>
      </trkpt>
      <trkpt lat="49.77849" lon="2.30974">
        <ele>95.3</ele>
        <time>2023-07-12T08:22:58Z</time>
      </trkpt>
      <trkpt lat="49.77847" lon="2.30974">
        <ele>95.5</ele>
        <time>2023-07-12T08:22:59Z</time>
      </trkpt>
      <trkpt lat="49.77846" lon="2.30975">
        <ele>95.7</ele>
        <time>2023-07-12T08:23:01Z</time>
      </trkpt>
      <trkpt lat="49.77845" lon="2.30976">
        <ele>95.8</ele>
        <time>2023-07-12T08:23:02Z</time>
      </trkpt>
      <trkpt lat="49.77844" lon="2.30977">
        <ele>96</ele>
        <time>2023-07-12T08:23:03Z</time>
      </trkpt>
      <trkpt lat="49.77844" lon="2.30977">
        <ele>96.1</ele>
        <time>2023-07-12T08:23:04Z</time>
      </trkpt>
      <trkpt lat="49.77843" lon="2.30978">
        <ele>96.2</ele>
        <time>2023-07-12T08:23:06Z</time>
      </trkpt>
      <trkpt lat="49.77843" lon="2.30978">
        <ele>96.3</ele>
        <time>2023-07-12T08:23:07Z</time>
      </trkpt>
      <trkpt lat="49.77842" lon="2.30979">
        <ele>96.4</ele>
        <time>2023-07-12T08:23:08Z</time>
      </trkpt>
      <trkpt lat="49.77842" lon="2.30981">
        <ele>96.6</ele>
        <time>2023-07-12T08:23:09Z</time>
      </trkpt>
      <trkpt lat="49.77842" lon="2.30983">
        <ele>96.8</ele>
        <time>2023-07-12T08:23:10Z</time>
      </trkpt>
      <trkpt lat="49.77841" lon="2.30985">
        <ele>97</ele>
        <time>2023-07-12T08:23:11Z</time>
      </trkpt>
      <trkpt lat="49.77841" lon="2.30986">
        <ele>97.2</ele>
        <time>2023-07-12T08:23:13Z</time>
      </trkpt>
      <trkpt lat="49.77841" lon="2.30987">
        <ele>97.3</ele>
        <time>2023-07-12T08:23:14Z</time>
      </trkpt>
      <trkpt lat="49.77841" lon="2.30989">
        <ele>97.5</ele>
        <time>2023-07-12T08:23:15Z</time>
      </trkpt>
      <trkpt lat="49.7784" lon="2.3099">
        <ele>97.6</ele>
        <time>2023-07-12T08:23:17Z</time>
      </trkpt>
      <trkpt lat="49.77841" lon="2.30991">
        <ele>97.7</ele>
        <time>2023-07-12T08:23:18Z</time>
      </trkpt>
      <trkpt lat="49.77841" lon="2.30993">
        <ele>97.9</ele>
        <time>2023-07-12T08:23:19Z</time>
      </trkpt>
      <trkpt lat="49.77841" lon="2.30994">
        <ele>98.1</ele>
        <time>2023-07-12T08:23:20Z</time>
      </trkpt>
      <trkpt lat="49.77841" lon="2.30995">
        <ele>98.1</ele>
        <time>2023-07-12T08:23:22Z</time>
      </trkpt>
      <trkpt lat="49.77841" lon="2.30996">
        <ele>98.2</ele>
        <time>2023-07-12T08:23:23Z</time>
      </trkpt>
      <trkpt lat="49.7784" lon="2.30997">
        <ele>98.4</ele>
        <time>2023-07-12T08:23:24Z</time>
      </trkpt>
      <trkpt lat="49.7784" lon="2.30998">
        <ele>98.5</ele>
        <time>2023-07-12T08:23:26Z</time>
      </trkpt>
      <trkpt lat="49.77839" lon="2.30998">
        <ele>98.6</ele>
        <time>2023-07-12T08:23:27Z</time>
      </trkpt>
      <trkpt lat="49.77838" lon="2.30999">
        <ele>98.8</ele>
        <time>2023-07-12T08:23:29Z</time>
      </trkpt>
      <trkpt lat="49.77838" lon="2.31">
        <ele>98.8</ele>
        <time>2023-07-12T08:23:30Z</time>
      </trkpt>
      <trkpt lat="49.77837" lon="2.31">
        <ele>99</ele>
        <time>2023-07-12T08:23:31Z</time>
      </trkpt>
      <trkpt lat="49.77837" lon="2.31001">
        <ele>99.1</ele>
        <time>2023-07-12T08:23:33Z</time>
      </trkpt>
      <trkpt lat="49.77836" lon="2.31002">
        <ele>99.2</ele>
        <time>2023-07-12T08:23:35Z</time>
      </trkpt>
      <trkpt lat="49.77836" lon="2.31003">
        <ele>99.3</ele>
        <time>2023-07-12T08:23:36Z</time>
      </trkpt>
      <trkpt lat="49.77836" lon="2.31004">
        <ele>99.4</ele>
        <time>2023-07-12T08:23:38Z</time>
      </trkpt>
      <trkpt lat="49.77836" lon="2.31004">
        <ele>99.5</ele>
        <time>2023-07-12T08:23:39Z</time>
      </trkpt>
      <trkpt lat="49.77835" lon="2.31005">
        <ele>99.6</ele>
        <time>2023-07-12T08:23:40Z</time>
      </trkpt>
      <trkpt lat="49.77835" lon="2.31006">
        <ele>99.7</ele>
        <time>2023-07-12T08:23:41Z</time>
      </trkpt>
      <trkpt lat="49.77833" lon="2.31007">
        <ele>100</ele>
        <time>2023-07-12T08:23:43Z</time>
      </trkpt>
      <trkpt lat="49.77833" lon="2.31007">
        <ele>100</ele>
        <time>2023-07-12T08:23:45Z</time>
      </trkpt>
      <trkpt lat="49.77832" lon="2.31008">
        <ele>100.1</ele>
        <time>2023-07-12T08:23:46Z</time>
      </trkpt>
      <trkpt lat="49.77832" lon="2.31008">
        <ele>100.2</ele>
        <time>2023-07-12T08:23:47Z</time>
      </trkpt>
      <trkpt lat="49.77832" lon="2.31009">
        <ele>100.3</ele>
        <time>2023-07-12T08:23:48Z</time>
      </trkpt>
      <trkpt lat="49.77831" lon="2.31009">
        <ele>100.5</ele>
        <time>2023-07-12T08:23:50Z</time>
      </trkpt>
      <trkpt lat="49.7783" lon="2.31011">
        <ele>100.6</ele>
        <time>2023-07-12T08:23:51Z</time>
      </trkpt>
      <trkpt lat="49.77829" lon="2.31012">
        <ele>100.8</ele>
        <time>2023-07-12T08:23:53Z</time>
      </trkpt>
      <trkpt lat="49.77828" lon="2.31013">
        <ele>101</ele>
        <time>2023-07-12T08:23:54Z</time>
      </trkpt>
      <trkpt lat="49.77827" lon="2.31013">
        <ele>101.2</ele>
        <time>2023-07-12T08:23:56Z</time>
      </trkpt>
      <trkpt lat="49.77827" lon="2.31014">
        <ele>101.3</ele>
        <time>2023-07-12T08:23:57Z</time>
      </trkpt>
      <trkpt lat="49.77827" lon="2.31016">
        <ele>101.4</ele>
        <time>2023-07-12T08:23:58Z</time>
      </trkpt>
      <trkpt lat="49.77826" lon="2.31017">
        <ele>101.6</ele>
        <time>2023-07-12T08:23:59Z</time>
      </trkpt>
      <trkpt lat="49.77826" lon="2.31018">
        <ele>101.7</ele>
        <time>2023-07-12T08:24:01Z</time>
      </trkpt>
      <trkpt lat="49.77825" lon="2.31019">
        <ele>101.9</ele>
        <time>2023-07-12T08:24:02Z</time>
      </trkpt>
      <trkpt lat="49.77825" lon="2.3102">
        <ele>102</ele>
        <time>2023-07-12T08:24:03Z</time>
      </trkpt>
      <trkpt lat="49.77824" lon="2.31021">
        <ele>102.2</ele>
        <time>2023-07-12T08:24:04Z</time>
      </trkpt>
      <trkpt lat="49.77822" lon="2.31022">
        <ele>102.5</ele>
        <time>2023-07-12T08:24:06Z</time>
      </trkpt>
      <trkpt lat="49.77821" lon="2.31024">
        <ele>102.7</ele>
        <time>2023-07-12T08:24:08Z</time>
      </trkpt>
      <trkpt lat="49.7782" lon="2.31025">
        <ele>102.9</ele>
        <time>2023-07-12T08:24:10Z</time>
      </trkpt>
      <trkpt lat="49.77819" lon="2.31026">
        <ele>103.1</ele>
        <time>2023-07-12T08:24:11Z</time>
      </trkpt>
      <trkpt lat="49.77819" lon="2.31027">
        <ele>103.2</ele>
        <time>2023-07-12T08:24:13Z</time>
      </trkpt>
      <trkpt lat="49.77818" lon="2.31027">
        <ele>103.3</ele>
        <time>2023-07-12T08:24:14Z</time>
      </trkpt>
      <trkpt lat="49.77817" lon="2.31028">
        <ele>103.4</ele>
        <time>2023-07-12T08:24:15Z</time>
      </trkpt>
      <trkpt lat="49.77817" lon="2.31029">
        <ele>103.6</ele>
        <time>2023-07-12T08:24:16Z</time>
      </trkpt>
      <trkpt lat="49.77816" lon="2.3103">
        <ele>103.7</ele>
        <time>2023-07-12T08:24:18Z</time>
      </trkpt>
      <trkpt lat="49.77815" lon="2.3103">
        <ele>103.9</ele>
        <time>2023-07-12T08:24:19Z</time>
      </trkpt>
      <trkpt lat="49.77814" lon="2.31031">
        <ele>104</ele>
        <time>2023-07-12T08:24:20Z</time>
      </trkpt>
      <trkpt lat="49.77813" lon="2.31032">
        <ele>104.2</ele>
        <time>2023-07-12T08:24:22Z</time>
      </trkpt>
      <trkpt lat="49.77812" lon="2.31033">
        <ele>104.4</ele>
        <time>2023-07-12T08:24:23Z</time>
      </trkpt>
      <trkpt lat="49.77811" lon="2.31034">
        <ele>104.6</ele>
        <time>2023-07-12T08:24:25Z</time>
      </trkpt>
      <trkpt lat="49.77809" lon="2.31035">
        <ele>104.9</ele>
        <time>2023-07-12T08:24:26Z</time>
      </trkpt>
      <trkpt lat="49.77808" lon="2.31036">
        <ele>105.1</ele>
        <time>2023-07-12T08:24:28Z</time>
      </trkpt>
      <trkpt lat="49.77807" lon="2.31037">
        <ele>105.2</ele>
        <time>2023-07-12T08:24:29Z</time>
      </trkpt>
      <trkpt lat="49.77806" lon="2.31038">
        <ele>105.4</ele>
        <time>2023-07-12T08:24:30Z</time>
      </trkpt>
      <trkpt lat="49.77805" lon="2.31038">
        <ele>105.5</ele>
        <time>2023-07-12T08:24:32Z</time>
      </trkpt>
      <trkpt lat="49.77804" lon="2.31039">
        <ele>105.7</ele>
        <time>2023-07-12T08:24:33Z</time>
      </trkpt>
      <trkpt lat="49.77803" lon="2.3104">
        <ele>105.8</ele>
        <time>2023-07-12T08:24:35Z</time>
      </trkpt>
      <trkpt lat="49.77802" lon="2.31041">
        <ele>106</ele>
        <time>2023-07-12T08:24:36Z</time>
      </trkpt>
      <trkpt lat="49.77801" lon="2.31042">
        <ele>106.1</ele>
        <time>2023-07-12T08:24:38Z</time>
      </trkpt>
      <trkpt lat="49.77801" lon="2.31043">
        <ele>106.3</ele>
        <time>2023-07-12T08:24:39Z</time>
      </trkpt>
      <trkpt lat="49.778" lon="2.31044">
        <ele>106.4</ele>
        <time>2023-07-12T08:24:41Z</time>
      </trkpt>
      <trkpt lat="49.77799" lon="2.31045">
        <ele>106.5</ele>
        <time>2023-07-12T08:24:42Z</time>
      </trkpt>
      <trkpt lat="49.77799" lon="2.31046">
        <ele>106.6</ele>
        <time>2023-07-12T08:24:43Z</time>
      </trkpt>
      <trkpt lat="49.77798" lon="2.31048">
        <ele>106.8</ele>
        <time>2023-07-12T08:24:44Z</time>
      </trkpt>
      <trkpt lat="49.77797" lon="2.31049">
        <ele>106.9</ele>
        <time>2023-07-12T08:24:46Z</time>
      </trkpt>
      <trkpt lat="49.77797" lon="2.3105">
        <ele>107</ele>
        <time>2023-07-12T08:24:47Z</time>
      </trkpt>
      <trkpt lat="49.77796" lon="2.31051">
        <ele>107.1</ele>
        <time>2023-07-12T08:24:48Z</time>
      </trkpt>
      <trkpt lat="49.77796" lon="2.31051">
        <ele>107.2</ele>
        <time>2023-07-12T08:24:49Z</time>
      </trkpt>
      <trkpt lat="49.77795" lon="2.31052">
        <ele>107.2</ele>
        <time>2023-07-12T08:24:50Z</time>
      </trkpt>
      <trkpt lat="49.77795" lon="2.31053">
        <ele>107.3</ele>
        <time>2023-07-12T08:24:51Z</time>
      </trkpt>
      <trkpt lat="49.77794" lon="2.31053">
        <ele>107.4</ele>
        <time>2023-07-12T08:24:53Z</time>
      </trkpt>
      <trkpt lat="49.77794" lon="2.31054">
        <ele>107.5</ele>
        <time>2023-07-12T08:24:55Z</time>
      </trkpt>
      <trkpt lat="49.77793" lon="2.31054">
        <ele>107.5</ele>
        <time>2023-07-12T08:24:56Z</time>
      </trkpt>
      <trkpt lat="49.77793" lon="2.31055">
        <ele>107.6</ele>
        <time>2023-07-12T08:24:57Z</time>
      </trkpt>
      <trkpt lat="49.77793" lon="2.31055">
        <ele>107.6</ele>
        <time>2023-07-12T08:24:58Z</time>
      </trkpt>
      <trkpt lat="49.77792" lon="2.31055">
        <ele>107.7</ele>
        <time>2023-07-12T08:24:59Z</time>
      </trkpt>
      <trkpt lat="49.77791" lon="2.31056">
        <ele>107.7</ele>
        <time>2023-07-12T08:25:00Z</time>
      </trkpt>
      <trkpt lat="49.7779" lon="2.31057">
        <ele>107.9</ele>
        <time>2023-07-12T08:25:02Z</time>
      </trkpt>
      <trkpt lat="49.77789" lon="2.31058">
        <ele>108</ele>
        <time>2023-07-12T08:25:04Z</time>
      </trkpt>
      <trkpt lat="49.77789" lon="2.31058">
        <ele>108.1</ele>
        <time>2023-07-12T08:25:05Z</time>
      </trkpt>
      <trkpt lat="49.77788" lon="2.31059">
        <ele>108.2</ele>
        <time>2023-07-12T08:25:06Z</time>
      </trkpt>
      <trkpt lat="49.77787" lon="2.3106">
        <ele>108.3</ele>
        <time>2023-07-12T08:25:08Z</time>
      </trkpt>
      <trkpt lat="49.77787" lon="2.31061">
        <ele>108.3</ele>
        <time>2023-07-12T08:25:09Z</time>
      </trkpt>
      <trkpt lat="49.77787" lon="2.31061">
        <ele>108.4</ele>
        <time>2023-07-12T08:25:10Z</time>
      </trkpt>
      <trkpt lat="49.77786" lon="2.31063">
        <ele>108.5</ele>
        <time>2023-07-12T08:25:11Z</time>
      </trkpt>
      <trkpt lat="49.77786" lon="2.31063">
        <ele>108.5</ele>
        <time>2023-07-12T08:25:13Z</time>
      </trkpt>
      <trkpt lat="49.77785" lon="2.31064">
        <ele>108.6</ele>
        <time>2023-07-12T08:25:14Z</time>
      </trkpt>
      <trkpt lat="49.77785" lon="2.31065">
        <ele>108.6</ele>
        <time>2023-07-12T08:25:15Z</time>
      </trkpt>
      <trkpt lat="49.77785" lon="2.31065">
        <ele>108.7</ele>
        <time>2023-07-12T08:25:16Z</time>
      </trkpt>
      <trkpt lat="49.77785" lon="2.31067">
        <ele>108.8</ele>
        <time>2023-07-12T08:25:18Z</time>
      </trkpt>
      <trkpt lat="49.77785" lon="2.31068">
        <ele>108.8</ele>
        <time>2023-07-12T08:25:19Z</time>
      </trkpt>
      <trkpt lat="49.77784" lon="2.31068">
        <ele>108.9</ele>
        <time>2023-07-12T08:25:20Z</time>
      </trkpt>
      <trkpt lat="49.77784" lon="2.31069">
        <ele>109</ele>
        <time>2023-07-12T08:25:21Z</time>
      </trkpt>
      <trkpt lat="49.77784" lon="2.3107">
        <ele>109</ele>
        <time>2023-07-12T08:25:22Z</time>
      </trkpt>
      <trkpt lat="49.77783" lon="2.3107">
        <ele>109.1</ele>
        <time>2023-07-12T08:25:24Z</time>
      </trkpt>
      <trkpt lat="49.77783" lon="2.31071">
        <ele>109.1</ele>
        <time>2023-07-12T08:25:25Z</time>
      </trkpt>
      <trkpt lat="49.77783" lon="2.31072">
        <ele>109.2</ele>
        <time>2023-07-12T08:25:26Z</time>
      </trkpt>
      <trkpt lat="49.77782" lon="2.31072">
        <ele>109.2</ele>
        <time>2023-07-12T08:25:27Z</time>
      </trkpt>
      <trkpt lat="49.77781" lon="2.31073">
        <ele>109.3</ele>
        <time>2023-07-12T08:25:28Z</time>
      </trkpt>
      <trkpt lat="49.7778" lon="2.31074">
        <ele>109.4</ele>
        <time>2023-07-12T08:25:30Z</time>
      </trkpt>
      <trkpt lat="49.7778" lon="2.31074">
        <ele>109.5</ele>
        <time>2023-07-12T08:25:31Z</time>
      </trkpt>
      <trkpt lat="49.77779" lon="2.31075">
        <ele>109.5</ele>
        <time>2023-07-12T08:25:32Z</time>
      </trkpt>
      <trkpt lat="49.77778" lon="2.31075">
        <ele>109.6</ele>
        <time>2023-07-12T08:25:33Z</time>
      </trkpt>
      <trkpt lat="49.77777" lon="2.31077">
        <ele>109.7</ele>
        <time>2023-07-12T08:25:35Z</time>
      </trkpt>
      <trkpt lat="49.77776" lon="2.31078">
        <ele>109.8</ele>
        <time>2023-07-12T08:25:37Z</time>
      </trkpt>
      <trkpt lat="49.77776" lon="2.31079">
        <ele>109.9</ele>
        <time>2023-07-12T08:25:38Z</time>
      </trkpt>
      <trkpt lat="49.77776" lon="2.3108">
        <ele>109.9</ele>
        <time>2023-07-12T08:25:39Z</time>
      </trkpt>
      <trkpt lat="49.77776" lon="2.31081">
        <ele>110</ele>
        <time>2023-07-12T08:25:40Z</time>
      </trkpt>
      <trkpt lat="49.77775" lon="2.31082">
        <ele>110.1</ele>
        <time>2023-07-12T08:25:42Z</time>
      </trkpt>
      <trkpt lat="49.77775" lon="2.31083">
        <ele>110.1</ele>
        <time>2023-07-12T08:25:44Z</time>
      </trkpt>
      <trkpt lat="49.77774" lon="2.31083">
        <ele>110.2</ele>
        <time>2023-07-12T08:25:45Z</time>
      </trkpt>
      <trkpt lat="49.77774" lon="2.31084">
        <ele>110.2</ele>
        <time>2023-07-12T08:25:46Z</time>
      </trkpt>
      <trkpt lat="49.77773" lon="2.31086">
        <ele>110.3</ele>
        <time>2023-07-12T08:25:47Z</time>
      </trkpt>
      <trkpt lat="49.77773" lon="2.31087">
        <ele>110.4</ele>
        <time>2023-07-12T08:25:48Z</time>
      </trkpt>
      <trkpt lat="49.77772" lon="2.31089">
        <ele>110.5</ele>
        <time>2023-07-12T08:25:50Z</time>
      </trkpt>
      <trkpt lat="49.77772" lon="2.31091">
        <ele>110.6</ele>
        <time>2023-07-12T08:25:52Z</time>
      </trkpt>
      <trkpt lat="49.77772" lon="2.31092">
        <ele>110.7</ele>
        <time>2023-07-12T08:25:53Z</time>
      </trkpt>
      <trkpt lat="49.77772" lon="2.31093">
        <ele>110.8</ele>
        <time>2023-07-12T08:25:54Z</time>
      </trkpt>
      <trkpt lat="49.77771" lon="2.31096">
        <ele>110.9</ele>
        <time>2023-07-12T08:25:55Z</time>
      </trkpt>
      <trkpt lat="49.77771" lon="2.31097">
        <ele>111</ele>
        <time>2023-07-12T08:25:56Z</time>
      </trkpt>
      <trkpt lat="49.7777" lon="2.31099">
        <ele>111.1</ele>
        <time>2023-07-12T08:25:58Z</time>
      </trkpt>
      <trkpt lat="49.7777" lon="2.311">
        <ele>111.2</ele>
        <time>2023-07-12T08:25:59Z</time>
      </trkpt>
      <trkpt lat="49.77769" lon="2.31102">
        <ele>111.2</ele>
        <time>2023-07-12T08:26:00Z</time>
      </trkpt>
      <trkpt lat="49.77769" lon="2.31103">
        <ele>111.3</ele>
        <time>2023-07-12T08:26:01Z</time>
      </trkpt>
      <trkpt lat="49.77768" lon="2.31106">
        <ele>111.5</ele>
        <time>2023-07-12T08:26:02Z</time>
      </trkpt>
      <trkpt lat="49.77768" lon="2.31108">
        <ele>111.5</ele>
        <time>2023-07-12T08:26:04Z</time>
      </trkpt>
      <trkpt lat="49.77768" lon="2.3111">
        <ele>111.6</ele>
        <time>2023-07-12T08:26:06Z</time>
      </trkpt>
      <trkpt lat="49.77767" lon="2.31111">
        <ele>111.7</ele>
        <time>2023-07-12T08:26:07Z</time>
      </trkpt>
      <trkpt lat="49.77767" lon="2.31113">
        <ele>111.8</ele>
        <time>2023-07-12T08:26:08Z</time>
      </trkpt>
      <trkpt lat="49.77767" lon="2.31115">
        <ele>111.8</ele>
        <time>2023-07-12T08:26:10Z</time>
      </trkpt>
      <trkpt lat="49.77766" lon="2.31116">
        <ele>111.9</ele>
        <time>2023-07-12T08:26:11Z</time>
      </trkpt>
      <trkpt lat="49.77766" lon="2.31117">
        <ele>112</ele>
        <time>2023-07-12T08:26:12Z</time>
      </trkpt>
      <trkpt lat="49.77765" lon="2.3112">
        <ele>112.1</ele>
        <time>2023-07-12T08:26:13Z</time>
      </trkpt>
      <trkpt lat="49.77765" lon="2.31121">
        <ele>112.1</ele>
        <time>2023-07-12T08:26:14Z</time>
      </trkpt>
      <trkpt lat="49.77765" lon="2.31122">
        <ele>112.2</ele>
        <time>2023-07-12T08:26:15Z</time>
      </trkpt>
      <trkpt lat="49.77765" lon="2.31123">
        <ele>112.2</ele>
        <time>2023-07-12T08:26:16Z</time>
      </trkpt>
      <trkpt lat="49.77764" lon="2.31125">
        <ele>112.3</ele>
        <time>2023-07-12T08:26:18Z</time>
      </trkpt>
      <trkpt lat="49.77764" lon="2.31126">
        <ele>112.3</ele>
        <time>2023-07-12T08:26:19Z</time>
      </trkpt>
      <trkpt lat="49.77763" lon="2.31128">
        <ele>112.4</ele>
        <time>2023-07-12T08:26:20Z</time>
      </trkpt>
      <trkpt lat="49.77763" lon="2.31132">
        <ele>112.5</ele>
        <time>2023-07-12T08:26:21Z</time>
      </trkpt>
      <trkpt lat="49.77763" lon="2.31133">
        <ele>112.6</ele>
        <time>2023-07-12T08:26:23Z</time>
      </trkpt>
      <trkpt lat="49.77762" lon="2.31135">
        <ele>112.6</ele>
        <time>2023-07-12T08:26:24Z</time>
      </trkpt>
      <trkpt lat="49.77762" lon="2.31137">
        <ele>112.7</ele>
        <time>2023-07-12T08:26:26Z</time>
      </trkpt>
      <trkpt lat="49.77762" lon="2.31139">
        <ele>112.7</ele>
        <time>2023-07-12T08:26:27Z</time>
      </trkpt>
      <trkpt lat="49.77762" lon="2.31142">
        <ele>112.8</ele>
        <time>2023-07-12T08:26:28Z</time>
      </trkpt>
      <trkpt lat="49.77761" lon="2.31144">
        <ele>112.9</ele>
        <time>2023-07-12T08:26:29Z</time>
      </trkpt>
      <trkpt lat="49.77761" lon="2.31145">
        <ele>112.9</ele>
        <time>2023-07-12T08:26:31Z</time>
      </trkpt>
      <trkpt lat="49.77761" lon="2.31147">
        <ele>113</ele>
        <time>2023-07-12T08:26:32Z</time>
      </trkpt>
      <trkpt lat="49.77761" lon="2.31148">
        <ele>113</ele>
        <time>2023-07-12T08:26:33Z</time>
      </trkpt>
      <trkpt lat="49.7776" lon="2.3115">
        <ele>113</ele>
        <time>2023-07-12T08:26:34Z</time>
      </trkpt>
      <trkpt lat="49.7776" lon="2.31152">
        <ele>113.1</ele>
        <time>2023-07-12T08:26:36Z</time>
      </trkpt>
      <trkpt lat="49.7776" lon="2.31153">
        <ele>113.1</ele>
        <time>2023-07-12T08:26:37Z</time>
      </trkpt>
      <trkpt lat="49.77759" lon="2.31155">
        <ele>113.2</ele>
        <time>2023-07-12T08:26:38Z</time>
      </trkpt>
      <trkpt lat="49.77759" lon="2.31157">
        <ele>113.2</ele>
        <time>2023-07-12T08:26:40Z</time>
      </trkpt>
      <trkpt lat="49.77758" lon="2.31159">
        <ele>113.3</ele>
        <time>2023-07-12T08:26:42Z</time>
      </trkpt>
      <trkpt lat="49.77758" lon="2.31161">
        <ele>113.3</ele>
        <time>2023-07-12T08:26:43Z</time>
      </trkpt>
      <trkpt lat="49.77758" lon="2.31163">
        <ele>113.4</ele>
        <time>2023-07-12T08:26:44Z</time>
      </trkpt>
      <trkpt lat="49.77757" lon="2.31164">
        <ele>113.4</ele>
        <time>2023-07-12T08:26:45Z</time>
      </trkpt>
      <trkpt lat="49.77757" lon="2.31166">
        <ele>113.4</ele>
        <time>2023-07-12T08:26:46Z</time>
      </trkpt>
      <trkpt lat="49.77757" lon="2.31167">
        <ele>113.5</ele>
        <time>2023-07-12T08:26:47Z</time>
      </trkpt>
      <trkpt lat="49.77757" lon="2.31169">
        <ele>113.5</ele>
        <time>2023-07-12T08:26:49Z</time>
      </trkpt>
      <trkpt lat="49.77756" lon="2.3117">
        <ele>113.5</ele>
        <time>2023-07-12T08:26:50Z</time>
      </trkpt>
      <trkpt lat="49.77756" lon="2.31172">
        <ele>113.6</ele>
        <time>2023-07-12T08:26:51Z</time>
      </trkpt>
      <trkpt lat="49.77755" lon="2.31174">
        <ele>113.6</ele>
        <time>2023-07-12T08:26:53Z</time>
      </trkpt>
      <trkpt lat="49.77755" lon="2.31175">
        <ele>113.6</ele>
        <time>2023-07-12T08:26:54Z</time>
      </trkpt>
      <trkpt lat="49.77754" lon="2.31177">
        <ele>113.7</ele>
        <time>2023-07-12T08:26:55Z</time>
      </trkpt>
      <trkpt lat="49.77753" lon="2.31178">
        <ele>113.7</ele>
        <time>2023-07-12T08:26:57Z</time>
      </trkpt>
      <trkpt lat="49.77753" lon="2.31179">
        <ele>113.8</ele>
        <time>2023-07-12T08:26:58Z</time>
      </trkpt>
      <trkpt lat="49.77752" lon="2.3118">
        <ele>113.8</ele>
        <time>2023-07-12T08:26:59Z</time>
      </trkpt>
      <trkpt lat="49.77751" lon="2.31182">
        <ele>113.8</ele>
        <time>2023-07-12T08:27:00Z</time>
      </trkpt>
      <trkpt lat="49.77751" lon="2.31184">
        <ele>113.9</ele>
        <time>2023-07-12T08:27:01Z</time>
      </trkpt>
      <trkpt lat="49.77751" lon="2.31185">
        <ele>113.9</ele>
        <time>2023-07-12T08:27:03Z</time>
      </trkpt>
      <trkpt lat="49.7775" lon="2.31187">
        <ele>113.9</ele>
        <time>2023-07-12T08:27:04Z</time>
      </trkpt>
      <trkpt lat="49.7775" lon="2.31188">
        <ele>114</ele>
        <time>2023-07-12T08:27:05Z</time>
      </trkpt>
      <trkpt lat="49.77749" lon="2.3119">
        <ele>114</ele>
        <time>2023-07-12T08:27:06Z</time>
      </trkpt>
      <trkpt lat="49.77749" lon="2.31192">
        <ele>114</ele>
        <time>2023-07-12T08:27:07Z</time>
      </trkpt>
      <trkpt lat="49.77748" lon="2.31193">
        <ele>114.1</ele>
        <time>2023-07-12T08:27:09Z</time>
      </trkpt>
      <trkpt lat="49.77748" lon="2.31195">
        <ele>114.1</ele>
        <time>2023-07-12T08:27:10Z</time>
      </trkpt>
      <trkpt lat="49.77748" lon="2.31196">
        <ele>114.1</ele>
        <time>2023-07-12T08:27:11Z</time>
      </trkpt>
      <trkpt lat="49.77747" lon="2.31198">
        <ele>114.1</ele>
        <time>2023-07-12T08:27:12Z</time>
      </trkpt>
      <trkpt lat="49.77746" lon="2.312">
        <ele>114.2</ele>
        <time>2023-07-12T08:27:13Z</time>
      </trkpt>
      <trkpt lat="49.77746" lon="2.31201">
        <ele>114.2</ele>
        <time>2023-07-12T08:27:15Z</time>
      </trkpt>
      <trkpt lat="49.77746" lon="2.31203">
        <ele>114.2</ele>
        <time>2023-07-12T08:27:16Z</time>
      </trkpt>
      <trkpt lat="49.77745" lon="2.31204">
        <ele>114.2</ele>
        <time>2023-07-12T08:27:17Z</time>
      </trkpt>
      <trkpt lat="49.77745" lon="2.31206">
        <ele>114.3</ele>
        <time>2023-07-12T08:27:18Z</time>
      </trkpt>
      <trkpt lat="49.77745" lon="2.31208">
        <ele>114.3</ele>
        <time>2023-07-12T08:27:19Z</time>
      </trkpt>
      <trkpt lat="49.77744" lon="2.31209">
        <ele>114.3</ele>
        <time>2023-07-12T08:27:20Z</time>
      </trkpt>
      <trkpt lat="49.77744" lon="2.31211">
        <ele>114.4</ele>
        <time>2023-07-12T08:27:21Z</time>
      </trkpt>
      <trkpt lat="49.77743" lon="2.31212">
        <ele>114.4</ele>
        <time>2023-07-12T08:27:23Z</time>
      </trkpt>
      <trkpt lat="49.77743" lon="2.31213">
        <ele>114.4</ele>
        <time>2023-07-12T08:27:24Z</time>
      </trkpt>
      <trkpt lat="49.77743" lon="2.31215">
        <ele>114.4</ele>
        <time>2023-07-12T08:27:25Z</time>
      </trkpt>
      <trkpt lat="49.77742" lon="2.31217">
        <ele>114.4</ele>
        <time>2023-07-12T08:27:26Z</time>
      </trkpt>
      <trkpt lat="49.77742" lon="2.31218">
        <ele>114.5</ele>
        <time>2023-07-12T08:27:27Z</time>
      </trkpt>
      <trkpt lat="49.77742" lon="2.3122">
        <ele>114.5</ele>
        <time>2023-07-12T08:27:28Z</time>
      </trkpt>
      <trkpt lat="49.77741" lon="2.31223">
        <ele>114.5</ele>
        <time>2023-07-12T08:27:30Z</time>
      </trkpt>
      <trkpt lat="49.7774" lon="2.31224">
        <ele>114.5</ele>
        <time>2023-07-12T08:27:31Z</time>
      </trkpt>
      <trkpt lat="49.7774" lon="2.31225">
        <ele>114.5</ele>
        <time>2023-07-12T08:27:33Z</time>
      </trkpt>
      <trkpt lat="49.77739" lon="2.31227">
        <ele>114.5</ele>
        <time>2023-07-12T08:27:34Z</time>
      </trkpt>
      <trkpt lat="49.77739" lon="2.31229">
        <ele>114.6</ele>
        <time>2023-07-12T08:27:35Z</time>
      </trkpt>
      <trkpt lat="49.77739" lon="2.3123">
        <ele>114.6</ele>
        <time>2023-07-12T08:27:37Z</time>
      </trkpt>
      <trkpt lat="49.77738" lon="2.31231">
        <ele>114.6</ele>
        <time>2023-07-12T08:27:38Z</time>
      </trkpt>
      <trkpt lat="49.77738" lon="2.31233">
        <ele>114.6</ele>
        <time>2023-07-12T08:27:39Z</time>
      </trkpt>
      <trkpt lat="49.77737" lon="2.31234">
        <ele>114.6</ele>
        <time>2023-07-12T08:27:41Z</time>
      </trkpt>
      <trkpt lat="49.77737" lon="2.31234">
        <ele>114.6</ele>
        <time>2023-07-12T08:27:42Z</time>
      </trkpt>
      <trkpt lat="49.77737" lon="2.31234">
        <ele>114.6</ele>
        <time>2023-07-12T08:27:44Z</time>
      </trkpt>
      <trkpt lat="49.77737" lon="2.31234">
        <ele>114.6</ele>
        <time>2023-07-12T08:27:45Z</time>
      </trkpt>
      <trkpt lat="49.77737" lon="2.31234">
        <ele>114.6</ele>
        <time>2023-07-12T08:27:47Z</time>
      </trkpt>
      <trkpt lat="49.77737" lon="2.31234">
        <ele>114.6</ele>
        <time>2023-07-12T08:27:48Z</time>
      </trkpt>
      <trkpt lat="49.77737" lon="2.31234">
        <ele>114.6</ele>
        <time>2023-07-12T08:27:50Z</time>
      </trkpt>
      <trkpt lat="49.77737" lon="2.31234">
        <ele>114.6</ele>
        <time>2023-07-12T08:27:51Z</time>
      </trkpt>
      <trkpt lat="49.77737" lon="2.31234">
        <ele>114.6</ele>
        <time>2023-07-12T08:27:53Z</time>
      </trkpt>
      <trkpt lat="49.77737" lon="2.31234">
        <ele>114.6</ele>
        <time>2023-07-12T08:27:54Z</time>
      </trkpt>
      <trkpt lat="49.77737" lon="2.31234">
        <ele>114.6</ele>
        <time>2023-07-12T08:27:55Z</time>
      </trkpt>
      <trkpt lat="49.77737" lon="2.31234">
        <ele>114.6</ele>
        <time>2023-07-12T08:27:57Z</time>
      </trkpt>
      <trkpt lat="49.77737" lon="2.31234">
        <ele>114.6</ele>
        <time>2023-07-12T08:27:58Z</time>
      </trkpt>
      <trkpt lat="49.77737" lon="2.31234">
        <ele>114.6</ele>
        <time>2023-07-12T08:28:00Z</time>
      </trkpt>
      <trkpt lat="49.77737" lon="2.31234">
        <ele>114.6</ele>
        <time>2023-07-12T08:28:01Z</time>
      </trkpt>
      <trkpt lat="49.77737" lon="2.31234">
        <ele>114.6</ele>
        <time>2023-07-12T08:28:02Z</time>
      </trkpt>
      <trkpt lat="49.77737" lon="2.31234">
        <ele>114.6</ele>
        <time>2023-07-12T08:28:03Z</time>
      </trkpt>
      <trkpt lat="49.77737" lon="2.31234">
        <ele>114.6</ele>
        <time>2023-07-12T08:28:04Z</time>
      </trkpt>
      <trkpt lat="49.77737" lon="2.31234">
        <ele>114.6</ele>
        <time>2023-07-12T08:28:05Z</time>
      </trkpt>
      <trkpt lat="49.77737" lon="2.31234">
        <ele>114.6</ele>
        <time>2023-07-12T08:28:06Z</time>
      </trkpt>
      <trkpt lat="49.77737" lon="2.31234">
        <ele>114.6</ele>
        <time>2023-07-12T08:28:07Z</time>
      </trkpt>
      <trkpt lat="49.77737" lon="2.31233">
        <ele>114.6</ele>
        <time>2023-07-12T08:28:08Z</time>
      </trkpt>
      <trkpt lat="49.77737" lon="2.31233">
        <ele>114.6</ele>
        <time>2023-07-12T08:28:09Z</time>
      </trkpt>
      <trkpt lat="49.77737" lon="2.31233">
        <ele>114.6</ele>
        <time>2023-07-12T08:28:10Z</time>
      </trkpt>
      <trkpt lat="49.77737" lon="2.31233">
        <ele>114.6</ele>
        <time>2023-07-12T08:28:11Z</time>
      </trkpt>
      <trkpt lat="49.77737" lon="2.31233">
        <ele>114.6</ele>
        <time>2023-07-12T08:28:12Z</time>
      </trkpt>
      <trkpt lat="49.77737" lon="2.31233">
        <ele>114.6</ele>
        <time>2023-07-12T08:28:13Z</time>
      </trkpt>
      <trkpt lat="49.77737" lon="2.31233">
        <ele>114.6</ele>
        <time>2023-07-12T08:28:14Z</time>
      </trkpt>
      <trkpt lat="49.77737" lon="2.31233">
        <ele>114.6</ele>
        <time>2023-07-12T08:28:15Z</time>
      </trkpt>
      <trkpt lat="49.77737" lon="2.31233">
        <ele>114.6</ele>
        <time>2023-07-12T08:28:16Z</time>
      </trkpt>
      <trkpt lat="49.77737" lon="2.31233">
        <ele>114.6</ele>
        <time>2023-07-12T08:28:17Z</time>
      </trkpt>
      <trkpt lat="49.77737" lon="2.31233">
        <ele>114.6</ele>
        <time>2023-07-12T08:28:18Z</time>
      </trkpt>
      <trkpt lat="49.77737" lon="2.31233">
        <ele>114.6</ele>
        <time>2023-07-12T08:28:19Z</time>
      </trkpt>
      <trkpt lat="49.77737" lon="2.31233">
        <ele>114.6</ele>
        <time>2023-07-12T08:28:20Z</time>
      </trkpt>
      <trkpt lat="49.77737" lon="2.31233">
        <ele>114.6</ele>
        <time>2023-07-12T08:28:21Z</time>
      </trkpt>
      <trkpt lat="49.77737" lon="2.31233">
        <ele>114.6</ele>
        <time>2023-07-12T08:28:22Z</time>
      </trkpt>
      <trkpt lat="49.77737" lon="2.31233">
        <ele>114.6</ele>
        <time>2023-07-12T08:28:23Z</time>
      </trkpt>
      <trkpt lat="49.77737" lon="2.31233">
        <ele>114.6</ele>
        <time>2023-07-12T08:28:24Z</time>
      </trkpt>
      <trkpt lat="49.77737" lon="2.31233">
        <ele>114.6</ele>
        <time>2023-07-12T08:28:25Z</time>
      </trkpt>
      <trkpt lat="49.77737" lon="2.31233">
        <ele>114.6</ele>
        <time>2023-07-12T08:28:26Z</time>
      </trkpt>
      <trkpt lat="49.77737" lon="2.31233">
        <ele>114.6</ele>
        <time>2023-07-12T08:28:27Z</time>
      </trkpt>
      <trkpt lat="49.77737" lon="2.31233">
        <ele>114.6</ele>
        <time>2023-07-12T08:28:28Z</time>
      </trkpt>
      <trkpt lat="49.77737" lon="2.31232">
        <ele>114.6</ele>
        <time>2023-07-12T08:28:29Z</time>
      </trkpt>
      <trkpt lat="49.77737" lon="2.31232">
        <ele>114.6</ele>
        <time>2023-07-12T08:28:30Z</time>
      </trkpt>
      <trkpt lat="49.77737" lon="2.31232">
        <ele>114.7</ele>
        <time>2023-07-12T08:28:31Z</time>
      </trkpt>
      <trkpt lat="49.77737" lon="2.31232">
        <ele>114.7</ele>
        <time>2023-07-12T08:28:32Z</time>
      </trkpt>
      <trkpt lat="49.77737" lon="2.31232">
        <ele>114.7</ele>
        <time>2023-07-12T08:28:33Z</time>
      </trkpt>
      <trkpt lat="49.77737" lon="2.31232">
        <ele>114.7</ele>
        <time>2023-07-12T08:28:34Z</time>
      </trkpt>
      <trkpt lat="49.77737" lon="2.31232">
        <ele>114.7</ele>
        <time>2023-07-12T08:28:35Z</time>
      </trkpt>
      <trkpt lat="49.77737" lon="2.31232">
        <ele>114.7</ele>
        <time>2023-07-12T08:28:36Z</time>
      </trkpt>
      <trkpt lat="49.77737" lon="2.31232">
        <ele>114.7</ele>
        <time>2023-07-12T08:28:37Z</time>
      </trkpt>
      <trkpt lat="49.77737" lon="2.31232">
        <ele>114.7</ele>
        <time>2023-07-12T08:28:38Z</time>
      </trkpt>
      <trkpt lat="49.77737" lon="2.31232">
        <ele>114.7</ele>
        <time>2023-07-12T08:28:39Z</time>
      </trkpt>
      <trkpt lat="49.77737" lon="2.31232">
        <ele>114.7</ele>
        <time>2023-07-12T08:28:40Z</time>
      </trkpt>
      <trkpt lat="49.77737" lon="2.31232">
        <ele>114.7</ele>
        <time>2023-07-12T08:28:41Z</time>
      </trkpt>
      <trkpt lat="49.77737" lon="2.31232">
        <ele>114.7</ele>
        <time>2023-07-12T08:28:42Z</time>
      </trkpt>
      <trkpt lat="49.77737" lon="2.31232">
        <ele>114.7</ele>
        <time>2023-07-12T08:28:43Z</time>
      </trkpt>
      <trkpt lat="49.77737" lon="2.31232">
        <ele>114.7</ele>
        <time>2023-07-12T08:28:44Z</time>
      </trkpt>
      <trkpt lat="49.77737" lon="2.31232">
        <ele>114.7</ele>
        <time>2023-07-12T08:28:45Z</time>
      </trkpt>
      <trkpt lat="49.77737" lon="2.31232">
        <ele>114.7</ele>
        <time>2023-07-12T08:28:46Z</time>
      </trkpt>
      <trkpt lat="49.77737" lon="2.31232">
        <ele>114.7</ele>
        <time>2023-07-12T08:28:47Z</time>
      </trkpt>
      <trkpt lat="49.77737" lon="2.31228">
        <ele>114.7</ele>
        <time>2023-07-12T08:28:48Z</time>
      </trkpt>
      <trkpt lat="49.77737" lon="2.31227">
        <ele>114.7</ele>
        <time>2023-07-12T08:28:49Z</time>
      </trkpt>
      <trkpt lat="49.77736" lon="2.3123">
        <ele>114.7</ele>
        <time>2023-07-12T08:28:50Z</time>
      </trkpt>
      <trkpt lat="49.77736" lon="2.3123">
        <ele>114.7</ele>
        <time>2023-07-12T08:28:51Z</time>
      </trkpt>
      <trkpt lat="49.77735" lon="2.3123">
        <ele>114.7</ele>
        <time>2023-07-12T08:28:52Z</time>
      </trkpt>
      <trkpt lat="49.77734" lon="2.31229">
        <ele>114.7</ele>
        <time>2023-07-12T08:28:53Z</time>
      </trkpt>
      <trkpt lat="49.77733" lon="2.31228">
        <ele>114.7</ele>
        <time>2023-07-12T08:28:54Z</time>
      </trkpt>
      <trkpt lat="49.77732" lon="2.31227">
        <ele>114.7</ele>
        <time>2023-07-12T08:28:56Z</time>
      </trkpt>
      <trkpt lat="49.77731" lon="2.31227">
        <ele>114.7</ele>
        <time>2023-07-12T08:28:57Z</time>
      </trkpt>
      <trkpt lat="49.7773" lon="2.31226">
        <ele>114.8</ele>
        <time>2023-07-12T08:28:58Z</time>
      </trkpt>
      <trkpt lat="49.77729" lon="2.31226">
        <ele>114.8</ele>
        <time>2023-07-12T08:28:59Z</time>
      </trkpt>
      <trkpt lat="49.77728" lon="2.31226">
        <ele>114.8</ele>
        <time>2023-07-12T08:29:00Z</time>
      </trkpt>
      <trkpt lat="49.77727" lon="2.31225">
        <ele>114.8</ele>
        <time>2023-07-12T08:29:01Z</time>
      </trkpt>
      <trkpt lat="49.77726" lon="2.31225">
        <ele>114.8</ele>
        <time>2023-07-12T08:29:02Z</time>
      </trkpt>
      <trkpt lat="49.77725" lon="2.31225">
        <ele>114.8</ele>
        <time>2023-07-12T08:29:04Z</time>
      </trkpt>
      <trkpt lat="49.77724" lon="2.31225">
        <ele>114.8</ele>
        <time>2023-07-12T08:29:06Z</time>
      </trkpt>
      <trkpt lat="49.77723" lon="2.31224">
        <ele>114.8</ele>
        <time>2023-07-12T08:29:07Z</time>
      </trkpt>
      <trkpt lat="49.7772" lon="2.31224">
        <ele>114.8</ele>
        <time>2023-07-12T08:29:08Z</time>
      </trkpt>
      <trkpt lat="49.77719" lon="2.31224">
        <ele>114.8</ele>
        <time>2023-07-12T08:29:10Z</time>
      </trkpt>
      <trkpt lat="49.77718" lon="2.31224">
        <ele>114.9</ele>
        <time>2023-07-12T08:29:11Z</time>
      </trkpt>
      <trkpt lat="49.77717" lon="2.31224">
        <ele>114.9</ele>
        <time>2023-07-12T08:29:13Z</time>
      </trkpt>
      <trkpt lat="49.77716" lon="2.31224">
        <ele>114.9</ele>
        <time>2023-07-12T08:29:14Z</time>
      </trkpt>
      <trkpt lat="49.77715" lon="2.31223">
        <ele>114.9</ele>
        <time>2023-07-12T08:29:15Z</time>
      </trkpt>
      <trkpt lat="49.77713" lon="2.31223">
        <ele>114.9</ele>
        <time>2023-07-12T08:29:16Z</time>
      </trkpt>
      <trkpt lat="49.77712" lon="2.31222">
        <ele>114.9</ele>
        <time>2023-07-12T08:29:18Z</time>
      </trkpt>
      <trkpt lat="49.77712" lon="2.31221">
        <ele>114.9</ele>
        <time>2023-07-12T08:29:19Z</time>
      </trkpt>
      <trkpt lat="49.77711" lon="2.3122">
        <ele>114.9</ele>
        <time>2023-07-12T08:29:20Z</time>
      </trkpt>
      <trkpt lat="49.7771" lon="2.3122">
        <ele>114.9</ele>
        <time>2023-07-12T08:29:21Z</time>
      </trkpt>
      <trkpt lat="49.77708" lon="2.31218">
        <ele>115</ele>
        <time>2023-07-12T08:29:23Z</time>
      </trkpt>
      <trkpt lat="49.77707" lon="2.31218">
        <ele>115</ele>
        <time>2023-07-12T08:29:24Z</time>
      </trkpt>
      <trkpt lat="49.77707" lon="2.31217">
        <ele>115</ele>
        <time>2023-07-12T08:29:25Z</time>
      </trkpt>
      <trkpt lat="49.77706" lon="2.31216">
        <ele>115</ele>
        <time>2023-07-12T08:29:26Z</time>
      </trkpt>
      <trkpt lat="49.77704" lon="2.31215">
        <ele>115</ele>
        <time>2023-07-12T08:29:27Z</time>
      </trkpt>
      <trkpt lat="49.77704" lon="2.31215">
        <ele>115</ele>
        <time>2023-07-12T08:29:29Z</time>
      </trkpt>
      <trkpt lat="49.77703" lon="2.31214">
        <ele>115</ele>
        <time>2023-07-12T08:29:30Z</time>
      </trkpt>
      <trkpt lat="49.77702" lon="2.31213">
        <ele>115</ele>
        <time>2023-07-12T08:29:31Z</time>
      </trkpt>
      <trkpt lat="49.77701" lon="2.31212">
        <ele>115</ele>
        <time>2023-07-12T08:29:32Z</time>
      </trkpt>
      <trkpt lat="49.777" lon="2.31212">
        <ele>115.1</ele>
        <time>2023-07-12T08:29:33Z</time>
      </trkpt>
      <trkpt lat="49.77699" lon="2.31211">
        <ele>115.1</ele>
        <time>2023-07-12T08:29:35Z</time>
      </trkpt>
      <trkpt lat="49.77698" lon="2.31211">
        <ele>115.1</ele>
        <time>2023-07-12T08:29:36Z</time>
      </trkpt>
      <trkpt lat="49.77697" lon="2.31211">
        <ele>115.1</ele>
        <time>2023-07-12T08:29:37Z</time>
      </trkpt>
      <trkpt lat="49.77695" lon="2.3121">
        <ele>115.1</ele>
        <time>2023-07-12T08:29:38Z</time>
      </trkpt>
      <trkpt lat="49.77694" lon="2.31209">
        <ele>115.1</ele>
        <time>2023-07-12T08:29:39Z</time>
      </trkpt>
      <trkpt lat="49.77693" lon="2.31209">
        <ele>115.1</ele>
        <time>2023-07-12T08:29:41Z</time>
      </trkpt>
      <trkpt lat="49.77692" lon="2.31208">
        <ele>115.2</ele>
        <time>2023-07-12T08:29:42Z</time>
      </trkpt>
      <trkpt lat="49.77691" lon="2.31208">
        <ele>115.2</ele>
        <time>2023-07-12T08:29:43Z</time>
      </trkpt>
      <trkpt lat="49.7769" lon="2.31207">
        <ele>115.2</ele>
        <time>2023-07-12T08:29:44Z</time>
      </trkpt>
      <trkpt lat="49.77689" lon="2.31206">
        <ele>115.2</ele>
        <time>2023-07-12T08:29:45Z</time>
      </trkpt>
      <trkpt lat="49.77688" lon="2.31206">
        <ele>115.2</ele>
        <time>2023-07-12T08:29:47Z</time>
      </trkpt>
      <trkpt lat="49.77687" lon="2.31206">
        <ele>115.2</ele>
        <time>2023-07-12T08:29:48Z</time>
      </trkpt>
      <trkpt lat="49.77686" lon="2.31205">
        <ele>115.2</ele>
        <time>2023-07-12T08:29:49Z</time>
      </trkpt>
      <trkpt lat="49.77684" lon="2.31204">
        <ele>115.2</ele>
        <time>2023-07-12T08:29:50Z</time>
      </trkpt>
      <trkpt lat="49.77683" lon="2.31204">
        <ele>115.3</ele>
        <time>2023-07-12T08:29:52Z</time>
      </trkpt>
      <trkpt lat="49.77683" lon="2.31203">
        <ele>115.3</ele>
        <time>2023-07-12T08:29:53Z</time>
      </trkpt>
      <trkpt lat="49.77682" lon="2.31202">
        <ele>115.3</ele>
        <time>2023-07-12T08:29:54Z</time>
      </trkpt>
      <trkpt lat="49.77681" lon="2.31201">
        <ele>115.3</ele>
        <time>2023-07-12T08:29:55Z</time>
      </trkpt>
      <trkpt lat="49.7768" lon="2.312">
        <ele>115.3</ele>
        <time>2023-07-12T08:29:56Z</time>
      </trkpt>
      <trkpt lat="49.77679" lon="2.31199">
        <ele>115.3</ele>
        <time>2023-07-12T08:29:57Z</time>
      </trkpt>
      <trkpt lat="49.77678" lon="2.31199">
        <ele>115.3</ele>
        <time>2023-07-12T08:29:59Z</time>
      </trkpt>
      <trkpt lat="49.77677" lon="2.31198">
        <ele>115.3</ele>
        <time>2023-07-12T08:30:00Z</time>
      </trkpt>
      <trkpt lat="49.77676" lon="2.31198">
        <ele>115.4</ele>
        <time>2023-07-12T08:30:01Z</time>
      </trkpt>
      <trkpt lat="49.77675" lon="2.31197">
        <ele>115.4</ele>
        <time>2023-07-12T08:30:02Z</time>
      </trkpt>
      <trkpt lat="49.77674" lon="2.31196">
        <ele>115.4</ele>
        <time>2023-07-12T08:30:03Z</time>
      </trkpt>
      <trkpt lat="49.77673" lon="2.31196">
        <ele>115.4</ele>
        <time>2023-07-12T08:30:04Z</time>
      </trkpt>
      <trkpt lat="49.77672" lon="2.31195">
        <ele>115.4</ele>
        <time>2023-07-12T08:30:06Z</time>
      </trkpt>
      <trkpt lat="49.77671" lon="2.31194">
        <ele>115.4</ele>
        <time>2023-07-12T08:30:07Z</time>
      </trkpt>
      <trkpt lat="49.7767" lon="2.31193">
        <ele>115.5</ele>
        <time>2023-07-12T08:30:08Z</time>
      </trkpt>
      <trkpt lat="49.77668" lon="2.31192">
        <ele>115.5</ele>
        <time>2023-07-12T08:30:09Z</time>
      </trkpt>
      <trkpt lat="49.77667" lon="2.31191">
        <ele>115.5</ele>
        <time>2023-07-12T08:30:10Z</time>
      </trkpt>
      <trkpt lat="49.77666" lon="2.3119">
        <ele>115.5</ele>
        <time>2023-07-12T08:30:11Z</time>
      </trkpt>
      <trkpt lat="49.77665" lon="2.3119">
        <ele>115.5</ele>
        <time>2023-07-12T08:30:13Z</time>
      </trkpt>
      <trkpt lat="49.77664" lon="2.31189">
        <ele>115.6</ele>
        <time>2023-07-12T08:30:14Z</time>
      </trkpt>
      <trkpt lat="49.77663" lon="2.31189">
        <ele>115.6</ele>
        <time>2023-07-12T08:30:15Z</time>
      </trkpt>
      <trkpt lat="49.77662" lon="2.31188">
        <ele>115.6</ele>
        <time>2023-07-12T08:30:16Z</time>
      </trkpt>
      <trkpt lat="49.7766" lon="2.31188">
        <ele>115.6</ele>
        <time>2023-07-12T08:30:17Z</time>
      </trkpt>
      <trkpt lat="49.77659" lon="2.31187">
        <ele>115.6</ele>
        <time>2023-07-12T08:30:18Z</time>
      </trkpt>
      <trkpt lat="49.77657" lon="2.31186">
        <ele>115.7</ele>
        <time>2023-07-12T08:30:19Z</time>
      </trkpt>
      <trkpt lat="49.77656" lon="2.31186">
        <ele>115.7</ele>
        <time>2023-07-12T08:30:21Z</time>
      </trkpt>
      <trkpt lat="49.77655" lon="2.31185">
        <ele>115.7</ele>
        <time>2023-07-12T08:30:22Z</time>
      </trkpt>
      <trkpt lat="49.77654" lon="2.31185">
        <ele>115.7</ele>
        <time>2023-07-12T08:30:23Z</time>
      </trkpt>
      <trkpt lat="49.77653" lon="2.31184">
        <ele>115.7</ele>
        <time>2023-07-12T08:30:24Z</time>
      </trkpt>
      <trkpt lat="49.77651" lon="2.31184">
        <ele>115.8</ele>
        <time>2023-07-12T08:30:25Z</time>
      </trkpt>
      <trkpt lat="49.7765" lon="2.31183">
        <ele>115.8</ele>
        <time>2023-07-12T08:30:26Z</time>
      </trkpt>
      <trkpt lat="49.77648" lon="2.31183">
        <ele>115.8</ele>
        <time>2023-07-12T08:30:28Z</time>
      </trkpt>
      <trkpt lat="49.77647" lon="2.31182">
        <ele>115.8</ele>
        <time>2023-07-12T08:30:29Z</time>
      </trkpt>
      <trkpt lat="49.77646" lon="2.31182">
        <ele>115.8</ele>
        <time>2023-07-12T08:30:30Z</time>
      </trkpt>
      <trkpt lat="49.77645" lon="2.31181">
        <ele>115.9</ele>
        <time>2023-07-12T08:30:31Z</time>
      </trkpt>
      <trkpt lat="49.77644" lon="2.3118">
        <ele>115.9</ele>
        <time>2023-07-12T08:30:32Z</time>
      </trkpt>
      <trkpt lat="49.77643" lon="2.3118">
        <ele>115.9</ele>
        <time>2023-07-12T08:30:33Z</time>
      </trkpt>
      <trkpt lat="49.77642" lon="2.31179">
        <ele>115.9</ele>
        <time>2023-07-12T08:30:34Z</time>
      </trkpt>
      <trkpt lat="49.77641" lon="2.31178">
        <ele>115.9</ele>
        <time>2023-07-12T08:30:36Z</time>
      </trkpt>
      <trkpt lat="49.7764" lon="2.31178">
        <ele>115.9</ele>
        <time>2023-07-12T08:30:37Z</time>
      </trkpt>
      <trkpt lat="49.77638" lon="2.31177">
        <ele>116</ele>
        <time>2023-07-12T08:30:38Z</time>
      </trkpt>
      <trkpt lat="49.77637" lon="2.31176">
        <ele>116</ele>
        <time>2023-07-12T08:30:39Z</time>
      </trkpt>
      <trkpt lat="49.77636" lon="2.31176">
        <ele>116</ele>
        <time>2023-07-12T08:30:40Z</time>
      </trkpt>
      <trkpt lat="49.77635" lon="2.31175">
        <ele>116</ele>
        <time>2023-07-12T08:30:41Z</time>
      </trkpt>
      <trkpt lat="49.77634" lon="2.31174">
        <ele>116.1</ele>
        <time>2023-07-12T08:30:43Z</time>
      </trkpt>
      <trkpt lat="49.77633" lon="2.31174">
        <ele>116.1</ele>
        <time>2023-07-12T08:30:44Z</time>
      </trkpt>
      <trkpt lat="49.77631" lon="2.31173">
        <ele>116.1</ele>
        <time>2023-07-12T08:30:45Z</time>
      </trkpt>
      <trkpt lat="49.7763" lon="2.31172">
        <ele>116.1</ele>
        <time>2023-07-12T08:30:46Z</time>
      </trkpt>
      <trkpt lat="49.7763" lon="2.31172">
        <ele>116.1</ele>
        <time>2023-07-12T08:30:47Z</time>
      </trkpt>
      <trkpt lat="49.77628" lon="2.31171">
        <ele>116.2</ele>
        <time>2023-07-12T08:30:48Z</time>
      </trkpt>
      <trkpt lat="49.77627" lon="2.3117">
        <ele>116.2</ele>
        <time>2023-07-12T08:30:49Z</time>
      </trkpt>
      <trkpt lat="49.77626" lon="2.3117">
        <ele>116.2</ele>
        <time>2023-07-12T08:30:50Z</time>
      </trkpt>
      <trkpt lat="49.77624" lon="2.3117">
        <ele>116.2</ele>
        <time>2023-07-12T08:30:52Z</time>
      </trkpt>
      <trkpt lat="49.77623" lon="2.31169">
        <ele>116.2</ele>
        <time>2023-07-12T08:30:53Z</time>
      </trkpt>
      <trkpt lat="49.77623" lon="2.31169">
        <ele>116.2</ele>
        <time>2023-07-12T08:30:54Z</time>
      </trkpt>
      <trkpt lat="49.7762" lon="2.31168">
        <ele>116.3</ele>
        <time>2023-07-12T08:30:56Z</time>
      </trkpt>
      <trkpt lat="49.7762" lon="2.31168">
        <ele>116.3</ele>
        <time>2023-07-12T08:30:57Z</time>
      </trkpt>
      <trkpt lat="49.77619" lon="2.31167">
        <ele>116.3</ele>
        <time>2023-07-12T08:30:58Z</time>
      </trkpt>
      <trkpt lat="49.77617" lon="2.31167">
        <ele>116.3</ele>
        <time>2023-07-12T08:30:59Z</time>
      </trkpt>
      <trkpt lat="49.77616" lon="2.31166">
        <ele>116.4</ele>
        <time>2023-07-12T08:31:00Z</time>
      </trkpt>
      <trkpt lat="49.77615" lon="2.31165">
        <ele>116.4</ele>
        <time>2023-07-12T08:31:01Z</time>
      </trkpt>
      <trkpt lat="49.77614" lon="2.31164">
        <ele>116.4</ele>
        <time>2023-07-12T08:31:02Z</time>
      </trkpt>
      <trkpt lat="49.77613" lon="2.31164">
        <ele>116.4</ele>
        <time>2023-07-12T08:31:03Z</time>
      </trkpt>
      <trkpt lat="49.77612" lon="2.31163">
        <ele>116.5</ele>
        <time>2023-07-12T08:31:05Z</time>
      </trkpt>
      <trkpt lat="49.77611" lon="2.31162">
        <ele>116.5</ele>
        <time>2023-07-12T08:31:06Z</time>
      </trkpt>
      <trkpt lat="49.7761" lon="2.31161">
        <ele>116.5</ele>
        <time>2023-07-12T08:31:07Z</time>
      </trkpt>
      <trkpt lat="49.77609" lon="2.3116">
        <ele>116.5</ele>
        <time>2023-07-12T08:31:08Z</time>
      </trkpt>
      <trkpt lat="49.77608" lon="2.31159">
        <ele>116.6</ele>
        <time>2023-07-12T08:31:09Z</time>
      </trkpt>
      <trkpt lat="49.77607" lon="2.31158">
        <ele>116.6</ele>
        <time>2023-07-12T08:31:10Z</time>
      </trkpt>
      <trkpt lat="49.77606" lon="2.31158">
        <ele>116.6</ele>
        <time>2023-07-12T08:31:11Z</time>
      </trkpt>
      <trkpt lat="49.77605" lon="2.31157">
        <ele>116.6</ele>
        <time>2023-07-12T08:31:12Z</time>
      </trkpt>
      <trkpt lat="49.77603" lon="2.31156">
        <ele>116.7</ele>
        <time>2023-07-12T08:31:14Z</time>
      </trkpt>
      <trkpt lat="49.77601" lon="2.31154">
        <ele>116.7</ele>
        <time>2023-07-12T08:31:15Z</time>
      </trkpt>
      <trkpt lat="49.77601" lon="2.31154">
        <ele>116.7</ele>
        <time>2023-07-12T08:31:16Z</time>
      </trkpt>
      <trkpt lat="49.776" lon="2.31153">
        <ele>116.8</ele>
        <time>2023-07-12T08:31:17Z</time>
      </trkpt>
      <trkpt lat="49.77599" lon="2.31152">
        <ele>116.8</ele>
        <time>2023-07-12T08:31:18Z</time>
      </trkpt>
      <trkpt lat="49.77598" lon="2.31152">
        <ele>116.8</ele>
        <time>2023-07-12T08:31:19Z</time>
      </trkpt>
      <trkpt lat="49.77597" lon="2.31151">
        <ele>116.8</ele>
        <time>2023-07-12T08:31:20Z</time>
      </trkpt>
      <trkpt lat="49.77595" lon="2.3115">
        <ele>116.9</ele>
        <time>2023-07-12T08:31:21Z</time>
      </trkpt>
      <trkpt lat="49.77594" lon="2.31149">
        <ele>116.9</ele>
        <time>2023-07-12T08:31:23Z</time>
      </trkpt>
      <trkpt lat="49.77593" lon="2.31148">
        <ele>116.9</ele>
        <time>2023-07-12T08:31:24Z</time>
      </trkpt>
      <trkpt lat="49.77591" lon="2.31147">
        <ele>117</ele>
        <time>2023-07-12T08:31:25Z</time>
      </trkpt>
      <trkpt lat="49.7759" lon="2.31146">
        <ele>117</ele>
        <time>2023-07-12T08:31:26Z</time>
      </trkpt>
      <trkpt lat="49.77589" lon="2.31146">
        <ele>117</ele>
        <time>2023-07-12T08:31:27Z</time>
      </trkpt>
      <trkpt lat="49.77587" lon="2.31145">
        <ele>117</ele>
        <time>2023-07-12T08:31:28Z</time>
      </trkpt>
      <trkpt lat="49.77586" lon="2.31144">
        <ele>117</ele>
        <time>2023-07-12T08:31:29Z</time>
      </trkpt>
      <trkpt lat="49.77585" lon="2.31144">
        <ele>117</ele>
        <time>2023-07-12T08:31:30Z</time>
      </trkpt>
      <trkpt lat="49.77583" lon="2.31143">
        <ele>117.1</ele>
        <time>2023-07-12T08:31:32Z</time>
      </trkpt>
      <trkpt lat="49.77582" lon="2.31142">
        <ele>117.1</ele>
        <time>2023-07-12T08:31:33Z</time>
      </trkpt>
      <trkpt lat="49.77581" lon="2.31142">
        <ele>117.1</ele>
        <time>2023-07-12T08:31:34Z</time>
      </trkpt>
      <trkpt lat="49.77579" lon="2.31141">
        <ele>117.1</ele>
        <time>2023-07-12T08:31:35Z</time>
      </trkpt>
      <trkpt lat="49.77579" lon="2.31141">
        <ele>117.1</ele>
        <time>2023-07-12T08:31:36Z</time>
      </trkpt>
      <trkpt lat="49.77578" lon="2.3114">
        <ele>117.2</ele>
        <time>2023-07-12T08:31:37Z</time>
      </trkpt>
      <trkpt lat="49.77576" lon="2.31139">
        <ele>117.2</ele>
        <time>2023-07-12T08:31:38Z</time>
      </trkpt>
      <trkpt lat="49.77575" lon="2.31139">
        <ele>117.2</ele>
        <time>2023-07-12T08:31:40Z</time>
      </trkpt>
      <trkpt lat="49.77574" lon="2.31139">
        <ele>117.2</ele>
        <time>2023-07-12T08:31:41Z</time>
      </trkpt>
      <trkpt lat="49.77573" lon="2.31138">
        <ele>117.2</ele>
        <time>2023-07-12T08:31:42Z</time>
      </trkpt>
      <trkpt lat="49.77572" lon="2.31138">
        <ele>117.2</ele>
        <time>2023-07-12T08:31:43Z</time>
      </trkpt>
      <trkpt lat="49.77571" lon="2.31137">
        <ele>117.3</ele>
        <time>2023-07-12T08:31:44Z</time>
      </trkpt>
      <trkpt lat="49.77569" lon="2.31137">
        <ele>117.3</ele>
        <time>2023-07-12T08:31:45Z</time>
      </trkpt>
      <trkpt lat="49.77568" lon="2.31136">
        <ele>117.3</ele>
        <time>2023-07-12T08:31:46Z</time>
      </trkpt>
      <trkpt lat="49.77567" lon="2.31136">
        <ele>117.3</ele>
        <time>2023-07-12T08:31:48Z</time>
      </trkpt>
      <trkpt lat="49.77566" lon="2.31135">
        <ele>117.3</ele>
        <time>2023-07-12T08:31:49Z</time>
      </trkpt>
      <trkpt lat="49.77565" lon="2.31135">
        <ele>117.3</ele>
        <time>2023-07-12T08:31:50Z</time>
      </trkpt>
      <trkpt lat="49.77564" lon="2.31134">
        <ele>117.4</ele>
        <time>2023-07-12T08:31:51Z</time>
      </trkpt>
      <trkpt lat="49.77563" lon="2.31133">
        <ele>117.4</ele>
        <time>2023-07-12T08:31:52Z</time>
      </trkpt>
      <trkpt lat="49.77562" lon="2.31133">
        <ele>117.4</ele>
        <time>2023-07-12T08:31:53Z</time>
      </trkpt>
      <trkpt lat="49.77561" lon="2.31132">
        <ele>117.4</ele>
        <time>2023-07-12T08:31:54Z</time>
      </trkpt>
      <trkpt lat="49.7756" lon="2.31131">
        <ele>117.4</ele>
        <time>2023-07-12T08:31:56Z</time>
      </trkpt>
      <trkpt lat="49.77559" lon="2.31131">
        <ele>117.4</ele>
        <time>2023-07-12T08:31:57Z</time>
      </trkpt>
      <trkpt lat="49.77558" lon="2.3113">
        <ele>117.5</ele>
        <time>2023-07-12T08:31:58Z</time>
      </trkpt>
      <trkpt lat="49.77556" lon="2.3113">
        <ele>117.5</ele>
        <time>2023-07-12T08:31:59Z</time>
      </trkpt>
      <trkpt lat="49.77555" lon="2.31129">
        <ele>117.5</ele>
        <time>2023-07-12T08:32:00Z</time>
      </trkpt>
      <trkpt lat="49.77554" lon="2.31128">
        <ele>117.5</ele>
        <time>2023-07-12T08:32:01Z</time>
      </trkpt>
      <trkpt lat="49.77552" lon="2.31127">
        <ele>117.5</ele>
        <time>2023-07-12T08:32:02Z</time>
      </trkpt>
      <trkpt lat="49.77551" lon="2.31126">
        <ele>117.6</ele>
        <time>2023-07-12T08:32:03Z</time>
      </trkpt>
      <trkpt lat="49.7755" lon="2.31126">
        <ele>117.6</ele>
        <time>2023-07-12T08:32:05Z</time>
      </trkpt>
      <trkpt lat="49.77549" lon="2.31126">
        <ele>117.6</ele>
        <time>2023-07-12T08:32:06Z</time>
      </trkpt>
      <trkpt lat="49.77548" lon="2.31125">
        <ele>117.6</ele>
        <time>2023-07-12T08:32:07Z</time>
      </trkpt>
      <trkpt lat="49.77547" lon="2.31125">
        <ele>117.6</ele>
        <time>2023-07-12T08:32:08Z</time>
      </trkpt>
      <trkpt lat="49.77545" lon="2.31124">
        <ele>117.7</ele>
        <time>2023-07-12T08:32:09Z</time>
      </trkpt>
      <trkpt lat="49.77544" lon="2.31124">
        <ele>117.7</ele>
        <time>2023-07-12T08:32:10Z</time>
      </trkpt>
      <trkpt lat="49.77544" lon="2.31123">
        <ele>117.7</ele>
        <time>2023-07-12T08:32:11Z</time>
      </trkpt>
      <trkpt lat="49.77542" lon="2.31123">
        <ele>117.7</ele>
        <time>2023-07-12T08:32:13Z</time>
      </trkpt>
      <trkpt lat="49.77541" lon="2.31122">
        <ele>117.7</ele>
        <time>2023-07-12T08:32:14Z</time>
      </trkpt>
      <trkpt lat="49.77539" lon="2.31121">
        <ele>117.8</ele>
        <time>2023-07-12T08:32:15Z</time>
      </trkpt>
      <trkpt lat="49.77538" lon="2.31121">
        <ele>117.8</ele>
        <time>2023-07-12T08:32:16Z</time>
      </trkpt>
      <trkpt lat="49.77537" lon="2.31121">
        <ele>117.8</ele>
        <time>2023-07-12T08:32:17Z</time>
      </trkpt>
      <trkpt lat="49.77535" lon="2.3112">
        <ele>117.8</ele>
        <time>2023-07-12T08:32:18Z</time>
      </trkpt>
      <trkpt lat="49.77534" lon="2.31119">
        <ele>117.8</ele>
        <time>2023-07-12T08:32:19Z</time>
      </trkpt>
      <trkpt lat="49.77533" lon="2.31119">
        <ele>117.8</ele>
        <time>2023-07-12T08:32:20Z</time>
      </trkpt>
      <trkpt lat="49.77532" lon="2.31118">
        <ele>117.9</ele>
        <time>2023-07-12T08:32:22Z</time>
      </trkpt>
      <trkpt lat="49.77531" lon="2.31118">
        <ele>117.9</ele>
        <time>2023-07-12T08:32:23Z</time>
      </trkpt>
      <trkpt lat="49.77529" lon="2.31117">
        <ele>117.9</ele>
        <time>2023-07-12T08:32:24Z</time>
      </trkpt>
      <trkpt lat="49.77528" lon="2.31117">
        <ele>117.9</ele>
        <time>2023-07-12T08:32:26Z</time>
      </trkpt>
      <trkpt lat="49.77526" lon="2.31115">
        <ele>118</ele>
        <time>2023-07-12T08:32:27Z</time>
      </trkpt>
      <trkpt lat="49.77525" lon="2.31114">
        <ele>118</ele>
        <time>2023-07-12T08:32:28Z</time>
      </trkpt>
      <trkpt lat="49.77524" lon="2.31113">
        <ele>118</ele>
        <time>2023-07-12T08:32:29Z</time>
      </trkpt>
      <trkpt lat="49.77522" lon="2.31112">
        <ele>118</ele>
        <time>2023-07-12T08:32:31Z</time>
      </trkpt>
      <trkpt lat="49.77521" lon="2.31111">
        <ele>118</ele>
        <time>2023-07-12T08:32:32Z</time>
      </trkpt>
      <trkpt lat="49.7752" lon="2.3111">
        <ele>118.1</ele>
        <time>2023-07-12T08:32:33Z</time>
      </trkpt>
      <trkpt lat="49.77518" lon="2.31109">
        <ele>118.1</ele>
        <time>2023-07-12T08:32:34Z</time>
      </trkpt>
      <trkpt lat="49.77517" lon="2.31108">
        <ele>118.1</ele>
        <time>2023-07-12T08:32:35Z</time>
      </trkpt>
      <trkpt lat="49.77516" lon="2.31106">
        <ele>118.1</ele>
        <time>2023-07-12T08:32:36Z</time>
      </trkpt>
      <trkpt lat="49.77515" lon="2.31105">
        <ele>118.1</ele>
        <time>2023-07-12T08:32:37Z</time>
      </trkpt>
      <trkpt lat="49.77514" lon="2.31105">
        <ele>118.2</ele>
        <time>2023-07-12T08:32:38Z</time>
      </trkpt>
      <trkpt lat="49.77512" lon="2.31103">
        <ele>118.2</ele>
        <time>2023-07-12T08:32:40Z</time>
      </trkpt>
      <trkpt lat="49.77512" lon="2.31102">
        <ele>118.2</ele>
        <time>2023-07-12T08:32:41Z</time>
      </trkpt>
      <trkpt lat="49.77511" lon="2.31101">
        <ele>118.2</ele>
        <time>2023-07-12T08:32:42Z</time>
      </trkpt>
      <trkpt lat="49.7751" lon="2.311">
        <ele>118.2</ele>
        <time>2023-07-12T08:32:43Z</time>
      </trkpt>
      <trkpt lat="49.77509" lon="2.31099">
        <ele>118.3</ele>
        <time>2023-07-12T08:32:44Z</time>
      </trkpt>
      <trkpt lat="49.77509" lon="2.31099">
        <ele>118.3</ele>
        <time>2023-07-12T08:32:45Z</time>
      </trkpt>
      <trkpt lat="49.77507" lon="2.31097">
        <ele>118.3</ele>
        <time>2023-07-12T08:32:46Z</time>
      </trkpt>
      <trkpt lat="49.77506" lon="2.31097">
        <ele>118.3</ele>
        <time>2023-07-12T08:32:47Z</time>
      </trkpt>
      <trkpt lat="49.77505" lon="2.31096">
        <ele>118.3</ele>
        <time>2023-07-12T08:32:49Z</time>
      </trkpt>
      <trkpt lat="49.77504" lon="2.31095">
        <ele>118.3</ele>
        <time>2023-07-12T08:32:50Z</time>
      </trkpt>
      <trkpt lat="49.77503" lon="2.31095">
        <ele>118.3</ele>
        <time>2023-07-12T08:32:51Z</time>
      </trkpt>
      <trkpt lat="49.77502" lon="2.31094">
        <ele>118.4</ele>
        <time>2023-07-12T08:32:52Z</time>
      </trkpt>
      <trkpt lat="49.77501" lon="2.31093">
        <ele>118.4</ele>
        <time>2023-07-12T08:32:53Z</time>
      </trkpt>
      <trkpt lat="49.775" lon="2.31093">
        <ele>118.4</ele>
        <time>2023-07-12T08:32:54Z</time>
      </trkpt>
      <trkpt lat="49.77499" lon="2.31092">
        <ele>118.4</ele>
        <time>2023-07-12T08:32:55Z</time>
      </trkpt>
      <trkpt lat="49.77498" lon="2.31092">
        <ele>118.4</ele>
        <time>2023-07-12T08:32:56Z</time>
      </trkpt>
      <trkpt lat="49.77497" lon="2.31091">
        <ele>118.5</ele>
        <time>2023-07-12T08:32:58Z</time>
      </trkpt>
      <trkpt lat="49.77496" lon="2.31091">
        <ele>118.5</ele>
        <time>2023-07-12T08:32:59Z</time>
      </trkpt>
      <trkpt lat="49.77494" lon="2.3109">
        <ele>118.5</ele>
        <time>2023-07-12T08:33:00Z</time>
      </trkpt>
      <trkpt lat="49.77493" lon="2.3109">
        <ele>118.5</ele>
        <time>2023-07-12T08:33:01Z</time>
      </trkpt>
      <trkpt lat="49.77492" lon="2.3109">
        <ele>118.6</ele>
        <time>2023-07-12T08:33:02Z</time>
      </trkpt>
      <trkpt lat="49.77491" lon="2.3109">
        <ele>118.6</ele>
        <time>2023-07-12T08:33:03Z</time>
      </trkpt>
      <trkpt lat="49.7749" lon="2.31089">
        <ele>118.6</ele>
        <time>2023-07-12T08:33:04Z</time>
      </trkpt>
      <trkpt lat="49.77489" lon="2.31088">
        <ele>118.6</ele>
        <time>2023-07-12T08:33:05Z</time>
      </trkpt>
      <trkpt lat="49.77488" lon="2.31088">
        <ele>118.6</ele>
        <time>2023-07-12T08:33:07Z</time>
      </trkpt>
      <trkpt lat="49.77487" lon="2.31087">
        <ele>118.7</ele>
        <time>2023-07-12T08:33:08Z</time>
      </trkpt>
      <trkpt lat="49.77486" lon="2.31086">
        <ele>118.7</ele>
        <time>2023-07-12T08:33:09Z</time>
      </trkpt>
      <trkpt lat="49.77484" lon="2.31086">
        <ele>118.7</ele>
        <time>2023-07-12T08:33:10Z</time>
      </trkpt>
      <trkpt lat="49.77483" lon="2.31085">
        <ele>118.7</ele>
        <time>2023-07-12T08:33:11Z</time>
      </trkpt>
      <trkpt lat="49.77482" lon="2.31085">
        <ele>118.7</ele>
        <time>2023-07-12T08:33:12Z</time>
      </trkpt>
      <trkpt lat="49.7748" lon="2.31084">
        <ele>118.8</ele>
        <time>2023-07-12T08:33:13Z</time>
      </trkpt>
      <trkpt lat="49.77479" lon="2.31084">
        <ele>118.8</ele>
        <time>2023-07-12T08:33:15Z</time>
      </trkpt>
      <trkpt lat="49.77478" lon="2.31084">
        <ele>118.8</ele>
        <time>2023-07-12T08:33:16Z</time>
      </trkpt>
      <trkpt lat="49.77477" lon="2.31083">
        <ele>118.8</ele>
        <time>2023-07-12T08:33:17Z</time>
      </trkpt>
      <trkpt lat="49.77476" lon="2.31083">
        <ele>118.9</ele>
        <time>2023-07-12T08:33:18Z</time>
      </trkpt>
      <trkpt lat="49.77474" lon="2.31082">
        <ele>118.9</ele>
        <time>2023-07-12T08:33:20Z</time>
      </trkpt>
      <trkpt lat="49.77472" lon="2.31082">
        <ele>118.9</ele>
        <time>2023-07-12T08:33:21Z</time>
      </trkpt>
      <trkpt lat="49.7747" lon="2.31081">
        <ele>119</ele>
        <time>2023-07-12T08:33:22Z</time>
      </trkpt>
      <trkpt lat="49.7747" lon="2.31081">
        <ele>119</ele>
        <time>2023-07-12T08:33:23Z</time>
      </trkpt>
      <trkpt lat="49.77469" lon="2.31081">
        <ele>119</ele>
        <time>2023-07-12T08:33:24Z</time>
      </trkpt>
      <trkpt lat="49.77467" lon="2.31081">
        <ele>119</ele>
        <time>2023-07-12T08:33:25Z</time>
      </trkpt>
      <trkpt lat="49.77466" lon="2.3108">
        <ele>119</ele>
        <time>2023-07-12T08:33:26Z</time>
      </trkpt>
      <trkpt lat="49.77465" lon="2.3108">
        <ele>119</ele>
        <time>2023-07-12T08:33:28Z</time>
      </trkpt>
      <trkpt lat="49.77464" lon="2.31079">
        <ele>119</ele>
        <time>2023-07-12T08:33:29Z</time>
      </trkpt>
      <trkpt lat="49.77463" lon="2.31078">
        <ele>119.1</ele>
        <time>2023-07-12T08:33:30Z</time>
      </trkpt>
      <trkpt lat="49.77462" lon="2.31077">
        <ele>119.1</ele>
        <time>2023-07-12T08:33:31Z</time>
      </trkpt>
      <trkpt lat="49.7746" lon="2.31076">
        <ele>119.1</ele>
        <time>2023-07-12T08:33:32Z</time>
      </trkpt>
      <trkpt lat="49.77459" lon="2.31075">
        <ele>119.1</ele>
        <time>2023-07-12T08:33:33Z</time>
      </trkpt>
      <trkpt lat="49.77459" lon="2.31075">
        <ele>119.1</ele>
        <time>2023-07-12T08:33:34Z</time>
      </trkpt>
      <trkpt lat="49.77457" lon="2.31074">
        <ele>119.1</ele>
        <time>2023-07-12T08:33:35Z</time>
      </trkpt>
      <trkpt lat="49.77456" lon="2.31073">
        <ele>119.1</ele>
        <time>2023-07-12T08:33:37Z</time>
      </trkpt>
      <trkpt lat="49.77455" lon="2.31073">
        <ele>119.1</ele>
        <time>2023-07-12T08:33:38Z</time>
      </trkpt>
      <trkpt lat="49.77453" lon="2.31072">
        <ele>119.2</ele>
        <time>2023-07-12T08:33:39Z</time>
      </trkpt>
      <trkpt lat="49.77452" lon="2.31071">
        <ele>119.2</ele>
        <time>2023-07-12T08:33:40Z</time>
      </trkpt>
      <trkpt lat="49.77452" lon="2.31071">
        <ele>119.2</ele>
        <time>2023-07-12T08:33:41Z</time>
      </trkpt>
      <trkpt lat="49.7745" lon="2.3107">
        <ele>119.2</ele>
        <time>2023-07-12T08:33:42Z</time>
      </trkpt>
      <trkpt lat="49.77449" lon="2.31069">
        <ele>119.2</ele>
        <time>2023-07-12T08:33:43Z</time>
      </trkpt>
      <trkpt lat="49.77448" lon="2.31069">
        <ele>119.2</ele>
        <time>2023-07-12T08:33:45Z</time>
      </trkpt>
      <trkpt lat="49.77447" lon="2.31069">
        <ele>119.2</ele>
        <time>2023-07-12T08:33:46Z</time>
      </trkpt>
      <trkpt lat="49.77446" lon="2.31069">
        <ele>119.3</ele>
        <time>2023-07-12T08:33:47Z</time>
      </trkpt>
      <trkpt lat="49.77445" lon="2.31068">
        <ele>119.3</ele>
        <time>2023-07-12T08:33:48Z</time>
      </trkpt>
      <trkpt lat="49.77443" lon="2.31068">
        <ele>119.3</ele>
        <time>2023-07-12T08:33:49Z</time>
      </trkpt>
      <trkpt lat="49.77442" lon="2.31067">
        <ele>119.3</ele>
        <time>2023-07-12T08:33:50Z</time>
      </trkpt>
      <trkpt lat="49.77441" lon="2.31067">
        <ele>119.3</ele>
        <time>2023-07-12T08:33:51Z</time>
      </trkpt>
      <trkpt lat="49.7744" lon="2.31066">
        <ele>119.3</ele>
        <time>2023-07-12T08:33:53Z</time>
      </trkpt>
      <trkpt lat="49.77439" lon="2.31066">
        <ele>119.3</ele>
        <time>2023-07-12T08:33:54Z</time>
      </trkpt>
      <trkpt lat="49.77438" lon="2.31065">
        <ele>119.3</ele>
        <time>2023-07-12T08:33:55Z</time>
      </trkpt>
      <trkpt lat="49.77436" lon="2.31064">
        <ele>119.4</ele>
        <time>2023-07-12T08:33:56Z</time>
      </trkpt>
      <trkpt lat="49.77435" lon="2.31064">
        <ele>119.4</ele>
        <time>2023-07-12T08:33:57Z</time>
      </trkpt>
      <trkpt lat="49.77434" lon="2.31063">
        <ele>119.4</ele>
        <time>2023-07-12T08:33:59Z</time>
      </trkpt>
      <trkpt lat="49.77433" lon="2.31063">
        <ele>119.4</ele>
        <time>2023-07-12T08:34:00Z</time>
      </trkpt>
      <trkpt lat="49.77432" lon="2.31062">
        <ele>119.4</ele>
        <time>2023-07-12T08:34:01Z</time>
      </trkpt>
      <trkpt lat="49.77431" lon="2.31061">
        <ele>119.4</ele>
        <time>2023-07-12T08:34:02Z</time>
      </trkpt>
      <trkpt lat="49.7743" lon="2.3106">
        <ele>119.4</ele>
        <time>2023-07-12T08:34:03Z</time>
      </trkpt>
      <trkpt lat="49.77429" lon="2.31059">
        <ele>119.5</ele>
        <time>2023-07-12T08:34:04Z</time>
      </trkpt>
      <trkpt lat="49.77428" lon="2.31058">
        <ele>119.5</ele>
        <time>2023-07-12T08:34:06Z</time>
      </trkpt>
      <trkpt lat="49.77427" lon="2.31058">
        <ele>119.5</ele>
        <time>2023-07-12T08:34:07Z</time>
      </trkpt>
      <trkpt lat="49.77426" lon="2.31057">
        <ele>119.5</ele>
        <time>2023-07-12T08:34:08Z</time>
      </trkpt>
      <trkpt lat="49.77425" lon="2.31056">
        <ele>119.5</ele>
        <time>2023-07-12T08:34:09Z</time>
      </trkpt>
      <trkpt lat="49.77423" lon="2.31055">
        <ele>119.5</ele>
        <time>2023-07-12T08:34:10Z</time>
      </trkpt>
      <trkpt lat="49.77422" lon="2.31054">
        <ele>119.6</ele>
        <time>2023-07-12T08:34:11Z</time>
      </trkpt>
      <trkpt lat="49.77421" lon="2.31054">
        <ele>119.6</ele>
        <time>2023-07-12T08:34:12Z</time>
      </trkpt>
      <trkpt lat="49.7742" lon="2.31054">
        <ele>119.6</ele>
        <time>2023-07-12T08:34:14Z</time>
      </trkpt>
      <trkpt lat="49.77419" lon="2.31053">
        <ele>119.6</ele>
        <time>2023-07-12T08:34:15Z</time>
      </trkpt>
      <trkpt lat="49.77418" lon="2.31053">
        <ele>119.6</ele>
        <time>2023-07-12T08:34:16Z</time>
      </trkpt>
      <trkpt lat="49.77417" lon="2.31052">
        <ele>119.6</ele>
        <time>2023-07-12T08:34:17Z</time>
      </trkpt>
      <trkpt lat="49.77415" lon="2.31051">
        <ele>119.6</ele>
        <time>2023-07-12T08:34:18Z</time>
      </trkpt>
      <trkpt lat="49.77414" lon="2.3105">
        <ele>119.7</ele>
        <time>2023-07-12T08:34:20Z</time>
      </trkpt>
      <trkpt lat="49.77414" lon="2.3105">
        <ele>119.7</ele>
        <time>2023-07-12T08:34:21Z</time>
      </trkpt>
      <trkpt lat="49.77412" lon="2.31049">
        <ele>119.7</ele>
        <time>2023-07-12T08:34:22Z</time>
      </trkpt>
      <trkpt lat="49.77411" lon="2.31049">
        <ele>119.7</ele>
        <time>2023-07-12T08:34:23Z</time>
      </trkpt>
      <trkpt lat="49.7741" lon="2.31048">
        <ele>119.7</ele>
        <time>2023-07-12T08:34:24Z</time>
      </trkpt>
      <trkpt lat="49.77408" lon="2.31048">
        <ele>119.7</ele>
        <time>2023-07-12T08:34:25Z</time>
      </trkpt>
      <trkpt lat="49.77406" lon="2.31047">
        <ele>119.8</ele>
        <time>2023-07-12T08:34:27Z</time>
      </trkpt>
      <trkpt lat="49.77406" lon="2.31047">
        <ele>119.8</ele>
        <time>2023-07-12T08:34:28Z</time>
      </trkpt>
      <trkpt lat="49.77405" lon="2.31046">
        <ele>119.8</ele>
        <time>2023-07-12T08:34:29Z</time>
      </trkpt>
      <trkpt lat="49.77404" lon="2.31045">
        <ele>119.8</ele>
        <time>2023-07-12T08:34:30Z</time>
      </trkpt>
      <trkpt lat="49.77402" lon="2.31044">
        <ele>119.8</ele>
        <time>2023-07-12T08:34:31Z</time>
      </trkpt>
      <trkpt lat="49.77401" lon="2.31044">
        <ele>119.8</ele>
        <time>2023-07-12T08:34:32Z</time>
      </trkpt>
      <trkpt lat="49.774" lon="2.31043">
        <ele>119.9</ele>
        <time>2023-07-12T08:34:33Z</time>
      </trkpt>
      <trkpt lat="49.77399" lon="2.31042">
        <ele>119.9</ele>
        <time>2023-07-12T08:34:35Z</time>
      </trkpt>
      <trkpt lat="49.77397" lon="2.31041">
        <ele>119.9</ele>
        <time>2023-07-12T08:34:36Z</time>
      </trkpt>
      <trkpt lat="49.77397" lon="2.3104">
        <ele>119.9</ele>
        <time>2023-07-12T08:34:37Z</time>
      </trkpt>
      <trkpt lat="49.77396" lon="2.31039">
        <ele>119.9</ele>
        <time>2023-07-12T08:34:38Z</time>
      </trkpt>
      <trkpt lat="49.77394" lon="2.31038">
        <ele>120</ele>
        <time>2023-07-12T08:34:39Z</time>
      </trkpt>
      <trkpt lat="49.77393" lon="2.31038">
        <ele>120</ele>
        <time>2023-07-12T08:34:40Z</time>
      </trkpt>
      <trkpt lat="49.77392" lon="2.31038">
        <ele>120</ele>
        <time>2023-07-12T08:34:41Z</time>
      </trkpt>
      <trkpt lat="49.77391" lon="2.31037">
        <ele>120</ele>
        <time>2023-07-12T08:34:43Z</time>
      </trkpt>
      <trkpt lat="49.7739" lon="2.31037">
        <ele>120.1</ele>
        <time>2023-07-12T08:34:44Z</time>
      </trkpt>
      <trkpt lat="49.77388" lon="2.31036">
        <ele>120.1</ele>
        <time>2023-07-12T08:34:45Z</time>
      </trkpt>
      <trkpt lat="49.77387" lon="2.31035">
        <ele>120.1</ele>
        <time>2023-07-12T08:34:46Z</time>
      </trkpt>
      <trkpt lat="49.77386" lon="2.31035">
        <ele>120.1</ele>
        <time>2023-07-12T08:34:47Z</time>
      </trkpt>
      <trkpt lat="49.77385" lon="2.31034">
        <ele>120.2</ele>
        <time>2023-07-12T08:34:48Z</time>
      </trkpt>
      <trkpt lat="49.77384" lon="2.31033">
        <ele>120.2</ele>
        <time>2023-07-12T08:34:50Z</time>
      </trkpt>
      <trkpt lat="49.77383" lon="2.31033">
        <ele>120.2</ele>
        <time>2023-07-12T08:34:51Z</time>
      </trkpt>
      <trkpt lat="49.77382" lon="2.31032">
        <ele>120.2</ele>
        <time>2023-07-12T08:34:52Z</time>
      </trkpt>
      <trkpt lat="49.77381" lon="2.31031">
        <ele>120.3</ele>
        <time>2023-07-12T08:34:53Z</time>
      </trkpt>
      <trkpt lat="49.7738" lon="2.3103">
        <ele>120.3</ele>
        <time>2023-07-12T08:34:54Z</time>
      </trkpt>
      <trkpt lat="49.77379" lon="2.31029">
        <ele>120.3</ele>
        <time>2023-07-12T08:34:55Z</time>
      </trkpt>
      <trkpt lat="49.77378" lon="2.31029">
        <ele>120.4</ele>
        <time>2023-07-12T08:34:57Z</time>
      </trkpt>
      <trkpt lat="49.77377" lon="2.31028">
        <ele>120.4</ele>
        <time>2023-07-12T08:34:58Z</time>
      </trkpt>
      <trkpt lat="49.77375" lon="2.31027">
        <ele>120.4</ele>
        <time>2023-07-12T08:34:59Z</time>
      </trkpt>
      <trkpt lat="49.77374" lon="2.31026">
        <ele>120.4</ele>
        <time>2023-07-12T08:35:00Z</time>
      </trkpt>
      <trkpt lat="49.77373" lon="2.31026">
        <ele>120.4</ele>
        <time>2023-07-12T08:35:01Z</time>
      </trkpt>
      <trkpt lat="49.77372" lon="2.31024">
        <ele>120.5</ele>
        <time>2023-07-12T08:35:02Z</time>
      </trkpt>
      <trkpt lat="49.77371" lon="2.31024">
        <ele>120.5</ele>
        <time>2023-07-12T08:35:04Z</time>
      </trkpt>
      <trkpt lat="49.7737" lon="2.31023">
        <ele>120.5</ele>
        <time>2023-07-12T08:35:05Z</time>
      </trkpt>
      <trkpt lat="49.77369" lon="2.31021">
        <ele>120.5</ele>
        <time>2023-07-12T08:35:06Z</time>
      </trkpt>
      <trkpt lat="49.77368" lon="2.31021">
        <ele>120.5</ele>
        <time>2023-07-12T08:35:07Z</time>
      </trkpt>
      <trkpt lat="49.77367" lon="2.3102">
        <ele>120.5</ele>
        <time>2023-07-12T08:35:08Z</time>
      </trkpt>
      <trkpt lat="49.77366" lon="2.31019">
        <ele>120.5</ele>
        <time>2023-07-12T08:35:09Z</time>
      </trkpt>
      <trkpt lat="49.77365" lon="2.31019">
        <ele>120.5</ele>
        <time>2023-07-12T08:35:10Z</time>
      </trkpt>
      <trkpt lat="49.77364" lon="2.31018">
        <ele>120.5</ele>
        <time>2023-07-12T08:35:12Z</time>
      </trkpt>
      <trkpt lat="49.77363" lon="2.31017">
        <ele>120.5</ele>
        <time>2023-07-12T08:35:13Z</time>
      </trkpt>
      <trkpt lat="49.77362" lon="2.31017">
        <ele>120.6</ele>
        <time>2023-07-12T08:35:14Z</time>
      </trkpt>
      <trkpt lat="49.7736" lon="2.31016">
        <ele>120.6</ele>
        <time>2023-07-12T08:35:15Z</time>
      </trkpt>
      <trkpt lat="49.77359" lon="2.31015">
        <ele>120.6</ele>
        <time>2023-07-12T08:35:16Z</time>
      </trkpt>
      <trkpt lat="49.77358" lon="2.31014">
        <ele>120.6</ele>
        <time>2023-07-12T08:35:17Z</time>
      </trkpt>
      <trkpt lat="49.77357" lon="2.31014">
        <ele>120.6</ele>
        <time>2023-07-12T08:35:18Z</time>
      </trkpt>
      <trkpt lat="49.77356" lon="2.31013">
        <ele>120.6</ele>
        <time>2023-07-12T08:35:20Z</time>
      </trkpt>
      <trkpt lat="49.77354" lon="2.31013">
        <ele>120.7</ele>
        <time>2023-07-12T08:35:21Z</time>
      </trkpt>
      <trkpt lat="49.77352" lon="2.31012">
        <ele>120.7</ele>
        <time>2023-07-12T08:35:22Z</time>
      </trkpt>
      <trkpt lat="49.77351" lon="2.31011">
        <ele>120.7</ele>
        <time>2023-07-12T08:35:23Z</time>
      </trkpt>
      <trkpt lat="49.77351" lon="2.31011">
        <ele>120.7</ele>
        <time>2023-07-12T08:35:24Z</time>
      </trkpt>
      <trkpt lat="49.77349" lon="2.31011">
        <ele>120.7</ele>
        <time>2023-07-12T08:35:25Z</time>
      </trkpt>
      <trkpt lat="49.77348" lon="2.3101">
        <ele>120.7</ele>
        <time>2023-07-12T08:35:27Z</time>
      </trkpt>
      <trkpt lat="49.77347" lon="2.3101">
        <ele>120.8</ele>
        <time>2023-07-12T08:35:28Z</time>
      </trkpt>
      <trkpt lat="49.77345" lon="2.31009">
        <ele>120.8</ele>
        <time>2023-07-12T08:35:29Z</time>
      </trkpt>
      <trkpt lat="49.77344" lon="2.31008">
        <ele>120.8</ele>
        <time>2023-07-12T08:35:30Z</time>
      </trkpt>
      <trkpt lat="49.77343" lon="2.31008">
        <ele>120.8</ele>
        <time>2023-07-12T08:35:31Z</time>
      </trkpt>
      <trkpt lat="49.77342" lon="2.31007">
        <ele>120.8</ele>
        <time>2023-07-12T08:35:32Z</time>
      </trkpt>
      <trkpt lat="49.77341" lon="2.31006">
        <ele>120.8</ele>
        <time>2023-07-12T08:35:34Z</time>
      </trkpt>
      <trkpt lat="49.7734" lon="2.31006">
        <ele>120.8</ele>
        <time>2023-07-12T08:35:35Z</time>
      </trkpt>
      <trkpt lat="49.77339" lon="2.31006">
        <ele>120.9</ele>
        <time>2023-07-12T08:35:36Z</time>
      </trkpt>
      <trkpt lat="49.77338" lon="2.31005">
        <ele>120.9</ele>
        <time>2023-07-12T08:35:37Z</time>
      </trkpt>
      <trkpt lat="49.77337" lon="2.31005">
        <ele>120.9</ele>
        <time>2023-07-12T08:35:38Z</time>
      </trkpt>
      <trkpt lat="49.77336" lon="2.31004">
        <ele>120.9</ele>
        <time>2023-07-12T08:35:39Z</time>
      </trkpt>
      <trkpt lat="49.77335" lon="2.31004">
        <ele>120.9</ele>
        <time>2023-07-12T08:35:40Z</time>
      </trkpt>
      <trkpt lat="49.77333" lon="2.31003">
        <ele>120.9</ele>
        <time>2023-07-12T08:35:42Z</time>
      </trkpt>
      <trkpt lat="49.77332" lon="2.31003">
        <ele>120.9</ele>
        <time>2023-07-12T08:35:43Z</time>
      </trkpt>
      <trkpt lat="49.77331" lon="2.31002">
        <ele>120.9</ele>
        <time>2023-07-12T08:35:44Z</time>
      </trkpt>
      <trkpt lat="49.7733" lon="2.31001">
        <ele>120.9</ele>
        <time>2023-07-12T08:35:45Z</time>
      </trkpt>
      <trkpt lat="49.77329" lon="2.31">
        <ele>121</ele>
        <time>2023-07-12T08:35:46Z</time>
      </trkpt>
      <trkpt lat="49.77328" lon="2.31">
        <ele>121</ele>
        <time>2023-07-12T08:35:47Z</time>
      </trkpt>
      <trkpt lat="49.77327" lon="2.30999">
        <ele>121</ele>
        <time>2023-07-12T08:35:49Z</time>
      </trkpt>
      <trkpt lat="49.77326" lon="2.30998">
        <ele>121</ele>
        <time>2023-07-12T08:35:50Z</time>
      </trkpt>
      <trkpt lat="49.77325" lon="2.30997">
        <ele>121</ele>
        <time>2023-07-12T08:35:51Z</time>
      </trkpt>
      <trkpt lat="49.77323" lon="2.30996">
        <ele>121</ele>
        <time>2023-07-12T08:35:52Z</time>
      </trkpt>
      <trkpt lat="49.77322" lon="2.30995">
        <ele>121</ele>
        <time>2023-07-12T08:35:53Z</time>
      </trkpt>
      <trkpt lat="49.77321" lon="2.30994">
        <ele>121</ele>
        <time>2023-07-12T08:35:54Z</time>
      </trkpt>
      <trkpt lat="49.7732" lon="2.30994">
        <ele>121</ele>
        <time>2023-07-12T08:35:55Z</time>
      </trkpt>
      <trkpt lat="49.77319" lon="2.30993">
        <ele>121</ele>
        <time>2023-07-12T08:35:57Z</time>
      </trkpt>
      <trkpt lat="49.77318" lon="2.30993">
        <ele>121</ele>
        <time>2023-07-12T08:35:58Z</time>
      </trkpt>
      <trkpt lat="49.77317" lon="2.30993">
        <ele>121</ele>
        <time>2023-07-12T08:35:59Z</time>
      </trkpt>
      <trkpt lat="49.77316" lon="2.30992">
        <ele>121.1</ele>
        <time>2023-07-12T08:36:00Z</time>
      </trkpt>
      <trkpt lat="49.77315" lon="2.30992">
        <ele>121.1</ele>
        <time>2023-07-12T08:36:01Z</time>
      </trkpt>
      <trkpt lat="49.77314" lon="2.30991">
        <ele>121.1</ele>
        <time>2023-07-12T08:36:03Z</time>
      </trkpt>
      <trkpt lat="49.77313" lon="2.3099">
        <ele>121.1</ele>
        <time>2023-07-12T08:36:04Z</time>
      </trkpt>
      <trkpt lat="49.77312" lon="2.30989">
        <ele>121.1</ele>
        <time>2023-07-12T08:36:05Z</time>
      </trkpt>
      <trkpt lat="49.77311" lon="2.30988">
        <ele>121.1</ele>
        <time>2023-07-12T08:36:06Z</time>
      </trkpt>
      <trkpt lat="49.7731" lon="2.30987">
        <ele>121.1</ele>
        <time>2023-07-12T08:36:07Z</time>
      </trkpt>
      <trkpt lat="49.77309" lon="2.30986">
        <ele>121.1</ele>
        <time>2023-07-12T08:36:09Z</time>
      </trkpt>
      <trkpt lat="49.77308" lon="2.30986">
        <ele>121.1</ele>
        <time>2023-07-12T08:36:10Z</time>
      </trkpt>
      <trkpt lat="49.77307" lon="2.30986">
        <ele>121.1</ele>
        <time>2023-07-12T08:36:11Z</time>
      </trkpt>
      <trkpt lat="49.77306" lon="2.30986">
        <ele>121.1</ele>
        <time>2023-07-12T08:36:12Z</time>
      </trkpt>
      <trkpt lat="49.77305" lon="2.30985">
        <ele>121.1</ele>
        <time>2023-07-12T08:36:13Z</time>
      </trkpt>
      <trkpt lat="49.77303" lon="2.30984">
        <ele>121.1</ele>
        <time>2023-07-12T08:36:15Z</time>
      </trkpt>
      <trkpt lat="49.77302" lon="2.30984">
        <ele>121.1</ele>
        <time>2023-07-12T08:36:16Z</time>
      </trkpt>
      <trkpt lat="49.77301" lon="2.30984">
        <ele>121.2</ele>
        <time>2023-07-12T08:36:18Z</time>
      </trkpt>
      <trkpt lat="49.773" lon="2.30984">
        <ele>121.2</ele>
        <time>2023-07-12T08:36:19Z</time>
      </trkpt>
      <trkpt lat="49.77299" lon="2.30984">
        <ele>121.2</ele>
        <time>2023-07-12T08:36:20Z</time>
      </trkpt>
      <trkpt lat="49.77298" lon="2.30983">
        <ele>121.2</ele>
        <time>2023-07-12T08:36:21Z</time>
      </trkpt>
      <trkpt lat="49.77297" lon="2.30982">
        <ele>121.2</ele>
        <time>2023-07-12T08:36:22Z</time>
      </trkpt>
      <trkpt lat="49.77296" lon="2.30982">
        <ele>121.2</ele>
        <time>2023-07-12T08:36:23Z</time>
      </trkpt>
      <trkpt lat="49.77295" lon="2.30981">
        <ele>121.2</ele>
        <time>2023-07-12T08:36:25Z</time>
      </trkpt>
      <trkpt lat="49.77294" lon="2.3098">
        <ele>121.2</ele>
        <time>2023-07-12T08:36:26Z</time>
      </trkpt>
      <trkpt lat="49.77293" lon="2.30979">
        <ele>121.2</ele>
        <time>2023-07-12T08:36:27Z</time>
      </trkpt>
      <trkpt lat="49.77292" lon="2.30977">
        <ele>121.2</ele>
        <time>2023-07-12T08:36:28Z</time>
      </trkpt>
      <trkpt lat="49.77291" lon="2.30976">
        <ele>121.2</ele>
        <time>2023-07-12T08:36:29Z</time>
      </trkpt>
      <trkpt lat="49.7729" lon="2.30975">
        <ele>121.2</ele>
        <time>2023-07-12T08:36:31Z</time>
      </trkpt>
      <trkpt lat="49.77289" lon="2.30974">
        <ele>121.2</ele>
        <time>2023-07-12T08:36:32Z</time>
      </trkpt>
      <trkpt lat="49.77288" lon="2.30974">
        <ele>121.2</ele>
        <time>2023-07-12T08:36:33Z</time>
      </trkpt>
      <trkpt lat="49.77287" lon="2.30973">
        <ele>121.2</ele>
        <time>2023-07-12T08:36:34Z</time>
      </trkpt>
      <trkpt lat="49.77286" lon="2.30972">
        <ele>121.2</ele>
        <time>2023-07-12T08:36:35Z</time>
      </trkpt>
      <trkpt lat="49.77285" lon="2.30971">
        <ele>121.2</ele>
        <time>2023-07-12T08:36:36Z</time>
      </trkpt>
      <trkpt lat="49.77284" lon="2.30971">
        <ele>121.2</ele>
        <time>2023-07-12T08:36:38Z</time>
      </trkpt>
      <trkpt lat="49.77282" lon="2.30969">
        <ele>121.2</ele>
        <time>2023-07-12T08:36:39Z</time>
      </trkpt>
      <trkpt lat="49.77281" lon="2.30969">
        <ele>121.2</ele>
        <time>2023-07-12T08:36:40Z</time>
      </trkpt>
      <trkpt lat="49.7728" lon="2.30968">
        <ele>121.2</ele>
        <time>2023-07-12T08:36:41Z</time>
      </trkpt>
      <trkpt lat="49.77279" lon="2.30967">
        <ele>121.2</ele>
        <time>2023-07-12T08:36:42Z</time>
      </trkpt>
      <trkpt lat="49.77278" lon="2.30967">
        <ele>121.3</ele>
        <time>2023-07-12T08:36:43Z</time>
      </trkpt>
      <trkpt lat="49.77277" lon="2.30966">
        <ele>121.3</ele>
        <time>2023-07-12T08:36:45Z</time>
      </trkpt>
      <trkpt lat="49.77276" lon="2.30965">
        <ele>121.3</ele>
        <time>2023-07-12T08:36:46Z</time>
      </trkpt>
      <trkpt lat="49.77275" lon="2.30964">
        <ele>121.3</ele>
        <time>2023-07-12T08:36:47Z</time>
      </trkpt>
      <trkpt lat="49.77274" lon="2.30964">
        <ele>121.3</ele>
        <time>2023-07-12T08:36:48Z</time>
      </trkpt>
      <trkpt lat="49.77273" lon="2.30964">
        <ele>121.3</ele>
        <time>2023-07-12T08:36:49Z</time>
      </trkpt>
      <trkpt lat="49.77272" lon="2.30964">
        <ele>121.3</ele>
        <time>2023-07-12T08:36:51Z</time>
      </trkpt>
      <trkpt lat="49.77271" lon="2.30964">
        <ele>121.3</ele>
        <time>2023-07-12T08:36:52Z</time>
      </trkpt>
      <trkpt lat="49.77269" lon="2.30963">
        <ele>121.3</ele>
        <time>2023-07-12T08:36:53Z</time>
      </trkpt>
      <trkpt lat="49.77268" lon="2.30963">
        <ele>121.3</ele>
        <time>2023-07-12T08:36:54Z</time>
      </trkpt>
      <trkpt lat="49.77267" lon="2.30963">
        <ele>121.3</ele>
        <time>2023-07-12T08:36:55Z</time>
      </trkpt>
      <trkpt lat="49.77266" lon="2.30962">
        <ele>121.3</ele>
        <time>2023-07-12T08:36:56Z</time>
      </trkpt>
      <trkpt lat="49.77265" lon="2.30962">
        <ele>121.3</ele>
        <time>2023-07-12T08:36:58Z</time>
      </trkpt>
      <trkpt lat="49.77264" lon="2.30961">
        <ele>121.3</ele>
        <time>2023-07-12T08:36:59Z</time>
      </trkpt>
      <trkpt lat="49.77262" lon="2.3096">
        <ele>121.3</ele>
        <time>2023-07-12T08:37:00Z</time>
      </trkpt>
      <trkpt lat="49.77261" lon="2.3096">
        <ele>121.3</ele>
        <time>2023-07-12T08:37:01Z</time>
      </trkpt>
      <trkpt lat="49.7726" lon="2.3096">
        <ele>121.3</ele>
        <time>2023-07-12T08:37:02Z</time>
      </trkpt>
      <trkpt lat="49.77258" lon="2.30959">
        <ele>121.3</ele>
        <time>2023-07-12T08:37:03Z</time>
      </trkpt>
      <trkpt lat="49.77257" lon="2.30958">
        <ele>121.3</ele>
        <time>2023-07-12T08:37:04Z</time>
      </trkpt>
      <trkpt lat="49.77257" lon="2.30957">
        <ele>121.3</ele>
        <time>2023-07-12T08:37:06Z</time>
      </trkpt>
      <trkpt lat="49.77256" lon="2.30957">
        <ele>121.3</ele>
        <time>2023-07-12T08:37:07Z</time>
      </trkpt>
      <trkpt lat="49.77255" lon="2.30956">
        <ele>121.3</ele>
        <time>2023-07-12T08:37:08Z</time>
      </trkpt>
      <trkpt lat="49.77254" lon="2.30956">
        <ele>121.3</ele>
        <time>2023-07-12T08:37:09Z</time>
      </trkpt>
      <trkpt lat="49.77253" lon="2.30955">
        <ele>121.3</ele>
        <time>2023-07-12T08:37:10Z</time>
      </trkpt>
      <trkpt lat="49.77252" lon="2.30954">
        <ele>121.3</ele>
        <time>2023-07-12T08:37:11Z</time>
      </trkpt>
      <trkpt lat="49.77251" lon="2.30953">
        <ele>121.3</ele>
        <time>2023-07-12T08:37:12Z</time>
      </trkpt>
      <trkpt lat="49.77249" lon="2.30952">
        <ele>121.3</ele>
        <time>2023-07-12T08:37:14Z</time>
      </trkpt>
      <trkpt lat="49.77248" lon="2.30952">
        <ele>121.3</ele>
        <time>2023-07-12T08:37:15Z</time>
      </trkpt>
      <trkpt lat="49.77247" lon="2.30952">
        <ele>121.3</ele>
        <time>2023-07-12T08:37:16Z</time>
      </trkpt>
      <trkpt lat="49.77245" lon="2.30951">
        <ele>121.3</ele>
        <time>2023-07-12T08:37:17Z</time>
      </trkpt>
      <trkpt lat="49.77244" lon="2.3095">
        <ele>121.3</ele>
        <time>2023-07-12T08:37:18Z</time>
      </trkpt>
      <trkpt lat="49.77244" lon="2.3095">
        <ele>121.3</ele>
        <time>2023-07-12T08:37:19Z</time>
      </trkpt>
      <trkpt lat="49.77242" lon="2.30949">
        <ele>121.4</ele>
        <time>2023-07-12T08:37:20Z</time>
      </trkpt>
      <trkpt lat="49.77241" lon="2.30949">
        <ele>121.4</ele>
        <time>2023-07-12T08:37:22Z</time>
      </trkpt>
      <trkpt lat="49.7724" lon="2.30949">
        <ele>121.4</ele>
        <time>2023-07-12T08:37:23Z</time>
      </trkpt>
      <trkpt lat="49.77239" lon="2.30948">
        <ele>121.4</ele>
        <time>2023-07-12T08:37:24Z</time>
      </trkpt>
      <trkpt lat="49.77238" lon="2.30947">
        <ele>121.4</ele>
        <time>2023-07-12T08:37:25Z</time>
      </trkpt>
      <trkpt lat="49.77237" lon="2.30947">
        <ele>121.4</ele>
        <time>2023-07-12T08:37:26Z</time>
      </trkpt>
      <trkpt lat="49.77235" lon="2.30946">
        <ele>121.4</ele>
        <time>2023-07-12T08:37:27Z</time>
      </trkpt>
      <trkpt lat="49.77234" lon="2.30945">
        <ele>121.4</ele>
        <time>2023-07-12T08:37:29Z</time>
      </trkpt>
      <trkpt lat="49.77233" lon="2.30945">
        <ele>121.4</ele>
        <time>2023-07-12T08:37:30Z</time>
      </trkpt>
      <trkpt lat="49.77231" lon="2.30945">
        <ele>121.4</ele>
        <time>2023-07-12T08:37:31Z</time>
      </trkpt>
      <trkpt lat="49.7723" lon="2.30944">
        <ele>121.5</ele>
        <time>2023-07-12T08:37:32Z</time>
      </trkpt>
      <trkpt lat="49.7723" lon="2.30944">
        <ele>121.5</ele>
        <time>2023-07-12T08:37:33Z</time>
      </trkpt>
      <trkpt lat="49.77227" lon="2.30943">
        <ele>121.5</ele>
        <time>2023-07-12T08:37:34Z</time>
      </trkpt>
      <trkpt lat="49.77226" lon="2.30943">
        <ele>121.5</ele>
        <time>2023-07-12T08:37:36Z</time>
      </trkpt>
      <trkpt lat="49.77226" lon="2.30943">
        <ele>121.5</ele>
        <time>2023-07-12T08:37:37Z</time>
      </trkpt>
      <trkpt lat="49.77224" lon="2.30942">
        <ele>121.5</ele>
        <time>2023-07-12T08:37:38Z</time>
      </trkpt>
      <trkpt lat="49.77223" lon="2.30941">
        <ele>121.5</ele>
        <time>2023-07-12T08:37:39Z</time>
      </trkpt>
      <trkpt lat="49.77222" lon="2.30941">
        <ele>121.5</ele>
        <time>2023-07-12T08:37:40Z</time>
      </trkpt>
      <trkpt lat="49.7722" lon="2.3094">
        <ele>121.5</ele>
        <time>2023-07-12T08:37:41Z</time>
      </trkpt>
      <trkpt lat="49.77219" lon="2.3094">
        <ele>121.6</ele>
        <time>2023-07-12T08:37:43Z</time>
      </trkpt>
      <trkpt lat="49.77218" lon="2.30939">
        <ele>121.6</ele>
        <time>2023-07-12T08:37:44Z</time>
      </trkpt>
      <trkpt lat="49.77216" lon="2.30938">
        <ele>121.6</ele>
        <time>2023-07-12T08:37:45Z</time>
      </trkpt>
      <trkpt lat="49.77216" lon="2.30937">
        <ele>121.6</ele>
        <time>2023-07-12T08:37:46Z</time>
      </trkpt>
      <trkpt lat="49.77215" lon="2.30937">
        <ele>121.6</ele>
        <time>2023-07-12T08:37:47Z</time>
      </trkpt>
      <trkpt lat="49.77214" lon="2.30936">
        <ele>121.6</ele>
        <time>2023-07-12T08:37:48Z</time>
      </trkpt>
      <trkpt lat="49.77213" lon="2.30936">
        <ele>121.6</ele>
        <time>2023-07-12T08:37:50Z</time>
      </trkpt>
      <trkpt lat="49.77212" lon="2.30936">
        <ele>121.6</ele>
        <time>2023-07-12T08:37:51Z</time>
      </trkpt>
      <trkpt lat="49.77211" lon="2.30936">
        <ele>121.6</ele>
        <time>2023-07-12T08:37:52Z</time>
      </trkpt>
      <trkpt lat="49.77209" lon="2.30935">
        <ele>121.7</ele>
        <time>2023-07-12T08:37:53Z</time>
      </trkpt>
      <trkpt lat="49.77209" lon="2.30935">
        <ele>121.7</ele>
        <time>2023-07-12T08:37:54Z</time>
      </trkpt>
      <trkpt lat="49.77207" lon="2.30934">
        <ele>121.7</ele>
        <time>2023-07-12T08:37:55Z</time>
      </trkpt>
      <trkpt lat="49.77206" lon="2.30934">
        <ele>121.7</ele>
        <time>2023-07-12T08:37:57Z</time>
      </trkpt>
      <trkpt lat="49.77205" lon="2.30933">
        <ele>121.7</ele>
        <time>2023-07-12T08:37:58Z</time>
      </trkpt>
      <trkpt lat="49.77203" lon="2.30932">
        <ele>121.7</ele>
        <time>2023-07-12T08:37:59Z</time>
      </trkpt>
      <trkpt lat="49.77203" lon="2.30931">
        <ele>121.7</ele>
        <time>2023-07-12T08:38:00Z</time>
      </trkpt>
      <trkpt lat="49.77202" lon="2.3093">
        <ele>121.7</ele>
        <time>2023-07-12T08:38:01Z</time>
      </trkpt>
      <trkpt lat="49.77201" lon="2.3093">
        <ele>121.7</ele>
        <time>2023-07-12T08:38:02Z</time>
      </trkpt>
      <trkpt lat="49.772" lon="2.30929">
        <ele>121.8</ele>
        <time>2023-07-12T08:38:04Z</time>
      </trkpt>
      <trkpt lat="49.77199" lon="2.30929">
        <ele>121.8</ele>
        <time>2023-07-12T08:38:05Z</time>
      </trkpt>
      <trkpt lat="49.77197" lon="2.30928">
        <ele>121.8</ele>
        <time>2023-07-12T08:38:06Z</time>
      </trkpt>
      <trkpt lat="49.77196" lon="2.30927">
        <ele>121.8</ele>
        <time>2023-07-12T08:38:07Z</time>
      </trkpt>
      <trkpt lat="49.77195" lon="2.30926">
        <ele>121.8</ele>
        <time>2023-07-12T08:38:08Z</time>
      </trkpt>
      <trkpt lat="49.77195" lon="2.30925">
        <ele>121.8</ele>
        <time>2023-07-12T08:38:09Z</time>
      </trkpt>
      <trkpt lat="49.77193" lon="2.30924">
        <ele>121.8</ele>
        <time>2023-07-12T08:38:11Z</time>
      </trkpt>
      <trkpt lat="49.77192" lon="2.30923">
        <ele>121.8</ele>
        <time>2023-07-12T08:38:12Z</time>
      </trkpt>
      <trkpt lat="49.77191" lon="2.30922">
        <ele>121.8</ele>
        <time>2023-07-12T08:38:13Z</time>
      </trkpt>
      <trkpt lat="49.7719" lon="2.30922">
        <ele>121.9</ele>
        <time>2023-07-12T08:38:14Z</time>
      </trkpt>
      <trkpt lat="49.77189" lon="2.30921">
        <ele>121.9</ele>
        <time>2023-07-12T08:38:15Z</time>
      </trkpt>
      <trkpt lat="49.77188" lon="2.3092">
        <ele>121.9</ele>
        <time>2023-07-12T08:38:16Z</time>
      </trkpt>
      <trkpt lat="49.77187" lon="2.3092">
        <ele>121.9</ele>
        <time>2023-07-12T08:38:17Z</time>
      </trkpt>
      <trkpt lat="49.77186" lon="2.30919">
        <ele>121.9</ele>
        <time>2023-07-12T08:38:19Z</time>
      </trkpt>
      <trkpt lat="49.77185" lon="2.30918">
        <ele>121.9</ele>
        <time>2023-07-12T08:38:20Z</time>
      </trkpt>
      <trkpt lat="49.77184" lon="2.30917">
        <ele>121.9</ele>
        <time>2023-07-12T08:38:21Z</time>
      </trkpt>
      <trkpt lat="49.77183" lon="2.30917">
        <ele>121.9</ele>
        <time>2023-07-12T08:38:22Z</time>
      </trkpt>
      <trkpt lat="49.77182" lon="2.30916">
        <ele>121.9</ele>
        <time>2023-07-12T08:38:23Z</time>
      </trkpt>
      <trkpt lat="49.77181" lon="2.30915">
        <ele>122</ele>
        <time>2023-07-12T08:38:24Z</time>
      </trkpt>
      <trkpt lat="49.77179" lon="2.30915">
        <ele>122</ele>
        <time>2023-07-12T08:38:26Z</time>
      </trkpt>
      <trkpt lat="49.77178" lon="2.30914">
        <ele>122</ele>
        <time>2023-07-12T08:38:27Z</time>
      </trkpt>
      <trkpt lat="49.77177" lon="2.30914">
        <ele>122</ele>
        <time>2023-07-12T08:38:28Z</time>
      </trkpt>
      <trkpt lat="49.77175" lon="2.30913">
        <ele>122</ele>
        <time>2023-07-12T08:38:29Z</time>
      </trkpt>
      <trkpt lat="49.77174" lon="2.30913">
        <ele>122</ele>
        <time>2023-07-12T08:38:30Z</time>
      </trkpt>
      <trkpt lat="49.77173" lon="2.30912">
        <ele>122</ele>
        <time>2023-07-12T08:38:31Z</time>
      </trkpt>
      <trkpt lat="49.77171" lon="2.30911">
        <ele>122</ele>
        <time>2023-07-12T08:38:32Z</time>
      </trkpt>
      <trkpt lat="49.77171" lon="2.3091">
        <ele>122</ele>
        <time>2023-07-12T08:38:34Z</time>
      </trkpt>
      <trkpt lat="49.7717" lon="2.30909">
        <ele>122</ele>
        <time>2023-07-12T08:38:35Z</time>
      </trkpt>
      <trkpt lat="49.77168" lon="2.30908">
        <ele>122.1</ele>
        <time>2023-07-12T08:38:36Z</time>
      </trkpt>
      <trkpt lat="49.77167" lon="2.30908">
        <ele>122.1</ele>
        <time>2023-07-12T08:38:37Z</time>
      </trkpt>
      <trkpt lat="49.77166" lon="2.30907">
        <ele>122.1</ele>
        <time>2023-07-12T08:38:38Z</time>
      </trkpt>
      <trkpt lat="49.77165" lon="2.30906">
        <ele>122.1</ele>
        <time>2023-07-12T08:38:39Z</time>
      </trkpt>
      <trkpt lat="49.77164" lon="2.30906">
        <ele>122.1</ele>
        <time>2023-07-12T08:38:41Z</time>
      </trkpt>
      <trkpt lat="49.77163" lon="2.30905">
        <ele>122.1</ele>
        <time>2023-07-12T08:38:42Z</time>
      </trkpt>
      <trkpt lat="49.77162" lon="2.30905">
        <ele>122.1</ele>
        <time>2023-07-12T08:38:43Z</time>
      </trkpt>
      <trkpt lat="49.77161" lon="2.30904">
        <ele>122.1</ele>
        <time>2023-07-12T08:38:44Z</time>
      </trkpt>
      <trkpt lat="49.7716" lon="2.30904">
        <ele>122.1</ele>
        <time>2023-07-12T08:38:45Z</time>
      </trkpt>
      <trkpt lat="49.77159" lon="2.30903">
        <ele>122.1</ele>
        <time>2023-07-12T08:38:46Z</time>
      </trkpt>
      <trkpt lat="49.77157" lon="2.30903">
        <ele>122.1</ele>
        <time>2023-07-12T08:38:47Z</time>
      </trkpt>
      <trkpt lat="49.77156" lon="2.30903">
        <ele>122.1</ele>
        <time>2023-07-12T08:38:49Z</time>
      </trkpt>
      <trkpt lat="49.77155" lon="2.30902">
        <ele>122.1</ele>
        <time>2023-07-12T08:38:50Z</time>
      </trkpt>
      <trkpt lat="49.77154" lon="2.30902">
        <ele>122.1</ele>
        <time>2023-07-12T08:38:51Z</time>
      </trkpt>
      <trkpt lat="49.77153" lon="2.30902">
        <ele>122.1</ele>
        <time>2023-07-12T08:38:52Z</time>
      </trkpt>
      <trkpt lat="49.77152" lon="2.30901">
        <ele>122.1</ele>
        <time>2023-07-12T08:38:53Z</time>
      </trkpt>
      <trkpt lat="49.77151" lon="2.309">
        <ele>122.1</ele>
        <time>2023-07-12T08:38:54Z</time>
      </trkpt>
      <trkpt lat="49.7715" lon="2.309">
        <ele>122.1</ele>
        <time>2023-07-12T08:38:55Z</time>
      </trkpt>
      <trkpt lat="49.77149" lon="2.30899">
        <ele>122.1</ele>
        <time>2023-07-12T08:38:57Z</time>
      </trkpt>
      <trkpt lat="49.77148" lon="2.30898">
        <ele>122.1</ele>
        <time>2023-07-12T08:38:58Z</time>
      </trkpt>
      <trkpt lat="49.77147" lon="2.30897">
        <ele>122.1</ele>
        <time>2023-07-12T08:38:59Z</time>
      </trkpt>
      <trkpt lat="49.77146" lon="2.30896">
        <ele>122.1</ele>
        <time>2023-07-12T08:39:00Z</time>
      </trkpt>
      <trkpt lat="49.77145" lon="2.30896">
        <ele>122.1</ele>
        <time>2023-07-12T08:39:01Z</time>
      </trkpt>
      <trkpt lat="49.77144" lon="2.30895">
        <ele>122.1</ele>
        <time>2023-07-12T08:39:02Z</time>
      </trkpt>
      <trkpt lat="49.77142" lon="2.30894">
        <ele>122.1</ele>
        <time>2023-07-12T08:39:04Z</time>
      </trkpt>
      <trkpt lat="49.77141" lon="2.30894">
        <ele>122.1</ele>
        <time>2023-07-12T08:39:05Z</time>
      </trkpt>
      <trkpt lat="49.7714" lon="2.30893">
        <ele>122.1</ele>
        <time>2023-07-12T08:39:06Z</time>
      </trkpt>
      <trkpt lat="49.77138" lon="2.30892">
        <ele>122.1</ele>
        <time>2023-07-12T08:39:07Z</time>
      </trkpt>
      <trkpt lat="49.77137" lon="2.30892">
        <ele>122.1</ele>
        <time>2023-07-12T08:39:08Z</time>
      </trkpt>
      <trkpt lat="49.77137" lon="2.30892">
        <ele>122.1</ele>
        <time>2023-07-12T08:39:09Z</time>
      </trkpt>
      <trkpt lat="49.77135" lon="2.30891">
        <ele>122.1</ele>
        <time>2023-07-12T08:39:10Z</time>
      </trkpt>
      <trkpt lat="49.77134" lon="2.30891">
        <ele>122.1</ele>
        <time>2023-07-12T08:39:12Z</time>
      </trkpt>
      <trkpt lat="49.77133" lon="2.30891">
        <ele>122.1</ele>
        <time>2023-07-12T08:39:13Z</time>
      </trkpt>
      <trkpt lat="49.77132" lon="2.3089">
        <ele>122.1</ele>
        <time>2023-07-12T08:39:14Z</time>
      </trkpt>
      <trkpt lat="49.7713" lon="2.30889">
        <ele>122.1</ele>
        <time>2023-07-12T08:39:15Z</time>
      </trkpt>
      <trkpt lat="49.77129" lon="2.30889">
        <ele>122.1</ele>
        <time>2023-07-12T08:39:16Z</time>
      </trkpt>
      <trkpt lat="49.77128" lon="2.30888">
        <ele>122.1</ele>
        <time>2023-07-12T08:39:17Z</time>
      </trkpt>
      <trkpt lat="49.77127" lon="2.30888">
        <ele>122.1</ele>
        <time>2023-07-12T08:39:18Z</time>
      </trkpt>
      <trkpt lat="49.77125" lon="2.30887">
        <ele>122.1</ele>
        <time>2023-07-12T08:39:20Z</time>
      </trkpt>
      <trkpt lat="49.77124" lon="2.30886">
        <ele>122.1</ele>
        <time>2023-07-12T08:39:21Z</time>
      </trkpt>
      <trkpt lat="49.77123" lon="2.30886">
        <ele>122.1</ele>
        <time>2023-07-12T08:39:22Z</time>
      </trkpt>
      <trkpt lat="49.77122" lon="2.30885">
        <ele>122.1</ele>
        <time>2023-07-12T08:39:23Z</time>
      </trkpt>
      <trkpt lat="49.77121" lon="2.30884">
        <ele>122.1</ele>
        <time>2023-07-12T08:39:24Z</time>
      </trkpt>
      <trkpt lat="49.7712" lon="2.30884">
        <ele>122.1</ele>
        <time>2023-07-12T08:39:25Z</time>
      </trkpt>
      <trkpt lat="49.77119" lon="2.30883">
        <ele>122.1</ele>
        <time>2023-07-12T08:39:26Z</time>
      </trkpt>
      <trkpt lat="49.77118" lon="2.30882">
        <ele>122.1</ele>
        <time>2023-07-12T08:39:28Z</time>
      </trkpt>
      <trkpt lat="49.77117" lon="2.30881">
        <ele>122.1</ele>
        <time>2023-07-12T08:39:29Z</time>
      </trkpt>
      <trkpt lat="49.77116" lon="2.3088">
        <ele>122.1</ele>
        <time>2023-07-12T08:39:30Z</time>
      </trkpt>
      <trkpt lat="49.77115" lon="2.30879">
        <ele>122.1</ele>
        <time>2023-07-12T08:39:31Z</time>
      </trkpt>
      <trkpt lat="49.77114" lon="2.30879">
        <ele>122.1</ele>
        <time>2023-07-12T08:39:32Z</time>
      </trkpt>
      <trkpt lat="49.77112" lon="2.30878">
        <ele>122.1</ele>
        <time>2023-07-12T08:39:33Z</time>
      </trkpt>
      <trkpt lat="49.77111" lon="2.30878">
        <ele>122.1</ele>
        <time>2023-07-12T08:39:34Z</time>
      </trkpt>
      <trkpt lat="49.7711" lon="2.30877">
        <ele>122.1</ele>
        <time>2023-07-12T08:39:36Z</time>
      </trkpt>
      <trkpt lat="49.77109" lon="2.30877">
        <ele>122.1</ele>
        <time>2023-07-12T08:39:37Z</time>
      </trkpt>
      <trkpt lat="49.77108" lon="2.30876">
        <ele>122.1</ele>
        <time>2023-07-12T08:39:38Z</time>
      </trkpt>
      <trkpt lat="49.77107" lon="2.30876">
        <ele>122.1</ele>
        <time>2023-07-12T08:39:39Z</time>
      </trkpt>
      <trkpt lat="49.77106" lon="2.30875">
        <ele>122.1</ele>
        <time>2023-07-12T08:39:40Z</time>
      </trkpt>
      <trkpt lat="49.77105" lon="2.30875">
        <ele>122.1</ele>
        <time>2023-07-12T08:39:41Z</time>
      </trkpt>
      <trkpt lat="49.77104" lon="2.30874">
        <ele>122</ele>
        <time>2023-07-12T08:39:42Z</time>
      </trkpt>
      <trkpt lat="49.77102" lon="2.30873">
        <ele>122</ele>
        <time>2023-07-12T08:39:43Z</time>
      </trkpt>
      <trkpt lat="49.77101" lon="2.30872">
        <ele>122</ele>
        <time>2023-07-12T08:39:45Z</time>
      </trkpt>
      <trkpt lat="49.771" lon="2.30872">
        <ele>122</ele>
        <time>2023-07-12T08:39:46Z</time>
      </trkpt>
      <trkpt lat="49.77099" lon="2.30871">
        <ele>122</ele>
        <time>2023-07-12T08:39:47Z</time>
      </trkpt>
      <trkpt lat="49.77098" lon="2.3087">
        <ele>122</ele>
        <time>2023-07-12T08:39:48Z</time>
      </trkpt>
      <trkpt lat="49.77096" lon="2.30869">
        <ele>122</ele>
        <time>2023-07-12T08:39:49Z</time>
      </trkpt>
      <trkpt lat="49.77095" lon="2.30868">
        <ele>122</ele>
        <time>2023-07-12T08:39:50Z</time>
      </trkpt>
      <trkpt lat="49.77094" lon="2.30868">
        <ele>122</ele>
        <time>2023-07-12T08:39:51Z</time>
      </trkpt>
      <trkpt lat="49.77093" lon="2.30867">
        <ele>122</ele>
        <time>2023-07-12T08:39:52Z</time>
      </trkpt>
      <trkpt lat="49.77092" lon="2.30866">
        <ele>122</ele>
        <time>2023-07-12T08:39:54Z</time>
      </trkpt>
      <trkpt lat="49.7709" lon="2.30865">
        <ele>122</ele>
        <time>2023-07-12T08:39:56Z</time>
      </trkpt>
      <trkpt lat="49.77089" lon="2.30865">
        <ele>122</ele>
        <time>2023-07-12T08:39:57Z</time>
      </trkpt>
      <trkpt lat="49.77088" lon="2.30864">
        <ele>122</ele>
        <time>2023-07-12T08:39:59Z</time>
      </trkpt>
      <trkpt lat="49.77087" lon="2.30864">
        <ele>122</ele>
        <time>2023-07-12T08:40:00Z</time>
      </trkpt>
      <trkpt lat="49.77087" lon="2.30864">
        <ele>122</ele>
        <time>2023-07-12T08:40:02Z</time>
      </trkpt>
      <trkpt lat="49.77087" lon="2.30865">
        <ele>122</ele>
        <time>2023-07-12T08:40:03Z</time>
      </trkpt>
      <trkpt lat="49.77087" lon="2.30865">
        <ele>122</ele>
        <time>2023-07-12T08:40:04Z</time>
      </trkpt>
      <trkpt lat="49.77087" lon="2.30865">
        <ele>122</ele>
        <time>2023-07-12T08:40:05Z</time>
      </trkpt>
      <trkpt lat="49.77087" lon="2.30865">
        <ele>121.9</ele>
        <time>2023-07-12T08:40:07Z</time>
      </trkpt>
      <trkpt lat="49.77086" lon="2.30865">
        <ele>121.9</ele>
        <time>2023-07-12T08:40:09Z</time>
      </trkpt>
      <trkpt lat="49.77086" lon="2.30865">
        <ele>121.9</ele>
        <time>2023-07-12T08:40:10Z</time>
      </trkpt>
      <trkpt lat="49.77087" lon="2.30865">
        <ele>121.9</ele>
        <time>2023-07-12T08:40:12Z</time>
      </trkpt>
      <trkpt lat="49.77087" lon="2.30866">
        <ele>121.9</ele>
        <time>2023-07-12T08:40:13Z</time>
      </trkpt>
      <trkpt lat="49.77087" lon="2.30867">
        <ele>121.9</ele>
        <time>2023-07-12T08:40:15Z</time>
      </trkpt>
      <trkpt lat="49.77087" lon="2.30867">
        <ele>121.9</ele>
        <time>2023-07-12T08:40:16Z</time>
      </trkpt>
      <trkpt lat="49.77088" lon="2.30868">
        <ele>121.9</ele>
        <time>2023-07-12T08:40:17Z</time>
      </trkpt>
      <trkpt lat="49.77089" lon="2.30869">
        <ele>121.9</ele>
        <time>2023-07-12T08:40:18Z</time>
      </trkpt>
      <trkpt lat="49.77089" lon="2.30869">
        <ele>121.9</ele>
        <time>2023-07-12T08:40:19Z</time>
      </trkpt>
      <trkpt lat="49.77089" lon="2.30869">
        <ele>121.9</ele>
        <time>2023-07-12T08:40:20Z</time>
      </trkpt>
      <trkpt lat="49.77089" lon="2.30869">
        <ele>121.9</ele>
        <time>2023-07-12T08:40:21Z</time>
      </trkpt>
      <trkpt lat="49.77089" lon="2.30869">
        <ele>121.9</ele>
        <time>2023-07-12T08:40:22Z</time>
      </trkpt>
      <trkpt lat="49.77088" lon="2.30869">
        <ele>121.9</ele>
        <time>2023-07-12T08:40:23Z</time>
      </trkpt>
      <trkpt lat="49.77088" lon="2.3087">
        <ele>121.9</ele>
        <time>2023-07-12T08:40:24Z</time>
      </trkpt>
      <trkpt lat="49.77087" lon="2.3087">
        <ele>121.9</ele>
        <time>2023-07-12T08:40:26Z</time>
      </trkpt>
      <trkpt lat="49.77086" lon="2.3087">
        <ele>121.9</ele>
        <time>2023-07-12T08:40:27Z</time>
      </trkpt>
      <trkpt lat="49.77085" lon="2.3087">
        <ele>121.9</ele>
        <time>2023-07-12T08:40:28Z</time>
      </trkpt>
      <trkpt lat="49.77084" lon="2.30869">
        <ele>121.9</ele>
        <time>2023-07-12T08:40:29Z</time>
      </trkpt>
      <trkpt lat="49.77082" lon="2.30869">
        <ele>121.9</ele>
        <time>2023-07-12T08:40:30Z</time>
      </trkpt>
      <trkpt lat="49.77081" lon="2.30867">
        <ele>121.9</ele>
        <time>2023-07-12T08:40:31Z</time>
      </trkpt>
      <trkpt lat="49.7708" lon="2.30867">
        <ele>121.9</ele>
        <time>2023-07-12T08:40:32Z</time>
      </trkpt>
      <trkpt lat="49.77079" lon="2.30866">
        <ele>121.9</ele>
        <time>2023-07-12T08:40:33Z</time>
      </trkpt>
      <trkpt lat="49.77078" lon="2.30866">
        <ele>121.9</ele>
        <time>2023-07-12T08:40:35Z</time>
      </trkpt>
      <trkpt lat="49.77078" lon="2.30865">
        <ele>121.8</ele>
        <time>2023-07-12T08:40:36Z</time>
      </trkpt>
      <trkpt lat="49.77077" lon="2.30864">
        <ele>121.8</ele>
        <time>2023-07-12T08:40:37Z</time>
      </trkpt>
      <trkpt lat="49.77076" lon="2.30864">
        <ele>121.8</ele>
        <time>2023-07-12T08:40:38Z</time>
      </trkpt>
      <trkpt lat="49.77075" lon="2.30863">
        <ele>121.8</ele>
        <time>2023-07-12T08:40:39Z</time>
      </trkpt>
      <trkpt lat="49.77075" lon="2.30861">
        <ele>121.8</ele>
        <time>2023-07-12T08:40:40Z</time>
      </trkpt>
      <trkpt lat="49.77074" lon="2.3086">
        <ele>121.8</ele>
        <time>2023-07-12T08:40:41Z</time>
      </trkpt>
      <trkpt lat="49.77073" lon="2.30859">
        <ele>121.8</ele>
        <time>2023-07-12T08:40:42Z</time>
      </trkpt>
      <trkpt lat="49.77072" lon="2.30858">
        <ele>121.8</ele>
        <time>2023-07-12T08:40:43Z</time>
      </trkpt>
      <trkpt lat="49.7707" lon="2.30857">
        <ele>121.8</ele>
        <time>2023-07-12T08:40:45Z</time>
      </trkpt>
      <trkpt lat="49.77069" lon="2.30856">
        <ele>121.8</ele>
        <time>2023-07-12T08:40:46Z</time>
      </trkpt>
      <trkpt lat="49.77067" lon="2.30855">
        <ele>121.8</ele>
        <time>2023-07-12T08:40:47Z</time>
      </trkpt>
      <trkpt lat="49.77066" lon="2.30854">
        <ele>121.8</ele>
        <time>2023-07-12T08:40:48Z</time>
      </trkpt>
      <trkpt lat="49.77064" lon="2.30853">
        <ele>121.8</ele>
        <time>2023-07-12T08:40:49Z</time>
      </trkpt>
      <trkpt lat="49.77063" lon="2.30852">
        <ele>121.7</ele>
        <time>2023-07-12T08:40:50Z</time>
      </trkpt>
      <trkpt lat="49.77061" lon="2.30851">
        <ele>121.7</ele>
        <time>2023-07-12T08:40:51Z</time>
      </trkpt>
      <trkpt lat="49.7706" lon="2.3085">
        <ele>121.7</ele>
        <time>2023-07-12T08:40:53Z</time>
      </trkpt>
      <trkpt lat="49.77059" lon="2.30849">
        <ele>121.7</ele>
        <time>2023-07-12T08:40:54Z</time>
      </trkpt>
      <trkpt lat="49.77057" lon="2.30848">
        <ele>121.7</ele>
        <time>2023-07-12T08:40:55Z</time>
      </trkpt>
      <trkpt lat="49.77056" lon="2.30847">
        <ele>121.7</ele>
        <time>2023-07-12T08:40:56Z</time>
      </trkpt>
      <trkpt lat="49.77055" lon="2.30845">
        <ele>121.6</ele>
        <time>2023-07-12T08:40:57Z</time>
      </trkpt>
      <trkpt lat="49.77054" lon="2.30844">
        <ele>121.6</ele>
        <time>2023-07-12T08:40:58Z</time>
      </trkpt>
      <trkpt lat="49.77052" lon="2.30843">
        <ele>121.6</ele>
        <time>2023-07-12T08:40:59Z</time>
      </trkpt>
      <trkpt lat="49.77051" lon="2.30842">
        <ele>121.6</ele>
        <time>2023-07-12T08:41:00Z</time>
      </trkpt>
      <trkpt lat="49.7705" lon="2.30841">
        <ele>121.5</ele>
        <time>2023-07-12T08:41:02Z</time>
      </trkpt>
      <trkpt lat="49.77049" lon="2.3084">
        <ele>121.5</ele>
        <time>2023-07-12T08:41:03Z</time>
      </trkpt>
      <trkpt lat="49.77048" lon="2.30839">
        <ele>121.5</ele>
        <time>2023-07-12T08:41:04Z</time>
      </trkpt>
      <trkpt lat="49.77046" lon="2.30838">
        <ele>121.4</ele>
        <time>2023-07-12T08:41:05Z</time>
      </trkpt>
      <trkpt lat="49.77045" lon="2.30838">
        <ele>121.4</ele>
        <time>2023-07-12T08:41:06Z</time>
      </trkpt>
      <trkpt lat="49.77044" lon="2.30838">
        <ele>121.4</ele>
        <time>2023-07-12T08:41:07Z</time>
      </trkpt>
      <trkpt lat="49.77043" lon="2.30837">
        <ele>121.4</ele>
        <time>2023-07-12T08:41:08Z</time>
      </trkpt>
      <trkpt lat="49.77042" lon="2.30837">
        <ele>121.3</ele>
        <time>2023-07-12T08:41:09Z</time>
      </trkpt>
      <trkpt lat="49.77041" lon="2.30836">
        <ele>121.3</ele>
        <time>2023-07-12T08:41:11Z</time>
      </trkpt>
      <trkpt lat="49.7704" lon="2.30835">
        <ele>121.3</ele>
        <time>2023-07-12T08:41:12Z</time>
      </trkpt>
      <trkpt lat="49.77039" lon="2.30835">
        <ele>121.2</ele>
        <time>2023-07-12T08:41:13Z</time>
      </trkpt>
      <trkpt lat="49.77037" lon="2.30835">
        <ele>121.2</ele>
        <time>2023-07-12T08:41:14Z</time>
      </trkpt>
      <trkpt lat="49.77036" lon="2.30834">
        <ele>121.2</ele>
        <time>2023-07-12T08:41:15Z</time>
      </trkpt>
      <trkpt lat="49.77035" lon="2.30834">
        <ele>121.1</ele>
        <time>2023-07-12T08:41:16Z</time>
      </trkpt>
      <trkpt lat="49.77034" lon="2.30833">
        <ele>121.1</ele>
        <time>2023-07-12T08:41:17Z</time>
      </trkpt>
      <trkpt lat="49.77033" lon="2.30832">
        <ele>121</ele>
        <time>2023-07-12T08:41:18Z</time>
      </trkpt>
      <trkpt lat="49.77032" lon="2.30831">
        <ele>121</ele>
        <time>2023-07-12T08:41:20Z</time>
      </trkpt>
      <trkpt lat="49.77031" lon="2.30831">
        <ele>121</ele>
        <time>2023-07-12T08:41:21Z</time>
      </trkpt>
      <trkpt lat="49.7703" lon="2.3083">
        <ele>120.9</ele>
        <time>2023-07-12T08:41:22Z</time>
      </trkpt>
      <trkpt lat="49.77029" lon="2.3083">
        <ele>120.9</ele>
        <time>2023-07-12T08:41:23Z</time>
      </trkpt>
      <trkpt lat="49.77028" lon="2.30829">
        <ele>120.8</ele>
        <time>2023-07-12T08:41:24Z</time>
      </trkpt>
      <trkpt lat="49.77027" lon="2.30829">
        <ele>120.8</ele>
        <time>2023-07-12T08:41:25Z</time>
      </trkpt>
      <trkpt lat="49.77026" lon="2.30829">
        <ele>120.7</ele>
        <time>2023-07-12T08:41:27Z</time>
      </trkpt>
      <trkpt lat="49.77025" lon="2.30828">
        <ele>120.7</ele>
        <time>2023-07-12T08:41:28Z</time>
      </trkpt>
      <trkpt lat="49.77023" lon="2.30828">
        <ele>120.6</ele>
        <time>2023-07-12T08:41:29Z</time>
      </trkpt>
      <trkpt lat="49.77022" lon="2.30827">
        <ele>120.6</ele>
        <time>2023-07-12T08:41:30Z</time>
      </trkpt>
      <trkpt lat="49.77021" lon="2.30827">
        <ele>120.6</ele>
        <time>2023-07-12T08:41:31Z</time>
      </trkpt>
      <trkpt lat="49.7702" lon="2.30827">
        <ele>120.5</ele>
        <time>2023-07-12T08:41:32Z</time>
      </trkpt>
      <trkpt lat="49.77019" lon="2.30826">
        <ele>120.5</ele>
        <time>2023-07-12T08:41:34Z</time>
      </trkpt>
      <trkpt lat="49.77018" lon="2.30826">
        <ele>120.4</ele>
        <time>2023-07-12T08:41:35Z</time>
      </trkpt>
      <trkpt lat="49.77017" lon="2.30825">
        <ele>120.4</ele>
        <time>2023-07-12T08:41:36Z</time>
      </trkpt>
      <trkpt lat="49.77016" lon="2.30824">
        <ele>120.3</ele>
        <time>2023-07-12T08:41:37Z</time>
      </trkpt>
      <trkpt lat="49.77015" lon="2.30824">
        <ele>120.3</ele>
        <time>2023-07-12T08:41:38Z</time>
      </trkpt>
      <trkpt lat="49.77015" lon="2.30823">
        <ele>120.2</ele>
        <time>2023-07-12T08:41:39Z</time>
      </trkpt>
      <trkpt lat="49.77014" lon="2.30823">
        <ele>120.2</ele>
        <time>2023-07-12T08:41:41Z</time>
      </trkpt>
      <trkpt lat="49.77013" lon="2.30822">
        <ele>120.2</ele>
        <time>2023-07-12T08:41:42Z</time>
      </trkpt>
      <trkpt lat="49.77012" lon="2.30822">
        <ele>120.1</ele>
        <time>2023-07-12T08:41:43Z</time>
      </trkpt>
      <trkpt lat="49.77011" lon="2.3082">
        <ele>120</ele>
        <time>2023-07-12T08:41:45Z</time>
      </trkpt>
      <trkpt lat="49.7701" lon="2.30819">
        <ele>120</ele>
        <time>2023-07-12T08:41:47Z</time>
      </trkpt>
      <trkpt lat="49.7701" lon="2.30819">
        <ele>119.9</ele>
        <time>2023-07-12T08:41:48Z</time>
      </trkpt>
      <trkpt lat="49.77008" lon="2.30818">
        <ele>119.8</ele>
        <time>2023-07-12T08:41:49Z</time>
      </trkpt>
      <trkpt lat="49.77007" lon="2.30818">
        <ele>119.8</ele>
        <time>2023-07-12T08:41:51Z</time>
      </trkpt>
      <trkpt lat="49.77006" lon="2.30818">
        <ele>119.7</ele>
        <time>2023-07-12T08:41:52Z</time>
      </trkpt>
      <trkpt lat="49.77005" lon="2.30818">
        <ele>119.5</ele>
        <time>2023-07-12T08:41:54Z</time>
      </trkpt>
      <trkpt lat="49.77005" lon="2.30818">
        <ele>119.5</ele>
        <time>2023-07-12T08:41:55Z</time>
      </trkpt>
      <trkpt lat="49.77004" lon="2.30818">
        <ele>119.5</ele>
        <time>2023-07-12T08:41:56Z</time>
      </trkpt>
      <trkpt lat="49.77004" lon="2.30818">
        <ele>119.5</ele>
        <time>2023-07-12T08:41:57Z</time>
      </trkpt>
      <trkpt lat="49.77004" lon="2.30818">
        <ele>119.5</ele>
        <time>2023-07-12T08:41:59Z</time>
      </trkpt>
      <trkpt lat="49.77004" lon="2.30818">
        <ele>119.5</ele>
        <time>2023-07-12T08:42:01Z</time>
      </trkpt>
      <trkpt lat="49.77004" lon="2.30818">
        <ele>119.5</ele>
        <time>2023-07-12T08:42:02Z</time>
      </trkpt>
      <trkpt lat="49.77004" lon="2.30819">
        <ele>119.5</ele>
        <time>2023-07-12T08:42:04Z</time>
      </trkpt>
      <trkpt lat="49.77004" lon="2.30819">
        <ele>119.5</ele>
        <time>2023-07-12T08:42:05Z</time>
      </trkpt>
      <trkpt lat="49.77004" lon="2.30819">
        <ele>119.5</ele>
        <time>2023-07-12T08:42:06Z</time>
      </trkpt>
      <trkpt lat="49.77004" lon="2.30819">
        <ele>119.5</ele>
        <time>2023-07-12T08:42:08Z</time>
      </trkpt>
      <trkpt lat="49.77004" lon="2.30819">
        <ele>119.5</ele>
        <time>2023-07-12T08:42:09Z</time>
      </trkpt>
      <trkpt lat="49.77004" lon="2.30819">
        <ele>119.5</ele>
        <time>2023-07-12T08:42:10Z</time>
      </trkpt>
      <trkpt lat="49.77005" lon="2.30819">
        <ele>119.4</ele>
        <time>2023-07-12T08:42:12Z</time>
      </trkpt>
      <trkpt lat="49.77004" lon="2.30819">
        <ele>119.4</ele>
        <time>2023-07-12T08:42:14Z</time>
      </trkpt>
      <trkpt lat="49.77004" lon="2.30819">
        <ele>119.4</ele>
        <time>2023-07-12T08:42:15Z</time>
      </trkpt>
      <trkpt lat="49.77004" lon="2.30818">
        <ele>119.4</ele>
        <time>2023-07-12T08:42:16Z</time>
      </trkpt>
      <trkpt lat="49.77005" lon="2.30818">
        <ele>119.4</ele>
        <time>2023-07-12T08:42:18Z</time>
      </trkpt>
      <trkpt lat="49.77005" lon="2.30818">
        <ele>119.4</ele>
        <time>2023-07-12T08:42:19Z</time>
      </trkpt>
      <trkpt lat="49.77006" lon="2.30818">
        <ele>119.4</ele>
        <time>2023-07-12T08:42:21Z</time>
      </trkpt>
      <trkpt lat="49.77006" lon="2.30817">
        <ele>119.3</ele>
        <time>2023-07-12T08:42:22Z</time>
      </trkpt>
      <trkpt lat="49.77007" lon="2.30817">
        <ele>119.3</ele>
        <time>2023-07-12T08:42:23Z</time>
      </trkpt>
      <trkpt lat="49.77008" lon="2.30817">
        <ele>119.3</ele>
        <time>2023-07-12T08:42:25Z</time>
      </trkpt>
      <trkpt lat="49.77008" lon="2.30816">
        <ele>119.3</ele>
        <time>2023-07-12T08:42:26Z</time>
      </trkpt>
      <trkpt lat="49.77008" lon="2.30816">
        <ele>119.3</ele>
        <time>2023-07-12T08:42:28Z</time>
      </trkpt>
      <trkpt lat="49.77008" lon="2.30816">
        <ele>119.3</ele>
        <time>2023-07-12T08:42:29Z</time>
      </trkpt>
      <trkpt lat="49.77009" lon="2.30816">
        <ele>119.3</ele>
        <time>2023-07-12T08:42:31Z</time>
      </trkpt>
      <trkpt lat="49.77009" lon="2.30816">
        <ele>119.2</ele>
        <time>2023-07-12T08:42:32Z</time>
      </trkpt>
      <trkpt lat="49.77009" lon="2.30816">
        <ele>119.2</ele>
        <time>2023-07-12T08:42:34Z</time>
      </trkpt>
      <trkpt lat="49.77009" lon="2.30816">
        <ele>119.2</ele>
        <time>2023-07-12T08:42:35Z</time>
      </trkpt>
      <trkpt lat="49.77009" lon="2.30816">
        <ele>119.2</ele>
        <time>2023-07-12T08:42:36Z</time>
      </trkpt>
      <trkpt lat="49.77009" lon="2.30816">
        <ele>119.2</ele>
        <time>2023-07-12T08:42:37Z</time>
      </trkpt>
      <trkpt lat="49.7701" lon="2.30816">
        <ele>119.2</ele>
        <time>2023-07-12T08:42:38Z</time>
      </trkpt>
      <trkpt lat="49.7701" lon="2.30816">
        <ele>119.2</ele>
        <time>2023-07-12T08:42:39Z</time>
      </trkpt>
      <trkpt lat="49.7701" lon="2.30816">
        <ele>119.2</ele>
        <time>2023-07-12T08:42:40Z</time>
      </trkpt>
      <trkpt lat="49.7701" lon="2.30816">
        <ele>119.2</ele>
        <time>2023-07-12T08:42:41Z</time>
      </trkpt>
      <trkpt lat="49.7701" lon="2.30816">
        <ele>119.2</ele>
        <time>2023-07-12T08:42:42Z</time>
      </trkpt>
      <trkpt lat="49.7701" lon="2.30816">
        <ele>119.2</ele>
        <time>2023-07-12T08:42:43Z</time>
      </trkpt>
      <trkpt lat="49.7701" lon="2.30816">
        <ele>119.2</ele>
        <time>2023-07-12T08:42:44Z</time>
      </trkpt>
      <trkpt lat="49.7701" lon="2.30816">
        <ele>119.2</ele>
        <time>2023-07-12T08:42:45Z</time>
      </trkpt>
      <trkpt lat="49.7701" lon="2.30816">
        <ele>119.2</ele>
        <time>2023-07-12T08:42:46Z</time>
      </trkpt>
      <trkpt lat="49.7701" lon="2.30816">
        <ele>119.2</ele>
        <time>2023-07-12T08:42:47Z</time>
      </trkpt>
      <trkpt lat="49.7701" lon="2.30816">
        <ele>119.2</ele>
        <time>2023-07-12T08:42:48Z</time>
      </trkpt>
      <trkpt lat="49.7701" lon="2.30816">
        <ele>119.2</ele>
        <time>2023-07-12T08:42:49Z</time>
      </trkpt>
      <trkpt lat="49.7701" lon="2.30816">
        <ele>119.2</ele>
        <time>2023-07-12T08:42:50Z</time>
      </trkpt>
      <trkpt lat="49.7701" lon="2.30816">
        <ele>119.2</ele>
        <time>2023-07-12T08:42:51Z</time>
      </trkpt>
      <trkpt lat="49.7701" lon="2.30816">
        <ele>119.2</ele>
        <time>2023-07-12T08:42:52Z</time>
      </trkpt>
      <trkpt lat="49.7701" lon="2.30816">
        <ele>119.2</ele>
        <time>2023-07-12T08:42:53Z</time>
      </trkpt>
      <trkpt lat="49.7701" lon="2.30816">
        <ele>119.2</ele>
        <time>2023-07-12T08:42:54Z</time>
      </trkpt>
      <trkpt lat="49.7701" lon="2.30816">
        <ele>119.2</ele>
        <time>2023-07-12T08:42:55Z</time>
      </trkpt>
      <trkpt lat="49.7701" lon="2.30816">
        <ele>119.2</ele>
        <time>2023-07-12T08:42:56Z</time>
      </trkpt>
      <trkpt lat="49.7701" lon="2.30816">
        <ele>119.2</ele>
        <time>2023-07-12T08:42:57Z</time>
      </trkpt>
      <trkpt lat="49.7701" lon="2.30816">
        <ele>119.2</ele>
        <time>2023-07-12T08:42:58Z</time>
      </trkpt>
      <trkpt lat="49.7701" lon="2.30816">
        <ele>119.2</ele>
        <time>2023-07-12T08:42:59Z</time>
      </trkpt>
      <trkpt lat="49.7701" lon="2.30816">
        <ele>119.2</ele>
        <time>2023-07-12T08:43:00Z</time>
      </trkpt>
      <trkpt lat="49.7701" lon="2.30816">
        <ele>119.2</ele>
        <time>2023-07-12T08:43:01Z</time>
      </trkpt>
      <trkpt lat="49.7701" lon="2.30816">
        <ele>119.2</ele>
        <time>2023-07-12T08:43:02Z</time>
      </trkpt>
      <trkpt lat="49.7701" lon="2.30816">
        <ele>119.2</ele>
        <time>2023-07-12T08:43:03Z</time>
      </trkpt>
      <trkpt lat="49.7701" lon="2.30816">
        <ele>119.2</ele>
        <time>2023-07-12T08:43:04Z</time>
      </trkpt>
      <trkpt lat="49.7701" lon="2.30816">
        <ele>119.2</ele>
        <time>2023-07-12T08:43:05Z</time>
      </trkpt>
      <trkpt lat="49.7701" lon="2.30816">
        <ele>119.2</ele>
        <time>2023-07-12T08:43:06Z</time>
      </trkpt>
      <trkpt lat="49.7701" lon="2.30816">
        <ele>119.2</ele>
        <time>2023-07-12T08:43:07Z</time>
      </trkpt>
      <trkpt lat="49.7701" lon="2.30816">
        <ele>119.2</ele>
        <time>2023-07-12T08:43:08Z</time>
      </trkpt>
      <trkpt lat="49.7701" lon="2.30816">
        <ele>119.2</ele>
        <time>2023-07-12T08:43:09Z</time>
      </trkpt>
      <trkpt lat="49.7701" lon="2.30816">
        <ele>119.2</ele>
        <time>2023-07-12T08:43:10Z</time>
      </trkpt>
      <trkpt lat="49.7701" lon="2.30816">
        <ele>119.2</ele>
        <time>2023-07-12T08:43:11Z</time>
      </trkpt>
      <trkpt lat="49.7701" lon="2.30816">
        <ele>119.2</ele>
        <time>2023-07-12T08:43:12Z</time>
      </trkpt>
      <trkpt lat="49.7701" lon="2.30816">
        <ele>119.2</ele>
        <time>2023-07-12T08:43:13Z</time>
      </trkpt>
      <trkpt lat="49.7701" lon="2.30816">
        <ele>119.2</ele>
        <time>2023-07-12T08:43:14Z</time>
      </trkpt>
      <trkpt lat="49.7701" lon="2.30816">
        <ele>119.2</ele>
        <time>2023-07-12T08:43:15Z</time>
      </trkpt>
      <trkpt lat="49.7701" lon="2.30816">
        <ele>119.2</ele>
        <time>2023-07-12T08:43:16Z</time>
      </trkpt>
      <trkpt lat="49.7701" lon="2.30816">
        <ele>119.2</ele>
        <time>2023-07-12T08:43:17Z</time>
      </trkpt>
      <trkpt lat="49.7701" lon="2.30816">
        <ele>119.2</ele>
        <time>2023-07-12T08:43:18Z</time>
      </trkpt>
      <trkpt lat="49.7701" lon="2.30816">
        <ele>119.2</ele>
        <time>2023-07-12T08:43:19Z</time>
      </trkpt>
      <trkpt lat="49.7701" lon="2.30816">
        <ele>119.2</ele>
        <time>2023-07-12T08:43:20Z</time>
      </trkpt>
      <trkpt lat="49.7701" lon="2.30816">
        <ele>119.2</ele>
        <time>2023-07-12T08:43:21Z</time>
      </trkpt>
      <trkpt lat="49.7701" lon="2.30816">
        <ele>119.2</ele>
        <time>2023-07-12T08:43:22Z</time>
      </trkpt>
      <trkpt lat="49.7701" lon="2.30816">
        <ele>119.2</ele>
        <time>2023-07-12T08:43:23Z</time>
      </trkpt>
      <trkpt lat="49.7701" lon="2.30816">
        <ele>119.2</ele>
        <time>2023-07-12T08:43:24Z</time>
      </trkpt>
      <trkpt lat="49.7701" lon="2.30816">
        <ele>119.2</ele>
        <time>2023-07-12T08:43:25Z</time>
      </trkpt>
      <trkpt lat="49.7701" lon="2.30816">
        <ele>119.2</ele>
        <time>2023-07-12T08:43:26Z</time>
      </trkpt>
      <trkpt lat="49.7701" lon="2.30816">
        <ele>119.2</ele>
        <time>2023-07-12T08:43:27Z</time>
      </trkpt>
      <trkpt lat="49.7701" lon="2.30816">
        <ele>119.2</ele>
        <time>2023-07-12T08:43:28Z</time>
      </trkpt>
      <trkpt lat="49.7701" lon="2.30816">
        <ele>119.2</ele>
        <time>2023-07-12T08:43:29Z</time>
      </trkpt>
      <trkpt lat="49.7701" lon="2.30818">
        <ele>119.2</ele>
        <time>2023-07-12T08:43:30Z</time>
      </trkpt>
      <trkpt lat="49.77009" lon="2.30819">
        <ele>119.2</ele>
        <time>2023-07-12T08:43:31Z</time>
      </trkpt>
      <trkpt lat="49.77009" lon="2.30819">
        <ele>119.2</ele>
        <time>2023-07-12T08:43:32Z</time>
      </trkpt>
      <trkpt lat="49.77009" lon="2.30819">
        <ele>119.2</ele>
        <time>2023-07-12T08:43:33Z</time>
      </trkpt>
      <trkpt lat="49.77009" lon="2.30818">
        <ele>119.1</ele>
        <time>2023-07-12T08:43:34Z</time>
      </trkpt>
      <trkpt lat="49.77009" lon="2.30818">
        <ele>119.1</ele>
        <time>2023-07-12T08:43:35Z</time>
      </trkpt>
      <trkpt lat="49.77008" lon="2.30818">
        <ele>119.1</ele>
        <time>2023-07-12T08:43:36Z</time>
      </trkpt>
      <trkpt lat="49.77008" lon="2.30817">
        <ele>119.1</ele>
        <time>2023-07-12T08:43:37Z</time>
      </trkpt>
      <trkpt lat="49.77008" lon="2.30817">
        <ele>119.1</ele>
        <time>2023-07-12T08:43:38Z</time>
      </trkpt>
      <trkpt lat="49.77008" lon="2.30816">
        <ele>119.1</ele>
        <time>2023-07-12T08:43:39Z</time>
      </trkpt>
      <trkpt lat="49.77008" lon="2.30816">
        <ele>119.1</ele>
        <time>2023-07-12T08:43:40Z</time>
      </trkpt>
      <trkpt lat="49.77008" lon="2.30816">
        <ele>119.1</ele>
        <time>2023-07-12T08:43:42Z</time>
      </trkpt>
      <trkpt lat="49.77008" lon="2.30815">
        <ele>119.1</ele>
        <time>2023-07-12T08:43:43Z</time>
      </trkpt>
      <trkpt lat="49.77007" lon="2.30815">
        <ele>119.1</ele>
        <time>2023-07-12T08:43:44Z</time>
      </trkpt>
      <trkpt lat="49.77007" lon="2.30815">
        <ele>119.1</ele>
        <time>2023-07-12T08:43:45Z</time>
      </trkpt>
      <trkpt lat="49.77007" lon="2.30814">
        <ele>119.1</ele>
        <time>2023-07-12T08:43:46Z</time>
      </trkpt>
      <trkpt lat="49.77006" lon="2.30813">
        <ele>119</ele>
        <time>2023-07-12T08:43:48Z</time>
      </trkpt>
      <trkpt lat="49.77006" lon="2.3081">
        <ele>119</ele>
        <time>2023-07-12T08:43:49Z</time>
      </trkpt>
      <trkpt lat="49.77006" lon="2.30808">
        <ele>119</ele>
        <time>2023-07-12T08:43:51Z</time>
      </trkpt>
      <trkpt lat="49.77006" lon="2.30805">
        <ele>118.9</ele>
        <time>2023-07-12T08:43:52Z</time>
      </trkpt>
      <trkpt lat="49.77006" lon="2.30804">
        <ele>118.9</ele>
        <time>2023-07-12T08:43:53Z</time>
      </trkpt>
      <trkpt lat="49.77006" lon="2.30803">
        <ele>118.9</ele>
        <time>2023-07-12T08:43:54Z</time>
      </trkpt>
      <trkpt lat="49.77005" lon="2.30801">
        <ele>118.9</ele>
        <time>2023-07-12T08:43:56Z</time>
      </trkpt>
      <trkpt lat="49.77005" lon="2.308">
        <ele>118.9</ele>
        <time>2023-07-12T08:43:57Z</time>
      </trkpt>
      <trkpt lat="49.77005" lon="2.30798">
        <ele>118.9</ele>
        <time>2023-07-12T08:43:58Z</time>
      </trkpt>
      <trkpt lat="49.77005" lon="2.30797">
        <ele>118.8</ele>
        <time>2023-07-12T08:43:59Z</time>
      </trkpt>
      <trkpt lat="49.77005" lon="2.30795">
        <ele>118.8</ele>
        <time>2023-07-12T08:44:01Z</time>
      </trkpt>
      <trkpt lat="49.77005" lon="2.30793">
        <ele>118.8</ele>
        <time>2023-07-12T08:44:02Z</time>
      </trkpt>
      <trkpt lat="49.77005" lon="2.30791">
        <ele>118.8</ele>
        <time>2023-07-12T08:44:03Z</time>
      </trkpt>
      <trkpt lat="49.77004" lon="2.30789">
        <ele>118.8</ele>
        <time>2023-07-12T08:44:04Z</time>
      </trkpt>
      <trkpt lat="49.77004" lon="2.30787">
        <ele>118.8</ele>
        <time>2023-07-12T08:44:06Z</time>
      </trkpt>
      <trkpt lat="49.77004" lon="2.30786">
        <ele>118.8</ele>
        <time>2023-07-12T08:44:07Z</time>
      </trkpt>
      <trkpt lat="49.77004" lon="2.30784">
        <ele>118.8</ele>
        <time>2023-07-12T08:44:08Z</time>
      </trkpt>
      <trkpt lat="49.77004" lon="2.30783">
        <ele>118.8</ele>
        <time>2023-07-12T08:44:09Z</time>
      </trkpt>
      <trkpt lat="49.77004" lon="2.3078">
        <ele>118.7</ele>
        <time>2023-07-12T08:44:11Z</time>
      </trkpt>
      <trkpt lat="49.77004" lon="2.30778">
        <ele>118.7</ele>
        <time>2023-07-12T08:44:13Z</time>
      </trkpt>
      <trkpt lat="49.77004" lon="2.30776">
        <ele>118.7</ele>
        <time>2023-07-12T08:44:14Z</time>
      </trkpt>
      <trkpt lat="49.77003" lon="2.30774">
        <ele>118.7</ele>
        <time>2023-07-12T08:44:15Z</time>
      </trkpt>
      <trkpt lat="49.77003" lon="2.30773">
        <ele>118.7</ele>
        <time>2023-07-12T08:44:16Z</time>
      </trkpt>
      <trkpt lat="49.77003" lon="2.30771">
        <ele>118.7</ele>
        <time>2023-07-12T08:44:17Z</time>
      </trkpt>
      <trkpt lat="49.77003" lon="2.30769">
        <ele>118.7</ele>
        <time>2023-07-12T08:44:18Z</time>
      </trkpt>
      <trkpt lat="49.77003" lon="2.30767">
        <ele>118.7</ele>
        <time>2023-07-12T08:44:19Z</time>
      </trkpt>
      <trkpt lat="49.77003" lon="2.30766">
        <ele>118.7</ele>
        <time>2023-07-12T08:44:21Z</time>
      </trkpt>
      <trkpt lat="49.77004" lon="2.30764">
        <ele>118.7</ele>
        <time>2023-07-12T08:44:22Z</time>
      </trkpt>
      <trkpt lat="49.77004" lon="2.30762">
        <ele>118.7</ele>
        <time>2023-07-12T08:44:23Z</time>
      </trkpt>
      <trkpt lat="49.77004" lon="2.3076">
        <ele>118.7</ele>
        <time>2023-07-12T08:44:25Z</time>
      </trkpt>
      <trkpt lat="49.77004" lon="2.30758">
        <ele>118.7</ele>
        <time>2023-07-12T08:44:26Z</time>
      </trkpt>
      <trkpt lat="49.77004" lon="2.30757">
        <ele>118.7</ele>
        <time>2023-07-12T08:44:27Z</time>
      </trkpt>
      <trkpt lat="49.77004" lon="2.30755">
        <ele>118.7</ele>
        <time>2023-07-12T08:44:28Z</time>
      </trkpt>
      <trkpt lat="49.77005" lon="2.30753">
        <ele>118.7</ele>
        <time>2023-07-12T08:44:30Z</time>
      </trkpt>
      <trkpt lat="49.77006" lon="2.30751">
        <ele>118.7</ele>
        <time>2023-07-12T08:44:31Z</time>
      </trkpt>
      <trkpt lat="49.77006" lon="2.3075">
        <ele>118.7</ele>
        <time>2023-07-12T08:44:33Z</time>
      </trkpt>
      <trkpt lat="49.77006" lon="2.30749">
        <ele>118.7</ele>
        <time>2023-07-12T08:44:34Z</time>
      </trkpt>
      <trkpt lat="49.77006" lon="2.30748">
        <ele>118.7</ele>
        <time>2023-07-12T08:44:35Z</time>
      </trkpt>
      <trkpt lat="49.77006" lon="2.30747">
        <ele>118.7</ele>
        <time>2023-07-12T08:44:36Z</time>
      </trkpt>
      <trkpt lat="49.77007" lon="2.30747">
        <ele>118.7</ele>
        <time>2023-07-12T08:44:37Z</time>
      </trkpt>
      <trkpt lat="49.77007" lon="2.30746">
        <ele>118.7</ele>
        <time>2023-07-12T08:44:38Z</time>
      </trkpt>
      <trkpt lat="49.77007" lon="2.30745">
        <ele>118.7</ele>
        <time>2023-07-12T08:44:39Z</time>
      </trkpt>
      <trkpt lat="49.77007" lon="2.30744">
        <ele>118.7</ele>
        <time>2023-07-12T08:44:40Z</time>
      </trkpt>
      <trkpt lat="49.77007" lon="2.30743">
        <ele>118.7</ele>
        <time>2023-07-12T08:44:42Z</time>
      </trkpt>
      <trkpt lat="49.77007" lon="2.30742">
        <ele>118.7</ele>
        <time>2023-07-12T08:44:43Z</time>
      </trkpt>
      <trkpt lat="49.77008" lon="2.30741">
        <ele>118.7</ele>
        <time>2023-07-12T08:44:44Z</time>
      </trkpt>
      <trkpt lat="49.77008" lon="2.30739">
        <ele>118.7</ele>
        <time>2023-07-12T08:44:45Z</time>
      </trkpt>
      <trkpt lat="49.77008" lon="2.30738">
        <ele>118.7</ele>
        <time>2023-07-12T08:44:46Z</time>
      </trkpt>
      <trkpt lat="49.77008" lon="2.30737">
        <ele>118.7</ele>
        <time>2023-07-12T08:44:47Z</time>
      </trkpt>
      <trkpt lat="49.77008" lon="2.30736">
        <ele>118.7</ele>
        <time>2023-07-12T08:44:48Z</time>
      </trkpt>
      <trkpt lat="49.77008" lon="2.30735">
        <ele>118.7</ele>
        <time>2023-07-12T08:44:50Z</time>
      </trkpt>
      <trkpt lat="49.77008" lon="2.30734">
        <ele>118.7</ele>
        <time>2023-07-12T08:44:51Z</time>
      </trkpt>
      <trkpt lat="49.77008" lon="2.30732">
        <ele>118.7</ele>
        <time>2023-07-12T08:44:52Z</time>
      </trkpt>
      <trkpt lat="49.77008" lon="2.30731">
        <ele>118.7</ele>
        <time>2023-07-12T08:44:53Z</time>
      </trkpt>
      <trkpt lat="49.77008" lon="2.30729">
        <ele>118.7</ele>
        <time>2023-07-12T08:44:54Z</time>
      </trkpt>
      <trkpt lat="49.77009" lon="2.30727">
        <ele>118.7</ele>
        <time>2023-07-12T08:44:55Z</time>
      </trkpt>
      <trkpt lat="49.77008" lon="2.30724">
        <ele>118.6</ele>
        <time>2023-07-12T08:44:57Z</time>
      </trkpt>
      <trkpt lat="49.77008" lon="2.30722">
        <ele>118.6</ele>
        <time>2023-07-12T08:44:58Z</time>
      </trkpt>
      <trkpt lat="49.77008" lon="2.30719">
        <ele>118.6</ele>
        <time>2023-07-12T08:44:59Z</time>
      </trkpt>
      <trkpt lat="49.77008" lon="2.30717">
        <ele>118.5</ele>
        <time>2023-07-12T08:45:00Z</time>
      </trkpt>
      <trkpt lat="49.77008" lon="2.30715">
        <ele>118.5</ele>
        <time>2023-07-12T08:45:01Z</time>
      </trkpt>
      <trkpt lat="49.77008" lon="2.30712">
        <ele>118.5</ele>
        <time>2023-07-12T08:45:02Z</time>
      </trkpt>
      <trkpt lat="49.77008" lon="2.3071">
        <ele>118.4</ele>
        <time>2023-07-12T08:45:04Z</time>
      </trkpt>
      <trkpt lat="49.77008" lon="2.30709">
        <ele>118.4</ele>
        <time>2023-07-12T08:45:05Z</time>
      </trkpt>
      <trkpt lat="49.77008" lon="2.30706">
        <ele>118.3</ele>
        <time>2023-07-12T08:45:06Z</time>
      </trkpt>
      <trkpt lat="49.77008" lon="2.30704">
        <ele>118.3</ele>
        <time>2023-07-12T08:45:07Z</time>
      </trkpt>
      <trkpt lat="49.77008" lon="2.30702">
        <ele>118.2</ele>
        <time>2023-07-12T08:45:08Z</time>
      </trkpt>
      <trkpt lat="49.77008" lon="2.307">
        <ele>118.2</ele>
        <time>2023-07-12T08:45:09Z</time>
      </trkpt>
      <trkpt lat="49.77008" lon="2.30698">
        <ele>118.1</ele>
        <time>2023-07-12T08:45:11Z</time>
      </trkpt>
      <trkpt lat="49.77008" lon="2.30695">
        <ele>118</ele>
        <time>2023-07-12T08:45:12Z</time>
      </trkpt>
      <trkpt lat="49.77008" lon="2.30693">
        <ele>117.9</ele>
        <time>2023-07-12T08:45:13Z</time>
      </trkpt>
      <trkpt lat="49.77008" lon="2.30691">
        <ele>117.9</ele>
        <time>2023-07-12T08:45:14Z</time>
      </trkpt>
      <trkpt lat="49.77007" lon="2.30687">
        <ele>117.7</ele>
        <time>2023-07-12T08:45:15Z</time>
      </trkpt>
      <trkpt lat="49.77007" lon="2.30686">
        <ele>117.7</ele>
        <time>2023-07-12T08:45:16Z</time>
      </trkpt>
      <trkpt lat="49.77007" lon="2.30685">
        <ele>117.6</ele>
        <time>2023-07-12T08:45:17Z</time>
      </trkpt>
      <trkpt lat="49.77007" lon="2.30683">
        <ele>117.5</ele>
        <time>2023-07-12T08:45:18Z</time>
      </trkpt>
      <trkpt lat="49.77007" lon="2.3068">
        <ele>117.4</ele>
        <time>2023-07-12T08:45:19Z</time>
      </trkpt>
      <trkpt lat="49.77007" lon="2.30678">
        <ele>117.3</ele>
        <time>2023-07-12T08:45:21Z</time>
      </trkpt>
      <trkpt lat="49.77007" lon="2.30676">
        <ele>117.2</ele>
        <time>2023-07-12T08:45:22Z</time>
      </trkpt>
      <trkpt lat="49.77008" lon="2.30674">
        <ele>117</ele>
        <time>2023-07-12T08:45:23Z</time>
      </trkpt>
      <trkpt lat="49.77008" lon="2.30671">
        <ele>116.9</ele>
        <time>2023-07-12T08:45:24Z</time>
      </trkpt>
      <trkpt lat="49.77008" lon="2.30669">
        <ele>116.8</ele>
        <time>2023-07-12T08:45:25Z</time>
      </trkpt>
      <trkpt lat="49.77008" lon="2.30668">
        <ele>116.7</ele>
        <time>2023-07-12T08:45:26Z</time>
      </trkpt>
      <trkpt lat="49.77008" lon="2.30666">
        <ele>116.6</ele>
        <time>2023-07-12T08:45:27Z</time>
      </trkpt>
      <trkpt lat="49.77008" lon="2.30664">
        <ele>116.5</ele>
        <time>2023-07-12T08:45:29Z</time>
      </trkpt>
      <trkpt lat="49.77008" lon="2.30662">
        <ele>116.4</ele>
        <time>2023-07-12T08:45:30Z</time>
      </trkpt>
      <trkpt lat="49.77008" lon="2.30661">
        <ele>116.3</ele>
        <time>2023-07-12T08:45:31Z</time>
      </trkpt>
      <trkpt lat="49.77008" lon="2.30659">
        <ele>116.2</ele>
        <time>2023-07-12T08:45:32Z</time>
      </trkpt>
      <trkpt lat="49.77008" lon="2.30657">
        <ele>116.1</ele>
        <time>2023-07-12T08:45:34Z</time>
      </trkpt>
      <trkpt lat="49.77008" lon="2.30656">
        <ele>116</ele>
        <time>2023-07-12T08:45:35Z</time>
      </trkpt>
      <trkpt lat="49.77008" lon="2.30654">
        <ele>115.9</ele>
        <time>2023-07-12T08:45:36Z</time>
      </trkpt>
      <trkpt lat="49.77007" lon="2.30653">
        <ele>115.8</ele>
        <time>2023-07-12T08:45:37Z</time>
      </trkpt>
      <trkpt lat="49.77007" lon="2.30652">
        <ele>115.7</ele>
        <time>2023-07-12T08:45:38Z</time>
      </trkpt>
      <trkpt lat="49.77007" lon="2.30651">
        <ele>115.6</ele>
        <time>2023-07-12T08:45:39Z</time>
      </trkpt>
      <trkpt lat="49.77007" lon="2.30649">
        <ele>115.5</ele>
        <time>2023-07-12T08:45:41Z</time>
      </trkpt>
      <trkpt lat="49.77007" lon="2.30648">
        <ele>115.4</ele>
        <time>2023-07-12T08:45:42Z</time>
      </trkpt>
      <trkpt lat="49.77008" lon="2.30647">
        <ele>115.3</ele>
        <time>2023-07-12T08:45:43Z</time>
      </trkpt>
      <trkpt lat="49.77008" lon="2.30646">
        <ele>115.3</ele>
        <time>2023-07-12T08:45:45Z</time>
      </trkpt>
      <trkpt lat="49.77008" lon="2.30646">
        <ele>115.3</ele>
        <time>2023-07-12T08:45:46Z</time>
      </trkpt>
      <trkpt lat="49.77008" lon="2.30646">
        <ele>115.2</ele>
        <time>2023-07-12T08:45:48Z</time>
      </trkpt>
      <trkpt lat="49.77008" lon="2.30646">
        <ele>115.2</ele>
        <time>2023-07-12T08:45:49Z</time>
      </trkpt>
      <trkpt lat="49.77008" lon="2.30646">
        <ele>115.2</ele>
        <time>2023-07-12T08:45:50Z</time>
      </trkpt>
      <trkpt lat="49.77008" lon="2.30645">
        <ele>115.1</ele>
        <time>2023-07-12T08:45:51Z</time>
      </trkpt>
      <trkpt lat="49.77008" lon="2.30644">
        <ele>115.1</ele>
        <time>2023-07-12T08:45:52Z</time>
      </trkpt>
      <trkpt lat="49.77008" lon="2.30643">
        <ele>115</ele>
        <time>2023-07-12T08:45:53Z</time>
      </trkpt>
      <trkpt lat="49.77008" lon="2.30642">
        <ele>114.9</ele>
        <time>2023-07-12T08:45:55Z</time>
      </trkpt>
      <trkpt lat="49.77009" lon="2.30641">
        <ele>114.8</ele>
        <time>2023-07-12T08:45:56Z</time>
      </trkpt>
      <trkpt lat="49.77009" lon="2.3064">
        <ele>114.8</ele>
        <time>2023-07-12T08:45:57Z</time>
      </trkpt>
      <trkpt lat="49.77009" lon="2.30639">
        <ele>114.7</ele>
        <time>2023-07-12T08:45:58Z</time>
      </trkpt>
      <trkpt lat="49.77009" lon="2.30638">
        <ele>114.6</ele>
        <time>2023-07-12T08:45:59Z</time>
      </trkpt>
      <trkpt lat="49.77009" lon="2.30637">
        <ele>114.5</ele>
        <time>2023-07-12T08:46:00Z</time>
      </trkpt>
      <trkpt lat="49.77009" lon="2.30635">
        <ele>114.4</ele>
        <time>2023-07-12T08:46:01Z</time>
      </trkpt>
      <trkpt lat="49.77009" lon="2.30634">
        <ele>114.3</ele>
        <time>2023-07-12T08:46:03Z</time>
      </trkpt>
      <trkpt lat="49.77008" lon="2.30633">
        <ele>114.2</ele>
        <time>2023-07-12T08:46:04Z</time>
      </trkpt>
      <trkpt lat="49.77008" lon="2.30631">
        <ele>114.1</ele>
        <time>2023-07-12T08:46:05Z</time>
      </trkpt>
      <trkpt lat="49.77008" lon="2.3063">
        <ele>114</ele>
        <time>2023-07-12T08:46:06Z</time>
      </trkpt>
      <trkpt lat="49.77008" lon="2.30629">
        <ele>113.9</ele>
        <time>2023-07-12T08:46:07Z</time>
      </trkpt>
      <trkpt lat="49.77008" lon="2.30627">
        <ele>113.8</ele>
        <time>2023-07-12T08:46:08Z</time>
      </trkpt>
      <trkpt lat="49.77008" lon="2.30626">
        <ele>113.7</ele>
        <time>2023-07-12T08:46:10Z</time>
      </trkpt>
      <trkpt lat="49.77008" lon="2.30624">
        <ele>113.6</ele>
        <time>2023-07-12T08:46:11Z</time>
      </trkpt>
      <trkpt lat="49.77008" lon="2.30621">
        <ele>113.4</ele>
        <time>2023-07-12T08:46:12Z</time>
      </trkpt>
      <trkpt lat="49.77008" lon="2.3062">
        <ele>113.3</ele>
        <time>2023-07-12T08:46:13Z</time>
      </trkpt>
      <trkpt lat="49.77008" lon="2.30619">
        <ele>113.3</ele>
        <time>2023-07-12T08:46:14Z</time>
      </trkpt>
      <trkpt lat="49.77009" lon="2.30617">
        <ele>113.1</ele>
        <time>2023-07-12T08:46:15Z</time>
      </trkpt>
      <trkpt lat="49.77009" lon="2.30615">
        <ele>113</ele>
        <time>2023-07-12T08:46:16Z</time>
      </trkpt>
      <trkpt lat="49.77009" lon="2.30613">
        <ele>112.9</ele>
        <time>2023-07-12T08:46:18Z</time>
      </trkpt>
      <trkpt lat="49.7701" lon="2.30611">
        <ele>112.8</ele>
        <time>2023-07-12T08:46:19Z</time>
      </trkpt>
      <trkpt lat="49.7701" lon="2.30609">
        <ele>112.6</ele>
        <time>2023-07-12T08:46:20Z</time>
      </trkpt>
      <trkpt lat="49.7701" lon="2.30607">
        <ele>112.5</ele>
        <time>2023-07-12T08:46:21Z</time>
      </trkpt>
      <trkpt lat="49.7701" lon="2.30605">
        <ele>112.4</ele>
        <time>2023-07-12T08:46:22Z</time>
      </trkpt>
      <trkpt lat="49.7701" lon="2.30604">
        <ele>112.3</ele>
        <time>2023-07-12T08:46:23Z</time>
      </trkpt>
      <trkpt lat="49.77011" lon="2.306">
        <ele>112.1</ele>
        <time>2023-07-12T08:46:24Z</time>
      </trkpt>
      <trkpt lat="49.77011" lon="2.30599">
        <ele>112</ele>
        <time>2023-07-12T08:46:26Z</time>
      </trkpt>
      <trkpt lat="49.77011" lon="2.30598">
        <ele>112</ele>
        <time>2023-07-12T08:46:27Z</time>
      </trkpt>
      <trkpt lat="49.77011" lon="2.30595">
        <ele>111.8</ele>
        <time>2023-07-12T08:46:28Z</time>
      </trkpt>
      <trkpt lat="49.77011" lon="2.30593">
        <ele>111.7</ele>
        <time>2023-07-12T08:46:29Z</time>
      </trkpt>
      <trkpt lat="49.77012" lon="2.3059">
        <ele>111.5</ele>
        <time>2023-07-12T08:46:30Z</time>
      </trkpt>
      <trkpt lat="49.77012" lon="2.30589">
        <ele>111.5</ele>
        <time>2023-07-12T08:46:31Z</time>
      </trkpt>
      <trkpt lat="49.77012" lon="2.30588">
        <ele>111.4</ele>
        <time>2023-07-12T08:46:32Z</time>
      </trkpt>
      <trkpt lat="49.77012" lon="2.30586">
        <ele>111.3</ele>
        <time>2023-07-12T08:46:33Z</time>
      </trkpt>
      <trkpt lat="49.77012" lon="2.30584">
        <ele>111.2</ele>
        <time>2023-07-12T08:46:35Z</time>
      </trkpt>
      <trkpt lat="49.77012" lon="2.30583">
        <ele>111.1</ele>
        <time>2023-07-12T08:46:36Z</time>
      </trkpt>
      <trkpt lat="49.77013" lon="2.30581">
        <ele>111</ele>
        <time>2023-07-12T08:46:37Z</time>
      </trkpt>
      <trkpt lat="49.77013" lon="2.30579">
        <ele>110.9</ele>
        <time>2023-07-12T08:46:38Z</time>
      </trkpt>
      <trkpt lat="49.77013" lon="2.30577">
        <ele>110.8</ele>
        <time>2023-07-12T08:46:39Z</time>
      </trkpt>
      <trkpt lat="49.77013" lon="2.30576">
        <ele>110.8</ele>
        <time>2023-07-12T08:46:41Z</time>
      </trkpt>
      <trkpt lat="49.77013" lon="2.30575">
        <ele>110.7</ele>
        <time>2023-07-12T08:46:42Z</time>
      </trkpt>
      <trkpt lat="49.77013" lon="2.30573">
        <ele>110.6</ele>
        <time>2023-07-12T08:46:43Z</time>
      </trkpt>
      <trkpt lat="49.77013" lon="2.30571">
        <ele>110.6</ele>
        <time>2023-07-12T08:46:44Z</time>
      </trkpt>
      <trkpt lat="49.77013" lon="2.3057">
        <ele>110.5</ele>
        <time>2023-07-12T08:46:45Z</time>
      </trkpt>
      <trkpt lat="49.77013" lon="2.30569">
        <ele>110.4</ele>
        <time>2023-07-12T08:46:47Z</time>
      </trkpt>
      <trkpt lat="49.77013" lon="2.30568">
        <ele>110.4</ele>
        <time>2023-07-12T08:46:48Z</time>
      </trkpt>
      <trkpt lat="49.77013" lon="2.30567">
        <ele>110.3</ele>
        <time>2023-07-12T08:46:49Z</time>
      </trkpt>
      <trkpt lat="49.77013" lon="2.30565">
        <ele>110.3</ele>
        <time>2023-07-12T08:46:50Z</time>
      </trkpt>
      <trkpt lat="49.77013" lon="2.30565">
        <ele>110.2</ele>
        <time>2023-07-12T08:46:51Z</time>
      </trkpt>
      <trkpt lat="49.77013" lon="2.30564">
        <ele>110.2</ele>
        <time>2023-07-12T08:46:53Z</time>
      </trkpt>
      <trkpt lat="49.77013" lon="2.30563">
        <ele>110.2</ele>
        <time>2023-07-12T08:46:54Z</time>
      </trkpt>
      <trkpt lat="49.77014" lon="2.30562">
        <ele>110.1</ele>
        <time>2023-07-12T08:46:55Z</time>
      </trkpt>
      <trkpt lat="49.77014" lon="2.30562">
        <ele>110.1</ele>
        <time>2023-07-12T08:46:56Z</time>
      </trkpt>
      <trkpt lat="49.77015" lon="2.30561">
        <ele>110</ele>
        <time>2023-07-12T08:46:57Z</time>
      </trkpt>
      <trkpt lat="49.77015" lon="2.3056">
        <ele>110</ele>
        <time>2023-07-12T08:46:58Z</time>
      </trkpt>
      <trkpt lat="49.77015" lon="2.3056">
        <ele>110</ele>
        <time>2023-07-12T08:47:00Z</time>
      </trkpt>
      <trkpt lat="49.77015" lon="2.30559">
        <ele>110</ele>
        <time>2023-07-12T08:47:01Z</time>
      </trkpt>
      <trkpt lat="49.77015" lon="2.30558">
        <ele>109.9</ele>
        <time>2023-07-12T08:47:02Z</time>
      </trkpt>
      <trkpt lat="49.77016" lon="2.30556">
        <ele>109.9</ele>
        <time>2023-07-12T08:47:03Z</time>
      </trkpt>
      <trkpt lat="49.77016" lon="2.30555">
        <ele>109.8</ele>
        <time>2023-07-12T08:47:04Z</time>
      </trkpt>
      <trkpt lat="49.77016" lon="2.30554">
        <ele>109.7</ele>
        <time>2023-07-12T08:47:05Z</time>
      </trkpt>
      <trkpt lat="49.77016" lon="2.30552">
        <ele>109.7</ele>
        <time>2023-07-12T08:47:07Z</time>
      </trkpt>
      <trkpt lat="49.77017" lon="2.30551">
        <ele>109.6</ele>
        <time>2023-07-12T08:47:08Z</time>
      </trkpt>
      <trkpt lat="49.77017" lon="2.3055">
        <ele>109.6</ele>
        <time>2023-07-12T08:47:09Z</time>
      </trkpt>
      <trkpt lat="49.77017" lon="2.30549">
        <ele>109.5</ele>
        <time>2023-07-12T08:47:10Z</time>
      </trkpt>
      <trkpt lat="49.77017" lon="2.30547">
        <ele>109.5</ele>
        <time>2023-07-12T08:47:12Z</time>
      </trkpt>
      <trkpt lat="49.77018" lon="2.30546">
        <ele>109.4</ele>
        <time>2023-07-12T08:47:13Z</time>
      </trkpt>
      <trkpt lat="49.77018" lon="2.30545">
        <ele>109.3</ele>
        <time>2023-07-12T08:47:14Z</time>
      </trkpt>
      <trkpt lat="49.77018" lon="2.30543">
        <ele>109.3</ele>
        <time>2023-07-12T08:47:15Z</time>
      </trkpt>
      <trkpt lat="49.77018" lon="2.30541">
        <ele>109.2</ele>
        <time>2023-07-12T08:47:16Z</time>
      </trkpt>
      <trkpt lat="49.77018" lon="2.30539">
        <ele>109.1</ele>
        <time>2023-07-12T08:47:17Z</time>
      </trkpt>
      <trkpt lat="49.77018" lon="2.30538">
        <ele>109.1</ele>
        <time>2023-07-12T08:47:19Z</time>
      </trkpt>
      <trkpt lat="49.77018" lon="2.30537">
        <ele>109</ele>
        <time>2023-07-12T08:47:20Z</time>
      </trkpt>
      <trkpt lat="49.77018" lon="2.30536">
        <ele>109</ele>
        <time>2023-07-12T08:47:21Z</time>
      </trkpt>
      <trkpt lat="49.77018" lon="2.30534">
        <ele>108.9</ele>
        <time>2023-07-12T08:47:22Z</time>
      </trkpt>
      <trkpt lat="49.77018" lon="2.30532">
        <ele>108.9</ele>
        <time>2023-07-12T08:47:23Z</time>
      </trkpt>
      <trkpt lat="49.77018" lon="2.30531">
        <ele>108.8</ele>
        <time>2023-07-12T08:47:24Z</time>
      </trkpt>
      <trkpt lat="49.77018" lon="2.30529">
        <ele>108.7</ele>
        <time>2023-07-12T08:47:26Z</time>
      </trkpt>
      <trkpt lat="49.77019" lon="2.30528">
        <ele>108.7</ele>
        <time>2023-07-12T08:47:27Z</time>
      </trkpt>
      <trkpt lat="49.77018" lon="2.30525">
        <ele>108.6</ele>
        <time>2023-07-12T08:47:28Z</time>
      </trkpt>
      <trkpt lat="49.77018" lon="2.30523">
        <ele>108.5</ele>
        <time>2023-07-12T08:47:29Z</time>
      </trkpt>
      <trkpt lat="49.77018" lon="2.30522">
        <ele>108.5</ele>
        <time>2023-07-12T08:47:30Z</time>
      </trkpt>
      <trkpt lat="49.77018" lon="2.3052">
        <ele>108.4</ele>
        <time>2023-07-12T08:47:32Z</time>
      </trkpt>
      <trkpt lat="49.77018" lon="2.30517">
        <ele>108.3</ele>
        <time>2023-07-12T08:47:33Z</time>
      </trkpt>
      <trkpt lat="49.77018" lon="2.30515">
        <ele>108.2</ele>
        <time>2023-07-12T08:47:35Z</time>
      </trkpt>
      <trkpt lat="49.77018" lon="2.30514">
        <ele>108.1</ele>
        <time>2023-07-12T08:47:36Z</time>
      </trkpt>
      <trkpt lat="49.77018" lon="2.30512">
        <ele>108.1</ele>
        <time>2023-07-12T08:47:37Z</time>
      </trkpt>
      <trkpt lat="49.77017" lon="2.30511">
        <ele>108</ele>
        <time>2023-07-12T08:47:38Z</time>
      </trkpt>
      <trkpt lat="49.77017" lon="2.30509">
        <ele>108</ele>
        <time>2023-07-12T08:47:39Z</time>
      </trkpt>
      <trkpt lat="49.77017" lon="2.30508">
        <ele>107.9</ele>
        <time>2023-07-12T08:47:41Z</time>
      </trkpt>
      <trkpt lat="49.77017" lon="2.30507">
        <ele>107.9</ele>
        <time>2023-07-12T08:47:42Z</time>
      </trkpt>
      <trkpt lat="49.77017" lon="2.30505">
        <ele>107.8</ele>
        <time>2023-07-12T08:47:43Z</time>
      </trkpt>
      <trkpt lat="49.77018" lon="2.30503">
        <ele>107.8</ele>
        <time>2023-07-12T08:47:44Z</time>
      </trkpt>
      <trkpt lat="49.77018" lon="2.30501">
        <ele>107.7</ele>
        <time>2023-07-12T08:47:46Z</time>
      </trkpt>
      <trkpt lat="49.77018" lon="2.305">
        <ele>107.6</ele>
        <time>2023-07-12T08:47:47Z</time>
      </trkpt>
      <trkpt lat="49.77018" lon="2.30499">
        <ele>107.6</ele>
        <time>2023-07-12T08:47:48Z</time>
      </trkpt>
      <trkpt lat="49.77018" lon="2.30498">
        <ele>107.5</ele>
        <time>2023-07-12T08:47:50Z</time>
      </trkpt>
      <trkpt lat="49.77018" lon="2.30497">
        <ele>107.5</ele>
        <time>2023-07-12T08:47:51Z</time>
      </trkpt>
      <trkpt lat="49.77019" lon="2.30496">
        <ele>107.5</ele>
        <time>2023-07-12T08:47:52Z</time>
      </trkpt>
      <trkpt lat="49.77019" lon="2.30494">
        <ele>107.4</ele>
        <time>2023-07-12T08:47:53Z</time>
      </trkpt>
      <trkpt lat="49.77019" lon="2.30493">
        <ele>107.4</ele>
        <time>2023-07-12T08:47:54Z</time>
      </trkpt>
      <trkpt lat="49.77019" lon="2.30492">
        <ele>107.3</ele>
        <time>2023-07-12T08:47:55Z</time>
      </trkpt>
      <trkpt lat="49.7702" lon="2.30491">
        <ele>107.3</ele>
        <time>2023-07-12T08:47:57Z</time>
      </trkpt>
      <trkpt lat="49.7702" lon="2.3049">
        <ele>107.2</ele>
        <time>2023-07-12T08:47:58Z</time>
      </trkpt>
      <trkpt lat="49.7702" lon="2.30489">
        <ele>107.2</ele>
        <time>2023-07-12T08:47:59Z</time>
      </trkpt>
      <trkpt lat="49.7702" lon="2.30488">
        <ele>107.1</ele>
        <time>2023-07-12T08:48:00Z</time>
      </trkpt>
      <trkpt lat="49.77021" lon="2.30486">
        <ele>107.1</ele>
        <time>2023-07-12T08:48:01Z</time>
      </trkpt>
      <trkpt lat="49.77021" lon="2.30485">
        <ele>107</ele>
        <time>2023-07-12T08:48:02Z</time>
      </trkpt>
      <trkpt lat="49.77021" lon="2.30483">
        <ele>106.9</ele>
        <time>2023-07-12T08:48:03Z</time>
      </trkpt>
      <trkpt lat="49.77021" lon="2.30481">
        <ele>106.9</ele>
        <time>2023-07-12T08:48:05Z</time>
      </trkpt>
      <trkpt lat="49.77021" lon="2.3048">
        <ele>106.8</ele>
        <time>2023-07-12T08:48:06Z</time>
      </trkpt>
      <trkpt lat="49.77022" lon="2.30477">
        <ele>106.7</ele>
        <time>2023-07-12T08:48:07Z</time>
      </trkpt>
      <trkpt lat="49.77022" lon="2.30475">
        <ele>106.6</ele>
        <time>2023-07-12T08:48:08Z</time>
      </trkpt>
      <trkpt lat="49.77022" lon="2.30474">
        <ele>106.5</ele>
        <time>2023-07-12T08:48:09Z</time>
      </trkpt>
      <trkpt lat="49.77023" lon="2.30472">
        <ele>106.5</ele>
        <time>2023-07-12T08:48:10Z</time>
      </trkpt>
      <trkpt lat="49.77023" lon="2.3047">
        <ele>106.4</ele>
        <time>2023-07-12T08:48:12Z</time>
      </trkpt>
      <trkpt lat="49.77023" lon="2.30468">
        <ele>106.3</ele>
        <time>2023-07-12T08:48:13Z</time>
      </trkpt>
      <trkpt lat="49.77023" lon="2.30465">
        <ele>106.2</ele>
        <time>2023-07-12T08:48:14Z</time>
      </trkpt>
      <trkpt lat="49.77023" lon="2.30462">
        <ele>106.1</ele>
        <time>2023-07-12T08:48:15Z</time>
      </trkpt>
      <trkpt lat="49.77023" lon="2.3046">
        <ele>105.9</ele>
        <time>2023-07-12T08:48:16Z</time>
      </trkpt>
      <trkpt lat="49.77024" lon="2.30457">
        <ele>105.8</ele>
        <time>2023-07-12T08:48:17Z</time>
      </trkpt>
      <trkpt lat="49.77024" lon="2.30455">
        <ele>105.8</ele>
        <time>2023-07-12T08:48:18Z</time>
      </trkpt>
      <trkpt lat="49.77025" lon="2.30452">
        <ele>105.6</ele>
        <time>2023-07-12T08:48:20Z</time>
      </trkpt>
      <trkpt lat="49.77025" lon="2.30451">
        <ele>105.6</ele>
        <time>2023-07-12T08:48:21Z</time>
      </trkpt>
      <trkpt lat="49.77025" lon="2.3045">
        <ele>105.5</ele>
        <time>2023-07-12T08:48:22Z</time>
      </trkpt>
      <trkpt lat="49.77026" lon="2.30447">
        <ele>105.4</ele>
        <time>2023-07-12T08:48:23Z</time>
      </trkpt>
      <trkpt lat="49.77026" lon="2.30445">
        <ele>105.4</ele>
        <time>2023-07-12T08:48:24Z</time>
      </trkpt>
      <trkpt lat="49.77026" lon="2.30444">
        <ele>105.3</ele>
        <time>2023-07-12T08:48:25Z</time>
      </trkpt>
      <trkpt lat="49.77026" lon="2.30442">
        <ele>105.2</ele>
        <time>2023-07-12T08:48:26Z</time>
      </trkpt>
      <trkpt lat="49.77026" lon="2.3044">
        <ele>105.1</ele>
        <time>2023-07-12T08:48:28Z</time>
      </trkpt>
      <trkpt lat="49.77027" lon="2.30438">
        <ele>105.1</ele>
        <time>2023-07-12T08:48:29Z</time>
      </trkpt>
      <trkpt lat="49.77027" lon="2.30436">
        <ele>105</ele>
        <time>2023-07-12T08:48:30Z</time>
      </trkpt>
      <trkpt lat="49.77028" lon="2.30434">
        <ele>104.9</ele>
        <time>2023-07-12T08:48:31Z</time>
      </trkpt>
      <trkpt lat="49.77028" lon="2.30431">
        <ele>104.8</ele>
        <time>2023-07-12T08:48:32Z</time>
      </trkpt>
      <trkpt lat="49.77028" lon="2.30429">
        <ele>104.7</ele>
        <time>2023-07-12T08:48:34Z</time>
      </trkpt>
      <trkpt lat="49.77028" lon="2.30427">
        <ele>104.7</ele>
        <time>2023-07-12T08:48:35Z</time>
      </trkpt>
      <trkpt lat="49.77028" lon="2.30424">
        <ele>104.6</ele>
        <time>2023-07-12T08:48:36Z</time>
      </trkpt>
      <trkpt lat="49.77028" lon="2.30422">
        <ele>104.5</ele>
        <time>2023-07-12T08:48:37Z</time>
      </trkpt>
      <trkpt lat="49.77029" lon="2.3042">
        <ele>104.5</ele>
        <time>2023-07-12T08:48:38Z</time>
      </trkpt>
      <trkpt lat="49.77029" lon="2.30419">
        <ele>104.5</ele>
        <time>2023-07-12T08:48:40Z</time>
      </trkpt>
      <trkpt lat="49.77029" lon="2.30417">
        <ele>104.4</ele>
        <time>2023-07-12T08:48:41Z</time>
      </trkpt>
      <trkpt lat="49.7703" lon="2.30414">
        <ele>104.3</ele>
        <time>2023-07-12T08:48:42Z</time>
      </trkpt>
      <trkpt lat="49.7703" lon="2.30413">
        <ele>104.3</ele>
        <time>2023-07-12T08:48:43Z</time>
      </trkpt>
      <trkpt lat="49.7703" lon="2.30411">
        <ele>104.3</ele>
        <time>2023-07-12T08:48:44Z</time>
      </trkpt>
      <trkpt lat="49.77031" lon="2.30408">
        <ele>104.2</ele>
        <time>2023-07-12T08:48:45Z</time>
      </trkpt>
      <trkpt lat="49.77031" lon="2.30407">
        <ele>104.2</ele>
        <time>2023-07-12T08:48:47Z</time>
      </trkpt>
      <trkpt lat="49.77031" lon="2.30406">
        <ele>104.1</ele>
        <time>2023-07-12T08:48:48Z</time>
      </trkpt>
      <trkpt lat="49.77032" lon="2.30404">
        <ele>104.1</ele>
        <time>2023-07-12T08:48:49Z</time>
      </trkpt>
      <trkpt lat="49.77033" lon="2.30402">
        <ele>104</ele>
        <time>2023-07-12T08:48:50Z</time>
      </trkpt>
      <trkpt lat="49.77034" lon="2.30401">
        <ele>104</ele>
        <time>2023-07-12T08:48:51Z</time>
      </trkpt>
      <trkpt lat="49.77034" lon="2.30399">
        <ele>104</ele>
        <time>2023-07-12T08:48:52Z</time>
      </trkpt>
      <trkpt lat="49.77035" lon="2.30397">
        <ele>103.9</ele>
        <time>2023-07-12T08:48:54Z</time>
      </trkpt>
      <trkpt lat="49.77036" lon="2.30396">
        <ele>103.9</ele>
        <time>2023-07-12T08:48:55Z</time>
      </trkpt>
      <trkpt lat="49.77036" lon="2.30394">
        <ele>103.9</ele>
        <time>2023-07-12T08:48:56Z</time>
      </trkpt>
      <trkpt lat="49.77037" lon="2.30392">
        <ele>103.8</ele>
        <time>2023-07-12T08:48:57Z</time>
      </trkpt>
      <trkpt lat="49.77038" lon="2.30391">
        <ele>103.8</ele>
        <time>2023-07-12T08:48:58Z</time>
      </trkpt>
      <trkpt lat="49.77038" lon="2.30389">
        <ele>103.7</ele>
        <time>2023-07-12T08:48:59Z</time>
      </trkpt>
      <trkpt lat="49.77039" lon="2.30388">
        <ele>103.7</ele>
        <time>2023-07-12T08:49:01Z</time>
      </trkpt>
      <trkpt lat="49.77041" lon="2.30385">
        <ele>103.6</ele>
        <time>2023-07-12T08:49:02Z</time>
      </trkpt>
      <trkpt lat="49.77041" lon="2.30385">
        <ele>103.6</ele>
        <time>2023-07-12T08:49:03Z</time>
      </trkpt>
      <trkpt lat="49.77042" lon="2.30384">
        <ele>103.6</ele>
        <time>2023-07-12T08:49:04Z</time>
      </trkpt>
      <trkpt lat="49.77043" lon="2.30382">
        <ele>103.5</ele>
        <time>2023-07-12T08:49:05Z</time>
      </trkpt>
      <trkpt lat="49.77044" lon="2.30381">
        <ele>103.5</ele>
        <time>2023-07-12T08:49:06Z</time>
      </trkpt>
      <trkpt lat="49.77045" lon="2.30378">
        <ele>103.4</ele>
        <time>2023-07-12T08:49:08Z</time>
      </trkpt>
      <trkpt lat="49.77046" lon="2.30377">
        <ele>103.4</ele>
        <time>2023-07-12T08:49:09Z</time>
      </trkpt>
      <trkpt lat="49.77046" lon="2.30376">
        <ele>103.4</ele>
        <time>2023-07-12T08:49:10Z</time>
      </trkpt>
      <trkpt lat="49.77047" lon="2.30375">
        <ele>103.3</ele>
        <time>2023-07-12T08:49:11Z</time>
      </trkpt>
      <trkpt lat="49.77048" lon="2.30373">
        <ele>103.3</ele>
        <time>2023-07-12T08:49:12Z</time>
      </trkpt>
      <trkpt lat="49.77048" lon="2.30371">
        <ele>103.2</ele>
        <time>2023-07-12T08:49:14Z</time>
      </trkpt>
      <trkpt lat="49.77049" lon="2.3037">
        <ele>103.2</ele>
        <time>2023-07-12T08:49:15Z</time>
      </trkpt>
      <trkpt lat="49.77049" lon="2.30368">
        <ele>103.1</ele>
        <time>2023-07-12T08:49:16Z</time>
      </trkpt>
      <trkpt lat="49.7705" lon="2.30366">
        <ele>103.1</ele>
        <time>2023-07-12T08:49:17Z</time>
      </trkpt>
      <trkpt lat="49.7705" lon="2.30364">
        <ele>103</ele>
        <time>2023-07-12T08:49:18Z</time>
      </trkpt>
      <trkpt lat="49.7705" lon="2.30362">
        <ele>103</ele>
        <time>2023-07-12T08:49:19Z</time>
      </trkpt>
      <trkpt lat="49.77051" lon="2.30361">
        <ele>102.9</ele>
        <time>2023-07-12T08:49:20Z</time>
      </trkpt>
      <trkpt lat="49.77051" lon="2.3036">
        <ele>102.9</ele>
        <time>2023-07-12T08:49:22Z</time>
      </trkpt>
      <trkpt lat="49.77051" lon="2.30359">
        <ele>102.9</ele>
        <time>2023-07-12T08:49:23Z</time>
      </trkpt>
      <trkpt lat="49.77051" lon="2.30357">
        <ele>102.8</ele>
        <time>2023-07-12T08:49:25Z</time>
      </trkpt>
      <trkpt lat="49.77051" lon="2.30356">
        <ele>102.8</ele>
        <time>2023-07-12T08:49:26Z</time>
      </trkpt>
      <trkpt lat="49.77051" lon="2.30355">
        <ele>102.7</ele>
        <time>2023-07-12T08:49:28Z</time>
      </trkpt>
      <trkpt lat="49.77051" lon="2.30354">
        <ele>102.7</ele>
        <time>2023-07-12T08:49:29Z</time>
      </trkpt>
      <trkpt lat="49.77051" lon="2.30353">
        <ele>102.7</ele>
        <time>2023-07-12T08:49:30Z</time>
      </trkpt>
      <trkpt lat="49.77051" lon="2.30352">
        <ele>102.6</ele>
        <time>2023-07-12T08:49:31Z</time>
      </trkpt>
      <trkpt lat="49.77052" lon="2.30351">
        <ele>102.6</ele>
        <time>2023-07-12T08:49:33Z</time>
      </trkpt>
      <trkpt lat="49.77052" lon="2.3035">
        <ele>102.6</ele>
        <time>2023-07-12T08:49:34Z</time>
      </trkpt>
      <trkpt lat="49.77053" lon="2.30349">
        <ele>102.5</ele>
        <time>2023-07-12T08:49:35Z</time>
      </trkpt>
      <trkpt lat="49.77053" lon="2.30347">
        <ele>102.4</ele>
        <time>2023-07-12T08:49:37Z</time>
      </trkpt>
      <trkpt lat="49.77053" lon="2.30346">
        <ele>102.4</ele>
        <time>2023-07-12T08:49:39Z</time>
      </trkpt>
      <trkpt lat="49.77053" lon="2.30346">
        <ele>102.4</ele>
        <time>2023-07-12T08:49:40Z</time>
      </trkpt>
      <trkpt lat="49.77054" lon="2.30345">
        <ele>102.4</ele>
        <time>2023-07-12T08:49:41Z</time>
      </trkpt>
      <trkpt lat="49.77054" lon="2.30344">
        <ele>102.3</ele>
        <time>2023-07-12T08:49:42Z</time>
      </trkpt>
      <trkpt lat="49.77054" lon="2.30344">
        <ele>102.3</ele>
        <time>2023-07-12T08:49:43Z</time>
      </trkpt>
      <trkpt lat="49.77053" lon="2.30344">
        <ele>102.3</ele>
        <time>2023-07-12T08:49:44Z</time>
      </trkpt>
      <trkpt lat="49.77053" lon="2.30343">
        <ele>102.3</ele>
        <time>2023-07-12T08:49:45Z</time>
      </trkpt>
      <trkpt lat="49.77053" lon="2.30343">
        <ele>102.3</ele>
        <time>2023-07-12T08:49:47Z</time>
      </trkpt>
      <trkpt lat="49.77052" lon="2.30342">
        <ele>102.2</ele>
        <time>2023-07-12T08:49:48Z</time>
      </trkpt>
      <trkpt lat="49.77052" lon="2.30342">
        <ele>102.2</ele>
        <time>2023-07-12T08:49:49Z</time>
      </trkpt>
      <trkpt lat="49.77052" lon="2.30341">
        <ele>102.2</ele>
        <time>2023-07-12T08:49:50Z</time>
      </trkpt>
      <trkpt lat="49.77052" lon="2.3034">
        <ele>102.1</ele>
        <time>2023-07-12T08:49:51Z</time>
      </trkpt>
      <trkpt lat="49.77052" lon="2.3034">
        <ele>102.1</ele>
        <time>2023-07-12T08:49:52Z</time>
      </trkpt>
      <trkpt lat="49.77052" lon="2.3034">
        <ele>102.1</ele>
        <time>2023-07-12T08:49:54Z</time>
      </trkpt>
      <trkpt lat="49.77052" lon="2.3034">
        <ele>102.1</ele>
        <time>2023-07-12T08:49:55Z</time>
      </trkpt>
      <trkpt lat="49.77052" lon="2.30339">
        <ele>102.1</ele>
        <time>2023-07-12T08:49:56Z</time>
      </trkpt>
      <trkpt lat="49.77052" lon="2.30338">
        <ele>102</ele>
        <time>2023-07-12T08:49:57Z</time>
      </trkpt>
      <trkpt lat="49.77052" lon="2.30337">
        <ele>102</ele>
        <time>2023-07-12T08:49:58Z</time>
      </trkpt>
      <trkpt lat="49.77052" lon="2.30336">
        <ele>101.9</ele>
        <time>2023-07-12T08:49:59Z</time>
      </trkpt>
      <trkpt lat="49.77052" lon="2.30333">
        <ele>101.8</ele>
        <time>2023-07-12T08:50:01Z</time>
      </trkpt>
      <trkpt lat="49.77052" lon="2.30331">
        <ele>101.8</ele>
        <time>2023-07-12T08:50:02Z</time>
      </trkpt>
      <trkpt lat="49.77052" lon="2.3033">
        <ele>101.7</ele>
        <time>2023-07-12T08:50:03Z</time>
      </trkpt>
      <trkpt lat="49.77052" lon="2.30327">
        <ele>101.6</ele>
        <time>2023-07-12T08:50:04Z</time>
      </trkpt>
      <trkpt lat="49.77052" lon="2.30325">
        <ele>101.4</ele>
        <time>2023-07-12T08:50:05Z</time>
      </trkpt>
      <trkpt lat="49.77051" lon="2.3032">
        <ele>101.2</ele>
        <time>2023-07-12T08:50:07Z</time>
      </trkpt>
      <trkpt lat="49.77051" lon="2.30319">
        <ele>101.1</ele>
        <time>2023-07-12T08:50:08Z</time>
      </trkpt>
      <trkpt lat="49.77051" lon="2.30316">
        <ele>101</ele>
        <time>2023-07-12T08:50:09Z</time>
      </trkpt>
      <trkpt lat="49.77051" lon="2.30314">
        <ele>100.8</ele>
        <time>2023-07-12T08:50:10Z</time>
      </trkpt>
      <trkpt lat="49.77051" lon="2.30311">
        <ele>100.7</ele>
        <time>2023-07-12T08:50:11Z</time>
      </trkpt>
      <trkpt lat="49.77051" lon="2.30309">
        <ele>100.6</ele>
        <time>2023-07-12T08:50:13Z</time>
      </trkpt>
      <trkpt lat="49.77051" lon="2.30306">
        <ele>100.5</ele>
        <time>2023-07-12T08:50:14Z</time>
      </trkpt>
      <trkpt lat="49.77051" lon="2.30304">
        <ele>100.3</ele>
        <time>2023-07-12T08:50:15Z</time>
      </trkpt>
      <trkpt lat="49.77051" lon="2.30302">
        <ele>100.2</ele>
        <time>2023-07-12T08:50:16Z</time>
      </trkpt>
      <trkpt lat="49.7705" lon="2.303">
        <ele>100.1</ele>
        <time>2023-07-12T08:50:17Z</time>
      </trkpt>
      <trkpt lat="49.7705" lon="2.30298">
        <ele>100</ele>
        <time>2023-07-12T08:50:19Z</time>
      </trkpt>
      <trkpt lat="49.7705" lon="2.30296">
        <ele>99.9</ele>
        <time>2023-07-12T08:50:20Z</time>
      </trkpt>
      <trkpt lat="49.7705" lon="2.30295">
        <ele>99.8</ele>
        <time>2023-07-12T08:50:21Z</time>
      </trkpt>
      <trkpt lat="49.7705" lon="2.30293">
        <ele>99.7</ele>
        <time>2023-07-12T08:50:22Z</time>
      </trkpt>
      <trkpt lat="49.7705" lon="2.30291">
        <ele>99.6</ele>
        <time>2023-07-12T08:50:23Z</time>
      </trkpt>
      <trkpt lat="49.7705" lon="2.30289">
        <ele>99.5</ele>
        <time>2023-07-12T08:50:24Z</time>
      </trkpt>
      <trkpt lat="49.77051" lon="2.30288">
        <ele>99.5</ele>
        <time>2023-07-12T08:50:26Z</time>
      </trkpt>
      <trkpt lat="49.77051" lon="2.30287">
        <ele>99.4</ele>
        <time>2023-07-12T08:50:27Z</time>
      </trkpt>
      <trkpt lat="49.77051" lon="2.30285">
        <ele>99.3</ele>
        <time>2023-07-12T08:50:28Z</time>
      </trkpt>
      <trkpt lat="49.77052" lon="2.30284">
        <ele>99.2</ele>
        <time>2023-07-12T08:50:29Z</time>
      </trkpt>
      <trkpt lat="49.77052" lon="2.30282">
        <ele>99.2</ele>
        <time>2023-07-12T08:50:30Z</time>
      </trkpt>
      <trkpt lat="49.77052" lon="2.30281">
        <ele>99.1</ele>
        <time>2023-07-12T08:50:31Z</time>
      </trkpt>
      <trkpt lat="49.77052" lon="2.30279">
        <ele>99</ele>
        <time>2023-07-12T08:50:32Z</time>
      </trkpt>
      <trkpt lat="49.77052" lon="2.30278">
        <ele>98.9</ele>
        <time>2023-07-12T08:50:34Z</time>
      </trkpt>
      <trkpt lat="49.77053" lon="2.30276">
        <ele>98.8</ele>
        <time>2023-07-12T08:50:35Z</time>
      </trkpt>
      <trkpt lat="49.77053" lon="2.30274">
        <ele>98.7</ele>
        <time>2023-07-12T08:50:36Z</time>
      </trkpt>
      <trkpt lat="49.77054" lon="2.30271">
        <ele>98.6</ele>
        <time>2023-07-12T08:50:37Z</time>
      </trkpt>
      <trkpt lat="49.77054" lon="2.30269">
        <ele>98.4</ele>
        <time>2023-07-12T08:50:38Z</time>
      </trkpt>
      <trkpt lat="49.77055" lon="2.30267">
        <ele>98.3</ele>
        <time>2023-07-12T08:50:39Z</time>
      </trkpt>
      <trkpt lat="49.77056" lon="2.30264">
        <ele>98.2</ele>
        <time>2023-07-12T08:50:40Z</time>
      </trkpt>
      <trkpt lat="49.77056" lon="2.30262">
        <ele>98.1</ele>
        <time>2023-07-12T08:50:42Z</time>
      </trkpt>
      <trkpt lat="49.77057" lon="2.30259">
        <ele>98</ele>
        <time>2023-07-12T08:50:43Z</time>
      </trkpt>
      <trkpt lat="49.77057" lon="2.30257">
        <ele>97.8</ele>
        <time>2023-07-12T08:50:44Z</time>
      </trkpt>
      <trkpt lat="49.77057" lon="2.30254">
        <ele>97.7</ele>
        <time>2023-07-12T08:50:45Z</time>
      </trkpt>
      <trkpt lat="49.77058" lon="2.30251">
        <ele>97.6</ele>
        <time>2023-07-12T08:50:46Z</time>
      </trkpt>
      <trkpt lat="49.77058" lon="2.30249">
        <ele>97.5</ele>
        <time>2023-07-12T08:50:47Z</time>
      </trkpt>
      <trkpt lat="49.77058" lon="2.30246">
        <ele>97.4</ele>
        <time>2023-07-12T08:50:49Z</time>
      </trkpt>
      <trkpt lat="49.77058" lon="2.30244">
        <ele>97.3</ele>
        <time>2023-07-12T08:50:50Z</time>
      </trkpt>
      <trkpt lat="49.77058" lon="2.30242">
        <ele>97.2</ele>
        <time>2023-07-12T08:50:51Z</time>
      </trkpt>
      <trkpt lat="49.77059" lon="2.30239">
        <ele>97.1</ele>
        <time>2023-07-12T08:50:52Z</time>
      </trkpt>
      <trkpt lat="49.77059" lon="2.30237">
        <ele>97</ele>
        <time>2023-07-12T08:50:53Z</time>
      </trkpt>
      <trkpt lat="49.77059" lon="2.30234">
        <ele>96.9</ele>
        <time>2023-07-12T08:50:54Z</time>
      </trkpt>
      <trkpt lat="49.77059" lon="2.30233">
        <ele>96.8</ele>
        <time>2023-07-12T08:50:56Z</time>
      </trkpt>
      <trkpt lat="49.7706" lon="2.30232">
        <ele>96.8</ele>
        <time>2023-07-12T08:50:57Z</time>
      </trkpt>
      <trkpt lat="49.7706" lon="2.3023">
        <ele>96.7</ele>
        <time>2023-07-12T08:50:58Z</time>
      </trkpt>
      <trkpt lat="49.7706" lon="2.30228">
        <ele>96.6</ele>
        <time>2023-07-12T08:50:59Z</time>
      </trkpt>
      <trkpt lat="49.77061" lon="2.30227">
        <ele>96.6</ele>
        <time>2023-07-12T08:51:01Z</time>
      </trkpt>
      <trkpt lat="49.77061" lon="2.30226">
        <ele>96.5</ele>
        <time>2023-07-12T08:51:02Z</time>
      </trkpt>
      <trkpt lat="49.77061" lon="2.30225">
        <ele>96.5</ele>
        <time>2023-07-12T08:51:03Z</time>
      </trkpt>
      <trkpt lat="49.77061" lon="2.30225">
        <ele>96.5</ele>
        <time>2023-07-12T08:51:04Z</time>
      </trkpt>
      <trkpt lat="49.77061" lon="2.30225">
        <ele>96.5</ele>
        <time>2023-07-12T08:51:05Z</time>
      </trkpt>
      <trkpt lat="49.77061" lon="2.30224">
        <ele>96.5</ele>
        <time>2023-07-12T08:51:06Z</time>
      </trkpt>
      <trkpt lat="49.77061" lon="2.30224">
        <ele>96.5</ele>
        <time>2023-07-12T08:51:08Z</time>
      </trkpt>
      <trkpt lat="49.77061" lon="2.30224">
        <ele>96.5</ele>
        <time>2023-07-12T08:51:09Z</time>
      </trkpt>
      <trkpt lat="49.77061" lon="2.30223">
        <ele>96.4</ele>
        <time>2023-07-12T08:51:10Z</time>
      </trkpt>
      <trkpt lat="49.77062" lon="2.30222">
        <ele>96.4</ele>
        <time>2023-07-12T08:51:11Z</time>
      </trkpt>
      <trkpt lat="49.77062" lon="2.30221">
        <ele>96.3</ele>
        <time>2023-07-12T08:51:12Z</time>
      </trkpt>
      <trkpt lat="49.77063" lon="2.3022">
        <ele>96.3</ele>
        <time>2023-07-12T08:51:13Z</time>
      </trkpt>
      <trkpt lat="49.77063" lon="2.30218">
        <ele>96.2</ele>
        <time>2023-07-12T08:51:15Z</time>
      </trkpt>
      <trkpt lat="49.77064" lon="2.30217">
        <ele>96.2</ele>
        <time>2023-07-12T08:51:16Z</time>
      </trkpt>
      <trkpt lat="49.77064" lon="2.30215">
        <ele>96.1</ele>
        <time>2023-07-12T08:51:17Z</time>
      </trkpt>
      <trkpt lat="49.77065" lon="2.30214">
        <ele>96</ele>
        <time>2023-07-12T08:51:18Z</time>
      </trkpt>
      <trkpt lat="49.77067" lon="2.30213">
        <ele>95.9</ele>
        <time>2023-07-12T08:51:19Z</time>
      </trkpt>
      <trkpt lat="49.77068" lon="2.30212">
        <ele>95.9</ele>
        <time>2023-07-12T08:51:20Z</time>
      </trkpt>
      <trkpt lat="49.77069" lon="2.3021">
        <ele>95.8</ele>
        <time>2023-07-12T08:51:22Z</time>
      </trkpt>
      <trkpt lat="49.7707" lon="2.30209">
        <ele>95.7</ele>
        <time>2023-07-12T08:51:23Z</time>
      </trkpt>
      <trkpt lat="49.77071" lon="2.30208">
        <ele>95.7</ele>
        <time>2023-07-12T08:51:24Z</time>
      </trkpt>
      <trkpt lat="49.77072" lon="2.30206">
        <ele>95.6</ele>
        <time>2023-07-12T08:51:25Z</time>
      </trkpt>
      <trkpt lat="49.77073" lon="2.30205">
        <ele>95.5</ele>
        <time>2023-07-12T08:51:26Z</time>
      </trkpt>
      <trkpt lat="49.77074" lon="2.30203">
        <ele>95.5</ele>
        <time>2023-07-12T08:51:27Z</time>
      </trkpt>
      <trkpt lat="49.77075" lon="2.30202">
        <ele>95.4</ele>
        <time>2023-07-12T08:51:28Z</time>
      </trkpt>
      <trkpt lat="49.77076" lon="2.302">
        <ele>95.3</ele>
        <time>2023-07-12T08:51:29Z</time>
      </trkpt>
      <trkpt lat="49.77076" lon="2.30199">
        <ele>95.3</ele>
        <time>2023-07-12T08:51:31Z</time>
      </trkpt>
      <trkpt lat="49.77077" lon="2.30197">
        <ele>95.2</ele>
        <time>2023-07-12T08:51:32Z</time>
      </trkpt>
      <trkpt lat="49.77079" lon="2.30196">
        <ele>95.1</ele>
        <time>2023-07-12T08:51:33Z</time>
      </trkpt>
      <trkpt lat="49.7708" lon="2.30194">
        <ele>95</ele>
        <time>2023-07-12T08:51:34Z</time>
      </trkpt>
      <trkpt lat="49.77081" lon="2.30192">
        <ele>95</ele>
        <time>2023-07-12T08:51:35Z</time>
      </trkpt>
      <trkpt lat="49.77082" lon="2.3019">
        <ele>94.9</ele>
        <time>2023-07-12T08:51:36Z</time>
      </trkpt>
      <trkpt lat="49.77083" lon="2.30189">
        <ele>94.8</ele>
        <time>2023-07-12T08:51:37Z</time>
      </trkpt>
      <trkpt lat="49.77084" lon="2.30186">
        <ele>94.8</ele>
        <time>2023-07-12T08:51:39Z</time>
      </trkpt>
      <trkpt lat="49.77085" lon="2.30186">
        <ele>94.7</ele>
        <time>2023-07-12T08:51:40Z</time>
      </trkpt>
      <trkpt lat="49.77085" lon="2.30185">
        <ele>94.7</ele>
        <time>2023-07-12T08:51:41Z</time>
      </trkpt>
      <trkpt lat="49.77086" lon="2.30183">
        <ele>94.6</ele>
        <time>2023-07-12T08:51:42Z</time>
      </trkpt>
      <trkpt lat="49.77087" lon="2.30181">
        <ele>94.6</ele>
        <time>2023-07-12T08:51:43Z</time>
      </trkpt>
      <trkpt lat="49.77087" lon="2.3018">
        <ele>94.5</ele>
        <time>2023-07-12T08:51:44Z</time>
      </trkpt>
      <trkpt lat="49.77088" lon="2.30179">
        <ele>94.5</ele>
        <time>2023-07-12T08:51:45Z</time>
      </trkpt>
      <trkpt lat="49.77088" lon="2.30177">
        <ele>94.4</ele>
        <time>2023-07-12T08:51:47Z</time>
      </trkpt>
      <trkpt lat="49.77089" lon="2.30176">
        <ele>94.4</ele>
        <time>2023-07-12T08:51:48Z</time>
      </trkpt>
      <trkpt lat="49.7709" lon="2.30175">
        <ele>94.3</ele>
        <time>2023-07-12T08:51:49Z</time>
      </trkpt>
      <trkpt lat="49.7709" lon="2.30174">
        <ele>94.3</ele>
        <time>2023-07-12T08:51:50Z</time>
      </trkpt>
      <trkpt lat="49.77091" lon="2.30173">
        <ele>94.3</ele>
        <time>2023-07-12T08:51:51Z</time>
      </trkpt>
      <trkpt lat="49.77092" lon="2.30172">
        <ele>94.2</ele>
        <time>2023-07-12T08:51:52Z</time>
      </trkpt>
      <trkpt lat="49.77092" lon="2.30171">
        <ele>94.2</ele>
        <time>2023-07-12T08:51:53Z</time>
      </trkpt>
      <trkpt lat="49.77093" lon="2.3017">
        <ele>94.1</ele>
        <time>2023-07-12T08:51:55Z</time>
      </trkpt>
      <trkpt lat="49.77093" lon="2.30169">
        <ele>94.1</ele>
        <time>2023-07-12T08:51:56Z</time>
      </trkpt>
      <trkpt lat="49.77094" lon="2.30168">
        <ele>94.1</ele>
        <time>2023-07-12T08:51:57Z</time>
      </trkpt>
      <trkpt lat="49.77094" lon="2.30166">
        <ele>94</ele>
        <time>2023-07-12T08:51:58Z</time>
      </trkpt>
      <trkpt lat="49.77095" lon="2.30165">
        <ele>94</ele>
        <time>2023-07-12T08:51:59Z</time>
      </trkpt>
      <trkpt lat="49.77096" lon="2.30164">
        <ele>94</ele>
        <time>2023-07-12T08:52:00Z</time>
      </trkpt>
      <trkpt lat="49.77096" lon="2.30163">
        <ele>93.9</ele>
        <time>2023-07-12T08:52:01Z</time>
      </trkpt>
      <trkpt lat="49.77096" lon="2.30162">
        <ele>93.9</ele>
        <time>2023-07-12T08:52:02Z</time>
      </trkpt>
      <trkpt lat="49.77097" lon="2.30161">
        <ele>93.8</ele>
        <time>2023-07-12T08:52:04Z</time>
      </trkpt>
      <trkpt lat="49.77097" lon="2.3016">
        <ele>93.8</ele>
        <time>2023-07-12T08:52:05Z</time>
      </trkpt>
      <trkpt lat="49.77098" lon="2.30158">
        <ele>93.7</ele>
        <time>2023-07-12T08:52:06Z</time>
      </trkpt>
      <trkpt lat="49.77099" lon="2.30157">
        <ele>93.7</ele>
        <time>2023-07-12T08:52:07Z</time>
      </trkpt>
      <trkpt lat="49.77099" lon="2.30155">
        <ele>93.6</ele>
        <time>2023-07-12T08:52:08Z</time>
      </trkpt>
      <trkpt lat="49.771" lon="2.30153">
        <ele>93.6</ele>
        <time>2023-07-12T08:52:09Z</time>
      </trkpt>
      <trkpt lat="49.77101" lon="2.30152">
        <ele>93.5</ele>
        <time>2023-07-12T08:52:11Z</time>
      </trkpt>
      <trkpt lat="49.77102" lon="2.30149">
        <ele>93.4</ele>
        <time>2023-07-12T08:52:12Z</time>
      </trkpt>
      <trkpt lat="49.77102" lon="2.30148">
        <ele>93.4</ele>
        <time>2023-07-12T08:52:13Z</time>
      </trkpt>
      <trkpt lat="49.77103" lon="2.30146">
        <ele>93.4</ele>
        <time>2023-07-12T08:52:14Z</time>
      </trkpt>
      <trkpt lat="49.77104" lon="2.30145">
        <ele>93.3</ele>
        <time>2023-07-12T08:52:15Z</time>
      </trkpt>
      <trkpt lat="49.77105" lon="2.30143">
        <ele>93.3</ele>
        <time>2023-07-12T08:52:16Z</time>
      </trkpt>
      <trkpt lat="49.77106" lon="2.30142">
        <ele>93.2</ele>
        <time>2023-07-12T08:52:17Z</time>
      </trkpt>
      <trkpt lat="49.77107" lon="2.30141">
        <ele>93.1</ele>
        <time>2023-07-12T08:52:18Z</time>
      </trkpt>
      <trkpt lat="49.77108" lon="2.30139">
        <ele>93.1</ele>
        <time>2023-07-12T08:52:20Z</time>
      </trkpt>
      <trkpt lat="49.77109" lon="2.30137">
        <ele>93</ele>
        <time>2023-07-12T08:52:21Z</time>
      </trkpt>
      <trkpt lat="49.7711" lon="2.30136">
        <ele>93</ele>
        <time>2023-07-12T08:52:22Z</time>
      </trkpt>
      <trkpt lat="49.7711" lon="2.30135">
        <ele>93</ele>
        <time>2023-07-12T08:52:23Z</time>
      </trkpt>
      <trkpt lat="49.77112" lon="2.30133">
        <ele>92.9</ele>
        <time>2023-07-12T08:52:24Z</time>
      </trkpt>
      <trkpt lat="49.77112" lon="2.30132">
        <ele>92.9</ele>
        <time>2023-07-12T08:52:25Z</time>
      </trkpt>
      <trkpt lat="49.77113" lon="2.30131">
        <ele>92.8</ele>
        <time>2023-07-12T08:52:26Z</time>
      </trkpt>
      <trkpt lat="49.77114" lon="2.30129">
        <ele>92.8</ele>
        <time>2023-07-12T08:52:27Z</time>
      </trkpt>
      <trkpt lat="49.77115" lon="2.30128">
        <ele>92.7</ele>
        <time>2023-07-12T08:52:29Z</time>
      </trkpt>
      <trkpt lat="49.77115" lon="2.30127">
        <ele>92.7</ele>
        <time>2023-07-12T08:52:30Z</time>
      </trkpt>
      <trkpt lat="49.77116" lon="2.30124">
        <ele>92.6</ele>
        <time>2023-07-12T08:52:31Z</time>
      </trkpt>
      <trkpt lat="49.77117" lon="2.30123">
        <ele>92.6</ele>
        <time>2023-07-12T08:52:32Z</time>
      </trkpt>
      <trkpt lat="49.77117" lon="2.30122">
        <ele>92.6</ele>
        <time>2023-07-12T08:52:33Z</time>
      </trkpt>
      <trkpt lat="49.77118" lon="2.30121">
        <ele>92.6</ele>
        <time>2023-07-12T08:52:34Z</time>
      </trkpt>
      <trkpt lat="49.77118" lon="2.30119">
        <ele>92.5</ele>
        <time>2023-07-12T08:52:35Z</time>
      </trkpt>
      <trkpt lat="49.77119" lon="2.30118">
        <ele>92.5</ele>
        <time>2023-07-12T08:52:36Z</time>
      </trkpt>
      <trkpt lat="49.77121" lon="2.30115">
        <ele>92.4</ele>
        <time>2023-07-12T08:52:38Z</time>
      </trkpt>
      <trkpt lat="49.77121" lon="2.30114">
        <ele>92.4</ele>
        <time>2023-07-12T08:52:39Z</time>
      </trkpt>
      <trkpt lat="49.77122" lon="2.30112">
        <ele>92.4</ele>
        <time>2023-07-12T08:52:40Z</time>
      </trkpt>
      <trkpt lat="49.77122" lon="2.3011">
        <ele>92.4</ele>
        <time>2023-07-12T08:52:41Z</time>
      </trkpt>
      <trkpt lat="49.77123" lon="2.30109">
        <ele>92.3</ele>
        <time>2023-07-12T08:52:42Z</time>
      </trkpt>
      <trkpt lat="49.77124" lon="2.30106">
        <ele>92.3</ele>
        <time>2023-07-12T08:52:43Z</time>
      </trkpt>
      <trkpt lat="49.77125" lon="2.30105">
        <ele>92.3</ele>
        <time>2023-07-12T08:52:45Z</time>
      </trkpt>
      <trkpt lat="49.77125" lon="2.30104">
        <ele>92.3</ele>
        <time>2023-07-12T08:52:46Z</time>
      </trkpt>
      <trkpt lat="49.77126" lon="2.30101">
        <ele>92.2</ele>
        <time>2023-07-12T08:52:47Z</time>
      </trkpt>
      <trkpt lat="49.77127" lon="2.301">
        <ele>92.2</ele>
        <time>2023-07-12T08:52:48Z</time>
      </trkpt>
      <trkpt lat="49.77127" lon="2.30098">
        <ele>92.2</ele>
        <time>2023-07-12T08:52:49Z</time>
      </trkpt>
      <trkpt lat="49.77128" lon="2.30097">
        <ele>92.2</ele>
        <time>2023-07-12T08:52:51Z</time>
      </trkpt>
      <trkpt lat="49.77128" lon="2.30095">
        <ele>92.2</ele>
        <time>2023-07-12T08:52:52Z</time>
      </trkpt>
      <trkpt lat="49.77128" lon="2.30093">
        <ele>92.2</ele>
        <time>2023-07-12T08:52:53Z</time>
      </trkpt>
      <trkpt lat="49.77129" lon="2.30092">
        <ele>92.2</ele>
        <time>2023-07-12T08:52:54Z</time>
      </trkpt>
      <trkpt lat="49.77129" lon="2.3009">
        <ele>92.1</ele>
        <time>2023-07-12T08:52:55Z</time>
      </trkpt>
      <trkpt lat="49.7713" lon="2.30088">
        <ele>92.1</ele>
        <time>2023-07-12T08:52:57Z</time>
      </trkpt>
      <trkpt lat="49.7713" lon="2.30086">
        <ele>92.1</ele>
        <time>2023-07-12T08:52:58Z</time>
      </trkpt>
      <trkpt lat="49.77131" lon="2.30084">
        <ele>92.1</ele>
        <time>2023-07-12T08:52:59Z</time>
      </trkpt>
      <trkpt lat="49.77131" lon="2.30082">
        <ele>92.1</ele>
        <time>2023-07-12T08:53:00Z</time>
      </trkpt>
      <trkpt lat="49.77132" lon="2.30079">
        <ele>92.1</ele>
        <time>2023-07-12T08:53:02Z</time>
      </trkpt>
      <trkpt lat="49.77133" lon="2.30077">
        <ele>92.1</ele>
        <time>2023-07-12T08:53:03Z</time>
      </trkpt>
      <trkpt lat="49.77133" lon="2.30075">
        <ele>92.1</ele>
        <time>2023-07-12T08:53:04Z</time>
      </trkpt>
      <trkpt lat="49.77134" lon="2.30072">
        <ele>92.1</ele>
        <time>2023-07-12T08:53:05Z</time>
      </trkpt>
      <trkpt lat="49.77135" lon="2.30071">
        <ele>92.1</ele>
        <time>2023-07-12T08:53:07Z</time>
      </trkpt>
      <trkpt lat="49.77135" lon="2.3007">
        <ele>92.1</ele>
        <time>2023-07-12T08:53:08Z</time>
      </trkpt>
      <trkpt lat="49.77136" lon="2.30068">
        <ele>92.1</ele>
        <time>2023-07-12T08:53:09Z</time>
      </trkpt>
      <trkpt lat="49.77136" lon="2.30066">
        <ele>92.1</ele>
        <time>2023-07-12T08:53:10Z</time>
      </trkpt>
      <trkpt lat="49.77137" lon="2.30065">
        <ele>92</ele>
        <time>2023-07-12T08:53:12Z</time>
      </trkpt>
      <trkpt lat="49.77137" lon="2.30063">
        <ele>92</ele>
        <time>2023-07-12T08:53:13Z</time>
      </trkpt>
      <trkpt lat="49.77138" lon="2.30062">
        <ele>91.9</ele>
        <time>2023-07-12T08:53:14Z</time>
      </trkpt>
      <trkpt lat="49.77138" lon="2.3006">
        <ele>91.8</ele>
        <time>2023-07-12T08:53:15Z</time>
      </trkpt>
      <trkpt lat="49.77138" lon="2.30059">
        <ele>91.7</ele>
        <time>2023-07-12T08:53:16Z</time>
      </trkpt>
      <trkpt lat="49.77139" lon="2.30057">
        <ele>91.7</ele>
        <time>2023-07-12T08:53:17Z</time>
      </trkpt>
      <trkpt lat="49.77139" lon="2.30055">
        <ele>91.6</ele>
        <time>2023-07-12T08:53:18Z</time>
      </trkpt>
      <trkpt lat="49.7714" lon="2.30053">
        <ele>91.5</ele>
        <time>2023-07-12T08:53:20Z</time>
      </trkpt>
      <trkpt lat="49.77139" lon="2.30052">
        <ele>91.4</ele>
        <time>2023-07-12T08:53:21Z</time>
      </trkpt>
      <trkpt lat="49.77139" lon="2.3005">
        <ele>91.4</ele>
        <time>2023-07-12T08:53:22Z</time>
      </trkpt>
      <trkpt lat="49.77139" lon="2.30049">
        <ele>91.3</ele>
        <time>2023-07-12T08:53:23Z</time>
      </trkpt>
      <trkpt lat="49.7714" lon="2.30047">
        <ele>91.2</ele>
        <time>2023-07-12T08:53:25Z</time>
      </trkpt>
      <trkpt lat="49.77141" lon="2.30045">
        <ele>91.2</ele>
        <time>2023-07-12T08:53:27Z</time>
      </trkpt>
      <trkpt lat="49.77142" lon="2.30044">
        <ele>91.2</ele>
        <time>2023-07-12T08:53:29Z</time>
      </trkpt>
      <trkpt lat="49.77143" lon="2.30043">
        <ele>91.2</ele>
        <time>2023-07-12T08:53:30Z</time>
      </trkpt>
      <trkpt lat="49.77144" lon="2.30043">
        <ele>91.2</ele>
        <time>2023-07-12T08:53:32Z</time>
      </trkpt>
      <trkpt lat="49.77146" lon="2.30043">
        <ele>91.2</ele>
        <time>2023-07-12T08:53:34Z</time>
      </trkpt>
      <trkpt lat="49.77146" lon="2.30044">
        <ele>91.2</ele>
        <time>2023-07-12T08:53:35Z</time>
      </trkpt>
      <trkpt lat="49.77147" lon="2.30044">
        <ele>91.2</ele>
        <time>2023-07-12T08:53:36Z</time>
      </trkpt>
      <trkpt lat="49.77148" lon="2.30045">
        <ele>91.2</ele>
        <time>2023-07-12T08:53:38Z</time>
      </trkpt>
      <trkpt lat="49.77149" lon="2.30045">
        <ele>91.2</ele>
        <time>2023-07-12T08:53:39Z</time>
      </trkpt>
      <trkpt lat="49.7715" lon="2.30044">
        <ele>91.2</ele>
        <time>2023-07-12T08:53:41Z</time>
      </trkpt>
      <trkpt lat="49.7715" lon="2.30044">
        <ele>91.2</ele>
        <time>2023-07-12T08:53:42Z</time>
      </trkpt>
      <trkpt lat="49.77149" lon="2.30044">
        <ele>91.2</ele>
        <time>2023-07-12T08:53:44Z</time>
      </trkpt>
      <trkpt lat="49.77149" lon="2.30044">
        <ele>91.2</ele>
        <time>2023-07-12T08:53:45Z</time>
      </trkpt>
      <trkpt lat="49.77148" lon="2.30044">
        <ele>91.2</ele>
        <time>2023-07-12T08:53:46Z</time>
      </trkpt>
      <trkpt lat="49.77148" lon="2.30045">
        <ele>91.2</ele>
        <time>2023-07-12T08:53:48Z</time>
      </trkpt>
      <trkpt lat="49.77148" lon="2.30045">
        <ele>91.2</ele>
        <time>2023-07-12T08:53:49Z</time>
      </trkpt>
      <trkpt lat="49.77147" lon="2.30045">
        <ele>91.2</ele>
        <time>2023-07-12T08:53:51Z</time>
      </trkpt>
      <trkpt lat="49.77147" lon="2.30045">
        <ele>91.2</ele>
        <time>2023-07-12T08:53:52Z</time>
      </trkpt>
      <trkpt lat="49.77147" lon="2.30045">
        <ele>91.2</ele>
        <time>2023-07-12T08:53:53Z</time>
      </trkpt>
      <trkpt lat="49.77146" lon="2.30046">
        <ele>91.2</ele>
        <time>2023-07-12T08:53:54Z</time>
      </trkpt>
      <trkpt lat="49.77146" lon="2.30046">
        <ele>91.2</ele>
        <time>2023-07-12T08:53:55Z</time>
      </trkpt>
      <trkpt lat="49.77144" lon="2.30047">
        <ele>91.2</ele>
        <time>2023-07-12T08:53:56Z</time>
      </trkpt>
      <trkpt lat="49.77143" lon="2.30047">
        <ele>91.2</ele>
        <time>2023-07-12T08:53:57Z</time>
      </trkpt>
      <trkpt lat="49.77142" lon="2.30047">
        <ele>91.2</ele>
        <time>2023-07-12T08:53:58Z</time>
      </trkpt>
      <trkpt lat="49.77141" lon="2.30047">
        <ele>91.2</ele>
        <time>2023-07-12T08:53:59Z</time>
      </trkpt>
      <trkpt lat="49.77141" lon="2.30047">
        <ele>91.1</ele>
        <time>2023-07-12T08:54:00Z</time>
      </trkpt>
      <trkpt lat="49.77141" lon="2.30046">
        <ele>91.1</ele>
        <time>2023-07-12T08:54:01Z</time>
      </trkpt>
      <trkpt lat="49.7714" lon="2.30046">
        <ele>91.1</ele>
        <time>2023-07-12T08:54:02Z</time>
      </trkpt>
      <trkpt lat="49.7714" lon="2.30045">
        <ele>91.1</ele>
        <time>2023-07-12T08:54:03Z</time>
      </trkpt>
      <trkpt lat="49.7714" lon="2.30044">
        <ele>91.1</ele>
        <time>2023-07-12T08:54:04Z</time>
      </trkpt>
      <trkpt lat="49.7714" lon="2.30043">
        <ele>91.1</ele>
        <time>2023-07-12T08:54:05Z</time>
      </trkpt>
      <trkpt lat="49.7714" lon="2.30043">
        <ele>91.1</ele>
        <time>2023-07-12T08:54:06Z</time>
      </trkpt>
      <trkpt lat="49.7714" lon="2.30043">
        <ele>91.1</ele>
        <time>2023-07-12T08:54:07Z</time>
      </trkpt>
      <trkpt lat="49.7714" lon="2.30043">
        <ele>91.1</ele>
        <time>2023-07-12T08:54:08Z</time>
      </trkpt>
      <trkpt lat="49.7714" lon="2.30043">
        <ele>91.1</ele>
        <time>2023-07-12T08:54:09Z</time>
      </trkpt>
      <trkpt lat="49.7714" lon="2.30043">
        <ele>91.1</ele>
        <time>2023-07-12T08:54:10Z</time>
      </trkpt>
      <trkpt lat="49.7714" lon="2.30044">
        <ele>91.1</ele>
        <time>2023-07-12T08:54:11Z</time>
      </trkpt>
      <trkpt lat="49.7714" lon="2.30044">
        <ele>91.1</ele>
        <time>2023-07-12T08:54:12Z</time>
      </trkpt>
      <trkpt lat="49.7714" lon="2.30044">
        <ele>91.1</ele>
        <time>2023-07-12T08:54:13Z</time>
      </trkpt>
      <trkpt lat="49.7714" lon="2.30044">
        <ele>91.1</ele>
        <time>2023-07-12T08:54:14Z</time>
      </trkpt>
      <trkpt lat="49.7714" lon="2.30044">
        <ele>91.1</ele>
        <time>2023-07-12T08:54:15Z</time>
      </trkpt>
      <trkpt lat="49.7714" lon="2.30044">
        <ele>91.1</ele>
        <time>2023-07-12T08:54:16Z</time>
      </trkpt>
      <trkpt lat="49.7714" lon="2.30044">
        <ele>91.1</ele>
        <time>2023-07-12T08:54:17Z</time>
      </trkpt>
      <trkpt lat="49.7714" lon="2.30044">
        <ele>91.1</ele>
        <time>2023-07-12T08:54:18Z</time>
      </trkpt>
      <trkpt lat="49.7714" lon="2.30044">
        <ele>91.1</ele>
        <time>2023-07-12T08:54:19Z</time>
      </trkpt>
      <trkpt lat="49.7714" lon="2.30044">
        <ele>91.1</ele>
        <time>2023-07-12T08:54:20Z</time>
      </trkpt>
      <trkpt lat="49.7714" lon="2.30044">
        <ele>91.1</ele>
        <time>2023-07-12T08:54:21Z</time>
      </trkpt>
      <trkpt lat="49.7714" lon="2.30044">
        <ele>91.1</ele>
        <time>2023-07-12T08:54:22Z</time>
      </trkpt>
      <trkpt lat="49.7714" lon="2.30044">
        <ele>91.1</ele>
        <time>2023-07-12T08:54:23Z</time>
      </trkpt>
      <trkpt lat="49.7714" lon="2.30044">
        <ele>91.1</ele>
        <time>2023-07-12T08:54:24Z</time>
      </trkpt>
      <trkpt lat="49.7714" lon="2.30044">
        <ele>91.1</ele>
        <time>2023-07-12T08:54:25Z</time>
      </trkpt>
      <trkpt lat="49.7714" lon="2.30044">
        <ele>91.1</ele>
        <time>2023-07-12T08:54:26Z</time>
      </trkpt>
      <trkpt lat="49.7714" lon="2.30044">
        <ele>91.1</ele>
        <time>2023-07-12T08:54:27Z</time>
      </trkpt>
      <trkpt lat="49.7714" lon="2.30044">
        <ele>91.1</ele>
        <time>2023-07-12T08:54:28Z</time>
      </trkpt>
      <trkpt lat="49.7714" lon="2.30044">
        <ele>91.1</ele>
        <time>2023-07-12T08:54:29Z</time>
      </trkpt>
      <trkpt lat="49.7714" lon="2.30044">
        <ele>91.1</ele>
        <time>2023-07-12T08:54:30Z</time>
      </trkpt>
      <trkpt lat="49.7714" lon="2.30044">
        <ele>91.1</ele>
        <time>2023-07-12T08:54:31Z</time>
      </trkpt>
      <trkpt lat="49.7714" lon="2.30044">
        <ele>91.1</ele>
        <time>2023-07-12T08:54:32Z</time>
      </trkpt>
      <trkpt lat="49.7714" lon="2.30044">
        <ele>91.1</ele>
        <time>2023-07-12T08:54:33Z</time>
      </trkpt>
      <trkpt lat="49.7714" lon="2.30044">
        <ele>91.1</ele>
        <time>2023-07-12T08:54:34Z</time>
      </trkpt>
      <trkpt lat="49.7714" lon="2.30044">
        <ele>91.1</ele>
        <time>2023-07-12T08:54:35Z</time>
      </trkpt>
      <trkpt lat="49.7714" lon="2.30044">
        <ele>91.1</ele>
        <time>2023-07-12T08:54:36Z</time>
      </trkpt>
      <trkpt lat="49.7714" lon="2.30044">
        <ele>91.1</ele>
        <time>2023-07-12T08:54:37Z</time>
      </trkpt>
      <trkpt lat="49.7714" lon="2.30044">
        <ele>91.1</ele>
        <time>2023-07-12T08:54:38Z</time>
      </trkpt>
      <trkpt lat="49.7714" lon="2.30044">
        <ele>91.1</ele>
        <time>2023-07-12T08:54:39Z</time>
      </trkpt>
      <trkpt lat="49.7714" lon="2.30044">
        <ele>91.1</ele>
        <time>2023-07-12T08:54:40Z</time>
      </trkpt>
      <trkpt lat="49.7714" lon="2.30044">
        <ele>91.1</ele>
        <time>2023-07-12T08:54:41Z</time>
      </trkpt>
      <trkpt lat="49.7714" lon="2.30044">
        <ele>91.1</ele>
        <time>2023-07-12T08:54:42Z</time>
      </trkpt>
      <trkpt lat="49.7714" lon="2.30044">
        <ele>91.1</ele>
        <time>2023-07-12T08:54:43Z</time>
      </trkpt>
      <trkpt lat="49.7714" lon="2.30044">
        <ele>91.1</ele>
        <time>2023-07-12T08:54:44Z</time>
      </trkpt>
      <trkpt lat="49.7714" lon="2.30044">
        <ele>91.1</ele>
        <time>2023-07-12T08:54:45Z</time>
      </trkpt>
      <trkpt lat="49.7714" lon="2.30044">
        <ele>91.1</ele>
        <time>2023-07-12T08:54:46Z</time>
      </trkpt>
      <trkpt lat="49.7714" lon="2.30044">
        <ele>91.1</ele>
        <time>2023-07-12T08:54:47Z</time>
      </trkpt>
      <trkpt lat="49.7714" lon="2.30044">
        <ele>91.1</ele>
        <time>2023-07-12T08:54:48Z</time>
      </trkpt>
      <trkpt lat="49.7714" lon="2.30044">
        <ele>91.1</ele>
        <time>2023-07-12T08:54:49Z</time>
      </trkpt>
      <trkpt lat="49.7714" lon="2.30044">
        <ele>91.1</ele>
        <time>2023-07-12T08:54:50Z</time>
      </trkpt>
      <trkpt lat="49.7714" lon="2.30044">
        <ele>91.1</ele>
        <time>2023-07-12T08:54:51Z</time>
      </trkpt>
      <trkpt lat="49.7714" lon="2.30044">
        <ele>91.1</ele>
        <time>2023-07-12T08:54:52Z</time>
      </trkpt>
      <trkpt lat="49.7714" lon="2.30044">
        <ele>91.1</ele>
        <time>2023-07-12T08:54:53Z</time>
      </trkpt>
      <trkpt lat="49.7714" lon="2.30044">
        <ele>91.1</ele>
        <time>2023-07-12T08:54:54Z</time>
      </trkpt>
      <trkpt lat="49.7714" lon="2.30044">
        <ele>91.1</ele>
        <time>2023-07-12T08:54:55Z</time>
      </trkpt>
      <trkpt lat="49.7714" lon="2.30044">
        <ele>91.1</ele>
        <time>2023-07-12T08:54:56Z</time>
      </trkpt>
      <trkpt lat="49.7714" lon="2.30044">
        <ele>91.1</ele>
        <time>2023-07-12T08:54:57Z</time>
      </trkpt>
      <trkpt lat="49.7714" lon="2.30044">
        <ele>91.1</ele>
        <time>2023-07-12T08:54:58Z</time>
      </trkpt>
      <trkpt lat="49.7714" lon="2.30044">
        <ele>91.1</ele>
        <time>2023-07-12T08:54:59Z</time>
      </trkpt>
      <trkpt lat="49.7714" lon="2.30044">
        <ele>91.1</ele>
        <time>2023-07-12T08:55:00Z</time>
      </trkpt>
      <trkpt lat="49.7714" lon="2.30044">
        <ele>91.1</ele>
        <time>2023-07-12T08:55:01Z</time>
      </trkpt>
      <trkpt lat="49.7714" lon="2.30044">
        <ele>91.1</ele>
        <time>2023-07-12T08:55:02Z</time>
      </trkpt>
      <trkpt lat="49.7714" lon="2.30044">
        <ele>91.1</ele>
        <time>2023-07-12T08:55:03Z</time>
      </trkpt>
      <trkpt lat="49.7714" lon="2.30044">
        <ele>91.1</ele>
        <time>2023-07-12T08:55:04Z</time>
      </trkpt>
      <trkpt lat="49.7714" lon="2.30044">
        <ele>91.1</ele>
        <time>2023-07-12T08:55:05Z</time>
      </trkpt>
      <trkpt lat="49.7714" lon="2.30044">
        <ele>91.1</ele>
        <time>2023-07-12T08:55:06Z</time>
      </trkpt>
      <trkpt lat="49.7714" lon="2.30044">
        <ele>91.1</ele>
        <time>2023-07-12T08:55:07Z</time>
      </trkpt>
      <trkpt lat="49.7714" lon="2.30044">
        <ele>91.1</ele>
        <time>2023-07-12T08:55:08Z</time>
      </trkpt>
      <trkpt lat="49.7714" lon="2.30044">
        <ele>91.1</ele>
        <time>2023-07-12T08:55:09Z</time>
      </trkpt>
      <trkpt lat="49.7714" lon="2.30044">
        <ele>91.1</ele>
        <time>2023-07-12T08:55:10Z</time>
      </trkpt>
      <trkpt lat="49.7714" lon="2.30044">
        <ele>91.1</ele>
        <time>2023-07-12T08:55:11Z</time>
      </trkpt>
      <trkpt lat="49.7714" lon="2.30044">
        <ele>91.1</ele>
        <time>2023-07-12T08:55:12Z</time>
      </trkpt>
      <trkpt lat="49.7714" lon="2.30044">
        <ele>91.1</ele>
        <time>2023-07-12T08:55:13Z</time>
      </trkpt>
      <trkpt lat="49.7714" lon="2.30044">
        <ele>91.1</ele>
        <time>2023-07-12T08:55:14Z</time>
      </trkpt>
      <trkpt lat="49.7714" lon="2.30044">
        <ele>91.1</ele>
        <time>2023-07-12T08:55:15Z</time>
      </trkpt>
      <trkpt lat="49.7714" lon="2.30044">
        <ele>91.1</ele>
        <time>2023-07-12T08:55:16Z</time>
      </trkpt>
      <trkpt lat="49.7714" lon="2.30044">
        <ele>91.1</ele>
        <time>2023-07-12T08:55:17Z</time>
      </trkpt>
      <trkpt lat="49.7714" lon="2.30044">
        <ele>91.1</ele>
        <time>2023-07-12T08:55:18Z</time>
      </trkpt>
      <trkpt lat="49.7714" lon="2.30044">
        <ele>91.1</ele>
        <time>2023-07-12T08:55:19Z</time>
      </trkpt>
      <trkpt lat="49.7714" lon="2.30044">
        <ele>91.1</ele>
        <time>2023-07-12T08:55:20Z</time>
      </trkpt>
      <trkpt lat="49.7714" lon="2.30044">
        <ele>91.1</ele>
        <time>2023-07-12T08:55:21Z</time>
      </trkpt>
      <trkpt lat="49.7714" lon="2.30044">
        <ele>91.1</ele>
        <time>2023-07-12T08:55:22Z</time>
      </trkpt>
      <trkpt lat="49.7714" lon="2.30044">
        <ele>91.1</ele>
        <time>2023-07-12T08:55:23Z</time>
      </trkpt>
      <trkpt lat="49.7714" lon="2.30044">
        <ele>91.1</ele>
        <time>2023-07-12T08:55:24Z</time>
      </trkpt>
      <trkpt lat="49.77141" lon="2.30046">
        <ele>91.1</ele>
        <time>2023-07-12T08:55:25Z</time>
      </trkpt>
      <trkpt lat="49.77141" lon="2.30047">
        <ele>91.1</ele>
        <time>2023-07-12T08:55:26Z</time>
      </trkpt>
      <trkpt lat="49.77142" lon="2.30048">
        <ele>91.1</ele>
        <time>2023-07-12T08:55:27Z</time>
      </trkpt>
      <trkpt lat="49.77142" lon="2.30048">
        <ele>91.1</ele>
        <time>2023-07-12T08:55:28Z</time>
      </trkpt>
      <trkpt lat="49.77142" lon="2.30048">
        <ele>91.1</ele>
        <time>2023-07-12T08:55:29Z</time>
      </trkpt>
      <trkpt lat="49.77142" lon="2.30048">
        <ele>91.1</ele>
        <time>2023-07-12T08:55:30Z</time>
      </trkpt>
      <trkpt lat="49.77142" lon="2.30048">
        <ele>91.1</ele>
        <time>2023-07-12T08:55:31Z</time>
      </trkpt>
      <trkpt lat="49.77142" lon="2.30048">
        <ele>91.1</ele>
        <time>2023-07-12T08:55:32Z</time>
      </trkpt>
      <trkpt lat="49.77142" lon="2.30049">
        <ele>91.1</ele>
        <time>2023-07-12T08:55:33Z</time>
      </trkpt>
      <trkpt lat="49.77142" lon="2.30049">
        <ele>91.1</ele>
        <time>2023-07-12T08:55:34Z</time>
      </trkpt>
      <trkpt lat="49.77142" lon="2.30049">
        <ele>91.1</ele>
        <time>2023-07-12T08:55:35Z</time>
      </trkpt>
      <trkpt lat="49.77142" lon="2.30049">
        <ele>91.1</ele>
        <time>2023-07-12T08:55:36Z</time>
      </trkpt>
      <trkpt lat="49.77142" lon="2.30049">
        <ele>91.1</ele>
        <time>2023-07-12T08:55:37Z</time>
      </trkpt>
      <trkpt lat="49.77142" lon="2.30049">
        <ele>91.1</ele>
        <time>2023-07-12T08:55:38Z</time>
      </trkpt>
      <trkpt lat="49.77142" lon="2.30049">
        <ele>91.1</ele>
        <time>2023-07-12T08:55:39Z</time>
      </trkpt>
      <trkpt lat="49.77142" lon="2.30049">
        <ele>91.1</ele>
        <time>2023-07-12T08:55:40Z</time>
      </trkpt>
      <trkpt lat="49.77142" lon="2.30049">
        <ele>91.1</ele>
        <time>2023-07-12T08:55:41Z</time>
      </trkpt>
      <trkpt lat="49.77142" lon="2.30049">
        <ele>91.1</ele>
        <time>2023-07-12T08:55:42Z</time>
      </trkpt>
      <trkpt lat="49.77142" lon="2.30049">
        <ele>91.1</ele>
        <time>2023-07-12T08:55:43Z</time>
      </trkpt>
      <trkpt lat="49.77142" lon="2.30049">
        <ele>91.1</ele>
        <time>2023-07-12T08:55:44Z</time>
      </trkpt>
      <trkpt lat="49.77142" lon="2.30049">
        <ele>91.1</ele>
        <time>2023-07-12T08:55:45Z</time>
      </trkpt>
      <trkpt lat="49.77142" lon="2.30049">
        <ele>91.1</ele>
        <time>2023-07-12T08:55:46Z</time>
      </trkpt>
      <trkpt lat="49.77142" lon="2.30049">
        <ele>91.1</ele>
        <time>2023-07-12T08:55:47Z</time>
      </trkpt>
      <trkpt lat="49.77142" lon="2.30048">
        <ele>91.1</ele>
        <time>2023-07-12T08:55:48Z</time>
      </trkpt>
      <trkpt lat="49.77142" lon="2.30047">
        <ele>91.1</ele>
        <time>2023-07-12T08:55:49Z</time>
      </trkpt>
      <trkpt lat="49.77142" lon="2.30047">
        <ele>91.1</ele>
        <time>2023-07-12T08:55:50Z</time>
      </trkpt>
      <trkpt lat="49.77142" lon="2.30046">
        <ele>91.1</ele>
        <time>2023-07-12T08:55:51Z</time>
      </trkpt>
      <trkpt lat="49.77142" lon="2.30046">
        <ele>91.1</ele>
        <time>2023-07-12T08:55:52Z</time>
      </trkpt>
      <trkpt lat="49.77143" lon="2.30045">
        <ele>91.1</ele>
        <time>2023-07-12T08:55:53Z</time>
      </trkpt>
      <trkpt lat="49.77143" lon="2.30044">
        <ele>91.1</ele>
        <time>2023-07-12T08:55:54Z</time>
      </trkpt>
      <trkpt lat="49.77143" lon="2.30043">
        <ele>91.1</ele>
        <time>2023-07-12T08:55:55Z</time>
      </trkpt>
      <trkpt lat="49.77143" lon="2.30042">
        <ele>91.1</ele>
        <time>2023-07-12T08:55:56Z</time>
      </trkpt>
      <trkpt lat="49.77143" lon="2.30039">
        <ele>91.1</ele>
        <time>2023-07-12T08:55:57Z</time>
      </trkpt>
      <trkpt lat="49.77144" lon="2.30037">
        <ele>91.1</ele>
        <time>2023-07-12T08:55:58Z</time>
      </trkpt>
      <trkpt lat="49.77144" lon="2.30036">
        <ele>91.1</ele>
        <time>2023-07-12T08:55:59Z</time>
      </trkpt>
      <trkpt lat="49.77144" lon="2.30032">
        <ele>91.1</ele>
        <time>2023-07-12T08:56:00Z</time>
      </trkpt>
      <trkpt lat="49.77143" lon="2.3003">
        <ele>91.1</ele>
        <time>2023-07-12T08:56:02Z</time>
      </trkpt>
      <trkpt lat="49.77143" lon="2.30029">
        <ele>91.1</ele>
        <time>2023-07-12T08:56:03Z</time>
      </trkpt>
      <trkpt lat="49.77143" lon="2.30027">
        <ele>91.1</ele>
        <time>2023-07-12T08:56:04Z</time>
      </trkpt>
      <trkpt lat="49.77143" lon="2.30026">
        <ele>91.1</ele>
        <time>2023-07-12T08:56:05Z</time>
      </trkpt>
      <trkpt lat="49.77142" lon="2.30024">
        <ele>91.1</ele>
        <time>2023-07-12T08:56:06Z</time>
      </trkpt>
      <trkpt lat="49.77142" lon="2.30022">
        <ele>91.1</ele>
        <time>2023-07-12T08:56:08Z</time>
      </trkpt>
      <trkpt lat="49.77142" lon="2.30021">
        <ele>91.1</ele>
        <time>2023-07-12T08:56:09Z</time>
      </trkpt>
      <trkpt lat="49.77142" lon="2.3002">
        <ele>91.1</ele>
        <time>2023-07-12T08:56:10Z</time>
      </trkpt>
      <trkpt lat="49.77143" lon="2.30018">
        <ele>91.1</ele>
        <time>2023-07-12T08:56:11Z</time>
      </trkpt>
      <trkpt lat="49.77143" lon="2.30016">
        <ele>91.1</ele>
        <time>2023-07-12T08:56:12Z</time>
      </trkpt>
      <trkpt lat="49.77143" lon="2.30014">
        <ele>91.1</ele>
        <time>2023-07-12T08:56:13Z</time>
      </trkpt>
      <trkpt lat="49.77143" lon="2.30012">
        <ele>91.1</ele>
        <time>2023-07-12T08:56:15Z</time>
      </trkpt>
      <trkpt lat="49.77143" lon="2.30009">
        <ele>91.1</ele>
        <time>2023-07-12T08:56:16Z</time>
      </trkpt>
      <trkpt lat="49.77143" lon="2.30007">
        <ele>91.1</ele>
        <time>2023-07-12T08:56:17Z</time>
      </trkpt>
      <trkpt lat="49.77144" lon="2.30005">
        <ele>91.1</ele>
        <time>2023-07-12T08:56:18Z</time>
      </trkpt>
      <trkpt lat="49.77144" lon="2.30003">
        <ele>91.1</ele>
        <time>2023-07-12T08:56:19Z</time>
      </trkpt>
      <trkpt lat="49.77144" lon="2.30001">
        <ele>91.1</ele>
        <time>2023-07-12T08:56:20Z</time>
      </trkpt>
      <trkpt lat="49.77145" lon="2.29998">
        <ele>91.1</ele>
        <time>2023-07-12T08:56:21Z</time>
      </trkpt>
      <trkpt lat="49.77145" lon="2.29995">
        <ele>91.1</ele>
        <time>2023-07-12T08:56:23Z</time>
      </trkpt>
      <trkpt lat="49.77146" lon="2.29994">
        <ele>91.1</ele>
        <time>2023-07-12T08:56:24Z</time>
      </trkpt>
      <trkpt lat="49.77146" lon="2.29992">
        <ele>91.1</ele>
        <time>2023-07-12T08:56:25Z</time>
      </trkpt>
      <trkpt lat="49.77146" lon="2.2999">
        <ele>91.1</ele>
        <time>2023-07-12T08:56:26Z</time>
      </trkpt>
      <trkpt lat="49.77147" lon="2.29988">
        <ele>91.1</ele>
        <time>2023-07-12T08:56:27Z</time>
      </trkpt>
      <trkpt lat="49.77148" lon="2.29985">
        <ele>91.1</ele>
        <time>2023-07-12T08:56:29Z</time>
      </trkpt>
      <trkpt lat="49.77148" lon="2.29984">
        <ele>91.1</ele>
        <time>2023-07-12T08:56:30Z</time>
      </trkpt>
      <trkpt lat="49.77149" lon="2.29983">
        <ele>91.1</ele>
        <time>2023-07-12T08:56:31Z</time>
      </trkpt>
      <trkpt lat="49.77149" lon="2.29982">
        <ele>91.1</ele>
        <time>2023-07-12T08:56:32Z</time>
      </trkpt>
      <trkpt lat="49.77149" lon="2.2998">
        <ele>91.1</ele>
        <time>2023-07-12T08:56:33Z</time>
      </trkpt>
      <trkpt lat="49.77149" lon="2.29977">
        <ele>91.1</ele>
        <time>2023-07-12T08:56:35Z</time>
      </trkpt>
      <trkpt lat="49.77149" lon="2.29976">
        <ele>91.1</ele>
        <time>2023-07-12T08:56:37Z</time>
      </trkpt>
      <trkpt lat="49.77149" lon="2.29975">
        <ele>91.1</ele>
        <time>2023-07-12T08:56:38Z</time>
      </trkpt>
      <trkpt lat="49.7715" lon="2.29974">
        <ele>91.1</ele>
        <time>2023-07-12T08:56:39Z</time>
      </trkpt>
      <trkpt lat="49.7715" lon="2.29973">
        <ele>91.1</ele>
        <time>2023-07-12T08:56:41Z</time>
      </trkpt>
      <trkpt lat="49.7715" lon="2.29972">
        <ele>91.1</ele>
        <time>2023-07-12T08:56:42Z</time>
      </trkpt>
      <trkpt lat="49.77151" lon="2.29971">
        <ele>91.1</ele>
        <time>2023-07-12T08:56:44Z</time>
      </trkpt>
      <trkpt lat="49.77151" lon="2.2997">
        <ele>91.1</ele>
        <time>2023-07-12T08:56:45Z</time>
      </trkpt>
      <trkpt lat="49.77151" lon="2.29969">
        <ele>91.1</ele>
        <time>2023-07-12T08:56:46Z</time>
      </trkpt>
      <trkpt lat="49.77151" lon="2.29968">
        <ele>91.1</ele>
        <time>2023-07-12T08:56:47Z</time>
      </trkpt>
      <trkpt lat="49.77152" lon="2.29967">
        <ele>91.1</ele>
        <time>2023-07-12T08:56:48Z</time>
      </trkpt>
      <trkpt lat="49.77152" lon="2.29966">
        <ele>91.1</ele>
        <time>2023-07-12T08:56:49Z</time>
      </trkpt>
      <trkpt lat="49.77153" lon="2.29964">
        <ele>91.1</ele>
        <time>2023-07-12T08:56:51Z</time>
      </trkpt>
      <trkpt lat="49.77153" lon="2.29963">
        <ele>91.1</ele>
        <time>2023-07-12T08:56:53Z</time>
      </trkpt>
      <trkpt lat="49.77153" lon="2.29962">
        <ele>91.1</ele>
        <time>2023-07-12T08:56:54Z</time>
      </trkpt>
      <trkpt lat="49.77153" lon="2.2996">
        <ele>91.1</ele>
        <time>2023-07-12T08:56:55Z</time>
      </trkpt>
      <trkpt lat="49.77153" lon="2.29959">
        <ele>91.1</ele>
        <time>2023-07-12T08:56:56Z</time>
      </trkpt>
      <trkpt lat="49.77154" lon="2.29957">
        <ele>91.1</ele>
        <time>2023-07-12T08:56:57Z</time>
      </trkpt>
      <trkpt lat="49.77154" lon="2.29956">
        <ele>91.1</ele>
        <time>2023-07-12T08:56:58Z</time>
      </trkpt>
      <trkpt lat="49.77154" lon="2.29954">
        <ele>91.1</ele>
        <time>2023-07-12T08:56:59Z</time>
      </trkpt>
      <trkpt lat="49.77154" lon="2.29953">
        <ele>91.1</ele>
        <time>2023-07-12T08:57:01Z</time>
      </trkpt>
      <trkpt lat="49.77154" lon="2.29951">
        <ele>91.2</ele>
        <time>2023-07-12T08:57:02Z</time>
      </trkpt>
      <trkpt lat="49.77155" lon="2.29949">
        <ele>91.2</ele>
        <time>2023-07-12T08:57:03Z</time>
      </trkpt>
      <trkpt lat="49.77155" lon="2.29947">
        <ele>91.2</ele>
        <time>2023-07-12T08:57:04Z</time>
      </trkpt>
      <trkpt lat="49.77155" lon="2.29946">
        <ele>91.2</ele>
        <time>2023-07-12T08:57:05Z</time>
      </trkpt>
      <trkpt lat="49.77155" lon="2.29944">
        <ele>91.2</ele>
        <time>2023-07-12T08:57:06Z</time>
      </trkpt>
      <trkpt lat="49.77156" lon="2.29942">
        <ele>91.2</ele>
        <time>2023-07-12T08:57:07Z</time>
      </trkpt>
      <trkpt lat="49.77156" lon="2.29939">
        <ele>91.2</ele>
        <time>2023-07-12T08:57:08Z</time>
      </trkpt>
      <trkpt lat="49.77156" lon="2.29937">
        <ele>91.2</ele>
        <time>2023-07-12T08:57:10Z</time>
      </trkpt>
      <trkpt lat="49.77157" lon="2.29936">
        <ele>91.2</ele>
        <time>2023-07-12T08:57:11Z</time>
      </trkpt>
      <trkpt lat="49.77157" lon="2.29933">
        <ele>91.2</ele>
        <time>2023-07-12T08:57:12Z</time>
      </trkpt>
      <trkpt lat="49.77157" lon="2.29931">
        <ele>91.2</ele>
        <time>2023-07-12T08:57:13Z</time>
      </trkpt>
      <trkpt lat="49.77157" lon="2.2993">
        <ele>91.2</ele>
        <time>2023-07-12T08:57:14Z</time>
      </trkpt>
      <trkpt lat="49.77158" lon="2.29929">
        <ele>91.2</ele>
        <time>2023-07-12T08:57:15Z</time>
      </trkpt>
      <trkpt lat="49.77158" lon="2.29927">
        <ele>91.2</ele>
        <time>2023-07-12T08:57:16Z</time>
      </trkpt>
      <trkpt lat="49.77158" lon="2.29925">
        <ele>91.2</ele>
        <time>2023-07-12T08:57:17Z</time>
      </trkpt>
      <trkpt lat="49.77159" lon="2.29921">
        <ele>91.3</ele>
        <time>2023-07-12T08:57:18Z</time>
      </trkpt>
      <trkpt lat="49.77159" lon="2.2992">
        <ele>91.3</ele>
        <time>2023-07-12T08:57:20Z</time>
      </trkpt>
      <trkpt lat="49.77159" lon="2.29919">
        <ele>91.3</ele>
        <time>2023-07-12T08:57:21Z</time>
      </trkpt>
      <trkpt lat="49.77159" lon="2.29917">
        <ele>91.3</ele>
        <time>2023-07-12T08:57:22Z</time>
      </trkpt>
      <trkpt lat="49.77159" lon="2.29914">
        <ele>91.3</ele>
        <time>2023-07-12T08:57:23Z</time>
      </trkpt>
      <trkpt lat="49.77159" lon="2.29912">
        <ele>91.3</ele>
        <time>2023-07-12T08:57:24Z</time>
      </trkpt>
      <trkpt lat="49.77159" lon="2.29911">
        <ele>91.3</ele>
        <time>2023-07-12T08:57:25Z</time>
      </trkpt>
      <trkpt lat="49.77159" lon="2.29909">
        <ele>91.3</ele>
        <time>2023-07-12T08:57:26Z</time>
      </trkpt>
      <trkpt lat="49.77159" lon="2.29906">
        <ele>91.3</ele>
        <time>2023-07-12T08:57:27Z</time>
      </trkpt>
      <trkpt lat="49.77159" lon="2.29905">
        <ele>91.3</ele>
        <time>2023-07-12T08:57:29Z</time>
      </trkpt>
      <trkpt lat="49.77159" lon="2.29903">
        <ele>91.3</ele>
        <time>2023-07-12T08:57:30Z</time>
      </trkpt>
      <trkpt lat="49.77159" lon="2.29901">
        <ele>91.4</ele>
        <time>2023-07-12T08:57:31Z</time>
      </trkpt>
      <trkpt lat="49.77158" lon="2.29899">
        <ele>91.4</ele>
        <time>2023-07-12T08:57:32Z</time>
      </trkpt>
      <trkpt lat="49.77158" lon="2.29898">
        <ele>91.4</ele>
        <time>2023-07-12T08:57:33Z</time>
      </trkpt>
      <trkpt lat="49.77158" lon="2.29896">
        <ele>91.4</ele>
        <time>2023-07-12T08:57:34Z</time>
      </trkpt>
      <trkpt lat="49.77158" lon="2.29895">
        <ele>91.4</ele>
        <time>2023-07-12T08:57:35Z</time>
      </trkpt>
      <trkpt lat="49.77159" lon="2.29893">
        <ele>91.4</ele>
        <time>2023-07-12T08:57:37Z</time>
      </trkpt>
      <trkpt lat="49.77159" lon="2.29891">
        <ele>91.4</ele>
        <time>2023-07-12T08:57:38Z</time>
      </trkpt>
      <trkpt lat="49.77159" lon="2.2989">
        <ele>91.4</ele>
        <time>2023-07-12T08:57:39Z</time>
      </trkpt>
      <trkpt lat="49.7716" lon="2.29889">
        <ele>91.5</ele>
        <time>2023-07-12T08:57:40Z</time>
      </trkpt>
      <trkpt lat="49.7716" lon="2.29887">
        <ele>91.5</ele>
        <time>2023-07-12T08:57:41Z</time>
      </trkpt>
      <trkpt lat="49.7716" lon="2.29886">
        <ele>91.5</ele>
        <time>2023-07-12T08:57:42Z</time>
      </trkpt>
      <trkpt lat="49.7716" lon="2.29885">
        <ele>91.5</ele>
        <time>2023-07-12T08:57:43Z</time>
      </trkpt>
      <trkpt lat="49.77159" lon="2.29883">
        <ele>91.5</ele>
        <time>2023-07-12T08:57:45Z</time>
      </trkpt>
      <trkpt lat="49.77159" lon="2.29882">
        <ele>91.5</ele>
        <time>2023-07-12T08:57:46Z</time>
      </trkpt>
      <trkpt lat="49.77159" lon="2.2988">
        <ele>91.5</ele>
        <time>2023-07-12T08:57:47Z</time>
      </trkpt>
      <trkpt lat="49.77159" lon="2.29878">
        <ele>91.5</ele>
        <time>2023-07-12T08:57:48Z</time>
      </trkpt>
      <trkpt lat="49.77159" lon="2.29877">
        <ele>91.5</ele>
        <time>2023-07-12T08:57:49Z</time>
      </trkpt>
      <trkpt lat="49.77158" lon="2.29875">
        <ele>91.5</ele>
        <time>2023-07-12T08:57:50Z</time>
      </trkpt>
      <trkpt lat="49.77158" lon="2.29874">
        <ele>91.6</ele>
        <time>2023-07-12T08:57:51Z</time>
      </trkpt>
      <trkpt lat="49.77158" lon="2.29872">
        <ele>91.6</ele>
        <time>2023-07-12T08:57:53Z</time>
      </trkpt>
      <trkpt lat="49.77158" lon="2.2987">
        <ele>91.6</ele>
        <time>2023-07-12T08:57:54Z</time>
      </trkpt>
      <trkpt lat="49.77157" lon="2.29869">
        <ele>91.6</ele>
        <time>2023-07-12T08:57:55Z</time>
      </trkpt>
      <trkpt lat="49.77156" lon="2.29867">
        <ele>91.6</ele>
        <time>2023-07-12T08:57:56Z</time>
      </trkpt>
      <trkpt lat="49.77155" lon="2.29866">
        <ele>91.6</ele>
        <time>2023-07-12T08:57:57Z</time>
      </trkpt>
      <trkpt lat="49.77154" lon="2.29865">
        <ele>91.6</ele>
        <time>2023-07-12T08:57:58Z</time>
      </trkpt>
      <trkpt lat="49.77154" lon="2.29864">
        <ele>91.7</ele>
        <time>2023-07-12T08:57:59Z</time>
      </trkpt>
      <trkpt lat="49.77153" lon="2.29862">
        <ele>91.7</ele>
        <time>2023-07-12T08:58:01Z</time>
      </trkpt>
      <trkpt lat="49.77152" lon="2.29861">
        <ele>91.7</ele>
        <time>2023-07-12T08:58:02Z</time>
      </trkpt>
      <trkpt lat="49.7715" lon="2.2986">
        <ele>91.7</ele>
        <time>2023-07-12T08:58:03Z</time>
      </trkpt>
      <trkpt lat="49.77149" lon="2.29859">
        <ele>91.8</ele>
        <time>2023-07-12T08:58:04Z</time>
      </trkpt>
      <trkpt lat="49.77149" lon="2.29859">
        <ele>91.8</ele>
        <time>2023-07-12T08:58:05Z</time>
      </trkpt>
      <trkpt lat="49.77148" lon="2.29858">
        <ele>91.8</ele>
        <time>2023-07-12T08:58:06Z</time>
      </trkpt>
      <trkpt lat="49.77146" lon="2.29856">
        <ele>91.8</ele>
        <time>2023-07-12T08:58:08Z</time>
      </trkpt>
      <trkpt lat="49.77145" lon="2.29855">
        <ele>91.8</ele>
        <time>2023-07-12T08:58:09Z</time>
      </trkpt>
      <trkpt lat="49.77144" lon="2.29854">
        <ele>91.8</ele>
        <time>2023-07-12T08:58:10Z</time>
      </trkpt>
      <trkpt lat="49.77143" lon="2.29853">
        <ele>91.8</ele>
        <time>2023-07-12T08:58:11Z</time>
      </trkpt>
      <trkpt lat="49.77141" lon="2.29851">
        <ele>91.9</ele>
        <time>2023-07-12T08:58:12Z</time>
      </trkpt>
      <trkpt lat="49.7714" lon="2.2985">
        <ele>91.9</ele>
        <time>2023-07-12T08:58:13Z</time>
      </trkpt>
      <trkpt lat="49.77139" lon="2.29848">
        <ele>91.9</ele>
        <time>2023-07-12T08:58:15Z</time>
      </trkpt>
      <trkpt lat="49.77138" lon="2.29847">
        <ele>91.9</ele>
        <time>2023-07-12T08:58:16Z</time>
      </trkpt>
      <trkpt lat="49.77137" lon="2.29845">
        <ele>91.9</ele>
        <time>2023-07-12T08:58:17Z</time>
      </trkpt>
      <trkpt lat="49.77136" lon="2.29844">
        <ele>91.9</ele>
        <time>2023-07-12T08:58:18Z</time>
      </trkpt>
      <trkpt lat="49.77135" lon="2.29842">
        <ele>91.9</ele>
        <time>2023-07-12T08:58:19Z</time>
      </trkpt>
      <trkpt lat="49.77134" lon="2.29841">
        <ele>91.9</ele>
        <time>2023-07-12T08:58:20Z</time>
      </trkpt>
      <trkpt lat="49.77134" lon="2.2984">
        <ele>92</ele>
        <time>2023-07-12T08:58:22Z</time>
      </trkpt>
      <trkpt lat="49.77133" lon="2.29839">
        <ele>92</ele>
        <time>2023-07-12T08:58:23Z</time>
      </trkpt>
      <trkpt lat="49.77131" lon="2.29837">
        <ele>92</ele>
        <time>2023-07-12T08:58:24Z</time>
      </trkpt>
      <trkpt lat="49.7713" lon="2.29836">
        <ele>92</ele>
        <time>2023-07-12T08:58:25Z</time>
      </trkpt>
      <trkpt lat="49.7713" lon="2.29835">
        <ele>92</ele>
        <time>2023-07-12T08:58:26Z</time>
      </trkpt>
      <trkpt lat="49.77129" lon="2.29834">
        <ele>92</ele>
        <time>2023-07-12T08:58:27Z</time>
      </trkpt>
      <trkpt lat="49.77128" lon="2.29833">
        <ele>92</ele>
        <time>2023-07-12T08:58:29Z</time>
      </trkpt>
      <trkpt lat="49.77127" lon="2.29832">
        <ele>92</ele>
        <time>2023-07-12T08:58:30Z</time>
      </trkpt>
      <trkpt lat="49.77125" lon="2.2983">
        <ele>92</ele>
        <time>2023-07-12T08:58:31Z</time>
      </trkpt>
      <trkpt lat="49.77124" lon="2.29829">
        <ele>92</ele>
        <time>2023-07-12T08:58:32Z</time>
      </trkpt>
      <trkpt lat="49.77123" lon="2.29829">
        <ele>92</ele>
        <time>2023-07-12T08:58:33Z</time>
      </trkpt>
      <trkpt lat="49.77122" lon="2.29827">
        <ele>92.1</ele>
        <time>2023-07-12T08:58:34Z</time>
      </trkpt>
      <trkpt lat="49.77121" lon="2.29826">
        <ele>92.1</ele>
        <time>2023-07-12T08:58:36Z</time>
      </trkpt>
      <trkpt lat="49.7712" lon="2.29825">
        <ele>92.1</ele>
        <time>2023-07-12T08:58:37Z</time>
      </trkpt>
      <trkpt lat="49.77119" lon="2.29824">
        <ele>92.1</ele>
        <time>2023-07-12T08:58:38Z</time>
      </trkpt>
      <trkpt lat="49.77118" lon="2.29823">
        <ele>92.1</ele>
        <time>2023-07-12T08:58:39Z</time>
      </trkpt>
      <trkpt lat="49.77117" lon="2.29822">
        <ele>92.1</ele>
        <time>2023-07-12T08:58:40Z</time>
      </trkpt>
      <trkpt lat="49.77116" lon="2.29821">
        <ele>92.1</ele>
        <time>2023-07-12T08:58:41Z</time>
      </trkpt>
      <trkpt lat="49.77115" lon="2.2982">
        <ele>92.1</ele>
        <time>2023-07-12T08:58:43Z</time>
      </trkpt>
      <trkpt lat="49.77114" lon="2.29819">
        <ele>92.1</ele>
        <time>2023-07-12T08:58:44Z</time>
      </trkpt>
      <trkpt lat="49.77113" lon="2.29817">
        <ele>92.1</ele>
        <time>2023-07-12T08:58:45Z</time>
      </trkpt>
      <trkpt lat="49.77112" lon="2.29816">
        <ele>92.1</ele>
        <time>2023-07-12T08:58:46Z</time>
      </trkpt>
      <trkpt lat="49.77111" lon="2.29815">
        <ele>92.1</ele>
        <time>2023-07-12T08:58:47Z</time>
      </trkpt>
      <trkpt lat="49.77111" lon="2.29814">
        <ele>92.2</ele>
        <time>2023-07-12T08:58:48Z</time>
      </trkpt>
      <trkpt lat="49.7711" lon="2.29813">
        <ele>92.2</ele>
        <time>2023-07-12T08:58:50Z</time>
      </trkpt>
      <trkpt lat="49.77109" lon="2.29812">
        <ele>92.2</ele>
        <time>2023-07-12T08:58:51Z</time>
      </trkpt>
      <trkpt lat="49.77107" lon="2.2981">
        <ele>92.2</ele>
        <time>2023-07-12T08:58:52Z</time>
      </trkpt>
      <trkpt lat="49.77106" lon="2.29809">
        <ele>92.2</ele>
        <time>2023-07-12T08:58:53Z</time>
      </trkpt>
      <trkpt lat="49.77106" lon="2.29809">
        <ele>92.2</ele>
        <time>2023-07-12T08:58:54Z</time>
      </trkpt>
      <trkpt lat="49.77104" lon="2.29807">
        <ele>92.2</ele>
        <time>2023-07-12T08:58:55Z</time>
      </trkpt>
      <trkpt lat="49.77103" lon="2.29806">
        <ele>92.2</ele>
        <time>2023-07-12T08:58:57Z</time>
      </trkpt>
      <trkpt lat="49.77103" lon="2.29805">
        <ele>92.2</ele>
        <time>2023-07-12T08:58:58Z</time>
      </trkpt>
      <trkpt lat="49.77101" lon="2.29803">
        <ele>92.2</ele>
        <time>2023-07-12T08:58:59Z</time>
      </trkpt>
      <trkpt lat="49.771" lon="2.29802">
        <ele>92.2</ele>
        <time>2023-07-12T08:59:00Z</time>
      </trkpt>
      <trkpt lat="49.771" lon="2.29801">
        <ele>92.2</ele>
        <time>2023-07-12T08:59:01Z</time>
      </trkpt>
      <trkpt lat="49.77098" lon="2.29799">
        <ele>92.2</ele>
        <time>2023-07-12T08:59:02Z</time>
      </trkpt>
      <trkpt lat="49.77097" lon="2.29798">
        <ele>92.2</ele>
        <time>2023-07-12T08:59:03Z</time>
      </trkpt>
      <trkpt lat="49.77096" lon="2.29797">
        <ele>92.2</ele>
        <time>2023-07-12T08:59:05Z</time>
      </trkpt>
      <trkpt lat="49.77095" lon="2.29797">
        <ele>92.2</ele>
        <time>2023-07-12T08:59:06Z</time>
      </trkpt>
      <trkpt lat="49.77094" lon="2.29796">
        <ele>92.2</ele>
        <time>2023-07-12T08:59:07Z</time>
      </trkpt>
      <trkpt lat="49.77094" lon="2.29795">
        <ele>92.2</ele>
        <time>2023-07-12T08:59:08Z</time>
      </trkpt>
      <trkpt lat="49.77092" lon="2.29793">
        <ele>92.2</ele>
        <time>2023-07-12T08:59:09Z</time>
      </trkpt>
      <trkpt lat="49.77091" lon="2.29793">
        <ele>92.2</ele>
        <time>2023-07-12T08:59:10Z</time>
      </trkpt>
      <trkpt lat="49.7709" lon="2.29792">
        <ele>92.2</ele>
        <time>2023-07-12T08:59:11Z</time>
      </trkpt>
      <trkpt lat="49.77089" lon="2.2979">
        <ele>92.2</ele>
        <time>2023-07-12T08:59:13Z</time>
      </trkpt>
      <trkpt lat="49.77088" lon="2.29789">
        <ele>92.2</ele>
        <time>2023-07-12T08:59:14Z</time>
      </trkpt>
      <trkpt lat="49.77087" lon="2.29788">
        <ele>92.2</ele>
        <time>2023-07-12T08:59:15Z</time>
      </trkpt>
      <trkpt lat="49.77086" lon="2.29786">
        <ele>92.2</ele>
        <time>2023-07-12T08:59:16Z</time>
      </trkpt>
      <trkpt lat="49.77085" lon="2.29785">
        <ele>92.2</ele>
        <time>2023-07-12T08:59:17Z</time>
      </trkpt>
      <trkpt lat="49.77085" lon="2.29785">
        <ele>92.2</ele>
        <time>2023-07-12T08:59:18Z</time>
      </trkpt>
      <trkpt lat="49.77084" lon="2.29784">
        <ele>92.2</ele>
        <time>2023-07-12T08:59:19Z</time>
      </trkpt>
      <trkpt lat="49.77083" lon="2.29782">
        <ele>92.2</ele>
        <time>2023-07-12T08:59:21Z</time>
      </trkpt>
      <trkpt lat="49.77082" lon="2.29781">
        <ele>92.2</ele>
        <time>2023-07-12T08:59:22Z</time>
      </trkpt>
      <trkpt lat="49.77081" lon="2.29779">
        <ele>92.3</ele>
        <time>2023-07-12T08:59:23Z</time>
      </trkpt>
      <trkpt lat="49.7708" lon="2.29778">
        <ele>92.3</ele>
        <time>2023-07-12T08:59:24Z</time>
      </trkpt>
      <trkpt lat="49.7708" lon="2.29777">
        <ele>92.3</ele>
        <time>2023-07-12T08:59:25Z</time>
      </trkpt>
      <trkpt lat="49.77079" lon="2.29776">
        <ele>92.3</ele>
        <time>2023-07-12T08:59:26Z</time>
      </trkpt>
      <trkpt lat="49.77079" lon="2.29774">
        <ele>92.3</ele>
        <time>2023-07-12T08:59:27Z</time>
      </trkpt>
      <trkpt lat="49.77078" lon="2.29773">
        <ele>92.3</ele>
        <time>2023-07-12T08:59:29Z</time>
      </trkpt>
      <trkpt lat="49.77077" lon="2.29772">
        <ele>92.3</ele>
        <time>2023-07-12T08:59:30Z</time>
      </trkpt>
      <trkpt lat="49.77076" lon="2.2977">
        <ele>92.3</ele>
        <time>2023-07-12T08:59:31Z</time>
      </trkpt>
      <trkpt lat="49.77075" lon="2.29769">
        <ele>92.3</ele>
        <time>2023-07-12T08:59:32Z</time>
      </trkpt>
      <trkpt lat="49.77074" lon="2.29767">
        <ele>92.4</ele>
        <time>2023-07-12T08:59:33Z</time>
      </trkpt>
      <trkpt lat="49.77073" lon="2.29765">
        <ele>92.4</ele>
        <time>2023-07-12T08:59:34Z</time>
      </trkpt>
      <trkpt lat="49.77073" lon="2.29764">
        <ele>92.4</ele>
        <time>2023-07-12T08:59:36Z</time>
      </trkpt>
      <trkpt lat="49.77072" lon="2.29763">
        <ele>92.4</ele>
        <time>2023-07-12T08:59:37Z</time>
      </trkpt>
      <trkpt lat="49.77071" lon="2.29762">
        <ele>92.4</ele>
        <time>2023-07-12T08:59:38Z</time>
      </trkpt>
      <trkpt lat="49.77071" lon="2.29761">
        <ele>92.4</ele>
        <time>2023-07-12T08:59:39Z</time>
      </trkpt>
      <trkpt lat="49.7707" lon="2.2976">
        <ele>92.4</ele>
        <time>2023-07-12T08:59:40Z</time>
      </trkpt>
      <trkpt lat="49.77069" lon="2.29758">
        <ele>92.4</ele>
        <time>2023-07-12T08:59:41Z</time>
      </trkpt>
      <trkpt lat="49.77068" lon="2.29757">
        <ele>92.5</ele>
        <time>2023-07-12T08:59:43Z</time>
      </trkpt>
      <trkpt lat="49.77067" lon="2.29756">
        <ele>92.5</ele>
        <time>2023-07-12T08:59:44Z</time>
      </trkpt>
      <trkpt lat="49.77066" lon="2.29755">
        <ele>92.5</ele>
        <time>2023-07-12T08:59:45Z</time>
      </trkpt>
      <trkpt lat="49.77065" lon="2.29753">
        <ele>92.5</ele>
        <time>2023-07-12T08:59:46Z</time>
      </trkpt>
      <trkpt lat="49.77064" lon="2.29752">
        <ele>92.5</ele>
        <time>2023-07-12T08:59:47Z</time>
      </trkpt>
      <trkpt lat="49.77063" lon="2.29751">
        <ele>92.5</ele>
        <time>2023-07-12T08:59:48Z</time>
      </trkpt>
      <trkpt lat="49.77062" lon="2.2975">
        <ele>92.5</ele>
        <time>2023-07-12T08:59:50Z</time>
      </trkpt>
      <trkpt lat="49.77061" lon="2.29748">
        <ele>92.5</ele>
        <time>2023-07-12T08:59:51Z</time>
      </trkpt>
      <trkpt lat="49.7706" lon="2.29747">
        <ele>92.6</ele>
        <time>2023-07-12T08:59:52Z</time>
      </trkpt>
      <trkpt lat="49.77059" lon="2.29746">
        <ele>92.6</ele>
        <time>2023-07-12T08:59:53Z</time>
      </trkpt>
      <trkpt lat="49.77058" lon="2.29745">
        <ele>92.6</ele>
        <time>2023-07-12T08:59:54Z</time>
      </trkpt>
      <trkpt lat="49.77057" lon="2.29744">
        <ele>92.6</ele>
        <time>2023-07-12T08:59:55Z</time>
      </trkpt>
      <trkpt lat="49.77056" lon="2.29743">
        <ele>92.6</ele>
        <time>2023-07-12T08:59:57Z</time>
      </trkpt>
      <trkpt lat="49.77055" lon="2.29742">
        <ele>92.6</ele>
        <time>2023-07-12T08:59:58Z</time>
      </trkpt>
      <trkpt lat="49.77054" lon="2.29741">
        <ele>92.6</ele>
        <time>2023-07-12T08:59:59Z</time>
      </trkpt>
      <trkpt lat="49.77053" lon="2.2974">
        <ele>92.6</ele>
        <time>2023-07-12T09:00:00Z</time>
      </trkpt>
      <trkpt lat="49.77052" lon="2.29739">
        <ele>92.7</ele>
        <time>2023-07-12T09:00:01Z</time>
      </trkpt>
      <trkpt lat="49.77051" lon="2.29737">
        <ele>92.7</ele>
        <time>2023-07-12T09:00:03Z</time>
      </trkpt>
      <trkpt lat="49.7705" lon="2.29736">
        <ele>92.7</ele>
        <time>2023-07-12T09:00:04Z</time>
      </trkpt>
      <trkpt lat="49.77048" lon="2.29735">
        <ele>92.7</ele>
        <time>2023-07-12T09:00:05Z</time>
      </trkpt>
      <trkpt lat="49.77047" lon="2.29733">
        <ele>92.7</ele>
        <time>2023-07-12T09:00:06Z</time>
      </trkpt>
      <trkpt lat="49.77046" lon="2.29732">
        <ele>92.8</ele>
        <time>2023-07-12T09:00:07Z</time>
      </trkpt>
      <trkpt lat="49.77045" lon="2.29731">
        <ele>92.8</ele>
        <time>2023-07-12T09:00:08Z</time>
      </trkpt>
      <trkpt lat="49.77044" lon="2.29729">
        <ele>92.8</ele>
        <time>2023-07-12T09:00:09Z</time>
      </trkpt>
      <trkpt lat="49.77043" lon="2.29727">
        <ele>92.9</ele>
        <time>2023-07-12T09:00:11Z</time>
      </trkpt>
      <trkpt lat="49.77042" lon="2.29726">
        <ele>92.9</ele>
        <time>2023-07-12T09:00:12Z</time>
      </trkpt>
      <trkpt lat="49.77041" lon="2.29725">
        <ele>92.9</ele>
        <time>2023-07-12T09:00:13Z</time>
      </trkpt>
      <trkpt lat="49.77039" lon="2.29723">
        <ele>93</ele>
        <time>2023-07-12T09:00:14Z</time>
      </trkpt>
      <trkpt lat="49.77039" lon="2.29722">
        <ele>93</ele>
        <time>2023-07-12T09:00:15Z</time>
      </trkpt>
      <trkpt lat="49.77038" lon="2.29721">
        <ele>93</ele>
        <time>2023-07-12T09:00:16Z</time>
      </trkpt>
      <trkpt lat="49.77037" lon="2.29719">
        <ele>93</ele>
        <time>2023-07-12T09:00:17Z</time>
      </trkpt>
      <trkpt lat="49.77036" lon="2.29718">
        <ele>93.1</ele>
        <time>2023-07-12T09:00:19Z</time>
      </trkpt>
      <trkpt lat="49.77036" lon="2.29717">
        <ele>93.1</ele>
        <time>2023-07-12T09:00:20Z</time>
      </trkpt>
      <trkpt lat="49.77035" lon="2.29716">
        <ele>93.1</ele>
        <time>2023-07-12T09:00:21Z</time>
      </trkpt>
      <trkpt lat="49.77034" lon="2.29715">
        <ele>93.1</ele>
        <time>2023-07-12T09:00:22Z</time>
      </trkpt>
      <trkpt lat="49.77033" lon="2.29714">
        <ele>93.2</ele>
        <time>2023-07-12T09:00:24Z</time>
      </trkpt>
      <trkpt lat="49.77032" lon="2.29713">
        <ele>93.2</ele>
        <time>2023-07-12T09:00:25Z</time>
      </trkpt>
      <trkpt lat="49.77031" lon="2.29712">
        <ele>93.2</ele>
        <time>2023-07-12T09:00:26Z</time>
      </trkpt>
      <trkpt lat="49.7703" lon="2.29711">
        <ele>93.2</ele>
        <time>2023-07-12T09:00:27Z</time>
      </trkpt>
      <trkpt lat="49.77028" lon="2.29709">
        <ele>93.3</ele>
        <time>2023-07-12T09:00:28Z</time>
      </trkpt>
      <trkpt lat="49.77028" lon="2.29708">
        <ele>93.3</ele>
        <time>2023-07-12T09:00:29Z</time>
      </trkpt>
      <trkpt lat="49.77027" lon="2.29707">
        <ele>93.3</ele>
        <time>2023-07-12T09:00:31Z</time>
      </trkpt>
      <trkpt lat="49.77026" lon="2.29706">
        <ele>93.3</ele>
        <time>2023-07-12T09:00:32Z</time>
      </trkpt>
      <trkpt lat="49.77025" lon="2.29705">
        <ele>93.3</ele>
        <time>2023-07-12T09:00:33Z</time>
      </trkpt>
      <trkpt lat="49.77024" lon="2.29705">
        <ele>93.4</ele>
        <time>2023-07-12T09:00:34Z</time>
      </trkpt>
      <trkpt lat="49.77023" lon="2.29703">
        <ele>93.4</ele>
        <time>2023-07-12T09:00:35Z</time>
      </trkpt>
      <trkpt lat="49.77022" lon="2.29702">
        <ele>93.4</ele>
        <time>2023-07-12T09:00:36Z</time>
      </trkpt>
      <trkpt lat="49.77021" lon="2.29702">
        <ele>93.4</ele>
        <time>2023-07-12T09:00:37Z</time>
      </trkpt>
      <trkpt lat="49.7702" lon="2.29701">
        <ele>93.4</ele>
        <time>2023-07-12T09:00:39Z</time>
      </trkpt>
      <trkpt lat="49.77018" lon="2.297">
        <ele>93.5</ele>
        <time>2023-07-12T09:00:40Z</time>
      </trkpt>
      <trkpt lat="49.77017" lon="2.297">
        <ele>93.5</ele>
        <time>2023-07-12T09:00:41Z</time>
      </trkpt>
      <trkpt lat="49.77016" lon="2.29699">
        <ele>93.5</ele>
        <time>2023-07-12T09:00:42Z</time>
      </trkpt>
      <trkpt lat="49.77015" lon="2.29698">
        <ele>93.5</ele>
        <time>2023-07-12T09:00:44Z</time>
      </trkpt>
      <trkpt lat="49.77014" lon="2.29697">
        <ele>93.6</ele>
        <time>2023-07-12T09:00:45Z</time>
      </trkpt>
      <trkpt lat="49.77013" lon="2.29696">
        <ele>93.6</ele>
        <time>2023-07-12T09:00:46Z</time>
      </trkpt>
      <trkpt lat="49.77012" lon="2.29695">
        <ele>93.6</ele>
        <time>2023-07-12T09:00:47Z</time>
      </trkpt>
      <trkpt lat="49.77011" lon="2.29695">
        <ele>93.6</ele>
        <time>2023-07-12T09:00:48Z</time>
      </trkpt>
      <trkpt lat="49.77011" lon="2.29694">
        <ele>93.6</ele>
        <time>2023-07-12T09:00:49Z</time>
      </trkpt>
      <trkpt lat="49.7701" lon="2.29693">
        <ele>93.6</ele>
        <time>2023-07-12T09:00:51Z</time>
      </trkpt>
      <trkpt lat="49.77009" lon="2.29692">
        <ele>93.7</ele>
        <time>2023-07-12T09:00:52Z</time>
      </trkpt>
      <trkpt lat="49.77008" lon="2.29691">
        <ele>93.7</ele>
        <time>2023-07-12T09:00:53Z</time>
      </trkpt>
      <trkpt lat="49.77007" lon="2.2969">
        <ele>93.7</ele>
        <time>2023-07-12T09:00:54Z</time>
      </trkpt>
      <trkpt lat="49.77006" lon="2.29689">
        <ele>93.7</ele>
        <time>2023-07-12T09:00:55Z</time>
      </trkpt>
      <trkpt lat="49.77005" lon="2.29688">
        <ele>93.7</ele>
        <time>2023-07-12T09:00:56Z</time>
      </trkpt>
      <trkpt lat="49.77004" lon="2.29687">
        <ele>93.7</ele>
        <time>2023-07-12T09:00:57Z</time>
      </trkpt>
      <trkpt lat="49.77003" lon="2.29686">
        <ele>93.7</ele>
        <time>2023-07-12T09:00:59Z</time>
      </trkpt>
      <trkpt lat="49.77002" lon="2.29685">
        <ele>93.7</ele>
        <time>2023-07-12T09:01:00Z</time>
      </trkpt>
      <trkpt lat="49.77001" lon="2.29684">
        <ele>93.8</ele>
        <time>2023-07-12T09:01:01Z</time>
      </trkpt>
      <trkpt lat="49.77" lon="2.29683">
        <ele>93.8</ele>
        <time>2023-07-12T09:01:02Z</time>
      </trkpt>
      <trkpt lat="49.76999" lon="2.29682">
        <ele>93.8</ele>
        <time>2023-07-12T09:01:03Z</time>
      </trkpt>
      <trkpt lat="49.76998" lon="2.29682">
        <ele>93.8</ele>
        <time>2023-07-12T09:01:04Z</time>
      </trkpt>
      <trkpt lat="49.76997" lon="2.29681">
        <ele>93.8</ele>
        <time>2023-07-12T09:01:06Z</time>
      </trkpt>
      <trkpt lat="49.76996" lon="2.2968">
        <ele>93.8</ele>
        <time>2023-07-12T09:01:07Z</time>
      </trkpt>
      <trkpt lat="49.76994" lon="2.29679">
        <ele>93.8</ele>
        <time>2023-07-12T09:01:08Z</time>
      </trkpt>
      <trkpt lat="49.76993" lon="2.29679">
        <ele>93.8</ele>
        <time>2023-07-12T09:01:09Z</time>
      </trkpt>
      <trkpt lat="49.76993" lon="2.29678">
        <ele>93.9</ele>
        <time>2023-07-12T09:01:10Z</time>
      </trkpt>
      <trkpt lat="49.76991" lon="2.29677">
        <ele>93.9</ele>
        <time>2023-07-12T09:01:12Z</time>
      </trkpt>
      <trkpt lat="49.7699" lon="2.29676">
        <ele>93.9</ele>
        <time>2023-07-12T09:01:13Z</time>
      </trkpt>
      <trkpt lat="49.76989" lon="2.29676">
        <ele>93.9</ele>
        <time>2023-07-12T09:01:14Z</time>
      </trkpt>
      <trkpt lat="49.76988" lon="2.29675">
        <ele>93.9</ele>
        <time>2023-07-12T09:01:15Z</time>
      </trkpt>
      <trkpt lat="49.76987" lon="2.29674">
        <ele>93.9</ele>
        <time>2023-07-12T09:01:16Z</time>
      </trkpt>
      <trkpt lat="49.76986" lon="2.29673">
        <ele>93.9</ele>
        <time>2023-07-12T09:01:17Z</time>
      </trkpt>
      <trkpt lat="49.76985" lon="2.29672">
        <ele>93.9</ele>
        <time>2023-07-12T09:01:19Z</time>
      </trkpt>
      <trkpt lat="49.76985" lon="2.29671">
        <ele>93.9</ele>
        <time>2023-07-12T09:01:20Z</time>
      </trkpt>
      <trkpt lat="49.76984" lon="2.2967">
        <ele>94</ele>
        <time>2023-07-12T09:01:21Z</time>
      </trkpt>
      <trkpt lat="49.76983" lon="2.29669">
        <ele>94</ele>
        <time>2023-07-12T09:01:22Z</time>
      </trkpt>
      <trkpt lat="49.76982" lon="2.29668">
        <ele>94</ele>
        <time>2023-07-12T09:01:23Z</time>
      </trkpt>
      <trkpt lat="49.76981" lon="2.29667">
        <ele>94</ele>
        <time>2023-07-12T09:01:24Z</time>
      </trkpt>
      <trkpt lat="49.7698" lon="2.29666">
        <ele>94</ele>
        <time>2023-07-12T09:01:26Z</time>
      </trkpt>
      <trkpt lat="49.7698" lon="2.29665">
        <ele>94</ele>
        <time>2023-07-12T09:01:27Z</time>
      </trkpt>
      <trkpt lat="49.76979" lon="2.29664">
        <ele>94</ele>
        <time>2023-07-12T09:01:28Z</time>
      </trkpt>
      <trkpt lat="49.76978" lon="2.29662">
        <ele>94</ele>
        <time>2023-07-12T09:01:29Z</time>
      </trkpt>
      <trkpt lat="49.76977" lon="2.29661">
        <ele>94</ele>
        <time>2023-07-12T09:01:30Z</time>
      </trkpt>
      <trkpt lat="49.76976" lon="2.2966">
        <ele>94.1</ele>
        <time>2023-07-12T09:01:31Z</time>
      </trkpt>
      <trkpt lat="49.76975" lon="2.29658">
        <ele>94.1</ele>
        <time>2023-07-12T09:01:33Z</time>
      </trkpt>
      <trkpt lat="49.76974" lon="2.29657">
        <ele>94.1</ele>
        <time>2023-07-12T09:01:34Z</time>
      </trkpt>
      <trkpt lat="49.76974" lon="2.29656">
        <ele>94.1</ele>
        <time>2023-07-12T09:01:35Z</time>
      </trkpt>
      <trkpt lat="49.76972" lon="2.29655">
        <ele>94.1</ele>
        <time>2023-07-12T09:01:36Z</time>
      </trkpt>
      <trkpt lat="49.76971" lon="2.29654">
        <ele>94.1</ele>
        <time>2023-07-12T09:01:37Z</time>
      </trkpt>
      <trkpt lat="49.76971" lon="2.29653">
        <ele>94.1</ele>
        <time>2023-07-12T09:01:38Z</time>
      </trkpt>
      <trkpt lat="49.7697" lon="2.29652">
        <ele>94.1</ele>
        <time>2023-07-12T09:01:40Z</time>
      </trkpt>
      <trkpt lat="49.76969" lon="2.29651">
        <ele>94.1</ele>
        <time>2023-07-12T09:01:41Z</time>
      </trkpt>
      <trkpt lat="49.76967" lon="2.29649">
        <ele>94.1</ele>
        <time>2023-07-12T09:01:42Z</time>
      </trkpt>
      <trkpt lat="49.76966" lon="2.29648">
        <ele>94.1</ele>
        <time>2023-07-12T09:01:43Z</time>
      </trkpt>
      <trkpt lat="49.76966" lon="2.29647">
        <ele>94.1</ele>
        <time>2023-07-12T09:01:44Z</time>
      </trkpt>
      <trkpt lat="49.76965" lon="2.29646">
        <ele>94.1</ele>
        <time>2023-07-12T09:01:46Z</time>
      </trkpt>
      <trkpt lat="49.76964" lon="2.29645">
        <ele>94.2</ele>
        <time>2023-07-12T09:01:47Z</time>
      </trkpt>
      <trkpt lat="49.76963" lon="2.29644">
        <ele>94.2</ele>
        <time>2023-07-12T09:01:48Z</time>
      </trkpt>
      <trkpt lat="49.76961" lon="2.29642">
        <ele>94.2</ele>
        <time>2023-07-12T09:01:49Z</time>
      </trkpt>
      <trkpt lat="49.7696" lon="2.29641">
        <ele>94.2</ele>
        <time>2023-07-12T09:01:50Z</time>
      </trkpt>
      <trkpt lat="49.7696" lon="2.2964">
        <ele>94.2</ele>
        <time>2023-07-12T09:01:52Z</time>
      </trkpt>
      <trkpt lat="49.76959" lon="2.29639">
        <ele>94.2</ele>
        <time>2023-07-12T09:01:53Z</time>
      </trkpt>
      <trkpt lat="49.76958" lon="2.29638">
        <ele>94.3</ele>
        <time>2023-07-12T09:01:54Z</time>
      </trkpt>
      <trkpt lat="49.76957" lon="2.29637">
        <ele>94.3</ele>
        <time>2023-07-12T09:01:55Z</time>
      </trkpt>
      <trkpt lat="49.76956" lon="2.29636">
        <ele>94.3</ele>
        <time>2023-07-12T09:01:56Z</time>
      </trkpt>
      <trkpt lat="49.76955" lon="2.29635">
        <ele>94.3</ele>
        <time>2023-07-12T09:01:57Z</time>
      </trkpt>
      <trkpt lat="49.76954" lon="2.29634">
        <ele>94.4</ele>
        <time>2023-07-12T09:01:59Z</time>
      </trkpt>
      <trkpt lat="49.76953" lon="2.29634">
        <ele>94.4</ele>
        <time>2023-07-12T09:02:00Z</time>
      </trkpt>
      <trkpt lat="49.76952" lon="2.29633">
        <ele>94.4</ele>
        <time>2023-07-12T09:02:01Z</time>
      </trkpt>
      <trkpt lat="49.76951" lon="2.29632">
        <ele>94.4</ele>
        <time>2023-07-12T09:02:02Z</time>
      </trkpt>
      <trkpt lat="49.7695" lon="2.29631">
        <ele>94.5</ele>
        <time>2023-07-12T09:02:03Z</time>
      </trkpt>
      <trkpt lat="49.76949" lon="2.2963">
        <ele>94.5</ele>
        <time>2023-07-12T09:02:05Z</time>
      </trkpt>
      <trkpt lat="49.76948" lon="2.29629">
        <ele>94.5</ele>
        <time>2023-07-12T09:02:06Z</time>
      </trkpt>
      <trkpt lat="49.76946" lon="2.29627">
        <ele>94.5</ele>
        <time>2023-07-12T09:02:07Z</time>
      </trkpt>
      <trkpt lat="49.76946" lon="2.29627">
        <ele>94.6</ele>
        <time>2023-07-12T09:02:08Z</time>
      </trkpt>
      <trkpt lat="49.76945" lon="2.29626">
        <ele>94.6</ele>
        <time>2023-07-12T09:02:09Z</time>
      </trkpt>
      <trkpt lat="49.76944" lon="2.29625">
        <ele>94.6</ele>
        <time>2023-07-12T09:02:10Z</time>
      </trkpt>
      <trkpt lat="49.76943" lon="2.29624">
        <ele>94.6</ele>
        <time>2023-07-12T09:02:12Z</time>
      </trkpt>
      <trkpt lat="49.76941" lon="2.29623">
        <ele>94.7</ele>
        <time>2023-07-12T09:02:13Z</time>
      </trkpt>
      <trkpt lat="49.7694" lon="2.29622">
        <ele>94.7</ele>
        <time>2023-07-12T09:02:15Z</time>
      </trkpt>
      <trkpt lat="49.7694" lon="2.29621">
        <ele>94.7</ele>
        <time>2023-07-12T09:02:16Z</time>
      </trkpt>
      <trkpt lat="49.76939" lon="2.2962">
        <ele>94.7</ele>
        <time>2023-07-12T09:02:17Z</time>
      </trkpt>
      <trkpt lat="49.76938" lon="2.29619">
        <ele>94.8</ele>
        <time>2023-07-12T09:02:18Z</time>
      </trkpt>
      <trkpt lat="49.76936" lon="2.29617">
        <ele>94.8</ele>
        <time>2023-07-12T09:02:20Z</time>
      </trkpt>
      <trkpt lat="49.76935" lon="2.29616">
        <ele>94.8</ele>
        <time>2023-07-12T09:02:21Z</time>
      </trkpt>
      <trkpt lat="49.76934" lon="2.29615">
        <ele>94.9</ele>
        <time>2023-07-12T09:02:23Z</time>
      </trkpt>
      <trkpt lat="49.76933" lon="2.29614">
        <ele>94.9</ele>
        <time>2023-07-12T09:02:24Z</time>
      </trkpt>
      <trkpt lat="49.76932" lon="2.29613">
        <ele>94.9</ele>
        <time>2023-07-12T09:02:25Z</time>
      </trkpt>
      <trkpt lat="49.76931" lon="2.29612">
        <ele>94.9</ele>
        <time>2023-07-12T09:02:26Z</time>
      </trkpt>
      <trkpt lat="49.7693" lon="2.2961">
        <ele>95</ele>
        <time>2023-07-12T09:02:27Z</time>
      </trkpt>
      <trkpt lat="49.76929" lon="2.29609">
        <ele>95</ele>
        <time>2023-07-12T09:02:28Z</time>
      </trkpt>
      <trkpt lat="49.76928" lon="2.29609">
        <ele>95</ele>
        <time>2023-07-12T09:02:30Z</time>
      </trkpt>
      <trkpt lat="49.76927" lon="2.29608">
        <ele>95</ele>
        <time>2023-07-12T09:02:31Z</time>
      </trkpt>
      <trkpt lat="49.76926" lon="2.29607">
        <ele>95</ele>
        <time>2023-07-12T09:02:32Z</time>
      </trkpt>
      <trkpt lat="49.76926" lon="2.29606">
        <ele>95</ele>
        <time>2023-07-12T09:02:33Z</time>
      </trkpt>
      <trkpt lat="49.76925" lon="2.29605">
        <ele>95.1</ele>
        <time>2023-07-12T09:02:34Z</time>
      </trkpt>
      <trkpt lat="49.76923" lon="2.29605">
        <ele>95.1</ele>
        <time>2023-07-12T09:02:36Z</time>
      </trkpt>
      <trkpt lat="49.76922" lon="2.29604">
        <ele>95.1</ele>
        <time>2023-07-12T09:02:37Z</time>
      </trkpt>
      <trkpt lat="49.7692" lon="2.29603">
        <ele>95.1</ele>
        <time>2023-07-12T09:02:38Z</time>
      </trkpt>
      <trkpt lat="49.7692" lon="2.29602">
        <ele>95.1</ele>
        <time>2023-07-12T09:02:39Z</time>
      </trkpt>
      <trkpt lat="49.76919" lon="2.29601">
        <ele>95.1</ele>
        <time>2023-07-12T09:02:40Z</time>
      </trkpt>
      <trkpt lat="49.76918" lon="2.296">
        <ele>95.2</ele>
        <time>2023-07-12T09:02:42Z</time>
      </trkpt>
      <trkpt lat="49.76917" lon="2.296">
        <ele>95.2</ele>
        <time>2023-07-12T09:02:43Z</time>
      </trkpt>
      <trkpt lat="49.76916" lon="2.29598">
        <ele>95.2</ele>
        <time>2023-07-12T09:02:44Z</time>
      </trkpt>
      <trkpt lat="49.76915" lon="2.29597">
        <ele>95.2</ele>
        <time>2023-07-12T09:02:45Z</time>
      </trkpt>
      <trkpt lat="49.76915" lon="2.29596">
        <ele>95.2</ele>
        <time>2023-07-12T09:02:46Z</time>
      </trkpt>
      <trkpt lat="49.76914" lon="2.29595">
        <ele>95.2</ele>
        <time>2023-07-12T09:02:48Z</time>
      </trkpt>
      <trkpt lat="49.76913" lon="2.29594">
        <ele>95.2</ele>
        <time>2023-07-12T09:02:49Z</time>
      </trkpt>
      <trkpt lat="49.76912" lon="2.29593">
        <ele>95.3</ele>
        <time>2023-07-12T09:02:50Z</time>
      </trkpt>
      <trkpt lat="49.76911" lon="2.29592">
        <ele>95.3</ele>
        <time>2023-07-12T09:02:51Z</time>
      </trkpt>
      <trkpt lat="49.7691" lon="2.29591">
        <ele>95.3</ele>
        <time>2023-07-12T09:02:52Z</time>
      </trkpt>
      <trkpt lat="49.76909" lon="2.2959">
        <ele>95.3</ele>
        <time>2023-07-12T09:02:54Z</time>
      </trkpt>
      <trkpt lat="49.76908" lon="2.29589">
        <ele>95.4</ele>
        <time>2023-07-12T09:02:55Z</time>
      </trkpt>
      <trkpt lat="49.76907" lon="2.29588">
        <ele>95.4</ele>
        <time>2023-07-12T09:02:56Z</time>
      </trkpt>
      <trkpt lat="49.76906" lon="2.29587">
        <ele>95.5</ele>
        <time>2023-07-12T09:02:57Z</time>
      </trkpt>
      <trkpt lat="49.76904" lon="2.29586">
        <ele>95.5</ele>
        <time>2023-07-12T09:02:58Z</time>
      </trkpt>
      <trkpt lat="49.76903" lon="2.29586">
        <ele>95.5</ele>
        <time>2023-07-12T09:02:59Z</time>
      </trkpt>
      <trkpt lat="49.76902" lon="2.29585">
        <ele>95.6</ele>
        <time>2023-07-12T09:03:01Z</time>
      </trkpt>
      <trkpt lat="49.769" lon="2.29584">
        <ele>95.6</ele>
        <time>2023-07-12T09:03:02Z</time>
      </trkpt>
      <trkpt lat="49.76899" lon="2.29583">
        <ele>95.6</ele>
        <time>2023-07-12T09:03:03Z</time>
      </trkpt>
      <trkpt lat="49.76899" lon="2.29583">
        <ele>95.7</ele>
        <time>2023-07-12T09:03:04Z</time>
      </trkpt>
      <trkpt lat="49.76897" lon="2.29582">
        <ele>95.7</ele>
        <time>2023-07-12T09:03:05Z</time>
      </trkpt>
      <trkpt lat="49.76896" lon="2.29581">
        <ele>95.8</ele>
        <time>2023-07-12T09:03:06Z</time>
      </trkpt>
      <trkpt lat="49.76895" lon="2.29581">
        <ele>95.8</ele>
        <time>2023-07-12T09:03:08Z</time>
      </trkpt>
      <trkpt lat="49.76894" lon="2.29581">
        <ele>95.8</ele>
        <time>2023-07-12T09:03:09Z</time>
      </trkpt>
      <trkpt lat="49.76893" lon="2.2958">
        <ele>95.8</ele>
        <time>2023-07-12T09:03:10Z</time>
      </trkpt>
      <trkpt lat="49.76892" lon="2.2958">
        <ele>95.9</ele>
        <time>2023-07-12T09:03:11Z</time>
      </trkpt>
      <trkpt lat="49.76891" lon="2.2958">
        <ele>95.9</ele>
        <time>2023-07-12T09:03:12Z</time>
      </trkpt>
      <trkpt lat="49.7689" lon="2.2958">
        <ele>95.9</ele>
        <time>2023-07-12T09:03:14Z</time>
      </trkpt>
      <trkpt lat="49.76889" lon="2.2958">
        <ele>96</ele>
        <time>2023-07-12T09:03:15Z</time>
      </trkpt>
      <trkpt lat="49.76888" lon="2.29579">
        <ele>96</ele>
        <time>2023-07-12T09:03:16Z</time>
      </trkpt>
      <trkpt lat="49.76886" lon="2.29579">
        <ele>96</ele>
        <time>2023-07-12T09:03:17Z</time>
      </trkpt>
      <trkpt lat="49.76885" lon="2.29579">
        <ele>96</ele>
        <time>2023-07-12T09:03:18Z</time>
      </trkpt>
      <trkpt lat="49.76884" lon="2.29579">
        <ele>96.1</ele>
        <time>2023-07-12T09:03:20Z</time>
      </trkpt>
      <trkpt lat="49.76883" lon="2.29578">
        <ele>96.1</ele>
        <time>2023-07-12T09:03:21Z</time>
      </trkpt>
      <trkpt lat="49.76882" lon="2.29578">
        <ele>96.1</ele>
        <time>2023-07-12T09:03:22Z</time>
      </trkpt>
      <trkpt lat="49.76881" lon="2.29578">
        <ele>96.1</ele>
        <time>2023-07-12T09:03:23Z</time>
      </trkpt>
      <trkpt lat="49.76881" lon="2.29578">
        <ele>96.2</ele>
        <time>2023-07-12T09:03:24Z</time>
      </trkpt>
      <trkpt lat="49.7688" lon="2.29577">
        <ele>96.2</ele>
        <time>2023-07-12T09:03:26Z</time>
      </trkpt>
      <trkpt lat="49.76879" lon="2.29577">
        <ele>96.2</ele>
        <time>2023-07-12T09:03:27Z</time>
      </trkpt>
      <trkpt lat="49.76878" lon="2.29577">
        <ele>96.2</ele>
        <time>2023-07-12T09:03:28Z</time>
      </trkpt>
      <trkpt lat="49.76877" lon="2.29576">
        <ele>96.3</ele>
        <time>2023-07-12T09:03:29Z</time>
      </trkpt>
      <trkpt lat="49.76875" lon="2.29576">
        <ele>96.3</ele>
        <time>2023-07-12T09:03:30Z</time>
      </trkpt>
      <trkpt lat="49.76874" lon="2.29576">
        <ele>96.3</ele>
        <time>2023-07-12T09:03:32Z</time>
      </trkpt>
      <trkpt lat="49.76872" lon="2.29575">
        <ele>96.4</ele>
        <time>2023-07-12T09:03:33Z</time>
      </trkpt>
      <trkpt lat="49.76871" lon="2.29575">
        <ele>96.4</ele>
        <time>2023-07-12T09:03:34Z</time>
      </trkpt>
      <trkpt lat="49.7687" lon="2.29574">
        <ele>96.4</ele>
        <time>2023-07-12T09:03:36Z</time>
      </trkpt>
      <trkpt lat="49.76869" lon="2.29574">
        <ele>96.4</ele>
        <time>2023-07-12T09:03:37Z</time>
      </trkpt>
      <trkpt lat="49.76868" lon="2.29573">
        <ele>96.5</ele>
        <time>2023-07-12T09:03:38Z</time>
      </trkpt>
      <trkpt lat="49.76867" lon="2.29573">
        <ele>96.5</ele>
        <time>2023-07-12T09:03:39Z</time>
      </trkpt>
      <trkpt lat="49.76866" lon="2.29572">
        <ele>96.5</ele>
        <time>2023-07-12T09:03:40Z</time>
      </trkpt>
      <trkpt lat="49.76865" lon="2.29571">
        <ele>96.5</ele>
        <time>2023-07-12T09:03:41Z</time>
      </trkpt>
      <trkpt lat="49.76864" lon="2.29571">
        <ele>96.5</ele>
        <time>2023-07-12T09:03:43Z</time>
      </trkpt>
      <trkpt lat="49.76863" lon="2.2957">
        <ele>96.6</ele>
        <time>2023-07-12T09:03:44Z</time>
      </trkpt>
      <trkpt lat="49.76862" lon="2.29569">
        <ele>96.6</ele>
        <time>2023-07-12T09:03:45Z</time>
      </trkpt>
      <trkpt lat="49.76861" lon="2.29568">
        <ele>96.6</ele>
        <time>2023-07-12T09:03:46Z</time>
      </trkpt>
      <trkpt lat="49.7686" lon="2.29567">
        <ele>96.6</ele>
        <time>2023-07-12T09:03:47Z</time>
      </trkpt>
      <trkpt lat="49.76859" lon="2.29565">
        <ele>96.6</ele>
        <time>2023-07-12T09:03:48Z</time>
      </trkpt>
      <trkpt lat="49.76857" lon="2.29563">
        <ele>96.7</ele>
        <time>2023-07-12T09:03:50Z</time>
      </trkpt>
      <trkpt lat="49.76856" lon="2.29562">
        <ele>96.7</ele>
        <time>2023-07-12T09:03:51Z</time>
      </trkpt>
      <trkpt lat="49.76856" lon="2.29561">
        <ele>96.7</ele>
        <time>2023-07-12T09:03:52Z</time>
      </trkpt>
      <trkpt lat="49.76855" lon="2.2956">
        <ele>96.7</ele>
        <time>2023-07-12T09:03:53Z</time>
      </trkpt>
      <trkpt lat="49.76853" lon="2.29559">
        <ele>96.7</ele>
        <time>2023-07-12T09:03:54Z</time>
      </trkpt>
      <trkpt lat="49.76852" lon="2.29557">
        <ele>96.7</ele>
        <time>2023-07-12T09:03:55Z</time>
      </trkpt>
      <trkpt lat="49.76851" lon="2.29556">
        <ele>96.8</ele>
        <time>2023-07-12T09:03:57Z</time>
      </trkpt>
      <trkpt lat="49.7685" lon="2.29556">
        <ele>96.8</ele>
        <time>2023-07-12T09:03:58Z</time>
      </trkpt>
      <trkpt lat="49.76849" lon="2.29554">
        <ele>96.8</ele>
        <time>2023-07-12T09:03:59Z</time>
      </trkpt>
      <trkpt lat="49.76848" lon="2.29553">
        <ele>96.8</ele>
        <time>2023-07-12T09:04:00Z</time>
      </trkpt>
      <trkpt lat="49.76847" lon="2.29552">
        <ele>96.8</ele>
        <time>2023-07-12T09:04:01Z</time>
      </trkpt>
      <trkpt lat="49.76846" lon="2.2955">
        <ele>96.8</ele>
        <time>2023-07-12T09:04:03Z</time>
      </trkpt>
      <trkpt lat="49.76845" lon="2.29549">
        <ele>96.8</ele>
        <time>2023-07-12T09:04:04Z</time>
      </trkpt>
      <trkpt lat="49.76844" lon="2.29548">
        <ele>96.8</ele>
        <time>2023-07-12T09:04:05Z</time>
      </trkpt>
      <trkpt lat="49.76843" lon="2.29548">
        <ele>96.8</ele>
        <time>2023-07-12T09:04:06Z</time>
      </trkpt>
      <trkpt lat="49.76842" lon="2.29547">
        <ele>96.8</ele>
        <time>2023-07-12T09:04:07Z</time>
      </trkpt>
      <trkpt lat="49.7684" lon="2.29546">
        <ele>96.8</ele>
        <time>2023-07-12T09:04:08Z</time>
      </trkpt>
      <trkpt lat="49.76839" lon="2.29546">
        <ele>96.8</ele>
        <time>2023-07-12T09:04:10Z</time>
      </trkpt>
      <trkpt lat="49.76838" lon="2.29544">
        <ele>96.8</ele>
        <time>2023-07-12T09:04:11Z</time>
      </trkpt>
      <trkpt lat="49.76837" lon="2.29544">
        <ele>96.8</ele>
        <time>2023-07-12T09:04:12Z</time>
      </trkpt>
      <trkpt lat="49.76836" lon="2.29543">
        <ele>96.8</ele>
        <time>2023-07-12T09:04:13Z</time>
      </trkpt>
      <trkpt lat="49.76835" lon="2.29542">
        <ele>96.8</ele>
        <time>2023-07-12T09:04:14Z</time>
      </trkpt>
      <trkpt lat="49.76834" lon="2.29541">
        <ele>96.8</ele>
        <time>2023-07-12T09:04:15Z</time>
      </trkpt>
      <trkpt lat="49.76833" lon="2.2954">
        <ele>96.8</ele>
        <time>2023-07-12T09:04:17Z</time>
      </trkpt>
      <trkpt lat="49.76831" lon="2.29538">
        <ele>96.8</ele>
        <time>2023-07-12T09:04:18Z</time>
      </trkpt>
      <trkpt lat="49.76831" lon="2.29538">
        <ele>96.8</ele>
        <time>2023-07-12T09:04:19Z</time>
      </trkpt>
      <trkpt lat="49.7683" lon="2.29537">
        <ele>96.9</ele>
        <time>2023-07-12T09:04:20Z</time>
      </trkpt>
      <trkpt lat="49.76829" lon="2.29536">
        <ele>96.9</ele>
        <time>2023-07-12T09:04:21Z</time>
      </trkpt>
      <trkpt lat="49.76828" lon="2.29535">
        <ele>96.9</ele>
        <time>2023-07-12T09:04:22Z</time>
      </trkpt>
      <trkpt lat="49.76827" lon="2.29534">
        <ele>96.9</ele>
        <time>2023-07-12T09:04:24Z</time>
      </trkpt>
      <trkpt lat="49.76825" lon="2.29532">
        <ele>96.9</ele>
        <time>2023-07-12T09:04:25Z</time>
      </trkpt>
      <trkpt lat="49.76824" lon="2.29531">
        <ele>96.9</ele>
        <time>2023-07-12T09:04:26Z</time>
      </trkpt>
      <trkpt lat="49.76823" lon="2.2953">
        <ele>96.9</ele>
        <time>2023-07-12T09:04:27Z</time>
      </trkpt>
      <trkpt lat="49.76822" lon="2.29529">
        <ele>96.9</ele>
        <time>2023-07-12T09:04:28Z</time>
      </trkpt>
      <trkpt lat="49.76821" lon="2.29528">
        <ele>97</ele>
        <time>2023-07-12T09:04:29Z</time>
      </trkpt>
      <trkpt lat="49.76819" lon="2.29526">
        <ele>97</ele>
        <time>2023-07-12T09:04:31Z</time>
      </trkpt>
      <trkpt lat="49.76818" lon="2.29526">
        <ele>97</ele>
        <time>2023-07-12T09:04:32Z</time>
      </trkpt>
      <trkpt lat="49.76817" lon="2.29525">
        <ele>97</ele>
        <time>2023-07-12T09:04:33Z</time>
      </trkpt>
      <trkpt lat="49.76816" lon="2.29524">
        <ele>97</ele>
        <time>2023-07-12T09:04:34Z</time>
      </trkpt>
      <trkpt lat="49.76815" lon="2.29523">
        <ele>97</ele>
        <time>2023-07-12T09:04:35Z</time>
      </trkpt>
      <trkpt lat="49.76814" lon="2.29521">
        <ele>97</ele>
        <time>2023-07-12T09:04:36Z</time>
      </trkpt>
      <trkpt lat="49.76813" lon="2.2952">
        <ele>97</ele>
        <time>2023-07-12T09:04:37Z</time>
      </trkpt>
      <trkpt lat="49.76812" lon="2.29519">
        <ele>97.1</ele>
        <time>2023-07-12T09:04:39Z</time>
      </trkpt>
      <trkpt lat="49.7681" lon="2.29518">
        <ele>97.1</ele>
        <time>2023-07-12T09:04:40Z</time>
      </trkpt>
      <trkpt lat="49.7681" lon="2.29517">
        <ele>97.1</ele>
        <time>2023-07-12T09:04:41Z</time>
      </trkpt>
      <trkpt lat="49.76809" lon="2.29517">
        <ele>97.1</ele>
        <time>2023-07-12T09:04:42Z</time>
      </trkpt>
      <trkpt lat="49.76807" lon="2.29515">
        <ele>97.1</ele>
        <time>2023-07-12T09:04:43Z</time>
      </trkpt>
      <trkpt lat="49.76807" lon="2.29514">
        <ele>97.1</ele>
        <time>2023-07-12T09:04:44Z</time>
      </trkpt>
      <trkpt lat="49.76806" lon="2.29514">
        <ele>97.1</ele>
        <time>2023-07-12T09:04:45Z</time>
      </trkpt>
      <trkpt lat="49.76805" lon="2.29513">
        <ele>97.1</ele>
        <time>2023-07-12T09:04:47Z</time>
      </trkpt>
      <trkpt lat="49.76805" lon="2.29513">
        <ele>97.1</ele>
        <time>2023-07-12T09:04:48Z</time>
      </trkpt>
      <trkpt lat="49.76804" lon="2.29512">
        <ele>97.1</ele>
        <time>2023-07-12T09:04:49Z</time>
      </trkpt>
      <trkpt lat="49.76803" lon="2.29511">
        <ele>97.1</ele>
        <time>2023-07-12T09:04:50Z</time>
      </trkpt>
      <trkpt lat="49.76801" lon="2.2951">
        <ele>97.1</ele>
        <time>2023-07-12T09:04:51Z</time>
      </trkpt>
      <trkpt lat="49.768" lon="2.29509">
        <ele>97.1</ele>
        <time>2023-07-12T09:04:52Z</time>
      </trkpt>
      <trkpt lat="49.76799" lon="2.29509">
        <ele>97.1</ele>
        <time>2023-07-12T09:04:53Z</time>
      </trkpt>
      <trkpt lat="49.76798" lon="2.29508">
        <ele>97.1</ele>
        <time>2023-07-12T09:04:55Z</time>
      </trkpt>
      <trkpt lat="49.76797" lon="2.29508">
        <ele>97.2</ele>
        <time>2023-07-12T09:04:56Z</time>
      </trkpt>
      <trkpt lat="49.76796" lon="2.29507">
        <ele>97.2</ele>
        <time>2023-07-12T09:04:57Z</time>
      </trkpt>
      <trkpt lat="49.76795" lon="2.29507">
        <ele>97.2</ele>
        <time>2023-07-12T09:04:58Z</time>
      </trkpt>
      <trkpt lat="49.76794" lon="2.29506">
        <ele>97.2</ele>
        <time>2023-07-12T09:04:59Z</time>
      </trkpt>
      <trkpt lat="49.76793" lon="2.29506">
        <ele>97.2</ele>
        <time>2023-07-12T09:05:00Z</time>
      </trkpt>
      <trkpt lat="49.76792" lon="2.29505">
        <ele>97.2</ele>
        <time>2023-07-12T09:05:02Z</time>
      </trkpt>
      <trkpt lat="49.76791" lon="2.29505">
        <ele>97.2</ele>
        <time>2023-07-12T09:05:03Z</time>
      </trkpt>
      <trkpt lat="49.7679" lon="2.29505">
        <ele>97.2</ele>
        <time>2023-07-12T09:05:04Z</time>
      </trkpt>
      <trkpt lat="49.76789" lon="2.29504">
        <ele>97.2</ele>
        <time>2023-07-12T09:05:05Z</time>
      </trkpt>
      <trkpt lat="49.76787" lon="2.29504">
        <ele>97.2</ele>
        <time>2023-07-12T09:05:06Z</time>
      </trkpt>
      <trkpt lat="49.76785" lon="2.29503">
        <ele>97.2</ele>
        <time>2023-07-12T09:05:07Z</time>
      </trkpt>
      <trkpt lat="49.76784" lon="2.29503">
        <ele>97.2</ele>
        <time>2023-07-12T09:05:09Z</time>
      </trkpt>
      <trkpt lat="49.76783" lon="2.29503">
        <ele>97.2</ele>
        <time>2023-07-12T09:05:10Z</time>
      </trkpt>
      <trkpt lat="49.76782" lon="2.29502">
        <ele>97.2</ele>
        <time>2023-07-12T09:05:11Z</time>
      </trkpt>
      <trkpt lat="49.76781" lon="2.29502">
        <ele>97.2</ele>
        <time>2023-07-12T09:05:12Z</time>
      </trkpt>
      <trkpt lat="49.76779" lon="2.29501">
        <ele>97.2</ele>
        <time>2023-07-12T09:05:13Z</time>
      </trkpt>
      <trkpt lat="49.76778" lon="2.295">
        <ele>97.2</ele>
        <time>2023-07-12T09:05:14Z</time>
      </trkpt>
      <trkpt lat="49.76777" lon="2.29499">
        <ele>97.2</ele>
        <time>2023-07-12T09:05:16Z</time>
      </trkpt>
      <trkpt lat="49.76775" lon="2.29498">
        <ele>97.3</ele>
        <time>2023-07-12T09:05:17Z</time>
      </trkpt>
      <trkpt lat="49.76774" lon="2.29498">
        <ele>97.3</ele>
        <time>2023-07-12T09:05:18Z</time>
      </trkpt>
      <trkpt lat="49.76773" lon="2.29497">
        <ele>97.3</ele>
        <time>2023-07-12T09:05:19Z</time>
      </trkpt>
      <trkpt lat="49.76771" lon="2.29496">
        <ele>97.3</ele>
        <time>2023-07-12T09:05:20Z</time>
      </trkpt>
      <trkpt lat="49.76771" lon="2.29495">
        <ele>97.3</ele>
        <time>2023-07-12T09:05:21Z</time>
      </trkpt>
      <trkpt lat="49.7677" lon="2.29494">
        <ele>97.3</ele>
        <time>2023-07-12T09:05:23Z</time>
      </trkpt>
      <trkpt lat="49.76769" lon="2.29493">
        <ele>97.3</ele>
        <time>2023-07-12T09:05:24Z</time>
      </trkpt>
      <trkpt lat="49.76768" lon="2.29492">
        <ele>97.3</ele>
        <time>2023-07-12T09:05:25Z</time>
      </trkpt>
      <trkpt lat="49.76767" lon="2.29492">
        <ele>97.3</ele>
        <time>2023-07-12T09:05:26Z</time>
      </trkpt>
      <trkpt lat="49.76766" lon="2.29491">
        <ele>97.4</ele>
        <time>2023-07-12T09:05:27Z</time>
      </trkpt>
      <trkpt lat="49.76765" lon="2.2949">
        <ele>97.4</ele>
        <time>2023-07-12T09:05:28Z</time>
      </trkpt>
      <trkpt lat="49.76764" lon="2.29489">
        <ele>97.4</ele>
        <time>2023-07-12T09:05:30Z</time>
      </trkpt>
      <trkpt lat="49.76763" lon="2.29488">
        <ele>97.4</ele>
        <time>2023-07-12T09:05:31Z</time>
      </trkpt>
      <trkpt lat="49.76762" lon="2.29488">
        <ele>97.4</ele>
        <time>2023-07-12T09:05:32Z</time>
      </trkpt>
      <trkpt lat="49.76761" lon="2.29486">
        <ele>97.4</ele>
        <time>2023-07-12T09:05:33Z</time>
      </trkpt>
      <trkpt lat="49.76761" lon="2.29485">
        <ele>97.4</ele>
        <time>2023-07-12T09:05:35Z</time>
      </trkpt>
      <trkpt lat="49.7676" lon="2.29484">
        <ele>97.4</ele>
        <time>2023-07-12T09:05:36Z</time>
      </trkpt>
      <trkpt lat="49.76759" lon="2.29483">
        <ele>97.4</ele>
        <time>2023-07-12T09:05:37Z</time>
      </trkpt>
      <trkpt lat="49.76759" lon="2.29483">
        <ele>97.4</ele>
        <time>2023-07-12T09:05:38Z</time>
      </trkpt>
      <trkpt lat="49.76758" lon="2.29483">
        <ele>97.5</ele>
        <time>2023-07-12T09:05:39Z</time>
      </trkpt>
      <trkpt lat="49.76758" lon="2.29483">
        <ele>97.5</ele>
        <time>2023-07-12T09:05:40Z</time>
      </trkpt>
      <trkpt lat="49.76757" lon="2.29483">
        <ele>97.5</ele>
        <time>2023-07-12T09:05:42Z</time>
      </trkpt>
      <trkpt lat="49.76757" lon="2.29482">
        <ele>97.5</ele>
        <time>2023-07-12T09:05:43Z</time>
      </trkpt>
      <trkpt lat="49.76757" lon="2.29482">
        <ele>97.5</ele>
        <time>2023-07-12T09:05:44Z</time>
      </trkpt>
      <trkpt lat="49.76757" lon="2.29481">
        <ele>97.5</ele>
        <time>2023-07-12T09:05:45Z</time>
      </trkpt>
      <trkpt lat="49.76756" lon="2.29481">
        <ele>97.5</ele>
        <time>2023-07-12T09:05:46Z</time>
      </trkpt>
      <trkpt lat="49.76755" lon="2.29481">
        <ele>97.5</ele>
        <time>2023-07-12T09:05:47Z</time>
      </trkpt>
      <trkpt lat="49.76754" lon="2.29481">
        <ele>97.5</ele>
        <time>2023-07-12T09:05:48Z</time>
      </trkpt>
      <trkpt lat="49.76754" lon="2.2948">
        <ele>97.5</ele>
        <time>2023-07-12T09:05:49Z</time>
      </trkpt>
      <trkpt lat="49.76751" lon="2.2948">
        <ele>97.5</ele>
        <time>2023-07-12T09:05:51Z</time>
      </trkpt>
      <trkpt lat="49.76751" lon="2.2948">
        <ele>97.5</ele>
        <time>2023-07-12T09:05:52Z</time>
      </trkpt>
      <trkpt lat="49.7675" lon="2.29479">
        <ele>97.6</ele>
        <time>2023-07-12T09:05:53Z</time>
      </trkpt>
      <trkpt lat="49.76748" lon="2.29478">
        <ele>97.6</ele>
        <time>2023-07-12T09:05:54Z</time>
      </trkpt>
      <trkpt lat="49.76747" lon="2.29478">
        <ele>97.6</ele>
        <time>2023-07-12T09:05:55Z</time>
      </trkpt>
      <trkpt lat="49.76746" lon="2.29477">
        <ele>97.6</ele>
        <time>2023-07-12T09:05:56Z</time>
      </trkpt>
      <trkpt lat="49.76745" lon="2.29477">
        <ele>97.6</ele>
        <time>2023-07-12T09:05:57Z</time>
      </trkpt>
      <trkpt lat="49.76744" lon="2.29476">
        <ele>97.6</ele>
        <time>2023-07-12T09:05:59Z</time>
      </trkpt>
      <trkpt lat="49.76744" lon="2.29475">
        <ele>97.6</ele>
        <time>2023-07-12T09:06:00Z</time>
      </trkpt>
      <trkpt lat="49.76743" lon="2.29475">
        <ele>97.6</ele>
        <time>2023-07-12T09:06:01Z</time>
      </trkpt>
      <trkpt lat="49.76742" lon="2.29474">
        <ele>97.7</ele>
        <time>2023-07-12T09:06:02Z</time>
      </trkpt>
      <trkpt lat="49.76741" lon="2.29473">
        <ele>97.7</ele>
        <time>2023-07-12T09:06:03Z</time>
      </trkpt>
      <trkpt lat="49.76739" lon="2.29472">
        <ele>97.7</ele>
        <time>2023-07-12T09:06:04Z</time>
      </trkpt>
      <trkpt lat="49.76737" lon="2.29471">
        <ele>97.7</ele>
        <time>2023-07-12T09:06:05Z</time>
      </trkpt>
      <trkpt lat="49.76735" lon="2.29469">
        <ele>97.7</ele>
        <time>2023-07-12T09:06:07Z</time>
      </trkpt>
      <trkpt lat="49.76734" lon="2.29469">
        <ele>97.7</ele>
        <time>2023-07-12T09:06:08Z</time>
      </trkpt>
      <trkpt lat="49.76731" lon="2.29468">
        <ele>97.8</ele>
        <time>2023-07-12T09:06:09Z</time>
      </trkpt>
      <trkpt lat="49.7673" lon="2.29467">
        <ele>97.8</ele>
        <time>2023-07-12T09:06:10Z</time>
      </trkpt>
      <trkpt lat="49.76729" lon="2.29466">
        <ele>97.8</ele>
        <time>2023-07-12T09:06:11Z</time>
      </trkpt>
      <trkpt lat="49.76727" lon="2.29465">
        <ele>97.8</ele>
        <time>2023-07-12T09:06:13Z</time>
      </trkpt>
      <trkpt lat="49.76726" lon="2.29464">
        <ele>97.8</ele>
        <time>2023-07-12T09:06:14Z</time>
      </trkpt>
      <trkpt lat="49.76725" lon="2.29464">
        <ele>97.8</ele>
        <time>2023-07-12T09:06:15Z</time>
      </trkpt>
      <trkpt lat="49.76723" lon="2.29463">
        <ele>97.8</ele>
        <time>2023-07-12T09:06:16Z</time>
      </trkpt>
      <trkpt lat="49.76722" lon="2.29462">
        <ele>97.9</ele>
        <time>2023-07-12T09:06:17Z</time>
      </trkpt>
      <trkpt lat="49.7672" lon="2.29461">
        <ele>97.9</ele>
        <time>2023-07-12T09:06:18Z</time>
      </trkpt>
      <trkpt lat="49.76719" lon="2.29461">
        <ele>97.9</ele>
        <time>2023-07-12T09:06:19Z</time>
      </trkpt>
      <trkpt lat="49.76719" lon="2.2946">
        <ele>97.9</ele>
        <time>2023-07-12T09:06:20Z</time>
      </trkpt>
      <trkpt lat="49.76717" lon="2.29459">
        <ele>97.9</ele>
        <time>2023-07-12T09:06:21Z</time>
      </trkpt>
      <trkpt lat="49.76716" lon="2.29459">
        <ele>97.9</ele>
        <time>2023-07-12T09:06:23Z</time>
      </trkpt>
      <trkpt lat="49.76716" lon="2.29458">
        <ele>98</ele>
        <time>2023-07-12T09:06:24Z</time>
      </trkpt>
      <trkpt lat="49.76715" lon="2.29458">
        <ele>98</ele>
        <time>2023-07-12T09:06:25Z</time>
      </trkpt>
      <trkpt lat="49.76713" lon="2.29457">
        <ele>98</ele>
        <time>2023-07-12T09:06:26Z</time>
      </trkpt>
      <trkpt lat="49.76712" lon="2.29457">
        <ele>98</ele>
        <time>2023-07-12T09:06:27Z</time>
      </trkpt>
      <trkpt lat="49.7671" lon="2.29456">
        <ele>98.1</ele>
        <time>2023-07-12T09:06:28Z</time>
      </trkpt>
      <trkpt lat="49.76709" lon="2.29456">
        <ele>98.1</ele>
        <time>2023-07-12T09:06:29Z</time>
      </trkpt>
      <trkpt lat="49.76709" lon="2.29456">
        <ele>98.1</ele>
        <time>2023-07-12T09:06:30Z</time>
      </trkpt>
      <trkpt lat="49.76707" lon="2.29455">
        <ele>98.1</ele>
        <time>2023-07-12T09:06:32Z</time>
      </trkpt>
      <trkpt lat="49.76707" lon="2.29455">
        <ele>98.2</ele>
        <time>2023-07-12T09:06:33Z</time>
      </trkpt>
      <trkpt lat="49.76706" lon="2.29455">
        <ele>98.2</ele>
        <time>2023-07-12T09:06:34Z</time>
      </trkpt>
      <trkpt lat="49.76705" lon="2.29455">
        <ele>98.2</ele>
        <time>2023-07-12T09:06:35Z</time>
      </trkpt>
      <trkpt lat="49.76704" lon="2.29454">
        <ele>98.2</ele>
        <time>2023-07-12T09:06:36Z</time>
      </trkpt>
      <trkpt lat="49.76703" lon="2.29454">
        <ele>98.3</ele>
        <time>2023-07-12T09:06:37Z</time>
      </trkpt>
      <trkpt lat="49.76702" lon="2.29453">
        <ele>98.3</ele>
        <time>2023-07-12T09:06:38Z</time>
      </trkpt>
      <trkpt lat="49.76701" lon="2.29453">
        <ele>98.3</ele>
        <time>2023-07-12T09:06:39Z</time>
      </trkpt>
      <trkpt lat="49.767" lon="2.29452">
        <ele>98.3</ele>
        <time>2023-07-12T09:06:40Z</time>
      </trkpt>
      <trkpt lat="49.76698" lon="2.29451">
        <ele>98.4</ele>
        <time>2023-07-12T09:06:42Z</time>
      </trkpt>
      <trkpt lat="49.76697" lon="2.29451">
        <ele>98.4</ele>
        <time>2023-07-12T09:06:43Z</time>
      </trkpt>
      <trkpt lat="49.76696" lon="2.2945">
        <ele>98.4</ele>
        <time>2023-07-12T09:06:44Z</time>
      </trkpt>
      <trkpt lat="49.76694" lon="2.2945">
        <ele>98.5</ele>
        <time>2023-07-12T09:06:45Z</time>
      </trkpt>
      <trkpt lat="49.76693" lon="2.29449">
        <ele>98.5</ele>
        <time>2023-07-12T09:06:46Z</time>
      </trkpt>
      <trkpt lat="49.76692" lon="2.29449">
        <ele>98.5</ele>
        <time>2023-07-12T09:06:47Z</time>
      </trkpt>
      <trkpt lat="49.7669" lon="2.29449">
        <ele>98.6</ele>
        <time>2023-07-12T09:06:48Z</time>
      </trkpt>
      <trkpt lat="49.76689" lon="2.29448">
        <ele>98.6</ele>
        <time>2023-07-12T09:06:50Z</time>
      </trkpt>
      <trkpt lat="49.76688" lon="2.29448">
        <ele>98.6</ele>
        <time>2023-07-12T09:06:51Z</time>
      </trkpt>
      <trkpt lat="49.76686" lon="2.29448">
        <ele>98.7</ele>
        <time>2023-07-12T09:06:52Z</time>
      </trkpt>
      <trkpt lat="49.76685" lon="2.29448">
        <ele>98.7</ele>
        <time>2023-07-12T09:06:53Z</time>
      </trkpt>
      <trkpt lat="49.76684" lon="2.29448">
        <ele>98.7</ele>
        <time>2023-07-12T09:06:54Z</time>
      </trkpt>
      <trkpt lat="49.76682" lon="2.29447">
        <ele>98.7</ele>
        <time>2023-07-12T09:06:55Z</time>
      </trkpt>
      <trkpt lat="49.76681" lon="2.29447">
        <ele>98.8</ele>
        <time>2023-07-12T09:06:57Z</time>
      </trkpt>
      <trkpt lat="49.76681" lon="2.29447">
        <ele>98.8</ele>
        <time>2023-07-12T09:06:58Z</time>
      </trkpt>
      <trkpt lat="49.76679" lon="2.29446">
        <ele>98.8</ele>
        <time>2023-07-12T09:06:59Z</time>
      </trkpt>
      <trkpt lat="49.76678" lon="2.29446">
        <ele>98.8</ele>
        <time>2023-07-12T09:07:00Z</time>
      </trkpt>
      <trkpt lat="49.76677" lon="2.29445">
        <ele>98.9</ele>
        <time>2023-07-12T09:07:01Z</time>
      </trkpt>
      <trkpt lat="49.76675" lon="2.29445">
        <ele>98.9</ele>
        <time>2023-07-12T09:07:02Z</time>
      </trkpt>
      <trkpt lat="49.76674" lon="2.29445">
        <ele>98.9</ele>
        <time>2023-07-12T09:07:03Z</time>
      </trkpt>
      <trkpt lat="49.76673" lon="2.29444">
        <ele>98.9</ele>
        <time>2023-07-12T09:07:05Z</time>
      </trkpt>
      <trkpt lat="49.76672" lon="2.29444">
        <ele>99</ele>
        <time>2023-07-12T09:07:06Z</time>
      </trkpt>
      <trkpt lat="49.76671" lon="2.29444">
        <ele>99</ele>
        <time>2023-07-12T09:07:07Z</time>
      </trkpt>
      <trkpt lat="49.7667" lon="2.29443">
        <ele>99</ele>
        <time>2023-07-12T09:07:08Z</time>
      </trkpt>
      <trkpt lat="49.76669" lon="2.29443">
        <ele>99</ele>
        <time>2023-07-12T09:07:09Z</time>
      </trkpt>
      <trkpt lat="49.76668" lon="2.29443">
        <ele>99.1</ele>
        <time>2023-07-12T09:07:10Z</time>
      </trkpt>
      <trkpt lat="49.76666" lon="2.29442">
        <ele>99.1</ele>
        <time>2023-07-12T09:07:12Z</time>
      </trkpt>
      <trkpt lat="49.76665" lon="2.29441">
        <ele>99.1</ele>
        <time>2023-07-12T09:07:13Z</time>
      </trkpt>
      <trkpt lat="49.76664" lon="2.29441">
        <ele>99.1</ele>
        <time>2023-07-12T09:07:14Z</time>
      </trkpt>
      <trkpt lat="49.76663" lon="2.29441">
        <ele>99.1</ele>
        <time>2023-07-12T09:07:15Z</time>
      </trkpt>
      <trkpt lat="49.76662" lon="2.2944">
        <ele>99.2</ele>
        <time>2023-07-12T09:07:16Z</time>
      </trkpt>
      <trkpt lat="49.7666" lon="2.29439">
        <ele>99.2</ele>
        <time>2023-07-12T09:07:17Z</time>
      </trkpt>
      <trkpt lat="49.76659" lon="2.29438">
        <ele>99.2</ele>
        <time>2023-07-12T09:07:19Z</time>
      </trkpt>
      <trkpt lat="49.76658" lon="2.29437">
        <ele>99.2</ele>
        <time>2023-07-12T09:07:20Z</time>
      </trkpt>
      <trkpt lat="49.76656" lon="2.29436">
        <ele>99.3</ele>
        <time>2023-07-12T09:07:21Z</time>
      </trkpt>
      <trkpt lat="49.76655" lon="2.29435">
        <ele>99.3</ele>
        <time>2023-07-12T09:07:22Z</time>
      </trkpt>
      <trkpt lat="49.76653" lon="2.29435">
        <ele>99.3</ele>
        <time>2023-07-12T09:07:23Z</time>
      </trkpt>
      <trkpt lat="49.76652" lon="2.29434">
        <ele>99.3</ele>
        <time>2023-07-12T09:07:24Z</time>
      </trkpt>
      <trkpt lat="49.7665" lon="2.29434">
        <ele>99.4</ele>
        <time>2023-07-12T09:07:26Z</time>
      </trkpt>
      <trkpt lat="49.76649" lon="2.29434">
        <ele>99.4</ele>
        <time>2023-07-12T09:07:27Z</time>
      </trkpt>
      <trkpt lat="49.76648" lon="2.29433">
        <ele>99.4</ele>
        <time>2023-07-12T09:07:28Z</time>
      </trkpt>
      <trkpt lat="49.76647" lon="2.29433">
        <ele>99.4</ele>
        <time>2023-07-12T09:07:29Z</time>
      </trkpt>
      <trkpt lat="49.76645" lon="2.29433">
        <ele>99.4</ele>
        <time>2023-07-12T09:07:30Z</time>
      </trkpt>
      <trkpt lat="49.76644" lon="2.29433">
        <ele>99.4</ele>
        <time>2023-07-12T09:07:31Z</time>
      </trkpt>
      <trkpt lat="49.76643" lon="2.29433">
        <ele>99.5</ele>
        <time>2023-07-12T09:07:32Z</time>
      </trkpt>
      <trkpt lat="49.76642" lon="2.29434">
        <ele>99.5</ele>
        <time>2023-07-12T09:07:34Z</time>
      </trkpt>
      <trkpt lat="49.7664" lon="2.29434">
        <ele>99.5</ele>
        <time>2023-07-12T09:07:35Z</time>
      </trkpt>
      <trkpt lat="49.76639" lon="2.29434">
        <ele>99.5</ele>
        <time>2023-07-12T09:07:36Z</time>
      </trkpt>
      <trkpt lat="49.76637" lon="2.29433">
        <ele>99.5</ele>
        <time>2023-07-12T09:07:37Z</time>
      </trkpt>
      <trkpt lat="49.76636" lon="2.29433">
        <ele>99.5</ele>
        <time>2023-07-12T09:07:38Z</time>
      </trkpt>
      <trkpt lat="49.76635" lon="2.29433">
        <ele>99.5</ele>
        <time>2023-07-12T09:07:39Z</time>
      </trkpt>
      <trkpt lat="49.76633" lon="2.29433">
        <ele>99.5</ele>
        <time>2023-07-12T09:07:41Z</time>
      </trkpt>
      <trkpt lat="49.76632" lon="2.29433">
        <ele>99.4</ele>
        <time>2023-07-12T09:07:42Z</time>
      </trkpt>
      <trkpt lat="49.76631" lon="2.29433">
        <ele>99.4</ele>
        <time>2023-07-12T09:07:43Z</time>
      </trkpt>
      <trkpt lat="49.7663" lon="2.29433">
        <ele>99.5</ele>
        <time>2023-07-12T09:07:44Z</time>
      </trkpt>
      <trkpt lat="49.76629" lon="2.29433">
        <ele>99.4</ele>
        <time>2023-07-12T09:07:45Z</time>
      </trkpt>
      <trkpt lat="49.76628" lon="2.29433">
        <ele>99.4</ele>
        <time>2023-07-12T09:07:46Z</time>
      </trkpt>
      <trkpt lat="49.76627" lon="2.29433">
        <ele>99.4</ele>
        <time>2023-07-12T09:07:47Z</time>
      </trkpt>
      <trkpt lat="49.76626" lon="2.29432">
        <ele>99.4</ele>
        <time>2023-07-12T09:07:49Z</time>
      </trkpt>
      <trkpt lat="49.76625" lon="2.29432">
        <ele>99.4</ele>
        <time>2023-07-12T09:07:50Z</time>
      </trkpt>
      <trkpt lat="49.76624" lon="2.29432">
        <ele>99.3</ele>
        <time>2023-07-12T09:07:51Z</time>
      </trkpt>
      <trkpt lat="49.76623" lon="2.29431">
        <ele>99.3</ele>
        <time>2023-07-12T09:07:52Z</time>
      </trkpt>
      <trkpt lat="49.76622" lon="2.29431">
        <ele>99.3</ele>
        <time>2023-07-12T09:07:53Z</time>
      </trkpt>
      <trkpt lat="49.7662" lon="2.29431">
        <ele>99.3</ele>
        <time>2023-07-12T09:07:54Z</time>
      </trkpt>
      <trkpt lat="49.76619" lon="2.2943">
        <ele>99.3</ele>
        <time>2023-07-12T09:07:56Z</time>
      </trkpt>
      <trkpt lat="49.76618" lon="2.2943">
        <ele>99.3</ele>
        <time>2023-07-12T09:07:57Z</time>
      </trkpt>
      <trkpt lat="49.76616" lon="2.2943">
        <ele>99.1</ele>
        <time>2023-07-12T09:07:58Z</time>
      </trkpt>
      <trkpt lat="49.76615" lon="2.29429">
        <ele>99.1</ele>
        <time>2023-07-12T09:07:59Z</time>
      </trkpt>
      <trkpt lat="49.76615" lon="2.29429">
        <ele>99.1</ele>
        <time>2023-07-12T09:08:00Z</time>
      </trkpt>
      <trkpt lat="49.76613" lon="2.29428">
        <ele>99.1</ele>
        <time>2023-07-12T09:08:01Z</time>
      </trkpt>
      <trkpt lat="49.76612" lon="2.29428">
        <ele>99.1</ele>
        <time>2023-07-12T09:08:02Z</time>
      </trkpt>
      <trkpt lat="49.76611" lon="2.29427">
        <ele>99.1</ele>
        <time>2023-07-12T09:08:03Z</time>
      </trkpt>
      <trkpt lat="49.76609" lon="2.29426">
        <ele>99.1</ele>
        <time>2023-07-12T09:08:05Z</time>
      </trkpt>
      <trkpt lat="49.76608" lon="2.29426">
        <ele>99.2</ele>
        <time>2023-07-12T09:08:06Z</time>
      </trkpt>
      <trkpt lat="49.76607" lon="2.29426">
        <ele>99.2</ele>
        <time>2023-07-12T09:08:07Z</time>
      </trkpt>
      <trkpt lat="49.76605" lon="2.29425">
        <ele>99</ele>
        <time>2023-07-12T09:08:08Z</time>
      </trkpt>
      <trkpt lat="49.76604" lon="2.29425">
        <ele>99</ele>
        <time>2023-07-12T09:08:09Z</time>
      </trkpt>
      <trkpt lat="49.76603" lon="2.29425">
        <ele>99.1</ele>
        <time>2023-07-12T09:08:10Z</time>
      </trkpt>
      <trkpt lat="49.76602" lon="2.29424">
        <ele>99.1</ele>
        <time>2023-07-12T09:08:11Z</time>
      </trkpt>
      <trkpt lat="49.76601" lon="2.29424">
        <ele>99.1</ele>
        <time>2023-07-12T09:08:13Z</time>
      </trkpt>
      <trkpt lat="49.766" lon="2.29424">
        <ele>99.1</ele>
        <time>2023-07-12T09:08:14Z</time>
      </trkpt>
      <trkpt lat="49.76598" lon="2.29423">
        <ele>99.2</ele>
        <time>2023-07-12T09:08:15Z</time>
      </trkpt>
      <trkpt lat="49.76597" lon="2.29423">
        <ele>99.2</ele>
        <time>2023-07-12T09:08:16Z</time>
      </trkpt>
      <trkpt lat="49.76596" lon="2.29423">
        <ele>99.2</ele>
        <time>2023-07-12T09:08:17Z</time>
      </trkpt>
      <trkpt lat="49.76595" lon="2.29423">
        <ele>99.2</ele>
        <time>2023-07-12T09:08:18Z</time>
      </trkpt>
      <trkpt lat="49.76594" lon="2.29423">
        <ele>99.2</ele>
        <time>2023-07-12T09:08:19Z</time>
      </trkpt>
      <trkpt lat="49.76593" lon="2.29423">
        <ele>99.3</ele>
        <time>2023-07-12T09:08:21Z</time>
      </trkpt>
      <trkpt lat="49.76591" lon="2.29422">
        <ele>99.5</ele>
        <time>2023-07-12T09:08:22Z</time>
      </trkpt>
      <trkpt lat="49.7659" lon="2.29422">
        <ele>99.5</ele>
        <time>2023-07-12T09:08:23Z</time>
      </trkpt>
      <trkpt lat="49.76589" lon="2.29422">
        <ele>99.5</ele>
        <time>2023-07-12T09:08:24Z</time>
      </trkpt>
      <trkpt lat="49.76588" lon="2.29422">
        <ele>99.6</ele>
        <time>2023-07-12T09:08:25Z</time>
      </trkpt>
      <trkpt lat="49.76587" lon="2.29422">
        <ele>99.6</ele>
        <time>2023-07-12T09:08:26Z</time>
      </trkpt>
      <trkpt lat="49.76586" lon="2.29422">
        <ele>99.6</ele>
        <time>2023-07-12T09:08:27Z</time>
      </trkpt>
      <trkpt lat="49.76585" lon="2.29422">
        <ele>99.8</ele>
        <time>2023-07-12T09:08:29Z</time>
      </trkpt>
      <trkpt lat="49.76583" lon="2.29421">
        <ele>99.7</ele>
        <time>2023-07-12T09:08:30Z</time>
      </trkpt>
      <trkpt lat="49.76583" lon="2.2942">
        <ele>99.9</ele>
        <time>2023-07-12T09:08:31Z</time>
      </trkpt>
      <trkpt lat="49.76582" lon="2.2942">
        <ele>99.9</ele>
        <time>2023-07-12T09:08:32Z</time>
      </trkpt>
      <trkpt lat="49.76581" lon="2.2942">
        <ele>99.9</ele>
        <time>2023-07-12T09:08:33Z</time>
      </trkpt>
      <trkpt lat="49.76579" lon="2.29419">
        <ele>100.2</ele>
        <time>2023-07-12T09:08:34Z</time>
      </trkpt>
      <trkpt lat="49.76578" lon="2.29419">
        <ele>100.2</ele>
        <time>2023-07-12T09:08:36Z</time>
      </trkpt>
      <trkpt lat="49.76576" lon="2.29418">
        <ele>100.4</ele>
        <time>2023-07-12T09:08:37Z</time>
      </trkpt>
      <trkpt lat="49.76575" lon="2.29417">
        <ele>100.4</ele>
        <time>2023-07-12T09:08:38Z</time>
      </trkpt>
      <trkpt lat="49.76575" lon="2.29417">
        <ele>100.4</ele>
        <time>2023-07-12T09:08:39Z</time>
      </trkpt>
      <trkpt lat="49.76574" lon="2.29416">
        <ele>100.5</ele>
        <time>2023-07-12T09:08:40Z</time>
      </trkpt>
      <trkpt lat="49.76573" lon="2.29416">
        <ele>100.5</ele>
        <time>2023-07-12T09:08:41Z</time>
      </trkpt>
      <trkpt lat="49.76572" lon="2.29415">
        <ele>100.8</ele>
        <time>2023-07-12T09:08:42Z</time>
      </trkpt>
      <trkpt lat="49.7657" lon="2.29415">
        <ele>100.8</ele>
        <time>2023-07-12T09:08:44Z</time>
      </trkpt>
      <trkpt lat="49.76569" lon="2.29414">
        <ele>100.8</ele>
        <time>2023-07-12T09:08:45Z</time>
      </trkpt>
      <trkpt lat="49.76568" lon="2.29414">
        <ele>101.1</ele>
        <time>2023-07-12T09:08:46Z</time>
      </trkpt>
      <trkpt lat="49.76567" lon="2.29413">
        <ele>101.1</ele>
        <time>2023-07-12T09:08:47Z</time>
      </trkpt>
      <trkpt lat="49.76566" lon="2.29413">
        <ele>101.1</ele>
        <time>2023-07-12T09:08:48Z</time>
      </trkpt>
      <trkpt lat="49.76565" lon="2.29412">
        <ele>101.2</ele>
        <time>2023-07-12T09:08:50Z</time>
      </trkpt>
      <trkpt lat="49.76564" lon="2.29411">
        <ele>101.2</ele>
        <time>2023-07-12T09:08:51Z</time>
      </trkpt>
      <trkpt lat="49.76563" lon="2.29411">
        <ele>101.5</ele>
        <time>2023-07-12T09:08:52Z</time>
      </trkpt>
      <trkpt lat="49.76562" lon="2.2941">
        <ele>101.5</ele>
        <time>2023-07-12T09:08:53Z</time>
      </trkpt>
      <trkpt lat="49.76561" lon="2.2941">
        <ele>101.5</ele>
        <time>2023-07-12T09:08:54Z</time>
      </trkpt>
      <trkpt lat="49.7656" lon="2.29409">
        <ele>101.8</ele>
        <time>2023-07-12T09:08:55Z</time>
      </trkpt>
      <trkpt lat="49.76559" lon="2.29408">
        <ele>101.6</ele>
        <time>2023-07-12T09:08:56Z</time>
      </trkpt>
      <trkpt lat="49.76557" lon="2.29407">
        <ele>101.9</ele>
        <time>2023-07-12T09:08:58Z</time>
      </trkpt>
      <trkpt lat="49.76556" lon="2.29406">
        <ele>101.9</ele>
        <time>2023-07-12T09:08:59Z</time>
      </trkpt>
      <trkpt lat="49.76555" lon="2.29406">
        <ele>101.9</ele>
        <time>2023-07-12T09:09:00Z</time>
      </trkpt>
      <trkpt lat="49.76553" lon="2.29405">
        <ele>102.3</ele>
        <time>2023-07-12T09:09:01Z</time>
      </trkpt>
      <trkpt lat="49.76552" lon="2.29404">
        <ele>102.3</ele>
        <time>2023-07-12T09:09:02Z</time>
      </trkpt>
      <trkpt lat="49.76552" lon="2.29404">
        <ele>102.4</ele>
        <time>2023-07-12T09:09:03Z</time>
      </trkpt>
      <trkpt lat="49.7655" lon="2.29403">
        <ele>102.4</ele>
        <time>2023-07-12T09:09:05Z</time>
      </trkpt>
      <trkpt lat="49.76549" lon="2.29403">
        <ele>102.7</ele>
        <time>2023-07-12T09:09:06Z</time>
      </trkpt>
      <trkpt lat="49.76547" lon="2.29402">
        <ele>102.7</ele>
        <time>2023-07-12T09:09:07Z</time>
      </trkpt>
      <trkpt lat="49.76546" lon="2.29401">
        <ele>103</ele>
        <time>2023-07-12T09:09:08Z</time>
      </trkpt>
      <trkpt lat="49.76545" lon="2.29401">
        <ele>103</ele>
        <time>2023-07-12T09:09:09Z</time>
      </trkpt>
      <trkpt lat="49.76543" lon="2.294">
        <ele>103.1</ele>
        <time>2023-07-12T09:09:10Z</time>
      </trkpt>
      <trkpt lat="49.76542" lon="2.29399">
        <ele>103.1</ele>
        <time>2023-07-12T09:09:12Z</time>
      </trkpt>
      <trkpt lat="49.76542" lon="2.29399">
        <ele>103.1</ele>
        <time>2023-07-12T09:09:13Z</time>
      </trkpt>
      <trkpt lat="49.7654" lon="2.29397">
        <ele>103.4</ele>
        <time>2023-07-12T09:09:14Z</time>
      </trkpt>
      <trkpt lat="49.76539" lon="2.29397">
        <ele>103.4</ele>
        <time>2023-07-12T09:09:15Z</time>
      </trkpt>
      <trkpt lat="49.76538" lon="2.29396">
        <ele>103.8</ele>
        <time>2023-07-12T09:09:16Z</time>
      </trkpt>
      <trkpt lat="49.76537" lon="2.29396">
        <ele>103.8</ele>
        <time>2023-07-12T09:09:17Z</time>
      </trkpt>
      <trkpt lat="49.76536" lon="2.29395">
        <ele>103.5</ele>
        <time>2023-07-12T09:09:19Z</time>
      </trkpt>
      <trkpt lat="49.76535" lon="2.29394">
        <ele>103.9</ele>
        <time>2023-07-12T09:09:20Z</time>
      </trkpt>
      <trkpt lat="49.76533" lon="2.29393">
        <ele>103.9</ele>
        <time>2023-07-12T09:09:21Z</time>
      </trkpt>
      <trkpt lat="49.76532" lon="2.29393">
        <ele>104.3</ele>
        <time>2023-07-12T09:09:22Z</time>
      </trkpt>
      <trkpt lat="49.76532" lon="2.29392">
        <ele>104.3</ele>
        <time>2023-07-12T09:09:23Z</time>
      </trkpt>
      <trkpt lat="49.76531" lon="2.29391">
        <ele>104</ele>
        <time>2023-07-12T09:09:24Z</time>
      </trkpt>
      <trkpt lat="49.7653" lon="2.2939">
        <ele>104.4</ele>
        <time>2023-07-12T09:09:26Z</time>
      </trkpt>
      <trkpt lat="49.76529" lon="2.29389">
        <ele>104.4</ele>
        <time>2023-07-12T09:09:27Z</time>
      </trkpt>
      <trkpt lat="49.76528" lon="2.29388">
        <ele>104.4</ele>
        <time>2023-07-12T09:09:28Z</time>
      </trkpt>
      <trkpt lat="49.76527" lon="2.29388">
        <ele>104.9</ele>
        <time>2023-07-12T09:09:29Z</time>
      </trkpt>
      <trkpt lat="49.76526" lon="2.29387">
        <ele>104.6</ele>
        <time>2023-07-12T09:09:30Z</time>
      </trkpt>
      <trkpt lat="49.76524" lon="2.29386">
        <ele>105</ele>
        <time>2023-07-12T09:09:31Z</time>
      </trkpt>
      <trkpt lat="49.76523" lon="2.29385">
        <ele>105</ele>
        <time>2023-07-12T09:09:32Z</time>
      </trkpt>
      <trkpt lat="49.76522" lon="2.29384">
        <ele>105</ele>
        <time>2023-07-12T09:09:34Z</time>
      </trkpt>
      <trkpt lat="49.76521" lon="2.29383">
        <ele>105.4</ele>
        <time>2023-07-12T09:09:35Z</time>
      </trkpt>
      <trkpt lat="49.76519" lon="2.29382">
        <ele>105.2</ele>
        <time>2023-07-12T09:09:36Z</time>
      </trkpt>
      <trkpt lat="49.76518" lon="2.29381">
        <ele>105.6</ele>
        <time>2023-07-12T09:09:38Z</time>
      </trkpt>
      <trkpt lat="49.76517" lon="2.2938">
        <ele>105.6</ele>
        <time>2023-07-12T09:09:39Z</time>
      </trkpt>
      <trkpt lat="49.76516" lon="2.29379">
        <ele>106</ele>
        <time>2023-07-12T09:09:40Z</time>
      </trkpt>
      <trkpt lat="49.76514" lon="2.29378">
        <ele>105.8</ele>
        <time>2023-07-12T09:09:41Z</time>
      </trkpt>
      <trkpt lat="49.76513" lon="2.29377">
        <ele>106.2</ele>
        <time>2023-07-12T09:09:42Z</time>
      </trkpt>
      <trkpt lat="49.76512" lon="2.29376">
        <ele>106.2</ele>
        <time>2023-07-12T09:09:43Z</time>
      </trkpt>
      <trkpt lat="49.76511" lon="2.29375">
        <ele>106.2</ele>
        <time>2023-07-12T09:09:44Z</time>
      </trkpt>
      <trkpt lat="49.76509" lon="2.29374">
        <ele>106.4</ele>
        <time>2023-07-12T09:09:45Z</time>
      </trkpt>
      <trkpt lat="49.76508" lon="2.29373">
        <ele>106.4</ele>
        <time>2023-07-12T09:09:47Z</time>
      </trkpt>
      <trkpt lat="49.76507" lon="2.29372">
        <ele>106.8</ele>
        <time>2023-07-12T09:09:48Z</time>
      </trkpt>
      <trkpt lat="49.76505" lon="2.29371">
        <ele>106.8</ele>
        <time>2023-07-12T09:09:49Z</time>
      </trkpt>
      <trkpt lat="49.76504" lon="2.2937">
        <ele>107.2</ele>
        <time>2023-07-12T09:09:50Z</time>
      </trkpt>
      <trkpt lat="49.76502" lon="2.29369">
        <ele>107</ele>
        <time>2023-07-12T09:09:51Z</time>
      </trkpt>
      <trkpt lat="49.76502" lon="2.29368">
        <ele>107.4</ele>
        <time>2023-07-12T09:09:52Z</time>
      </trkpt>
      <trkpt lat="49.76501" lon="2.29368">
        <ele>107.4</ele>
        <time>2023-07-12T09:09:53Z</time>
      </trkpt>
      <trkpt lat="49.765" lon="2.29367">
        <ele>107.4</ele>
        <time>2023-07-12T09:09:55Z</time>
      </trkpt>
      <trkpt lat="49.76499" lon="2.29366">
        <ele>107.8</ele>
        <time>2023-07-12T09:09:56Z</time>
      </trkpt>
      <trkpt lat="49.76498" lon="2.29366">
        <ele>107.8</ele>
        <time>2023-07-12T09:09:57Z</time>
      </trkpt>
      <trkpt lat="49.76496" lon="2.29364">
        <ele>108</ele>
        <time>2023-07-12T09:09:58Z</time>
      </trkpt>
      <trkpt lat="49.76495" lon="2.29364">
        <ele>108</ele>
        <time>2023-07-12T09:09:59Z</time>
      </trkpt>
      <trkpt lat="49.76494" lon="2.29363">
        <ele>108</ele>
        <time>2023-07-12T09:10:00Z</time>
      </trkpt>
      <trkpt lat="49.76492" lon="2.29361">
        <ele>108.1</ele>
        <time>2023-07-12T09:10:01Z</time>
      </trkpt>
      <trkpt lat="49.76492" lon="2.2936">
        <ele>108.1</ele>
        <time>2023-07-12T09:10:02Z</time>
      </trkpt>
      <trkpt lat="49.76491" lon="2.2936">
        <ele>108.4</ele>
        <time>2023-07-12T09:10:03Z</time>
      </trkpt>
      <trkpt lat="49.76489" lon="2.29358">
        <ele>108.4</ele>
        <time>2023-07-12T09:10:05Z</time>
      </trkpt>
      <trkpt lat="49.76489" lon="2.29357">
        <ele>108.4</ele>
        <time>2023-07-12T09:10:06Z</time>
      </trkpt>
      <trkpt lat="49.76488" lon="2.29356">
        <ele>108.4</ele>
        <time>2023-07-12T09:10:07Z</time>
      </trkpt>
      <trkpt lat="49.76486" lon="2.29355">
        <ele>108.4</ele>
        <time>2023-07-12T09:10:08Z</time>
      </trkpt>
      <trkpt lat="49.76485" lon="2.29354">
        <ele>108.7</ele>
        <time>2023-07-12T09:10:09Z</time>
      </trkpt>
      <trkpt lat="49.76485" lon="2.29353">
        <ele>108.7</ele>
        <time>2023-07-12T09:10:10Z</time>
      </trkpt>
      <trkpt lat="49.76483" lon="2.29351">
        <ele>108.7</ele>
        <time>2023-07-12T09:10:12Z</time>
      </trkpt>
      <trkpt lat="49.76482" lon="2.2935">
        <ele>108.7</ele>
        <time>2023-07-12T09:10:13Z</time>
      </trkpt>
      <trkpt lat="49.76482" lon="2.2935">
        <ele>108.7</ele>
        <time>2023-07-12T09:10:14Z</time>
      </trkpt>
      <trkpt lat="49.7648" lon="2.29348">
        <ele>108.7</ele>
        <time>2023-07-12T09:10:15Z</time>
      </trkpt>
      <trkpt lat="49.76479" lon="2.29347">
        <ele>108.7</ele>
        <time>2023-07-12T09:10:16Z</time>
      </trkpt>
      <trkpt lat="49.76478" lon="2.29346">
        <ele>108.7</ele>
        <time>2023-07-12T09:10:17Z</time>
      </trkpt>
      <trkpt lat="49.76478" lon="2.29345">
        <ele>108.7</ele>
        <time>2023-07-12T09:10:18Z</time>
      </trkpt>
      <trkpt lat="49.76477" lon="2.29344">
        <ele>108.7</ele>
        <time>2023-07-12T09:10:20Z</time>
      </trkpt>
      <trkpt lat="49.76476" lon="2.29342">
        <ele>108.7</ele>
        <time>2023-07-12T09:10:21Z</time>
      </trkpt>
      <trkpt lat="49.76475" lon="2.29341">
        <ele>108.7</ele>
        <time>2023-07-12T09:10:22Z</time>
      </trkpt>
      <trkpt lat="49.76474" lon="2.2934">
        <ele>109</ele>
        <time>2023-07-12T09:10:23Z</time>
      </trkpt>
      <trkpt lat="49.76473" lon="2.29339">
        <ele>108.6</ele>
        <time>2023-07-12T09:10:24Z</time>
      </trkpt>
      <trkpt lat="49.76472" lon="2.29337">
        <ele>108.6</ele>
        <time>2023-07-12T09:10:25Z</time>
      </trkpt>
      <trkpt lat="49.76471" lon="2.29336">
        <ele>108.9</ele>
        <time>2023-07-12T09:10:27Z</time>
      </trkpt>
      <trkpt lat="49.76471" lon="2.29336">
        <ele>108.9</ele>
        <time>2023-07-12T09:10:28Z</time>
      </trkpt>
      <trkpt lat="49.76469" lon="2.29334">
        <ele>108.8</ele>
        <time>2023-07-12T09:10:29Z</time>
      </trkpt>
      <trkpt lat="49.76468" lon="2.29333">
        <ele>108.8</ele>
        <time>2023-07-12T09:10:30Z</time>
      </trkpt>
      <trkpt lat="49.76467" lon="2.29332">
        <ele>108.8</ele>
        <time>2023-07-12T09:10:31Z</time>
      </trkpt>
      <trkpt lat="49.76466" lon="2.29332">
        <ele>108.8</ele>
        <time>2023-07-12T09:10:32Z</time>
      </trkpt>
      <trkpt lat="49.76466" lon="2.2933">
        <ele>108.7</ele>
        <time>2023-07-12T09:10:34Z</time>
      </trkpt>
      <trkpt lat="49.76465" lon="2.29329">
        <ele>108.7</ele>
        <time>2023-07-12T09:10:35Z</time>
      </trkpt>
      <trkpt lat="49.76464" lon="2.29328">
        <ele>108.7</ele>
        <time>2023-07-12T09:10:36Z</time>
      </trkpt>
      <trkpt lat="49.76463" lon="2.29327">
        <ele>108.9</ele>
        <time>2023-07-12T09:10:37Z</time>
      </trkpt>
      <trkpt lat="49.76462" lon="2.29326">
        <ele>108.6</ele>
        <time>2023-07-12T09:10:38Z</time>
      </trkpt>
      <trkpt lat="49.76461" lon="2.29325">
        <ele>108.6</ele>
        <time>2023-07-12T09:10:39Z</time>
      </trkpt>
      <trkpt lat="49.76461" lon="2.29324">
        <ele>108.8</ele>
        <time>2023-07-12T09:10:41Z</time>
      </trkpt>
      <trkpt lat="49.7646" lon="2.29323">
        <ele>108.8</ele>
        <time>2023-07-12T09:10:42Z</time>
      </trkpt>
      <trkpt lat="49.7646" lon="2.29322">
        <ele>108.5</ele>
        <time>2023-07-12T09:10:43Z</time>
      </trkpt>
      <trkpt lat="49.76459" lon="2.29321">
        <ele>108.5</ele>
        <time>2023-07-12T09:10:44Z</time>
      </trkpt>
      <trkpt lat="49.76458" lon="2.29319">
        <ele>108.5</ele>
        <time>2023-07-12T09:10:45Z</time>
      </trkpt>
      <trkpt lat="49.76457" lon="2.29318">
        <ele>108.4</ele>
        <time>2023-07-12T09:10:46Z</time>
      </trkpt>
      <trkpt lat="49.76457" lon="2.29317">
        <ele>108.4</ele>
        <time>2023-07-12T09:10:47Z</time>
      </trkpt>
      <trkpt lat="49.76456" lon="2.29316">
        <ele>108.5</ele>
        <time>2023-07-12T09:10:49Z</time>
      </trkpt>
      <trkpt lat="49.76456" lon="2.29315">
        <ele>108.5</ele>
        <time>2023-07-12T09:10:50Z</time>
      </trkpt>
      <trkpt lat="49.76455" lon="2.29314">
        <ele>108.7</ele>
        <time>2023-07-12T09:10:51Z</time>
      </trkpt>
      <trkpt lat="49.76454" lon="2.29313">
        <ele>108.4</ele>
        <time>2023-07-12T09:10:52Z</time>
      </trkpt>
      <trkpt lat="49.76452" lon="2.29311">
        <ele>108.6</ele>
        <time>2023-07-12T09:10:53Z</time>
      </trkpt>
      <trkpt lat="49.76451" lon="2.2931">
        <ele>108.6</ele>
        <time>2023-07-12T09:10:54Z</time>
      </trkpt>
      <trkpt lat="49.76451" lon="2.29309">
        <ele>108.4</ele>
        <time>2023-07-12T09:10:55Z</time>
      </trkpt>
      <trkpt lat="49.76449" lon="2.29308">
        <ele>108.6</ele>
        <time>2023-07-12T09:10:57Z</time>
      </trkpt>
      <trkpt lat="49.76448" lon="2.29307">
        <ele>108.6</ele>
        <time>2023-07-12T09:10:58Z</time>
      </trkpt>
      <trkpt lat="49.76447" lon="2.29305">
        <ele>108.3</ele>
        <time>2023-07-12T09:10:59Z</time>
      </trkpt>
      <trkpt lat="49.76446" lon="2.29304">
        <ele>108.4</ele>
        <time>2023-07-12T09:11:00Z</time>
      </trkpt>
      <trkpt lat="49.76445" lon="2.29302">
        <ele>108.4</ele>
        <time>2023-07-12T09:11:01Z</time>
      </trkpt>
      <trkpt lat="49.76444" lon="2.29301">
        <ele>108.2</ele>
        <time>2023-07-12T09:11:02Z</time>
      </trkpt>
      <trkpt lat="49.76442" lon="2.29299">
        <ele>108.2</ele>
        <time>2023-07-12T09:11:03Z</time>
      </trkpt>
      <trkpt lat="49.76441" lon="2.29298">
        <ele>108.2</ele>
        <time>2023-07-12T09:11:05Z</time>
      </trkpt>
      <trkpt lat="49.76441" lon="2.29297">
        <ele>108.3</ele>
        <time>2023-07-12T09:11:06Z</time>
      </trkpt>
      <trkpt lat="49.76439" lon="2.29295">
        <ele>108</ele>
        <time>2023-07-12T09:11:07Z</time>
      </trkpt>
      <trkpt lat="49.76438" lon="2.29294">
        <ele>108</ele>
        <time>2023-07-12T09:11:08Z</time>
      </trkpt>
      <trkpt lat="49.76437" lon="2.29293">
        <ele>108</ele>
        <time>2023-07-12T09:11:09Z</time>
      </trkpt>
      <trkpt lat="49.76436" lon="2.29292">
        <ele>107.8</ele>
        <time>2023-07-12T09:11:10Z</time>
      </trkpt>
      <trkpt lat="49.76434" lon="2.2929">
        <ele>107.8</ele>
        <time>2023-07-12T09:11:12Z</time>
      </trkpt>
      <trkpt lat="49.76433" lon="2.29289">
        <ele>107.8</ele>
        <time>2023-07-12T09:11:13Z</time>
      </trkpt>
      <trkpt lat="49.76432" lon="2.29288">
        <ele>107.5</ele>
        <time>2023-07-12T09:11:14Z</time>
      </trkpt>
      <trkpt lat="49.76431" lon="2.29286">
        <ele>107.5</ele>
        <time>2023-07-12T09:11:15Z</time>
      </trkpt>
      <trkpt lat="49.7643" lon="2.29285">
        <ele>107.6</ele>
        <time>2023-07-12T09:11:16Z</time>
      </trkpt>
      <trkpt lat="49.76429" lon="2.29284">
        <ele>107.4</ele>
        <time>2023-07-12T09:11:17Z</time>
      </trkpt>
      <trkpt lat="49.76429" lon="2.29283">
        <ele>107.4</ele>
        <time>2023-07-12T09:11:19Z</time>
      </trkpt>
      <trkpt lat="49.76428" lon="2.29282">
        <ele>107.4</ele>
        <time>2023-07-12T09:11:20Z</time>
      </trkpt>
      <trkpt lat="49.76427" lon="2.2928">
        <ele>107.4</ele>
        <time>2023-07-12T09:11:21Z</time>
      </trkpt>
      <trkpt lat="49.76427" lon="2.29279">
        <ele>107.2</ele>
        <time>2023-07-12T09:11:22Z</time>
      </trkpt>
      <trkpt lat="49.76426" lon="2.29278">
        <ele>107.2</ele>
        <time>2023-07-12T09:11:23Z</time>
      </trkpt>
      <trkpt lat="49.76425" lon="2.29277">
        <ele>107.2</ele>
        <time>2023-07-12T09:11:24Z</time>
      </trkpt>
      <trkpt lat="49.76425" lon="2.29275">
        <ele>107.3</ele>
        <time>2023-07-12T09:11:26Z</time>
      </trkpt>
      <trkpt lat="49.76424" lon="2.29274">
        <ele>107.1</ele>
        <time>2023-07-12T09:11:27Z</time>
      </trkpt>
      <trkpt lat="49.76423" lon="2.29273">
        <ele>107.1</ele>
        <time>2023-07-12T09:11:28Z</time>
      </trkpt>
      <trkpt lat="49.76422" lon="2.29272">
        <ele>107.1</ele>
        <time>2023-07-12T09:11:29Z</time>
      </trkpt>
      <trkpt lat="49.76421" lon="2.29271">
        <ele>107</ele>
        <time>2023-07-12T09:11:30Z</time>
      </trkpt>
      <trkpt lat="49.7642" lon="2.29269">
        <ele>107</ele>
        <time>2023-07-12T09:11:32Z</time>
      </trkpt>
      <trkpt lat="49.7642" lon="2.29268">
        <ele>107</ele>
        <time>2023-07-12T09:11:33Z</time>
      </trkpt>
      <trkpt lat="49.76419" lon="2.29267">
        <ele>107.1</ele>
        <time>2023-07-12T09:11:34Z</time>
      </trkpt>
      <trkpt lat="49.76418" lon="2.29266">
        <ele>106.9</ele>
        <time>2023-07-12T09:11:35Z</time>
      </trkpt>
      <trkpt lat="49.76417" lon="2.29265">
        <ele>106.9</ele>
        <time>2023-07-12T09:11:36Z</time>
      </trkpt>
      <trkpt lat="49.76416" lon="2.29265">
        <ele>107</ele>
        <time>2023-07-12T09:11:38Z</time>
      </trkpt>
      <trkpt lat="49.76415" lon="2.29263">
        <ele>107</ele>
        <time>2023-07-12T09:11:39Z</time>
      </trkpt>
      <trkpt lat="49.76413" lon="2.29262">
        <ele>106.9</ele>
        <time>2023-07-12T09:11:40Z</time>
      </trkpt>
      <trkpt lat="49.76412" lon="2.29261">
        <ele>106.9</ele>
        <time>2023-07-12T09:11:42Z</time>
      </trkpt>
      <trkpt lat="49.76412" lon="2.29261">
        <ele>106.9</ele>
        <time>2023-07-12T09:11:43Z</time>
      </trkpt>
      <trkpt lat="49.76411" lon="2.2926">
        <ele>107</ele>
        <time>2023-07-12T09:11:44Z</time>
      </trkpt>
      <trkpt lat="49.7641" lon="2.29259">
        <ele>107</ele>
        <time>2023-07-12T09:11:45Z</time>
      </trkpt>
      <trkpt lat="49.76408" lon="2.29259">
        <ele>107</ele>
        <time>2023-07-12T09:11:46Z</time>
      </trkpt>
      <trkpt lat="49.76407" lon="2.29258">
        <ele>106.9</ele>
        <time>2023-07-12T09:11:48Z</time>
      </trkpt>
      <trkpt lat="49.76407" lon="2.29257">
        <ele>106.9</ele>
        <time>2023-07-12T09:11:49Z</time>
      </trkpt>
      <trkpt lat="49.76406" lon="2.29256">
        <ele>106.9</ele>
        <time>2023-07-12T09:11:50Z</time>
      </trkpt>
      <trkpt lat="49.76405" lon="2.29256">
        <ele>107</ele>
        <time>2023-07-12T09:11:51Z</time>
      </trkpt>
      <trkpt lat="49.76404" lon="2.29255">
        <ele>107</ele>
        <time>2023-07-12T09:11:52Z</time>
      </trkpt>
      <trkpt lat="49.76403" lon="2.29254">
        <ele>107</ele>
        <time>2023-07-12T09:11:53Z</time>
      </trkpt>
      <trkpt lat="49.76402" lon="2.29253">
        <ele>106.9</ele>
        <time>2023-07-12T09:11:55Z</time>
      </trkpt>
      <trkpt lat="49.76401" lon="2.29252">
        <ele>107</ele>
        <time>2023-07-12T09:11:56Z</time>
      </trkpt>
      <trkpt lat="49.764" lon="2.29251">
        <ele>107</ele>
        <time>2023-07-12T09:11:57Z</time>
      </trkpt>
      <trkpt lat="49.76399" lon="2.29251">
        <ele>107.1</ele>
        <time>2023-07-12T09:11:58Z</time>
      </trkpt>
      <trkpt lat="49.76398" lon="2.2925">
        <ele>107.1</ele>
        <time>2023-07-12T09:12:00Z</time>
      </trkpt>
      <trkpt lat="49.76396" lon="2.29249">
        <ele>107.1</ele>
        <time>2023-07-12T09:12:01Z</time>
      </trkpt>
      <trkpt lat="49.76395" lon="2.29248">
        <ele>107.1</ele>
        <time>2023-07-12T09:12:03Z</time>
      </trkpt>
      <trkpt lat="49.76395" lon="2.29247">
        <ele>107.1</ele>
        <time>2023-07-12T09:12:04Z</time>
      </trkpt>
      <trkpt lat="49.76394" lon="2.29246">
        <ele>107.2</ele>
        <time>2023-07-12T09:12:05Z</time>
      </trkpt>
      <trkpt lat="49.76393" lon="2.29245">
        <ele>107.1</ele>
        <time>2023-07-12T09:12:06Z</time>
      </trkpt>
      <trkpt lat="49.76392" lon="2.29244">
        <ele>107.1</ele>
        <time>2023-07-12T09:12:08Z</time>
      </trkpt>
      <trkpt lat="49.76391" lon="2.29243">
        <ele>107.3</ele>
        <time>2023-07-12T09:12:09Z</time>
      </trkpt>
      <trkpt lat="49.7639" lon="2.29242">
        <ele>107.3</ele>
        <time>2023-07-12T09:12:10Z</time>
      </trkpt>
      <trkpt lat="49.76389" lon="2.29242">
        <ele>107.3</ele>
        <time>2023-07-12T09:12:11Z</time>
      </trkpt>
      <trkpt lat="49.76388" lon="2.29241">
        <ele>107.4</ele>
        <time>2023-07-12T09:12:12Z</time>
      </trkpt>
      <trkpt lat="49.76387" lon="2.29241">
        <ele>107.3</ele>
        <time>2023-07-12T09:12:13Z</time>
      </trkpt>
      <trkpt lat="49.76386" lon="2.2924">
        <ele>107.3</ele>
        <time>2023-07-12T09:12:15Z</time>
      </trkpt>
      <trkpt lat="49.76385" lon="2.2924">
        <ele>107.4</ele>
        <time>2023-07-12T09:12:16Z</time>
      </trkpt>
      <trkpt lat="49.76384" lon="2.29239">
        <ele>107.4</ele>
        <time>2023-07-12T09:12:17Z</time>
      </trkpt>
      <trkpt lat="49.76384" lon="2.29238">
        <ele>107.4</ele>
        <time>2023-07-12T09:12:18Z</time>
      </trkpt>
      <trkpt lat="49.76383" lon="2.29238">
        <ele>107.6</ele>
        <time>2023-07-12T09:12:19Z</time>
      </trkpt>
      <trkpt lat="49.76382" lon="2.29237">
        <ele>107.6</ele>
        <time>2023-07-12T09:12:21Z</time>
      </trkpt>
      <trkpt lat="49.76381" lon="2.29236">
        <ele>107.4</ele>
        <time>2023-07-12T09:12:22Z</time>
      </trkpt>
      <trkpt lat="49.7638" lon="2.29235">
        <ele>107.4</ele>
        <time>2023-07-12T09:12:23Z</time>
      </trkpt>
      <trkpt lat="49.7638" lon="2.29234">
        <ele>107.6</ele>
        <time>2023-07-12T09:12:24Z</time>
      </trkpt>
      <trkpt lat="49.76379" lon="2.29233">
        <ele>107.6</ele>
        <time>2023-07-12T09:12:25Z</time>
      </trkpt>
      <trkpt lat="49.76378" lon="2.29233">
        <ele>107.6</ele>
        <time>2023-07-12T09:12:27Z</time>
      </trkpt>
      <trkpt lat="49.76377" lon="2.29232">
        <ele>107.6</ele>
        <time>2023-07-12T09:12:28Z</time>
      </trkpt>
      <trkpt lat="49.76377" lon="2.29232">
        <ele>107.6</ele>
        <time>2023-07-12T09:12:29Z</time>
      </trkpt>
      <trkpt lat="49.76375" lon="2.29231">
        <ele>107.6</ele>
        <time>2023-07-12T09:12:30Z</time>
      </trkpt>
      <trkpt lat="49.76374" lon="2.2923">
        <ele>107.7</ele>
        <time>2023-07-12T09:12:31Z</time>
      </trkpt>
      <trkpt lat="49.76373" lon="2.2923">
        <ele>107.7</ele>
        <time>2023-07-12T09:12:32Z</time>
      </trkpt>
      <trkpt lat="49.76372" lon="2.29229">
        <ele>107.7</ele>
        <time>2023-07-12T09:12:34Z</time>
      </trkpt>
      <trkpt lat="49.76371" lon="2.29229">
        <ele>107.8</ele>
        <time>2023-07-12T09:12:35Z</time>
      </trkpt>
      <trkpt lat="49.7637" lon="2.29228">
        <ele>107.7</ele>
        <time>2023-07-12T09:12:36Z</time>
      </trkpt>
      <trkpt lat="49.76369" lon="2.29227">
        <ele>107.9</ele>
        <time>2023-07-12T09:12:37Z</time>
      </trkpt>
      <trkpt lat="49.76367" lon="2.29226">
        <ele>107.9</ele>
        <time>2023-07-12T09:12:39Z</time>
      </trkpt>
      <trkpt lat="49.76366" lon="2.29226">
        <ele>108</ele>
        <time>2023-07-12T09:12:40Z</time>
      </trkpt>
      <trkpt lat="49.76365" lon="2.29225">
        <ele>108.1</ele>
        <time>2023-07-12T09:12:41Z</time>
      </trkpt>
      <trkpt lat="49.76364" lon="2.29225">
        <ele>108.1</ele>
        <time>2023-07-12T09:12:42Z</time>
      </trkpt>
      <trkpt lat="49.76363" lon="2.29224">
        <ele>108.2</ele>
        <time>2023-07-12T09:12:43Z</time>
      </trkpt>
      <trkpt lat="49.76361" lon="2.29223">
        <ele>108.2</ele>
        <time>2023-07-12T09:12:45Z</time>
      </trkpt>
      <trkpt lat="49.7636" lon="2.29223">
        <ele>108.4</ele>
        <time>2023-07-12T09:12:46Z</time>
      </trkpt>
      <trkpt lat="49.76359" lon="2.29222">
        <ele>108.4</ele>
        <time>2023-07-12T09:12:48Z</time>
      </trkpt>
      <trkpt lat="49.76357" lon="2.29221">
        <ele>108.6</ele>
        <time>2023-07-12T09:12:49Z</time>
      </trkpt>
      <trkpt lat="49.76356" lon="2.2922">
        <ele>108.6</ele>
        <time>2023-07-12T09:12:50Z</time>
      </trkpt>
      <trkpt lat="49.76355" lon="2.29219">
        <ele>108.7</ele>
        <time>2023-07-12T09:12:51Z</time>
      </trkpt>
      <trkpt lat="49.76354" lon="2.29218">
        <ele>108.7</ele>
        <time>2023-07-12T09:12:52Z</time>
      </trkpt>
      <trkpt lat="49.76352" lon="2.29216">
        <ele>108.9</ele>
        <time>2023-07-12T09:12:54Z</time>
      </trkpt>
      <trkpt lat="49.76351" lon="2.29215">
        <ele>108.9</ele>
        <time>2023-07-12T09:12:55Z</time>
      </trkpt>
      <trkpt lat="49.7635" lon="2.29214">
        <ele>108.9</ele>
        <time>2023-07-12T09:12:56Z</time>
      </trkpt>
      <trkpt lat="49.76349" lon="2.29213">
        <ele>109.1</ele>
        <time>2023-07-12T09:12:57Z</time>
      </trkpt>
      <trkpt lat="49.76348" lon="2.29211">
        <ele>109.1</ele>
        <time>2023-07-12T09:12:58Z</time>
      </trkpt>
      <trkpt lat="49.76347" lon="2.2921">
        <ele>109.2</ele>
        <time>2023-07-12T09:12:59Z</time>
      </trkpt>
      <trkpt lat="49.76346" lon="2.29209">
        <ele>109.2</ele>
        <time>2023-07-12T09:13:00Z</time>
      </trkpt>
      <trkpt lat="49.76344" lon="2.29207">
        <ele>109.2</ele>
        <time>2023-07-12T09:13:02Z</time>
      </trkpt>
      <trkpt lat="49.76343" lon="2.29206">
        <ele>109.4</ele>
        <time>2023-07-12T09:13:03Z</time>
      </trkpt>
      <trkpt lat="49.76342" lon="2.29204">
        <ele>109.7</ele>
        <time>2023-07-12T09:13:04Z</time>
      </trkpt>
      <trkpt lat="49.76341" lon="2.29203">
        <ele>109.7</ele>
        <time>2023-07-12T09:13:05Z</time>
      </trkpt>
      <trkpt lat="49.7634" lon="2.29203">
        <ele>109.7</ele>
        <time>2023-07-12T09:13:06Z</time>
      </trkpt>
      <trkpt lat="49.76338" lon="2.29201">
        <ele>109.9</ele>
        <time>2023-07-12T09:13:07Z</time>
      </trkpt>
      <trkpt lat="49.76338" lon="2.29201">
        <ele>109.9</ele>
        <time>2023-07-12T09:13:08Z</time>
      </trkpt>
      <trkpt lat="49.76337" lon="2.292">
        <ele>109.9</ele>
        <time>2023-07-12T09:13:09Z</time>
      </trkpt>
      <trkpt lat="49.76336" lon="2.29199">
        <ele>110.2</ele>
        <time>2023-07-12T09:13:11Z</time>
      </trkpt>
      <trkpt lat="49.76335" lon="2.29198">
        <ele>110.2</ele>
        <time>2023-07-12T09:13:12Z</time>
      </trkpt>
      <trkpt lat="49.76334" lon="2.29198">
        <ele>110.1</ele>
        <time>2023-07-12T09:13:13Z</time>
      </trkpt>
      <trkpt lat="49.76332" lon="2.29196">
        <ele>110.4</ele>
        <time>2023-07-12T09:13:14Z</time>
      </trkpt>
      <trkpt lat="49.76331" lon="2.29196">
        <ele>110.4</ele>
        <time>2023-07-12T09:13:15Z</time>
      </trkpt>
      <trkpt lat="49.7633" lon="2.29195">
        <ele>110.7</ele>
        <time>2023-07-12T09:13:16Z</time>
      </trkpt>
      <trkpt lat="49.76328" lon="2.29194">
        <ele>110.7</ele>
        <time>2023-07-12T09:13:17Z</time>
      </trkpt>
      <trkpt lat="49.76328" lon="2.29193">
        <ele>111</ele>
        <time>2023-07-12T09:13:19Z</time>
      </trkpt>
      <trkpt lat="49.76327" lon="2.29193">
        <ele>111</ele>
        <time>2023-07-12T09:13:20Z</time>
      </trkpt>
      <trkpt lat="49.76325" lon="2.29191">
        <ele>111.2</ele>
        <time>2023-07-12T09:13:21Z</time>
      </trkpt>
      <trkpt lat="49.76324" lon="2.2919">
        <ele>111.2</ele>
        <time>2023-07-12T09:13:22Z</time>
      </trkpt>
      <trkpt lat="49.76323" lon="2.29189">
        <ele>111.2</ele>
        <time>2023-07-12T09:13:23Z</time>
      </trkpt>
      <trkpt lat="49.76322" lon="2.29188">
        <ele>111.2</ele>
        <time>2023-07-12T09:13:24Z</time>
      </trkpt>
      <trkpt lat="49.76321" lon="2.29187">
        <ele>111.4</ele>
        <time>2023-07-12T09:13:25Z</time>
      </trkpt>
      <trkpt lat="49.7632" lon="2.29186">
        <ele>111.4</ele>
        <time>2023-07-12T09:13:27Z</time>
      </trkpt>
      <trkpt lat="49.76319" lon="2.29186">
        <ele>111.7</ele>
        <time>2023-07-12T09:13:28Z</time>
      </trkpt>
      <trkpt lat="49.76318" lon="2.29185">
        <ele>111.6</ele>
        <time>2023-07-12T09:13:29Z</time>
      </trkpt>
      <trkpt lat="49.76317" lon="2.29184">
        <ele>111.6</ele>
        <time>2023-07-12T09:13:30Z</time>
      </trkpt>
      <trkpt lat="49.76316" lon="2.29183">
        <ele>111.5</ele>
        <time>2023-07-12T09:13:31Z</time>
      </trkpt>
      <trkpt lat="49.76315" lon="2.29182">
        <ele>111.5</ele>
        <time>2023-07-12T09:13:32Z</time>
      </trkpt>
      <trkpt lat="49.76314" lon="2.29181">
        <ele>111.4</ele>
        <time>2023-07-12T09:13:33Z</time>
      </trkpt>
      <trkpt lat="49.76313" lon="2.2918">
        <ele>111.4</ele>
        <time>2023-07-12T09:13:34Z</time>
      </trkpt>
      <trkpt lat="49.76312" lon="2.29179">
        <ele>111.3</ele>
        <time>2023-07-12T09:13:35Z</time>
      </trkpt>
      <trkpt lat="49.76312" lon="2.29179">
        <ele>111.3</ele>
        <time>2023-07-12T09:13:37Z</time>
      </trkpt>
      <trkpt lat="49.76311" lon="2.29178">
        <ele>111.2</ele>
        <time>2023-07-12T09:13:38Z</time>
      </trkpt>
      <trkpt lat="49.7631" lon="2.29178">
        <ele>111.2</ele>
        <time>2023-07-12T09:13:39Z</time>
      </trkpt>
      <trkpt lat="49.76309" lon="2.29177">
        <ele>111.2</ele>
        <time>2023-07-12T09:13:40Z</time>
      </trkpt>
      <trkpt lat="49.76309" lon="2.29176">
        <ele>111.1</ele>
        <time>2023-07-12T09:13:41Z</time>
      </trkpt>
      <trkpt lat="49.76308" lon="2.29175">
        <ele>111.1</ele>
        <time>2023-07-12T09:13:42Z</time>
      </trkpt>
      <trkpt lat="49.76308" lon="2.29174">
        <ele>111.1</ele>
        <time>2023-07-12T09:13:43Z</time>
      </trkpt>
      <trkpt lat="49.76307" lon="2.29173">
        <ele>111</ele>
        <time>2023-07-12T09:13:44Z</time>
      </trkpt>
      <trkpt lat="49.76307" lon="2.29173">
        <ele>111</ele>
        <time>2023-07-12T09:13:46Z</time>
      </trkpt>
      <trkpt lat="49.76307" lon="2.29172">
        <ele>111</ele>
        <time>2023-07-12T09:13:47Z</time>
      </trkpt>
      <trkpt lat="49.76306" lon="2.29172">
        <ele>111</ele>
        <time>2023-07-12T09:13:48Z</time>
      </trkpt>
      <trkpt lat="49.76305" lon="2.29171">
        <ele>110.9</ele>
        <time>2023-07-12T09:13:49Z</time>
      </trkpt>
      <trkpt lat="49.76305" lon="2.29169">
        <ele>110.9</ele>
        <time>2023-07-12T09:13:50Z</time>
      </trkpt>
      <trkpt lat="49.76304" lon="2.29168">
        <ele>110.8</ele>
        <time>2023-07-12T09:13:51Z</time>
      </trkpt>
      <trkpt lat="49.76303" lon="2.29167">
        <ele>110.8</ele>
        <time>2023-07-12T09:13:52Z</time>
      </trkpt>
      <trkpt lat="49.76302" lon="2.29166">
        <ele>110.8</ele>
        <time>2023-07-12T09:13:54Z</time>
      </trkpt>
      <trkpt lat="49.76302" lon="2.29165">
        <ele>110.7</ele>
        <time>2023-07-12T09:13:55Z</time>
      </trkpt>
      <trkpt lat="49.76301" lon="2.29164">
        <ele>110.7</ele>
        <time>2023-07-12T09:13:56Z</time>
      </trkpt>
      <trkpt lat="49.763" lon="2.29163">
        <ele>110.6</ele>
        <time>2023-07-12T09:13:57Z</time>
      </trkpt>
      <trkpt lat="49.76299" lon="2.2916">
        <ele>110.6</ele>
        <time>2023-07-12T09:13:58Z</time>
      </trkpt>
      <trkpt lat="49.76298" lon="2.29159">
        <ele>110.5</ele>
        <time>2023-07-12T09:13:59Z</time>
      </trkpt>
      <trkpt lat="49.76298" lon="2.29158">
        <ele>110.5</ele>
        <time>2023-07-12T09:14:00Z</time>
      </trkpt>
      <trkpt lat="49.76296" lon="2.29157">
        <ele>110.4</ele>
        <time>2023-07-12T09:14:01Z</time>
      </trkpt>
      <trkpt lat="49.76295" lon="2.29155">
        <ele>110.4</ele>
        <time>2023-07-12T09:14:02Z</time>
      </trkpt>
      <trkpt lat="49.76294" lon="2.29153">
        <ele>110.3</ele>
        <time>2023-07-12T09:14:04Z</time>
      </trkpt>
      <trkpt lat="49.76293" lon="2.29152">
        <ele>110.2</ele>
        <time>2023-07-12T09:14:05Z</time>
      </trkpt>
      <trkpt lat="49.76293" lon="2.29151">
        <ele>110.2</ele>
        <time>2023-07-12T09:14:06Z</time>
      </trkpt>
      <trkpt lat="49.76291" lon="2.2915">
        <ele>110.1</ele>
        <time>2023-07-12T09:14:07Z</time>
      </trkpt>
      <trkpt lat="49.7629" lon="2.29148">
        <ele>110</ele>
        <time>2023-07-12T09:14:08Z</time>
      </trkpt>
      <trkpt lat="49.76289" lon="2.29147">
        <ele>110</ele>
        <time>2023-07-12T09:14:09Z</time>
      </trkpt>
      <trkpt lat="49.76288" lon="2.29145">
        <ele>109.9</ele>
        <time>2023-07-12T09:14:10Z</time>
      </trkpt>
      <trkpt lat="49.76287" lon="2.29142">
        <ele>109.8</ele>
        <time>2023-07-12T09:14:11Z</time>
      </trkpt>
      <trkpt lat="49.76286" lon="2.29141">
        <ele>109.7</ele>
        <time>2023-07-12T09:14:13Z</time>
      </trkpt>
      <trkpt lat="49.76285" lon="2.2914">
        <ele>109.6</ele>
        <time>2023-07-12T09:14:14Z</time>
      </trkpt>
      <trkpt lat="49.76284" lon="2.29139">
        <ele>109.6</ele>
        <time>2023-07-12T09:14:15Z</time>
      </trkpt>
      <trkpt lat="49.76283" lon="2.29137">
        <ele>109.5</ele>
        <time>2023-07-12T09:14:17Z</time>
      </trkpt>
      <trkpt lat="49.76282" lon="2.29136">
        <ele>109.4</ele>
        <time>2023-07-12T09:14:18Z</time>
      </trkpt>
      <trkpt lat="49.7628" lon="2.29134">
        <ele>109.3</ele>
        <time>2023-07-12T09:14:19Z</time>
      </trkpt>
      <trkpt lat="49.76279" lon="2.29133">
        <ele>109.2</ele>
        <time>2023-07-12T09:14:20Z</time>
      </trkpt>
      <trkpt lat="49.76278" lon="2.29131">
        <ele>109.1</ele>
        <time>2023-07-12T09:14:21Z</time>
      </trkpt>
      <trkpt lat="49.76277" lon="2.2913">
        <ele>109</ele>
        <time>2023-07-12T09:14:22Z</time>
      </trkpt>
      <trkpt lat="49.76276" lon="2.29128">
        <ele>109</ele>
        <time>2023-07-12T09:14:23Z</time>
      </trkpt>
      <trkpt lat="49.76275" lon="2.29126">
        <ele>108.9</ele>
        <time>2023-07-12T09:14:24Z</time>
      </trkpt>
      <trkpt lat="49.76274" lon="2.29125">
        <ele>108.8</ele>
        <time>2023-07-12T09:14:26Z</time>
      </trkpt>
      <trkpt lat="49.76273" lon="2.29123">
        <ele>108.7</ele>
        <time>2023-07-12T09:14:27Z</time>
      </trkpt>
      <trkpt lat="49.76273" lon="2.29121">
        <ele>108.7</ele>
        <time>2023-07-12T09:14:28Z</time>
      </trkpt>
      <trkpt lat="49.76272" lon="2.29119">
        <ele>108.6</ele>
        <time>2023-07-12T09:14:29Z</time>
      </trkpt>
      <trkpt lat="49.76271" lon="2.29117">
        <ele>108.5</ele>
        <time>2023-07-12T09:14:30Z</time>
      </trkpt>
      <trkpt lat="49.7627" lon="2.29116">
        <ele>108.4</ele>
        <time>2023-07-12T09:14:31Z</time>
      </trkpt>
      <trkpt lat="49.76269" lon="2.29114">
        <ele>108.4</ele>
        <time>2023-07-12T09:14:32Z</time>
      </trkpt>
      <trkpt lat="49.76268" lon="2.29112">
        <ele>108.3</ele>
        <time>2023-07-12T09:14:34Z</time>
      </trkpt>
      <trkpt lat="49.76267" lon="2.29111">
        <ele>108.2</ele>
        <time>2023-07-12T09:14:35Z</time>
      </trkpt>
      <trkpt lat="49.76267" lon="2.29109">
        <ele>108.2</ele>
        <time>2023-07-12T09:14:36Z</time>
      </trkpt>
      <trkpt lat="49.76266" lon="2.29107">
        <ele>108.1</ele>
        <time>2023-07-12T09:14:37Z</time>
      </trkpt>
      <trkpt lat="49.76265" lon="2.29105">
        <ele>108</ele>
        <time>2023-07-12T09:14:38Z</time>
      </trkpt>
      <trkpt lat="49.76264" lon="2.29104">
        <ele>108</ele>
        <time>2023-07-12T09:14:39Z</time>
      </trkpt>
      <trkpt lat="49.76263" lon="2.29102">
        <ele>107.9</ele>
        <time>2023-07-12T09:14:40Z</time>
      </trkpt>
      <trkpt lat="49.76262" lon="2.29101">
        <ele>107.8</ele>
        <time>2023-07-12T09:14:41Z</time>
      </trkpt>
      <trkpt lat="49.76261" lon="2.29099">
        <ele>107.8</ele>
        <time>2023-07-12T09:14:43Z</time>
      </trkpt>
      <trkpt lat="49.76261" lon="2.29098">
        <ele>107.7</ele>
        <time>2023-07-12T09:14:44Z</time>
      </trkpt>
      <trkpt lat="49.7626" lon="2.29096">
        <ele>107.6</ele>
        <time>2023-07-12T09:14:45Z</time>
      </trkpt>
      <trkpt lat="49.76258" lon="2.29093">
        <ele>107.5</ele>
        <time>2023-07-12T09:14:46Z</time>
      </trkpt>
      <trkpt lat="49.76258" lon="2.29092">
        <ele>107.5</ele>
        <time>2023-07-12T09:14:47Z</time>
      </trkpt>
      <trkpt lat="49.76257" lon="2.29091">
        <ele>107.4</ele>
        <time>2023-07-12T09:14:48Z</time>
      </trkpt>
      <trkpt lat="49.76257" lon="2.2909">
        <ele>107.4</ele>
        <time>2023-07-12T09:14:49Z</time>
      </trkpt>
      <trkpt lat="49.76256" lon="2.29088">
        <ele>107.3</ele>
        <time>2023-07-12T09:14:51Z</time>
      </trkpt>
      <trkpt lat="49.76256" lon="2.29086">
        <ele>107.3</ele>
        <time>2023-07-12T09:14:52Z</time>
      </trkpt>
      <trkpt lat="49.76255" lon="2.29084">
        <ele>107.2</ele>
        <time>2023-07-12T09:14:53Z</time>
      </trkpt>
      <trkpt lat="49.76255" lon="2.29082">
        <ele>107.1</ele>
        <time>2023-07-12T09:14:54Z</time>
      </trkpt>
      <trkpt lat="49.76254" lon="2.2908">
        <ele>107.1</ele>
        <time>2023-07-12T09:14:55Z</time>
      </trkpt>
      <trkpt lat="49.76254" lon="2.29079">
        <ele>107</ele>
        <time>2023-07-12T09:14:56Z</time>
      </trkpt>
      <trkpt lat="49.76253" lon="2.29077">
        <ele>107</ele>
        <time>2023-07-12T09:14:57Z</time>
      </trkpt>
      <trkpt lat="49.76252" lon="2.29075">
        <ele>106.9</ele>
        <time>2023-07-12T09:14:58Z</time>
      </trkpt>
      <trkpt lat="49.76252" lon="2.29073">
        <ele>106.8</ele>
        <time>2023-07-12T09:15:00Z</time>
      </trkpt>
      <trkpt lat="49.76251" lon="2.29071">
        <ele>106.8</ele>
        <time>2023-07-12T09:15:01Z</time>
      </trkpt>
      <trkpt lat="49.76251" lon="2.29069">
        <ele>106.7</ele>
        <time>2023-07-12T09:15:02Z</time>
      </trkpt>
      <trkpt lat="49.7625" lon="2.29067">
        <ele>106.7</ele>
        <time>2023-07-12T09:15:03Z</time>
      </trkpt>
      <trkpt lat="49.7625" lon="2.29065">
        <ele>106.6</ele>
        <time>2023-07-12T09:15:04Z</time>
      </trkpt>
      <trkpt lat="49.76249" lon="2.29062">
        <ele>106.5</ele>
        <time>2023-07-12T09:15:05Z</time>
      </trkpt>
      <trkpt lat="49.76249" lon="2.2906">
        <ele>106.5</ele>
        <time>2023-07-12T09:15:06Z</time>
      </trkpt>
      <trkpt lat="49.76248" lon="2.29059">
        <ele>106.4</ele>
        <time>2023-07-12T09:15:08Z</time>
      </trkpt>
      <trkpt lat="49.76248" lon="2.29057">
        <ele>106.4</ele>
        <time>2023-07-12T09:15:09Z</time>
      </trkpt>
      <trkpt lat="49.76248" lon="2.29056">
        <ele>106.3</ele>
        <time>2023-07-12T09:15:10Z</time>
      </trkpt>
      <trkpt lat="49.76247" lon="2.29054">
        <ele>106.3</ele>
        <time>2023-07-12T09:15:11Z</time>
      </trkpt>
      <trkpt lat="49.76247" lon="2.29052">
        <ele>106.3</ele>
        <time>2023-07-12T09:15:12Z</time>
      </trkpt>
      <trkpt lat="49.76247" lon="2.29051">
        <ele>106.2</ele>
        <time>2023-07-12T09:15:13Z</time>
      </trkpt>
      <trkpt lat="49.76246" lon="2.29049">
        <ele>106.2</ele>
        <time>2023-07-12T09:15:14Z</time>
      </trkpt>
      <trkpt lat="49.76246" lon="2.29047">
        <ele>106.1</ele>
        <time>2023-07-12T09:15:15Z</time>
      </trkpt>
      <trkpt lat="49.76246" lon="2.29046">
        <ele>106.1</ele>
        <time>2023-07-12T09:15:17Z</time>
      </trkpt>
      <trkpt lat="49.76246" lon="2.29044">
        <ele>106.1</ele>
        <time>2023-07-12T09:15:18Z</time>
      </trkpt>
      <trkpt lat="49.76245" lon="2.29043">
        <ele>106</ele>
        <time>2023-07-12T09:15:19Z</time>
      </trkpt>
      <trkpt lat="49.76245" lon="2.29041">
        <ele>106</ele>
        <time>2023-07-12T09:15:20Z</time>
      </trkpt>
      <trkpt lat="49.76245" lon="2.2904">
        <ele>106</ele>
        <time>2023-07-12T09:15:21Z</time>
      </trkpt>
      <trkpt lat="49.76244" lon="2.29038">
        <ele>105.9</ele>
        <time>2023-07-12T09:15:22Z</time>
      </trkpt>
      <trkpt lat="49.76244" lon="2.29037">
        <ele>105.9</ele>
        <time>2023-07-12T09:15:23Z</time>
      </trkpt>
      <trkpt lat="49.76243" lon="2.29036">
        <ele>105.9</ele>
        <time>2023-07-12T09:15:25Z</time>
      </trkpt>
      <trkpt lat="49.76243" lon="2.29035">
        <ele>105.8</ele>
        <time>2023-07-12T09:15:26Z</time>
      </trkpt>
      <trkpt lat="49.76242" lon="2.29034">
        <ele>105.8</ele>
        <time>2023-07-12T09:15:27Z</time>
      </trkpt>
      <trkpt lat="49.76242" lon="2.29032">
        <ele>105.8</ele>
        <time>2023-07-12T09:15:28Z</time>
      </trkpt>
      <trkpt lat="49.76241" lon="2.29031">
        <ele>105.7</ele>
        <time>2023-07-12T09:15:29Z</time>
      </trkpt>
      <trkpt lat="49.7624" lon="2.2903">
        <ele>105.7</ele>
        <time>2023-07-12T09:15:30Z</time>
      </trkpt>
      <trkpt lat="49.7624" lon="2.29028">
        <ele>105.6</ele>
        <time>2023-07-12T09:15:32Z</time>
      </trkpt>
      <trkpt lat="49.76239" lon="2.29027">
        <ele>105.6</ele>
        <time>2023-07-12T09:15:33Z</time>
      </trkpt>
      <trkpt lat="49.76238" lon="2.29024">
        <ele>105.5</ele>
        <time>2023-07-12T09:15:34Z</time>
      </trkpt>
      <trkpt lat="49.76238" lon="2.29023">
        <ele>105.5</ele>
        <time>2023-07-12T09:15:35Z</time>
      </trkpt>
      <trkpt lat="49.76237" lon="2.29021">
        <ele>105.5</ele>
        <time>2023-07-12T09:15:36Z</time>
      </trkpt>
      <trkpt lat="49.76237" lon="2.2902">
        <ele>105.4</ele>
        <time>2023-07-12T09:15:37Z</time>
      </trkpt>
      <trkpt lat="49.76236" lon="2.29019">
        <ele>105.4</ele>
        <time>2023-07-12T09:15:39Z</time>
      </trkpt>
      <trkpt lat="49.76235" lon="2.29017">
        <ele>105.3</ele>
        <time>2023-07-12T09:15:40Z</time>
      </trkpt>
      <trkpt lat="49.76235" lon="2.29015">
        <ele>105.3</ele>
        <time>2023-07-12T09:15:41Z</time>
      </trkpt>
      <trkpt lat="49.76234" lon="2.29014">
        <ele>105.3</ele>
        <time>2023-07-12T09:15:42Z</time>
      </trkpt>
      <trkpt lat="49.76233" lon="2.29013">
        <ele>105.2</ele>
        <time>2023-07-12T09:15:44Z</time>
      </trkpt>
      <trkpt lat="49.76232" lon="2.29011">
        <ele>105.2</ele>
        <time>2023-07-12T09:15:45Z</time>
      </trkpt>
      <trkpt lat="49.76231" lon="2.2901">
        <ele>105.2</ele>
        <time>2023-07-12T09:15:46Z</time>
      </trkpt>
      <trkpt lat="49.76231" lon="2.29009">
        <ele>105.1</ele>
        <time>2023-07-12T09:15:47Z</time>
      </trkpt>
      <trkpt lat="49.76229" lon="2.29007">
        <ele>105.1</ele>
        <time>2023-07-12T09:15:48Z</time>
      </trkpt>
      <trkpt lat="49.76229" lon="2.29006">
        <ele>105</ele>
        <time>2023-07-12T09:15:50Z</time>
      </trkpt>
      <trkpt lat="49.76228" lon="2.29005">
        <ele>105</ele>
        <time>2023-07-12T09:15:51Z</time>
      </trkpt>
      <trkpt lat="49.76227" lon="2.29004">
        <ele>105</ele>
        <time>2023-07-12T09:15:52Z</time>
      </trkpt>
      <trkpt lat="49.76226" lon="2.29002">
        <ele>104.9</ele>
        <time>2023-07-12T09:15:53Z</time>
      </trkpt>
      <trkpt lat="49.76226" lon="2.29">
        <ele>104.9</ele>
        <time>2023-07-12T09:15:54Z</time>
      </trkpt>
      <trkpt lat="49.76225" lon="2.28999">
        <ele>104.9</ele>
        <time>2023-07-12T09:15:56Z</time>
      </trkpt>
      <trkpt lat="49.76224" lon="2.28996">
        <ele>104.8</ele>
        <time>2023-07-12T09:15:57Z</time>
      </trkpt>
      <trkpt lat="49.76224" lon="2.28994">
        <ele>104.8</ele>
        <time>2023-07-12T09:15:59Z</time>
      </trkpt>
      <trkpt lat="49.76223" lon="2.28993">
        <ele>104.8</ele>
        <time>2023-07-12T09:16:00Z</time>
      </trkpt>
      <trkpt lat="49.76223" lon="2.28991">
        <ele>104.7</ele>
        <time>2023-07-12T09:16:02Z</time>
      </trkpt>
      <trkpt lat="49.76223" lon="2.28991">
        <ele>104.7</ele>
        <time>2023-07-12T09:16:03Z</time>
      </trkpt>
      <trkpt lat="49.76223" lon="2.28991">
        <ele>104.7</ele>
        <time>2023-07-12T09:16:04Z</time>
      </trkpt>
      <trkpt lat="49.76223" lon="2.28991">
        <ele>104.7</ele>
        <time>2023-07-12T09:16:06Z</time>
      </trkpt>
      <trkpt lat="49.76223" lon="2.28991">
        <ele>104.7</ele>
        <time>2023-07-12T09:16:07Z</time>
      </trkpt>
      <trkpt lat="49.76223" lon="2.28991">
        <ele>104.7</ele>
        <time>2023-07-12T09:16:09Z</time>
      </trkpt>
      <trkpt lat="49.76223" lon="2.28991">
        <ele>104.7</ele>
        <time>2023-07-12T09:16:10Z</time>
      </trkpt>
      <trkpt lat="49.76223" lon="2.28991">
        <ele>104.7</ele>
        <time>2023-07-12T09:16:12Z</time>
      </trkpt>
      <trkpt lat="49.76223" lon="2.28991">
        <ele>104.7</ele>
        <time>2023-07-12T09:16:13Z</time>
      </trkpt>
      <trkpt lat="49.76223" lon="2.28991">
        <ele>104.7</ele>
        <time>2023-07-12T09:16:15Z</time>
      </trkpt>
      <trkpt lat="49.76223" lon="2.28991">
        <ele>104.7</ele>
        <time>2023-07-12T09:16:16Z</time>
      </trkpt>
      <trkpt lat="49.76223" lon="2.28991">
        <ele>104.7</ele>
        <time>2023-07-12T09:16:17Z</time>
      </trkpt>
      <trkpt lat="49.76223" lon="2.28991">
        <ele>104.7</ele>
        <time>2023-07-12T09:16:19Z</time>
      </trkpt>
      <trkpt lat="49.76223" lon="2.28991">
        <ele>104.7</ele>
        <time>2023-07-12T09:16:20Z</time>
      </trkpt>
      <trkpt lat="49.76223" lon="2.28991">
        <ele>104.7</ele>
        <time>2023-07-12T09:16:21Z</time>
      </trkpt>
      <trkpt lat="49.76223" lon="2.28991">
        <ele>104.7</ele>
        <time>2023-07-12T09:16:22Z</time>
      </trkpt>
      <trkpt lat="49.76223" lon="2.28991">
        <ele>104.7</ele>
        <time>2023-07-12T09:16:23Z</time>
      </trkpt>
      <trkpt lat="49.76223" lon="2.28991">
        <ele>104.7</ele>
        <time>2023-07-12T09:16:24Z</time>
      </trkpt>
      <trkpt lat="49.76223" lon="2.28991">
        <ele>104.7</ele>
        <time>2023-07-12T09:16:25Z</time>
      </trkpt>
      <trkpt lat="49.76223" lon="2.28991">
        <ele>104.7</ele>
        <time>2023-07-12T09:16:26Z</time>
      </trkpt>
      <trkpt lat="49.76223" lon="2.28991">
        <ele>104.7</ele>
        <time>2023-07-12T09:16:27Z</time>
      </trkpt>
      <trkpt lat="49.76223" lon="2.28991">
        <ele>104.7</ele>
        <time>2023-07-12T09:16:28Z</time>
      </trkpt>
      <trkpt lat="49.76223" lon="2.28991">
        <ele>104.7</ele>
        <time>2023-07-12T09:16:29Z</time>
      </trkpt>
      <trkpt lat="49.76223" lon="2.28991">
        <ele>104.7</ele>
        <time>2023-07-12T09:16:30Z</time>
      </trkpt>
      <trkpt lat="49.76223" lon="2.28991">
        <ele>104.7</ele>
        <time>2023-07-12T09:16:31Z</time>
      </trkpt>
      <trkpt lat="49.76223" lon="2.28991">
        <ele>104.7</ele>
        <time>2023-07-12T09:16:32Z</time>
      </trkpt>
      <trkpt lat="49.76223" lon="2.28991">
        <ele>104.7</ele>
        <time>2023-07-12T09:16:33Z</time>
      </trkpt>
      <trkpt lat="49.76223" lon="2.28991">
        <ele>104.7</ele>
        <time>2023-07-12T09:16:34Z</time>
      </trkpt>
      <trkpt lat="49.76223" lon="2.28991">
        <ele>104.7</ele>
        <time>2023-07-12T09:16:35Z</time>
      </trkpt>
      <trkpt lat="49.76223" lon="2.28991">
        <ele>104.7</ele>
        <time>2023-07-12T09:16:36Z</time>
      </trkpt>
      <trkpt lat="49.76223" lon="2.28991">
        <ele>104.7</ele>
        <time>2023-07-12T09:16:37Z</time>
      </trkpt>
      <trkpt lat="49.76223" lon="2.28991">
        <ele>104.7</ele>
        <time>2023-07-12T09:16:38Z</time>
      </trkpt>
      <trkpt lat="49.76223" lon="2.28992">
        <ele>104.7</ele>
        <time>2023-07-12T09:16:39Z</time>
      </trkpt>
      <trkpt lat="49.76223" lon="2.28992">
        <ele>104.7</ele>
        <time>2023-07-12T09:16:40Z</time>
      </trkpt>
      <trkpt lat="49.76224" lon="2.28992">
        <ele>104.7</ele>
        <time>2023-07-12T09:16:41Z</time>
      </trkpt>
      <trkpt lat="49.76224" lon="2.28992">
        <ele>104.7</ele>
        <time>2023-07-12T09:16:42Z</time>
      </trkpt>
      <trkpt lat="49.76224" lon="2.28992">
        <ele>104.7</ele>
        <time>2023-07-12T09:16:43Z</time>
      </trkpt>
      <trkpt lat="49.76224" lon="2.28992">
        <ele>104.7</ele>
        <time>2023-07-12T09:16:44Z</time>
      </trkpt>
      <trkpt lat="49.76224" lon="2.28992">
        <ele>104.7</ele>
        <time>2023-07-12T09:16:45Z</time>
      </trkpt>
      <trkpt lat="49.76224" lon="2.28992">
        <ele>104.7</ele>
        <time>2023-07-12T09:16:46Z</time>
      </trkpt>
      <trkpt lat="49.76224" lon="2.28992">
        <ele>104.7</ele>
        <time>2023-07-12T09:16:47Z</time>
      </trkpt>
      <trkpt lat="49.76224" lon="2.28992">
        <ele>104.7</ele>
        <time>2023-07-12T09:16:48Z</time>
      </trkpt>
      <trkpt lat="49.76224" lon="2.28992">
        <ele>104.7</ele>
        <time>2023-07-12T09:16:49Z</time>
      </trkpt>
      <trkpt lat="49.76224" lon="2.28992">
        <ele>104.7</ele>
        <time>2023-07-12T09:16:50Z</time>
      </trkpt>
      <trkpt lat="49.76224" lon="2.28992">
        <ele>104.7</ele>
        <time>2023-07-12T09:16:51Z</time>
      </trkpt>
      <trkpt lat="49.76224" lon="2.28992">
        <ele>104.7</ele>
        <time>2023-07-12T09:16:52Z</time>
      </trkpt>
      <trkpt lat="49.76224" lon="2.28992">
        <ele>104.7</ele>
        <time>2023-07-12T09:16:53Z</time>
      </trkpt>
      <trkpt lat="49.76224" lon="2.28992">
        <ele>104.7</ele>
        <time>2023-07-12T09:16:54Z</time>
      </trkpt>
      <trkpt lat="49.76224" lon="2.28992">
        <ele>104.7</ele>
        <time>2023-07-12T09:16:55Z</time>
      </trkpt>
      <trkpt lat="49.76224" lon="2.28992">
        <ele>104.7</ele>
        <time>2023-07-12T09:16:56Z</time>
      </trkpt>
      <trkpt lat="49.76224" lon="2.28992">
        <ele>104.7</ele>
        <time>2023-07-12T09:16:57Z</time>
      </trkpt>
      <trkpt lat="49.76224" lon="2.28992">
        <ele>104.7</ele>
        <time>2023-07-12T09:16:58Z</time>
      </trkpt>
      <trkpt lat="49.76224" lon="2.28992">
        <ele>104.7</ele>
        <time>2023-07-12T09:16:59Z</time>
      </trkpt>
      <trkpt lat="49.76224" lon="2.28992">
        <ele>104.7</ele>
        <time>2023-07-12T09:17:00Z</time>
      </trkpt>
      <trkpt lat="49.76224" lon="2.28992">
        <ele>104.7</ele>
        <time>2023-07-12T09:17:01Z</time>
      </trkpt>
      <trkpt lat="49.76224" lon="2.28992">
        <ele>104.7</ele>
        <time>2023-07-12T09:17:02Z</time>
      </trkpt>
      <trkpt lat="49.76224" lon="2.28992">
        <ele>104.7</ele>
        <time>2023-07-12T09:17:03Z</time>
      </trkpt>
      <trkpt lat="49.76224" lon="2.28992">
        <ele>104.7</ele>
        <time>2023-07-12T09:17:04Z</time>
      </trkpt>
      <trkpt lat="49.76224" lon="2.28992">
        <ele>104.7</ele>
        <time>2023-07-12T09:17:05Z</time>
      </trkpt>
      <trkpt lat="49.76224" lon="2.28992">
        <ele>104.7</ele>
        <time>2023-07-12T09:17:06Z</time>
      </trkpt>
      <trkpt lat="49.76224" lon="2.28992">
        <ele>104.7</ele>
        <time>2023-07-12T09:17:07Z</time>
      </trkpt>
      <trkpt lat="49.76224" lon="2.28992">
        <ele>104.7</ele>
        <time>2023-07-12T09:17:08Z</time>
      </trkpt>
      <trkpt lat="49.76224" lon="2.28992">
        <ele>104.7</ele>
        <time>2023-07-12T09:17:09Z</time>
      </trkpt>
      <trkpt lat="49.76224" lon="2.28992">
        <ele>104.7</ele>
        <time>2023-07-12T09:17:10Z</time>
      </trkpt>
      <trkpt lat="49.76224" lon="2.28992">
        <ele>104.7</ele>
        <time>2023-07-12T09:17:11Z</time>
      </trkpt>
      <trkpt lat="49.76224" lon="2.28992">
        <ele>104.7</ele>
        <time>2023-07-12T09:17:12Z</time>
      </trkpt>
      <trkpt lat="49.76224" lon="2.28992">
        <ele>104.7</ele>
        <time>2023-07-12T09:17:13Z</time>
      </trkpt>
      <trkpt lat="49.76224" lon="2.28992">
        <ele>104.7</ele>
        <time>2023-07-12T09:17:14Z</time>
      </trkpt>
      <trkpt lat="49.76224" lon="2.28992">
        <ele>104.7</ele>
        <time>2023-07-12T09:17:15Z</time>
      </trkpt>
      <trkpt lat="49.76224" lon="2.28992">
        <ele>104.7</ele>
        <time>2023-07-12T09:17:16Z</time>
      </trkpt>
      <trkpt lat="49.76224" lon="2.28992">
        <ele>104.7</ele>
        <time>2023-07-12T09:17:17Z</time>
      </trkpt>
      <trkpt lat="49.76224" lon="2.28992">
        <ele>104.7</ele>
        <time>2023-07-12T09:17:18Z</time>
      </trkpt>
      <trkpt lat="49.76224" lon="2.28992">
        <ele>104.7</ele>
        <time>2023-07-12T09:17:19Z</time>
      </trkpt>
      <trkpt lat="49.76224" lon="2.28992">
        <ele>104.7</ele>
        <time>2023-07-12T09:17:20Z</time>
      </trkpt>
      <trkpt lat="49.76224" lon="2.28992">
        <ele>104.7</ele>
        <time>2023-07-12T09:17:21Z</time>
      </trkpt>
      <trkpt lat="49.76224" lon="2.28992">
        <ele>104.7</ele>
        <time>2023-07-12T09:17:22Z</time>
      </trkpt>
      <trkpt lat="49.76224" lon="2.28992">
        <ele>104.7</ele>
        <time>2023-07-12T09:17:23Z</time>
      </trkpt>
      <trkpt lat="49.76224" lon="2.28992">
        <ele>104.7</ele>
        <time>2023-07-12T09:17:24Z</time>
      </trkpt>
      <trkpt lat="49.76224" lon="2.28992">
        <ele>104.7</ele>
        <time>2023-07-12T09:17:25Z</time>
      </trkpt>
      <trkpt lat="49.76224" lon="2.28992">
        <ele>104.7</ele>
        <time>2023-07-12T09:17:26Z</time>
      </trkpt>
      <trkpt lat="49.76224" lon="2.28992">
        <ele>104.7</ele>
        <time>2023-07-12T09:17:27Z</time>
      </trkpt>
      <trkpt lat="49.76224" lon="2.28992">
        <ele>104.7</ele>
        <time>2023-07-12T09:17:28Z</time>
      </trkpt>
      <trkpt lat="49.76224" lon="2.28992">
        <ele>104.7</ele>
        <time>2023-07-12T09:17:29Z</time>
      </trkpt>
      <trkpt lat="49.76224" lon="2.28992">
        <ele>104.7</ele>
        <time>2023-07-12T09:17:30Z</time>
      </trkpt>
      <trkpt lat="49.76224" lon="2.28992">
        <ele>104.7</ele>
        <time>2023-07-12T09:17:31Z</time>
      </trkpt>
      <trkpt lat="49.76224" lon="2.28993">
        <ele>104.7</ele>
        <time>2023-07-12T09:17:32Z</time>
      </trkpt>
      <trkpt lat="49.76224" lon="2.28993">
        <ele>104.7</ele>
        <time>2023-07-12T09:17:33Z</time>
      </trkpt>
      <trkpt lat="49.76224" lon="2.28993">
        <ele>104.7</ele>
        <time>2023-07-12T09:17:34Z</time>
      </trkpt>
      <trkpt lat="49.76224" lon="2.28993">
        <ele>104.7</ele>
        <time>2023-07-12T09:17:35Z</time>
      </trkpt>
      <trkpt lat="49.76224" lon="2.28993">
        <ele>104.7</ele>
        <time>2023-07-12T09:17:36Z</time>
      </trkpt>
      <trkpt lat="49.76224" lon="2.28993">
        <ele>104.7</ele>
        <time>2023-07-12T09:17:37Z</time>
      </trkpt>
      <trkpt lat="49.76224" lon="2.28993">
        <ele>104.7</ele>
        <time>2023-07-12T09:17:38Z</time>
      </trkpt>
      <trkpt lat="49.76224" lon="2.28993">
        <ele>104.7</ele>
        <time>2023-07-12T09:17:39Z</time>
      </trkpt>
      <trkpt lat="49.76224" lon="2.28993">
        <ele>104.7</ele>
        <time>2023-07-12T09:17:40Z</time>
      </trkpt>
      <trkpt lat="49.76224" lon="2.28993">
        <ele>104.7</ele>
        <time>2023-07-12T09:17:41Z</time>
      </trkpt>
      <trkpt lat="49.76224" lon="2.28993">
        <ele>104.7</ele>
        <time>2023-07-12T09:17:42Z</time>
      </trkpt>
      <trkpt lat="49.76224" lon="2.28993">
        <ele>104.7</ele>
        <time>2023-07-12T09:17:43Z</time>
      </trkpt>
      <trkpt lat="49.76224" lon="2.28993">
        <ele>104.7</ele>
        <time>2023-07-12T09:17:44Z</time>
      </trkpt>
      <trkpt lat="49.76224" lon="2.28993">
        <ele>104.7</ele>
        <time>2023-07-12T09:17:45Z</time>
      </trkpt>
      <trkpt lat="49.76224" lon="2.28993">
        <ele>104.6</ele>
        <time>2023-07-12T09:17:46Z</time>
      </trkpt>
      <trkpt lat="49.76224" lon="2.28993">
        <ele>104.6</ele>
        <time>2023-07-12T09:17:47Z</time>
      </trkpt>
      <trkpt lat="49.76224" lon="2.28993">
        <ele>104.6</ele>
        <time>2023-07-12T09:17:48Z</time>
      </trkpt>
      <trkpt lat="49.76224" lon="2.28993">
        <ele>104.6</ele>
        <time>2023-07-12T09:17:49Z</time>
      </trkpt>
      <trkpt lat="49.76224" lon="2.28993">
        <ele>104.6</ele>
        <time>2023-07-12T09:17:50Z</time>
      </trkpt>
      <trkpt lat="49.76224" lon="2.28993">
        <ele>104.6</ele>
        <time>2023-07-12T09:17:51Z</time>
      </trkpt>
      <trkpt lat="49.76224" lon="2.28993">
        <ele>104.6</ele>
        <time>2023-07-12T09:17:52Z</time>
      </trkpt>
      <trkpt lat="49.76224" lon="2.28993">
        <ele>104.6</ele>
        <time>2023-07-12T09:17:53Z</time>
      </trkpt>
      <trkpt lat="49.76224" lon="2.28993">
        <ele>104.6</ele>
        <time>2023-07-12T09:17:54Z</time>
      </trkpt>
      <trkpt lat="49.76224" lon="2.28993">
        <ele>104.6</ele>
        <time>2023-07-12T09:17:55Z</time>
      </trkpt>
      <trkpt lat="49.76224" lon="2.28993">
        <ele>104.6</ele>
        <time>2023-07-12T09:17:56Z</time>
      </trkpt>
      <trkpt lat="49.76224" lon="2.28993">
        <ele>104.6</ele>
        <time>2023-07-12T09:17:57Z</time>
      </trkpt>
      <trkpt lat="49.76224" lon="2.28993">
        <ele>104.6</ele>
        <time>2023-07-12T09:17:58Z</time>
      </trkpt>
      <trkpt lat="49.76224" lon="2.28993">
        <ele>104.6</ele>
        <time>2023-07-12T09:17:59Z</time>
      </trkpt>
      <trkpt lat="49.76224" lon="2.28993">
        <ele>104.6</ele>
        <time>2023-07-12T09:18:00Z</time>
      </trkpt>
      <trkpt lat="49.76224" lon="2.28993">
        <ele>104.6</ele>
        <time>2023-07-12T09:18:01Z</time>
      </trkpt>
      <trkpt lat="49.76225" lon="2.28993">
        <ele>104.6</ele>
        <time>2023-07-12T09:18:02Z</time>
      </trkpt>
      <trkpt lat="49.76225" lon="2.28993">
        <ele>104.6</ele>
        <time>2023-07-12T09:18:03Z</time>
      </trkpt>
      <trkpt lat="49.76225" lon="2.28993">
        <ele>104.6</ele>
        <time>2023-07-12T09:18:04Z</time>
      </trkpt>
      <trkpt lat="49.76225" lon="2.28993">
        <ele>104.6</ele>
        <time>2023-07-12T09:18:05Z</time>
      </trkpt>
      <trkpt lat="49.76225" lon="2.28993">
        <ele>104.6</ele>
        <time>2023-07-12T09:18:06Z</time>
      </trkpt>
      <trkpt lat="49.76225" lon="2.28993">
        <ele>104.6</ele>
        <time>2023-07-12T09:18:07Z</time>
      </trkpt>
      <trkpt lat="49.76225" lon="2.28993">
        <ele>104.6</ele>
        <time>2023-07-12T09:18:08Z</time>
      </trkpt>
      <trkpt lat="49.76225" lon="2.28993">
        <ele>104.6</ele>
        <time>2023-07-12T09:18:09Z</time>
      </trkpt>
      <trkpt lat="49.76225" lon="2.28993">
        <ele>104.6</ele>
        <time>2023-07-12T09:18:10Z</time>
      </trkpt>
      <trkpt lat="49.76225" lon="2.28993">
        <ele>104.6</ele>
        <time>2023-07-12T09:18:11Z</time>
      </trkpt>
      <trkpt lat="49.76225" lon="2.28993">
        <ele>104.6</ele>
        <time>2023-07-12T09:18:12Z</time>
      </trkpt>
      <trkpt lat="49.76225" lon="2.28993">
        <ele>104.6</ele>
        <time>2023-07-12T09:18:13Z</time>
      </trkpt>
      <trkpt lat="49.76225" lon="2.28993">
        <ele>104.6</ele>
        <time>2023-07-12T09:18:14Z</time>
      </trkpt>
      <trkpt lat="49.76225" lon="2.28993">
        <ele>104.6</ele>
        <time>2023-07-12T09:18:15Z</time>
      </trkpt>
      <trkpt lat="49.76225" lon="2.28993">
        <ele>104.6</ele>
        <time>2023-07-12T09:18:16Z</time>
      </trkpt>
      <trkpt lat="49.76225" lon="2.28993">
        <ele>104.6</ele>
        <time>2023-07-12T09:18:17Z</time>
      </trkpt>
      <trkpt lat="49.76225" lon="2.28993">
        <ele>104.6</ele>
        <time>2023-07-12T09:18:18Z</time>
      </trkpt>
      <trkpt lat="49.76225" lon="2.28993">
        <ele>104.6</ele>
        <time>2023-07-12T09:18:19Z</time>
      </trkpt>
      <trkpt lat="49.76225" lon="2.28993">
        <ele>104.6</ele>
        <time>2023-07-12T09:18:20Z</time>
      </trkpt>
      <trkpt lat="49.76225" lon="2.28993">
        <ele>104.6</ele>
        <time>2023-07-12T09:18:21Z</time>
      </trkpt>
      <trkpt lat="49.76225" lon="2.28993">
        <ele>104.6</ele>
        <time>2023-07-12T09:18:22Z</time>
      </trkpt>
      <trkpt lat="49.76225" lon="2.28993">
        <ele>104.6</ele>
        <time>2023-07-12T09:18:23Z</time>
      </trkpt>
      <trkpt lat="49.76225" lon="2.28994">
        <ele>104.6</ele>
        <time>2023-07-12T09:18:24Z</time>
      </trkpt>
      <trkpt lat="49.76225" lon="2.28994">
        <ele>104.6</ele>
        <time>2023-07-12T09:18:25Z</time>
      </trkpt>
      <trkpt lat="49.76225" lon="2.28994">
        <ele>104.6</ele>
        <time>2023-07-12T09:18:26Z</time>
      </trkpt>
      <trkpt lat="49.76225" lon="2.28994">
        <ele>104.6</ele>
        <time>2023-07-12T09:18:27Z</time>
      </trkpt>
      <trkpt lat="49.76225" lon="2.28994">
        <ele>104.6</ele>
        <time>2023-07-12T09:18:28Z</time>
      </trkpt>
      <trkpt lat="49.76225" lon="2.28994">
        <ele>104.6</ele>
        <time>2023-07-12T09:18:29Z</time>
      </trkpt>
      <trkpt lat="49.76225" lon="2.28994">
        <ele>104.6</ele>
        <time>2023-07-12T09:18:30Z</time>
      </trkpt>
      <trkpt lat="49.76225" lon="2.28994">
        <ele>104.6</ele>
        <time>2023-07-12T09:18:31Z</time>
      </trkpt>
      <trkpt lat="49.76225" lon="2.28994">
        <ele>104.6</ele>
        <time>2023-07-12T09:18:32Z</time>
      </trkpt>
      <trkpt lat="49.76225" lon="2.28994">
        <ele>104.6</ele>
        <time>2023-07-12T09:18:33Z</time>
      </trkpt>
      <trkpt lat="49.76225" lon="2.28994">
        <ele>104.6</ele>
        <time>2023-07-12T09:18:34Z</time>
      </trkpt>
      <trkpt lat="49.76225" lon="2.28994">
        <ele>104.6</ele>
        <time>2023-07-12T09:18:35Z</time>
      </trkpt>
      <trkpt lat="49.76225" lon="2.28994">
        <ele>104.6</ele>
        <time>2023-07-12T09:18:36Z</time>
      </trkpt>
      <trkpt lat="49.76225" lon="2.28994">
        <ele>104.6</ele>
        <time>2023-07-12T09:18:37Z</time>
      </trkpt>
      <trkpt lat="49.76225" lon="2.28994">
        <ele>104.6</ele>
        <time>2023-07-12T09:18:38Z</time>
      </trkpt>
      <trkpt lat="49.76224" lon="2.28994">
        <ele>104.6</ele>
        <time>2023-07-12T09:18:39Z</time>
      </trkpt>
      <trkpt lat="49.76224" lon="2.28993">
        <ele>104.6</ele>
        <time>2023-07-12T09:18:40Z</time>
      </trkpt>
      <trkpt lat="49.76224" lon="2.28993">
        <ele>104.6</ele>
        <time>2023-07-12T09:18:41Z</time>
      </trkpt>
      <trkpt lat="49.76223" lon="2.28992">
        <ele>104.5</ele>
        <time>2023-07-12T09:18:42Z</time>
      </trkpt>
      <trkpt lat="49.76223" lon="2.28991">
        <ele>104.5</ele>
        <time>2023-07-12T09:18:43Z</time>
      </trkpt>
      <trkpt lat="49.76223" lon="2.2899">
        <ele>104.5</ele>
        <time>2023-07-12T09:18:44Z</time>
      </trkpt>
      <trkpt lat="49.76221" lon="2.28987">
        <ele>104.5</ele>
        <time>2023-07-12T09:18:46Z</time>
      </trkpt>
      <trkpt lat="49.7622" lon="2.28986">
        <ele>104.4</ele>
        <time>2023-07-12T09:18:48Z</time>
      </trkpt>
      <trkpt lat="49.7622" lon="2.28984">
        <ele>104.4</ele>
        <time>2023-07-12T09:18:49Z</time>
      </trkpt>
      <trkpt lat="49.76219" lon="2.28982">
        <ele>104.3</ele>
        <time>2023-07-12T09:18:50Z</time>
      </trkpt>
      <trkpt lat="49.76218" lon="2.28979">
        <ele>104.3</ele>
        <time>2023-07-12T09:18:51Z</time>
      </trkpt>
      <trkpt lat="49.76218" lon="2.28978">
        <ele>104.3</ele>
        <time>2023-07-12T09:18:52Z</time>
      </trkpt>
      <trkpt lat="49.76217" lon="2.28976">
        <ele>104.2</ele>
        <time>2023-07-12T09:18:53Z</time>
      </trkpt>
      <trkpt lat="49.76216" lon="2.28973">
        <ele>104.3</ele>
        <time>2023-07-12T09:18:55Z</time>
      </trkpt>
      <trkpt lat="49.76216" lon="2.28972">
        <ele>104.3</ele>
        <time>2023-07-12T09:18:56Z</time>
      </trkpt>
      <trkpt lat="49.76216" lon="2.28971">
        <ele>104.3</ele>
        <time>2023-07-12T09:18:57Z</time>
      </trkpt>
      <trkpt lat="49.76215" lon="2.28969">
        <ele>104.4</ele>
        <time>2023-07-12T09:18:58Z</time>
      </trkpt>
      <trkpt lat="49.76215" lon="2.28967">
        <ele>104.4</ele>
        <time>2023-07-12T09:19:00Z</time>
      </trkpt>
      <trkpt lat="49.76214" lon="2.28966">
        <ele>104.4</ele>
        <time>2023-07-12T09:19:01Z</time>
      </trkpt>
      <trkpt lat="49.76213" lon="2.28964">
        <ele>104.5</ele>
        <time>2023-07-12T09:19:02Z</time>
      </trkpt>
      <trkpt lat="49.76213" lon="2.28962">
        <ele>104.5</ele>
        <time>2023-07-12T09:19:04Z</time>
      </trkpt>
      <trkpt lat="49.76212" lon="2.28961">
        <ele>104.5</ele>
        <time>2023-07-12T09:19:05Z</time>
      </trkpt>
      <trkpt lat="49.76212" lon="2.28959">
        <ele>104.5</ele>
        <time>2023-07-12T09:19:06Z</time>
      </trkpt>
      <trkpt lat="49.7621" lon="2.28957">
        <ele>104.6</ele>
        <time>2023-07-12T09:19:08Z</time>
      </trkpt>
      <trkpt lat="49.7621" lon="2.28956">
        <ele>104.6</ele>
        <time>2023-07-12T09:19:09Z</time>
      </trkpt>
      <trkpt lat="49.76209" lon="2.28956">
        <ele>104.6</ele>
        <time>2023-07-12T09:19:11Z</time>
      </trkpt>
      <trkpt lat="49.76208" lon="2.28955">
        <ele>104.6</ele>
        <time>2023-07-12T09:19:12Z</time>
      </trkpt>
      <trkpt lat="49.76207" lon="2.28954">
        <ele>104.7</ele>
        <time>2023-07-12T09:19:13Z</time>
      </trkpt>
      <trkpt lat="49.76206" lon="2.28953">
        <ele>104.7</ele>
        <time>2023-07-12T09:19:14Z</time>
      </trkpt>
      <trkpt lat="49.76205" lon="2.28951">
        <ele>104.7</ele>
        <time>2023-07-12T09:19:15Z</time>
      </trkpt>
      <trkpt lat="49.76204" lon="2.2895">
        <ele>104.7</ele>
        <time>2023-07-12T09:19:17Z</time>
      </trkpt>
      <trkpt lat="49.76204" lon="2.28948">
        <ele>104.7</ele>
        <time>2023-07-12T09:19:18Z</time>
      </trkpt>
      <trkpt lat="49.76202" lon="2.28945">
        <ele>104.8</ele>
        <time>2023-07-12T09:19:19Z</time>
      </trkpt>
      <trkpt lat="49.76202" lon="2.28944">
        <ele>104.8</ele>
        <time>2023-07-12T09:19:20Z</time>
      </trkpt>
      <trkpt lat="49.76202" lon="2.28943">
        <ele>104.8</ele>
        <time>2023-07-12T09:19:21Z</time>
      </trkpt>
      <trkpt lat="49.762" lon="2.28941">
        <ele>104.8</ele>
        <time>2023-07-12T09:19:22Z</time>
      </trkpt>
      <trkpt lat="49.762" lon="2.2894">
        <ele>104.9</ele>
        <time>2023-07-12T09:19:24Z</time>
      </trkpt>
      <trkpt lat="49.76199" lon="2.28939">
        <ele>104.9</ele>
        <time>2023-07-12T09:19:25Z</time>
      </trkpt>
      <trkpt lat="49.76198" lon="2.28937">
        <ele>104.9</ele>
        <time>2023-07-12T09:19:26Z</time>
      </trkpt>
      <trkpt lat="49.76197" lon="2.28935">
        <ele>104.9</ele>
        <time>2023-07-12T09:19:27Z</time>
      </trkpt>
      <trkpt lat="49.76196" lon="2.28934">
        <ele>104.9</ele>
        <time>2023-07-12T09:19:28Z</time>
      </trkpt>
      <trkpt lat="49.76196" lon="2.28932">
        <ele>104.9</ele>
        <time>2023-07-12T09:19:29Z</time>
      </trkpt>
      <trkpt lat="49.76195" lon="2.28931">
        <ele>104.9</ele>
        <time>2023-07-12T09:19:31Z</time>
      </trkpt>
      <trkpt lat="49.76194" lon="2.28929">
        <ele>104.9</ele>
        <time>2023-07-12T09:19:32Z</time>
      </trkpt>
      <trkpt lat="49.76193" lon="2.28928">
        <ele>104.9</ele>
        <time>2023-07-12T09:19:33Z</time>
      </trkpt>
      <trkpt lat="49.76192" lon="2.28927">
        <ele>104.9</ele>
        <time>2023-07-12T09:19:34Z</time>
      </trkpt>
      <trkpt lat="49.76191" lon="2.28925">
        <ele>104.9</ele>
        <time>2023-07-12T09:19:35Z</time>
      </trkpt>
      <trkpt lat="49.7619" lon="2.28924">
        <ele>104.8</ele>
        <time>2023-07-12T09:19:37Z</time>
      </trkpt>
      <trkpt lat="49.7619" lon="2.28923">
        <ele>104.8</ele>
        <time>2023-07-12T09:19:38Z</time>
      </trkpt>
      <trkpt lat="49.76188" lon="2.2892">
        <ele>104.8</ele>
        <time>2023-07-12T09:19:39Z</time>
      </trkpt>
      <trkpt lat="49.76188" lon="2.28919">
        <ele>104.8</ele>
        <time>2023-07-12T09:19:40Z</time>
      </trkpt>
      <trkpt lat="49.76188" lon="2.28918">
        <ele>104.8</ele>
        <time>2023-07-12T09:19:41Z</time>
      </trkpt>
      <trkpt lat="49.76187" lon="2.28917">
        <ele>104.8</ele>
        <time>2023-07-12T09:19:42Z</time>
      </trkpt>
      <trkpt lat="49.76186" lon="2.28915">
        <ele>104.8</ele>
        <time>2023-07-12T09:19:43Z</time>
      </trkpt>
      <trkpt lat="49.76185" lon="2.28913">
        <ele>104.8</ele>
        <time>2023-07-12T09:19:45Z</time>
      </trkpt>
      <trkpt lat="49.76184" lon="2.28911">
        <ele>104.8</ele>
        <time>2023-07-12T09:19:46Z</time>
      </trkpt>
      <trkpt lat="49.76184" lon="2.2891">
        <ele>104.8</ele>
        <time>2023-07-12T09:19:47Z</time>
      </trkpt>
      <trkpt lat="49.76183" lon="2.28909">
        <ele>104.8</ele>
        <time>2023-07-12T09:19:48Z</time>
      </trkpt>
      <trkpt lat="49.76182" lon="2.28908">
        <ele>104.8</ele>
        <time>2023-07-12T09:19:49Z</time>
      </trkpt>
      <trkpt lat="49.76182" lon="2.28907">
        <ele>104.8</ele>
        <time>2023-07-12T09:19:50Z</time>
      </trkpt>
      <trkpt lat="49.76181" lon="2.28906">
        <ele>104.8</ele>
        <time>2023-07-12T09:19:51Z</time>
      </trkpt>
      <trkpt lat="49.76179" lon="2.28904">
        <ele>104.8</ele>
        <time>2023-07-12T09:19:53Z</time>
      </trkpt>
      <trkpt lat="49.76178" lon="2.28904">
        <ele>104.8</ele>
        <time>2023-07-12T09:19:54Z</time>
      </trkpt>
      <trkpt lat="49.76178" lon="2.28903">
        <ele>104.8</ele>
        <time>2023-07-12T09:19:55Z</time>
      </trkpt>
      <trkpt lat="49.76177" lon="2.28902">
        <ele>104.8</ele>
        <time>2023-07-12T09:19:56Z</time>
      </trkpt>
      <trkpt lat="49.76176" lon="2.28901">
        <ele>104.8</ele>
        <time>2023-07-12T09:19:57Z</time>
      </trkpt>
      <trkpt lat="49.76175" lon="2.289">
        <ele>104.8</ele>
        <time>2023-07-12T09:19:58Z</time>
      </trkpt>
      <trkpt lat="49.76173" lon="2.28898">
        <ele>104.8</ele>
        <time>2023-07-12T09:19:59Z</time>
      </trkpt>
      <trkpt lat="49.76173" lon="2.28897">
        <ele>104.8</ele>
        <time>2023-07-12T09:20:01Z</time>
      </trkpt>
      <trkpt lat="49.76172" lon="2.28896">
        <ele>104.8</ele>
        <time>2023-07-12T09:20:02Z</time>
      </trkpt>
      <trkpt lat="49.76171" lon="2.28894">
        <ele>104.8</ele>
        <time>2023-07-12T09:20:03Z</time>
      </trkpt>
      <trkpt lat="49.7617" lon="2.28893">
        <ele>104.8</ele>
        <time>2023-07-12T09:20:04Z</time>
      </trkpt>
      <trkpt lat="49.76169" lon="2.28892">
        <ele>104.8</ele>
        <time>2023-07-12T09:20:05Z</time>
      </trkpt>
      <trkpt lat="49.76168" lon="2.28889">
        <ele>104.8</ele>
        <time>2023-07-12T09:20:06Z</time>
      </trkpt>
      <trkpt lat="49.76167" lon="2.28888">
        <ele>104.8</ele>
        <time>2023-07-12T09:20:08Z</time>
      </trkpt>
      <trkpt lat="49.76166" lon="2.28887">
        <ele>104.8</ele>
        <time>2023-07-12T09:20:09Z</time>
      </trkpt>
      <trkpt lat="49.76165" lon="2.28886">
        <ele>104.8</ele>
        <time>2023-07-12T09:20:10Z</time>
      </trkpt>
      <trkpt lat="49.76164" lon="2.28885">
        <ele>104.8</ele>
        <time>2023-07-12T09:20:11Z</time>
      </trkpt>
      <trkpt lat="49.76163" lon="2.28884">
        <ele>104.8</ele>
        <time>2023-07-12T09:20:13Z</time>
      </trkpt>
      <trkpt lat="49.76162" lon="2.28882">
        <ele>104.8</ele>
        <time>2023-07-12T09:20:14Z</time>
      </trkpt>
      <trkpt lat="49.76161" lon="2.28881">
        <ele>104.8</ele>
        <time>2023-07-12T09:20:15Z</time>
      </trkpt>
      <trkpt lat="49.7616" lon="2.2888">
        <ele>104.8</ele>
        <time>2023-07-12T09:20:16Z</time>
      </trkpt>
      <trkpt lat="49.76159" lon="2.28878">
        <ele>104.8</ele>
        <time>2023-07-12T09:20:17Z</time>
      </trkpt>
      <trkpt lat="49.76158" lon="2.28877">
        <ele>104.8</ele>
        <time>2023-07-12T09:20:18Z</time>
      </trkpt>
      <trkpt lat="49.76157" lon="2.28876">
        <ele>104.8</ele>
        <time>2023-07-12T09:20:20Z</time>
      </trkpt>
      <trkpt lat="49.76156" lon="2.28875">
        <ele>104.8</ele>
        <time>2023-07-12T09:20:21Z</time>
      </trkpt>
      <trkpt lat="49.76155" lon="2.28874">
        <ele>104.9</ele>
        <time>2023-07-12T09:20:22Z</time>
      </trkpt>
      <trkpt lat="49.76155" lon="2.28873">
        <ele>104.9</ele>
        <time>2023-07-12T09:20:23Z</time>
      </trkpt>
      <trkpt lat="49.76154" lon="2.28871">
        <ele>104.9</ele>
        <time>2023-07-12T09:20:24Z</time>
      </trkpt>
      <trkpt lat="49.76153" lon="2.2887">
        <ele>104.9</ele>
        <time>2023-07-12T09:20:25Z</time>
      </trkpt>
      <trkpt lat="49.76152" lon="2.28869">
        <ele>104.9</ele>
        <time>2023-07-12T09:20:26Z</time>
      </trkpt>
      <trkpt lat="49.76151" lon="2.28868">
        <ele>104.9</ele>
        <time>2023-07-12T09:20:28Z</time>
      </trkpt>
      <trkpt lat="49.76151" lon="2.28867">
        <ele>104.9</ele>
        <time>2023-07-12T09:20:29Z</time>
      </trkpt>
      <trkpt lat="49.76149" lon="2.28865">
        <ele>104.9</ele>
        <time>2023-07-12T09:20:30Z</time>
      </trkpt>
      <trkpt lat="49.76149" lon="2.28864">
        <ele>104.9</ele>
        <time>2023-07-12T09:20:31Z</time>
      </trkpt>
      <trkpt lat="49.76148" lon="2.28863">
        <ele>104.9</ele>
        <time>2023-07-12T09:20:32Z</time>
      </trkpt>
      <trkpt lat="49.76146" lon="2.28861">
        <ele>104.9</ele>
        <time>2023-07-12T09:20:33Z</time>
      </trkpt>
      <trkpt lat="49.76146" lon="2.2886">
        <ele>104.9</ele>
        <time>2023-07-12T09:20:34Z</time>
      </trkpt>
      <trkpt lat="49.76145" lon="2.28859">
        <ele>104.9</ele>
        <time>2023-07-12T09:20:35Z</time>
      </trkpt>
      <trkpt lat="49.76145" lon="2.28857">
        <ele>104.9</ele>
        <time>2023-07-12T09:20:37Z</time>
      </trkpt>
      <trkpt lat="49.76144" lon="2.28856">
        <ele>104.9</ele>
        <time>2023-07-12T09:20:38Z</time>
      </trkpt>
      <trkpt lat="49.76143" lon="2.28855">
        <ele>104.9</ele>
        <time>2023-07-12T09:20:39Z</time>
      </trkpt>
      <trkpt lat="49.76142" lon="2.28854">
        <ele>104.9</ele>
        <time>2023-07-12T09:20:40Z</time>
      </trkpt>
      <trkpt lat="49.76141" lon="2.28852">
        <ele>104.9</ele>
        <time>2023-07-12T09:20:41Z</time>
      </trkpt>
      <trkpt lat="49.76139" lon="2.2885">
        <ele>104.9</ele>
        <time>2023-07-12T09:20:42Z</time>
      </trkpt>
      <trkpt lat="49.76139" lon="2.28849">
        <ele>104.9</ele>
        <time>2023-07-12T09:20:43Z</time>
      </trkpt>
      <trkpt lat="49.76138" lon="2.28848">
        <ele>104.9</ele>
        <time>2023-07-12T09:20:44Z</time>
      </trkpt>
      <trkpt lat="49.76137" lon="2.28847">
        <ele>104.9</ele>
        <time>2023-07-12T09:20:46Z</time>
      </trkpt>
      <trkpt lat="49.76136" lon="2.28846">
        <ele>105</ele>
        <time>2023-07-12T09:20:47Z</time>
      </trkpt>
      <trkpt lat="49.76136" lon="2.28844">
        <ele>105</ele>
        <time>2023-07-12T09:20:48Z</time>
      </trkpt>
      <trkpt lat="49.76134" lon="2.28842">
        <ele>105</ele>
        <time>2023-07-12T09:20:49Z</time>
      </trkpt>
      <trkpt lat="49.76134" lon="2.28841">
        <ele>105</ele>
        <time>2023-07-12T09:20:50Z</time>
      </trkpt>
      <trkpt lat="49.76133" lon="2.2884">
        <ele>105</ele>
        <time>2023-07-12T09:20:51Z</time>
      </trkpt>
      <trkpt lat="49.76133" lon="2.28839">
        <ele>105</ele>
        <time>2023-07-12T09:20:52Z</time>
      </trkpt>
      <trkpt lat="49.76132" lon="2.28837">
        <ele>105</ele>
        <time>2023-07-12T09:20:54Z</time>
      </trkpt>
      <trkpt lat="49.76131" lon="2.28836">
        <ele>105</ele>
        <time>2023-07-12T09:20:55Z</time>
      </trkpt>
      <trkpt lat="49.76131" lon="2.28835">
        <ele>105</ele>
        <time>2023-07-12T09:20:56Z</time>
      </trkpt>
      <trkpt lat="49.7613" lon="2.28833">
        <ele>105</ele>
        <time>2023-07-12T09:20:57Z</time>
      </trkpt>
      <trkpt lat="49.76129" lon="2.28832">
        <ele>105</ele>
        <time>2023-07-12T09:20:58Z</time>
      </trkpt>
      <trkpt lat="49.76128" lon="2.28831">
        <ele>105</ele>
        <time>2023-07-12T09:20:59Z</time>
      </trkpt>
      <trkpt lat="49.76127" lon="2.2883">
        <ele>105.1</ele>
        <time>2023-07-12T09:21:00Z</time>
      </trkpt>
      <trkpt lat="49.76126" lon="2.28828">
        <ele>105.1</ele>
        <time>2023-07-12T09:21:01Z</time>
      </trkpt>
      <trkpt lat="49.76125" lon="2.28827">
        <ele>105.1</ele>
        <time>2023-07-12T09:21:03Z</time>
      </trkpt>
      <trkpt lat="49.76125" lon="2.28826">
        <ele>105.1</ele>
        <time>2023-07-12T09:21:04Z</time>
      </trkpt>
      <trkpt lat="49.76124" lon="2.28825">
        <ele>105.1</ele>
        <time>2023-07-12T09:21:05Z</time>
      </trkpt>
      <trkpt lat="49.76122" lon="2.28823">
        <ele>105.1</ele>
        <time>2023-07-12T09:21:06Z</time>
      </trkpt>
      <trkpt lat="49.76122" lon="2.28823">
        <ele>105.1</ele>
        <time>2023-07-12T09:21:07Z</time>
      </trkpt>
      <trkpt lat="49.76121" lon="2.28822">
        <ele>105.1</ele>
        <time>2023-07-12T09:21:08Z</time>
      </trkpt>
      <trkpt lat="49.7612" lon="2.2882">
        <ele>105.1</ele>
        <time>2023-07-12T09:21:09Z</time>
      </trkpt>
      <trkpt lat="49.76119" lon="2.28819">
        <ele>105.1</ele>
        <time>2023-07-12T09:21:10Z</time>
      </trkpt>
      <trkpt lat="49.76118" lon="2.28818">
        <ele>105.1</ele>
        <time>2023-07-12T09:21:12Z</time>
      </trkpt>
      <trkpt lat="49.76118" lon="2.28817">
        <ele>105.1</ele>
        <time>2023-07-12T09:21:13Z</time>
      </trkpt>
      <trkpt lat="49.76117" lon="2.28815">
        <ele>105.2</ele>
        <time>2023-07-12T09:21:14Z</time>
      </trkpt>
      <trkpt lat="49.76116" lon="2.28814">
        <ele>105.2</ele>
        <time>2023-07-12T09:21:15Z</time>
      </trkpt>
      <trkpt lat="49.76115" lon="2.28813">
        <ele>105.2</ele>
        <time>2023-07-12T09:21:16Z</time>
      </trkpt>
      <trkpt lat="49.76114" lon="2.28811">
        <ele>105.2</ele>
        <time>2023-07-12T09:21:17Z</time>
      </trkpt>
      <trkpt lat="49.76114" lon="2.2881">
        <ele>105.2</ele>
        <time>2023-07-12T09:21:18Z</time>
      </trkpt>
      <trkpt lat="49.76113" lon="2.28809">
        <ele>105.2</ele>
        <time>2023-07-12T09:21:20Z</time>
      </trkpt>
      <trkpt lat="49.76113" lon="2.28807">
        <ele>105.2</ele>
        <time>2023-07-12T09:21:21Z</time>
      </trkpt>
      <trkpt lat="49.76112" lon="2.28806">
        <ele>105.2</ele>
        <time>2023-07-12T09:21:22Z</time>
      </trkpt>
      <trkpt lat="49.76111" lon="2.28803">
        <ele>105.2</ele>
        <time>2023-07-12T09:21:23Z</time>
      </trkpt>
      <trkpt lat="49.7611" lon="2.28802">
        <ele>105.2</ele>
        <time>2023-07-12T09:21:24Z</time>
      </trkpt>
      <trkpt lat="49.7611" lon="2.28801">
        <ele>105.2</ele>
        <time>2023-07-12T09:21:25Z</time>
      </trkpt>
      <trkpt lat="49.76109" lon="2.288">
        <ele>105.2</ele>
        <time>2023-07-12T09:21:27Z</time>
      </trkpt>
      <trkpt lat="49.76108" lon="2.28798">
        <ele>105.2</ele>
        <time>2023-07-12T09:21:28Z</time>
      </trkpt>
      <trkpt lat="49.76108" lon="2.28797">
        <ele>105.2</ele>
        <time>2023-07-12T09:21:29Z</time>
      </trkpt>
      <trkpt lat="49.76107" lon="2.28795">
        <ele>105.2</ele>
        <time>2023-07-12T09:21:30Z</time>
      </trkpt>
      <trkpt lat="49.76106" lon="2.28793">
        <ele>105.2</ele>
        <time>2023-07-12T09:21:31Z</time>
      </trkpt>
      <trkpt lat="49.76105" lon="2.28792">
        <ele>105.2</ele>
        <time>2023-07-12T09:21:32Z</time>
      </trkpt>
      <trkpt lat="49.76104" lon="2.2879">
        <ele>105.2</ele>
        <time>2023-07-12T09:21:33Z</time>
      </trkpt>
      <trkpt lat="49.76103" lon="2.28788">
        <ele>105.2</ele>
        <time>2023-07-12T09:21:34Z</time>
      </trkpt>
      <trkpt lat="49.76102" lon="2.28786">
        <ele>105.2</ele>
        <time>2023-07-12T09:21:35Z</time>
      </trkpt>
      <trkpt lat="49.76101" lon="2.28785">
        <ele>105.2</ele>
        <time>2023-07-12T09:21:37Z</time>
      </trkpt>
      <trkpt lat="49.761" lon="2.28783">
        <ele>105.2</ele>
        <time>2023-07-12T09:21:38Z</time>
      </trkpt>
      <trkpt lat="49.761" lon="2.28781">
        <ele>105.2</ele>
        <time>2023-07-12T09:21:39Z</time>
      </trkpt>
      <trkpt lat="49.76099" lon="2.28779">
        <ele>105.2</ele>
        <time>2023-07-12T09:21:40Z</time>
      </trkpt>
      <trkpt lat="49.76098" lon="2.28777">
        <ele>105.2</ele>
        <time>2023-07-12T09:21:42Z</time>
      </trkpt>
      <trkpt lat="49.76097" lon="2.28776">
        <ele>105.2</ele>
        <time>2023-07-12T09:21:43Z</time>
      </trkpt>
      <trkpt lat="49.76096" lon="2.28774">
        <ele>105.2</ele>
        <time>2023-07-12T09:21:44Z</time>
      </trkpt>
      <trkpt lat="49.76095" lon="2.28772">
        <ele>105.3</ele>
        <time>2023-07-12T09:21:45Z</time>
      </trkpt>
      <trkpt lat="49.76094" lon="2.28769">
        <ele>105.3</ele>
        <time>2023-07-12T09:21:46Z</time>
      </trkpt>
      <trkpt lat="49.76094" lon="2.28768">
        <ele>105.3</ele>
        <time>2023-07-12T09:21:47Z</time>
      </trkpt>
      <trkpt lat="49.76093" lon="2.28767">
        <ele>105.3</ele>
        <time>2023-07-12T09:21:48Z</time>
      </trkpt>
      <trkpt lat="49.76092" lon="2.28766">
        <ele>105.3</ele>
        <time>2023-07-12T09:21:50Z</time>
      </trkpt>
      <trkpt lat="49.76091" lon="2.28764">
        <ele>105.3</ele>
        <time>2023-07-12T09:21:51Z</time>
      </trkpt>
      <trkpt lat="49.76089" lon="2.28762">
        <ele>105.3</ele>
        <time>2023-07-12T09:21:53Z</time>
      </trkpt>
      <trkpt lat="49.76089" lon="2.28761">
        <ele>105.3</ele>
        <time>2023-07-12T09:21:54Z</time>
      </trkpt>
      <trkpt lat="49.76088" lon="2.2876">
        <ele>105.3</ele>
        <time>2023-07-12T09:21:55Z</time>
      </trkpt>
      <trkpt lat="49.76087" lon="2.28759">
        <ele>105.4</ele>
        <time>2023-07-12T09:21:56Z</time>
      </trkpt>
      <trkpt lat="49.76087" lon="2.28758">
        <ele>105.4</ele>
        <time>2023-07-12T09:21:57Z</time>
      </trkpt>
      <trkpt lat="49.76086" lon="2.28757">
        <ele>105.4</ele>
        <time>2023-07-12T09:21:58Z</time>
      </trkpt>
      <trkpt lat="49.76086" lon="2.28756">
        <ele>105.4</ele>
        <time>2023-07-12T09:21:59Z</time>
      </trkpt>
      <trkpt lat="49.76085" lon="2.28754">
        <ele>105.4</ele>
        <time>2023-07-12T09:22:00Z</time>
      </trkpt>
      <trkpt lat="49.76084" lon="2.28753">
        <ele>105.4</ele>
        <time>2023-07-12T09:22:01Z</time>
      </trkpt>
      <trkpt lat="49.76084" lon="2.28751">
        <ele>105.4</ele>
        <time>2023-07-12T09:22:03Z</time>
      </trkpt>
      <trkpt lat="49.76083" lon="2.2875">
        <ele>105.4</ele>
        <time>2023-07-12T09:22:04Z</time>
      </trkpt>
      <trkpt lat="49.76083" lon="2.28748">
        <ele>105.4</ele>
        <time>2023-07-12T09:22:05Z</time>
      </trkpt>
      <trkpt lat="49.76082" lon="2.28746">
        <ele>105.4</ele>
        <time>2023-07-12T09:22:06Z</time>
      </trkpt>
      <trkpt lat="49.76082" lon="2.28745">
        <ele>105.4</ele>
        <time>2023-07-12T09:22:07Z</time>
      </trkpt>
      <trkpt lat="49.76081" lon="2.28743">
        <ele>105.5</ele>
        <time>2023-07-12T09:22:09Z</time>
      </trkpt>
      <trkpt lat="49.7608" lon="2.2874">
        <ele>105.5</ele>
        <time>2023-07-12T09:22:10Z</time>
      </trkpt>
      <trkpt lat="49.7608" lon="2.28739">
        <ele>105.5</ele>
        <time>2023-07-12T09:22:11Z</time>
      </trkpt>
      <trkpt lat="49.76079" lon="2.28738">
        <ele>105.5</ele>
        <time>2023-07-12T09:22:12Z</time>
      </trkpt>
      <trkpt lat="49.76079" lon="2.28736">
        <ele>105.5</ele>
        <time>2023-07-12T09:22:13Z</time>
      </trkpt>
      <trkpt lat="49.76079" lon="2.28735">
        <ele>105.5</ele>
        <time>2023-07-12T09:22:14Z</time>
      </trkpt>
      <trkpt lat="49.76078" lon="2.28733">
        <ele>105.5</ele>
        <time>2023-07-12T09:22:15Z</time>
      </trkpt>
      <trkpt lat="49.76078" lon="2.28731">
        <ele>105.5</ele>
        <time>2023-07-12T09:22:16Z</time>
      </trkpt>
      <trkpt lat="49.76077" lon="2.28729">
        <ele>105.5</ele>
        <time>2023-07-12T09:22:17Z</time>
      </trkpt>
      <trkpt lat="49.76077" lon="2.28728">
        <ele>105.5</ele>
        <time>2023-07-12T09:22:19Z</time>
      </trkpt>
      <trkpt lat="49.76076" lon="2.28727">
        <ele>105.5</ele>
        <time>2023-07-12T09:22:20Z</time>
      </trkpt>
      <trkpt lat="49.76076" lon="2.28725">
        <ele>105.5</ele>
        <time>2023-07-12T09:22:21Z</time>
      </trkpt>
      <trkpt lat="49.76075" lon="2.28724">
        <ele>105.6</ele>
        <time>2023-07-12T09:22:22Z</time>
      </trkpt>
      <trkpt lat="49.76075" lon="2.28722">
        <ele>105.6</ele>
        <time>2023-07-12T09:22:23Z</time>
      </trkpt>
      <trkpt lat="49.76075" lon="2.28721">
        <ele>105.6</ele>
        <time>2023-07-12T09:22:24Z</time>
      </trkpt>
      <trkpt lat="49.76074" lon="2.2872">
        <ele>105.6</ele>
        <time>2023-07-12T09:22:25Z</time>
      </trkpt>
      <trkpt lat="49.76073" lon="2.28717">
        <ele>105.6</ele>
        <time>2023-07-12T09:22:26Z</time>
      </trkpt>
      <trkpt lat="49.76073" lon="2.28716">
        <ele>105.6</ele>
        <time>2023-07-12T09:22:27Z</time>
      </trkpt>
      <trkpt lat="49.76072" lon="2.28715">
        <ele>105.6</ele>
        <time>2023-07-12T09:22:29Z</time>
      </trkpt>
      <trkpt lat="49.76072" lon="2.28713">
        <ele>105.6</ele>
        <time>2023-07-12T09:22:30Z</time>
      </trkpt>
      <trkpt lat="49.76071" lon="2.28712">
        <ele>105.6</ele>
        <time>2023-07-12T09:22:31Z</time>
      </trkpt>
      <trkpt lat="49.7607" lon="2.28711">
        <ele>105.6</ele>
        <time>2023-07-12T09:22:32Z</time>
      </trkpt>
      <trkpt lat="49.76069" lon="2.28708">
        <ele>105.6</ele>
        <time>2023-07-12T09:22:33Z</time>
      </trkpt>
      <trkpt lat="49.76069" lon="2.28707">
        <ele>105.6</ele>
        <time>2023-07-12T09:22:34Z</time>
      </trkpt>
      <trkpt lat="49.76068" lon="2.28706">
        <ele>105.6</ele>
        <time>2023-07-12T09:22:35Z</time>
      </trkpt>
      <trkpt lat="49.76068" lon="2.28705">
        <ele>105.6</ele>
        <time>2023-07-12T09:22:36Z</time>
      </trkpt>
      <trkpt lat="49.76067" lon="2.28704">
        <ele>105.6</ele>
        <time>2023-07-12T09:22:37Z</time>
      </trkpt>
      <trkpt lat="49.76066" lon="2.28702">
        <ele>105.6</ele>
        <time>2023-07-12T09:22:38Z</time>
      </trkpt>
      <trkpt lat="49.76065" lon="2.28699">
        <ele>105.7</ele>
        <time>2023-07-12T09:22:39Z</time>
      </trkpt>
      <trkpt lat="49.76065" lon="2.28698">
        <ele>105.7</ele>
        <time>2023-07-12T09:22:41Z</time>
      </trkpt>
      <trkpt lat="49.76064" lon="2.28697">
        <ele>105.7</ele>
        <time>2023-07-12T09:22:42Z</time>
      </trkpt>
      <trkpt lat="49.76063" lon="2.28696">
        <ele>105.7</ele>
        <time>2023-07-12T09:22:43Z</time>
      </trkpt>
      <trkpt lat="49.76063" lon="2.28694">
        <ele>105.7</ele>
        <time>2023-07-12T09:22:44Z</time>
      </trkpt>
      <trkpt lat="49.76061" lon="2.28691">
        <ele>105.7</ele>
        <time>2023-07-12T09:22:45Z</time>
      </trkpt>
      <trkpt lat="49.76061" lon="2.2869">
        <ele>105.7</ele>
        <time>2023-07-12T09:22:46Z</time>
      </trkpt>
      <trkpt lat="49.7606" lon="2.28688">
        <ele>105.7</ele>
        <time>2023-07-12T09:22:48Z</time>
      </trkpt>
      <trkpt lat="49.76059" lon="2.28687">
        <ele>105.7</ele>
        <time>2023-07-12T09:22:49Z</time>
      </trkpt>
      <trkpt lat="49.76059" lon="2.28686">
        <ele>105.7</ele>
        <time>2023-07-12T09:22:50Z</time>
      </trkpt>
      <trkpt lat="49.76058" lon="2.28684">
        <ele>105.7</ele>
        <time>2023-07-12T09:22:51Z</time>
      </trkpt>
      <trkpt lat="49.76057" lon="2.28682">
        <ele>105.8</ele>
        <time>2023-07-12T09:22:52Z</time>
      </trkpt>
      <trkpt lat="49.76056" lon="2.2868">
        <ele>105.8</ele>
        <time>2023-07-12T09:22:53Z</time>
      </trkpt>
      <trkpt lat="49.76055" lon="2.28679">
        <ele>105.8</ele>
        <time>2023-07-12T09:22:54Z</time>
      </trkpt>
      <trkpt lat="49.76055" lon="2.28677">
        <ele>105.8</ele>
        <time>2023-07-12T09:22:55Z</time>
      </trkpt>
      <trkpt lat="49.76054" lon="2.28675">
        <ele>105.8</ele>
        <time>2023-07-12T09:22:56Z</time>
      </trkpt>
      <trkpt lat="49.76054" lon="2.28674">
        <ele>105.8</ele>
        <time>2023-07-12T09:22:58Z</time>
      </trkpt>
      <trkpt lat="49.76053" lon="2.28672">
        <ele>105.8</ele>
        <time>2023-07-12T09:22:59Z</time>
      </trkpt>
      <trkpt lat="49.76053" lon="2.28671">
        <ele>105.8</ele>
        <time>2023-07-12T09:23:00Z</time>
      </trkpt>
      <trkpt lat="49.76053" lon="2.28669">
        <ele>105.8</ele>
        <time>2023-07-12T09:23:01Z</time>
      </trkpt>
      <trkpt lat="49.76053" lon="2.28668">
        <ele>105.8</ele>
        <time>2023-07-12T09:23:02Z</time>
      </trkpt>
      <trkpt lat="49.76053" lon="2.28665">
        <ele>105.9</ele>
        <time>2023-07-12T09:23:04Z</time>
      </trkpt>
      <trkpt lat="49.76053" lon="2.28664">
        <ele>105.9</ele>
        <time>2023-07-12T09:23:05Z</time>
      </trkpt>
      <trkpt lat="49.76053" lon="2.28663">
        <ele>105.9</ele>
        <time>2023-07-12T09:23:06Z</time>
      </trkpt>
      <trkpt lat="49.76052" lon="2.28662">
        <ele>105.9</ele>
        <time>2023-07-12T09:23:07Z</time>
      </trkpt>
      <trkpt lat="49.76051" lon="2.28661">
        <ele>105.9</ele>
        <time>2023-07-12T09:23:08Z</time>
      </trkpt>
      <trkpt lat="49.76051" lon="2.2866">
        <ele>105.9</ele>
        <time>2023-07-12T09:23:09Z</time>
      </trkpt>
      <trkpt lat="49.7605" lon="2.28658">
        <ele>105.9</ele>
        <time>2023-07-12T09:23:11Z</time>
      </trkpt>
      <trkpt lat="49.7605" lon="2.28657">
        <ele>105.9</ele>
        <time>2023-07-12T09:23:12Z</time>
      </trkpt>
      <trkpt lat="49.7605" lon="2.28656">
        <ele>105.9</ele>
        <time>2023-07-12T09:23:13Z</time>
      </trkpt>
      <trkpt lat="49.76049" lon="2.28654">
        <ele>105.9</ele>
        <time>2023-07-12T09:23:14Z</time>
      </trkpt>
      <trkpt lat="49.76049" lon="2.28653">
        <ele>105.9</ele>
        <time>2023-07-12T09:23:15Z</time>
      </trkpt>
      <trkpt lat="49.76048" lon="2.28651">
        <ele>105.9</ele>
        <time>2023-07-12T09:23:16Z</time>
      </trkpt>
      <trkpt lat="49.76048" lon="2.28649">
        <ele>105.9</ele>
        <time>2023-07-12T09:23:17Z</time>
      </trkpt>
      <trkpt lat="49.76047" lon="2.28646">
        <ele>105.9</ele>
        <time>2023-07-12T09:23:18Z</time>
      </trkpt>
      <trkpt lat="49.76047" lon="2.28645">
        <ele>105.9</ele>
        <time>2023-07-12T09:23:19Z</time>
      </trkpt>
      <trkpt lat="49.76047" lon="2.28644">
        <ele>105.9</ele>
        <time>2023-07-12T09:23:20Z</time>
      </trkpt>
      <trkpt lat="49.76046" lon="2.28642">
        <ele>105.9</ele>
        <time>2023-07-12T09:23:21Z</time>
      </trkpt>
      <trkpt lat="49.76046" lon="2.28641">
        <ele>106</ele>
        <time>2023-07-12T09:23:23Z</time>
      </trkpt>
      <trkpt lat="49.76045" lon="2.28639">
        <ele>106</ele>
        <time>2023-07-12T09:23:24Z</time>
      </trkpt>
      <trkpt lat="49.76045" lon="2.28638">
        <ele>106</ele>
        <time>2023-07-12T09:23:25Z</time>
      </trkpt>
      <trkpt lat="49.76044" lon="2.28635">
        <ele>106</ele>
        <time>2023-07-12T09:23:26Z</time>
      </trkpt>
      <trkpt lat="49.76044" lon="2.28634">
        <ele>106</ele>
        <time>2023-07-12T09:23:28Z</time>
      </trkpt>
      <trkpt lat="49.76044" lon="2.28632">
        <ele>106</ele>
        <time>2023-07-12T09:23:29Z</time>
      </trkpt>
      <trkpt lat="49.76044" lon="2.2863">
        <ele>106</ele>
        <time>2023-07-12T09:23:30Z</time>
      </trkpt>
      <trkpt lat="49.76043" lon="2.28629">
        <ele>106</ele>
        <time>2023-07-12T09:23:31Z</time>
      </trkpt>
      <trkpt lat="49.76043" lon="2.28627">
        <ele>106.1</ele>
        <time>2023-07-12T09:23:32Z</time>
      </trkpt>
      <trkpt lat="49.76043" lon="2.28625">
        <ele>106.1</ele>
        <time>2023-07-12T09:23:33Z</time>
      </trkpt>
      <trkpt lat="49.76042" lon="2.28624">
        <ele>106.1</ele>
        <time>2023-07-12T09:23:34Z</time>
      </trkpt>
      <trkpt lat="49.76042" lon="2.28622">
        <ele>106.1</ele>
        <time>2023-07-12T09:23:35Z</time>
      </trkpt>
      <trkpt lat="49.76042" lon="2.2862">
        <ele>106.1</ele>
        <time>2023-07-12T09:23:36Z</time>
      </trkpt>
      <trkpt lat="49.76041" lon="2.28617">
        <ele>106.1</ele>
        <time>2023-07-12T09:23:38Z</time>
      </trkpt>
      <trkpt lat="49.7604" lon="2.28616">
        <ele>106.1</ele>
        <time>2023-07-12T09:23:39Z</time>
      </trkpt>
      <trkpt lat="49.7604" lon="2.28615">
        <ele>106.1</ele>
        <time>2023-07-12T09:23:40Z</time>
      </trkpt>
      <trkpt lat="49.76039" lon="2.28612">
        <ele>106.1</ele>
        <time>2023-07-12T09:23:41Z</time>
      </trkpt>
      <trkpt lat="49.76039" lon="2.28611">
        <ele>106.1</ele>
        <time>2023-07-12T09:23:42Z</time>
      </trkpt>
      <trkpt lat="49.76038" lon="2.2861">
        <ele>106.1</ele>
        <time>2023-07-12T09:23:43Z</time>
      </trkpt>
      <trkpt lat="49.76038" lon="2.28608">
        <ele>106.2</ele>
        <time>2023-07-12T09:23:44Z</time>
      </trkpt>
      <trkpt lat="49.76037" lon="2.28606">
        <ele>106.2</ele>
        <time>2023-07-12T09:23:45Z</time>
      </trkpt>
      <trkpt lat="49.76037" lon="2.28605">
        <ele>106.2</ele>
        <time>2023-07-12T09:23:46Z</time>
      </trkpt>
      <trkpt lat="49.76036" lon="2.28602">
        <ele>106.2</ele>
        <time>2023-07-12T09:23:48Z</time>
      </trkpt>
      <trkpt lat="49.76035" lon="2.28601">
        <ele>106.2</ele>
        <time>2023-07-12T09:23:49Z</time>
      </trkpt>
      <trkpt lat="49.76035" lon="2.286">
        <ele>106.2</ele>
        <time>2023-07-12T09:23:50Z</time>
      </trkpt>
      <trkpt lat="49.76034" lon="2.28599">
        <ele>106.2</ele>
        <time>2023-07-12T09:23:51Z</time>
      </trkpt>
      <trkpt lat="49.76033" lon="2.28598">
        <ele>106.2</ele>
        <time>2023-07-12T09:23:52Z</time>
      </trkpt>
      <trkpt lat="49.76032" lon="2.28597">
        <ele>106.2</ele>
        <time>2023-07-12T09:23:53Z</time>
      </trkpt>
      <trkpt lat="49.76032" lon="2.28596">
        <ele>106.2</ele>
        <time>2023-07-12T09:23:55Z</time>
      </trkpt>
      <trkpt lat="49.76031" lon="2.28594">
        <ele>106.2</ele>
        <time>2023-07-12T09:23:56Z</time>
      </trkpt>
      <trkpt lat="49.76031" lon="2.28593">
        <ele>106.3</ele>
        <time>2023-07-12T09:23:57Z</time>
      </trkpt>
      <trkpt lat="49.7603" lon="2.28591">
        <ele>106.3</ele>
        <time>2023-07-12T09:23:58Z</time>
      </trkpt>
      <trkpt lat="49.76029" lon="2.28589">
        <ele>106.3</ele>
        <time>2023-07-12T09:23:59Z</time>
      </trkpt>
      <trkpt lat="49.76028" lon="2.28585">
        <ele>106.3</ele>
        <time>2023-07-12T09:24:00Z</time>
      </trkpt>
      <trkpt lat="49.76028" lon="2.28584">
        <ele>106.3</ele>
        <time>2023-07-12T09:24:02Z</time>
      </trkpt>
      <trkpt lat="49.76027" lon="2.28583">
        <ele>106.3</ele>
        <time>2023-07-12T09:24:03Z</time>
      </trkpt>
      <trkpt lat="49.76027" lon="2.28581">
        <ele>106.4</ele>
        <time>2023-07-12T09:24:04Z</time>
      </trkpt>
      <trkpt lat="49.76026" lon="2.28578">
        <ele>106.4</ele>
        <time>2023-07-12T09:24:05Z</time>
      </trkpt>
      <trkpt lat="49.76025" lon="2.28574">
        <ele>106.4</ele>
        <time>2023-07-12T09:24:06Z</time>
      </trkpt>
      <trkpt lat="49.76025" lon="2.28573">
        <ele>106.4</ele>
        <time>2023-07-12T09:24:08Z</time>
      </trkpt>
      <trkpt lat="49.76024" lon="2.28571">
        <ele>106.4</ele>
        <time>2023-07-12T09:24:09Z</time>
      </trkpt>
      <trkpt lat="49.76024" lon="2.2857">
        <ele>106.4</ele>
        <time>2023-07-12T09:24:10Z</time>
      </trkpt>
      <trkpt lat="49.76024" lon="2.28568">
        <ele>106.5</ele>
        <time>2023-07-12T09:24:11Z</time>
      </trkpt>
      <trkpt lat="49.76023" lon="2.28566">
        <ele>106.5</ele>
        <time>2023-07-12T09:24:12Z</time>
      </trkpt>
      <trkpt lat="49.76022" lon="2.28564">
        <ele>106.5</ele>
        <time>2023-07-12T09:24:13Z</time>
      </trkpt>
      <trkpt lat="49.76022" lon="2.28563">
        <ele>106.5</ele>
        <time>2023-07-12T09:24:14Z</time>
      </trkpt>
      <trkpt lat="49.76022" lon="2.28561">
        <ele>106.5</ele>
        <time>2023-07-12T09:24:15Z</time>
      </trkpt>
      <trkpt lat="49.76021" lon="2.28559">
        <ele>106.5</ele>
        <time>2023-07-12T09:24:17Z</time>
      </trkpt>
      <trkpt lat="49.7602" lon="2.28556">
        <ele>106.6</ele>
        <time>2023-07-12T09:24:18Z</time>
      </trkpt>
      <trkpt lat="49.7602" lon="2.28554">
        <ele>106.6</ele>
        <time>2023-07-12T09:24:19Z</time>
      </trkpt>
      <trkpt lat="49.7602" lon="2.28553">
        <ele>106.6</ele>
        <time>2023-07-12T09:24:20Z</time>
      </trkpt>
      <trkpt lat="49.76019" lon="2.2855">
        <ele>106.6</ele>
        <time>2023-07-12T09:24:21Z</time>
      </trkpt>
      <trkpt lat="49.76019" lon="2.28549">
        <ele>106.6</ele>
        <time>2023-07-12T09:24:22Z</time>
      </trkpt>
      <trkpt lat="49.76019" lon="2.28547">
        <ele>106.6</ele>
        <time>2023-07-12T09:24:23Z</time>
      </trkpt>
      <trkpt lat="49.76018" lon="2.28546">
        <ele>106.6</ele>
        <time>2023-07-12T09:24:24Z</time>
      </trkpt>
      <trkpt lat="49.76018" lon="2.28544">
        <ele>106.7</ele>
        <time>2023-07-12T09:24:25Z</time>
      </trkpt>
      <trkpt lat="49.76017" lon="2.28542">
        <ele>106.7</ele>
        <time>2023-07-12T09:24:26Z</time>
      </trkpt>
      <trkpt lat="49.76017" lon="2.28539">
        <ele>106.7</ele>
        <time>2023-07-12T09:24:28Z</time>
      </trkpt>
      <trkpt lat="49.76016" lon="2.28538">
        <ele>106.7</ele>
        <time>2023-07-12T09:24:29Z</time>
      </trkpt>
      <trkpt lat="49.76016" lon="2.28537">
        <ele>106.7</ele>
        <time>2023-07-12T09:24:30Z</time>
      </trkpt>
      <trkpt lat="49.76015" lon="2.28534">
        <ele>106.7</ele>
        <time>2023-07-12T09:24:31Z</time>
      </trkpt>
      <trkpt lat="49.76014" lon="2.28533">
        <ele>106.8</ele>
        <time>2023-07-12T09:24:32Z</time>
      </trkpt>
      <trkpt lat="49.76014" lon="2.28532">
        <ele>106.8</ele>
        <time>2023-07-12T09:24:33Z</time>
      </trkpt>
      <trkpt lat="49.76013" lon="2.2853">
        <ele>106.8</ele>
        <time>2023-07-12T09:24:34Z</time>
      </trkpt>
      <trkpt lat="49.76013" lon="2.28529">
        <ele>106.8</ele>
        <time>2023-07-12T09:24:36Z</time>
      </trkpt>
      <trkpt lat="49.76012" lon="2.28527">
        <ele>106.8</ele>
        <time>2023-07-12T09:24:37Z</time>
      </trkpt>
      <trkpt lat="49.76011" lon="2.28525">
        <ele>106.8</ele>
        <time>2023-07-12T09:24:38Z</time>
      </trkpt>
      <trkpt lat="49.7601" lon="2.28524">
        <ele>106.8</ele>
        <time>2023-07-12T09:24:39Z</time>
      </trkpt>
      <trkpt lat="49.7601" lon="2.28522">
        <ele>106.9</ele>
        <time>2023-07-12T09:24:40Z</time>
      </trkpt>
      <trkpt lat="49.76009" lon="2.28521">
        <ele>106.9</ele>
        <time>2023-07-12T09:24:41Z</time>
      </trkpt>
      <trkpt lat="49.76009" lon="2.2852">
        <ele>106.9</ele>
        <time>2023-07-12T09:24:42Z</time>
      </trkpt>
      <trkpt lat="49.76008" lon="2.28518">
        <ele>106.9</ele>
        <time>2023-07-12T09:24:44Z</time>
      </trkpt>
      <trkpt lat="49.76008" lon="2.28517">
        <ele>106.9</ele>
        <time>2023-07-12T09:24:45Z</time>
      </trkpt>
      <trkpt lat="49.76007" lon="2.28515">
        <ele>106.9</ele>
        <time>2023-07-12T09:24:46Z</time>
      </trkpt>
      <trkpt lat="49.76007" lon="2.28513">
        <ele>106.9</ele>
        <time>2023-07-12T09:24:47Z</time>
      </trkpt>
      <trkpt lat="49.76007" lon="2.28512">
        <ele>107</ele>
        <time>2023-07-12T09:24:48Z</time>
      </trkpt>
      <trkpt lat="49.76007" lon="2.2851">
        <ele>107</ele>
        <time>2023-07-12T09:24:49Z</time>
      </trkpt>
      <trkpt lat="49.76006" lon="2.28509">
        <ele>107</ele>
        <time>2023-07-12T09:24:50Z</time>
      </trkpt>
      <trkpt lat="49.76006" lon="2.28507">
        <ele>107</ele>
        <time>2023-07-12T09:24:52Z</time>
      </trkpt>
      <trkpt lat="49.76005" lon="2.28506">
        <ele>107</ele>
        <time>2023-07-12T09:24:53Z</time>
      </trkpt>
      <trkpt lat="49.76005" lon="2.28504">
        <ele>107</ele>
        <time>2023-07-12T09:24:54Z</time>
      </trkpt>
      <trkpt lat="49.76004" lon="2.28502">
        <ele>107.1</ele>
        <time>2023-07-12T09:24:55Z</time>
      </trkpt>
      <trkpt lat="49.76004" lon="2.28501">
        <ele>107.1</ele>
        <time>2023-07-12T09:24:56Z</time>
      </trkpt>
      <trkpt lat="49.76004" lon="2.28499">
        <ele>107.1</ele>
        <time>2023-07-12T09:24:57Z</time>
      </trkpt>
      <trkpt lat="49.76004" lon="2.28497">
        <ele>107.1</ele>
        <time>2023-07-12T09:24:59Z</time>
      </trkpt>
      <trkpt lat="49.76005" lon="2.28496">
        <ele>107.2</ele>
        <time>2023-07-12T09:25:00Z</time>
      </trkpt>
      <trkpt lat="49.76006" lon="2.28494">
        <ele>107.2</ele>
        <time>2023-07-12T09:25:01Z</time>
      </trkpt>
      <trkpt lat="49.76007" lon="2.28493">
        <ele>107.2</ele>
        <time>2023-07-12T09:25:02Z</time>
      </trkpt>
      <trkpt lat="49.76008" lon="2.28491">
        <ele>107.3</ele>
        <time>2023-07-12T09:25:04Z</time>
      </trkpt>
      <trkpt lat="49.76009" lon="2.2849">
        <ele>107.3</ele>
        <time>2023-07-12T09:25:05Z</time>
      </trkpt>
      <trkpt lat="49.7601" lon="2.28489">
        <ele>107.4</ele>
        <time>2023-07-12T09:25:07Z</time>
      </trkpt>
      <trkpt lat="49.76011" lon="2.28488">
        <ele>107.4</ele>
        <time>2023-07-12T09:25:08Z</time>
      </trkpt>
      <trkpt lat="49.76012" lon="2.28487">
        <ele>107.5</ele>
        <time>2023-07-12T09:25:09Z</time>
      </trkpt>
      <trkpt lat="49.76013" lon="2.28485">
        <ele>107.5</ele>
        <time>2023-07-12T09:25:10Z</time>
      </trkpt>
      <trkpt lat="49.76014" lon="2.28484">
        <ele>107.6</ele>
        <time>2023-07-12T09:25:12Z</time>
      </trkpt>
      <trkpt lat="49.76015" lon="2.28483">
        <ele>107.7</ele>
        <time>2023-07-12T09:25:13Z</time>
      </trkpt>
      <trkpt lat="49.76016" lon="2.28482">
        <ele>107.7</ele>
        <time>2023-07-12T09:25:14Z</time>
      </trkpt>
      <trkpt lat="49.76017" lon="2.28481">
        <ele>107.8</ele>
        <time>2023-07-12T09:25:15Z</time>
      </trkpt>
      <trkpt lat="49.76018" lon="2.28479">
        <ele>107.9</ele>
        <time>2023-07-12T09:25:16Z</time>
      </trkpt>
      <trkpt lat="49.7602" lon="2.28476">
        <ele>108</ele>
        <time>2023-07-12T09:25:18Z</time>
      </trkpt>
      <trkpt lat="49.7602" lon="2.28475">
        <ele>108.1</ele>
        <time>2023-07-12T09:25:19Z</time>
      </trkpt>
      <trkpt lat="49.76021" lon="2.28474">
        <ele>108.1</ele>
        <time>2023-07-12T09:25:20Z</time>
      </trkpt>
      <trkpt lat="49.76022" lon="2.28472">
        <ele>108.2</ele>
        <time>2023-07-12T09:25:21Z</time>
      </trkpt>
      <trkpt lat="49.76023" lon="2.2847">
        <ele>108.3</ele>
        <time>2023-07-12T09:25:22Z</time>
      </trkpt>
      <trkpt lat="49.76024" lon="2.28469">
        <ele>108.4</ele>
        <time>2023-07-12T09:25:24Z</time>
      </trkpt>
      <trkpt lat="49.76025" lon="2.28467">
        <ele>108.5</ele>
        <time>2023-07-12T09:25:25Z</time>
      </trkpt>
      <trkpt lat="49.76026" lon="2.28465">
        <ele>108.7</ele>
        <time>2023-07-12T09:25:26Z</time>
      </trkpt>
      <trkpt lat="49.76027" lon="2.28464">
        <ele>108.8</ele>
        <time>2023-07-12T09:25:27Z</time>
      </trkpt>
      <trkpt lat="49.76028" lon="2.28463">
        <ele>108.9</ele>
        <time>2023-07-12T09:25:28Z</time>
      </trkpt>
      <trkpt lat="49.7603" lon="2.28459">
        <ele>109.1</ele>
        <time>2023-07-12T09:25:30Z</time>
      </trkpt>
      <trkpt lat="49.76031" lon="2.28458">
        <ele>109.2</ele>
        <time>2023-07-12T09:25:32Z</time>
      </trkpt>
      <trkpt lat="49.76031" lon="2.28457">
        <ele>109.3</ele>
        <time>2023-07-12T09:25:33Z</time>
      </trkpt>
      <trkpt lat="49.76032" lon="2.28456">
        <ele>109.4</ele>
        <time>2023-07-12T09:25:34Z</time>
      </trkpt>
      <trkpt lat="49.76032" lon="2.28455">
        <ele>109.5</ele>
        <time>2023-07-12T09:25:35Z</time>
      </trkpt>
      <trkpt lat="49.76033" lon="2.28453">
        <ele>109.6</ele>
        <time>2023-07-12T09:25:36Z</time>
      </trkpt>
      <trkpt lat="49.76034" lon="2.28452">
        <ele>109.7</ele>
        <time>2023-07-12T09:25:38Z</time>
      </trkpt>
      <trkpt lat="49.76034" lon="2.28451">
        <ele>109.8</ele>
        <time>2023-07-12T09:25:39Z</time>
      </trkpt>
      <trkpt lat="49.76035" lon="2.28449">
        <ele>109.9</ele>
        <time>2023-07-12T09:25:40Z</time>
      </trkpt>
      <trkpt lat="49.76035" lon="2.28447">
        <ele>110.1</ele>
        <time>2023-07-12T09:25:41Z</time>
      </trkpt>
      <trkpt lat="49.76036" lon="2.28446">
        <ele>110.2</ele>
        <time>2023-07-12T09:25:43Z</time>
      </trkpt>
      <trkpt lat="49.76036" lon="2.28445">
        <ele>110.3</ele>
        <time>2023-07-12T09:25:44Z</time>
      </trkpt>
      <trkpt lat="49.76037" lon="2.28443">
        <ele>110.4</ele>
        <time>2023-07-12T09:25:45Z</time>
      </trkpt>
      <trkpt lat="49.76038" lon="2.28441">
        <ele>110.6</ele>
        <time>2023-07-12T09:25:46Z</time>
      </trkpt>
      <trkpt lat="49.76039" lon="2.28438">
        <ele>110.9</ele>
        <time>2023-07-12T09:25:47Z</time>
      </trkpt>
      <trkpt lat="49.76039" lon="2.28437">
        <ele>111</ele>
        <time>2023-07-12T09:25:49Z</time>
      </trkpt>
      <trkpt lat="49.76039" lon="2.28436">
        <ele>111.1</ele>
        <time>2023-07-12T09:25:50Z</time>
      </trkpt>
      <trkpt lat="49.7604" lon="2.28434">
        <ele>111.3</ele>
        <time>2023-07-12T09:25:51Z</time>
      </trkpt>
      <trkpt lat="49.76041" lon="2.28432">
        <ele>111.5</ele>
        <time>2023-07-12T09:25:53Z</time>
      </trkpt>
      <trkpt lat="49.76041" lon="2.2843">
        <ele>111.7</ele>
        <time>2023-07-12T09:25:55Z</time>
      </trkpt>
      <trkpt lat="49.76042" lon="2.28429">
        <ele>111.8</ele>
        <time>2023-07-12T09:25:56Z</time>
      </trkpt>
      <trkpt lat="49.76042" lon="2.28427">
        <ele>112</ele>
        <time>2023-07-12T09:25:57Z</time>
      </trkpt>
      <trkpt lat="49.76043" lon="2.28426">
        <ele>112.2</ele>
        <time>2023-07-12T09:25:58Z</time>
      </trkpt>
      <trkpt lat="49.76044" lon="2.28423">
        <ele>112.4</ele>
        <time>2023-07-12T09:26:00Z</time>
      </trkpt>
      <trkpt lat="49.76044" lon="2.28421">
        <ele>112.6</ele>
        <time>2023-07-12T09:26:02Z</time>
      </trkpt>
      <trkpt lat="49.76045" lon="2.2842">
        <ele>112.8</ele>
        <time>2023-07-12T09:26:03Z</time>
      </trkpt>
      <trkpt lat="49.76045" lon="2.28419">
        <ele>112.9</ele>
        <time>2023-07-12T09:26:04Z</time>
      </trkpt>
      <trkpt lat="49.76046" lon="2.28418">
        <ele>113.1</ele>
        <time>2023-07-12T09:26:06Z</time>
      </trkpt>
      <trkpt lat="49.76047" lon="2.28417">
        <ele>113.2</ele>
        <time>2023-07-12T09:26:07Z</time>
      </trkpt>
      <trkpt lat="49.76047" lon="2.28416">
        <ele>113.4</ele>
        <time>2023-07-12T09:26:08Z</time>
      </trkpt>
      <trkpt lat="49.76048" lon="2.28414">
        <ele>113.5</ele>
        <time>2023-07-12T09:26:09Z</time>
      </trkpt>
      <trkpt lat="49.76048" lon="2.28413">
        <ele>113.6</ele>
        <time>2023-07-12T09:26:10Z</time>
      </trkpt>
      <trkpt lat="49.76048" lon="2.28412">
        <ele>113.8</ele>
        <time>2023-07-12T09:26:12Z</time>
      </trkpt>
      <trkpt lat="49.76049" lon="2.28412">
        <ele>113.9</ele>
        <time>2023-07-12T09:26:13Z</time>
      </trkpt>
      <trkpt lat="49.76049" lon="2.28411">
        <ele>114</ele>
        <time>2023-07-12T09:26:14Z</time>
      </trkpt>
      <trkpt lat="49.7605" lon="2.2841">
        <ele>114.1</ele>
        <time>2023-07-12T09:26:15Z</time>
      </trkpt>
      <trkpt lat="49.7605" lon="2.28409">
        <ele>114.2</ele>
        <time>2023-07-12T09:26:16Z</time>
      </trkpt>
      <trkpt lat="49.76051" lon="2.28408">
        <ele>114.3</ele>
        <time>2023-07-12T09:26:17Z</time>
      </trkpt>
      <trkpt lat="49.76051" lon="2.28407">
        <ele>114.4</ele>
        <time>2023-07-12T09:26:19Z</time>
      </trkpt>
      <trkpt lat="49.76051" lon="2.28406">
        <ele>114.5</ele>
        <time>2023-07-12T09:26:20Z</time>
      </trkpt>
      <trkpt lat="49.76052" lon="2.28405">
        <ele>114.7</ele>
        <time>2023-07-12T09:26:21Z</time>
      </trkpt>
      <trkpt lat="49.76052" lon="2.28404">
        <ele>114.8</ele>
        <time>2023-07-12T09:26:22Z</time>
      </trkpt>
      <trkpt lat="49.76053" lon="2.28402">
        <ele>115</ele>
        <time>2023-07-12T09:26:23Z</time>
      </trkpt>
      <trkpt lat="49.76053" lon="2.28401">
        <ele>115.1</ele>
        <time>2023-07-12T09:26:25Z</time>
      </trkpt>
      <trkpt lat="49.76053" lon="2.284">
        <ele>115.2</ele>
        <time>2023-07-12T09:26:26Z</time>
      </trkpt>
      <trkpt lat="49.76054" lon="2.28399">
        <ele>115.4</ele>
        <time>2023-07-12T09:26:27Z</time>
      </trkpt>
      <trkpt lat="49.76055" lon="2.28397">
        <ele>115.6</ele>
        <time>2023-07-12T09:26:28Z</time>
      </trkpt>
      <trkpt lat="49.76055" lon="2.28396">
        <ele>115.7</ele>
        <time>2023-07-12T09:26:30Z</time>
      </trkpt>
      <trkpt lat="49.76055" lon="2.28395">
        <ele>115.8</ele>
        <time>2023-07-12T09:26:31Z</time>
      </trkpt>
      <trkpt lat="49.76056" lon="2.28394">
        <ele>116</ele>
        <time>2023-07-12T09:26:32Z</time>
      </trkpt>
      <trkpt lat="49.76056" lon="2.28393">
        <ele>116.1</ele>
        <time>2023-07-12T09:26:34Z</time>
      </trkpt>
      <trkpt lat="49.76056" lon="2.28393">
        <ele>116.2</ele>
        <time>2023-07-12T09:26:35Z</time>
      </trkpt>
      <trkpt lat="49.76057" lon="2.28392">
        <ele>116.3</ele>
        <time>2023-07-12T09:26:36Z</time>
      </trkpt>
      <trkpt lat="49.76057" lon="2.2839">
        <ele>116.5</ele>
        <time>2023-07-12T09:26:37Z</time>
      </trkpt>
      <trkpt lat="49.76057" lon="2.2839">
        <ele>116.6</ele>
        <time>2023-07-12T09:26:38Z</time>
      </trkpt>
      <trkpt lat="49.76058" lon="2.28388">
        <ele>116.7</ele>
        <time>2023-07-12T09:26:39Z</time>
      </trkpt>
      <trkpt lat="49.76058" lon="2.28387">
        <ele>116.8</ele>
        <time>2023-07-12T09:26:41Z</time>
      </trkpt>
      <trkpt lat="49.76059" lon="2.28386">
        <ele>117</ele>
        <time>2023-07-12T09:26:42Z</time>
      </trkpt>
      <trkpt lat="49.76059" lon="2.28385">
        <ele>117.1</ele>
        <time>2023-07-12T09:26:43Z</time>
      </trkpt>
      <trkpt lat="49.76059" lon="2.28384">
        <ele>117.2</ele>
        <time>2023-07-12T09:26:44Z</time>
      </trkpt>
      <trkpt lat="49.7606" lon="2.28383">
        <ele>117.3</ele>
        <time>2023-07-12T09:26:45Z</time>
      </trkpt>
      <trkpt lat="49.7606" lon="2.28382">
        <ele>117.5</ele>
        <time>2023-07-12T09:26:47Z</time>
      </trkpt>
      <trkpt lat="49.7606" lon="2.28382">
        <ele>117.5</ele>
        <time>2023-07-12T09:26:48Z</time>
      </trkpt>
      <trkpt lat="49.7606" lon="2.28382">
        <ele>117.6</ele>
        <time>2023-07-12T09:26:49Z</time>
      </trkpt>
      <trkpt lat="49.76061" lon="2.28381">
        <ele>117.6</ele>
        <time>2023-07-12T09:26:50Z</time>
      </trkpt>
      <trkpt lat="49.76061" lon="2.28381">
        <ele>117.7</ele>
        <time>2023-07-12T09:26:51Z</time>
      </trkpt>
      <trkpt lat="49.76061" lon="2.28381">
        <ele>117.7</ele>
        <time>2023-07-12T09:26:52Z</time>
      </trkpt>
      <trkpt lat="49.76061" lon="2.2838">
        <ele>117.7</ele>
        <time>2023-07-12T09:26:53Z</time>
      </trkpt>
      <trkpt lat="49.76061" lon="2.28379">
        <ele>117.8</ele>
        <time>2023-07-12T09:26:54Z</time>
      </trkpt>
      <trkpt lat="49.76062" lon="2.28379">
        <ele>117.8</ele>
        <time>2023-07-12T09:26:56Z</time>
      </trkpt>
      <trkpt lat="49.76062" lon="2.28378">
        <ele>117.9</ele>
        <time>2023-07-12T09:26:57Z</time>
      </trkpt>
      <trkpt lat="49.76062" lon="2.28377">
        <ele>118</ele>
        <time>2023-07-12T09:26:58Z</time>
      </trkpt>
      <trkpt lat="49.76062" lon="2.28377">
        <ele>118</ele>
        <time>2023-07-12T09:26:59Z</time>
      </trkpt>
      <trkpt lat="49.76062" lon="2.28376">
        <ele>118.1</ele>
        <time>2023-07-12T09:27:00Z</time>
      </trkpt>
      <trkpt lat="49.76063" lon="2.28375">
        <ele>118.1</ele>
        <time>2023-07-12T09:27:01Z</time>
      </trkpt>
      <trkpt lat="49.76063" lon="2.28374">
        <ele>118.2</ele>
        <time>2023-07-12T09:27:02Z</time>
      </trkpt>
      <trkpt lat="49.76064" lon="2.28373">
        <ele>118.3</ele>
        <time>2023-07-12T09:27:04Z</time>
      </trkpt>
      <trkpt lat="49.76064" lon="2.28372">
        <ele>118.4</ele>
        <time>2023-07-12T09:27:06Z</time>
      </trkpt>
      <trkpt lat="49.76064" lon="2.28372">
        <ele>118.4</ele>
        <time>2023-07-12T09:27:07Z</time>
      </trkpt>
      <trkpt lat="49.76065" lon="2.28371">
        <ele>118.5</ele>
        <time>2023-07-12T09:27:08Z</time>
      </trkpt>
      <trkpt lat="49.76065" lon="2.28371">
        <ele>118.5</ele>
        <time>2023-07-12T09:27:09Z</time>
      </trkpt>
      <trkpt lat="49.76065" lon="2.2837">
        <ele>118.6</ele>
        <time>2023-07-12T09:27:10Z</time>
      </trkpt>
      <trkpt lat="49.76065" lon="2.28369">
        <ele>118.6</ele>
        <time>2023-07-12T09:27:12Z</time>
      </trkpt>
      <trkpt lat="49.76065" lon="2.28368">
        <ele>118.7</ele>
        <time>2023-07-12T09:27:13Z</time>
      </trkpt>
      <trkpt lat="49.76066" lon="2.28368">
        <ele>118.7</ele>
        <time>2023-07-12T09:27:14Z</time>
      </trkpt>
      <trkpt lat="49.76066" lon="2.28367">
        <ele>118.8</ele>
        <time>2023-07-12T09:27:15Z</time>
      </trkpt>
      <trkpt lat="49.76066" lon="2.28365">
        <ele>118.9</ele>
        <time>2023-07-12T09:27:17Z</time>
      </trkpt>
      <trkpt lat="49.76066" lon="2.28365">
        <ele>119</ele>
        <time>2023-07-12T09:27:18Z</time>
      </trkpt>
      <trkpt lat="49.76066" lon="2.28364">
        <ele>119</ele>
        <time>2023-07-12T09:27:20Z</time>
      </trkpt>
      <trkpt lat="49.76066" lon="2.28363">
        <ele>119</ele>
        <time>2023-07-12T09:27:21Z</time>
      </trkpt>
      <trkpt lat="49.76066" lon="2.28363">
        <ele>119.1</ele>
        <time>2023-07-12T09:27:22Z</time>
      </trkpt>
      <trkpt lat="49.76066" lon="2.28363">
        <ele>119.1</ele>
        <time>2023-07-12T09:27:23Z</time>
      </trkpt>
      <trkpt lat="49.76066" lon="2.28362">
        <ele>119.2</ele>
        <time>2023-07-12T09:27:24Z</time>
      </trkpt>
      <trkpt lat="49.76066" lon="2.28362">
        <ele>119.2</ele>
        <time>2023-07-12T09:27:26Z</time>
      </trkpt>
      <trkpt lat="49.76066" lon="2.28361">
        <ele>119.2</ele>
        <time>2023-07-12T09:27:27Z</time>
      </trkpt>
      <trkpt lat="49.76066" lon="2.2836">
        <ele>119.3</ele>
        <time>2023-07-12T09:27:28Z</time>
      </trkpt>
      <trkpt lat="49.76066" lon="2.28359">
        <ele>119.4</ele>
        <time>2023-07-12T09:27:29Z</time>
      </trkpt>
      <trkpt lat="49.76067" lon="2.28358">
        <ele>119.5</ele>
        <time>2023-07-12T09:27:30Z</time>
      </trkpt>
      <trkpt lat="49.76067" lon="2.28357">
        <ele>119.6</ele>
        <time>2023-07-12T09:27:32Z</time>
      </trkpt>
      <trkpt lat="49.76067" lon="2.28356">
        <ele>119.7</ele>
        <time>2023-07-12T09:27:33Z</time>
      </trkpt>
      <trkpt lat="49.76068" lon="2.28354">
        <ele>119.8</ele>
        <time>2023-07-12T09:27:34Z</time>
      </trkpt>
      <trkpt lat="49.76068" lon="2.28354">
        <ele>119.9</ele>
        <time>2023-07-12T09:27:35Z</time>
      </trkpt>
      <trkpt lat="49.76069" lon="2.28352">
        <ele>120</ele>
        <time>2023-07-12T09:27:37Z</time>
      </trkpt>
      <trkpt lat="49.76069" lon="2.28351">
        <ele>120.1</ele>
        <time>2023-07-12T09:27:39Z</time>
      </trkpt>
      <trkpt lat="49.7607" lon="2.28351">
        <ele>120.2</ele>
        <time>2023-07-12T09:27:40Z</time>
      </trkpt>
      <trkpt lat="49.7607" lon="2.2835">
        <ele>120.3</ele>
        <time>2023-07-12T09:27:41Z</time>
      </trkpt>
      <trkpt lat="49.7607" lon="2.28349">
        <ele>120.4</ele>
        <time>2023-07-12T09:27:43Z</time>
      </trkpt>
      <trkpt lat="49.76071" lon="2.28349">
        <ele>120.4</ele>
        <time>2023-07-12T09:27:44Z</time>
      </trkpt>
      <trkpt lat="49.76071" lon="2.28348">
        <ele>120.4</ele>
        <time>2023-07-12T09:27:45Z</time>
      </trkpt>
      <trkpt lat="49.76071" lon="2.28348">
        <ele>120.5</ele>
        <time>2023-07-12T09:27:46Z</time>
      </trkpt>
      <trkpt lat="49.76071" lon="2.28348">
        <ele>120.5</ele>
        <time>2023-07-12T09:27:48Z</time>
      </trkpt>
      <trkpt lat="49.76072" lon="2.28347">
        <ele>120.6</ele>
        <time>2023-07-12T09:27:49Z</time>
      </trkpt>
      <trkpt lat="49.76072" lon="2.28347">
        <ele>120.7</ele>
        <time>2023-07-12T09:27:51Z</time>
      </trkpt>
      <trkpt lat="49.76072" lon="2.28346">
        <ele>120.8</ele>
        <time>2023-07-12T09:27:52Z</time>
      </trkpt>
      <trkpt lat="49.76073" lon="2.28345">
        <ele>120.9</ele>
        <time>2023-07-12T09:27:53Z</time>
      </trkpt>
      <trkpt lat="49.76074" lon="2.28344">
        <ele>121</ele>
        <time>2023-07-12T09:27:55Z</time>
      </trkpt>
      <trkpt lat="49.76074" lon="2.28343">
        <ele>121.2</ele>
        <time>2023-07-12T09:27:56Z</time>
      </trkpt>
      <trkpt lat="49.76075" lon="2.28341">
        <ele>121.4</ele>
        <time>2023-07-12T09:27:57Z</time>
      </trkpt>
      <trkpt lat="49.76076" lon="2.2834">
        <ele>121.5</ele>
        <time>2023-07-12T09:27:59Z</time>
      </trkpt>
      <trkpt lat="49.76077" lon="2.28339">
        <ele>121.6</ele>
        <time>2023-07-12T09:28:00Z</time>
      </trkpt>
      <trkpt lat="49.76077" lon="2.28337">
        <ele>121.9</ele>
        <time>2023-07-12T09:28:01Z</time>
      </trkpt>
      <trkpt lat="49.76078" lon="2.28336">
        <ele>122</ele>
        <time>2023-07-12T09:28:02Z</time>
      </trkpt>
      <trkpt lat="49.76078" lon="2.28335">
        <ele>122.1</ele>
        <time>2023-07-12T09:28:03Z</time>
      </trkpt>
      <trkpt lat="49.76079" lon="2.28334">
        <ele>122.2</ele>
        <time>2023-07-12T09:28:05Z</time>
      </trkpt>
      <trkpt lat="49.76079" lon="2.28333">
        <ele>122.3</ele>
        <time>2023-07-12T09:28:06Z</time>
      </trkpt>
      <trkpt lat="49.76079" lon="2.28332">
        <ele>122.4</ele>
        <time>2023-07-12T09:28:07Z</time>
      </trkpt>
      <trkpt lat="49.7608" lon="2.28331">
        <ele>122.5</ele>
        <time>2023-07-12T09:28:09Z</time>
      </trkpt>
      <trkpt lat="49.7608" lon="2.2833">
        <ele>122.7</ele>
        <time>2023-07-12T09:28:10Z</time>
      </trkpt>
      <trkpt lat="49.7608" lon="2.28329">
        <ele>122.8</ele>
        <time>2023-07-12T09:28:12Z</time>
      </trkpt>
      <trkpt lat="49.76081" lon="2.28328">
        <ele>122.8</ele>
        <time>2023-07-12T09:28:13Z</time>
      </trkpt>
      <trkpt lat="49.76081" lon="2.28328">
        <ele>122.9</ele>
        <time>2023-07-12T09:28:14Z</time>
      </trkpt>
      <trkpt lat="49.76081" lon="2.28327">
        <ele>123</ele>
        <time>2023-07-12T09:28:15Z</time>
      </trkpt>
      <trkpt lat="49.76082" lon="2.28326">
        <ele>123.1</ele>
        <time>2023-07-12T09:28:17Z</time>
      </trkpt>
      <trkpt lat="49.76082" lon="2.28326">
        <ele>123.1</ele>
        <time>2023-07-12T09:28:18Z</time>
      </trkpt>
      <trkpt lat="49.76082" lon="2.28325">
        <ele>123.2</ele>
        <time>2023-07-12T09:28:19Z</time>
      </trkpt>
      <trkpt lat="49.76082" lon="2.28325">
        <ele>123.3</ele>
        <time>2023-07-12T09:28:21Z</time>
      </trkpt>
      <trkpt lat="49.76083" lon="2.28325">
        <ele>123.3</ele>
        <time>2023-07-12T09:28:22Z</time>
      </trkpt>
      <trkpt lat="49.76083" lon="2.28324">
        <ele>123.4</ele>
        <time>2023-07-12T09:28:24Z</time>
      </trkpt>
      <trkpt lat="49.76083" lon="2.28324">
        <ele>123.4</ele>
        <time>2023-07-12T09:28:25Z</time>
      </trkpt>
      <trkpt lat="49.76083" lon="2.28324">
        <ele>123.5</ele>
        <time>2023-07-12T09:28:27Z</time>
      </trkpt>
      <trkpt lat="49.76083" lon="2.28324">
        <ele>123.5</ele>
        <time>2023-07-12T09:28:28Z</time>
      </trkpt>
      <trkpt lat="49.76083" lon="2.28324">
        <ele>123.5</ele>
        <time>2023-07-12T09:28:29Z</time>
      </trkpt>
      <trkpt lat="49.76084" lon="2.28323">
        <ele>123.5</ele>
        <time>2023-07-12T09:28:30Z</time>
      </trkpt>
      <trkpt lat="49.76084" lon="2.28323">
        <ele>123.5</ele>
        <time>2023-07-12T09:28:31Z</time>
      </trkpt>
      <trkpt lat="49.76084" lon="2.28322">
        <ele>123.6</ele>
        <time>2023-07-12T09:28:33Z</time>
      </trkpt>
      <trkpt lat="49.76084" lon="2.28322">
        <ele>123.7</ele>
        <time>2023-07-12T09:28:34Z</time>
      </trkpt>
      <trkpt lat="49.76085" lon="2.28322">
        <ele>123.7</ele>
        <time>2023-07-12T09:28:35Z</time>
      </trkpt>
      <trkpt lat="49.76085" lon="2.2832">
        <ele>123.9</ele>
        <time>2023-07-12T09:28:36Z</time>
      </trkpt>
      <trkpt lat="49.76086" lon="2.2832">
        <ele>124</ele>
        <time>2023-07-12T09:28:38Z</time>
      </trkpt>
      <trkpt lat="49.76086" lon="2.28319">
        <ele>124.1</ele>
        <time>2023-07-12T09:28:39Z</time>
      </trkpt>
      <trkpt lat="49.76087" lon="2.28318">
        <ele>124.2</ele>
        <time>2023-07-12T09:28:40Z</time>
      </trkpt>
      <trkpt lat="49.76087" lon="2.28317">
        <ele>124.3</ele>
        <time>2023-07-12T09:28:41Z</time>
      </trkpt>
      <trkpt lat="49.76088" lon="2.28316">
        <ele>124.4</ele>
        <time>2023-07-12T09:28:42Z</time>
      </trkpt>
      <trkpt lat="49.76089" lon="2.28314">
        <ele>124.6</ele>
        <time>2023-07-12T09:28:43Z</time>
      </trkpt>
      <trkpt lat="49.76089" lon="2.28313">
        <ele>124.7</ele>
        <time>2023-07-12T09:28:45Z</time>
      </trkpt>
      <trkpt lat="49.7609" lon="2.28312">
        <ele>124.8</ele>
        <time>2023-07-12T09:28:46Z</time>
      </trkpt>
      <trkpt lat="49.7609" lon="2.28311">
        <ele>124.9</ele>
        <time>2023-07-12T09:28:48Z</time>
      </trkpt>
      <trkpt lat="49.76091" lon="2.28309">
        <ele>125.1</ele>
        <time>2023-07-12T09:28:49Z</time>
      </trkpt>
      <trkpt lat="49.76092" lon="2.28308">
        <ele>125.2</ele>
        <time>2023-07-12T09:28:51Z</time>
      </trkpt>
      <trkpt lat="49.76092" lon="2.28307">
        <ele>125.3</ele>
        <time>2023-07-12T09:28:52Z</time>
      </trkpt>
      <trkpt lat="49.76093" lon="2.28306">
        <ele>125.5</ele>
        <time>2023-07-12T09:28:54Z</time>
      </trkpt>
      <trkpt lat="49.76093" lon="2.28304">
        <ele>125.6</ele>
        <time>2023-07-12T09:28:55Z</time>
      </trkpt>
      <trkpt lat="49.76094" lon="2.28302">
        <ele>125.8</ele>
        <time>2023-07-12T09:28:57Z</time>
      </trkpt>
      <trkpt lat="49.76095" lon="2.28301">
        <ele>125.9</ele>
        <time>2023-07-12T09:28:58Z</time>
      </trkpt>
      <trkpt lat="49.76095" lon="2.283">
        <ele>126</ele>
        <time>2023-07-12T09:28:59Z</time>
      </trkpt>
      <trkpt lat="49.76095" lon="2.28299">
        <ele>126.1</ele>
        <time>2023-07-12T09:29:00Z</time>
      </trkpt>
      <trkpt lat="49.76096" lon="2.28298">
        <ele>126.2</ele>
        <time>2023-07-12T09:29:01Z</time>
      </trkpt>
      <trkpt lat="49.76097" lon="2.28296">
        <ele>126.3</ele>
        <time>2023-07-12T09:29:02Z</time>
      </trkpt>
      <trkpt lat="49.76099" lon="2.28293">
        <ele>126.6</ele>
        <time>2023-07-12T09:29:04Z</time>
      </trkpt>
      <trkpt lat="49.761" lon="2.28292">
        <ele>126.7</ele>
        <time>2023-07-12T09:29:06Z</time>
      </trkpt>
      <trkpt lat="49.761" lon="2.28291">
        <ele>126.8</ele>
        <time>2023-07-12T09:29:07Z</time>
      </trkpt>
      <trkpt lat="49.76102" lon="2.28288">
        <ele>127</ele>
        <time>2023-07-12T09:29:08Z</time>
      </trkpt>
      <trkpt lat="49.76102" lon="2.28287">
        <ele>127.1</ele>
        <time>2023-07-12T09:29:10Z</time>
      </trkpt>
      <trkpt lat="49.76103" lon="2.28286">
        <ele>127.2</ele>
        <time>2023-07-12T09:29:11Z</time>
      </trkpt>
      <trkpt lat="49.76103" lon="2.28285">
        <ele>127.2</ele>
        <time>2023-07-12T09:29:12Z</time>
      </trkpt>
      <trkpt lat="49.76103" lon="2.28284">
        <ele>127.3</ele>
        <time>2023-07-12T09:29:13Z</time>
      </trkpt>
      <trkpt lat="49.76104" lon="2.28283">
        <ele>127.4</ele>
        <time>2023-07-12T09:29:14Z</time>
      </trkpt>
      <trkpt lat="49.76104" lon="2.28282">
        <ele>127.4</ele>
        <time>2023-07-12T09:29:16Z</time>
      </trkpt>
      <trkpt lat="49.76104" lon="2.28281">
        <ele>127.5</ele>
        <time>2023-07-12T09:29:17Z</time>
      </trkpt>
      <trkpt lat="49.76105" lon="2.2828">
        <ele>127.6</ele>
        <time>2023-07-12T09:29:18Z</time>
      </trkpt>
      <trkpt lat="49.76105" lon="2.28279">
        <ele>127.6</ele>
        <time>2023-07-12T09:29:19Z</time>
      </trkpt>
      <trkpt lat="49.76105" lon="2.28278">
        <ele>127.7</ele>
        <time>2023-07-12T09:29:20Z</time>
      </trkpt>
      <trkpt lat="49.76106" lon="2.28276">
        <ele>127.7</ele>
        <time>2023-07-12T09:29:22Z</time>
      </trkpt>
      <trkpt lat="49.76106" lon="2.28276">
        <ele>127.8</ele>
        <time>2023-07-12T09:29:23Z</time>
      </trkpt>
      <trkpt lat="49.76107" lon="2.28275">
        <ele>127.8</ele>
        <time>2023-07-12T09:29:25Z</time>
      </trkpt>
      <trkpt lat="49.76107" lon="2.28274">
        <ele>127.9</ele>
        <time>2023-07-12T09:29:26Z</time>
      </trkpt>
      <trkpt lat="49.76108" lon="2.28273">
        <ele>127.9</ele>
        <time>2023-07-12T09:29:27Z</time>
      </trkpt>
      <trkpt lat="49.76108" lon="2.28272">
        <ele>127.9</ele>
        <time>2023-07-12T09:29:28Z</time>
      </trkpt>
      <trkpt lat="49.76108" lon="2.28272">
        <ele>128</ele>
        <time>2023-07-12T09:29:29Z</time>
      </trkpt>
      <trkpt lat="49.76109" lon="2.28271">
        <ele>128</ele>
        <time>2023-07-12T09:29:30Z</time>
      </trkpt>
      <trkpt lat="49.76109" lon="2.2827">
        <ele>128</ele>
        <time>2023-07-12T09:29:32Z</time>
      </trkpt>
      <trkpt lat="49.76109" lon="2.2827">
        <ele>128.1</ele>
        <time>2023-07-12T09:29:33Z</time>
      </trkpt>
      <trkpt lat="49.76109" lon="2.28269">
        <ele>128.1</ele>
        <time>2023-07-12T09:29:34Z</time>
      </trkpt>
      <trkpt lat="49.7611" lon="2.28268">
        <ele>128.1</ele>
        <time>2023-07-12T09:29:35Z</time>
      </trkpt>
      <trkpt lat="49.7611" lon="2.28267">
        <ele>128.2</ele>
        <time>2023-07-12T09:29:36Z</time>
      </trkpt>
      <trkpt lat="49.76111" lon="2.28264">
        <ele>128.3</ele>
        <time>2023-07-12T09:29:38Z</time>
      </trkpt>
      <trkpt lat="49.76111" lon="2.28262">
        <ele>128.3</ele>
        <time>2023-07-12T09:29:40Z</time>
      </trkpt>
      <trkpt lat="49.76111" lon="2.28261">
        <ele>128.4</ele>
        <time>2023-07-12T09:29:41Z</time>
      </trkpt>
      <trkpt lat="49.76111" lon="2.28259">
        <ele>128.4</ele>
        <time>2023-07-12T09:29:42Z</time>
      </trkpt>
      <trkpt lat="49.76112" lon="2.28257">
        <ele>128.5</ele>
        <time>2023-07-12T09:29:43Z</time>
      </trkpt>
      <trkpt lat="49.76113" lon="2.28252">
        <ele>128.6</ele>
        <time>2023-07-12T09:29:45Z</time>
      </trkpt>
      <trkpt lat="49.76114" lon="2.2825">
        <ele>128.6</ele>
        <time>2023-07-12T09:29:47Z</time>
      </trkpt>
      <trkpt lat="49.76114" lon="2.28249">
        <ele>128.7</ele>
        <time>2023-07-12T09:29:49Z</time>
      </trkpt>
      <trkpt lat="49.76114" lon="2.28247">
        <ele>128.7</ele>
        <time>2023-07-12T09:29:50Z</time>
      </trkpt>
      <trkpt lat="49.76115" lon="2.28245">
        <ele>128.8</ele>
        <time>2023-07-12T09:29:51Z</time>
      </trkpt>
      <trkpt lat="49.76116" lon="2.28243">
        <ele>128.8</ele>
        <time>2023-07-12T09:29:52Z</time>
      </trkpt>
      <trkpt lat="49.76116" lon="2.28241">
        <ele>128.8</ele>
        <time>2023-07-12T09:29:54Z</time>
      </trkpt>
      <trkpt lat="49.76116" lon="2.2824">
        <ele>128.9</ele>
        <time>2023-07-12T09:29:55Z</time>
      </trkpt>
      <trkpt lat="49.76117" lon="2.28238">
        <ele>128.9</ele>
        <time>2023-07-12T09:29:56Z</time>
      </trkpt>
      <trkpt lat="49.76117" lon="2.28237">
        <ele>128.9</ele>
        <time>2023-07-12T09:29:57Z</time>
      </trkpt>
      <trkpt lat="49.76118" lon="2.28236">
        <ele>128.9</ele>
        <time>2023-07-12T09:29:58Z</time>
      </trkpt>
      <trkpt lat="49.76118" lon="2.28234">
        <ele>129</ele>
        <time>2023-07-12T09:29:59Z</time>
      </trkpt>
      <trkpt lat="49.76118" lon="2.28234">
        <ele>129</ele>
        <time>2023-07-12T09:30:01Z</time>
      </trkpt>
      <trkpt lat="49.76119" lon="2.28232">
        <ele>129</ele>
        <time>2023-07-12T09:30:02Z</time>
      </trkpt>
      <trkpt lat="49.76119" lon="2.28231">
        <ele>129</ele>
        <time>2023-07-12T09:30:03Z</time>
      </trkpt>
      <trkpt lat="49.7612" lon="2.28229">
        <ele>129</ele>
        <time>2023-07-12T09:30:04Z</time>
      </trkpt>
      <trkpt lat="49.7612" lon="2.28227">
        <ele>129.1</ele>
        <time>2023-07-12T09:30:06Z</time>
      </trkpt>
      <trkpt lat="49.7612" lon="2.28225">
        <ele>129.1</ele>
        <time>2023-07-12T09:30:08Z</time>
      </trkpt>
      <trkpt lat="49.76121" lon="2.28224">
        <ele>129.1</ele>
        <time>2023-07-12T09:30:09Z</time>
      </trkpt>
      <trkpt lat="49.76121" lon="2.28223">
        <ele>129.1</ele>
        <time>2023-07-12T09:30:10Z</time>
      </trkpt>
      <trkpt lat="49.76122" lon="2.28221">
        <ele>129.2</ele>
        <time>2023-07-12T09:30:11Z</time>
      </trkpt>
      <trkpt lat="49.76123" lon="2.2822">
        <ele>129.2</ele>
        <time>2023-07-12T09:30:13Z</time>
      </trkpt>
      <trkpt lat="49.76123" lon="2.28219">
        <ele>129.2</ele>
        <time>2023-07-12T09:30:14Z</time>
      </trkpt>
      <trkpt lat="49.76124" lon="2.28217">
        <ele>129.2</ele>
        <time>2023-07-12T09:30:15Z</time>
      </trkpt>
      <trkpt lat="49.76124" lon="2.28215">
        <ele>129.3</ele>
        <time>2023-07-12T09:30:17Z</time>
      </trkpt>
      <trkpt lat="49.76125" lon="2.28214">
        <ele>129.3</ele>
        <time>2023-07-12T09:30:19Z</time>
      </trkpt>
      <trkpt lat="49.76125" lon="2.28213">
        <ele>129.3</ele>
        <time>2023-07-12T09:30:20Z</time>
      </trkpt>
      <trkpt lat="49.76125" lon="2.28212">
        <ele>129.3</ele>
        <time>2023-07-12T09:30:21Z</time>
      </trkpt>
      <trkpt lat="49.76126" lon="2.2821">
        <ele>129.3</ele>
        <time>2023-07-12T09:30:22Z</time>
      </trkpt>
      <trkpt lat="49.76126" lon="2.28209">
        <ele>129.3</ele>
        <time>2023-07-12T09:30:24Z</time>
      </trkpt>
      <trkpt lat="49.76126" lon="2.28208">
        <ele>129.3</ele>
        <time>2023-07-12T09:30:25Z</time>
      </trkpt>
      <trkpt lat="49.76127" lon="2.28206">
        <ele>129.4</ele>
        <time>2023-07-12T09:30:26Z</time>
      </trkpt>
      <trkpt lat="49.76127" lon="2.28204">
        <ele>129.4</ele>
        <time>2023-07-12T09:30:28Z</time>
      </trkpt>
      <trkpt lat="49.76127" lon="2.28203">
        <ele>129.4</ele>
        <time>2023-07-12T09:30:29Z</time>
      </trkpt>
      <trkpt lat="49.76127" lon="2.28201">
        <ele>129.4</ele>
        <time>2023-07-12T09:30:30Z</time>
      </trkpt>
      <trkpt lat="49.76127" lon="2.28201">
        <ele>129.4</ele>
        <time>2023-07-12T09:30:31Z</time>
      </trkpt>
      <trkpt lat="49.76128" lon="2.28199">
        <ele>129.4</ele>
        <time>2023-07-12T09:30:32Z</time>
      </trkpt>
      <trkpt lat="49.76128" lon="2.28198">
        <ele>129.4</ele>
        <time>2023-07-12T09:30:34Z</time>
      </trkpt>
      <trkpt lat="49.76128" lon="2.28197">
        <ele>129.5</ele>
        <time>2023-07-12T09:30:35Z</time>
      </trkpt>
      <trkpt lat="49.76128" lon="2.28196">
        <ele>129.5</ele>
        <time>2023-07-12T09:30:36Z</time>
      </trkpt>
      <trkpt lat="49.76128" lon="2.28195">
        <ele>129.5</ele>
        <time>2023-07-12T09:30:37Z</time>
      </trkpt>
      <trkpt lat="49.76128" lon="2.28195">
        <ele>129.5</ele>
        <time>2023-07-12T09:30:38Z</time>
      </trkpt>
      <trkpt lat="49.76129" lon="2.28194">
        <ele>129.5</ele>
        <time>2023-07-12T09:30:39Z</time>
      </trkpt>
      <trkpt lat="49.76129" lon="2.28191">
        <ele>129.5</ele>
        <time>2023-07-12T09:30:41Z</time>
      </trkpt>
      <trkpt lat="49.76129" lon="2.2819">
        <ele>129.5</ele>
        <time>2023-07-12T09:30:43Z</time>
      </trkpt>
      <trkpt lat="49.76129" lon="2.28189">
        <ele>129.5</ele>
        <time>2023-07-12T09:30:44Z</time>
      </trkpt>
      <trkpt lat="49.76129" lon="2.28188">
        <ele>129.6</ele>
        <time>2023-07-12T09:30:45Z</time>
      </trkpt>
      <trkpt lat="49.76129" lon="2.28186">
        <ele>129.6</ele>
        <time>2023-07-12T09:30:46Z</time>
      </trkpt>
      <trkpt lat="49.76128" lon="2.28184">
        <ele>129.6</ele>
        <time>2023-07-12T09:30:48Z</time>
      </trkpt>
      <trkpt lat="49.76128" lon="2.28183">
        <ele>129.6</ele>
        <time>2023-07-12T09:30:49Z</time>
      </trkpt>
      <trkpt lat="49.76127" lon="2.28182">
        <ele>129.6</ele>
        <time>2023-07-12T09:30:50Z</time>
      </trkpt>
      <trkpt lat="49.76127" lon="2.2818">
        <ele>129.6</ele>
        <time>2023-07-12T09:30:51Z</time>
      </trkpt>
      <trkpt lat="49.76126" lon="2.28179">
        <ele>129.6</ele>
        <time>2023-07-12T09:30:53Z</time>
      </trkpt>
      <trkpt lat="49.76126" lon="2.28178">
        <ele>129.6</ele>
        <time>2023-07-12T09:30:54Z</time>
      </trkpt>
      <trkpt lat="49.76127" lon="2.28177">
        <ele>129.6</ele>
        <time>2023-07-12T09:30:55Z</time>
      </trkpt>
      <trkpt lat="49.76127" lon="2.28176">
        <ele>129.6</ele>
        <time>2023-07-12T09:30:57Z</time>
      </trkpt>
      <trkpt lat="49.76128" lon="2.28175">
        <ele>129.6</ele>
        <time>2023-07-12T09:30:58Z</time>
      </trkpt>
      <trkpt lat="49.76129" lon="2.28174">
        <ele>129.6</ele>
        <time>2023-07-12T09:31:00Z</time>
      </trkpt>
      <trkpt lat="49.7613" lon="2.28174">
        <ele>129.7</ele>
        <time>2023-07-12T09:31:01Z</time>
      </trkpt>
      <trkpt lat="49.76131" lon="2.28175">
        <ele>129.7</ele>
        <time>2023-07-12T09:31:03Z</time>
      </trkpt>
      <trkpt lat="49.76131" lon="2.28175">
        <ele>129.7</ele>
        <time>2023-07-12T09:31:04Z</time>
      </trkpt>
      <trkpt lat="49.76132" lon="2.28175">
        <ele>129.7</ele>
        <time>2023-07-12T09:31:06Z</time>
      </trkpt>
      <trkpt lat="49.76132" lon="2.28176">
        <ele>129.8</ele>
        <time>2023-07-12T09:31:07Z</time>
      </trkpt>
      <trkpt lat="49.76132" lon="2.28176">
        <ele>129.8</ele>
        <time>2023-07-12T09:31:08Z</time>
      </trkpt>
      <trkpt lat="49.76133" lon="2.28176">
        <ele>129.8</ele>
        <time>2023-07-12T09:31:10Z</time>
      </trkpt>
      <trkpt lat="49.76133" lon="2.28176">
        <ele>129.8</ele>
        <time>2023-07-12T09:31:11Z</time>
      </trkpt>
      <trkpt lat="49.76133" lon="2.28177">
        <ele>129.8</ele>
        <time>2023-07-12T09:31:13Z</time>
      </trkpt>
      <trkpt lat="49.76133" lon="2.28177">
        <ele>129.8</ele>
        <time>2023-07-12T09:31:14Z</time>
      </trkpt>
      <trkpt lat="49.76133" lon="2.28177">
        <ele>129.8</ele>
        <time>2023-07-12T09:31:15Z</time>
      </trkpt>
      <trkpt lat="49.76133" lon="2.28177">
        <ele>129.8</ele>
        <time>2023-07-12T09:31:16Z</time>
      </trkpt>
      <trkpt lat="49.76133" lon="2.28177">
        <ele>129.8</ele>
        <time>2023-07-12T09:31:18Z</time>
      </trkpt>
      <trkpt lat="49.76133" lon="2.28177">
        <ele>129.8</ele>
        <time>2023-07-12T09:31:19Z</time>
      </trkpt>
      <trkpt lat="49.76132" lon="2.28177">
        <ele>129.8</ele>
        <time>2023-07-12T09:31:20Z</time>
      </trkpt>
      <trkpt lat="49.76132" lon="2.28177">
        <ele>129.8</ele>
        <time>2023-07-12T09:31:21Z</time>
      </trkpt>
      <trkpt lat="49.76132" lon="2.28177">
        <ele>129.8</ele>
        <time>2023-07-12T09:31:22Z</time>
      </trkpt>
      <trkpt lat="49.76132" lon="2.28177">
        <ele>129.8</ele>
        <time>2023-07-12T09:31:23Z</time>
      </trkpt>
      <trkpt lat="49.76132" lon="2.28177">
        <ele>129.8</ele>
        <time>2023-07-12T09:31:24Z</time>
      </trkpt>
      <trkpt lat="49.76132" lon="2.28177">
        <ele>129.8</ele>
        <time>2023-07-12T09:31:25Z</time>
      </trkpt>
      <trkpt lat="49.76132" lon="2.28177">
        <ele>129.8</ele>
        <time>2023-07-12T09:31:26Z</time>
      </trkpt>
      <trkpt lat="49.76132" lon="2.28177">
        <ele>129.8</ele>
        <time>2023-07-12T09:31:27Z</time>
      </trkpt>
      <trkpt lat="49.76132" lon="2.28177">
        <ele>129.8</ele>
        <time>2023-07-12T09:31:28Z</time>
      </trkpt>
      <trkpt lat="49.76132" lon="2.28177">
        <ele>129.8</ele>
        <time>2023-07-12T09:31:29Z</time>
      </trkpt>
      <trkpt lat="49.76132" lon="2.28177">
        <ele>129.8</ele>
        <time>2023-07-12T09:31:30Z</time>
      </trkpt>
      <trkpt lat="49.76132" lon="2.28177">
        <ele>129.8</ele>
        <time>2023-07-12T09:31:31Z</time>
      </trkpt>
      <trkpt lat="49.76132" lon="2.28177">
        <ele>129.8</ele>
        <time>2023-07-12T09:31:32Z</time>
      </trkpt>
      <trkpt lat="49.76132" lon="2.28177">
        <ele>129.8</ele>
        <time>2023-07-12T09:31:33Z</time>
      </trkpt>
      <trkpt lat="49.76132" lon="2.28177">
        <ele>129.8</ele>
        <time>2023-07-12T09:31:34Z</time>
      </trkpt>
      <trkpt lat="49.76132" lon="2.28177">
        <ele>129.8</ele>
        <time>2023-07-12T09:31:35Z</time>
      </trkpt>
      <trkpt lat="49.76132" lon="2.28177">
        <ele>129.8</ele>
        <time>2023-07-12T09:31:36Z</time>
      </trkpt>
      <trkpt lat="49.76132" lon="2.28177">
        <ele>129.8</ele>
        <time>2023-07-12T09:31:37Z</time>
      </trkpt>
      <trkpt lat="49.76132" lon="2.28177">
        <ele>129.8</ele>
        <time>2023-07-12T09:31:38Z</time>
      </trkpt>
      <trkpt lat="49.76132" lon="2.28177">
        <ele>129.8</ele>
        <time>2023-07-12T09:31:39Z</time>
      </trkpt>
      <trkpt lat="49.76132" lon="2.28177">
        <ele>129.8</ele>
        <time>2023-07-12T09:31:40Z</time>
      </trkpt>
      <trkpt lat="49.76132" lon="2.28177">
        <ele>129.8</ele>
        <time>2023-07-12T09:31:41Z</time>
      </trkpt>
      <trkpt lat="49.76132" lon="2.28177">
        <ele>129.8</ele>
        <time>2023-07-12T09:31:42Z</time>
      </trkpt>
      <trkpt lat="49.76132" lon="2.28177">
        <ele>129.8</ele>
        <time>2023-07-12T09:31:43Z</time>
      </trkpt>
      <trkpt lat="49.76132" lon="2.28177">
        <ele>129.8</ele>
        <time>2023-07-12T09:31:44Z</time>
      </trkpt>
      <trkpt lat="49.76132" lon="2.28177">
        <ele>129.8</ele>
        <time>2023-07-12T09:31:45Z</time>
      </trkpt>
      <trkpt lat="49.76132" lon="2.28177">
        <ele>129.8</ele>
        <time>2023-07-12T09:31:46Z</time>
      </trkpt>
      <trkpt lat="49.76132" lon="2.28177">
        <ele>129.8</ele>
        <time>2023-07-12T09:31:47Z</time>
      </trkpt>
      <trkpt lat="49.76132" lon="2.28177">
        <ele>129.8</ele>
        <time>2023-07-12T09:31:48Z</time>
      </trkpt>
      <trkpt lat="49.76132" lon="2.28177">
        <ele>129.8</ele>
        <time>2023-07-12T09:31:49Z</time>
      </trkpt>
      <trkpt lat="49.76132" lon="2.28177">
        <ele>129.8</ele>
        <time>2023-07-12T09:31:50Z</time>
      </trkpt>
      <trkpt lat="49.76132" lon="2.28177">
        <ele>129.8</ele>
        <time>2023-07-12T09:31:51Z</time>
      </trkpt>
      <trkpt lat="49.76132" lon="2.28177">
        <ele>129.8</ele>
        <time>2023-07-12T09:31:52Z</time>
      </trkpt>
      <trkpt lat="49.76132" lon="2.28177">
        <ele>129.8</ele>
        <time>2023-07-12T09:31:53Z</time>
      </trkpt>
      <trkpt lat="49.76132" lon="2.28177">
        <ele>129.8</ele>
        <time>2023-07-12T09:31:54Z</time>
      </trkpt>
      <trkpt lat="49.76132" lon="2.28177">
        <ele>129.8</ele>
        <time>2023-07-12T09:31:55Z</time>
      </trkpt>
      <trkpt lat="49.76132" lon="2.28177">
        <ele>129.8</ele>
        <time>2023-07-12T09:31:56Z</time>
      </trkpt>
      <trkpt lat="49.76132" lon="2.28177">
        <ele>129.8</ele>
        <time>2023-07-12T09:31:57Z</time>
      </trkpt>
      <trkpt lat="49.76132" lon="2.28177">
        <ele>129.8</ele>
        <time>2023-07-12T09:31:58Z</time>
      </trkpt>
      <trkpt lat="49.76132" lon="2.28177">
        <ele>129.8</ele>
        <time>2023-07-12T09:31:59Z</time>
      </trkpt>
      <trkpt lat="49.76132" lon="2.28177">
        <ele>129.8</ele>
        <time>2023-07-12T09:32:00Z</time>
      </trkpt>
      <trkpt lat="49.76132" lon="2.28177">
        <ele>129.8</ele>
        <time>2023-07-12T09:32:01Z</time>
      </trkpt>
      <trkpt lat="49.76132" lon="2.28177">
        <ele>129.8</ele>
        <time>2023-07-12T09:32:02Z</time>
      </trkpt>
      <trkpt lat="49.76132" lon="2.28177">
        <ele>129.8</ele>
        <time>2023-07-12T09:32:03Z</time>
      </trkpt>
      <trkpt lat="49.76132" lon="2.28177">
        <ele>129.8</ele>
        <time>2023-07-12T09:32:04Z</time>
      </trkpt>
      <trkpt lat="49.76132" lon="2.28177">
        <ele>129.8</ele>
        <time>2023-07-12T09:32:05Z</time>
      </trkpt>
      <trkpt lat="49.76132" lon="2.28177">
        <ele>129.8</ele>
        <time>2023-07-12T09:32:06Z</time>
      </trkpt>
      <trkpt lat="49.76132" lon="2.28177">
        <ele>129.8</ele>
        <time>2023-07-12T09:32:07Z</time>
      </trkpt>
      <trkpt lat="49.76132" lon="2.28177">
        <ele>129.8</ele>
        <time>2023-07-12T09:32:08Z</time>
      </trkpt>
      <trkpt lat="49.76132" lon="2.28177">
        <ele>129.8</ele>
        <time>2023-07-12T09:32:09Z</time>
      </trkpt>
      <trkpt lat="49.76132" lon="2.28177">
        <ele>129.8</ele>
        <time>2023-07-12T09:32:10Z</time>
      </trkpt>
      <trkpt lat="49.76132" lon="2.28177">
        <ele>129.8</ele>
        <time>2023-07-12T09:32:11Z</time>
      </trkpt>
      <trkpt lat="49.76132" lon="2.28177">
        <ele>129.8</ele>
        <time>2023-07-12T09:32:12Z</time>
      </trkpt>
      <trkpt lat="49.76132" lon="2.28177">
        <ele>129.8</ele>
        <time>2023-07-12T09:32:13Z</time>
      </trkpt>
      <trkpt lat="49.76132" lon="2.28177">
        <ele>129.8</ele>
        <time>2023-07-12T09:32:14Z</time>
      </trkpt>
      <trkpt lat="49.76132" lon="2.28177">
        <ele>129.8</ele>
        <time>2023-07-12T09:32:15Z</time>
      </trkpt>
      <trkpt lat="49.76132" lon="2.28177">
        <ele>129.8</ele>
        <time>2023-07-12T09:32:16Z</time>
      </trkpt>
      <trkpt lat="49.76132" lon="2.28177">
        <ele>129.8</ele>
        <time>2023-07-12T09:32:17Z</time>
      </trkpt>
      <trkpt lat="49.76132" lon="2.28177">
        <ele>129.8</ele>
        <time>2023-07-12T09:32:18Z</time>
      </trkpt>
      <trkpt lat="49.76132" lon="2.28177">
        <ele>129.8</ele>
        <time>2023-07-12T09:32:19Z</time>
      </trkpt>
      <trkpt lat="49.76132" lon="2.28177">
        <ele>129.8</ele>
        <time>2023-07-12T09:32:20Z</time>
      </trkpt>
      <trkpt lat="49.76132" lon="2.28177">
        <ele>129.8</ele>
        <time>2023-07-12T09:32:21Z</time>
      </trkpt>
      <trkpt lat="49.76132" lon="2.28177">
        <ele>129.8</ele>
        <time>2023-07-12T09:32:22Z</time>
      </trkpt>
      <trkpt lat="49.76132" lon="2.28177">
        <ele>129.8</ele>
        <time>2023-07-12T09:32:23Z</time>
      </trkpt>
      <trkpt lat="49.76132" lon="2.28177">
        <ele>129.8</ele>
        <time>2023-07-12T09:32:24Z</time>
      </trkpt>
      <trkpt lat="49.76132" lon="2.28177">
        <ele>129.8</ele>
        <time>2023-07-12T09:32:25Z</time>
      </trkpt>
      <trkpt lat="49.76132" lon="2.28177">
        <ele>129.8</ele>
        <time>2023-07-12T09:32:26Z</time>
      </trkpt>
      <trkpt lat="49.76132" lon="2.28177">
        <ele>129.8</ele>
        <time>2023-07-12T09:32:27Z</time>
      </trkpt>
      <trkpt lat="49.76132" lon="2.28177">
        <ele>129.8</ele>
        <time>2023-07-12T09:32:28Z</time>
      </trkpt>
      <trkpt lat="49.76132" lon="2.28177">
        <ele>129.8</ele>
        <time>2023-07-12T09:32:29Z</time>
      </trkpt>
      <trkpt lat="49.76132" lon="2.28177">
        <ele>129.8</ele>
        <time>2023-07-12T09:32:30Z</time>
      </trkpt>
      <trkpt lat="49.76132" lon="2.28177">
        <ele>129.8</ele>
        <time>2023-07-12T09:32:31Z</time>
      </trkpt>
      <trkpt lat="49.76132" lon="2.28177">
        <ele>129.8</ele>
        <time>2023-07-12T09:32:32Z</time>
      </trkpt>
      <trkpt lat="49.76132" lon="2.28177">
        <ele>129.8</ele>
        <time>2023-07-12T09:32:33Z</time>
      </trkpt>
      <trkpt lat="49.76132" lon="2.28177">
        <ele>129.8</ele>
        <time>2023-07-12T09:32:34Z</time>
      </trkpt>
      <trkpt lat="49.76132" lon="2.28177">
        <ele>129.8</ele>
        <time>2023-07-12T09:32:35Z</time>
      </trkpt>
      <trkpt lat="49.76132" lon="2.28177">
        <ele>129.8</ele>
        <time>2023-07-12T09:32:36Z</time>
      </trkpt>
      <trkpt lat="49.76132" lon="2.28177">
        <ele>129.8</ele>
        <time>2023-07-12T09:32:37Z</time>
      </trkpt>
      <trkpt lat="49.76132" lon="2.28177">
        <ele>129.8</ele>
        <time>2023-07-12T09:32:38Z</time>
      </trkpt>
      <trkpt lat="49.76132" lon="2.28177">
        <ele>129.8</ele>
        <time>2023-07-12T09:32:39Z</time>
      </trkpt>
      <trkpt lat="49.76132" lon="2.28177">
        <ele>129.8</ele>
        <time>2023-07-12T09:32:40Z</time>
      </trkpt>
      <trkpt lat="49.76132" lon="2.28177">
        <ele>129.8</ele>
        <time>2023-07-12T09:32:41Z</time>
      </trkpt>
      <trkpt lat="49.76132" lon="2.28177">
        <ele>129.8</ele>
        <time>2023-07-12T09:32:42Z</time>
      </trkpt>
      <trkpt lat="49.76132" lon="2.28177">
        <ele>129.8</ele>
        <time>2023-07-12T09:32:43Z</time>
      </trkpt>
      <trkpt lat="49.76132" lon="2.28177">
        <ele>129.8</ele>
        <time>2023-07-12T09:32:44Z</time>
      </trkpt>
      <trkpt lat="49.76132" lon="2.28177">
        <ele>129.8</ele>
        <time>2023-07-12T09:32:45Z</time>
      </trkpt>
      <trkpt lat="49.76132" lon="2.28177">
        <ele>129.8</ele>
        <time>2023-07-12T09:32:46Z</time>
      </trkpt>
      <trkpt lat="49.76132" lon="2.28177">
        <ele>129.8</ele>
        <time>2023-07-12T09:32:47Z</time>
      </trkpt>
      <trkpt lat="49.76132" lon="2.28177">
        <ele>129.8</ele>
        <time>2023-07-12T09:32:48Z</time>
      </trkpt>
      <trkpt lat="49.76132" lon="2.28177">
        <ele>129.8</ele>
        <time>2023-07-12T09:32:49Z</time>
      </trkpt>
      <trkpt lat="49.76132" lon="2.28177">
        <ele>129.8</ele>
        <time>2023-07-12T09:32:50Z</time>
      </trkpt>
      <trkpt lat="49.76132" lon="2.28177">
        <ele>129.8</ele>
        <time>2023-07-12T09:32:51Z</time>
      </trkpt>
      <trkpt lat="49.76132" lon="2.28177">
        <ele>129.8</ele>
        <time>2023-07-12T09:32:52Z</time>
      </trkpt>
      <trkpt lat="49.76132" lon="2.28177">
        <ele>129.8</ele>
        <time>2023-07-12T09:32:53Z</time>
      </trkpt>
      <trkpt lat="49.76132" lon="2.28177">
        <ele>129.8</ele>
        <time>2023-07-12T09:32:54Z</time>
      </trkpt>
      <trkpt lat="49.76132" lon="2.28177">
        <ele>129.8</ele>
        <time>2023-07-12T09:32:55Z</time>
      </trkpt>
      <trkpt lat="49.76132" lon="2.28177">
        <ele>129.8</ele>
        <time>2023-07-12T09:32:56Z</time>
      </trkpt>
      <trkpt lat="49.7613" lon="2.28179">
        <ele>129.9</ele>
        <time>2023-07-12T09:32:57Z</time>
      </trkpt>
      <trkpt lat="49.76129" lon="2.28179">
        <ele>129.9</ele>
        <time>2023-07-12T09:32:58Z</time>
      </trkpt>
      <trkpt lat="49.76129" lon="2.28179">
        <ele>130</ele>
        <time>2023-07-12T09:32:59Z</time>
      </trkpt>
      <trkpt lat="49.76129" lon="2.28179">
        <ele>130</ele>
        <time>2023-07-12T09:33:00Z</time>
      </trkpt>
      <trkpt lat="49.76129" lon="2.28179">
        <ele>130</ele>
        <time>2023-07-12T09:33:01Z</time>
      </trkpt>
      <trkpt lat="49.76129" lon="2.28179">
        <ele>130</ele>
        <time>2023-07-12T09:33:02Z</time>
      </trkpt>
      <trkpt lat="49.76129" lon="2.28178">
        <ele>130</ele>
        <time>2023-07-12T09:33:03Z</time>
      </trkpt>
      <trkpt lat="49.76129" lon="2.28178">
        <ele>130</ele>
        <time>2023-07-12T09:33:04Z</time>
      </trkpt>
      <trkpt lat="49.76129" lon="2.28178">
        <ele>130</ele>
        <time>2023-07-12T09:33:05Z</time>
      </trkpt>
      <trkpt lat="49.76129" lon="2.28178">
        <ele>130</ele>
        <time>2023-07-12T09:33:06Z</time>
      </trkpt>
      <trkpt lat="49.76129" lon="2.28177">
        <ele>130</ele>
        <time>2023-07-12T09:33:07Z</time>
      </trkpt>
      <trkpt lat="49.76129" lon="2.28177">
        <ele>130</ele>
        <time>2023-07-12T09:33:08Z</time>
      </trkpt>
      <trkpt lat="49.76129" lon="2.28177">
        <ele>130</ele>
        <time>2023-07-12T09:33:09Z</time>
      </trkpt>
      <trkpt lat="49.76129" lon="2.28177">
        <ele>130</ele>
        <time>2023-07-12T09:33:10Z</time>
      </trkpt>
      <trkpt lat="49.76129" lon="2.28177">
        <ele>130</ele>
        <time>2023-07-12T09:33:11Z</time>
      </trkpt>
      <trkpt lat="49.76129" lon="2.28176">
        <ele>130</ele>
        <time>2023-07-12T09:33:12Z</time>
      </trkpt>
      <trkpt lat="49.76129" lon="2.28176">
        <ele>130</ele>
        <time>2023-07-12T09:33:13Z</time>
      </trkpt>
      <trkpt lat="49.76129" lon="2.28176">
        <ele>130</ele>
        <time>2023-07-12T09:33:14Z</time>
      </trkpt>
      <trkpt lat="49.76129" lon="2.28176">
        <ele>130</ele>
        <time>2023-07-12T09:33:15Z</time>
      </trkpt>
      <trkpt lat="49.76129" lon="2.28175">
        <ele>130</ele>
        <time>2023-07-12T09:33:16Z</time>
      </trkpt>
      <trkpt lat="49.76129" lon="2.28175">
        <ele>130</ele>
        <time>2023-07-12T09:33:17Z</time>
      </trkpt>
      <trkpt lat="49.76129" lon="2.28175">
        <ele>130</ele>
        <time>2023-07-12T09:33:19Z</time>
      </trkpt>
      <trkpt lat="49.7613" lon="2.28175">
        <ele>130</ele>
        <time>2023-07-12T09:33:20Z</time>
      </trkpt>
      <trkpt lat="49.7613" lon="2.28175">
        <ele>130</ele>
        <time>2023-07-12T09:33:21Z</time>
      </trkpt>
      <trkpt lat="49.7613" lon="2.28174">
        <ele>130</ele>
        <time>2023-07-12T09:33:22Z</time>
      </trkpt>
      <trkpt lat="49.7613" lon="2.28174">
        <ele>130</ele>
        <time>2023-07-12T09:33:23Z</time>
      </trkpt>
      <trkpt lat="49.7613" lon="2.28174">
        <ele>130.1</ele>
        <time>2023-07-12T09:33:25Z</time>
      </trkpt>
      <trkpt lat="49.7613" lon="2.28174">
        <ele>130.1</ele>
        <time>2023-07-12T09:33:27Z</time>
      </trkpt>
      <trkpt lat="49.7613" lon="2.28173">
        <ele>130.1</ele>
        <time>2023-07-12T09:33:28Z</time>
      </trkpt>
      <trkpt lat="49.7613" lon="2.28173">
        <ele>130.1</ele>
        <time>2023-07-12T09:33:29Z</time>
      </trkpt>
      <trkpt lat="49.7613" lon="2.28173">
        <ele>130.1</ele>
        <time>2023-07-12T09:33:30Z</time>
      </trkpt>
      <trkpt lat="49.7613" lon="2.28173">
        <ele>130.1</ele>
        <time>2023-07-12T09:33:31Z</time>
      </trkpt>
      <trkpt lat="49.76131" lon="2.28171">
        <ele>130.1</ele>
        <time>2023-07-12T09:33:32Z</time>
      </trkpt>
      <trkpt lat="49.76131" lon="2.28169">
        <ele>130.1</ele>
        <time>2023-07-12T09:33:34Z</time>
      </trkpt>
      <trkpt lat="49.76133" lon="2.28165">
        <ele>130.2</ele>
        <time>2023-07-12T09:33:36Z</time>
      </trkpt>
      <trkpt lat="49.76134" lon="2.28163">
        <ele>130.2</ele>
        <time>2023-07-12T09:33:38Z</time>
      </trkpt>
      <trkpt lat="49.76134" lon="2.28162">
        <ele>130.2</ele>
        <time>2023-07-12T09:33:39Z</time>
      </trkpt>
      <trkpt lat="49.76135" lon="2.28161">
        <ele>130.3</ele>
        <time>2023-07-12T09:33:40Z</time>
      </trkpt>
      <trkpt lat="49.76135" lon="2.28159">
        <ele>130.3</ele>
        <time>2023-07-12T09:33:41Z</time>
      </trkpt>
      <trkpt lat="49.76136" lon="2.28157">
        <ele>130.3</ele>
        <time>2023-07-12T09:33:42Z</time>
      </trkpt>
      <trkpt lat="49.76136" lon="2.28156">
        <ele>130.3</ele>
        <time>2023-07-12T09:33:44Z</time>
      </trkpt>
      <trkpt lat="49.76137" lon="2.28154">
        <ele>130.4</ele>
        <time>2023-07-12T09:33:45Z</time>
      </trkpt>
      <trkpt lat="49.76137" lon="2.28152">
        <ele>130.4</ele>
        <time>2023-07-12T09:33:46Z</time>
      </trkpt>
      <trkpt lat="49.76138" lon="2.2815">
        <ele>130.4</ele>
        <time>2023-07-12T09:33:47Z</time>
      </trkpt>
      <trkpt lat="49.76138" lon="2.28149">
        <ele>130.4</ele>
        <time>2023-07-12T09:33:49Z</time>
      </trkpt>
      <trkpt lat="49.76138" lon="2.28147">
        <ele>130.5</ele>
        <time>2023-07-12T09:33:50Z</time>
      </trkpt>
      <trkpt lat="49.76138" lon="2.28146">
        <ele>130.5</ele>
        <time>2023-07-12T09:33:51Z</time>
      </trkpt>
      <trkpt lat="49.76139" lon="2.28143">
        <ele>130.5</ele>
        <time>2023-07-12T09:33:52Z</time>
      </trkpt>
      <trkpt lat="49.7614" lon="2.28141">
        <ele>130.6</ele>
        <time>2023-07-12T09:33:53Z</time>
      </trkpt>
      <trkpt lat="49.76141" lon="2.28139">
        <ele>130.6</ele>
        <time>2023-07-12T09:33:54Z</time>
      </trkpt>
      <trkpt lat="49.76142" lon="2.28136">
        <ele>130.7</ele>
        <time>2023-07-12T09:33:56Z</time>
      </trkpt>
      <trkpt lat="49.76142" lon="2.28135">
        <ele>130.7</ele>
        <time>2023-07-12T09:33:57Z</time>
      </trkpt>
      <trkpt lat="49.76143" lon="2.28133">
        <ele>130.7</ele>
        <time>2023-07-12T09:33:58Z</time>
      </trkpt>
      <trkpt lat="49.76143" lon="2.28131">
        <ele>130.8</ele>
        <time>2023-07-12T09:33:59Z</time>
      </trkpt>
      <trkpt lat="49.76144" lon="2.28129">
        <ele>130.8</ele>
        <time>2023-07-12T09:34:00Z</time>
      </trkpt>
      <trkpt lat="49.76144" lon="2.28128">
        <ele>130.8</ele>
        <time>2023-07-12T09:34:02Z</time>
      </trkpt>
      <trkpt lat="49.76145" lon="2.28126">
        <ele>130.9</ele>
        <time>2023-07-12T09:34:03Z</time>
      </trkpt>
      <trkpt lat="49.76145" lon="2.28124">
        <ele>130.9</ele>
        <time>2023-07-12T09:34:04Z</time>
      </trkpt>
      <trkpt lat="49.76146" lon="2.28122">
        <ele>130.9</ele>
        <time>2023-07-12T09:34:05Z</time>
      </trkpt>
      <trkpt lat="49.76147" lon="2.28121">
        <ele>131</ele>
        <time>2023-07-12T09:34:06Z</time>
      </trkpt>
      <trkpt lat="49.76147" lon="2.28119">
        <ele>131</ele>
        <time>2023-07-12T09:34:07Z</time>
      </trkpt>
      <trkpt lat="49.76148" lon="2.28118">
        <ele>131</ele>
        <time>2023-07-12T09:34:09Z</time>
      </trkpt>
      <trkpt lat="49.76148" lon="2.28116">
        <ele>131.1</ele>
        <time>2023-07-12T09:34:10Z</time>
      </trkpt>
      <trkpt lat="49.76149" lon="2.28113">
        <ele>131.1</ele>
        <time>2023-07-12T09:34:11Z</time>
      </trkpt>
      <trkpt lat="49.7615" lon="2.28112">
        <ele>131.1</ele>
        <time>2023-07-12T09:34:12Z</time>
      </trkpt>
      <trkpt lat="49.7615" lon="2.28111">
        <ele>131.2</ele>
        <time>2023-07-12T09:34:13Z</time>
      </trkpt>
      <trkpt lat="49.76151" lon="2.28109">
        <ele>131.2</ele>
        <time>2023-07-12T09:34:15Z</time>
      </trkpt>
      <trkpt lat="49.76151" lon="2.28108">
        <ele>131.2</ele>
        <time>2023-07-12T09:34:16Z</time>
      </trkpt>
      <trkpt lat="49.76151" lon="2.28106">
        <ele>131.2</ele>
        <time>2023-07-12T09:34:17Z</time>
      </trkpt>
      <trkpt lat="49.76152" lon="2.28103">
        <ele>131.3</ele>
        <time>2023-07-12T09:34:18Z</time>
      </trkpt>
      <trkpt lat="49.76152" lon="2.28102">
        <ele>131.3</ele>
        <time>2023-07-12T09:34:19Z</time>
      </trkpt>
      <trkpt lat="49.76153" lon="2.28101">
        <ele>131.4</ele>
        <time>2023-07-12T09:34:20Z</time>
      </trkpt>
      <trkpt lat="49.76153" lon="2.28098">
        <ele>131.4</ele>
        <time>2023-07-12T09:34:22Z</time>
      </trkpt>
      <trkpt lat="49.76154" lon="2.28097">
        <ele>131.4</ele>
        <time>2023-07-12T09:34:23Z</time>
      </trkpt>
      <trkpt lat="49.76154" lon="2.28095">
        <ele>131.5</ele>
        <time>2023-07-12T09:34:24Z</time>
      </trkpt>
      <trkpt lat="49.76155" lon="2.28094">
        <ele>131.5</ele>
        <time>2023-07-12T09:34:25Z</time>
      </trkpt>
      <trkpt lat="49.76155" lon="2.28092">
        <ele>131.5</ele>
        <time>2023-07-12T09:34:26Z</time>
      </trkpt>
      <trkpt lat="49.76155" lon="2.2809">
        <ele>131.6</ele>
        <time>2023-07-12T09:34:28Z</time>
      </trkpt>
      <trkpt lat="49.76156" lon="2.28088">
        <ele>131.6</ele>
        <time>2023-07-12T09:34:29Z</time>
      </trkpt>
      <trkpt lat="49.76156" lon="2.28087">
        <ele>131.6</ele>
        <time>2023-07-12T09:34:30Z</time>
      </trkpt>
      <trkpt lat="49.76157" lon="2.28085">
        <ele>131.7</ele>
        <time>2023-07-12T09:34:31Z</time>
      </trkpt>
      <trkpt lat="49.76157" lon="2.28083">
        <ele>131.7</ele>
        <time>2023-07-12T09:34:32Z</time>
      </trkpt>
      <trkpt lat="49.76158" lon="2.28082">
        <ele>131.7</ele>
        <time>2023-07-12T09:34:33Z</time>
      </trkpt>
      <trkpt lat="49.76158" lon="2.2808">
        <ele>131.7</ele>
        <time>2023-07-12T09:34:34Z</time>
      </trkpt>
      <trkpt lat="49.76158" lon="2.28079">
        <ele>131.8</ele>
        <time>2023-07-12T09:34:36Z</time>
      </trkpt>
      <trkpt lat="49.76159" lon="2.28077">
        <ele>131.8</ele>
        <time>2023-07-12T09:34:37Z</time>
      </trkpt>
      <trkpt lat="49.76159" lon="2.28075">
        <ele>131.8</ele>
        <time>2023-07-12T09:34:38Z</time>
      </trkpt>
      <trkpt lat="49.7616" lon="2.28074">
        <ele>131.8</ele>
        <time>2023-07-12T09:34:39Z</time>
      </trkpt>
      <trkpt lat="49.7616" lon="2.28072">
        <ele>131.9</ele>
        <time>2023-07-12T09:34:40Z</time>
      </trkpt>
      <trkpt lat="49.76161" lon="2.28071">
        <ele>131.9</ele>
        <time>2023-07-12T09:34:41Z</time>
      </trkpt>
      <trkpt lat="49.76161" lon="2.28069">
        <ele>131.9</ele>
        <time>2023-07-12T09:34:43Z</time>
      </trkpt>
      <trkpt lat="49.76161" lon="2.28068">
        <ele>131.9</ele>
        <time>2023-07-12T09:34:44Z</time>
      </trkpt>
      <trkpt lat="49.76162" lon="2.28066">
        <ele>131.9</ele>
        <time>2023-07-12T09:34:45Z</time>
      </trkpt>
      <trkpt lat="49.76162" lon="2.28065">
        <ele>132</ele>
        <time>2023-07-12T09:34:46Z</time>
      </trkpt>
      <trkpt lat="49.76163" lon="2.28063">
        <ele>132</ele>
        <time>2023-07-12T09:34:47Z</time>
      </trkpt>
      <trkpt lat="49.76163" lon="2.28062">
        <ele>132</ele>
        <time>2023-07-12T09:34:48Z</time>
      </trkpt>
      <trkpt lat="49.76163" lon="2.2806">
        <ele>132</ele>
        <time>2023-07-12T09:34:50Z</time>
      </trkpt>
      <trkpt lat="49.76164" lon="2.28059">
        <ele>132.1</ele>
        <time>2023-07-12T09:34:51Z</time>
      </trkpt>
      <trkpt lat="49.76164" lon="2.28058">
        <ele>132.1</ele>
        <time>2023-07-12T09:34:52Z</time>
      </trkpt>
      <trkpt lat="49.76165" lon="2.28057">
        <ele>132.1</ele>
        <time>2023-07-12T09:34:53Z</time>
      </trkpt>
      <trkpt lat="49.76165" lon="2.28055">
        <ele>132.1</ele>
        <time>2023-07-12T09:34:54Z</time>
      </trkpt>
      <trkpt lat="49.76166" lon="2.28054">
        <ele>132.1</ele>
        <time>2023-07-12T09:34:55Z</time>
      </trkpt>
      <trkpt lat="49.76167" lon="2.28053">
        <ele>132.2</ele>
        <time>2023-07-12T09:34:57Z</time>
      </trkpt>
      <trkpt lat="49.76167" lon="2.28052">
        <ele>132.2</ele>
        <time>2023-07-12T09:34:58Z</time>
      </trkpt>
      <trkpt lat="49.76168" lon="2.2805">
        <ele>132.2</ele>
        <time>2023-07-12T09:34:59Z</time>
      </trkpt>
      <trkpt lat="49.76169" lon="2.28049">
        <ele>132.2</ele>
        <time>2023-07-12T09:35:00Z</time>
      </trkpt>
      <trkpt lat="49.76169" lon="2.28047">
        <ele>132.3</ele>
        <time>2023-07-12T09:35:01Z</time>
      </trkpt>
      <trkpt lat="49.7617" lon="2.28046">
        <ele>132.3</ele>
        <time>2023-07-12T09:35:02Z</time>
      </trkpt>
      <trkpt lat="49.76171" lon="2.28045">
        <ele>132.3</ele>
        <time>2023-07-12T09:35:04Z</time>
      </trkpt>
      <trkpt lat="49.76171" lon="2.28043">
        <ele>132.3</ele>
        <time>2023-07-12T09:35:05Z</time>
      </trkpt>
      <trkpt lat="49.76172" lon="2.28042">
        <ele>132.4</ele>
        <time>2023-07-12T09:35:06Z</time>
      </trkpt>
      <trkpt lat="49.76173" lon="2.28039">
        <ele>132.4</ele>
        <time>2023-07-12T09:35:07Z</time>
      </trkpt>
      <trkpt lat="49.76173" lon="2.28038">
        <ele>132.4</ele>
        <time>2023-07-12T09:35:08Z</time>
      </trkpt>
      <trkpt lat="49.76174" lon="2.28037">
        <ele>132.4</ele>
        <time>2023-07-12T09:35:09Z</time>
      </trkpt>
      <trkpt lat="49.76175" lon="2.28035">
        <ele>132.4</ele>
        <time>2023-07-12T09:35:11Z</time>
      </trkpt>
      <trkpt lat="49.76176" lon="2.28034">
        <ele>132.4</ele>
        <time>2023-07-12T09:35:12Z</time>
      </trkpt>
      <trkpt lat="49.76176" lon="2.28033">
        <ele>132.5</ele>
        <time>2023-07-12T09:35:13Z</time>
      </trkpt>
      <trkpt lat="49.76178" lon="2.28031">
        <ele>132.5</ele>
        <time>2023-07-12T09:35:14Z</time>
      </trkpt>
      <trkpt lat="49.76179" lon="2.2803">
        <ele>132.5</ele>
        <time>2023-07-12T09:35:15Z</time>
      </trkpt>
      <trkpt lat="49.7618" lon="2.28027">
        <ele>132.5</ele>
        <time>2023-07-12T09:35:17Z</time>
      </trkpt>
      <trkpt lat="49.76181" lon="2.28026">
        <ele>132.5</ele>
        <time>2023-07-12T09:35:18Z</time>
      </trkpt>
      <trkpt lat="49.76182" lon="2.28025">
        <ele>132.5</ele>
        <time>2023-07-12T09:35:19Z</time>
      </trkpt>
      <trkpt lat="49.76183" lon="2.28023">
        <ele>132.6</ele>
        <time>2023-07-12T09:35:20Z</time>
      </trkpt>
      <trkpt lat="49.76184" lon="2.28022">
        <ele>132.6</ele>
        <time>2023-07-12T09:35:21Z</time>
      </trkpt>
      <trkpt lat="49.76184" lon="2.2802">
        <ele>132.6</ele>
        <time>2023-07-12T09:35:22Z</time>
      </trkpt>
      <trkpt lat="49.76185" lon="2.28018">
        <ele>132.6</ele>
        <time>2023-07-12T09:35:23Z</time>
      </trkpt>
      <trkpt lat="49.76186" lon="2.28016">
        <ele>132.6</ele>
        <time>2023-07-12T09:35:25Z</time>
      </trkpt>
      <trkpt lat="49.76187" lon="2.28015">
        <ele>132.6</ele>
        <time>2023-07-12T09:35:26Z</time>
      </trkpt>
      <trkpt lat="49.76188" lon="2.28013">
        <ele>132.6</ele>
        <time>2023-07-12T09:35:27Z</time>
      </trkpt>
      <trkpt lat="49.76189" lon="2.28011">
        <ele>132.6</ele>
        <time>2023-07-12T09:35:28Z</time>
      </trkpt>
      <trkpt lat="49.7619" lon="2.2801">
        <ele>132.6</ele>
        <time>2023-07-12T09:35:29Z</time>
      </trkpt>
      <trkpt lat="49.76191" lon="2.28008">
        <ele>132.6</ele>
        <time>2023-07-12T09:35:30Z</time>
      </trkpt>
      <trkpt lat="49.76192" lon="2.28007">
        <ele>132.6</ele>
        <time>2023-07-12T09:35:32Z</time>
      </trkpt>
      <trkpt lat="49.76193" lon="2.28006">
        <ele>132.7</ele>
        <time>2023-07-12T09:35:33Z</time>
      </trkpt>
      <trkpt lat="49.76194" lon="2.28005">
        <ele>132.7</ele>
        <time>2023-07-12T09:35:34Z</time>
      </trkpt>
      <trkpt lat="49.76195" lon="2.28004">
        <ele>132.7</ele>
        <time>2023-07-12T09:35:35Z</time>
      </trkpt>
      <trkpt lat="49.76196" lon="2.28002">
        <ele>132.7</ele>
        <time>2023-07-12T09:35:36Z</time>
      </trkpt>
      <trkpt lat="49.76197" lon="2.28002">
        <ele>132.7</ele>
        <time>2023-07-12T09:35:37Z</time>
      </trkpt>
      <trkpt lat="49.76198" lon="2.28002">
        <ele>132.7</ele>
        <time>2023-07-12T09:35:39Z</time>
      </trkpt>
      <trkpt lat="49.76199" lon="2.28002">
        <ele>132.7</ele>
        <time>2023-07-12T09:35:40Z</time>
      </trkpt>
      <trkpt lat="49.76201" lon="2.28002">
        <ele>132.7</ele>
        <time>2023-07-12T09:35:41Z</time>
      </trkpt>
      <trkpt lat="49.76202" lon="2.28001">
        <ele>132.7</ele>
        <time>2023-07-12T09:35:42Z</time>
      </trkpt>
      <trkpt lat="49.76203" lon="2.28">
        <ele>132.7</ele>
        <time>2023-07-12T09:35:43Z</time>
      </trkpt>
      <trkpt lat="49.76203" lon="2.28">
        <ele>132.7</ele>
        <time>2023-07-12T09:35:45Z</time>
      </trkpt>
      <trkpt lat="49.76204" lon="2.27999">
        <ele>132.7</ele>
        <time>2023-07-12T09:35:46Z</time>
      </trkpt>
      <trkpt lat="49.76205" lon="2.27998">
        <ele>132.7</ele>
        <time>2023-07-12T09:35:47Z</time>
      </trkpt>
      <trkpt lat="49.76206" lon="2.27997">
        <ele>132.7</ele>
        <time>2023-07-12T09:35:48Z</time>
      </trkpt>
      <trkpt lat="49.76207" lon="2.27996">
        <ele>132.7</ele>
        <time>2023-07-12T09:35:49Z</time>
      </trkpt>
      <trkpt lat="49.76207" lon="2.27995">
        <ele>132.7</ele>
        <time>2023-07-12T09:35:51Z</time>
      </trkpt>
      <trkpt lat="49.76208" lon="2.27994">
        <ele>132.7</ele>
        <time>2023-07-12T09:35:52Z</time>
      </trkpt>
      <trkpt lat="49.76208" lon="2.27993">
        <ele>132.7</ele>
        <time>2023-07-12T09:35:53Z</time>
      </trkpt>
      <trkpt lat="49.76209" lon="2.27992">
        <ele>132.8</ele>
        <time>2023-07-12T09:35:54Z</time>
      </trkpt>
      <trkpt lat="49.76209" lon="2.27991">
        <ele>132.8</ele>
        <time>2023-07-12T09:35:55Z</time>
      </trkpt>
      <trkpt lat="49.7621" lon="2.2799">
        <ele>132.8</ele>
        <time>2023-07-12T09:35:56Z</time>
      </trkpt>
      <trkpt lat="49.7621" lon="2.27989">
        <ele>132.8</ele>
        <time>2023-07-12T09:35:58Z</time>
      </trkpt>
      <trkpt lat="49.76211" lon="2.27989">
        <ele>132.8</ele>
        <time>2023-07-12T09:35:59Z</time>
      </trkpt>
      <trkpt lat="49.76212" lon="2.27988">
        <ele>132.8</ele>
        <time>2023-07-12T09:36:00Z</time>
      </trkpt>
      <trkpt lat="49.76212" lon="2.27987">
        <ele>132.8</ele>
        <time>2023-07-12T09:36:01Z</time>
      </trkpt>
      <trkpt lat="49.76213" lon="2.27986">
        <ele>132.8</ele>
        <time>2023-07-12T09:36:02Z</time>
      </trkpt>
      <trkpt lat="49.76214" lon="2.27985">
        <ele>132.8</ele>
        <time>2023-07-12T09:36:03Z</time>
      </trkpt>
      <trkpt lat="49.76214" lon="2.27984">
        <ele>132.8</ele>
        <time>2023-07-12T09:36:05Z</time>
      </trkpt>
      <trkpt lat="49.76215" lon="2.27983">
        <ele>132.8</ele>
        <time>2023-07-12T09:36:06Z</time>
      </trkpt>
      <trkpt lat="49.76216" lon="2.27982">
        <ele>132.9</ele>
        <time>2023-07-12T09:36:07Z</time>
      </trkpt>
      <trkpt lat="49.76217" lon="2.2798">
        <ele>132.9</ele>
        <time>2023-07-12T09:36:08Z</time>
      </trkpt>
      <trkpt lat="49.76218" lon="2.27979">
        <ele>132.9</ele>
        <time>2023-07-12T09:36:09Z</time>
      </trkpt>
      <trkpt lat="49.76219" lon="2.27977">
        <ele>132.9</ele>
        <time>2023-07-12T09:36:11Z</time>
      </trkpt>
      <trkpt lat="49.7622" lon="2.27976">
        <ele>132.9</ele>
        <time>2023-07-12T09:36:12Z</time>
      </trkpt>
      <trkpt lat="49.7622" lon="2.27975">
        <ele>132.9</ele>
        <time>2023-07-12T09:36:13Z</time>
      </trkpt>
      <trkpt lat="49.76222" lon="2.27973">
        <ele>133</ele>
        <time>2023-07-12T09:36:14Z</time>
      </trkpt>
      <trkpt lat="49.76223" lon="2.27972">
        <ele>133</ele>
        <time>2023-07-12T09:36:15Z</time>
      </trkpt>
      <trkpt lat="49.76224" lon="2.27971">
        <ele>133</ele>
        <time>2023-07-12T09:36:16Z</time>
      </trkpt>
      <trkpt lat="49.76225" lon="2.27969">
        <ele>133</ele>
        <time>2023-07-12T09:36:17Z</time>
      </trkpt>
      <trkpt lat="49.76226" lon="2.27967">
        <ele>133</ele>
        <time>2023-07-12T09:36:19Z</time>
      </trkpt>
      <trkpt lat="49.76227" lon="2.27966">
        <ele>133</ele>
        <time>2023-07-12T09:36:20Z</time>
      </trkpt>
      <trkpt lat="49.76228" lon="2.27965">
        <ele>133.1</ele>
        <time>2023-07-12T09:36:21Z</time>
      </trkpt>
      <trkpt lat="49.76229" lon="2.27964">
        <ele>133.1</ele>
        <time>2023-07-12T09:36:22Z</time>
      </trkpt>
      <trkpt lat="49.7623" lon="2.27962">
        <ele>133.1</ele>
        <time>2023-07-12T09:36:23Z</time>
      </trkpt>
      <trkpt lat="49.76231" lon="2.27962">
        <ele>133.1</ele>
        <time>2023-07-12T09:36:24Z</time>
      </trkpt>
      <trkpt lat="49.76232" lon="2.27962">
        <ele>133.1</ele>
        <time>2023-07-12T09:36:26Z</time>
      </trkpt>
      <trkpt lat="49.76233" lon="2.27964">
        <ele>133.1</ele>
        <time>2023-07-12T09:36:28Z</time>
      </trkpt>
      <trkpt lat="49.76233" lon="2.27966">
        <ele>133.1</ele>
        <time>2023-07-12T09:36:29Z</time>
      </trkpt>
      <trkpt lat="49.76233" lon="2.27968">
        <ele>133.1</ele>
        <time>2023-07-12T09:36:31Z</time>
      </trkpt>
      <trkpt lat="49.76233" lon="2.27968">
        <ele>133.1</ele>
        <time>2023-07-12T09:36:32Z</time>
      </trkpt>
      <trkpt lat="49.76233" lon="2.27969">
        <ele>133.1</ele>
        <time>2023-07-12T09:36:33Z</time>
      </trkpt>
      <trkpt lat="49.76233" lon="2.27969">
        <ele>133.1</ele>
        <time>2023-07-12T09:36:35Z</time>
      </trkpt>
      <trkpt lat="49.76233" lon="2.27969">
        <ele>133.2</ele>
        <time>2023-07-12T09:36:36Z</time>
      </trkpt>
      <trkpt lat="49.76233" lon="2.27969">
        <ele>133.2</ele>
        <time>2023-07-12T09:36:38Z</time>
      </trkpt>
      <trkpt lat="49.76233" lon="2.27969">
        <ele>133.2</ele>
        <time>2023-07-12T09:36:39Z</time>
      </trkpt>
      <trkpt lat="49.76233" lon="2.27969">
        <ele>133.2</ele>
        <time>2023-07-12T09:36:40Z</time>
      </trkpt>
      <trkpt lat="49.76233" lon="2.27969">
        <ele>133.2</ele>
        <time>2023-07-12T09:36:41Z</time>
      </trkpt>
      <trkpt lat="49.76233" lon="2.27969">
        <ele>133.2</ele>
        <time>2023-07-12T09:36:43Z</time>
      </trkpt>
      <trkpt lat="49.76233" lon="2.27969">
        <ele>133.2</ele>
        <time>2023-07-12T09:36:45Z</time>
      </trkpt>
      <trkpt lat="49.76233" lon="2.27969">
        <ele>133.2</ele>
        <time>2023-07-12T09:36:47Z</time>
      </trkpt>
      <trkpt lat="49.76233" lon="2.27968">
        <ele>133.2</ele>
        <time>2023-07-12T09:36:48Z</time>
      </trkpt>
      <trkpt lat="49.76233" lon="2.27968">
        <ele>133.2</ele>
        <time>2023-07-12T09:36:49Z</time>
      </trkpt>
      <trkpt lat="49.76233" lon="2.27968">
        <ele>133.2</ele>
        <time>2023-07-12T09:36:50Z</time>
      </trkpt>
      <trkpt lat="49.76232" lon="2.27967">
        <ele>133.2</ele>
        <time>2023-07-12T09:36:51Z</time>
      </trkpt>
      <trkpt lat="49.76232" lon="2.27965">
        <ele>133.2</ele>
        <time>2023-07-12T09:36:53Z</time>
      </trkpt>
      <trkpt lat="49.76232" lon="2.27966">
        <ele>133.2</ele>
        <time>2023-07-12T09:36:54Z</time>
      </trkpt>
      <trkpt lat="49.76233" lon="2.27964">
        <ele>133.2</ele>
        <time>2023-07-12T09:36:55Z</time>
      </trkpt>
      <trkpt lat="49.76233" lon="2.27962">
        <ele>133.2</ele>
        <time>2023-07-12T09:36:56Z</time>
      </trkpt>
      <trkpt lat="49.76233" lon="2.27959">
        <ele>133.2</ele>
        <time>2023-07-12T09:36:58Z</time>
      </trkpt>
      <trkpt lat="49.76234" lon="2.27956">
        <ele>133.2</ele>
        <time>2023-07-12T09:36:59Z</time>
      </trkpt>
      <trkpt lat="49.76234" lon="2.27955">
        <ele>133.2</ele>
        <time>2023-07-12T09:37:00Z</time>
      </trkpt>
      <trkpt lat="49.76234" lon="2.27954">
        <ele>133.2</ele>
        <time>2023-07-12T09:37:01Z</time>
      </trkpt>
      <trkpt lat="49.76236" lon="2.27951">
        <ele>133.3</ele>
        <time>2023-07-12T09:37:02Z</time>
      </trkpt>
      <trkpt lat="49.76236" lon="2.2795">
        <ele>133.3</ele>
        <time>2023-07-12T09:37:03Z</time>
      </trkpt>
      <trkpt lat="49.76237" lon="2.27949">
        <ele>133.3</ele>
        <time>2023-07-12T09:37:04Z</time>
      </trkpt>
      <trkpt lat="49.76241" lon="2.27949">
        <ele>133.3</ele>
        <time>2023-07-12T09:37:06Z</time>
      </trkpt>
      <trkpt lat="49.76243" lon="2.27949">
        <ele>133.3</ele>
        <time>2023-07-12T09:37:07Z</time>
      </trkpt>
      <trkpt lat="49.76244" lon="2.27948">
        <ele>133.3</ele>
        <time>2023-07-12T09:37:08Z</time>
      </trkpt>
      <trkpt lat="49.76245" lon="2.27946">
        <ele>133.3</ele>
        <time>2023-07-12T09:37:09Z</time>
      </trkpt>
      <trkpt lat="49.76246" lon="2.27945">
        <ele>133.4</ele>
        <time>2023-07-12T09:37:10Z</time>
      </trkpt>
      <trkpt lat="49.76247" lon="2.27943">
        <ele>133.4</ele>
        <time>2023-07-12T09:37:11Z</time>
      </trkpt>
      <trkpt lat="49.76247" lon="2.27942">
        <ele>133.4</ele>
        <time>2023-07-12T09:37:12Z</time>
      </trkpt>
      <trkpt lat="49.76247" lon="2.2794">
        <ele>133.4</ele>
        <time>2023-07-12T09:37:13Z</time>
      </trkpt>
      <trkpt lat="49.76248" lon="2.27939">
        <ele>133.4</ele>
        <time>2023-07-12T09:37:15Z</time>
      </trkpt>
      <trkpt lat="49.76248" lon="2.27937">
        <ele>133.4</ele>
        <time>2023-07-12T09:37:16Z</time>
      </trkpt>
      <trkpt lat="49.76249" lon="2.27935">
        <ele>133.4</ele>
        <time>2023-07-12T09:37:17Z</time>
      </trkpt>
      <trkpt lat="49.76249" lon="2.27934">
        <ele>133.4</ele>
        <time>2023-07-12T09:37:18Z</time>
      </trkpt>
      <trkpt lat="49.76249" lon="2.27933">
        <ele>133.4</ele>
        <time>2023-07-12T09:37:19Z</time>
      </trkpt>
      <trkpt lat="49.7625" lon="2.27931">
        <ele>133.4</ele>
        <time>2023-07-12T09:37:20Z</time>
      </trkpt>
      <trkpt lat="49.7625" lon="2.2793">
        <ele>133.4</ele>
        <time>2023-07-12T09:37:22Z</time>
      </trkpt>
      <trkpt lat="49.7625" lon="2.27928">
        <ele>133.5</ele>
        <time>2023-07-12T09:37:23Z</time>
      </trkpt>
      <trkpt lat="49.76251" lon="2.27927">
        <ele>133.5</ele>
        <time>2023-07-12T09:37:24Z</time>
      </trkpt>
      <trkpt lat="49.76251" lon="2.27925">
        <ele>133.5</ele>
        <time>2023-07-12T09:37:25Z</time>
      </trkpt>
      <trkpt lat="49.76252" lon="2.27924">
        <ele>133.5</ele>
        <time>2023-07-12T09:37:26Z</time>
      </trkpt>
      <trkpt lat="49.76252" lon="2.27923">
        <ele>133.5</ele>
        <time>2023-07-12T09:37:27Z</time>
      </trkpt>
      <trkpt lat="49.76253" lon="2.27922">
        <ele>133.5</ele>
        <time>2023-07-12T09:37:28Z</time>
      </trkpt>
      <trkpt lat="49.76254" lon="2.27921">
        <ele>133.5</ele>
        <time>2023-07-12T09:37:29Z</time>
      </trkpt>
      <trkpt lat="49.76254" lon="2.2792">
        <ele>133.5</ele>
        <time>2023-07-12T09:37:31Z</time>
      </trkpt>
      <trkpt lat="49.76255" lon="2.27917">
        <ele>133.5</ele>
        <time>2023-07-12T09:37:32Z</time>
      </trkpt>
      <trkpt lat="49.76256" lon="2.27915">
        <ele>133.5</ele>
        <time>2023-07-12T09:37:33Z</time>
      </trkpt>
      <trkpt lat="49.76257" lon="2.27911">
        <ele>133.5</ele>
        <time>2023-07-12T09:37:34Z</time>
      </trkpt>
      <trkpt lat="49.76258" lon="2.2791">
        <ele>133.5</ele>
        <time>2023-07-12T09:37:35Z</time>
      </trkpt>
      <trkpt lat="49.76259" lon="2.27908">
        <ele>133.6</ele>
        <time>2023-07-12T09:37:36Z</time>
      </trkpt>
      <trkpt lat="49.7626" lon="2.27906">
        <ele>133.6</ele>
        <time>2023-07-12T09:37:38Z</time>
      </trkpt>
      <trkpt lat="49.7626" lon="2.27904">
        <ele>133.6</ele>
        <time>2023-07-12T09:37:39Z</time>
      </trkpt>
      <trkpt lat="49.76262" lon="2.27903">
        <ele>133.6</ele>
        <time>2023-07-12T09:37:40Z</time>
      </trkpt>
      <trkpt lat="49.76263" lon="2.27901">
        <ele>133.6</ele>
        <time>2023-07-12T09:37:41Z</time>
      </trkpt>
      <trkpt lat="49.76263" lon="2.27899">
        <ele>133.6</ele>
        <time>2023-07-12T09:37:42Z</time>
      </trkpt>
      <trkpt lat="49.76264" lon="2.27897">
        <ele>133.6</ele>
        <time>2023-07-12T09:37:43Z</time>
      </trkpt>
      <trkpt lat="49.76265" lon="2.27896">
        <ele>133.6</ele>
        <time>2023-07-12T09:37:44Z</time>
      </trkpt>
      <trkpt lat="49.76266" lon="2.27893">
        <ele>133.6</ele>
        <time>2023-07-12T09:37:46Z</time>
      </trkpt>
      <trkpt lat="49.76267" lon="2.27891">
        <ele>133.6</ele>
        <time>2023-07-12T09:37:47Z</time>
      </trkpt>
      <trkpt lat="49.76267" lon="2.2789">
        <ele>133.6</ele>
        <time>2023-07-12T09:37:48Z</time>
      </trkpt>
      <trkpt lat="49.76268" lon="2.27888">
        <ele>133.7</ele>
        <time>2023-07-12T09:37:49Z</time>
      </trkpt>
      <trkpt lat="49.76268" lon="2.27887">
        <ele>133.7</ele>
        <time>2023-07-12T09:37:50Z</time>
      </trkpt>
      <trkpt lat="49.76269" lon="2.27885">
        <ele>133.7</ele>
        <time>2023-07-12T09:37:52Z</time>
      </trkpt>
      <trkpt lat="49.76269" lon="2.27884">
        <ele>133.7</ele>
        <time>2023-07-12T09:37:53Z</time>
      </trkpt>
      <trkpt lat="49.7627" lon="2.27882">
        <ele>133.7</ele>
        <time>2023-07-12T09:37:54Z</time>
      </trkpt>
      <trkpt lat="49.7627" lon="2.27881">
        <ele>133.7</ele>
        <time>2023-07-12T09:37:55Z</time>
      </trkpt>
      <trkpt lat="49.76271" lon="2.27879">
        <ele>133.7</ele>
        <time>2023-07-12T09:37:56Z</time>
      </trkpt>
      <trkpt lat="49.76271" lon="2.27877">
        <ele>133.7</ele>
        <time>2023-07-12T09:37:57Z</time>
      </trkpt>
      <trkpt lat="49.76271" lon="2.27876">
        <ele>133.7</ele>
        <time>2023-07-12T09:37:59Z</time>
      </trkpt>
      <trkpt lat="49.76271" lon="2.27874">
        <ele>133.8</ele>
        <time>2023-07-12T09:38:00Z</time>
      </trkpt>
      <trkpt lat="49.76272" lon="2.27872">
        <ele>133.8</ele>
        <time>2023-07-12T09:38:01Z</time>
      </trkpt>
      <trkpt lat="49.76272" lon="2.27871">
        <ele>133.8</ele>
        <time>2023-07-12T09:38:02Z</time>
      </trkpt>
      <trkpt lat="49.76272" lon="2.27869">
        <ele>133.8</ele>
        <time>2023-07-12T09:38:04Z</time>
      </trkpt>
      <trkpt lat="49.76272" lon="2.27868">
        <ele>133.8</ele>
        <time>2023-07-12T09:38:05Z</time>
      </trkpt>
      <trkpt lat="49.76273" lon="2.27866">
        <ele>133.8</ele>
        <time>2023-07-12T09:38:06Z</time>
      </trkpt>
      <trkpt lat="49.76273" lon="2.27864">
        <ele>133.8</ele>
        <time>2023-07-12T09:38:07Z</time>
      </trkpt>
      <trkpt lat="49.76273" lon="2.27863">
        <ele>133.8</ele>
        <time>2023-07-12T09:38:08Z</time>
      </trkpt>
      <trkpt lat="49.76274" lon="2.27861">
        <ele>133.9</ele>
        <time>2023-07-12T09:38:10Z</time>
      </trkpt>
      <trkpt lat="49.76274" lon="2.27857">
        <ele>133.9</ele>
        <time>2023-07-12T09:38:11Z</time>
      </trkpt>
      <trkpt lat="49.76274" lon="2.27856">
        <ele>133.9</ele>
        <time>2023-07-12T09:38:13Z</time>
      </trkpt>
      <trkpt lat="49.76274" lon="2.27855">
        <ele>133.9</ele>
        <time>2023-07-12T09:38:14Z</time>
      </trkpt>
      <trkpt lat="49.76275" lon="2.27852">
        <ele>133.9</ele>
        <time>2023-07-12T09:38:15Z</time>
      </trkpt>
      <trkpt lat="49.76275" lon="2.2785">
        <ele>133.9</ele>
        <time>2023-07-12T09:38:16Z</time>
      </trkpt>
      <trkpt lat="49.76275" lon="2.27849">
        <ele>133.9</ele>
        <time>2023-07-12T09:38:18Z</time>
      </trkpt>
      <trkpt lat="49.76275" lon="2.27847">
        <ele>133.9</ele>
        <time>2023-07-12T09:38:19Z</time>
      </trkpt>
      <trkpt lat="49.76276" lon="2.27846">
        <ele>133.9</ele>
        <time>2023-07-12T09:38:20Z</time>
      </trkpt>
      <trkpt lat="49.76276" lon="2.27844">
        <ele>133.9</ele>
        <time>2023-07-12T09:38:21Z</time>
      </trkpt>
      <trkpt lat="49.76276" lon="2.27843">
        <ele>133.9</ele>
        <time>2023-07-12T09:38:22Z</time>
      </trkpt>
      <trkpt lat="49.76277" lon="2.27841">
        <ele>133.9</ele>
        <time>2023-07-12T09:38:23Z</time>
      </trkpt>
      <trkpt lat="49.76277" lon="2.2784">
        <ele>133.9</ele>
        <time>2023-07-12T09:38:24Z</time>
      </trkpt>
      <trkpt lat="49.76279" lon="2.27837">
        <ele>133.9</ele>
        <time>2023-07-12T09:38:26Z</time>
      </trkpt>
      <trkpt lat="49.76279" lon="2.27836">
        <ele>133.9</ele>
        <time>2023-07-12T09:38:27Z</time>
      </trkpt>
      <trkpt lat="49.76279" lon="2.27835">
        <ele>133.9</ele>
        <time>2023-07-12T09:38:28Z</time>
      </trkpt>
      <trkpt lat="49.7628" lon="2.27833">
        <ele>133.9</ele>
        <time>2023-07-12T09:38:30Z</time>
      </trkpt>
      <trkpt lat="49.7628" lon="2.27832">
        <ele>133.9</ele>
        <time>2023-07-12T09:38:31Z</time>
      </trkpt>
      <trkpt lat="49.76281" lon="2.2783">
        <ele>133.9</ele>
        <time>2023-07-12T09:38:32Z</time>
      </trkpt>
      <trkpt lat="49.76282" lon="2.27829">
        <ele>133.9</ele>
        <time>2023-07-12T09:38:33Z</time>
      </trkpt>
      <trkpt lat="49.76282" lon="2.27828">
        <ele>133.9</ele>
        <time>2023-07-12T09:38:34Z</time>
      </trkpt>
      <trkpt lat="49.76283" lon="2.27827">
        <ele>133.9</ele>
        <time>2023-07-12T09:38:35Z</time>
      </trkpt>
      <trkpt lat="49.76283" lon="2.27825">
        <ele>133.9</ele>
        <time>2023-07-12T09:38:36Z</time>
      </trkpt>
      <trkpt lat="49.76283" lon="2.27823">
        <ele>133.9</ele>
        <time>2023-07-12T09:38:37Z</time>
      </trkpt>
      <trkpt lat="49.76284" lon="2.27822">
        <ele>133.9</ele>
        <time>2023-07-12T09:38:39Z</time>
      </trkpt>
      <trkpt lat="49.76284" lon="2.27821">
        <ele>133.9</ele>
        <time>2023-07-12T09:38:40Z</time>
      </trkpt>
      <trkpt lat="49.76284" lon="2.2782">
        <ele>133.9</ele>
        <time>2023-07-12T09:38:41Z</time>
      </trkpt>
      <trkpt lat="49.76285" lon="2.27818">
        <ele>133.9</ele>
        <time>2023-07-12T09:38:42Z</time>
      </trkpt>
      <trkpt lat="49.76285" lon="2.27816">
        <ele>133.9</ele>
        <time>2023-07-12T09:38:43Z</time>
      </trkpt>
      <trkpt lat="49.76285" lon="2.27815">
        <ele>133.9</ele>
        <time>2023-07-12T09:38:45Z</time>
      </trkpt>
      <trkpt lat="49.76285" lon="2.27814">
        <ele>133.9</ele>
        <time>2023-07-12T09:38:46Z</time>
      </trkpt>
      <trkpt lat="49.76286" lon="2.27812">
        <ele>134</ele>
        <time>2023-07-12T09:38:47Z</time>
      </trkpt>
      <trkpt lat="49.76286" lon="2.27809">
        <ele>134</ele>
        <time>2023-07-12T09:38:48Z</time>
      </trkpt>
      <trkpt lat="49.76286" lon="2.27808">
        <ele>134</ele>
        <time>2023-07-12T09:38:49Z</time>
      </trkpt>
      <trkpt lat="49.76287" lon="2.27807">
        <ele>134</ele>
        <time>2023-07-12T09:38:51Z</time>
      </trkpt>
      <trkpt lat="49.76287" lon="2.27806">
        <ele>134</ele>
        <time>2023-07-12T09:38:52Z</time>
      </trkpt>
      <trkpt lat="49.76287" lon="2.27805">
        <ele>134</ele>
        <time>2023-07-12T09:38:53Z</time>
      </trkpt>
      <trkpt lat="49.76287" lon="2.27804">
        <ele>134</ele>
        <time>2023-07-12T09:38:54Z</time>
      </trkpt>
      <trkpt lat="49.76287" lon="2.27802">
        <ele>134</ele>
        <time>2023-07-12T09:38:55Z</time>
      </trkpt>
      <trkpt lat="49.76288" lon="2.27801">
        <ele>134.1</ele>
        <time>2023-07-12T09:38:56Z</time>
      </trkpt>
      <trkpt lat="49.76289" lon="2.278">
        <ele>134.1</ele>
        <time>2023-07-12T09:38:58Z</time>
      </trkpt>
      <trkpt lat="49.76289" lon="2.27798">
        <ele>134.1</ele>
        <time>2023-07-12T09:38:59Z</time>
      </trkpt>
      <trkpt lat="49.7629" lon="2.27797">
        <ele>134.1</ele>
        <time>2023-07-12T09:39:00Z</time>
      </trkpt>
      <trkpt lat="49.76291" lon="2.27795">
        <ele>134.1</ele>
        <time>2023-07-12T09:39:01Z</time>
      </trkpt>
      <trkpt lat="49.76291" lon="2.27794">
        <ele>134.1</ele>
        <time>2023-07-12T09:39:02Z</time>
      </trkpt>
      <trkpt lat="49.76292" lon="2.27792">
        <ele>134.1</ele>
        <time>2023-07-12T09:39:04Z</time>
      </trkpt>
      <trkpt lat="49.76292" lon="2.27791">
        <ele>134.1</ele>
        <time>2023-07-12T09:39:05Z</time>
      </trkpt>
      <trkpt lat="49.76293" lon="2.27789">
        <ele>134.2</ele>
        <time>2023-07-12T09:39:06Z</time>
      </trkpt>
      <trkpt lat="49.76294" lon="2.27787">
        <ele>134.2</ele>
        <time>2023-07-12T09:39:07Z</time>
      </trkpt>
      <trkpt lat="49.76294" lon="2.27786">
        <ele>134.2</ele>
        <time>2023-07-12T09:39:08Z</time>
      </trkpt>
      <trkpt lat="49.76295" lon="2.27783">
        <ele>134.2</ele>
        <time>2023-07-12T09:39:10Z</time>
      </trkpt>
      <trkpt lat="49.76295" lon="2.27781">
        <ele>134.2</ele>
        <time>2023-07-12T09:39:11Z</time>
      </trkpt>
      <trkpt lat="49.76296" lon="2.2778">
        <ele>134.2</ele>
        <time>2023-07-12T09:39:13Z</time>
      </trkpt>
      <trkpt lat="49.76296" lon="2.27778">
        <ele>134.2</ele>
        <time>2023-07-12T09:39:14Z</time>
      </trkpt>
      <trkpt lat="49.76296" lon="2.27776">
        <ele>134.2</ele>
        <time>2023-07-12T09:39:15Z</time>
      </trkpt>
      <trkpt lat="49.76296" lon="2.27774">
        <ele>134.2</ele>
        <time>2023-07-12T09:39:16Z</time>
      </trkpt>
      <trkpt lat="49.76296" lon="2.27773">
        <ele>134.2</ele>
        <time>2023-07-12T09:39:18Z</time>
      </trkpt>
      <trkpt lat="49.76296" lon="2.27771">
        <ele>134.2</ele>
        <time>2023-07-12T09:39:19Z</time>
      </trkpt>
      <trkpt lat="49.76297" lon="2.2777">
        <ele>134.2</ele>
        <time>2023-07-12T09:39:20Z</time>
      </trkpt>
      <trkpt lat="49.76297" lon="2.27768">
        <ele>134.2</ele>
        <time>2023-07-12T09:39:21Z</time>
      </trkpt>
      <trkpt lat="49.76297" lon="2.27767">
        <ele>134.2</ele>
        <time>2023-07-12T09:39:22Z</time>
      </trkpt>
      <trkpt lat="49.76297" lon="2.27765">
        <ele>134.2</ele>
        <time>2023-07-12T09:39:23Z</time>
      </trkpt>
      <trkpt lat="49.76297" lon="2.27765">
        <ele>134.2</ele>
        <time>2023-07-12T09:39:25Z</time>
      </trkpt>
      <trkpt lat="49.76298" lon="2.27764">
        <ele>134.3</ele>
        <time>2023-07-12T09:39:26Z</time>
      </trkpt>
      <trkpt lat="49.76298" lon="2.27764">
        <ele>134.3</ele>
        <time>2023-07-12T09:39:27Z</time>
      </trkpt>
      <trkpt lat="49.76299" lon="2.27764">
        <ele>134.3</ele>
        <time>2023-07-12T09:39:28Z</time>
      </trkpt>
      <trkpt lat="49.76299" lon="2.27764">
        <ele>134.3</ele>
        <time>2023-07-12T09:39:29Z</time>
      </trkpt>
      <trkpt lat="49.76299" lon="2.27764">
        <ele>134.3</ele>
        <time>2023-07-12T09:39:31Z</time>
      </trkpt>
      <trkpt lat="49.76299" lon="2.27763">
        <ele>134.3</ele>
        <time>2023-07-12T09:39:32Z</time>
      </trkpt>
      <trkpt lat="49.76299" lon="2.27762">
        <ele>134.3</ele>
        <time>2023-07-12T09:39:33Z</time>
      </trkpt>
      <trkpt lat="49.76299" lon="2.27762">
        <ele>134.3</ele>
        <time>2023-07-12T09:39:34Z</time>
      </trkpt>
      <trkpt lat="49.763" lon="2.2776">
        <ele>134.3</ele>
        <time>2023-07-12T09:39:36Z</time>
      </trkpt>
      <trkpt lat="49.763" lon="2.27759">
        <ele>134.3</ele>
        <time>2023-07-12T09:39:37Z</time>
      </trkpt>
      <trkpt lat="49.763" lon="2.27758">
        <ele>134.3</ele>
        <time>2023-07-12T09:39:38Z</time>
      </trkpt>
      <trkpt lat="49.76301" lon="2.27756">
        <ele>134.3</ele>
        <time>2023-07-12T09:39:39Z</time>
      </trkpt>
      <trkpt lat="49.76301" lon="2.27755">
        <ele>134.3</ele>
        <time>2023-07-12T09:39:40Z</time>
      </trkpt>
      <trkpt lat="49.76301" lon="2.27753">
        <ele>134.3</ele>
        <time>2023-07-12T09:39:41Z</time>
      </trkpt>
      <trkpt lat="49.76301" lon="2.27752">
        <ele>134.3</ele>
        <time>2023-07-12T09:39:43Z</time>
      </trkpt>
      <trkpt lat="49.76302" lon="2.2775">
        <ele>134.3</ele>
        <time>2023-07-12T09:39:44Z</time>
      </trkpt>
      <trkpt lat="49.76302" lon="2.27749">
        <ele>134.3</ele>
        <time>2023-07-12T09:39:45Z</time>
      </trkpt>
      <trkpt lat="49.76302" lon="2.27748">
        <ele>134.3</ele>
        <time>2023-07-12T09:39:46Z</time>
      </trkpt>
      <trkpt lat="49.76303" lon="2.27746">
        <ele>134.3</ele>
        <time>2023-07-12T09:39:47Z</time>
      </trkpt>
      <trkpt lat="49.76303" lon="2.27744">
        <ele>134.3</ele>
        <time>2023-07-12T09:39:48Z</time>
      </trkpt>
      <trkpt lat="49.76303" lon="2.27743">
        <ele>134.3</ele>
        <time>2023-07-12T09:39:49Z</time>
      </trkpt>
      <trkpt lat="49.76303" lon="2.27741">
        <ele>134.3</ele>
        <time>2023-07-12T09:39:51Z</time>
      </trkpt>
      <trkpt lat="49.76304" lon="2.2774">
        <ele>134.3</ele>
        <time>2023-07-12T09:39:52Z</time>
      </trkpt>
      <trkpt lat="49.76305" lon="2.27739">
        <ele>134.3</ele>
        <time>2023-07-12T09:39:53Z</time>
      </trkpt>
      <trkpt lat="49.76305" lon="2.27738">
        <ele>134.3</ele>
        <time>2023-07-12T09:39:54Z</time>
      </trkpt>
      <trkpt lat="49.76306" lon="2.27736">
        <ele>134.3</ele>
        <time>2023-07-12T09:39:55Z</time>
      </trkpt>
      <trkpt lat="49.76307" lon="2.27734">
        <ele>134.3</ele>
        <time>2023-07-12T09:39:56Z</time>
      </trkpt>
      <trkpt lat="49.76307" lon="2.27733">
        <ele>134.3</ele>
        <time>2023-07-12T09:39:58Z</time>
      </trkpt>
      <trkpt lat="49.76308" lon="2.27732">
        <ele>134.3</ele>
        <time>2023-07-12T09:39:59Z</time>
      </trkpt>
      <trkpt lat="49.76308" lon="2.27731">
        <ele>134.3</ele>
        <time>2023-07-12T09:40:00Z</time>
      </trkpt>
      <trkpt lat="49.76308" lon="2.27729">
        <ele>134.3</ele>
        <time>2023-07-12T09:40:01Z</time>
      </trkpt>
      <trkpt lat="49.76309" lon="2.27727">
        <ele>134.3</ele>
        <time>2023-07-12T09:40:02Z</time>
      </trkpt>
      <trkpt lat="49.76309" lon="2.27726">
        <ele>134.3</ele>
        <time>2023-07-12T09:40:03Z</time>
      </trkpt>
      <trkpt lat="49.76309" lon="2.27724">
        <ele>134.3</ele>
        <time>2023-07-12T09:40:04Z</time>
      </trkpt>
      <trkpt lat="49.7631" lon="2.27722">
        <ele>134.3</ele>
        <time>2023-07-12T09:40:06Z</time>
      </trkpt>
      <trkpt lat="49.7631" lon="2.2772">
        <ele>134.3</ele>
        <time>2023-07-12T09:40:07Z</time>
      </trkpt>
      <trkpt lat="49.76311" lon="2.27718">
        <ele>134.3</ele>
        <time>2023-07-12T09:40:09Z</time>
      </trkpt>
      <trkpt lat="49.76311" lon="2.27716">
        <ele>134.3</ele>
        <time>2023-07-12T09:40:10Z</time>
      </trkpt>
      <trkpt lat="49.76311" lon="2.27715">
        <ele>134.3</ele>
        <time>2023-07-12T09:40:11Z</time>
      </trkpt>
      <trkpt lat="49.76311" lon="2.27713">
        <ele>134.3</ele>
        <time>2023-07-12T09:40:12Z</time>
      </trkpt>
      <trkpt lat="49.76312" lon="2.27711">
        <ele>134.3</ele>
        <time>2023-07-12T09:40:13Z</time>
      </trkpt>
      <trkpt lat="49.76312" lon="2.27709">
        <ele>134.3</ele>
        <time>2023-07-12T09:40:15Z</time>
      </trkpt>
      <trkpt lat="49.76312" lon="2.27708">
        <ele>134.3</ele>
        <time>2023-07-12T09:40:16Z</time>
      </trkpt>
      <trkpt lat="49.76313" lon="2.27705">
        <ele>134.3</ele>
        <time>2023-07-12T09:40:17Z</time>
      </trkpt>
      <trkpt lat="49.76313" lon="2.27703">
        <ele>134.3</ele>
        <time>2023-07-12T09:40:18Z</time>
      </trkpt>
      <trkpt lat="49.76313" lon="2.27702">
        <ele>134.3</ele>
        <time>2023-07-12T09:40:19Z</time>
      </trkpt>
      <trkpt lat="49.76314" lon="2.27698">
        <ele>134.4</ele>
        <time>2023-07-12T09:40:20Z</time>
      </trkpt>
      <trkpt lat="49.76315" lon="2.27697">
        <ele>134.4</ele>
        <time>2023-07-12T09:40:22Z</time>
      </trkpt>
      <trkpt lat="49.76315" lon="2.27695">
        <ele>134.4</ele>
        <time>2023-07-12T09:40:23Z</time>
      </trkpt>
      <trkpt lat="49.76315" lon="2.27694">
        <ele>134.4</ele>
        <time>2023-07-12T09:40:24Z</time>
      </trkpt>
      <trkpt lat="49.76316" lon="2.27692">
        <ele>134.4</ele>
        <time>2023-07-12T09:40:25Z</time>
      </trkpt>
      <trkpt lat="49.76316" lon="2.2769">
        <ele>134.4</ele>
        <time>2023-07-12T09:40:26Z</time>
      </trkpt>
      <trkpt lat="49.76317" lon="2.27689">
        <ele>134.4</ele>
        <time>2023-07-12T09:40:27Z</time>
      </trkpt>
      <trkpt lat="49.76318" lon="2.27686">
        <ele>134.5</ele>
        <time>2023-07-12T09:40:28Z</time>
      </trkpt>
      <trkpt lat="49.76319" lon="2.27685">
        <ele>134.5</ele>
        <time>2023-07-12T09:40:30Z</time>
      </trkpt>
      <trkpt lat="49.76319" lon="2.27684">
        <ele>134.5</ele>
        <time>2023-07-12T09:40:31Z</time>
      </trkpt>
      <trkpt lat="49.7632" lon="2.27682">
        <ele>134.5</ele>
        <time>2023-07-12T09:40:32Z</time>
      </trkpt>
      <trkpt lat="49.76321" lon="2.2768">
        <ele>134.5</ele>
        <time>2023-07-12T09:40:33Z</time>
      </trkpt>
      <trkpt lat="49.76322" lon="2.27678">
        <ele>134.5</ele>
        <time>2023-07-12T09:40:34Z</time>
      </trkpt>
      <trkpt lat="49.76322" lon="2.27677">
        <ele>134.5</ele>
        <time>2023-07-12T09:40:35Z</time>
      </trkpt>
      <trkpt lat="49.76323" lon="2.27675">
        <ele>134.6</ele>
        <time>2023-07-12T09:40:37Z</time>
      </trkpt>
      <trkpt lat="49.76324" lon="2.27672">
        <ele>134.6</ele>
        <time>2023-07-12T09:40:38Z</time>
      </trkpt>
      <trkpt lat="49.76324" lon="2.27671">
        <ele>134.6</ele>
        <time>2023-07-12T09:40:39Z</time>
      </trkpt>
      <trkpt lat="49.76324" lon="2.2767">
        <ele>134.6</ele>
        <time>2023-07-12T09:40:40Z</time>
      </trkpt>
      <trkpt lat="49.76326" lon="2.27667">
        <ele>134.6</ele>
        <time>2023-07-12T09:40:41Z</time>
      </trkpt>
      <trkpt lat="49.76326" lon="2.27665">
        <ele>134.6</ele>
        <time>2023-07-12T09:40:43Z</time>
      </trkpt>
      <trkpt lat="49.76327" lon="2.27664">
        <ele>134.6</ele>
        <time>2023-07-12T09:40:44Z</time>
      </trkpt>
      <trkpt lat="49.76327" lon="2.27663">
        <ele>134.6</ele>
        <time>2023-07-12T09:40:45Z</time>
      </trkpt>
      <trkpt lat="49.76328" lon="2.27661">
        <ele>134.6</ele>
        <time>2023-07-12T09:40:46Z</time>
      </trkpt>
      <trkpt lat="49.76328" lon="2.2766">
        <ele>134.6</ele>
        <time>2023-07-12T09:40:47Z</time>
      </trkpt>
      <trkpt lat="49.76329" lon="2.27658">
        <ele>134.6</ele>
        <time>2023-07-12T09:40:48Z</time>
      </trkpt>
      <trkpt lat="49.76329" lon="2.27656">
        <ele>134.6</ele>
        <time>2023-07-12T09:40:50Z</time>
      </trkpt>
      <trkpt lat="49.76329" lon="2.27655">
        <ele>134.7</ele>
        <time>2023-07-12T09:40:51Z</time>
      </trkpt>
      <trkpt lat="49.7633" lon="2.27653">
        <ele>134.7</ele>
        <time>2023-07-12T09:40:52Z</time>
      </trkpt>
      <trkpt lat="49.7633" lon="2.27651">
        <ele>134.7</ele>
        <time>2023-07-12T09:40:53Z</time>
      </trkpt>
      <trkpt lat="49.76331" lon="2.27649">
        <ele>134.7</ele>
        <time>2023-07-12T09:40:54Z</time>
      </trkpt>
      <trkpt lat="49.76331" lon="2.27647">
        <ele>134.7</ele>
        <time>2023-07-12T09:40:55Z</time>
      </trkpt>
      <trkpt lat="49.76332" lon="2.27646">
        <ele>134.7</ele>
        <time>2023-07-12T09:40:57Z</time>
      </trkpt>
      <trkpt lat="49.76332" lon="2.27644">
        <ele>134.7</ele>
        <time>2023-07-12T09:40:58Z</time>
      </trkpt>
      <trkpt lat="49.76332" lon="2.27642">
        <ele>134.7</ele>
        <time>2023-07-12T09:40:59Z</time>
      </trkpt>
      <trkpt lat="49.76333" lon="2.27641">
        <ele>134.7</ele>
        <time>2023-07-12T09:41:00Z</time>
      </trkpt>
      <trkpt lat="49.76333" lon="2.27639">
        <ele>134.7</ele>
        <time>2023-07-12T09:41:01Z</time>
      </trkpt>
      <trkpt lat="49.76334" lon="2.27637">
        <ele>134.7</ele>
        <time>2023-07-12T09:41:02Z</time>
      </trkpt>
      <trkpt lat="49.76334" lon="2.27636">
        <ele>134.6</ele>
        <time>2023-07-12T09:41:03Z</time>
      </trkpt>
      <trkpt lat="49.76334" lon="2.27634">
        <ele>134.6</ele>
        <time>2023-07-12T09:41:05Z</time>
      </trkpt>
      <trkpt lat="49.76334" lon="2.27632">
        <ele>134.6</ele>
        <time>2023-07-12T09:41:06Z</time>
      </trkpt>
      <trkpt lat="49.76335" lon="2.2763">
        <ele>134.6</ele>
        <time>2023-07-12T09:41:07Z</time>
      </trkpt>
      <trkpt lat="49.76335" lon="2.27629">
        <ele>134.6</ele>
        <time>2023-07-12T09:41:08Z</time>
      </trkpt>
      <trkpt lat="49.76336" lon="2.27627">
        <ele>134.6</ele>
        <time>2023-07-12T09:41:10Z</time>
      </trkpt>
      <trkpt lat="49.76336" lon="2.27626">
        <ele>134.6</ele>
        <time>2023-07-12T09:41:11Z</time>
      </trkpt>
      <trkpt lat="49.76336" lon="2.27625">
        <ele>134.6</ele>
        <time>2023-07-12T09:41:12Z</time>
      </trkpt>
      <trkpt lat="49.76337" lon="2.27623">
        <ele>134.6</ele>
        <time>2023-07-12T09:41:13Z</time>
      </trkpt>
      <trkpt lat="49.76337" lon="2.27622">
        <ele>134.6</ele>
        <time>2023-07-12T09:41:14Z</time>
      </trkpt>
      <trkpt lat="49.76338" lon="2.27621">
        <ele>134.6</ele>
        <time>2023-07-12T09:41:16Z</time>
      </trkpt>
      <trkpt lat="49.76339" lon="2.2762">
        <ele>134.6</ele>
        <time>2023-07-12T09:41:17Z</time>
      </trkpt>
      <trkpt lat="49.7634" lon="2.27619">
        <ele>134.6</ele>
        <time>2023-07-12T09:41:18Z</time>
      </trkpt>
      <trkpt lat="49.7634" lon="2.27617">
        <ele>134.6</ele>
        <time>2023-07-12T09:41:19Z</time>
      </trkpt>
      <trkpt lat="49.7634" lon="2.27616">
        <ele>134.6</ele>
        <time>2023-07-12T09:41:20Z</time>
      </trkpt>
      <trkpt lat="49.76341" lon="2.27615">
        <ele>134.6</ele>
        <time>2023-07-12T09:41:22Z</time>
      </trkpt>
      <trkpt lat="49.76341" lon="2.27613">
        <ele>134.6</ele>
        <time>2023-07-12T09:41:23Z</time>
      </trkpt>
      <trkpt lat="49.76342" lon="2.27612">
        <ele>134.6</ele>
        <time>2023-07-12T09:41:24Z</time>
      </trkpt>
      <trkpt lat="49.76343" lon="2.2761">
        <ele>134.6</ele>
        <time>2023-07-12T09:41:25Z</time>
      </trkpt>
      <trkpt lat="49.76343" lon="2.27608">
        <ele>134.6</ele>
        <time>2023-07-12T09:41:27Z</time>
      </trkpt>
      <trkpt lat="49.76344" lon="2.27606">
        <ele>134.7</ele>
        <time>2023-07-12T09:41:28Z</time>
      </trkpt>
      <trkpt lat="49.76345" lon="2.27604">
        <ele>134.7</ele>
        <time>2023-07-12T09:41:30Z</time>
      </trkpt>
      <trkpt lat="49.76345" lon="2.27603">
        <ele>134.7</ele>
        <time>2023-07-12T09:41:31Z</time>
      </trkpt>
      <trkpt lat="49.76346" lon="2.27602">
        <ele>134.7</ele>
        <time>2023-07-12T09:41:32Z</time>
      </trkpt>
      <trkpt lat="49.76346" lon="2.276">
        <ele>134.7</ele>
        <time>2023-07-12T09:41:34Z</time>
      </trkpt>
      <trkpt lat="49.76347" lon="2.27599">
        <ele>134.7</ele>
        <time>2023-07-12T09:41:35Z</time>
      </trkpt>
      <trkpt lat="49.76348" lon="2.27598">
        <ele>134.7</ele>
        <time>2023-07-12T09:41:36Z</time>
      </trkpt>
      <trkpt lat="49.76348" lon="2.27597">
        <ele>134.7</ele>
        <time>2023-07-12T09:41:37Z</time>
      </trkpt>
      <trkpt lat="49.76348" lon="2.27595">
        <ele>134.7</ele>
        <time>2023-07-12T09:41:38Z</time>
      </trkpt>
      <trkpt lat="49.76349" lon="2.27594">
        <ele>134.7</ele>
        <time>2023-07-12T09:41:39Z</time>
      </trkpt>
      <trkpt lat="49.7635" lon="2.27592">
        <ele>134.7</ele>
        <time>2023-07-12T09:41:40Z</time>
      </trkpt>
      <trkpt lat="49.7635" lon="2.27591">
        <ele>134.7</ele>
        <time>2023-07-12T09:41:42Z</time>
      </trkpt>
      <trkpt lat="49.76351" lon="2.2759">
        <ele>134.7</ele>
        <time>2023-07-12T09:41:43Z</time>
      </trkpt>
      <trkpt lat="49.76352" lon="2.27587">
        <ele>134.7</ele>
        <time>2023-07-12T09:41:44Z</time>
      </trkpt>
      <trkpt lat="49.76353" lon="2.27586">
        <ele>134.8</ele>
        <time>2023-07-12T09:41:45Z</time>
      </trkpt>
      <trkpt lat="49.76353" lon="2.27585">
        <ele>134.8</ele>
        <time>2023-07-12T09:41:46Z</time>
      </trkpt>
      <trkpt lat="49.76355" lon="2.27582">
        <ele>134.8</ele>
        <time>2023-07-12T09:41:48Z</time>
      </trkpt>
      <trkpt lat="49.76355" lon="2.27581">
        <ele>134.8</ele>
        <time>2023-07-12T09:41:49Z</time>
      </trkpt>
      <trkpt lat="49.76355" lon="2.2758">
        <ele>134.8</ele>
        <time>2023-07-12T09:41:50Z</time>
      </trkpt>
      <trkpt lat="49.76356" lon="2.27578">
        <ele>134.8</ele>
        <time>2023-07-12T09:41:51Z</time>
      </trkpt>
      <trkpt lat="49.76356" lon="2.27576">
        <ele>134.8</ele>
        <time>2023-07-12T09:41:53Z</time>
      </trkpt>
      <trkpt lat="49.76356" lon="2.27575">
        <ele>134.8</ele>
        <time>2023-07-12T09:41:54Z</time>
      </trkpt>
      <trkpt lat="49.76357" lon="2.27573">
        <ele>134.8</ele>
        <time>2023-07-12T09:41:55Z</time>
      </trkpt>
      <trkpt lat="49.76357" lon="2.27571">
        <ele>134.8</ele>
        <time>2023-07-12T09:41:56Z</time>
      </trkpt>
      <trkpt lat="49.76358" lon="2.2757">
        <ele>134.9</ele>
        <time>2023-07-12T09:41:58Z</time>
      </trkpt>
      <trkpt lat="49.76358" lon="2.27568">
        <ele>134.9</ele>
        <time>2023-07-12T09:41:59Z</time>
      </trkpt>
      <trkpt lat="49.76359" lon="2.27567">
        <ele>134.9</ele>
        <time>2023-07-12T09:42:00Z</time>
      </trkpt>
      <trkpt lat="49.76359" lon="2.27566">
        <ele>134.9</ele>
        <time>2023-07-12T09:42:01Z</time>
      </trkpt>
      <trkpt lat="49.7636" lon="2.27564">
        <ele>134.9</ele>
        <time>2023-07-12T09:42:02Z</time>
      </trkpt>
      <trkpt lat="49.76361" lon="2.27562">
        <ele>134.9</ele>
        <time>2023-07-12T09:42:03Z</time>
      </trkpt>
      <trkpt lat="49.76362" lon="2.27559">
        <ele>134.9</ele>
        <time>2023-07-12T09:42:04Z</time>
      </trkpt>
      <trkpt lat="49.76362" lon="2.27557">
        <ele>134.9</ele>
        <time>2023-07-12T09:42:05Z</time>
      </trkpt>
      <trkpt lat="49.76362" lon="2.27556">
        <ele>134.9</ele>
        <time>2023-07-12T09:42:07Z</time>
      </trkpt>
      <trkpt lat="49.76363" lon="2.27554">
        <ele>134.9</ele>
        <time>2023-07-12T09:42:08Z</time>
      </trkpt>
      <trkpt lat="49.76363" lon="2.27553">
        <ele>134.9</ele>
        <time>2023-07-12T09:42:09Z</time>
      </trkpt>
      <trkpt lat="49.76363" lon="2.27551">
        <ele>135</ele>
        <time>2023-07-12T09:42:10Z</time>
      </trkpt>
      <trkpt lat="49.76364" lon="2.27549">
        <ele>135</ele>
        <time>2023-07-12T09:42:12Z</time>
      </trkpt>
      <trkpt lat="49.76365" lon="2.27547">
        <ele>135</ele>
        <time>2023-07-12T09:42:13Z</time>
      </trkpt>
      <trkpt lat="49.76365" lon="2.27545">
        <ele>135</ele>
        <time>2023-07-12T09:42:15Z</time>
      </trkpt>
      <trkpt lat="49.76366" lon="2.27544">
        <ele>135</ele>
        <time>2023-07-12T09:42:16Z</time>
      </trkpt>
      <trkpt lat="49.76366" lon="2.27542">
        <ele>135</ele>
        <time>2023-07-12T09:42:17Z</time>
      </trkpt>
      <trkpt lat="49.76367" lon="2.2754">
        <ele>135</ele>
        <time>2023-07-12T09:42:18Z</time>
      </trkpt>
      <trkpt lat="49.76367" lon="2.27539">
        <ele>135</ele>
        <time>2023-07-12T09:42:20Z</time>
      </trkpt>
      <trkpt lat="49.76368" lon="2.27538">
        <ele>135</ele>
        <time>2023-07-12T09:42:21Z</time>
      </trkpt>
      <trkpt lat="49.76368" lon="2.27536">
        <ele>135</ele>
        <time>2023-07-12T09:42:22Z</time>
      </trkpt>
      <trkpt lat="49.76369" lon="2.27535">
        <ele>135</ele>
        <time>2023-07-12T09:42:23Z</time>
      </trkpt>
      <trkpt lat="49.7637" lon="2.27533">
        <ele>135</ele>
        <time>2023-07-12T09:42:24Z</time>
      </trkpt>
      <trkpt lat="49.7637" lon="2.27531">
        <ele>135.1</ele>
        <time>2023-07-12T09:42:26Z</time>
      </trkpt>
      <trkpt lat="49.7637" lon="2.2753">
        <ele>135.1</ele>
        <time>2023-07-12T09:42:27Z</time>
      </trkpt>
      <trkpt lat="49.76371" lon="2.27528">
        <ele>135.1</ele>
        <time>2023-07-12T09:42:28Z</time>
      </trkpt>
      <trkpt lat="49.76371" lon="2.27527">
        <ele>135.1</ele>
        <time>2023-07-12T09:42:29Z</time>
      </trkpt>
      <trkpt lat="49.76372" lon="2.27525">
        <ele>135.1</ele>
        <time>2023-07-12T09:42:31Z</time>
      </trkpt>
      <trkpt lat="49.76372" lon="2.27524">
        <ele>135.1</ele>
        <time>2023-07-12T09:42:32Z</time>
      </trkpt>
      <trkpt lat="49.76373" lon="2.27522">
        <ele>135.1</ele>
        <time>2023-07-12T09:42:33Z</time>
      </trkpt>
      <trkpt lat="49.76373" lon="2.27521">
        <ele>135.1</ele>
        <time>2023-07-12T09:42:34Z</time>
      </trkpt>
      <trkpt lat="49.76374" lon="2.2752">
        <ele>135.2</ele>
        <time>2023-07-12T09:42:35Z</time>
      </trkpt>
      <trkpt lat="49.76374" lon="2.27519">
        <ele>135.2</ele>
        <time>2023-07-12T09:42:36Z</time>
      </trkpt>
      <trkpt lat="49.76375" lon="2.27518">
        <ele>135.2</ele>
        <time>2023-07-12T09:42:37Z</time>
      </trkpt>
      <trkpt lat="49.76375" lon="2.27516">
        <ele>135.2</ele>
        <time>2023-07-12T09:42:38Z</time>
      </trkpt>
      <trkpt lat="49.76375" lon="2.27515">
        <ele>135.2</ele>
        <time>2023-07-12T09:42:39Z</time>
      </trkpt>
      <trkpt lat="49.76376" lon="2.27513">
        <ele>135.2</ele>
        <time>2023-07-12T09:42:41Z</time>
      </trkpt>
      <trkpt lat="49.76376" lon="2.27512">
        <ele>135.2</ele>
        <time>2023-07-12T09:42:42Z</time>
      </trkpt>
      <trkpt lat="49.76377" lon="2.2751">
        <ele>135.3</ele>
        <time>2023-07-12T09:42:43Z</time>
      </trkpt>
      <trkpt lat="49.76377" lon="2.27509">
        <ele>135.3</ele>
        <time>2023-07-12T09:42:44Z</time>
      </trkpt>
      <trkpt lat="49.76377" lon="2.27507">
        <ele>135.3</ele>
        <time>2023-07-12T09:42:45Z</time>
      </trkpt>
      <trkpt lat="49.76378" lon="2.27505">
        <ele>135.3</ele>
        <time>2023-07-12T09:42:47Z</time>
      </trkpt>
      <trkpt lat="49.76378" lon="2.27504">
        <ele>135.3</ele>
        <time>2023-07-12T09:42:48Z</time>
      </trkpt>
      <trkpt lat="49.76378" lon="2.27502">
        <ele>135.3</ele>
        <time>2023-07-12T09:42:49Z</time>
      </trkpt>
      <trkpt lat="49.76379" lon="2.275">
        <ele>135.3</ele>
        <time>2023-07-12T09:42:50Z</time>
      </trkpt>
      <trkpt lat="49.76379" lon="2.27498">
        <ele>135.4</ele>
        <time>2023-07-12T09:42:51Z</time>
      </trkpt>
      <trkpt lat="49.76379" lon="2.27497">
        <ele>135.4</ele>
        <time>2023-07-12T09:42:52Z</time>
      </trkpt>
      <trkpt lat="49.76379" lon="2.27495">
        <ele>135.4</ele>
        <time>2023-07-12T09:42:54Z</time>
      </trkpt>
      <trkpt lat="49.76379" lon="2.27493">
        <ele>135.4</ele>
        <time>2023-07-12T09:42:55Z</time>
      </trkpt>
      <trkpt lat="49.7638" lon="2.27491">
        <ele>135.4</ele>
        <time>2023-07-12T09:42:56Z</time>
      </trkpt>
      <trkpt lat="49.7638" lon="2.2749">
        <ele>135.4</ele>
        <time>2023-07-12T09:42:57Z</time>
      </trkpt>
      <trkpt lat="49.76381" lon="2.27487">
        <ele>135.4</ele>
        <time>2023-07-12T09:42:58Z</time>
      </trkpt>
      <trkpt lat="49.76381" lon="2.27485">
        <ele>135.4</ele>
        <time>2023-07-12T09:42:59Z</time>
      </trkpt>
      <trkpt lat="49.76382" lon="2.27484">
        <ele>135.4</ele>
        <time>2023-07-12T09:43:01Z</time>
      </trkpt>
      <trkpt lat="49.76382" lon="2.27482">
        <ele>135.4</ele>
        <time>2023-07-12T09:43:02Z</time>
      </trkpt>
      <trkpt lat="49.76382" lon="2.27481">
        <ele>135.4</ele>
        <time>2023-07-12T09:43:03Z</time>
      </trkpt>
      <trkpt lat="49.76383" lon="2.27479">
        <ele>135.4</ele>
        <time>2023-07-12T09:43:04Z</time>
      </trkpt>
      <trkpt lat="49.76384" lon="2.27476">
        <ele>135.4</ele>
        <time>2023-07-12T09:43:05Z</time>
      </trkpt>
      <trkpt lat="49.76384" lon="2.27475">
        <ele>135.4</ele>
        <time>2023-07-12T09:43:06Z</time>
      </trkpt>
      <trkpt lat="49.76384" lon="2.27474">
        <ele>135.4</ele>
        <time>2023-07-12T09:43:07Z</time>
      </trkpt>
      <trkpt lat="49.76385" lon="2.27471">
        <ele>135.4</ele>
        <time>2023-07-12T09:43:09Z</time>
      </trkpt>
      <trkpt lat="49.76385" lon="2.2747">
        <ele>135.4</ele>
        <time>2023-07-12T09:43:10Z</time>
      </trkpt>
      <trkpt lat="49.76386" lon="2.27469">
        <ele>135.3</ele>
        <time>2023-07-12T09:43:11Z</time>
      </trkpt>
      <trkpt lat="49.76386" lon="2.27467">
        <ele>135.3</ele>
        <time>2023-07-12T09:43:12Z</time>
      </trkpt>
      <trkpt lat="49.76387" lon="2.27465">
        <ele>135.3</ele>
        <time>2023-07-12T09:43:13Z</time>
      </trkpt>
      <trkpt lat="49.76387" lon="2.27463">
        <ele>135.3</ele>
        <time>2023-07-12T09:43:14Z</time>
      </trkpt>
      <trkpt lat="49.76388" lon="2.2746">
        <ele>135.3</ele>
        <time>2023-07-12T09:43:16Z</time>
      </trkpt>
      <trkpt lat="49.76388" lon="2.27459">
        <ele>135.3</ele>
        <time>2023-07-12T09:43:17Z</time>
      </trkpt>
      <trkpt lat="49.76389" lon="2.27458">
        <ele>135.3</ele>
        <time>2023-07-12T09:43:18Z</time>
      </trkpt>
      <trkpt lat="49.76389" lon="2.27454">
        <ele>135.3</ele>
        <time>2023-07-12T09:43:19Z</time>
      </trkpt>
      <trkpt lat="49.76389" lon="2.27453">
        <ele>135.3</ele>
        <time>2023-07-12T09:43:20Z</time>
      </trkpt>
      <trkpt lat="49.76389" lon="2.27452">
        <ele>135.3</ele>
        <time>2023-07-12T09:43:21Z</time>
      </trkpt>
      <trkpt lat="49.7639" lon="2.2745">
        <ele>135.3</ele>
        <time>2023-07-12T09:43:23Z</time>
      </trkpt>
      <trkpt lat="49.76391" lon="2.27448">
        <ele>135.3</ele>
        <time>2023-07-12T09:43:24Z</time>
      </trkpt>
      <trkpt lat="49.76392" lon="2.27445">
        <ele>135.3</ele>
        <time>2023-07-12T09:43:25Z</time>
      </trkpt>
      <trkpt lat="49.76392" lon="2.27444">
        <ele>135.3</ele>
        <time>2023-07-12T09:43:26Z</time>
      </trkpt>
      <trkpt lat="49.76393" lon="2.27443">
        <ele>135.3</ele>
        <time>2023-07-12T09:43:27Z</time>
      </trkpt>
      <trkpt lat="49.76394" lon="2.27441">
        <ele>135.3</ele>
        <time>2023-07-12T09:43:28Z</time>
      </trkpt>
      <trkpt lat="49.76394" lon="2.27439">
        <ele>135.3</ele>
        <time>2023-07-12T09:43:30Z</time>
      </trkpt>
      <trkpt lat="49.76395" lon="2.27438">
        <ele>135.3</ele>
        <time>2023-07-12T09:43:31Z</time>
      </trkpt>
      <trkpt lat="49.76395" lon="2.27437">
        <ele>135.3</ele>
        <time>2023-07-12T09:43:32Z</time>
      </trkpt>
      <trkpt lat="49.76396" lon="2.27435">
        <ele>135.3</ele>
        <time>2023-07-12T09:43:33Z</time>
      </trkpt>
      <trkpt lat="49.76397" lon="2.27434">
        <ele>135.3</ele>
        <time>2023-07-12T09:43:34Z</time>
      </trkpt>
      <trkpt lat="49.76397" lon="2.27432">
        <ele>135.3</ele>
        <time>2023-07-12T09:43:35Z</time>
      </trkpt>
      <trkpt lat="49.76398" lon="2.27431">
        <ele>135.3</ele>
        <time>2023-07-12T09:43:36Z</time>
      </trkpt>
      <trkpt lat="49.76399" lon="2.27429">
        <ele>135.3</ele>
        <time>2023-07-12T09:43:38Z</time>
      </trkpt>
      <trkpt lat="49.76399" lon="2.27428">
        <ele>135.3</ele>
        <time>2023-07-12T09:43:39Z</time>
      </trkpt>
      <trkpt lat="49.764" lon="2.27426">
        <ele>135.3</ele>
        <time>2023-07-12T09:43:40Z</time>
      </trkpt>
      <trkpt lat="49.764" lon="2.27424">
        <ele>135.3</ele>
        <time>2023-07-12T09:43:41Z</time>
      </trkpt>
      <trkpt lat="49.76401" lon="2.27423">
        <ele>135.3</ele>
        <time>2023-07-12T09:43:42Z</time>
      </trkpt>
      <trkpt lat="49.76401" lon="2.27421">
        <ele>135.3</ele>
        <time>2023-07-12T09:43:43Z</time>
      </trkpt>
      <trkpt lat="49.76402" lon="2.2742">
        <ele>135.3</ele>
        <time>2023-07-12T09:43:45Z</time>
      </trkpt>
      <trkpt lat="49.76402" lon="2.27418">
        <ele>135.3</ele>
        <time>2023-07-12T09:43:46Z</time>
      </trkpt>
      <trkpt lat="49.76403" lon="2.27417">
        <ele>135.3</ele>
        <time>2023-07-12T09:43:47Z</time>
      </trkpt>
      <trkpt lat="49.76404" lon="2.27416">
        <ele>135.3</ele>
        <time>2023-07-12T09:43:48Z</time>
      </trkpt>
      <trkpt lat="49.76404" lon="2.27414">
        <ele>135.3</ele>
        <time>2023-07-12T09:43:49Z</time>
      </trkpt>
      <trkpt lat="49.76404" lon="2.27413">
        <ele>135.3</ele>
        <time>2023-07-12T09:43:51Z</time>
      </trkpt>
      <trkpt lat="49.76405" lon="2.27411">
        <ele>135.3</ele>
        <time>2023-07-12T09:43:52Z</time>
      </trkpt>
      <trkpt lat="49.76405" lon="2.27409">
        <ele>135.3</ele>
        <time>2023-07-12T09:43:53Z</time>
      </trkpt>
      <trkpt lat="49.76406" lon="2.27408">
        <ele>135.3</ele>
        <time>2023-07-12T09:43:54Z</time>
      </trkpt>
      <trkpt lat="49.76406" lon="2.27406">
        <ele>135.2</ele>
        <time>2023-07-12T09:43:55Z</time>
      </trkpt>
      <trkpt lat="49.76406" lon="2.27405">
        <ele>135.2</ele>
        <time>2023-07-12T09:43:56Z</time>
      </trkpt>
      <trkpt lat="49.76407" lon="2.27403">
        <ele>135.2</ele>
        <time>2023-07-12T09:43:58Z</time>
      </trkpt>
      <trkpt lat="49.76407" lon="2.27401">
        <ele>135.2</ele>
        <time>2023-07-12T09:43:59Z</time>
      </trkpt>
      <trkpt lat="49.76408" lon="2.274">
        <ele>135.2</ele>
        <time>2023-07-12T09:44:00Z</time>
      </trkpt>
      <trkpt lat="49.76408" lon="2.27398">
        <ele>135.1</ele>
        <time>2023-07-12T09:44:01Z</time>
      </trkpt>
      <trkpt lat="49.76409" lon="2.27396">
        <ele>135.1</ele>
        <time>2023-07-12T09:44:02Z</time>
      </trkpt>
      <trkpt lat="49.76409" lon="2.27393">
        <ele>135.1</ele>
        <time>2023-07-12T09:44:04Z</time>
      </trkpt>
      <trkpt lat="49.7641" lon="2.27392">
        <ele>135.1</ele>
        <time>2023-07-12T09:44:05Z</time>
      </trkpt>
      <trkpt lat="49.7641" lon="2.27391">
        <ele>135.1</ele>
        <time>2023-07-12T09:44:06Z</time>
      </trkpt>
      <trkpt lat="49.7641" lon="2.27389">
        <ele>135</ele>
        <time>2023-07-12T09:44:07Z</time>
      </trkpt>
      <trkpt lat="49.7641" lon="2.27387">
        <ele>135</ele>
        <time>2023-07-12T09:44:08Z</time>
      </trkpt>
      <trkpt lat="49.76411" lon="2.27386">
        <ele>135</ele>
        <time>2023-07-12T09:44:09Z</time>
      </trkpt>
      <trkpt lat="49.76411" lon="2.27384">
        <ele>135</ele>
        <time>2023-07-12T09:44:11Z</time>
      </trkpt>
      <trkpt lat="49.76411" lon="2.27382">
        <ele>135</ele>
        <time>2023-07-12T09:44:12Z</time>
      </trkpt>
      <trkpt lat="49.76411" lon="2.27381">
        <ele>135</ele>
        <time>2023-07-12T09:44:13Z</time>
      </trkpt>
      <trkpt lat="49.76412" lon="2.2738">
        <ele>135</ele>
        <time>2023-07-12T09:44:14Z</time>
      </trkpt>
      <trkpt lat="49.76412" lon="2.27378">
        <ele>135</ele>
        <time>2023-07-12T09:44:15Z</time>
      </trkpt>
      <trkpt lat="49.76413" lon="2.27377">
        <ele>135</ele>
        <time>2023-07-12T09:44:17Z</time>
      </trkpt>
      <trkpt lat="49.76413" lon="2.27376">
        <ele>135</ele>
        <time>2023-07-12T09:44:18Z</time>
      </trkpt>
      <trkpt lat="49.76414" lon="2.27374">
        <ele>134.9</ele>
        <time>2023-07-12T09:44:19Z</time>
      </trkpt>
      <trkpt lat="49.76414" lon="2.27373">
        <ele>134.9</ele>
        <time>2023-07-12T09:44:20Z</time>
      </trkpt>
      <trkpt lat="49.76415" lon="2.27372">
        <ele>134.9</ele>
        <time>2023-07-12T09:44:21Z</time>
      </trkpt>
      <trkpt lat="49.76416" lon="2.2737">
        <ele>134.9</ele>
        <time>2023-07-12T09:44:22Z</time>
      </trkpt>
      <trkpt lat="49.76416" lon="2.27369">
        <ele>134.9</ele>
        <time>2023-07-12T09:44:24Z</time>
      </trkpt>
      <trkpt lat="49.76417" lon="2.27367">
        <ele>134.9</ele>
        <time>2023-07-12T09:44:25Z</time>
      </trkpt>
      <trkpt lat="49.76417" lon="2.27366">
        <ele>134.9</ele>
        <time>2023-07-12T09:44:26Z</time>
      </trkpt>
      <trkpt lat="49.76418" lon="2.27364">
        <ele>134.9</ele>
        <time>2023-07-12T09:44:27Z</time>
      </trkpt>
      <trkpt lat="49.76418" lon="2.27361">
        <ele>134.9</ele>
        <time>2023-07-12T09:44:28Z</time>
      </trkpt>
      <trkpt lat="49.76418" lon="2.27359">
        <ele>134.9</ele>
        <time>2023-07-12T09:44:29Z</time>
      </trkpt>
      <trkpt lat="49.76418" lon="2.27358">
        <ele>134.9</ele>
        <time>2023-07-12T09:44:31Z</time>
      </trkpt>
      <trkpt lat="49.76419" lon="2.27356">
        <ele>134.9</ele>
        <time>2023-07-12T09:44:32Z</time>
      </trkpt>
      <trkpt lat="49.76419" lon="2.27355">
        <ele>134.9</ele>
        <time>2023-07-12T09:44:33Z</time>
      </trkpt>
      <trkpt lat="49.76419" lon="2.27353">
        <ele>134.9</ele>
        <time>2023-07-12T09:44:34Z</time>
      </trkpt>
      <trkpt lat="49.76419" lon="2.27352">
        <ele>134.9</ele>
        <time>2023-07-12T09:44:35Z</time>
      </trkpt>
      <trkpt lat="49.7642" lon="2.2735">
        <ele>134.9</ele>
        <time>2023-07-12T09:44:36Z</time>
      </trkpt>
      <trkpt lat="49.7642" lon="2.27348">
        <ele>134.9</ele>
        <time>2023-07-12T09:44:37Z</time>
      </trkpt>
      <trkpt lat="49.7642" lon="2.27345">
        <ele>134.9</ele>
        <time>2023-07-12T09:44:39Z</time>
      </trkpt>
      <trkpt lat="49.76421" lon="2.27344">
        <ele>134.9</ele>
        <time>2023-07-12T09:44:40Z</time>
      </trkpt>
      <trkpt lat="49.76421" lon="2.27342">
        <ele>134.9</ele>
        <time>2023-07-12T09:44:41Z</time>
      </trkpt>
      <trkpt lat="49.76421" lon="2.27341">
        <ele>134.8</ele>
        <time>2023-07-12T09:44:42Z</time>
      </trkpt>
      <trkpt lat="49.76422" lon="2.27339">
        <ele>134.8</ele>
        <time>2023-07-12T09:44:43Z</time>
      </trkpt>
      <trkpt lat="49.76422" lon="2.27338">
        <ele>134.8</ele>
        <time>2023-07-12T09:44:45Z</time>
      </trkpt>
      <trkpt lat="49.76423" lon="2.27337">
        <ele>134.8</ele>
        <time>2023-07-12T09:44:46Z</time>
      </trkpt>
      <trkpt lat="49.76423" lon="2.27335">
        <ele>134.8</ele>
        <time>2023-07-12T09:44:47Z</time>
      </trkpt>
      <trkpt lat="49.76424" lon="2.27334">
        <ele>134.8</ele>
        <time>2023-07-12T09:44:48Z</time>
      </trkpt>
      <trkpt lat="49.76424" lon="2.27332">
        <ele>134.8</ele>
        <time>2023-07-12T09:44:49Z</time>
      </trkpt>
      <trkpt lat="49.76425" lon="2.27329">
        <ele>134.8</ele>
        <time>2023-07-12T09:44:51Z</time>
      </trkpt>
      <trkpt lat="49.76425" lon="2.27328">
        <ele>134.8</ele>
        <time>2023-07-12T09:44:53Z</time>
      </trkpt>
      <trkpt lat="49.76425" lon="2.27327">
        <ele>134.8</ele>
        <time>2023-07-12T09:44:54Z</time>
      </trkpt>
      <trkpt lat="49.76426" lon="2.27326">
        <ele>134.8</ele>
        <time>2023-07-12T09:44:56Z</time>
      </trkpt>
      <trkpt lat="49.76427" lon="2.27326">
        <ele>134.8</ele>
        <time>2023-07-12T09:44:57Z</time>
      </trkpt>
      <trkpt lat="49.76428" lon="2.27325">
        <ele>134.9</ele>
        <time>2023-07-12T09:44:58Z</time>
      </trkpt>
      <trkpt lat="49.76429" lon="2.27324">
        <ele>134.9</ele>
        <time>2023-07-12T09:45:00Z</time>
      </trkpt>
      <trkpt lat="49.76429" lon="2.27323">
        <ele>134.9</ele>
        <time>2023-07-12T09:45:02Z</time>
      </trkpt>
      <trkpt lat="49.76429" lon="2.27323">
        <ele>134.9</ele>
        <time>2023-07-12T09:45:03Z</time>
      </trkpt>
      <trkpt lat="49.7643" lon="2.27321">
        <ele>134.9</ele>
        <time>2023-07-12T09:45:04Z</time>
      </trkpt>
      <trkpt lat="49.7643" lon="2.27321">
        <ele>134.9</ele>
        <time>2023-07-12T09:45:05Z</time>
      </trkpt>
      <trkpt lat="49.7643" lon="2.27319">
        <ele>135</ele>
        <time>2023-07-12T09:45:06Z</time>
      </trkpt>
      <trkpt lat="49.7643" lon="2.27318">
        <ele>135</ele>
        <time>2023-07-12T09:45:07Z</time>
      </trkpt>
      <trkpt lat="49.76429" lon="2.27316">
        <ele>135</ele>
        <time>2023-07-12T09:45:09Z</time>
      </trkpt>
      <trkpt lat="49.76429" lon="2.27315">
        <ele>135</ele>
        <time>2023-07-12T09:45:10Z</time>
      </trkpt>
      <trkpt lat="49.7643" lon="2.27314">
        <ele>135</ele>
        <time>2023-07-12T09:45:11Z</time>
      </trkpt>
      <trkpt lat="49.7643" lon="2.27314">
        <ele>135</ele>
        <time>2023-07-12T09:45:13Z</time>
      </trkpt>
      <trkpt lat="49.7643" lon="2.27315">
        <ele>135</ele>
        <time>2023-07-12T09:45:14Z</time>
      </trkpt>
      <trkpt lat="49.76429" lon="2.27316">
        <ele>135</ele>
        <time>2023-07-12T09:45:16Z</time>
      </trkpt>
      <trkpt lat="49.76429" lon="2.27317">
        <ele>135</ele>
        <time>2023-07-12T09:45:17Z</time>
      </trkpt>
      <trkpt lat="49.76429" lon="2.27318">
        <ele>135</ele>
        <time>2023-07-12T09:45:19Z</time>
      </trkpt>
      <trkpt lat="49.76429" lon="2.27318">
        <ele>135</ele>
        <time>2023-07-12T09:45:20Z</time>
      </trkpt>
      <trkpt lat="49.76429" lon="2.27318">
        <ele>135</ele>
        <time>2023-07-12T09:45:22Z</time>
      </trkpt>
      <trkpt lat="49.76429" lon="2.27318">
        <ele>135</ele>
        <time>2023-07-12T09:45:23Z</time>
      </trkpt>
      <trkpt lat="49.76428" lon="2.27318">
        <ele>135</ele>
        <time>2023-07-12T09:45:24Z</time>
      </trkpt>
      <trkpt lat="49.76428" lon="2.27319">
        <ele>135</ele>
        <time>2023-07-12T09:45:26Z</time>
      </trkpt>
      <trkpt lat="49.76428" lon="2.27319">
        <ele>135</ele>
        <time>2023-07-12T09:45:27Z</time>
      </trkpt>
      <trkpt lat="49.76428" lon="2.27319">
        <ele>135</ele>
        <time>2023-07-12T09:45:29Z</time>
      </trkpt>
      <trkpt lat="49.76428" lon="2.2732">
        <ele>135</ele>
        <time>2023-07-12T09:45:30Z</time>
      </trkpt>
      <trkpt lat="49.76428" lon="2.2732">
        <ele>135</ele>
        <time>2023-07-12T09:45:31Z</time>
      </trkpt>
      <trkpt lat="49.76428" lon="2.2732">
        <ele>135</ele>
        <time>2023-07-12T09:45:32Z</time>
      </trkpt>
      <trkpt lat="49.76428" lon="2.2732">
        <ele>135</ele>
        <time>2023-07-12T09:45:33Z</time>
      </trkpt>
      <trkpt lat="49.76428" lon="2.2732">
        <ele>135</ele>
        <time>2023-07-12T09:45:34Z</time>
      </trkpt>
      <trkpt lat="49.76428" lon="2.2732">
        <ele>135</ele>
        <time>2023-07-12T09:45:35Z</time>
      </trkpt>
      <trkpt lat="49.76428" lon="2.2732">
        <ele>135</ele>
        <time>2023-07-12T09:45:36Z</time>
      </trkpt>
      <trkpt lat="49.76428" lon="2.2732">
        <ele>135</ele>
        <time>2023-07-12T09:45:37Z</time>
      </trkpt>
      <trkpt lat="49.76428" lon="2.2732">
        <ele>135</ele>
        <time>2023-07-12T09:45:38Z</time>
      </trkpt>
      <trkpt lat="49.76428" lon="2.2732">
        <ele>135</ele>
        <time>2023-07-12T09:45:39Z</time>
      </trkpt>
      <trkpt lat="49.76428" lon="2.2732">
        <ele>135</ele>
        <time>2023-07-12T09:45:40Z</time>
      </trkpt>
      <trkpt lat="49.76428" lon="2.2732">
        <ele>135</ele>
        <time>2023-07-12T09:45:41Z</time>
      </trkpt>
      <trkpt lat="49.76428" lon="2.2732">
        <ele>135</ele>
        <time>2023-07-12T09:45:42Z</time>
      </trkpt>
      <trkpt lat="49.76428" lon="2.2732">
        <ele>135</ele>
        <time>2023-07-12T09:45:43Z</time>
      </trkpt>
      <trkpt lat="49.76428" lon="2.2732">
        <ele>135</ele>
        <time>2023-07-12T09:45:44Z</time>
      </trkpt>
      <trkpt lat="49.76428" lon="2.2732">
        <ele>135</ele>
        <time>2023-07-12T09:45:45Z</time>
      </trkpt>
      <trkpt lat="49.76428" lon="2.2732">
        <ele>135</ele>
        <time>2023-07-12T09:45:46Z</time>
      </trkpt>
      <trkpt lat="49.76428" lon="2.2732">
        <ele>135</ele>
        <time>2023-07-12T09:45:47Z</time>
      </trkpt>
      <trkpt lat="49.76428" lon="2.2732">
        <ele>135</ele>
        <time>2023-07-12T09:45:48Z</time>
      </trkpt>
      <trkpt lat="49.76428" lon="2.2732">
        <ele>135</ele>
        <time>2023-07-12T09:45:49Z</time>
      </trkpt>
      <trkpt lat="49.76428" lon="2.2732">
        <ele>135</ele>
        <time>2023-07-12T09:45:50Z</time>
      </trkpt>
      <trkpt lat="49.76428" lon="2.2732">
        <ele>135</ele>
        <time>2023-07-12T09:45:51Z</time>
      </trkpt>
      <trkpt lat="49.76428" lon="2.2732">
        <ele>135</ele>
        <time>2023-07-12T09:45:52Z</time>
      </trkpt>
      <trkpt lat="49.76428" lon="2.2732">
        <ele>135</ele>
        <time>2023-07-12T09:45:53Z</time>
      </trkpt>
      <trkpt lat="49.76428" lon="2.2732">
        <ele>135</ele>
        <time>2023-07-12T09:45:54Z</time>
      </trkpt>
      <trkpt lat="49.76428" lon="2.2732">
        <ele>135</ele>
        <time>2023-07-12T09:45:55Z</time>
      </trkpt>
      <trkpt lat="49.76428" lon="2.2732">
        <ele>135</ele>
        <time>2023-07-12T09:45:56Z</time>
      </trkpt>
      <trkpt lat="49.76428" lon="2.2732">
        <ele>135</ele>
        <time>2023-07-12T09:45:57Z</time>
      </trkpt>
      <trkpt lat="49.76428" lon="2.2732">
        <ele>135</ele>
        <time>2023-07-12T09:45:58Z</time>
      </trkpt>
      <trkpt lat="49.76428" lon="2.2732">
        <ele>135</ele>
        <time>2023-07-12T09:45:59Z</time>
      </trkpt>
      <trkpt lat="49.76428" lon="2.2732">
        <ele>135</ele>
        <time>2023-07-12T09:46:00Z</time>
      </trkpt>
      <trkpt lat="49.76428" lon="2.2732">
        <ele>135</ele>
        <time>2023-07-12T09:46:01Z</time>
      </trkpt>
      <trkpt lat="49.76428" lon="2.2732">
        <ele>135</ele>
        <time>2023-07-12T09:46:02Z</time>
      </trkpt>
      <trkpt lat="49.76428" lon="2.27321">
        <ele>135</ele>
        <time>2023-07-12T09:46:03Z</time>
      </trkpt>
      <trkpt lat="49.76428" lon="2.2732">
        <ele>135</ele>
        <time>2023-07-12T09:46:04Z</time>
      </trkpt>
      <trkpt lat="49.76428" lon="2.27319">
        <ele>135</ele>
        <time>2023-07-12T09:46:05Z</time>
      </trkpt>
      <trkpt lat="49.76428" lon="2.27319">
        <ele>135</ele>
        <time>2023-07-12T09:46:06Z</time>
      </trkpt>
      <trkpt lat="49.76428" lon="2.27317">
        <ele>135</ele>
        <time>2023-07-12T09:46:07Z</time>
      </trkpt>
      <trkpt lat="49.76428" lon="2.27316">
        <ele>135</ele>
        <time>2023-07-12T09:46:08Z</time>
      </trkpt>
      <trkpt lat="49.76428" lon="2.27314">
        <ele>135</ele>
        <time>2023-07-12T09:46:09Z</time>
      </trkpt>
      <trkpt lat="49.76429" lon="2.27313">
        <ele>135</ele>
        <time>2023-07-12T09:46:11Z</time>
      </trkpt>
      <trkpt lat="49.7643" lon="2.27311">
        <ele>135</ele>
        <time>2023-07-12T09:46:12Z</time>
      </trkpt>
      <trkpt lat="49.7643" lon="2.27309">
        <ele>135</ele>
        <time>2023-07-12T09:46:13Z</time>
      </trkpt>
      <trkpt lat="49.76431" lon="2.27306">
        <ele>135</ele>
        <time>2023-07-12T09:46:14Z</time>
      </trkpt>
      <trkpt lat="49.76431" lon="2.27304">
        <ele>135</ele>
        <time>2023-07-12T09:46:15Z</time>
      </trkpt>
      <trkpt lat="49.76431" lon="2.27301">
        <ele>135</ele>
        <time>2023-07-12T09:46:17Z</time>
      </trkpt>
      <trkpt lat="49.76431" lon="2.273">
        <ele>135</ele>
        <time>2023-07-12T09:46:18Z</time>
      </trkpt>
      <trkpt lat="49.76431" lon="2.27298">
        <ele>135</ele>
        <time>2023-07-12T09:46:19Z</time>
      </trkpt>
      <trkpt lat="49.76432" lon="2.27296">
        <ele>135</ele>
        <time>2023-07-12T09:46:20Z</time>
      </trkpt>
      <trkpt lat="49.76432" lon="2.27294">
        <ele>135</ele>
        <time>2023-07-12T09:46:21Z</time>
      </trkpt>
      <trkpt lat="49.76433" lon="2.27293">
        <ele>135</ele>
        <time>2023-07-12T09:46:23Z</time>
      </trkpt>
      <trkpt lat="49.76433" lon="2.27291">
        <ele>135</ele>
        <time>2023-07-12T09:46:24Z</time>
      </trkpt>
      <trkpt lat="49.76434" lon="2.2729">
        <ele>135</ele>
        <time>2023-07-12T09:46:25Z</time>
      </trkpt>
      <trkpt lat="49.76435" lon="2.27287">
        <ele>135</ele>
        <time>2023-07-12T09:46:26Z</time>
      </trkpt>
      <trkpt lat="49.76435" lon="2.27286">
        <ele>135</ele>
        <time>2023-07-12T09:46:27Z</time>
      </trkpt>
      <trkpt lat="49.76436" lon="2.27285">
        <ele>135</ele>
        <time>2023-07-12T09:46:28Z</time>
      </trkpt>
      <trkpt lat="49.76436" lon="2.27283">
        <ele>135</ele>
        <time>2023-07-12T09:46:29Z</time>
      </trkpt>
      <trkpt lat="49.76436" lon="2.27281">
        <ele>135</ele>
        <time>2023-07-12T09:46:31Z</time>
      </trkpt>
      <trkpt lat="49.76436" lon="2.2728">
        <ele>135</ele>
        <time>2023-07-12T09:46:32Z</time>
      </trkpt>
      <trkpt lat="49.76437" lon="2.27278">
        <ele>135</ele>
        <time>2023-07-12T09:46:33Z</time>
      </trkpt>
      <trkpt lat="49.76437" lon="2.27277">
        <ele>135</ele>
        <time>2023-07-12T09:46:34Z</time>
      </trkpt>
      <trkpt lat="49.76438" lon="2.27275">
        <ele>135</ele>
        <time>2023-07-12T09:46:35Z</time>
      </trkpt>
      <trkpt lat="49.76438" lon="2.27273">
        <ele>135</ele>
        <time>2023-07-12T09:46:36Z</time>
      </trkpt>
      <trkpt lat="49.76438" lon="2.27272">
        <ele>135</ele>
        <time>2023-07-12T09:46:38Z</time>
      </trkpt>
      <trkpt lat="49.76439" lon="2.2727">
        <ele>135</ele>
        <time>2023-07-12T09:46:39Z</time>
      </trkpt>
      <trkpt lat="49.76439" lon="2.27269">
        <ele>135</ele>
        <time>2023-07-12T09:46:40Z</time>
      </trkpt>
      <trkpt lat="49.76439" lon="2.27267">
        <ele>135</ele>
        <time>2023-07-12T09:46:41Z</time>
      </trkpt>
      <trkpt lat="49.7644" lon="2.27265">
        <ele>135</ele>
        <time>2023-07-12T09:46:42Z</time>
      </trkpt>
      <trkpt lat="49.76441" lon="2.27264">
        <ele>135</ele>
        <time>2023-07-12T09:46:43Z</time>
      </trkpt>
      <trkpt lat="49.76441" lon="2.27262">
        <ele>135</ele>
        <time>2023-07-12T09:46:44Z</time>
      </trkpt>
      <trkpt lat="49.76442" lon="2.2726">
        <ele>135</ele>
        <time>2023-07-12T09:46:46Z</time>
      </trkpt>
      <trkpt lat="49.76442" lon="2.27259">
        <ele>135</ele>
        <time>2023-07-12T09:46:47Z</time>
      </trkpt>
      <trkpt lat="49.76443" lon="2.27257">
        <ele>135</ele>
        <time>2023-07-12T09:46:48Z</time>
      </trkpt>
      <trkpt lat="49.76443" lon="2.27256">
        <ele>135</ele>
        <time>2023-07-12T09:46:49Z</time>
      </trkpt>
      <trkpt lat="49.76443" lon="2.27254">
        <ele>135</ele>
        <time>2023-07-12T09:46:50Z</time>
      </trkpt>
      <trkpt lat="49.76444" lon="2.27252">
        <ele>135</ele>
        <time>2023-07-12T09:46:51Z</time>
      </trkpt>
      <trkpt lat="49.76444" lon="2.27251">
        <ele>135</ele>
        <time>2023-07-12T09:46:52Z</time>
      </trkpt>
      <trkpt lat="49.76444" lon="2.27249">
        <ele>135.1</ele>
        <time>2023-07-12T09:46:53Z</time>
      </trkpt>
      <trkpt lat="49.76444" lon="2.27247">
        <ele>135.1</ele>
        <time>2023-07-12T09:46:55Z</time>
      </trkpt>
      <trkpt lat="49.76444" lon="2.27245">
        <ele>135.1</ele>
        <time>2023-07-12T09:46:56Z</time>
      </trkpt>
      <trkpt lat="49.76444" lon="2.27242">
        <ele>135.1</ele>
        <time>2023-07-12T09:46:57Z</time>
      </trkpt>
      <trkpt lat="49.76444" lon="2.27241">
        <ele>135.1</ele>
        <time>2023-07-12T09:46:58Z</time>
      </trkpt>
      <trkpt lat="49.76444" lon="2.27239">
        <ele>135.1</ele>
        <time>2023-07-12T09:46:59Z</time>
      </trkpt>
      <trkpt lat="49.76444" lon="2.27236">
        <ele>135.1</ele>
        <time>2023-07-12T09:47:00Z</time>
      </trkpt>
      <trkpt lat="49.76444" lon="2.27235">
        <ele>135.1</ele>
        <time>2023-07-12T09:47:01Z</time>
      </trkpt>
      <trkpt lat="49.76444" lon="2.27234">
        <ele>135.1</ele>
        <time>2023-07-12T09:47:02Z</time>
      </trkpt>
      <trkpt lat="49.76444" lon="2.27232">
        <ele>135.2</ele>
        <time>2023-07-12T09:47:04Z</time>
      </trkpt>
      <trkpt lat="49.76443" lon="2.2723">
        <ele>135.2</ele>
        <time>2023-07-12T09:47:05Z</time>
      </trkpt>
      <trkpt lat="49.76443" lon="2.27228">
        <ele>135.2</ele>
        <time>2023-07-12T09:47:06Z</time>
      </trkpt>
      <trkpt lat="49.76443" lon="2.27225">
        <ele>135.2</ele>
        <time>2023-07-12T09:47:07Z</time>
      </trkpt>
      <trkpt lat="49.76443" lon="2.27224">
        <ele>135.2</ele>
        <time>2023-07-12T09:47:08Z</time>
      </trkpt>
      <trkpt lat="49.76442" lon="2.27223">
        <ele>135.2</ele>
        <time>2023-07-12T09:47:09Z</time>
      </trkpt>
      <trkpt lat="49.76442" lon="2.27221">
        <ele>135.2</ele>
        <time>2023-07-12T09:47:10Z</time>
      </trkpt>
      <trkpt lat="49.76442" lon="2.27219">
        <ele>135.2</ele>
        <time>2023-07-12T09:47:12Z</time>
      </trkpt>
      <trkpt lat="49.76441" lon="2.27218">
        <ele>135.3</ele>
        <time>2023-07-12T09:47:13Z</time>
      </trkpt>
      <trkpt lat="49.76441" lon="2.27214">
        <ele>135.3</ele>
        <time>2023-07-12T09:47:14Z</time>
      </trkpt>
      <trkpt lat="49.76441" lon="2.27213">
        <ele>135.3</ele>
        <time>2023-07-12T09:47:15Z</time>
      </trkpt>
      <trkpt lat="49.76441" lon="2.27212">
        <ele>135.3</ele>
        <time>2023-07-12T09:47:16Z</time>
      </trkpt>
      <trkpt lat="49.76441" lon="2.2721">
        <ele>135.3</ele>
        <time>2023-07-12T09:47:17Z</time>
      </trkpt>
      <trkpt lat="49.7644" lon="2.27208">
        <ele>135.3</ele>
        <time>2023-07-12T09:47:18Z</time>
      </trkpt>
      <trkpt lat="49.7644" lon="2.27206">
        <ele>135.3</ele>
        <time>2023-07-12T09:47:20Z</time>
      </trkpt>
      <trkpt lat="49.7644" lon="2.27203">
        <ele>135.3</ele>
        <time>2023-07-12T09:47:21Z</time>
      </trkpt>
      <trkpt lat="49.7644" lon="2.27202">
        <ele>135.3</ele>
        <time>2023-07-12T09:47:22Z</time>
      </trkpt>
      <trkpt lat="49.7644" lon="2.272">
        <ele>135.3</ele>
        <time>2023-07-12T09:47:23Z</time>
      </trkpt>
      <trkpt lat="49.7644" lon="2.27197">
        <ele>135.4</ele>
        <time>2023-07-12T09:47:24Z</time>
      </trkpt>
      <trkpt lat="49.7644" lon="2.27196">
        <ele>135.4</ele>
        <time>2023-07-12T09:47:25Z</time>
      </trkpt>
      <trkpt lat="49.7644" lon="2.27195">
        <ele>135.4</ele>
        <time>2023-07-12T09:47:26Z</time>
      </trkpt>
      <trkpt lat="49.7644" lon="2.27193">
        <ele>135.4</ele>
        <time>2023-07-12T09:47:28Z</time>
      </trkpt>
      <trkpt lat="49.7644" lon="2.27191">
        <ele>135.4</ele>
        <time>2023-07-12T09:47:29Z</time>
      </trkpt>
      <trkpt lat="49.7644" lon="2.27189">
        <ele>135.4</ele>
        <time>2023-07-12T09:47:30Z</time>
      </trkpt>
      <trkpt lat="49.7644" lon="2.27186">
        <ele>135.4</ele>
        <time>2023-07-12T09:47:31Z</time>
      </trkpt>
      <trkpt lat="49.7644" lon="2.27185">
        <ele>135.4</ele>
        <time>2023-07-12T09:47:32Z</time>
      </trkpt>
      <trkpt lat="49.7644" lon="2.27183">
        <ele>135.4</ele>
        <time>2023-07-12T09:47:33Z</time>
      </trkpt>
      <trkpt lat="49.7644" lon="2.27182">
        <ele>135.4</ele>
        <time>2023-07-12T09:47:34Z</time>
      </trkpt>
      <trkpt lat="49.7644" lon="2.2718">
        <ele>135.4</ele>
        <time>2023-07-12T09:47:35Z</time>
      </trkpt>
      <trkpt lat="49.7644" lon="2.27178">
        <ele>135.4</ele>
        <time>2023-07-12T09:47:37Z</time>
      </trkpt>
      <trkpt lat="49.7644" lon="2.27177">
        <ele>135.4</ele>
        <time>2023-07-12T09:47:38Z</time>
      </trkpt>
      <trkpt lat="49.7644" lon="2.27175">
        <ele>135.4</ele>
        <time>2023-07-12T09:47:39Z</time>
      </trkpt>
      <trkpt lat="49.7644" lon="2.27174">
        <ele>135.5</ele>
        <time>2023-07-12T09:47:40Z</time>
      </trkpt>
      <trkpt lat="49.7644" lon="2.27172">
        <ele>135.5</ele>
        <time>2023-07-12T09:47:41Z</time>
      </trkpt>
      <trkpt lat="49.7644" lon="2.2717">
        <ele>135.5</ele>
        <time>2023-07-12T09:47:42Z</time>
      </trkpt>
      <trkpt lat="49.7644" lon="2.27169">
        <ele>135.5</ele>
        <time>2023-07-12T09:47:44Z</time>
      </trkpt>
      <trkpt lat="49.7644" lon="2.27168">
        <ele>135.5</ele>
        <time>2023-07-12T09:47:45Z</time>
      </trkpt>
      <trkpt lat="49.7644" lon="2.27166">
        <ele>135.5</ele>
        <time>2023-07-12T09:47:46Z</time>
      </trkpt>
      <trkpt lat="49.7644" lon="2.27165">
        <ele>135.5</ele>
        <time>2023-07-12T09:47:47Z</time>
      </trkpt>
      <trkpt lat="49.7644" lon="2.27163">
        <ele>135.5</ele>
        <time>2023-07-12T09:47:48Z</time>
      </trkpt>
      <trkpt lat="49.7644" lon="2.27162">
        <ele>135.5</ele>
        <time>2023-07-12T09:47:50Z</time>
      </trkpt>
      <trkpt lat="49.76441" lon="2.27161">
        <ele>135.5</ele>
        <time>2023-07-12T09:47:51Z</time>
      </trkpt>
      <trkpt lat="49.76442" lon="2.2716">
        <ele>135.5</ele>
        <time>2023-07-12T09:47:52Z</time>
      </trkpt>
      <trkpt lat="49.76443" lon="2.27159">
        <ele>135.6</ele>
        <time>2023-07-12T09:47:53Z</time>
      </trkpt>
      <trkpt lat="49.76445" lon="2.27158">
        <ele>135.6</ele>
        <time>2023-07-12T09:47:55Z</time>
      </trkpt>
      <trkpt lat="49.76446" lon="2.27158">
        <ele>135.6</ele>
        <time>2023-07-12T09:47:57Z</time>
      </trkpt>
      <trkpt lat="49.76446" lon="2.27158">
        <ele>135.6</ele>
        <time>2023-07-12T09:47:58Z</time>
      </trkpt>
      <trkpt lat="49.76447" lon="2.27158">
        <ele>135.6</ele>
        <time>2023-07-12T09:47:59Z</time>
      </trkpt>
      <trkpt lat="49.76447" lon="2.27159">
        <ele>135.6</ele>
        <time>2023-07-12T09:48:01Z</time>
      </trkpt>
      <trkpt lat="49.76447" lon="2.27159">
        <ele>135.6</ele>
        <time>2023-07-12T09:48:02Z</time>
      </trkpt>
      <trkpt lat="49.76447" lon="2.27159">
        <ele>135.6</ele>
        <time>2023-07-12T09:48:04Z</time>
      </trkpt>
      <trkpt lat="49.76447" lon="2.27159">
        <ele>135.6</ele>
        <time>2023-07-12T09:48:05Z</time>
      </trkpt>
      <trkpt lat="49.76447" lon="2.27159">
        <ele>135.6</ele>
        <time>2023-07-12T09:48:06Z</time>
      </trkpt>
      <trkpt lat="49.76448" lon="2.27159">
        <ele>135.6</ele>
        <time>2023-07-12T09:48:08Z</time>
      </trkpt>
      <trkpt lat="49.76448" lon="2.27159">
        <ele>135.6</ele>
        <time>2023-07-12T09:48:09Z</time>
      </trkpt>
      <trkpt lat="49.76448" lon="2.2716">
        <ele>135.6</ele>
        <time>2023-07-12T09:48:11Z</time>
      </trkpt>
      <trkpt lat="49.76448" lon="2.2716">
        <ele>135.6</ele>
        <time>2023-07-12T09:48:12Z</time>
      </trkpt>
      <trkpt lat="49.76448" lon="2.2716">
        <ele>135.6</ele>
        <time>2023-07-12T09:48:14Z</time>
      </trkpt>
      <trkpt lat="49.76447" lon="2.27159">
        <ele>135.6</ele>
        <time>2023-07-12T09:48:15Z</time>
      </trkpt>
      <trkpt lat="49.76447" lon="2.27159">
        <ele>135.6</ele>
        <time>2023-07-12T09:48:16Z</time>
      </trkpt>
      <trkpt lat="49.76447" lon="2.27159">
        <ele>135.6</ele>
        <time>2023-07-12T09:48:17Z</time>
      </trkpt>
      <trkpt lat="49.76447" lon="2.27159">
        <ele>135.6</ele>
        <time>2023-07-12T09:48:18Z</time>
      </trkpt>
      <trkpt lat="49.76447" lon="2.27159">
        <ele>135.6</ele>
        <time>2023-07-12T09:48:19Z</time>
      </trkpt>
      <trkpt lat="49.76447" lon="2.27159">
        <ele>135.6</ele>
        <time>2023-07-12T09:48:20Z</time>
      </trkpt>
      <trkpt lat="49.76447" lon="2.27159">
        <ele>135.6</ele>
        <time>2023-07-12T09:48:21Z</time>
      </trkpt>
      <trkpt lat="49.76447" lon="2.27159">
        <ele>135.6</ele>
        <time>2023-07-12T09:48:22Z</time>
      </trkpt>
      <trkpt lat="49.76447" lon="2.27159">
        <ele>135.6</ele>
        <time>2023-07-12T09:48:23Z</time>
      </trkpt>
      <trkpt lat="49.76447" lon="2.27159">
        <ele>135.6</ele>
        <time>2023-07-12T09:48:24Z</time>
      </trkpt>
      <trkpt lat="49.76447" lon="2.27159">
        <ele>135.6</ele>
        <time>2023-07-12T09:48:25Z</time>
      </trkpt>
      <trkpt lat="49.76447" lon="2.27159">
        <ele>135.6</ele>
        <time>2023-07-12T09:48:26Z</time>
      </trkpt>
      <trkpt lat="49.76447" lon="2.27159">
        <ele>135.6</ele>
        <time>2023-07-12T09:48:27Z</time>
      </trkpt>
      <trkpt lat="49.76447" lon="2.27159">
        <ele>135.6</ele>
        <time>2023-07-12T09:48:28Z</time>
      </trkpt>
      <trkpt lat="49.76447" lon="2.27159">
        <ele>135.6</ele>
        <time>2023-07-12T09:48:29Z</time>
      </trkpt>
      <trkpt lat="49.76447" lon="2.27159">
        <ele>135.6</ele>
        <time>2023-07-12T09:48:30Z</time>
      </trkpt>
      <trkpt lat="49.76447" lon="2.27159">
        <ele>135.6</ele>
        <time>2023-07-12T09:48:31Z</time>
      </trkpt>
      <trkpt lat="49.76447" lon="2.27159">
        <ele>135.6</ele>
        <time>2023-07-12T09:48:32Z</time>
      </trkpt>
      <trkpt lat="49.76446" lon="2.2716">
        <ele>135.6</ele>
        <time>2023-07-12T09:48:33Z</time>
      </trkpt>
      <trkpt lat="49.76447" lon="2.27159">
        <ele>135.6</ele>
        <time>2023-07-12T09:48:34Z</time>
      </trkpt>
      <trkpt lat="49.76447" lon="2.27158">
        <ele>135.6</ele>
        <time>2023-07-12T09:48:35Z</time>
      </trkpt>
      <trkpt lat="49.76447" lon="2.27158">
        <ele>135.6</ele>
        <time>2023-07-12T09:48:37Z</time>
      </trkpt>
      <trkpt lat="49.76446" lon="2.27158">
        <ele>135.6</ele>
        <time>2023-07-12T09:48:38Z</time>
      </trkpt>
      <trkpt lat="49.76445" lon="2.27157">
        <ele>135.6</ele>
        <time>2023-07-12T09:48:39Z</time>
      </trkpt>
      <trkpt lat="49.76445" lon="2.27157">
        <ele>135.6</ele>
        <time>2023-07-12T09:48:40Z</time>
      </trkpt>
      <trkpt lat="49.76444" lon="2.27157">
        <ele>135.6</ele>
        <time>2023-07-12T09:48:41Z</time>
      </trkpt>
      <trkpt lat="49.76443" lon="2.27156">
        <ele>135.6</ele>
        <time>2023-07-12T09:48:42Z</time>
      </trkpt>
      <trkpt lat="49.76443" lon="2.27155">
        <ele>135.6</ele>
        <time>2023-07-12T09:48:43Z</time>
      </trkpt>
      <trkpt lat="49.76442" lon="2.27154">
        <ele>135.7</ele>
        <time>2023-07-12T09:48:44Z</time>
      </trkpt>
      <trkpt lat="49.76441" lon="2.27151">
        <ele>135.7</ele>
        <time>2023-07-12T09:48:46Z</time>
      </trkpt>
      <trkpt lat="49.76441" lon="2.27149">
        <ele>135.7</ele>
        <time>2023-07-12T09:48:47Z</time>
      </trkpt>
      <trkpt lat="49.7644" lon="2.27148">
        <ele>135.7</ele>
        <time>2023-07-12T09:48:48Z</time>
      </trkpt>
      <trkpt lat="49.7644" lon="2.27146">
        <ele>135.7</ele>
        <time>2023-07-12T09:48:49Z</time>
      </trkpt>
      <trkpt lat="49.7644" lon="2.27144">
        <ele>135.7</ele>
        <time>2023-07-12T09:48:50Z</time>
      </trkpt>
      <trkpt lat="49.76439" lon="2.27143">
        <ele>135.7</ele>
        <time>2023-07-12T09:48:51Z</time>
      </trkpt>
      <trkpt lat="49.76439" lon="2.27141">
        <ele>135.7</ele>
        <time>2023-07-12T09:48:52Z</time>
      </trkpt>
      <trkpt lat="49.76439" lon="2.27139">
        <ele>135.8</ele>
        <time>2023-07-12T09:48:53Z</time>
      </trkpt>
      <trkpt lat="49.76438" lon="2.27137">
        <ele>135.8</ele>
        <time>2023-07-12T09:48:55Z</time>
      </trkpt>
      <trkpt lat="49.76438" lon="2.27135">
        <ele>135.8</ele>
        <time>2023-07-12T09:48:56Z</time>
      </trkpt>
      <trkpt lat="49.76437" lon="2.27132">
        <ele>135.8</ele>
        <time>2023-07-12T09:48:57Z</time>
      </trkpt>
      <trkpt lat="49.76437" lon="2.27131">
        <ele>135.8</ele>
        <time>2023-07-12T09:48:59Z</time>
      </trkpt>
      <trkpt lat="49.76437" lon="2.2713">
        <ele>135.8</ele>
        <time>2023-07-12T09:49:00Z</time>
      </trkpt>
      <trkpt lat="49.76436" lon="2.27128">
        <ele>135.8</ele>
        <time>2023-07-12T09:49:01Z</time>
      </trkpt>
      <trkpt lat="49.76436" lon="2.27126">
        <ele>135.9</ele>
        <time>2023-07-12T09:49:02Z</time>
      </trkpt>
      <trkpt lat="49.76436" lon="2.27123">
        <ele>135.9</ele>
        <time>2023-07-12T09:49:03Z</time>
      </trkpt>
      <trkpt lat="49.76436" lon="2.2712">
        <ele>135.9</ele>
        <time>2023-07-12T09:49:04Z</time>
      </trkpt>
      <trkpt lat="49.76436" lon="2.27118">
        <ele>135.9</ele>
        <time>2023-07-12T09:49:05Z</time>
      </trkpt>
      <trkpt lat="49.76436" lon="2.27117">
        <ele>135.9</ele>
        <time>2023-07-12T09:49:06Z</time>
      </trkpt>
      <trkpt lat="49.76436" lon="2.27114">
        <ele>135.9</ele>
        <time>2023-07-12T09:49:07Z</time>
      </trkpt>
      <trkpt lat="49.76436" lon="2.27111">
        <ele>135.9</ele>
        <time>2023-07-12T09:49:09Z</time>
      </trkpt>
      <trkpt lat="49.76435" lon="2.27108">
        <ele>136</ele>
        <time>2023-07-12T09:49:10Z</time>
      </trkpt>
      <trkpt lat="49.76435" lon="2.27106">
        <ele>136</ele>
        <time>2023-07-12T09:49:11Z</time>
      </trkpt>
      <trkpt lat="49.76434" lon="2.27104">
        <ele>136</ele>
        <time>2023-07-12T09:49:12Z</time>
      </trkpt>
      <trkpt lat="49.76434" lon="2.27101">
        <ele>136</ele>
        <time>2023-07-12T09:49:13Z</time>
      </trkpt>
      <trkpt lat="49.76434" lon="2.27099">
        <ele>136</ele>
        <time>2023-07-12T09:49:14Z</time>
      </trkpt>
      <trkpt lat="49.76435" lon="2.27097">
        <ele>136</ele>
        <time>2023-07-12T09:49:15Z</time>
      </trkpt>
      <trkpt lat="49.76436" lon="2.27094">
        <ele>136</ele>
        <time>2023-07-12T09:49:17Z</time>
      </trkpt>
      <trkpt lat="49.76436" lon="2.27093">
        <ele>136</ele>
        <time>2023-07-12T09:49:18Z</time>
      </trkpt>
      <trkpt lat="49.76437" lon="2.27092">
        <ele>136</ele>
        <time>2023-07-12T09:49:19Z</time>
      </trkpt>
      <trkpt lat="49.76438" lon="2.2709">
        <ele>136</ele>
        <time>2023-07-12T09:49:20Z</time>
      </trkpt>
      <trkpt lat="49.76438" lon="2.27088">
        <ele>135.9</ele>
        <time>2023-07-12T09:49:21Z</time>
      </trkpt>
      <trkpt lat="49.76439" lon="2.27086">
        <ele>135.9</ele>
        <time>2023-07-12T09:49:22Z</time>
      </trkpt>
      <trkpt lat="49.76441" lon="2.27085">
        <ele>135.9</ele>
        <time>2023-07-12T09:49:23Z</time>
      </trkpt>
      <trkpt lat="49.76442" lon="2.27083">
        <ele>135.9</ele>
        <time>2023-07-12T09:49:24Z</time>
      </trkpt>
      <trkpt lat="49.76443" lon="2.27082">
        <ele>135.9</ele>
        <time>2023-07-12T09:49:25Z</time>
      </trkpt>
      <trkpt lat="49.76444" lon="2.2708">
        <ele>135.9</ele>
        <time>2023-07-12T09:49:26Z</time>
      </trkpt>
      <trkpt lat="49.76445" lon="2.27079">
        <ele>135.9</ele>
        <time>2023-07-12T09:49:28Z</time>
      </trkpt>
      <trkpt lat="49.76446" lon="2.27078">
        <ele>135.9</ele>
        <time>2023-07-12T09:49:29Z</time>
      </trkpt>
      <trkpt lat="49.76447" lon="2.27077">
        <ele>135.9</ele>
        <time>2023-07-12T09:49:30Z</time>
      </trkpt>
      <trkpt lat="49.76447" lon="2.27075">
        <ele>135.9</ele>
        <time>2023-07-12T09:49:31Z</time>
      </trkpt>
      <trkpt lat="49.76448" lon="2.27073">
        <ele>135.9</ele>
        <time>2023-07-12T09:49:32Z</time>
      </trkpt>
      <trkpt lat="49.76449" lon="2.27072">
        <ele>135.9</ele>
        <time>2023-07-12T09:49:33Z</time>
      </trkpt>
      <trkpt lat="49.7645" lon="2.2707">
        <ele>135.9</ele>
        <time>2023-07-12T09:49:34Z</time>
      </trkpt>
      <trkpt lat="49.7645" lon="2.27068">
        <ele>135.9</ele>
        <time>2023-07-12T09:49:35Z</time>
      </trkpt>
      <trkpt lat="49.76451" lon="2.27066">
        <ele>135.9</ele>
        <time>2023-07-12T09:49:36Z</time>
      </trkpt>
      <trkpt lat="49.76451" lon="2.27064">
        <ele>135.9</ele>
        <time>2023-07-12T09:49:38Z</time>
      </trkpt>
      <trkpt lat="49.76452" lon="2.27062">
        <ele>135.9</ele>
        <time>2023-07-12T09:49:39Z</time>
      </trkpt>
      <trkpt lat="49.76452" lon="2.27061">
        <ele>135.9</ele>
        <time>2023-07-12T09:49:40Z</time>
      </trkpt>
      <trkpt lat="49.76453" lon="2.2706">
        <ele>135.9</ele>
        <time>2023-07-12T09:49:41Z</time>
      </trkpt>
      <trkpt lat="49.76454" lon="2.27057">
        <ele>135.8</ele>
        <time>2023-07-12T09:49:42Z</time>
      </trkpt>
      <trkpt lat="49.76455" lon="2.27056">
        <ele>135.8</ele>
        <time>2023-07-12T09:49:43Z</time>
      </trkpt>
      <trkpt lat="49.76455" lon="2.27055">
        <ele>135.8</ele>
        <time>2023-07-12T09:49:44Z</time>
      </trkpt>
      <trkpt lat="49.76456" lon="2.27052">
        <ele>135.8</ele>
        <time>2023-07-12T09:49:45Z</time>
      </trkpt>
      <trkpt lat="49.76457" lon="2.27051">
        <ele>135.8</ele>
        <time>2023-07-12T09:49:46Z</time>
      </trkpt>
      <trkpt lat="49.76457" lon="2.2705">
        <ele>135.8</ele>
        <time>2023-07-12T09:49:48Z</time>
      </trkpt>
      <trkpt lat="49.76457" lon="2.27049">
        <ele>135.8</ele>
        <time>2023-07-12T09:49:49Z</time>
      </trkpt>
      <trkpt lat="49.76458" lon="2.27048">
        <ele>135.8</ele>
        <time>2023-07-12T09:49:50Z</time>
      </trkpt>
      <trkpt lat="49.76458" lon="2.27047">
        <ele>135.8</ele>
        <time>2023-07-12T09:49:51Z</time>
      </trkpt>
      <trkpt lat="49.76459" lon="2.27046">
        <ele>135.8</ele>
        <time>2023-07-12T09:49:52Z</time>
      </trkpt>
      <trkpt lat="49.76459" lon="2.27042">
        <ele>135.8</ele>
        <time>2023-07-12T09:49:53Z</time>
      </trkpt>
      <trkpt lat="49.76459" lon="2.27041">
        <ele>135.8</ele>
        <time>2023-07-12T09:49:54Z</time>
      </trkpt>
      <trkpt lat="49.7646" lon="2.27039">
        <ele>135.8</ele>
        <time>2023-07-12T09:49:56Z</time>
      </trkpt>
      <trkpt lat="49.7646" lon="2.27038">
        <ele>135.8</ele>
        <time>2023-07-12T09:49:57Z</time>
      </trkpt>
      <trkpt lat="49.7646" lon="2.27036">
        <ele>135.8</ele>
        <time>2023-07-12T09:49:58Z</time>
      </trkpt>
      <trkpt lat="49.7646" lon="2.27034">
        <ele>135.8</ele>
        <time>2023-07-12T09:49:59Z</time>
      </trkpt>
      <trkpt lat="49.76461" lon="2.27031">
        <ele>135.7</ele>
        <time>2023-07-12T09:50:00Z</time>
      </trkpt>
      <trkpt lat="49.76461" lon="2.2703">
        <ele>135.7</ele>
        <time>2023-07-12T09:50:01Z</time>
      </trkpt>
      <trkpt lat="49.76462" lon="2.27029">
        <ele>135.7</ele>
        <time>2023-07-12T09:50:02Z</time>
      </trkpt>
      <trkpt lat="49.76462" lon="2.27027">
        <ele>135.7</ele>
        <time>2023-07-12T09:50:03Z</time>
      </trkpt>
      <trkpt lat="49.76463" lon="2.27026">
        <ele>135.7</ele>
        <time>2023-07-12T09:50:04Z</time>
      </trkpt>
      <trkpt lat="49.76463" lon="2.27024">
        <ele>135.6</ele>
        <time>2023-07-12T09:50:05Z</time>
      </trkpt>
      <trkpt lat="49.76464" lon="2.27022">
        <ele>135.6</ele>
        <time>2023-07-12T09:50:07Z</time>
      </trkpt>
      <trkpt lat="49.76464" lon="2.2702">
        <ele>135.6</ele>
        <time>2023-07-12T09:50:08Z</time>
      </trkpt>
      <trkpt lat="49.76464" lon="2.27019">
        <ele>135.6</ele>
        <time>2023-07-12T09:50:09Z</time>
      </trkpt>
      <trkpt lat="49.76465" lon="2.27017">
        <ele>135.5</ele>
        <time>2023-07-12T09:50:10Z</time>
      </trkpt>
      <trkpt lat="49.76465" lon="2.27014">
        <ele>135.5</ele>
        <time>2023-07-12T09:50:11Z</time>
      </trkpt>
      <trkpt lat="49.76466" lon="2.27013">
        <ele>135.5</ele>
        <time>2023-07-12T09:50:12Z</time>
      </trkpt>
      <trkpt lat="49.76466" lon="2.27011">
        <ele>135.5</ele>
        <time>2023-07-12T09:50:14Z</time>
      </trkpt>
      <trkpt lat="49.76466" lon="2.2701">
        <ele>135.4</ele>
        <time>2023-07-12T09:50:15Z</time>
      </trkpt>
      <trkpt lat="49.76467" lon="2.27008">
        <ele>135.4</ele>
        <time>2023-07-12T09:50:16Z</time>
      </trkpt>
      <trkpt lat="49.76467" lon="2.27006">
        <ele>135.4</ele>
        <time>2023-07-12T09:50:17Z</time>
      </trkpt>
      <trkpt lat="49.76468" lon="2.27005">
        <ele>135.4</ele>
        <time>2023-07-12T09:50:18Z</time>
      </trkpt>
      <trkpt lat="49.76469" lon="2.27002">
        <ele>135.4</ele>
        <time>2023-07-12T09:50:19Z</time>
      </trkpt>
      <trkpt lat="49.76469" lon="2.27">
        <ele>135.3</ele>
        <time>2023-07-12T09:50:20Z</time>
      </trkpt>
      <trkpt lat="49.7647" lon="2.26999">
        <ele>135.3</ele>
        <time>2023-07-12T09:50:21Z</time>
      </trkpt>
      <trkpt lat="49.76471" lon="2.26996">
        <ele>135.3</ele>
        <time>2023-07-12T09:50:22Z</time>
      </trkpt>
      <trkpt lat="49.76471" lon="2.26995">
        <ele>135.3</ele>
        <time>2023-07-12T09:50:23Z</time>
      </trkpt>
      <trkpt lat="49.76472" lon="2.26994">
        <ele>135.3</ele>
        <time>2023-07-12T09:50:24Z</time>
      </trkpt>
      <trkpt lat="49.76472" lon="2.26991">
        <ele>135.3</ele>
        <time>2023-07-12T09:50:26Z</time>
      </trkpt>
      <trkpt lat="49.76473" lon="2.2699">
        <ele>135.3</ele>
        <time>2023-07-12T09:50:27Z</time>
      </trkpt>
      <trkpt lat="49.76473" lon="2.26989">
        <ele>135.2</ele>
        <time>2023-07-12T09:50:28Z</time>
      </trkpt>
      <trkpt lat="49.76474" lon="2.26985">
        <ele>135.2</ele>
        <time>2023-07-12T09:50:29Z</time>
      </trkpt>
      <trkpt lat="49.76475" lon="2.26984">
        <ele>135.2</ele>
        <time>2023-07-12T09:50:30Z</time>
      </trkpt>
      <trkpt lat="49.76475" lon="2.26983">
        <ele>135.2</ele>
        <time>2023-07-12T09:50:31Z</time>
      </trkpt>
      <trkpt lat="49.76476" lon="2.2698">
        <ele>135.2</ele>
        <time>2023-07-12T09:50:32Z</time>
      </trkpt>
      <trkpt lat="49.76476" lon="2.26979">
        <ele>135.2</ele>
        <time>2023-07-12T09:50:33Z</time>
      </trkpt>
      <trkpt lat="49.76477" lon="2.26978">
        <ele>135.2</ele>
        <time>2023-07-12T09:50:34Z</time>
      </trkpt>
      <trkpt lat="49.76477" lon="2.26976">
        <ele>135.2</ele>
        <time>2023-07-12T09:50:35Z</time>
      </trkpt>
      <trkpt lat="49.76478" lon="2.26974">
        <ele>135.1</ele>
        <time>2023-07-12T09:50:36Z</time>
      </trkpt>
      <trkpt lat="49.76478" lon="2.26972">
        <ele>135.1</ele>
        <time>2023-07-12T09:50:38Z</time>
      </trkpt>
      <trkpt lat="49.76479" lon="2.26969">
        <ele>135.1</ele>
        <time>2023-07-12T09:50:39Z</time>
      </trkpt>
      <trkpt lat="49.76479" lon="2.26968">
        <ele>135.1</ele>
        <time>2023-07-12T09:50:40Z</time>
      </trkpt>
      <trkpt lat="49.76479" lon="2.26967">
        <ele>135.1</ele>
        <time>2023-07-12T09:50:41Z</time>
      </trkpt>
      <trkpt lat="49.7648" lon="2.26965">
        <ele>135.1</ele>
        <time>2023-07-12T09:50:42Z</time>
      </trkpt>
      <trkpt lat="49.7648" lon="2.26963">
        <ele>135.1</ele>
        <time>2023-07-12T09:50:43Z</time>
      </trkpt>
      <trkpt lat="49.7648" lon="2.26961">
        <ele>135.1</ele>
        <time>2023-07-12T09:50:44Z</time>
      </trkpt>
      <trkpt lat="49.76481" lon="2.2696">
        <ele>135</ele>
        <time>2023-07-12T09:50:45Z</time>
      </trkpt>
      <trkpt lat="49.76481" lon="2.26958">
        <ele>135</ele>
        <time>2023-07-12T09:50:46Z</time>
      </trkpt>
      <trkpt lat="49.76481" lon="2.26957">
        <ele>135</ele>
        <time>2023-07-12T09:50:48Z</time>
      </trkpt>
      <trkpt lat="49.76481" lon="2.26956">
        <ele>135</ele>
        <time>2023-07-12T09:50:49Z</time>
      </trkpt>
      <trkpt lat="49.76482" lon="2.26955">
        <ele>135</ele>
        <time>2023-07-12T09:50:50Z</time>
      </trkpt>
      <trkpt lat="49.76482" lon="2.26953">
        <ele>135</ele>
        <time>2023-07-12T09:50:51Z</time>
      </trkpt>
      <trkpt lat="49.76482" lon="2.26952">
        <ele>135</ele>
        <time>2023-07-12T09:50:52Z</time>
      </trkpt>
      <trkpt lat="49.76483" lon="2.2695">
        <ele>134.9</ele>
        <time>2023-07-12T09:50:53Z</time>
      </trkpt>
      <trkpt lat="49.76484" lon="2.26949">
        <ele>134.9</ele>
        <time>2023-07-12T09:50:54Z</time>
      </trkpt>
      <trkpt lat="49.76484" lon="2.26947">
        <ele>134.9</ele>
        <time>2023-07-12T09:50:55Z</time>
      </trkpt>
      <trkpt lat="49.76485" lon="2.26946">
        <ele>134.9</ele>
        <time>2023-07-12T09:50:56Z</time>
      </trkpt>
      <trkpt lat="49.76486" lon="2.26944">
        <ele>134.9</ele>
        <time>2023-07-12T09:50:57Z</time>
      </trkpt>
      <trkpt lat="49.76486" lon="2.26943">
        <ele>134.8</ele>
        <time>2023-07-12T09:50:59Z</time>
      </trkpt>
      <trkpt lat="49.76486" lon="2.26942">
        <ele>134.8</ele>
        <time>2023-07-12T09:51:00Z</time>
      </trkpt>
      <trkpt lat="49.76487" lon="2.2694">
        <ele>134.8</ele>
        <time>2023-07-12T09:51:01Z</time>
      </trkpt>
      <trkpt lat="49.76487" lon="2.26938">
        <ele>134.8</ele>
        <time>2023-07-12T09:51:02Z</time>
      </trkpt>
      <trkpt lat="49.76487" lon="2.26936">
        <ele>134.8</ele>
        <time>2023-07-12T09:51:04Z</time>
      </trkpt>
      <trkpt lat="49.76487" lon="2.26935">
        <ele>134.7</ele>
        <time>2023-07-12T09:51:05Z</time>
      </trkpt>
      <trkpt lat="49.76487" lon="2.26935">
        <ele>134.7</ele>
        <time>2023-07-12T09:51:06Z</time>
      </trkpt>
      <trkpt lat="49.76488" lon="2.26933">
        <ele>134.7</ele>
        <time>2023-07-12T09:51:07Z</time>
      </trkpt>
      <trkpt lat="49.76488" lon="2.26932">
        <ele>134.7</ele>
        <time>2023-07-12T09:51:08Z</time>
      </trkpt>
      <trkpt lat="49.76488" lon="2.2693">
        <ele>134.7</ele>
        <time>2023-07-12T09:51:09Z</time>
      </trkpt>
      <trkpt lat="49.76489" lon="2.26929">
        <ele>134.7</ele>
        <time>2023-07-12T09:51:10Z</time>
      </trkpt>
      <trkpt lat="49.76489" lon="2.26927">
        <ele>134.7</ele>
        <time>2023-07-12T09:51:12Z</time>
      </trkpt>
      <trkpt lat="49.76489" lon="2.26925">
        <ele>134.7</ele>
        <time>2023-07-12T09:51:13Z</time>
      </trkpt>
      <trkpt lat="49.7649" lon="2.26923">
        <ele>134.7</ele>
        <time>2023-07-12T09:51:14Z</time>
      </trkpt>
      <trkpt lat="49.76491" lon="2.26921">
        <ele>134.6</ele>
        <time>2023-07-12T09:51:15Z</time>
      </trkpt>
      <trkpt lat="49.76491" lon="2.2692">
        <ele>134.6</ele>
        <time>2023-07-12T09:51:16Z</time>
      </trkpt>
      <trkpt lat="49.76491" lon="2.26918">
        <ele>134.6</ele>
        <time>2023-07-12T09:51:17Z</time>
      </trkpt>
      <trkpt lat="49.76492" lon="2.26917">
        <ele>134.6</ele>
        <time>2023-07-12T09:51:19Z</time>
      </trkpt>
      <trkpt lat="49.76492" lon="2.26915">
        <ele>134.6</ele>
        <time>2023-07-12T09:51:20Z</time>
      </trkpt>
      <trkpt lat="49.76493" lon="2.26914">
        <ele>134.6</ele>
        <time>2023-07-12T09:51:21Z</time>
      </trkpt>
      <trkpt lat="49.76494" lon="2.26912">
        <ele>134.6</ele>
        <time>2023-07-12T09:51:22Z</time>
      </trkpt>
      <trkpt lat="49.76494" lon="2.26911">
        <ele>134.6</ele>
        <time>2023-07-12T09:51:24Z</time>
      </trkpt>
      <trkpt lat="49.76494" lon="2.2691">
        <ele>134.6</ele>
        <time>2023-07-12T09:51:25Z</time>
      </trkpt>
      <trkpt lat="49.76495" lon="2.26909">
        <ele>134.6</ele>
        <time>2023-07-12T09:51:26Z</time>
      </trkpt>
      <trkpt lat="49.76495" lon="2.26908">
        <ele>134.6</ele>
        <time>2023-07-12T09:51:27Z</time>
      </trkpt>
      <trkpt lat="49.76496" lon="2.26907">
        <ele>134.6</ele>
        <time>2023-07-12T09:51:28Z</time>
      </trkpt>
      <trkpt lat="49.76497" lon="2.26907">
        <ele>134.6</ele>
        <time>2023-07-12T09:51:29Z</time>
      </trkpt>
      <trkpt lat="49.76498" lon="2.26907">
        <ele>134.6</ele>
        <time>2023-07-12T09:51:31Z</time>
      </trkpt>
      <trkpt lat="49.76498" lon="2.26908">
        <ele>134.6</ele>
        <time>2023-07-12T09:51:32Z</time>
      </trkpt>
      <trkpt lat="49.76499" lon="2.26908">
        <ele>134.6</ele>
        <time>2023-07-12T09:51:33Z</time>
      </trkpt>
      <trkpt lat="49.765" lon="2.26909">
        <ele>134.6</ele>
        <time>2023-07-12T09:51:34Z</time>
      </trkpt>
      <trkpt lat="49.765" lon="2.26909">
        <ele>134.6</ele>
        <time>2023-07-12T09:51:35Z</time>
      </trkpt>
      <trkpt lat="49.76501" lon="2.26909">
        <ele>134.6</ele>
        <time>2023-07-12T09:51:36Z</time>
      </trkpt>
      <trkpt lat="49.76502" lon="2.26909">
        <ele>134.6</ele>
        <time>2023-07-12T09:51:37Z</time>
      </trkpt>
      <trkpt lat="49.76502" lon="2.2691">
        <ele>134.6</ele>
        <time>2023-07-12T09:51:38Z</time>
      </trkpt>
      <trkpt lat="49.76503" lon="2.2691">
        <ele>134.6</ele>
        <time>2023-07-12T09:51:40Z</time>
      </trkpt>
      <trkpt lat="49.76503" lon="2.2691">
        <ele>134.6</ele>
        <time>2023-07-12T09:51:41Z</time>
      </trkpt>
      <trkpt lat="49.76504" lon="2.2691">
        <ele>134.5</ele>
        <time>2023-07-12T09:51:42Z</time>
      </trkpt>
      <trkpt lat="49.76506" lon="2.26911">
        <ele>134.5</ele>
        <time>2023-07-12T09:51:43Z</time>
      </trkpt>
      <trkpt lat="49.76507" lon="2.26911">
        <ele>134.5</ele>
        <time>2023-07-12T09:51:44Z</time>
      </trkpt>
      <trkpt lat="49.76508" lon="2.26912">
        <ele>134.5</ele>
        <time>2023-07-12T09:51:46Z</time>
      </trkpt>
      <trkpt lat="49.7651" lon="2.26912">
        <ele>134.5</ele>
        <time>2023-07-12T09:51:47Z</time>
      </trkpt>
      <trkpt lat="49.76512" lon="2.26914">
        <ele>134.4</ele>
        <time>2023-07-12T09:51:48Z</time>
      </trkpt>
      <trkpt lat="49.76513" lon="2.26915">
        <ele>134.4</ele>
        <time>2023-07-12T09:51:49Z</time>
      </trkpt>
      <trkpt lat="49.76515" lon="2.26916">
        <ele>134.4</ele>
        <time>2023-07-12T09:51:50Z</time>
      </trkpt>
      <trkpt lat="49.76516" lon="2.26917">
        <ele>134.4</ele>
        <time>2023-07-12T09:51:52Z</time>
      </trkpt>
      <trkpt lat="49.76517" lon="2.26918">
        <ele>134.4</ele>
        <time>2023-07-12T09:51:53Z</time>
      </trkpt>
      <trkpt lat="49.76517" lon="2.26918">
        <ele>134.4</ele>
        <time>2023-07-12T09:51:54Z</time>
      </trkpt>
      <trkpt lat="49.76517" lon="2.26918">
        <ele>134.4</ele>
        <time>2023-07-12T09:51:55Z</time>
      </trkpt>
      <trkpt lat="49.76517" lon="2.26918">
        <ele>134.4</ele>
        <time>2023-07-12T09:51:57Z</time>
      </trkpt>
      <trkpt lat="49.76517" lon="2.26918">
        <ele>134.4</ele>
        <time>2023-07-12T09:51:58Z</time>
      </trkpt>
      <trkpt lat="49.76518" lon="2.26918">
        <ele>134.4</ele>
        <time>2023-07-12T09:51:59Z</time>
      </trkpt>
      <trkpt lat="49.76518" lon="2.26918">
        <ele>134.4</ele>
        <time>2023-07-12T09:52:00Z</time>
      </trkpt>
      <trkpt lat="49.76519" lon="2.26919">
        <ele>134.4</ele>
        <time>2023-07-12T09:52:01Z</time>
      </trkpt>
      <trkpt lat="49.7652" lon="2.26919">
        <ele>134.3</ele>
        <time>2023-07-12T09:52:03Z</time>
      </trkpt>
      <trkpt lat="49.76521" lon="2.26919">
        <ele>134.3</ele>
        <time>2023-07-12T09:52:04Z</time>
      </trkpt>
      <trkpt lat="49.76522" lon="2.26918">
        <ele>134.3</ele>
        <time>2023-07-12T09:52:05Z</time>
      </trkpt>
      <trkpt lat="49.76523" lon="2.26918">
        <ele>134.3</ele>
        <time>2023-07-12T09:52:06Z</time>
      </trkpt>
      <trkpt lat="49.76524" lon="2.26918">
        <ele>134.3</ele>
        <time>2023-07-12T09:52:07Z</time>
      </trkpt>
      <trkpt lat="49.76525" lon="2.26918">
        <ele>134.3</ele>
        <time>2023-07-12T09:52:09Z</time>
      </trkpt>
      <trkpt lat="49.76525" lon="2.26918">
        <ele>134.3</ele>
        <time>2023-07-12T09:52:10Z</time>
      </trkpt>
      <trkpt lat="49.76525" lon="2.26917">
        <ele>134.3</ele>
        <time>2023-07-12T09:52:11Z</time>
      </trkpt>
      <trkpt lat="49.76525" lon="2.26917">
        <ele>134.3</ele>
        <time>2023-07-12T09:52:12Z</time>
      </trkpt>
      <trkpt lat="49.76526" lon="2.26917">
        <ele>134.3</ele>
        <time>2023-07-12T09:52:13Z</time>
      </trkpt>
      <trkpt lat="49.76527" lon="2.26917">
        <ele>134.3</ele>
        <time>2023-07-12T09:52:14Z</time>
      </trkpt>
      <trkpt lat="49.76528" lon="2.26917">
        <ele>134.3</ele>
        <time>2023-07-12T09:52:15Z</time>
      </trkpt>
      <trkpt lat="49.76529" lon="2.26917">
        <ele>134.3</ele>
        <time>2023-07-12T09:52:16Z</time>
      </trkpt>
      <trkpt lat="49.7653" lon="2.26917">
        <ele>134.2</ele>
        <time>2023-07-12T09:52:18Z</time>
      </trkpt>
      <trkpt lat="49.76531" lon="2.26917">
        <ele>134.2</ele>
        <time>2023-07-12T09:52:19Z</time>
      </trkpt>
      <trkpt lat="49.76532" lon="2.26918">
        <ele>134.2</ele>
        <time>2023-07-12T09:52:20Z</time>
      </trkpt>
      <trkpt lat="49.76533" lon="2.26918">
        <ele>134.2</ele>
        <time>2023-07-12T09:52:21Z</time>
      </trkpt>
      <trkpt lat="49.76534" lon="2.26919">
        <ele>134.2</ele>
        <time>2023-07-12T09:52:22Z</time>
      </trkpt>
      <trkpt lat="49.76535" lon="2.2692">
        <ele>134.2</ele>
        <time>2023-07-12T09:52:24Z</time>
      </trkpt>
      <trkpt lat="49.76536" lon="2.2692">
        <ele>134.2</ele>
        <time>2023-07-12T09:52:25Z</time>
      </trkpt>
      <trkpt lat="49.76538" lon="2.26922">
        <ele>134.2</ele>
        <time>2023-07-12T09:52:26Z</time>
      </trkpt>
      <trkpt lat="49.76539" lon="2.26922">
        <ele>134.2</ele>
        <time>2023-07-12T09:52:27Z</time>
      </trkpt>
      <trkpt lat="49.7654" lon="2.26923">
        <ele>134.2</ele>
        <time>2023-07-12T09:52:28Z</time>
      </trkpt>
      <trkpt lat="49.76541" lon="2.26923">
        <ele>134.1</ele>
        <time>2023-07-12T09:52:29Z</time>
      </trkpt>
      <trkpt lat="49.76543" lon="2.26924">
        <ele>134.1</ele>
        <time>2023-07-12T09:52:30Z</time>
      </trkpt>
      <trkpt lat="49.76546" lon="2.26925">
        <ele>134.1</ele>
        <time>2023-07-12T09:52:32Z</time>
      </trkpt>
      <trkpt lat="49.76547" lon="2.26926">
        <ele>134.1</ele>
        <time>2023-07-12T09:52:33Z</time>
      </trkpt>
      <trkpt lat="49.76549" lon="2.26926">
        <ele>134.1</ele>
        <time>2023-07-12T09:52:34Z</time>
      </trkpt>
      <trkpt lat="49.7655" lon="2.26927">
        <ele>134.1</ele>
        <time>2023-07-12T09:52:35Z</time>
      </trkpt>
      <trkpt lat="49.76551" lon="2.26926">
        <ele>134</ele>
        <time>2023-07-12T09:52:37Z</time>
      </trkpt>
      <trkpt lat="49.76552" lon="2.26927">
        <ele>134</ele>
        <time>2023-07-12T09:52:38Z</time>
      </trkpt>
      <trkpt lat="49.76553" lon="2.26927">
        <ele>134</ele>
        <time>2023-07-12T09:52:39Z</time>
      </trkpt>
      <trkpt lat="49.76555" lon="2.26928">
        <ele>134</ele>
        <time>2023-07-12T09:52:40Z</time>
      </trkpt>
      <trkpt lat="49.76556" lon="2.26929">
        <ele>134</ele>
        <time>2023-07-12T09:52:41Z</time>
      </trkpt>
      <trkpt lat="49.76557" lon="2.2693">
        <ele>134</ele>
        <time>2023-07-12T09:52:42Z</time>
      </trkpt>
      <trkpt lat="49.76559" lon="2.26931">
        <ele>134</ele>
        <time>2023-07-12T09:52:43Z</time>
      </trkpt>
      <trkpt lat="49.7656" lon="2.26931">
        <ele>134</ele>
        <time>2023-07-12T09:52:44Z</time>
      </trkpt>
      <trkpt lat="49.76561" lon="2.26931">
        <ele>134</ele>
        <time>2023-07-12T09:52:46Z</time>
      </trkpt>
      <trkpt lat="49.76562" lon="2.26931">
        <ele>133.9</ele>
        <time>2023-07-12T09:52:47Z</time>
      </trkpt>
      <trkpt lat="49.76564" lon="2.26931">
        <ele>133.9</ele>
        <time>2023-07-12T09:52:48Z</time>
      </trkpt>
      <trkpt lat="49.76565" lon="2.26931">
        <ele>133.9</ele>
        <time>2023-07-12T09:52:49Z</time>
      </trkpt>
      <trkpt lat="49.76567" lon="2.26931">
        <ele>133.9</ele>
        <time>2023-07-12T09:52:50Z</time>
      </trkpt>
      <trkpt lat="49.76568" lon="2.26931">
        <ele>133.9</ele>
        <time>2023-07-12T09:52:51Z</time>
      </trkpt>
      <trkpt lat="49.76568" lon="2.26932">
        <ele>133.9</ele>
        <time>2023-07-12T09:52:52Z</time>
      </trkpt>
      <trkpt lat="49.76571" lon="2.26933">
        <ele>133.9</ele>
        <time>2023-07-12T09:52:53Z</time>
      </trkpt>
      <trkpt lat="49.76573" lon="2.26933">
        <ele>133.8</ele>
        <time>2023-07-12T09:52:55Z</time>
      </trkpt>
      <trkpt lat="49.76577" lon="2.26934">
        <ele>133.8</ele>
        <time>2023-07-12T09:52:56Z</time>
      </trkpt>
      <trkpt lat="49.76578" lon="2.26934">
        <ele>133.8</ele>
        <time>2023-07-12T09:52:57Z</time>
      </trkpt>
      <trkpt lat="49.7658" lon="2.26936">
        <ele>133.8</ele>
        <time>2023-07-12T09:52:58Z</time>
      </trkpt>
      <trkpt lat="49.76581" lon="2.26937">
        <ele>133.8</ele>
        <time>2023-07-12T09:52:59Z</time>
      </trkpt>
      <trkpt lat="49.76583" lon="2.26938">
        <ele>133.8</ele>
        <time>2023-07-12T09:53:00Z</time>
      </trkpt>
      <trkpt lat="49.76584" lon="2.26938">
        <ele>133.8</ele>
        <time>2023-07-12T09:53:01Z</time>
      </trkpt>
      <trkpt lat="49.76585" lon="2.26939">
        <ele>133.8</ele>
        <time>2023-07-12T09:53:02Z</time>
      </trkpt>
      <trkpt lat="49.76587" lon="2.2694">
        <ele>133.8</ele>
        <time>2023-07-12T09:53:04Z</time>
      </trkpt>
      <trkpt lat="49.76588" lon="2.2694">
        <ele>133.8</ele>
        <time>2023-07-12T09:53:05Z</time>
      </trkpt>
      <trkpt lat="49.76588" lon="2.26941">
        <ele>133.8</ele>
        <time>2023-07-12T09:53:06Z</time>
      </trkpt>
      <trkpt lat="49.76589" lon="2.26942">
        <ele>133.8</ele>
        <time>2023-07-12T09:53:07Z</time>
      </trkpt>
      <trkpt lat="49.7659" lon="2.26943">
        <ele>133.7</ele>
        <time>2023-07-12T09:53:08Z</time>
      </trkpt>
      <trkpt lat="49.76591" lon="2.26944">
        <ele>133.7</ele>
        <time>2023-07-12T09:53:09Z</time>
      </trkpt>
      <trkpt lat="49.76592" lon="2.26944">
        <ele>133.7</ele>
        <time>2023-07-12T09:53:11Z</time>
      </trkpt>
      <trkpt lat="49.76593" lon="2.26944">
        <ele>133.7</ele>
        <time>2023-07-12T09:53:12Z</time>
      </trkpt>
      <trkpt lat="49.76594" lon="2.26944">
        <ele>133.7</ele>
        <time>2023-07-12T09:53:13Z</time>
      </trkpt>
      <trkpt lat="49.76595" lon="2.26945">
        <ele>133.7</ele>
        <time>2023-07-12T09:53:14Z</time>
      </trkpt>
      <trkpt lat="49.76596" lon="2.26945">
        <ele>133.7</ele>
        <time>2023-07-12T09:53:15Z</time>
      </trkpt>
      <trkpt lat="49.76597" lon="2.26945">
        <ele>133.7</ele>
        <time>2023-07-12T09:53:16Z</time>
      </trkpt>
      <trkpt lat="49.76598" lon="2.26946">
        <ele>133.7</ele>
        <time>2023-07-12T09:53:17Z</time>
      </trkpt>
      <trkpt lat="49.76599" lon="2.26947">
        <ele>133.7</ele>
        <time>2023-07-12T09:53:18Z</time>
      </trkpt>
      <trkpt lat="49.766" lon="2.26947">
        <ele>133.7</ele>
        <time>2023-07-12T09:53:20Z</time>
      </trkpt>
      <trkpt lat="49.76601" lon="2.26947">
        <ele>133.7</ele>
        <time>2023-07-12T09:53:21Z</time>
      </trkpt>
      <trkpt lat="49.76602" lon="2.26948">
        <ele>133.7</ele>
        <time>2023-07-12T09:53:22Z</time>
      </trkpt>
      <trkpt lat="49.76603" lon="2.26949">
        <ele>133.7</ele>
        <time>2023-07-12T09:53:23Z</time>
      </trkpt>
      <trkpt lat="49.76604" lon="2.26949">
        <ele>133.7</ele>
        <time>2023-07-12T09:53:24Z</time>
      </trkpt>
      <trkpt lat="49.76604" lon="2.2695">
        <ele>133.7</ele>
        <time>2023-07-12T09:53:25Z</time>
      </trkpt>
      <trkpt lat="49.76605" lon="2.2695">
        <ele>133.7</ele>
        <time>2023-07-12T09:53:26Z</time>
      </trkpt>
      <trkpt lat="49.76606" lon="2.26951">
        <ele>133.7</ele>
        <time>2023-07-12T09:53:27Z</time>
      </trkpt>
      <trkpt lat="49.76606" lon="2.26952">
        <ele>133.7</ele>
        <time>2023-07-12T09:53:29Z</time>
      </trkpt>
      <trkpt lat="49.76607" lon="2.26953">
        <ele>133.7</ele>
        <time>2023-07-12T09:53:30Z</time>
      </trkpt>
      <trkpt lat="49.76608" lon="2.26954">
        <ele>133.7</ele>
        <time>2023-07-12T09:53:31Z</time>
      </trkpt>
      <trkpt lat="49.76608" lon="2.26955">
        <ele>133.7</ele>
        <time>2023-07-12T09:53:32Z</time>
      </trkpt>
      <trkpt lat="49.76609" lon="2.26956">
        <ele>133.7</ele>
        <time>2023-07-12T09:53:33Z</time>
      </trkpt>
      <trkpt lat="49.7661" lon="2.26956">
        <ele>133.7</ele>
        <time>2023-07-12T09:53:34Z</time>
      </trkpt>
      <trkpt lat="49.76611" lon="2.26957">
        <ele>133.7</ele>
        <time>2023-07-12T09:53:35Z</time>
      </trkpt>
      <trkpt lat="49.76613" lon="2.26958">
        <ele>133.7</ele>
        <time>2023-07-12T09:53:36Z</time>
      </trkpt>
      <trkpt lat="49.76614" lon="2.26958">
        <ele>133.7</ele>
        <time>2023-07-12T09:53:38Z</time>
      </trkpt>
      <trkpt lat="49.76615" lon="2.26958">
        <ele>133.7</ele>
        <time>2023-07-12T09:53:39Z</time>
      </trkpt>
      <trkpt lat="49.76616" lon="2.26959">
        <ele>133.7</ele>
        <time>2023-07-12T09:53:40Z</time>
      </trkpt>
      <trkpt lat="49.76617" lon="2.26959">
        <ele>133.7</ele>
        <time>2023-07-12T09:53:41Z</time>
      </trkpt>
      <trkpt lat="49.76619" lon="2.2696">
        <ele>133.7</ele>
        <time>2023-07-12T09:53:42Z</time>
      </trkpt>
      <trkpt lat="49.7662" lon="2.2696">
        <ele>133.7</ele>
        <time>2023-07-12T09:53:43Z</time>
      </trkpt>
      <trkpt lat="49.76622" lon="2.26961">
        <ele>133.6</ele>
        <time>2023-07-12T09:53:44Z</time>
      </trkpt>
      <trkpt lat="49.76623" lon="2.26961">
        <ele>133.6</ele>
        <time>2023-07-12T09:53:45Z</time>
      </trkpt>
      <trkpt lat="49.76624" lon="2.26961">
        <ele>133.6</ele>
        <time>2023-07-12T09:53:46Z</time>
      </trkpt>
      <trkpt lat="49.76626" lon="2.26961">
        <ele>133.6</ele>
        <time>2023-07-12T09:53:48Z</time>
      </trkpt>
      <trkpt lat="49.76627" lon="2.26961">
        <ele>133.6</ele>
        <time>2023-07-12T09:53:49Z</time>
      </trkpt>
      <trkpt lat="49.76628" lon="2.26962">
        <ele>133.6</ele>
        <time>2023-07-12T09:53:50Z</time>
      </trkpt>
      <trkpt lat="49.76629" lon="2.26964">
        <ele>133.6</ele>
        <time>2023-07-12T09:53:52Z</time>
      </trkpt>
      <trkpt lat="49.76629" lon="2.26966">
        <ele>133.6</ele>
        <time>2023-07-12T09:53:54Z</time>
      </trkpt>
      <trkpt lat="49.76628" lon="2.26967">
        <ele>133.6</ele>
        <time>2023-07-12T09:53:55Z</time>
      </trkpt>
      <trkpt lat="49.76628" lon="2.26968">
        <ele>133.6</ele>
        <time>2023-07-12T09:53:56Z</time>
      </trkpt>
      <trkpt lat="49.76627" lon="2.26968">
        <ele>133.5</ele>
        <time>2023-07-12T09:53:58Z</time>
      </trkpt>
      <trkpt lat="49.76627" lon="2.26968">
        <ele>133.5</ele>
        <time>2023-07-12T09:54:00Z</time>
      </trkpt>
      <trkpt lat="49.76627" lon="2.26968">
        <ele>133.5</ele>
        <time>2023-07-12T09:54:01Z</time>
      </trkpt>
      <trkpt lat="49.76627" lon="2.26968">
        <ele>133.5</ele>
        <time>2023-07-12T09:54:03Z</time>
      </trkpt>
      <trkpt lat="49.76627" lon="2.26968">
        <ele>133.5</ele>
        <time>2023-07-12T09:54:05Z</time>
      </trkpt>
      <trkpt lat="49.76627" lon="2.26968">
        <ele>133.5</ele>
        <time>2023-07-12T09:54:06Z</time>
      </trkpt>
      <trkpt lat="49.76627" lon="2.26968">
        <ele>133.5</ele>
        <time>2023-07-12T09:54:07Z</time>
      </trkpt>
      <trkpt lat="49.76627" lon="2.26968">
        <ele>133.5</ele>
        <time>2023-07-12T09:54:08Z</time>
      </trkpt>
      <trkpt lat="49.76628" lon="2.26969">
        <ele>133.5</ele>
        <time>2023-07-12T09:54:09Z</time>
      </trkpt>
      <trkpt lat="49.76628" lon="2.26969">
        <ele>133.5</ele>
        <time>2023-07-12T09:54:10Z</time>
      </trkpt>
      <trkpt lat="49.76629" lon="2.2697">
        <ele>133.5</ele>
        <time>2023-07-12T09:54:12Z</time>
      </trkpt>
      <trkpt lat="49.76629" lon="2.2697">
        <ele>133.5</ele>
        <time>2023-07-12T09:54:13Z</time>
      </trkpt>
      <trkpt lat="49.7663" lon="2.26971">
        <ele>133.5</ele>
        <time>2023-07-12T09:54:14Z</time>
      </trkpt>
      <trkpt lat="49.76632" lon="2.26971">
        <ele>133.5</ele>
        <time>2023-07-12T09:54:15Z</time>
      </trkpt>
      <trkpt lat="49.76633" lon="2.26971">
        <ele>133.5</ele>
        <time>2023-07-12T09:54:16Z</time>
      </trkpt>
      <trkpt lat="49.76635" lon="2.26971">
        <ele>133.5</ele>
        <time>2023-07-12T09:54:18Z</time>
      </trkpt>
      <trkpt lat="49.76636" lon="2.2697">
        <ele>133.5</ele>
        <time>2023-07-12T09:54:19Z</time>
      </trkpt>
      <trkpt lat="49.76637" lon="2.26969">
        <ele>133.5</ele>
        <time>2023-07-12T09:54:20Z</time>
      </trkpt>
      <trkpt lat="49.76638" lon="2.26969">
        <ele>133.5</ele>
        <time>2023-07-12T09:54:21Z</time>
      </trkpt>
      <trkpt lat="49.76639" lon="2.26969">
        <ele>133.5</ele>
        <time>2023-07-12T09:54:22Z</time>
      </trkpt>
      <trkpt lat="49.7664" lon="2.2697">
        <ele>133.5</ele>
        <time>2023-07-12T09:54:23Z</time>
      </trkpt>
      <trkpt lat="49.76641" lon="2.2697">
        <ele>133.4</ele>
        <time>2023-07-12T09:54:24Z</time>
      </trkpt>
      <trkpt lat="49.76642" lon="2.26971">
        <ele>133.4</ele>
        <time>2023-07-12T09:54:25Z</time>
      </trkpt>
      <trkpt lat="49.76643" lon="2.26971">
        <ele>133.4</ele>
        <time>2023-07-12T09:54:26Z</time>
      </trkpt>
      <trkpt lat="49.76644" lon="2.26971">
        <ele>133.4</ele>
        <time>2023-07-12T09:54:28Z</time>
      </trkpt>
      <trkpt lat="49.76644" lon="2.26971">
        <ele>133.4</ele>
        <time>2023-07-12T09:54:29Z</time>
      </trkpt>
      <trkpt lat="49.76645" lon="2.26972">
        <ele>133.4</ele>
        <time>2023-07-12T09:54:30Z</time>
      </trkpt>
      <trkpt lat="49.76646" lon="2.26972">
        <ele>133.4</ele>
        <time>2023-07-12T09:54:31Z</time>
      </trkpt>
      <trkpt lat="49.76646" lon="2.26972">
        <ele>133.4</ele>
        <time>2023-07-12T09:54:32Z</time>
      </trkpt>
      <trkpt lat="49.76647" lon="2.26972">
        <ele>133.4</ele>
        <time>2023-07-12T09:54:34Z</time>
      </trkpt>
      <trkpt lat="49.76647" lon="2.26972">
        <ele>133.4</ele>
        <time>2023-07-12T09:54:35Z</time>
      </trkpt>
      <trkpt lat="49.76647" lon="2.26972">
        <ele>133.4</ele>
        <time>2023-07-12T09:54:36Z</time>
      </trkpt>
      <trkpt lat="49.76647" lon="2.26973">
        <ele>133.4</ele>
        <time>2023-07-12T09:54:37Z</time>
      </trkpt>
      <trkpt lat="49.76648" lon="2.26973">
        <ele>133.4</ele>
        <time>2023-07-12T09:54:38Z</time>
      </trkpt>
      <trkpt lat="49.76649" lon="2.26974">
        <ele>133.4</ele>
        <time>2023-07-12T09:54:39Z</time>
      </trkpt>
      <trkpt lat="49.7665" lon="2.26974">
        <ele>133.4</ele>
        <time>2023-07-12T09:54:40Z</time>
      </trkpt>
      <trkpt lat="49.7665" lon="2.26975">
        <ele>133.4</ele>
        <time>2023-07-12T09:54:41Z</time>
      </trkpt>
      <trkpt lat="49.76651" lon="2.26975">
        <ele>133.4</ele>
        <time>2023-07-12T09:54:43Z</time>
      </trkpt>
      <trkpt lat="49.76652" lon="2.26976">
        <ele>133.4</ele>
        <time>2023-07-12T09:54:44Z</time>
      </trkpt>
      <trkpt lat="49.76652" lon="2.26976">
        <ele>133.4</ele>
        <time>2023-07-12T09:54:45Z</time>
      </trkpt>
      <trkpt lat="49.76653" lon="2.26977">
        <ele>133.4</ele>
        <time>2023-07-12T09:54:46Z</time>
      </trkpt>
      <trkpt lat="49.76654" lon="2.26977">
        <ele>133.4</ele>
        <time>2023-07-12T09:54:47Z</time>
      </trkpt>
      <trkpt lat="49.76655" lon="2.26978">
        <ele>133.4</ele>
        <time>2023-07-12T09:54:48Z</time>
      </trkpt>
      <trkpt lat="49.76655" lon="2.26978">
        <ele>133.3</ele>
        <time>2023-07-12T09:54:49Z</time>
      </trkpt>
      <trkpt lat="49.76656" lon="2.26978">
        <ele>133.3</ele>
        <time>2023-07-12T09:54:50Z</time>
      </trkpt>
      <trkpt lat="49.76657" lon="2.26978">
        <ele>133.3</ele>
        <time>2023-07-12T09:54:51Z</time>
      </trkpt>
      <trkpt lat="49.76658" lon="2.26979">
        <ele>133.3</ele>
        <time>2023-07-12T09:54:53Z</time>
      </trkpt>
      <trkpt lat="49.7666" lon="2.2698">
        <ele>133.3</ele>
        <time>2023-07-12T09:54:54Z</time>
      </trkpt>
      <trkpt lat="49.76662" lon="2.2698">
        <ele>133.3</ele>
        <time>2023-07-12T09:54:55Z</time>
      </trkpt>
      <trkpt lat="49.76663" lon="2.26981">
        <ele>133.3</ele>
        <time>2023-07-12T09:54:56Z</time>
      </trkpt>
      <trkpt lat="49.76665" lon="2.26981">
        <ele>133.3</ele>
        <time>2023-07-12T09:54:57Z</time>
      </trkpt>
      <trkpt lat="49.76667" lon="2.26982">
        <ele>133.3</ele>
        <time>2023-07-12T09:54:58Z</time>
      </trkpt>
      <trkpt lat="49.7667" lon="2.26983">
        <ele>133.2</ele>
        <time>2023-07-12T09:54:59Z</time>
      </trkpt>
      <trkpt lat="49.7667" lon="2.26983">
        <ele>133.2</ele>
        <time>2023-07-12T09:55:00Z</time>
      </trkpt>
      <trkpt lat="49.76672" lon="2.26984">
        <ele>133.2</ele>
        <time>2023-07-12T09:55:01Z</time>
      </trkpt>
      <trkpt lat="49.76674" lon="2.26984">
        <ele>133.2</ele>
        <time>2023-07-12T09:55:03Z</time>
      </trkpt>
      <trkpt lat="49.76677" lon="2.26986">
        <ele>133.2</ele>
        <time>2023-07-12T09:55:04Z</time>
      </trkpt>
      <trkpt lat="49.76678" lon="2.26986">
        <ele>133.2</ele>
        <time>2023-07-12T09:55:05Z</time>
      </trkpt>
      <trkpt lat="49.7668" lon="2.26987">
        <ele>133.1</ele>
        <time>2023-07-12T09:55:06Z</time>
      </trkpt>
      <trkpt lat="49.76681" lon="2.26988">
        <ele>133.1</ele>
        <time>2023-07-12T09:55:07Z</time>
      </trkpt>
      <trkpt lat="49.76683" lon="2.26989">
        <ele>133.1</ele>
        <time>2023-07-12T09:55:08Z</time>
      </trkpt>
      <trkpt lat="49.76684" lon="2.26989">
        <ele>133.1</ele>
        <time>2023-07-12T09:55:09Z</time>
      </trkpt>
      <trkpt lat="49.76685" lon="2.2699">
        <ele>133.1</ele>
        <time>2023-07-12T09:55:10Z</time>
      </trkpt>
      <trkpt lat="49.76687" lon="2.26991">
        <ele>133.1</ele>
        <time>2023-07-12T09:55:11Z</time>
      </trkpt>
      <trkpt lat="49.76687" lon="2.26991">
        <ele>133.1</ele>
        <time>2023-07-12T09:55:13Z</time>
      </trkpt>
      <trkpt lat="49.76688" lon="2.26991">
        <ele>133.1</ele>
        <time>2023-07-12T09:55:14Z</time>
      </trkpt>
      <trkpt lat="49.7669" lon="2.26992">
        <ele>133</ele>
        <time>2023-07-12T09:55:15Z</time>
      </trkpt>
      <trkpt lat="49.76691" lon="2.26993">
        <ele>133</ele>
        <time>2023-07-12T09:55:16Z</time>
      </trkpt>
      <trkpt lat="49.76692" lon="2.26994">
        <ele>133</ele>
        <time>2023-07-12T09:55:17Z</time>
      </trkpt>
      <trkpt lat="49.76693" lon="2.26994">
        <ele>133</ele>
        <time>2023-07-12T09:55:18Z</time>
      </trkpt>
      <trkpt lat="49.76695" lon="2.26996">
        <ele>133</ele>
        <time>2023-07-12T09:55:19Z</time>
      </trkpt>
      <trkpt lat="49.76696" lon="2.26997">
        <ele>133</ele>
        <time>2023-07-12T09:55:20Z</time>
      </trkpt>
      <trkpt lat="49.76697" lon="2.26998">
        <ele>133</ele>
        <time>2023-07-12T09:55:22Z</time>
      </trkpt>
      <trkpt lat="49.76697" lon="2.27">
        <ele>133</ele>
        <time>2023-07-12T09:55:23Z</time>
      </trkpt>
      <trkpt lat="49.76698" lon="2.27001">
        <ele>133</ele>
        <time>2023-07-12T09:55:24Z</time>
      </trkpt>
      <trkpt lat="49.76699" lon="2.27002">
        <ele>132.9</ele>
        <time>2023-07-12T09:55:25Z</time>
      </trkpt>
      <trkpt lat="49.767" lon="2.27003">
        <ele>132.9</ele>
        <time>2023-07-12T09:55:26Z</time>
      </trkpt>
      <trkpt lat="49.76701" lon="2.27004">
        <ele>132.9</ele>
        <time>2023-07-12T09:55:27Z</time>
      </trkpt>
      <trkpt lat="49.76702" lon="2.27006">
        <ele>132.9</ele>
        <time>2023-07-12T09:55:29Z</time>
      </trkpt>
      <trkpt lat="49.76703" lon="2.27007">
        <ele>132.9</ele>
        <time>2023-07-12T09:55:30Z</time>
      </trkpt>
      <trkpt lat="49.76705" lon="2.27009">
        <ele>132.9</ele>
        <time>2023-07-12T09:55:31Z</time>
      </trkpt>
      <trkpt lat="49.76706" lon="2.2701">
        <ele>132.9</ele>
        <time>2023-07-12T09:55:32Z</time>
      </trkpt>
      <trkpt lat="49.76707" lon="2.27011">
        <ele>132.8</ele>
        <time>2023-07-12T09:55:33Z</time>
      </trkpt>
      <trkpt lat="49.76708" lon="2.27012">
        <ele>132.8</ele>
        <time>2023-07-12T09:55:34Z</time>
      </trkpt>
      <trkpt lat="49.7671" lon="2.27014">
        <ele>132.8</ele>
        <time>2023-07-12T09:55:35Z</time>
      </trkpt>
      <trkpt lat="49.76711" lon="2.27015">
        <ele>132.8</ele>
        <time>2023-07-12T09:55:36Z</time>
      </trkpt>
      <trkpt lat="49.76711" lon="2.27016">
        <ele>132.8</ele>
        <time>2023-07-12T09:55:37Z</time>
      </trkpt>
      <trkpt lat="49.76712" lon="2.27017">
        <ele>132.8</ele>
        <time>2023-07-12T09:55:38Z</time>
      </trkpt>
      <trkpt lat="49.76713" lon="2.27019">
        <ele>132.8</ele>
        <time>2023-07-12T09:55:40Z</time>
      </trkpt>
      <trkpt lat="49.76714" lon="2.2702">
        <ele>132.8</ele>
        <time>2023-07-12T09:55:41Z</time>
      </trkpt>
      <trkpt lat="49.76714" lon="2.27021">
        <ele>132.7</ele>
        <time>2023-07-12T09:55:42Z</time>
      </trkpt>
      <trkpt lat="49.76715" lon="2.27023">
        <ele>132.7</ele>
        <time>2023-07-12T09:55:43Z</time>
      </trkpt>
      <trkpt lat="49.76716" lon="2.27024">
        <ele>132.7</ele>
        <time>2023-07-12T09:55:44Z</time>
      </trkpt>
      <trkpt lat="49.76717" lon="2.27025">
        <ele>132.7</ele>
        <time>2023-07-12T09:55:45Z</time>
      </trkpt>
      <trkpt lat="49.76717" lon="2.27026">
        <ele>132.7</ele>
        <time>2023-07-12T09:55:46Z</time>
      </trkpt>
      <trkpt lat="49.76718" lon="2.27027">
        <ele>132.7</ele>
        <time>2023-07-12T09:55:47Z</time>
      </trkpt>
      <trkpt lat="49.76719" lon="2.27027">
        <ele>132.7</ele>
        <time>2023-07-12T09:55:48Z</time>
      </trkpt>
      <trkpt lat="49.7672" lon="2.27029">
        <ele>132.7</ele>
        <time>2023-07-12T09:55:49Z</time>
      </trkpt>
      <trkpt lat="49.7672" lon="2.27029">
        <ele>132.7</ele>
        <time>2023-07-12T09:55:51Z</time>
      </trkpt>
      <trkpt lat="49.76721" lon="2.2703">
        <ele>132.7</ele>
        <time>2023-07-12T09:55:52Z</time>
      </trkpt>
      <trkpt lat="49.76722" lon="2.2703">
        <ele>132.6</ele>
        <time>2023-07-12T09:55:53Z</time>
      </trkpt>
      <trkpt lat="49.76722" lon="2.27031">
        <ele>132.6</ele>
        <time>2023-07-12T09:55:54Z</time>
      </trkpt>
      <trkpt lat="49.76723" lon="2.27032">
        <ele>132.6</ele>
        <time>2023-07-12T09:55:55Z</time>
      </trkpt>
      <trkpt lat="49.76724" lon="2.27033">
        <ele>132.6</ele>
        <time>2023-07-12T09:55:56Z</time>
      </trkpt>
      <trkpt lat="49.76725" lon="2.27034">
        <ele>132.6</ele>
        <time>2023-07-12T09:55:57Z</time>
      </trkpt>
      <trkpt lat="49.76726" lon="2.27035">
        <ele>132.6</ele>
        <time>2023-07-12T09:55:58Z</time>
      </trkpt>
      <trkpt lat="49.76727" lon="2.27036">
        <ele>132.6</ele>
        <time>2023-07-12T09:55:59Z</time>
      </trkpt>
      <trkpt lat="49.76728" lon="2.27036">
        <ele>132.6</ele>
        <time>2023-07-12T09:56:01Z</time>
      </trkpt>
      <trkpt lat="49.76729" lon="2.27037">
        <ele>132.5</ele>
        <time>2023-07-12T09:56:02Z</time>
      </trkpt>
      <trkpt lat="49.7673" lon="2.27038">
        <ele>132.5</ele>
        <time>2023-07-12T09:56:03Z</time>
      </trkpt>
      <trkpt lat="49.76731" lon="2.2704">
        <ele>132.5</ele>
        <time>2023-07-12T09:56:04Z</time>
      </trkpt>
      <trkpt lat="49.76732" lon="2.27041">
        <ele>132.5</ele>
        <time>2023-07-12T09:56:05Z</time>
      </trkpt>
      <trkpt lat="49.76733" lon="2.27042">
        <ele>132.5</ele>
        <time>2023-07-12T09:56:06Z</time>
      </trkpt>
      <trkpt lat="49.76734" lon="2.27043">
        <ele>132.5</ele>
        <time>2023-07-12T09:56:07Z</time>
      </trkpt>
      <trkpt lat="49.76736" lon="2.27045">
        <ele>132.5</ele>
        <time>2023-07-12T09:56:08Z</time>
      </trkpt>
      <trkpt lat="49.76737" lon="2.27045">
        <ele>132.5</ele>
        <time>2023-07-12T09:56:10Z</time>
      </trkpt>
      <trkpt lat="49.76738" lon="2.27046">
        <ele>132.5</ele>
        <time>2023-07-12T09:56:11Z</time>
      </trkpt>
      <trkpt lat="49.7674" lon="2.27047">
        <ele>132.4</ele>
        <time>2023-07-12T09:56:12Z</time>
      </trkpt>
      <trkpt lat="49.7674" lon="2.27048">
        <ele>132.4</ele>
        <time>2023-07-12T09:56:13Z</time>
      </trkpt>
      <trkpt lat="49.76741" lon="2.27048">
        <ele>132.4</ele>
        <time>2023-07-12T09:56:14Z</time>
      </trkpt>
      <trkpt lat="49.76743" lon="2.2705">
        <ele>132.4</ele>
        <time>2023-07-12T09:56:15Z</time>
      </trkpt>
      <trkpt lat="49.76744" lon="2.2705">
        <ele>132.4</ele>
        <time>2023-07-12T09:56:16Z</time>
      </trkpt>
      <trkpt lat="49.76745" lon="2.27051">
        <ele>132.4</ele>
        <time>2023-07-12T09:56:17Z</time>
      </trkpt>
      <trkpt lat="49.76747" lon="2.27052">
        <ele>132.4</ele>
        <time>2023-07-12T09:56:18Z</time>
      </trkpt>
      <trkpt lat="49.76747" lon="2.27053">
        <ele>132.4</ele>
        <time>2023-07-12T09:56:20Z</time>
      </trkpt>
      <trkpt lat="49.76748" lon="2.27053">
        <ele>132.4</ele>
        <time>2023-07-12T09:56:21Z</time>
      </trkpt>
      <trkpt lat="49.7675" lon="2.27054">
        <ele>132.4</ele>
        <time>2023-07-12T09:56:22Z</time>
      </trkpt>
      <trkpt lat="49.76751" lon="2.27054">
        <ele>132.4</ele>
        <time>2023-07-12T09:56:23Z</time>
      </trkpt>
      <trkpt lat="49.76753" lon="2.27055">
        <ele>132.3</ele>
        <time>2023-07-12T09:56:25Z</time>
      </trkpt>
      <trkpt lat="49.76754" lon="2.27055">
        <ele>132.3</ele>
        <time>2023-07-12T09:56:26Z</time>
      </trkpt>
      <trkpt lat="49.76755" lon="2.27055">
        <ele>132.3</ele>
        <time>2023-07-12T09:56:27Z</time>
      </trkpt>
      <trkpt lat="49.76757" lon="2.27055">
        <ele>132.3</ele>
        <time>2023-07-12T09:56:28Z</time>
      </trkpt>
      <trkpt lat="49.76759" lon="2.27056">
        <ele>132.3</ele>
        <time>2023-07-12T09:56:29Z</time>
      </trkpt>
      <trkpt lat="49.7676" lon="2.27056">
        <ele>132.3</ele>
        <time>2023-07-12T09:56:30Z</time>
      </trkpt>
      <trkpt lat="49.76762" lon="2.27056">
        <ele>132.3</ele>
        <time>2023-07-12T09:56:31Z</time>
      </trkpt>
      <trkpt lat="49.76763" lon="2.27056">
        <ele>132.3</ele>
        <time>2023-07-12T09:56:32Z</time>
      </trkpt>
      <trkpt lat="49.76764" lon="2.27056">
        <ele>132.3</ele>
        <time>2023-07-12T09:56:33Z</time>
      </trkpt>
      <trkpt lat="49.76766" lon="2.27056">
        <ele>132.3</ele>
        <time>2023-07-12T09:56:35Z</time>
      </trkpt>
      <trkpt lat="49.76767" lon="2.27057">
        <ele>132.3</ele>
        <time>2023-07-12T09:56:36Z</time>
      </trkpt>
      <trkpt lat="49.76769" lon="2.27057">
        <ele>132.3</ele>
        <time>2023-07-12T09:56:37Z</time>
      </trkpt>
      <trkpt lat="49.7677" lon="2.27058">
        <ele>132.3</ele>
        <time>2023-07-12T09:56:38Z</time>
      </trkpt>
      <trkpt lat="49.76772" lon="2.27059">
        <ele>132.3</ele>
        <time>2023-07-12T09:56:39Z</time>
      </trkpt>
      <trkpt lat="49.76773" lon="2.27059">
        <ele>132.3</ele>
        <time>2023-07-12T09:56:40Z</time>
      </trkpt>
      <trkpt lat="49.76774" lon="2.27059">
        <ele>132.3</ele>
        <time>2023-07-12T09:56:41Z</time>
      </trkpt>
      <trkpt lat="49.76776" lon="2.27059">
        <ele>132.3</ele>
        <time>2023-07-12T09:56:42Z</time>
      </trkpt>
      <trkpt lat="49.76777" lon="2.27059">
        <ele>132.3</ele>
        <time>2023-07-12T09:56:43Z</time>
      </trkpt>
      <trkpt lat="49.76778" lon="2.27059">
        <ele>132.3</ele>
        <time>2023-07-12T09:56:45Z</time>
      </trkpt>
      <trkpt lat="49.76779" lon="2.27059">
        <ele>132.3</ele>
        <time>2023-07-12T09:56:46Z</time>
      </trkpt>
      <trkpt lat="49.7678" lon="2.27059">
        <ele>132.3</ele>
        <time>2023-07-12T09:56:47Z</time>
      </trkpt>
      <trkpt lat="49.76781" lon="2.27059">
        <ele>132.3</ele>
        <time>2023-07-12T09:56:48Z</time>
      </trkpt>
      <trkpt lat="49.76782" lon="2.2706">
        <ele>132.3</ele>
        <time>2023-07-12T09:56:49Z</time>
      </trkpt>
      <trkpt lat="49.76783" lon="2.2706">
        <ele>132.3</ele>
        <time>2023-07-12T09:56:50Z</time>
      </trkpt>
      <trkpt lat="49.76784" lon="2.2706">
        <ele>132.3</ele>
        <time>2023-07-12T09:56:51Z</time>
      </trkpt>
      <trkpt lat="49.76785" lon="2.2706">
        <ele>132.3</ele>
        <time>2023-07-12T09:56:52Z</time>
      </trkpt>
      <trkpt lat="49.76786" lon="2.2706">
        <ele>132.3</ele>
        <time>2023-07-12T09:56:54Z</time>
      </trkpt>
      <trkpt lat="49.76787" lon="2.2706">
        <ele>132.3</ele>
        <time>2023-07-12T09:56:55Z</time>
      </trkpt>
      <trkpt lat="49.76788" lon="2.2706">
        <ele>132.3</ele>
        <time>2023-07-12T09:56:56Z</time>
      </trkpt>
      <trkpt lat="49.76789" lon="2.2706">
        <ele>132.3</ele>
        <time>2023-07-12T09:56:57Z</time>
      </trkpt>
      <trkpt lat="49.7679" lon="2.27061">
        <ele>132.3</ele>
        <time>2023-07-12T09:56:58Z</time>
      </trkpt>
      <trkpt lat="49.76791" lon="2.27061">
        <ele>132.3</ele>
        <time>2023-07-12T09:56:59Z</time>
      </trkpt>
      <trkpt lat="49.76792" lon="2.27062">
        <ele>132.3</ele>
        <time>2023-07-12T09:57:00Z</time>
      </trkpt>
      <trkpt lat="49.76793" lon="2.27062">
        <ele>132.3</ele>
        <time>2023-07-12T09:57:01Z</time>
      </trkpt>
      <trkpt lat="49.76794" lon="2.27062">
        <ele>132.3</ele>
        <time>2023-07-12T09:57:03Z</time>
      </trkpt>
      <trkpt lat="49.76794" lon="2.27062">
        <ele>132.3</ele>
        <time>2023-07-12T09:57:04Z</time>
      </trkpt>
      <trkpt lat="49.76795" lon="2.27062">
        <ele>132.3</ele>
        <time>2023-07-12T09:57:05Z</time>
      </trkpt>
      <trkpt lat="49.76796" lon="2.27062">
        <ele>132.4</ele>
        <time>2023-07-12T09:57:06Z</time>
      </trkpt>
      <trkpt lat="49.76797" lon="2.27062">
        <ele>132.4</ele>
        <time>2023-07-12T09:57:07Z</time>
      </trkpt>
      <trkpt lat="49.76798" lon="2.27062">
        <ele>132.4</ele>
        <time>2023-07-12T09:57:08Z</time>
      </trkpt>
      <trkpt lat="49.76799" lon="2.27063">
        <ele>132.4</ele>
        <time>2023-07-12T09:57:09Z</time>
      </trkpt>
      <trkpt lat="49.76801" lon="2.27063">
        <ele>132.4</ele>
        <time>2023-07-12T09:57:10Z</time>
      </trkpt>
      <trkpt lat="49.76802" lon="2.27063">
        <ele>132.4</ele>
        <time>2023-07-12T09:57:11Z</time>
      </trkpt>
      <trkpt lat="49.76803" lon="2.27063">
        <ele>132.4</ele>
        <time>2023-07-12T09:57:13Z</time>
      </trkpt>
      <trkpt lat="49.76804" lon="2.27062">
        <ele>132.4</ele>
        <time>2023-07-12T09:57:14Z</time>
      </trkpt>
      <trkpt lat="49.76805" lon="2.27062">
        <ele>132.4</ele>
        <time>2023-07-12T09:57:15Z</time>
      </trkpt>
      <trkpt lat="49.76806" lon="2.27062">
        <ele>132.4</ele>
        <time>2023-07-12T09:57:16Z</time>
      </trkpt>
      <trkpt lat="49.76808" lon="2.27062">
        <ele>132.4</ele>
        <time>2023-07-12T09:57:17Z</time>
      </trkpt>
      <trkpt lat="49.76809" lon="2.27062">
        <ele>132.4</ele>
        <time>2023-07-12T09:57:18Z</time>
      </trkpt>
      <trkpt lat="49.7681" lon="2.27062">
        <ele>132.5</ele>
        <time>2023-07-12T09:57:19Z</time>
      </trkpt>
      <trkpt lat="49.76811" lon="2.27061">
        <ele>132.5</ele>
        <time>2023-07-12T09:57:21Z</time>
      </trkpt>
      <trkpt lat="49.76812" lon="2.27061">
        <ele>132.5</ele>
        <time>2023-07-12T09:57:22Z</time>
      </trkpt>
      <trkpt lat="49.76813" lon="2.27061">
        <ele>132.5</ele>
        <time>2023-07-12T09:57:23Z</time>
      </trkpt>
      <trkpt lat="49.76814" lon="2.27061">
        <ele>132.5</ele>
        <time>2023-07-12T09:57:24Z</time>
      </trkpt>
      <trkpt lat="49.76815" lon="2.27061">
        <ele>132.5</ele>
        <time>2023-07-12T09:57:25Z</time>
      </trkpt>
      <trkpt lat="49.76816" lon="2.27061">
        <ele>132.5</ele>
        <time>2023-07-12T09:57:26Z</time>
      </trkpt>
      <trkpt lat="49.76817" lon="2.27061">
        <ele>132.5</ele>
        <time>2023-07-12T09:57:27Z</time>
      </trkpt>
      <trkpt lat="49.76818" lon="2.27061">
        <ele>132.5</ele>
        <time>2023-07-12T09:57:29Z</time>
      </trkpt>
      <trkpt lat="49.76819" lon="2.2706">
        <ele>132.5</ele>
        <time>2023-07-12T09:57:30Z</time>
      </trkpt>
      <trkpt lat="49.76821" lon="2.27058">
        <ele>132.5</ele>
        <time>2023-07-12T09:57:31Z</time>
      </trkpt>
      <trkpt lat="49.76821" lon="2.27057">
        <ele>132.5</ele>
        <time>2023-07-12T09:57:32Z</time>
      </trkpt>
      <trkpt lat="49.76822" lon="2.27056">
        <ele>132.5</ele>
        <time>2023-07-12T09:57:33Z</time>
      </trkpt>
      <trkpt lat="49.76823" lon="2.27055">
        <ele>132.5</ele>
        <time>2023-07-12T09:57:35Z</time>
      </trkpt>
      <trkpt lat="49.76824" lon="2.27055">
        <ele>132.5</ele>
        <time>2023-07-12T09:57:36Z</time>
      </trkpt>
      <trkpt lat="49.76825" lon="2.27054">
        <ele>132.5</ele>
        <time>2023-07-12T09:57:37Z</time>
      </trkpt>
      <trkpt lat="49.76827" lon="2.27054">
        <ele>132.5</ele>
        <time>2023-07-12T09:57:38Z</time>
      </trkpt>
      <trkpt lat="49.76828" lon="2.27054">
        <ele>132.5</ele>
        <time>2023-07-12T09:57:39Z</time>
      </trkpt>
      <trkpt lat="49.76829" lon="2.27054">
        <ele>132.5</ele>
        <time>2023-07-12T09:57:40Z</time>
      </trkpt>
      <trkpt lat="49.7683" lon="2.27054">
        <ele>132.4</ele>
        <time>2023-07-12T09:57:41Z</time>
      </trkpt>
      <trkpt lat="49.76831" lon="2.27054">
        <ele>132.4</ele>
        <time>2023-07-12T09:57:42Z</time>
      </trkpt>
      <trkpt lat="49.76833" lon="2.27054">
        <ele>132.4</ele>
        <time>2023-07-12T09:57:44Z</time>
      </trkpt>
      <trkpt lat="49.76834" lon="2.27054">
        <ele>132.4</ele>
        <time>2023-07-12T09:57:45Z</time>
      </trkpt>
      <trkpt lat="49.76835" lon="2.27054">
        <ele>132.4</ele>
        <time>2023-07-12T09:57:46Z</time>
      </trkpt>
      <trkpt lat="49.76836" lon="2.27054">
        <ele>132.4</ele>
        <time>2023-07-12T09:57:47Z</time>
      </trkpt>
      <trkpt lat="49.76838" lon="2.27054">
        <ele>132.4</ele>
        <time>2023-07-12T09:57:48Z</time>
      </trkpt>
      <trkpt lat="49.76839" lon="2.27053">
        <ele>132.4</ele>
        <time>2023-07-12T09:57:49Z</time>
      </trkpt>
      <trkpt lat="49.7684" lon="2.27053">
        <ele>132.4</ele>
        <time>2023-07-12T09:57:50Z</time>
      </trkpt>
      <trkpt lat="49.76841" lon="2.27053">
        <ele>132.4</ele>
        <time>2023-07-12T09:57:51Z</time>
      </trkpt>
      <trkpt lat="49.76842" lon="2.27053">
        <ele>132.4</ele>
        <time>2023-07-12T09:57:52Z</time>
      </trkpt>
      <trkpt lat="49.76843" lon="2.27054">
        <ele>132.3</ele>
        <time>2023-07-12T09:57:54Z</time>
      </trkpt>
      <trkpt lat="49.76844" lon="2.27054">
        <ele>132.3</ele>
        <time>2023-07-12T09:57:55Z</time>
      </trkpt>
      <trkpt lat="49.76845" lon="2.27055">
        <ele>132.3</ele>
        <time>2023-07-12T09:57:56Z</time>
      </trkpt>
      <trkpt lat="49.76846" lon="2.27056">
        <ele>132.3</ele>
        <time>2023-07-12T09:57:57Z</time>
      </trkpt>
      <trkpt lat="49.76846" lon="2.27057">
        <ele>132.3</ele>
        <time>2023-07-12T09:57:58Z</time>
      </trkpt>
      <trkpt lat="49.76847" lon="2.27059">
        <ele>132.3</ele>
        <time>2023-07-12T09:57:59Z</time>
      </trkpt>
      <trkpt lat="49.76848" lon="2.2706">
        <ele>132.3</ele>
        <time>2023-07-12T09:58:00Z</time>
      </trkpt>
      <trkpt lat="49.7685" lon="2.2706">
        <ele>132.3</ele>
        <time>2023-07-12T09:58:02Z</time>
      </trkpt>
      <trkpt lat="49.7685" lon="2.27059">
        <ele>132.3</ele>
        <time>2023-07-12T09:58:03Z</time>
      </trkpt>
      <trkpt lat="49.76851" lon="2.27058">
        <ele>132.3</ele>
        <time>2023-07-12T09:58:04Z</time>
      </trkpt>
      <trkpt lat="49.76852" lon="2.27058">
        <ele>132.3</ele>
        <time>2023-07-12T09:58:05Z</time>
      </trkpt>
      <trkpt lat="49.76853" lon="2.27057">
        <ele>132.3</ele>
        <time>2023-07-12T09:58:06Z</time>
      </trkpt>
      <trkpt lat="49.76854" lon="2.27057">
        <ele>132.2</ele>
        <time>2023-07-12T09:58:07Z</time>
      </trkpt>
      <trkpt lat="49.76855" lon="2.27057">
        <ele>132.2</ele>
        <time>2023-07-12T09:58:09Z</time>
      </trkpt>
      <trkpt lat="49.76857" lon="2.27058">
        <ele>132.2</ele>
        <time>2023-07-12T09:58:10Z</time>
      </trkpt>
      <trkpt lat="49.76858" lon="2.27058">
        <ele>132.2</ele>
        <time>2023-07-12T09:58:11Z</time>
      </trkpt>
      <trkpt lat="49.76859" lon="2.27058">
        <ele>132.2</ele>
        <time>2023-07-12T09:58:12Z</time>
      </trkpt>
      <trkpt lat="49.7686" lon="2.27059">
        <ele>132.2</ele>
        <time>2023-07-12T09:58:13Z</time>
      </trkpt>
      <trkpt lat="49.7686" lon="2.27059">
        <ele>132.2</ele>
        <time>2023-07-12T09:58:14Z</time>
      </trkpt>
      <trkpt lat="49.76861" lon="2.2706">
        <ele>132.2</ele>
        <time>2023-07-12T09:58:15Z</time>
      </trkpt>
      <trkpt lat="49.76862" lon="2.2706">
        <ele>132.2</ele>
        <time>2023-07-12T09:58:17Z</time>
      </trkpt>
      <trkpt lat="49.76862" lon="2.27061">
        <ele>132.2</ele>
        <time>2023-07-12T09:58:18Z</time>
      </trkpt>
      <trkpt lat="49.76863" lon="2.27062">
        <ele>132.2</ele>
        <time>2023-07-12T09:58:19Z</time>
      </trkpt>
      <trkpt lat="49.76864" lon="2.27062">
        <ele>132.2</ele>
        <time>2023-07-12T09:58:20Z</time>
      </trkpt>
      <trkpt lat="49.76865" lon="2.27063">
        <ele>132.2</ele>
        <time>2023-07-12T09:58:21Z</time>
      </trkpt>
      <trkpt lat="49.76866" lon="2.27063">
        <ele>132.2</ele>
        <time>2023-07-12T09:58:22Z</time>
      </trkpt>
      <trkpt lat="49.76867" lon="2.27063">
        <ele>132.2</ele>
        <time>2023-07-12T09:58:23Z</time>
      </trkpt>
      <trkpt lat="49.76868" lon="2.27063">
        <ele>132.2</ele>
        <time>2023-07-12T09:58:25Z</time>
      </trkpt>
      <trkpt lat="49.76868" lon="2.27064">
        <ele>132.2</ele>
        <time>2023-07-12T09:58:26Z</time>
      </trkpt>
      <trkpt lat="49.76869" lon="2.27064">
        <ele>132.2</ele>
        <time>2023-07-12T09:58:27Z</time>
      </trkpt>
      <trkpt lat="49.7687" lon="2.27064">
        <ele>132.2</ele>
        <time>2023-07-12T09:58:28Z</time>
      </trkpt>
      <trkpt lat="49.76871" lon="2.27065">
        <ele>132.2</ele>
        <time>2023-07-12T09:58:29Z</time>
      </trkpt>
      <trkpt lat="49.76872" lon="2.27065">
        <ele>132.1</ele>
        <time>2023-07-12T09:58:31Z</time>
      </trkpt>
      <trkpt lat="49.76872" lon="2.27065">
        <ele>132.1</ele>
        <time>2023-07-12T09:58:32Z</time>
      </trkpt>
      <trkpt lat="49.76872" lon="2.27065">
        <ele>132.1</ele>
        <time>2023-07-12T09:58:33Z</time>
      </trkpt>
      <trkpt lat="49.76873" lon="2.27065">
        <ele>132.1</ele>
        <time>2023-07-12T09:58:35Z</time>
      </trkpt>
      <trkpt lat="49.76874" lon="2.27064">
        <ele>132.1</ele>
        <time>2023-07-12T09:58:36Z</time>
      </trkpt>
      <trkpt lat="49.76874" lon="2.27064">
        <ele>132.1</ele>
        <time>2023-07-12T09:58:38Z</time>
      </trkpt>
      <trkpt lat="49.76874" lon="2.27064">
        <ele>132.1</ele>
        <time>2023-07-12T09:58:39Z</time>
      </trkpt>
      <trkpt lat="49.76873" lon="2.27065">
        <ele>132.1</ele>
        <time>2023-07-12T09:58:40Z</time>
      </trkpt>
      <trkpt lat="49.76874" lon="2.27064">
        <ele>132.1</ele>
        <time>2023-07-12T09:58:42Z</time>
      </trkpt>
      <trkpt lat="49.76873" lon="2.27064">
        <ele>132.1</ele>
        <time>2023-07-12T09:58:44Z</time>
      </trkpt>
      <trkpt lat="49.76873" lon="2.27063">
        <ele>132.1</ele>
        <time>2023-07-12T09:58:46Z</time>
      </trkpt>
      <trkpt lat="49.76873" lon="2.27063">
        <ele>132.1</ele>
        <time>2023-07-12T09:58:47Z</time>
      </trkpt>
      <trkpt lat="49.76874" lon="2.27063">
        <ele>132.1</ele>
        <time>2023-07-12T09:58:49Z</time>
      </trkpt>
      <trkpt lat="49.76874" lon="2.27063">
        <ele>132.1</ele>
        <time>2023-07-12T09:58:50Z</time>
      </trkpt>
      <trkpt lat="49.76874" lon="2.27062">
        <ele>132.1</ele>
        <time>2023-07-12T09:58:52Z</time>
      </trkpt>
      <trkpt lat="49.76874" lon="2.27062">
        <ele>132.1</ele>
        <time>2023-07-12T09:58:53Z</time>
      </trkpt>
      <trkpt lat="49.76873" lon="2.27063">
        <ele>132.1</ele>
        <time>2023-07-12T09:58:54Z</time>
      </trkpt>
      <trkpt lat="49.76873" lon="2.27063">
        <ele>132.1</ele>
        <time>2023-07-12T09:58:56Z</time>
      </trkpt>
      <trkpt lat="49.76873" lon="2.27064">
        <ele>132.1</ele>
        <time>2023-07-12T09:58:57Z</time>
      </trkpt>
      <trkpt lat="49.76873" lon="2.27064">
        <ele>132.1</ele>
        <time>2023-07-12T09:58:58Z</time>
      </trkpt>
      <trkpt lat="49.76872" lon="2.27065">
        <ele>132.1</ele>
        <time>2023-07-12T09:59:00Z</time>
      </trkpt>
      <trkpt lat="49.76872" lon="2.27066">
        <ele>132.1</ele>
        <time>2023-07-12T09:59:01Z</time>
      </trkpt>
      <trkpt lat="49.76872" lon="2.27066">
        <ele>132.1</ele>
        <time>2023-07-12T09:59:03Z</time>
      </trkpt>
      <trkpt lat="49.76872" lon="2.27066">
        <ele>132.1</ele>
        <time>2023-07-12T09:59:04Z</time>
      </trkpt>
      <trkpt lat="49.76872" lon="2.27066">
        <ele>132.1</ele>
        <time>2023-07-12T09:59:05Z</time>
      </trkpt>
      <trkpt lat="49.76872" lon="2.27067">
        <ele>132.1</ele>
        <time>2023-07-12T09:59:06Z</time>
      </trkpt>
      <trkpt lat="49.76873" lon="2.27067">
        <ele>132.1</ele>
        <time>2023-07-12T09:59:08Z</time>
      </trkpt>
      <trkpt lat="49.76874" lon="2.27067">
        <ele>132.1</ele>
        <time>2023-07-12T09:59:09Z</time>
      </trkpt>
      <trkpt lat="49.76874" lon="2.27067">
        <ele>132.1</ele>
        <time>2023-07-12T09:59:10Z</time>
      </trkpt>
      <trkpt lat="49.76874" lon="2.27068">
        <ele>132.1</ele>
        <time>2023-07-12T09:59:12Z</time>
      </trkpt>
      <trkpt lat="49.76874" lon="2.27068">
        <ele>132.1</ele>
        <time>2023-07-12T09:59:14Z</time>
      </trkpt>
      <trkpt lat="49.76873" lon="2.27068">
        <ele>132.1</ele>
        <time>2023-07-12T09:59:15Z</time>
      </trkpt>
      <trkpt lat="49.76873" lon="2.27067">
        <ele>132.1</ele>
        <time>2023-07-12T09:59:17Z</time>
      </trkpt>
      <trkpt lat="49.76872" lon="2.27067">
        <ele>132.1</ele>
        <time>2023-07-12T09:59:18Z</time>
      </trkpt>
      <trkpt lat="49.76872" lon="2.27067">
        <ele>132.1</ele>
        <time>2023-07-12T09:59:20Z</time>
      </trkpt>
      <trkpt lat="49.76872" lon="2.27067">
        <ele>132.1</ele>
        <time>2023-07-12T09:59:21Z</time>
      </trkpt>
      <trkpt lat="49.76873" lon="2.27067">
        <ele>132.1</ele>
        <time>2023-07-12T09:59:22Z</time>
      </trkpt>
      <trkpt lat="49.76873" lon="2.27067">
        <ele>132.1</ele>
        <time>2023-07-12T09:59:24Z</time>
      </trkpt>
      <trkpt lat="49.76873" lon="2.27066">
        <ele>132.1</ele>
        <time>2023-07-12T09:59:25Z</time>
      </trkpt>
      <trkpt lat="49.76874" lon="2.27066">
        <ele>132.1</ele>
        <time>2023-07-12T09:59:27Z</time>
      </trkpt>
      <trkpt lat="49.76874" lon="2.27066">
        <ele>132.1</ele>
        <time>2023-07-12T09:59:28Z</time>
      </trkpt>
      <trkpt lat="49.76874" lon="2.27066">
        <ele>132.1</ele>
        <time>2023-07-12T09:59:29Z</time>
      </trkpt>
      <trkpt lat="49.76874" lon="2.27066">
        <ele>132.1</ele>
        <time>2023-07-12T09:59:30Z</time>
      </trkpt>
      <trkpt lat="49.76875" lon="2.27066">
        <ele>132.1</ele>
        <time>2023-07-12T09:59:31Z</time>
      </trkpt>
      <trkpt lat="49.76875" lon="2.27065">
        <ele>132.1</ele>
        <time>2023-07-12T09:59:32Z</time>
      </trkpt>
      <trkpt lat="49.76875" lon="2.27065">
        <ele>132.1</ele>
        <time>2023-07-12T09:59:33Z</time>
      </trkpt>
      <trkpt lat="49.76876" lon="2.27065">
        <ele>132.1</ele>
        <time>2023-07-12T09:59:34Z</time>
      </trkpt>
      <trkpt lat="49.76876" lon="2.27065">
        <ele>132.1</ele>
        <time>2023-07-12T09:59:35Z</time>
      </trkpt>
      <trkpt lat="49.76876" lon="2.27065">
        <ele>132.1</ele>
        <time>2023-07-12T09:59:36Z</time>
      </trkpt>
      <trkpt lat="49.76877" lon="2.27065">
        <ele>132.1</ele>
        <time>2023-07-12T09:59:37Z</time>
      </trkpt>
      <trkpt lat="49.76877" lon="2.27064">
        <ele>132.1</ele>
        <time>2023-07-12T09:59:38Z</time>
      </trkpt>
      <trkpt lat="49.76877" lon="2.27064">
        <ele>132.1</ele>
        <time>2023-07-12T09:59:39Z</time>
      </trkpt>
      <trkpt lat="49.76877" lon="2.27064">
        <ele>132.1</ele>
        <time>2023-07-12T09:59:40Z</time>
      </trkpt>
      <trkpt lat="49.76878" lon="2.27064">
        <ele>132</ele>
        <time>2023-07-12T09:59:41Z</time>
      </trkpt>
      <trkpt lat="49.76878" lon="2.27064">
        <ele>132</ele>
        <time>2023-07-12T09:59:42Z</time>
      </trkpt>
      <trkpt lat="49.76878" lon="2.27064">
        <ele>132</ele>
        <time>2023-07-12T09:59:44Z</time>
      </trkpt>
      <trkpt lat="49.76879" lon="2.27064">
        <ele>132</ele>
        <time>2023-07-12T09:59:45Z</time>
      </trkpt>
      <trkpt lat="49.76879" lon="2.27063">
        <ele>132</ele>
        <time>2023-07-12T09:59:46Z</time>
      </trkpt>
      <trkpt lat="49.76881" lon="2.2706">
        <ele>132</ele>
        <time>2023-07-12T09:59:48Z</time>
      </trkpt>
      <trkpt lat="49.76881" lon="2.27058">
        <ele>132</ele>
        <time>2023-07-12T09:59:49Z</time>
      </trkpt>
      <trkpt lat="49.76882" lon="2.27057">
        <ele>132</ele>
        <time>2023-07-12T09:59:50Z</time>
      </trkpt>
      <trkpt lat="49.76883" lon="2.27055">
        <ele>132</ele>
        <time>2023-07-12T09:59:52Z</time>
      </trkpt>
    </trkseg>
  </trk>
</gpx>